<?xml version="1.0" encoding="UTF-8" standalone="no" ?>
<gpx xmlns="http://www.topografix.com/GPX/1/1" creator="https://MapMagic.app" xmlns:xsi="http://www.w3.org/2001/XMLSchema-instance" xsi:schemaLocation="http://www.topografix.com/GPX/1/1 http://www.topografix.com/GPX/1/1/gpx.xsd" version="1.1">
	<wpt lat="54.446470" lon="21.017406">
		<name>КП 1</name>
		<type>Generic</type>
	</wpt>
	<wpt lat="54.636551" lon="21.796339">
		<name>КП 4</name>
		<type>Generic</type>
	</wpt>
	<wpt lat="54.591000" lon="22.196248">
		<name>КП 6/9</name>
		<type>Generic</type>
	</wpt>
	<wpt lat="55.081167" lon="21.889216">
		<name>КП 10</name>
		<type>Generic</type>
	</wpt>
	<wpt lat="54.701452" lon="20.746013">
		<name>КП 12</name>
		<type>Generic</type>
	</wpt>
	<wpt lat="54.869587" lon="20.550505">
		<name>КП 13</name>
		<type>Generic</type>
	</wpt>
	<wpt lat="54.647840" lon="21.072763">
		<name>КП 2</name>
		<type>Generic</type>
	</wpt>
	<wpt lat="54.360977" lon="21.305113">
		<name>КП 3</name>
		<type>Generic</type>
	</wpt>
	<wpt lat="54.408724" lon="22.014960">
		<name>КП 5</name>
		<type>Generic</type>
	</wpt>
	<wpt lat="54.416837" lon="22.689442">
		<name>КП 7</name>
		<type>Generic</type>
	</wpt>
	<wpt lat="54.942347" lon="22.489757">
		<name>КП 8</name>
		<type>Generic</type>
	</wpt>
	<wpt lat="54.650475" lon="21.340973">
		<name>КП 11</name>
		<type>Generic</type>
	</wpt>
	<wpt lat="54.874585" lon="19.937453">
		<name>КП 14</name>
		<type>Generic</type>
	</wpt>
	<wpt lat="54.750910" lon="20.192466">
		<name>КП 15</name>
		<type>Generic</type>
	</wpt>
	<trk>
		<name>1200_Янтарный_2026</name>
		<desc>1200_Янтарный_2026</desc>
		<trkseg>
			<trkpt lat="54.711216" lon="20.490714"><ele>4.2</ele><time>2026-07-14T12:15:11Z</time></trkpt>
			<trkpt lat="54.712387" lon="20.490961"><ele>6.1</ele><time>2026-07-14T12:17:55Z</time></trkpt>
			<trkpt lat="54.712390" lon="20.490960"><ele>6.1</ele><time>2026-07-14T12:17:57Z</time></trkpt>
			<trkpt lat="54.712320" lon="20.491280"><ele>6.3</ele><time>2026-07-14T12:17:58Z</time></trkpt>
			<trkpt lat="54.712110" lon="20.492450"><ele>5.7</ele><time>2026-07-14T12:18:00Z</time></trkpt>
			<trkpt lat="54.712060" lon="20.492650"><ele>5.5</ele><time>2026-07-14T12:18:02Z</time></trkpt>
			<trkpt lat="54.712000" lon="20.492820"><ele>5.4</ele><time>2026-07-14T12:18:04Z</time></trkpt>
			<trkpt lat="54.711860" lon="20.493140"><ele>5.1</ele><time>2026-07-14T12:18:06Z</time></trkpt>
			<trkpt lat="54.711560" lon="20.493690"><ele>3.7</ele><time>2026-07-14T12:18:07Z</time></trkpt>
			<trkpt lat="54.711430" lon="20.493860"><ele>3.2</ele><time>2026-07-14T12:18:09Z</time></trkpt>
			<trkpt lat="54.711320" lon="20.493950"><ele>2.7</ele><time>2026-07-14T12:18:11Z</time></trkpt>
			<trkpt lat="54.711090" lon="20.494050"><ele>1.5</ele><time>2026-07-14T12:18:13Z</time></trkpt>
			<trkpt lat="54.710920" lon="20.494010"><ele>0.7</ele><time>2026-07-14T12:18:14Z</time></trkpt>
			<trkpt lat="54.710820" lon="20.493950"><ele>0.3</ele><time>2026-07-14T12:18:16Z</time></trkpt>
			<trkpt lat="54.710690" lon="20.493850"><ele>-0.1</ele><time>2026-07-14T12:18:18Z</time></trkpt>
			<trkpt lat="54.710640" lon="20.493800"><ele>-0.2</ele><time>2026-07-14T12:18:20Z</time></trkpt>
			<trkpt lat="54.710510" lon="20.493570"><ele>-0.4</ele><time>2026-07-14T12:18:22Z</time></trkpt>
			<trkpt lat="54.710510" lon="20.493570"><ele>-0.4</ele><time>2026-07-14T12:18:24Z</time></trkpt>
			<trkpt lat="54.710130" lon="20.492910"><ele>-0.8</ele><time>2026-07-14T12:18:26Z</time></trkpt>
			<trkpt lat="54.709920" lon="20.492550"><ele>-1.0</ele><time>2026-07-14T12:18:28Z</time></trkpt>
			<trkpt lat="54.709410" lon="20.491650"><ele>1.0</ele><time>2026-07-14T12:18:30Z</time></trkpt>
			<trkpt lat="54.708840" lon="20.490740"><ele>3.0</ele><time>2026-07-14T12:18:33Z</time></trkpt>
			<trkpt lat="54.708720" lon="20.490550"><ele>3.1</ele><time>2026-07-14T12:18:35Z</time></trkpt>
			<trkpt lat="54.708450" lon="20.490270"><ele>3.1</ele><time>2026-07-14T12:18:37Z</time></trkpt>
			<trkpt lat="54.708250" lon="20.490110"><ele>3.0</ele><time>2026-07-14T12:18:39Z</time></trkpt>
			<trkpt lat="54.708070" lon="20.489980"><ele>3.0</ele><time>2026-07-14T12:18:42Z</time></trkpt>
			<trkpt lat="54.708040" lon="20.489960"><ele>3.0</ele><time>2026-07-14T12:18:44Z</time></trkpt>
			<trkpt lat="54.708040" lon="20.489960"><ele>3.0</ele><time>2026-07-14T12:18:47Z</time></trkpt>
			<trkpt lat="54.707960" lon="20.489890"><ele>3.1</ele><time>2026-07-14T12:18:50Z</time></trkpt>
			<trkpt lat="54.707810" lon="20.489730"><ele>3.2</ele><time>2026-07-14T12:18:53Z</time></trkpt>
			<trkpt lat="54.707650" lon="20.489620"><ele>3.4</ele><time>2026-07-14T12:18:55Z</time></trkpt>
			<trkpt lat="54.707550" lon="20.489600"><ele>3.2</ele><time>2026-07-14T12:18:58Z</time></trkpt>
			<trkpt lat="54.707470" lon="20.489600"><ele>2.9</ele><time>2026-07-14T12:19:01Z</time></trkpt>
			<trkpt lat="54.707390" lon="20.489620"><ele>2.7</ele><time>2026-07-14T12:19:04Z</time></trkpt>
			<trkpt lat="54.707260" lon="20.489680"><ele>2.2</ele><time>2026-07-14T12:19:07Z</time></trkpt>
			<trkpt lat="54.707110" lon="20.489790"><ele>1.4</ele><time>2026-07-14T12:19:10Z</time></trkpt>
			<trkpt lat="54.706990" lon="20.489850"><ele>0.7</ele><time>2026-07-14T12:19:13Z</time></trkpt>
			<trkpt lat="54.706840" lon="20.489870"><ele>0.2</ele><time>2026-07-14T12:19:16Z</time></trkpt>
			<trkpt lat="54.706790" lon="20.489850"><ele>0.0</ele><time>2026-07-14T12:19:19Z</time></trkpt>
			<trkpt lat="54.706620" lon="20.489660"><ele>-0.5</ele><time>2026-07-14T12:19:22Z</time></trkpt>
			<trkpt lat="54.706490" lon="20.489390"><ele>-0.5</ele><time>2026-07-14T12:19:24Z</time></trkpt>
			<trkpt lat="54.706340" lon="20.488980"><ele>-0.4</ele><time>2026-07-14T12:19:27Z</time></trkpt>
			<trkpt lat="54.706300" lon="20.488960"><ele>-0.5</ele><time>2026-07-14T12:19:30Z</time></trkpt>
			<trkpt lat="54.706250" lon="20.488980"><ele>-0.5</ele><time>2026-07-14T12:19:33Z</time></trkpt>
			<trkpt lat="54.706220" lon="20.489020"><ele>-0.5</ele><time>2026-07-14T12:19:36Z</time></trkpt>
			<trkpt lat="54.706200" lon="20.489080"><ele>-0.6</ele><time>2026-07-14T12:19:39Z</time></trkpt>
			<trkpt lat="54.706190" lon="20.489220"><ele>-0.6</ele><time>2026-07-14T12:19:42Z</time></trkpt>
			<trkpt lat="54.705900" lon="20.489400"><ele>-0.9</ele><time>2026-07-14T12:19:45Z</time></trkpt>
			<trkpt lat="54.705830" lon="20.489440"><ele>-0.8</ele><time>2026-07-14T12:19:48Z</time></trkpt>
			<trkpt lat="54.705670" lon="20.489540"><ele>0.8</ele><time>2026-07-14T12:19:51Z</time></trkpt>
			<trkpt lat="54.705300" lon="20.489750"><ele>5.1</ele><time>2026-07-14T12:19:53Z</time></trkpt>
			<trkpt lat="54.705180" lon="20.489830"><ele>6.6</ele><time>2026-07-14T12:19:56Z</time></trkpt>
			<trkpt lat="54.705170" lon="20.489790"><ele>6.8</ele><time>2026-07-14T12:19:59Z</time></trkpt>
			<trkpt lat="54.705150" lon="20.489740"><ele>7.0</ele><time>2026-07-14T12:20:02Z</time></trkpt>
			<trkpt lat="54.705080" lon="20.489720"><ele>7.4</ele><time>2026-07-14T12:20:05Z</time></trkpt>
			<trkpt lat="54.705020" lon="20.489740"><ele>7.7</ele><time>2026-07-14T12:20:08Z</time></trkpt>
			<trkpt lat="54.704950" lon="20.489800"><ele>8.0</ele><time>2026-07-14T12:20:11Z</time></trkpt>
			<trkpt lat="54.704840" lon="20.489940"><ele>8.4</ele><time>2026-07-14T12:20:14Z</time></trkpt>
			<trkpt lat="54.704880" lon="20.490190"><ele>7.4</ele><time>2026-07-14T12:20:17Z</time></trkpt>
			<trkpt lat="54.704890" lon="20.490280"><ele>7.0</ele><time>2026-07-14T12:20:20Z</time></trkpt>
			<trkpt lat="54.704910" lon="20.490450"><ele>6.4</ele><time>2026-07-14T12:20:22Z</time></trkpt>
			<trkpt lat="54.704770" lon="20.490650"><ele>5.3</ele><time>2026-07-14T12:20:25Z</time></trkpt>
			<trkpt lat="54.704510" lon="20.490890"><ele>3.7</ele><time>2026-07-14T12:20:28Z</time></trkpt>
			<trkpt lat="54.704230" lon="20.491110"><ele>2.7</ele><time>2026-07-14T12:20:31Z</time></trkpt>
			<trkpt lat="54.703850" lon="20.491340"><ele>1.7</ele><time>2026-07-14T12:20:34Z</time></trkpt>
			<trkpt lat="54.703460" lon="20.491550"><ele>1.6</ele><time>2026-07-14T12:20:37Z</time></trkpt>
			<trkpt lat="54.703120" lon="20.491650"><ele>1.7</ele><time>2026-07-14T12:20:40Z</time></trkpt>
			<trkpt lat="54.702630" lon="20.491670"><ele>1.2</ele><time>2026-07-14T12:20:43Z</time></trkpt>
			<trkpt lat="54.702070" lon="20.491670"><ele>1.5</ele><time>2026-07-14T12:20:46Z</time></trkpt>
			<trkpt lat="54.701220" lon="20.491700"><ele>2.5</ele><time>2026-07-14T12:20:49Z</time></trkpt>
			<trkpt lat="54.700170" lon="20.491740"><ele>2.8</ele><time>2026-07-14T12:20:51Z</time></trkpt>
			<trkpt lat="54.699640" lon="20.491790"><ele>2.7</ele><time>2026-07-14T12:20:54Z</time></trkpt>
			<trkpt lat="54.699450" lon="20.491840"><ele>2.5</ele><time>2026-07-14T12:20:57Z</time></trkpt>
			<trkpt lat="54.699290" lon="20.491940"><ele>2.3</ele><time>2026-07-14T12:21:00Z</time></trkpt>
			<trkpt lat="54.698410" lon="20.492550"><ele>2.1</ele><time>2026-07-14T12:21:03Z</time></trkpt>
			<trkpt lat="54.697920" lon="20.492880"><ele>3.7</ele><time>2026-07-14T12:21:06Z</time></trkpt>
			<trkpt lat="54.697500" lon="20.493310"><ele>4.6</ele><time>2026-07-14T12:21:09Z</time></trkpt>
			<trkpt lat="54.697190" lon="20.493670"><ele>4.3</ele><time>2026-07-14T12:21:12Z</time></trkpt>
			<trkpt lat="54.697080" lon="20.493740"><ele>4.1</ele><time>2026-07-14T12:21:15Z</time></trkpt>
			<trkpt lat="54.696930" lon="20.493850"><ele>4.1</ele><time>2026-07-14T12:21:18Z</time></trkpt>
			<trkpt lat="54.696690" lon="20.493290"><ele>4.8</ele><time>2026-07-14T12:21:21Z</time></trkpt>
			<trkpt lat="54.696620" lon="20.493120"><ele>4.9</ele><time>2026-07-14T12:21:23Z</time></trkpt>
			<trkpt lat="54.696390" lon="20.492540"><ele>4.9</ele><time>2026-07-14T12:21:26Z</time></trkpt>
			<trkpt lat="54.696340" lon="20.492400"><ele>4.8</ele><time>2026-07-14T12:21:29Z</time></trkpt>
			<trkpt lat="54.696030" lon="20.491490"><ele>3.0</ele><time>2026-07-14T12:21:32Z</time></trkpt>
			<trkpt lat="54.695990" lon="20.491300"><ele>2.7</ele><time>2026-07-14T12:21:35Z</time></trkpt>
			<trkpt lat="54.695950" lon="20.491030"><ele>2.2</ele><time>2026-07-14T12:21:38Z</time></trkpt>
			<trkpt lat="54.695660" lon="20.488960"><ele>0.8</ele><time>2026-07-14T12:21:41Z</time></trkpt>
			<trkpt lat="54.695610" lon="20.488600"><ele>1.9</ele><time>2026-07-14T12:21:44Z</time></trkpt>
			<trkpt lat="54.695610" lon="20.488600"><ele>1.9</ele><time>2026-07-14T12:21:51Z</time></trkpt>
			<trkpt lat="54.695540" lon="20.488130"><ele>3.0</ele><time>2026-07-14T12:21:59Z</time></trkpt>
			<trkpt lat="54.695520" lon="20.487930"><ele>3.3</ele><time>2026-07-14T12:22:06Z</time></trkpt>
			<trkpt lat="54.695260" lon="20.486170"><ele>4.6</ele><time>2026-07-14T12:22:14Z</time></trkpt>
			<trkpt lat="54.695070" lon="20.485430"><ele>3.6</ele><time>2026-07-14T12:22:21Z</time></trkpt>
			<trkpt lat="54.695040" lon="20.485290"><ele>3.4</ele><time>2026-07-14T12:22:29Z</time></trkpt>
			<trkpt lat="54.694950" lon="20.484830"><ele>3.0</ele><time>2026-07-14T12:22:36Z</time></trkpt>
			<trkpt lat="54.694850" lon="20.484250"><ele>3.2</ele><time>2026-07-14T12:22:44Z</time></trkpt>
			<trkpt lat="54.694710" lon="20.483390"><ele>4.0</ele><time>2026-07-14T12:22:52Z</time></trkpt>
			<trkpt lat="54.694190" lon="20.479740"><ele>3.9</ele><time>2026-07-14T12:22:59Z</time></trkpt>
			<trkpt lat="54.694150" lon="20.479420"><ele>3.9</ele><time>2026-07-14T12:23:07Z</time></trkpt>
			<trkpt lat="54.694130" lon="20.479260"><ele>3.9</ele><time>2026-07-14T12:23:14Z</time></trkpt>
			<trkpt lat="54.694020" lon="20.478440"><ele>3.6</ele><time>2026-07-14T12:23:22Z</time></trkpt>
			<trkpt lat="54.693690" lon="20.476310"><ele>2.2</ele><time>2026-07-14T12:23:29Z</time></trkpt>
			<trkpt lat="54.693530" lon="20.475190"><ele>1.3</ele><time>2026-07-14T12:23:37Z</time></trkpt>
			<trkpt lat="54.693490" lon="20.474940"><ele>1.1</ele><time>2026-07-14T12:23:44Z</time></trkpt>
			<trkpt lat="54.693440" lon="20.474540"><ele>0.6</ele><time>2026-07-14T12:23:52Z</time></trkpt>
			<trkpt lat="54.693310" lon="20.473560"><ele>0.1</ele><time>2026-07-14T12:23:59Z</time></trkpt>
			<trkpt lat="54.693120" lon="20.472200"><ele>1.1</ele><time>2026-07-14T12:24:07Z</time></trkpt>
			<trkpt lat="54.693070" lon="20.471810"><ele>1.5</ele><time>2026-07-14T12:24:14Z</time></trkpt>
			<trkpt lat="54.693010" lon="20.471350"><ele>1.8</ele><time>2026-07-14T12:24:22Z</time></trkpt>
			<trkpt lat="54.692920" lon="20.470770"><ele>2.3</ele><time>2026-07-14T12:24:29Z</time></trkpt>
			<trkpt lat="54.692790" lon="20.470120"><ele>3.9</ele><time>2026-07-14T12:24:37Z</time></trkpt>
			<trkpt lat="54.692720" lon="20.469910"><ele>4.2</ele><time>2026-07-14T12:24:44Z</time></trkpt>
			<trkpt lat="54.692580" lon="20.469630"><ele>4.7</ele><time>2026-07-14T12:24:52Z</time></trkpt>
			<trkpt lat="54.692540" lon="20.469540"><ele>4.7</ele><time>2026-07-14T12:25:00Z</time></trkpt>
			<trkpt lat="54.692380" lon="20.469280"><ele>4.9</ele><time>2026-07-14T12:25:07Z</time></trkpt>
			<trkpt lat="54.691680" lon="20.468310"><ele>4.7</ele><time>2026-07-14T12:25:15Z</time></trkpt>
			<trkpt lat="54.691590" lon="20.468180"><ele>4.7</ele><time>2026-07-14T12:25:22Z</time></trkpt>
			<trkpt lat="54.691220" lon="20.467640"><ele>3.3</ele><time>2026-07-14T12:25:30Z</time></trkpt>
			<trkpt lat="54.691090" lon="20.467440"><ele>2.8</ele><time>2026-07-14T12:25:37Z</time></trkpt>
			<trkpt lat="54.690770" lon="20.466990"><ele>1.2</ele><time>2026-07-14T12:25:45Z</time></trkpt>
			<trkpt lat="54.690520" lon="20.466600"><ele>0.4</ele><time>2026-07-14T12:25:52Z</time></trkpt>
			<trkpt lat="54.690310" lon="20.466240"><ele>0.2</ele><time>2026-07-14T12:26:00Z</time></trkpt>
			<trkpt lat="54.690280" lon="20.466200"><ele>0.2</ele><time>2026-07-14T12:26:07Z</time></trkpt>
			<trkpt lat="54.689730" lon="20.465430"><ele>-0.3</ele><time>2026-07-14T12:26:15Z</time></trkpt>
			<trkpt lat="54.689560" lon="20.465180"><ele>-0.6</ele><time>2026-07-14T12:26:22Z</time></trkpt>
			<trkpt lat="54.688770" lon="20.464180"><ele>-2.0</ele><time>2026-07-14T12:26:30Z</time></trkpt>
			<trkpt lat="54.688640" lon="20.463980"><ele>-2.0</ele><time>2026-07-14T12:26:37Z</time></trkpt>
			<trkpt lat="54.688440" lon="20.463700"><ele>-2.1</ele><time>2026-07-14T12:26:45Z</time></trkpt>
			<trkpt lat="54.688310" lon="20.463520"><ele>-2.1</ele><time>2026-07-14T12:26:53Z</time></trkpt>
			<trkpt lat="54.687910" lon="20.462970"><ele>-2.0</ele><time>2026-07-14T12:27:00Z</time></trkpt>
			<trkpt lat="54.687650" lon="20.462600"><ele>-1.4</ele><time>2026-07-14T12:27:08Z</time></trkpt>
			<trkpt lat="54.687530" lon="20.462430"><ele>-1.2</ele><time>2026-07-14T12:27:15Z</time></trkpt>
			<trkpt lat="54.685720" lon="20.459810"><ele>-0.6</ele><time>2026-07-14T12:27:23Z</time></trkpt>
			<trkpt lat="54.685630" lon="20.459680"><ele>-0.3</ele><time>2026-07-14T12:27:30Z</time></trkpt>
			<trkpt lat="54.685580" lon="20.459610"><ele>-0.2</ele><time>2026-07-14T12:27:38Z</time></trkpt>
			<trkpt lat="54.685510" lon="20.459490"><ele>0.0</ele><time>2026-07-14T12:27:45Z</time></trkpt>
			<trkpt lat="54.685430" lon="20.459360"><ele>0.2</ele><time>2026-07-14T12:27:53Z</time></trkpt>
			<trkpt lat="54.685360" lon="20.459250"><ele>0.3</ele><time>2026-07-14T12:28:00Z</time></trkpt>
			<trkpt lat="54.684720" lon="20.458290"><ele>3.5</ele><time>2026-07-14T12:28:08Z</time></trkpt>
			<trkpt lat="54.683970" lon="20.457250"><ele>6.9</ele><time>2026-07-14T12:28:15Z</time></trkpt>
			<trkpt lat="54.683750" lon="20.456930"><ele>8.1</ele><time>2026-07-14T12:28:23Z</time></trkpt>
			<trkpt lat="54.683430" lon="20.456480"><ele>10.1</ele><time>2026-07-14T12:28:30Z</time></trkpt>
			<trkpt lat="54.683220" lon="20.456150"><ele>11.0</ele><time>2026-07-14T12:28:38Z</time></trkpt>
			<trkpt lat="54.682760" lon="20.455180"><ele>9.1</ele><time>2026-07-14T12:28:46Z</time></trkpt>
			<trkpt lat="54.682510" lon="20.454710"><ele>8.6</ele><time>2026-07-14T12:28:53Z</time></trkpt>
			<trkpt lat="54.682420" lon="20.454530"><ele>8.6</ele><time>2026-07-14T12:29:01Z</time></trkpt>
			<trkpt lat="54.682340" lon="20.454400"><ele>8.7</ele><time>2026-07-14T12:29:08Z</time></trkpt>
			<trkpt lat="54.681830" lon="20.453390"><ele>8.7</ele><time>2026-07-14T12:29:16Z</time></trkpt>
			<trkpt lat="54.681370" lon="20.452400"><ele>10.1</ele><time>2026-07-14T12:29:23Z</time></trkpt>
			<trkpt lat="54.681140" lon="20.451960"><ele>10.4</ele><time>2026-07-14T12:29:31Z</time></trkpt>
			<trkpt lat="54.680600" lon="20.450850"><ele>11.1</ele><time>2026-07-14T12:29:38Z</time></trkpt>
			<trkpt lat="54.680490" lon="20.450630"><ele>11.1</ele><time>2026-07-14T12:29:46Z</time></trkpt>
			<trkpt lat="54.679470" lon="20.448540"><ele>10.4</ele><time>2026-07-14T12:29:53Z</time></trkpt>
			<trkpt lat="54.679350" lon="20.448350"><ele>10.7</ele><time>2026-07-14T12:30:01Z</time></trkpt>
			<trkpt lat="54.679020" lon="20.447740"><ele>11.0</ele><time>2026-07-14T12:30:08Z</time></trkpt>
			<trkpt lat="54.678550" lon="20.446790"><ele>10.9</ele><time>2026-07-14T12:30:16Z</time></trkpt>
			<trkpt lat="54.678440" lon="20.446580"><ele>10.8</ele><time>2026-07-14T12:30:23Z</time></trkpt>
			<trkpt lat="54.677590" lon="20.444830"><ele>8.7</ele><time>2026-07-14T12:30:31Z</time></trkpt>
			<trkpt lat="54.677180" lon="20.444030"><ele>9.3</ele><time>2026-07-14T12:30:39Z</time></trkpt>
			<trkpt lat="54.677120" lon="20.443930"><ele>9.6</ele><time>2026-07-14T12:30:46Z</time></trkpt>
			<trkpt lat="54.676850" lon="20.443410"><ele>11.0</ele><time>2026-07-14T12:30:54Z</time></trkpt>
			<trkpt lat="54.676660" lon="20.443060"><ele>11.6</ele><time>2026-07-14T12:31:01Z</time></trkpt>
			<trkpt lat="54.675660" lon="20.441180"><ele>7.0</ele><time>2026-07-14T12:31:09Z</time></trkpt>
			<trkpt lat="54.675430" lon="20.440770"><ele>5.9</ele><time>2026-07-14T12:31:16Z</time></trkpt>
			<trkpt lat="54.675290" lon="20.440500"><ele>4.7</ele><time>2026-07-14T12:31:24Z</time></trkpt>
			<trkpt lat="54.674790" lon="20.439600"><ele>2.2</ele><time>2026-07-14T12:31:31Z</time></trkpt>
			<trkpt lat="54.674400" lon="20.438900"><ele>3.8</ele><time>2026-07-14T12:31:39Z</time></trkpt>
			<trkpt lat="54.674250" lon="20.438580"><ele>5.1</ele><time>2026-07-14T12:31:46Z</time></trkpt>
			<trkpt lat="54.673900" lon="20.437970"><ele>7.0</ele><time>2026-07-14T12:31:54Z</time></trkpt>
			<trkpt lat="54.673620" lon="20.437430"><ele>7.7</ele><time>2026-07-14T12:32:01Z</time></trkpt>
			<trkpt lat="54.673520" lon="20.437240"><ele>7.6</ele><time>2026-07-14T12:32:09Z</time></trkpt>
			<trkpt lat="54.672900" lon="20.436120"><ele>7.0</ele><time>2026-07-14T12:32:16Z</time></trkpt>
			<trkpt lat="54.672790" lon="20.435910"><ele>7.1</ele><time>2026-07-14T12:32:24Z</time></trkpt>
			<trkpt lat="54.672460" lon="20.435320"><ele>8.1</ele><time>2026-07-14T12:32:31Z</time></trkpt>
			<trkpt lat="54.672320" lon="20.435070"><ele>8.4</ele><time>2026-07-14T12:32:39Z</time></trkpt>
			<trkpt lat="54.672030" lon="20.434550"><ele>9.1</ele><time>2026-07-14T12:32:47Z</time></trkpt>
			<trkpt lat="54.671950" lon="20.434410"><ele>9.3</ele><time>2026-07-14T12:32:54Z</time></trkpt>
			<trkpt lat="54.671850" lon="20.434200"><ele>9.4</ele><time>2026-07-14T12:33:02Z</time></trkpt>
			<trkpt lat="54.671760" lon="20.434050"><ele>9.5</ele><time>2026-07-14T12:33:09Z</time></trkpt>
			<trkpt lat="54.671440" lon="20.433420"><ele>7.9</ele><time>2026-07-14T12:33:17Z</time></trkpt>
			<trkpt lat="54.671180" lon="20.432970"><ele>6.8</ele><time>2026-07-14T12:33:24Z</time></trkpt>
			<trkpt lat="54.671120" lon="20.432860"><ele>6.6</ele><time>2026-07-14T12:33:32Z</time></trkpt>
			<trkpt lat="54.670840" lon="20.432360"><ele>5.5</ele><time>2026-07-14T12:33:39Z</time></trkpt>
			<trkpt lat="54.670740" lon="20.432180"><ele>5.1</ele><time>2026-07-14T12:33:47Z</time></trkpt>
			<trkpt lat="54.669440" lon="20.429740"><ele>6.8</ele><time>2026-07-14T12:33:54Z</time></trkpt>
			<trkpt lat="54.669320" lon="20.429500"><ele>6.5</ele><time>2026-07-14T12:34:02Z</time></trkpt>
			<trkpt lat="54.669070" lon="20.428940"><ele>5.6</ele><time>2026-07-14T12:34:09Z</time></trkpt>
			<trkpt lat="54.668970" lon="20.428730"><ele>5.3</ele><time>2026-07-14T12:34:17Z</time></trkpt>
			<trkpt lat="54.668280" lon="20.426510"><ele>3.8</ele><time>2026-07-14T12:34:24Z</time></trkpt>
			<trkpt lat="54.667780" lon="20.424910"><ele>2.6</ele><time>2026-07-14T12:34:32Z</time></trkpt>
			<trkpt lat="54.666940" lon="20.422250"><ele>2.5</ele><time>2026-07-14T12:34:40Z</time></trkpt>
			<trkpt lat="54.666650" lon="20.421300"><ele>2.6</ele><time>2026-07-14T12:34:47Z</time></trkpt>
			<trkpt lat="54.666500" lon="20.420820"><ele>2.2</ele><time>2026-07-14T12:34:55Z</time></trkpt>
			<trkpt lat="54.666340" lon="20.420300"><ele>2.1</ele><time>2026-07-14T12:35:02Z</time></trkpt>
			<trkpt lat="54.665780" lon="20.418530"><ele>1.8</ele><time>2026-07-14T12:35:10Z</time></trkpt>
			<trkpt lat="54.664730" lon="20.415150"><ele>1.3</ele><time>2026-07-14T12:35:17Z</time></trkpt>
			<trkpt lat="54.663880" lon="20.412390"><ele>-0.9</ele><time>2026-07-14T12:35:25Z</time></trkpt>
			<trkpt lat="54.662660" lon="20.408460"><ele>-0.6</ele><time>2026-07-14T12:35:32Z</time></trkpt>
			<trkpt lat="54.659770" lon="20.399280"><ele>-1.5</ele><time>2026-07-14T12:35:40Z</time></trkpt>
			<trkpt lat="54.659040" lon="20.396940"><ele>-1.4</ele><time>2026-07-14T12:35:47Z</time></trkpt>
			<trkpt lat="54.658690" lon="20.395820"><ele>-0.8</ele><time>2026-07-14T12:35:55Z</time></trkpt>
			<trkpt lat="54.658400" lon="20.394900"><ele>-0.4</ele><time>2026-07-14T12:36:02Z</time></trkpt>
			<trkpt lat="54.658360" lon="20.394790"><ele>-0.4</ele><time>2026-07-14T12:36:10Z</time></trkpt>
			<trkpt lat="54.656470" lon="20.388730"><ele>-1.1</ele><time>2026-07-14T12:36:17Z</time></trkpt>
			<trkpt lat="54.655350" lon="20.385160"><ele>2.3</ele><time>2026-07-14T12:36:25Z</time></trkpt>
			<trkpt lat="54.653490" lon="20.379230"><ele>-0.5</ele><time>2026-07-14T12:36:33Z</time></trkpt>
			<trkpt lat="54.652500" lon="20.376060"><ele>-2.5</ele><time>2026-07-14T12:36:40Z</time></trkpt>
			<trkpt lat="54.651290" lon="20.372140"><ele>-1.3</ele><time>2026-07-14T12:36:48Z</time></trkpt>
			<trkpt lat="54.650620" lon="20.370000"><ele>-1.6</ele><time>2026-07-14T12:36:55Z</time></trkpt>
			<trkpt lat="54.649770" lon="20.367310"><ele>-0.9</ele><time>2026-07-14T12:37:03Z</time></trkpt>
			<trkpt lat="54.647580" lon="20.360350"><ele>3.9</ele><time>2026-07-14T12:37:10Z</time></trkpt>
			<trkpt lat="54.646630" lon="20.357330"><ele>2.9</ele><time>2026-07-14T12:37:18Z</time></trkpt>
			<trkpt lat="54.645800" lon="20.354660"><ele>1.6</ele><time>2026-07-14T12:37:25Z</time></trkpt>
			<trkpt lat="54.645660" lon="20.354230"><ele>2.6</ele><time>2026-07-14T12:37:33Z</time></trkpt>
			<trkpt lat="54.645180" lon="20.352650"><ele>4.1</ele><time>2026-07-14T12:37:40Z</time></trkpt>
			<trkpt lat="54.644620" lon="20.350870"><ele>0.5</ele><time>2026-07-14T12:37:48Z</time></trkpt>
			<trkpt lat="54.644130" lon="20.349320"><ele>3.3</ele><time>2026-07-14T12:37:55Z</time></trkpt>
			<trkpt lat="54.642730" lon="20.344890"><ele>1.2</ele><time>2026-07-14T12:38:03Z</time></trkpt>
			<trkpt lat="54.641540" lon="20.341160"><ele>2.4</ele><time>2026-07-14T12:38:10Z</time></trkpt>
			<trkpt lat="54.641400" lon="20.340720"><ele>2.2</ele><time>2026-07-14T12:38:18Z</time></trkpt>
			<trkpt lat="54.640410" lon="20.337430"><ele>3.4</ele><time>2026-07-14T12:38:26Z</time></trkpt>
			<trkpt lat="54.639240" lon="20.333710"><ele>5.3</ele><time>2026-07-14T12:38:33Z</time></trkpt>
			<trkpt lat="54.637200" lon="20.327180"><ele>0.9</ele><time>2026-07-14T12:38:41Z</time></trkpt>
			<trkpt lat="54.636970" lon="20.326450"><ele>0.8</ele><time>2026-07-14T12:38:48Z</time></trkpt>
			<trkpt lat="54.635440" lon="20.321610"><ele>-0.9</ele><time>2026-07-14T12:38:56Z</time></trkpt>
			<trkpt lat="54.635410" lon="20.321500"><ele>-0.9</ele><time>2026-07-14T12:39:03Z</time></trkpt>
			<trkpt lat="54.633210" lon="20.314580"><ele>-0.0</ele><time>2026-07-14T12:39:11Z</time></trkpt>
			<trkpt lat="54.632110" lon="20.311080"><ele>1.7</ele><time>2026-07-14T12:39:18Z</time></trkpt>
			<trkpt lat="54.632110" lon="20.311070"><ele>1.7</ele><time>2026-07-14T12:39:26Z</time></trkpt>
			<trkpt lat="54.631930" lon="20.310500"><ele>2.4</ele><time>2026-07-14T12:39:33Z</time></trkpt>
			<trkpt lat="54.630610" lon="20.306280"><ele>7.5</ele><time>2026-07-14T12:39:41Z</time></trkpt>
			<trkpt lat="54.628630" lon="20.299950"><ele>10.6</ele><time>2026-07-14T12:39:48Z</time></trkpt>
			<trkpt lat="54.627480" lon="20.296260"><ele>16.4</ele><time>2026-07-14T12:39:56Z</time></trkpt>
			<trkpt lat="54.626580" lon="20.293390"><ele>16.8</ele><time>2026-07-14T12:40:03Z</time></trkpt>
			<trkpt lat="54.625290" lon="20.289300"><ele>15.9</ele><time>2026-07-14T12:40:11Z</time></trkpt>
			<trkpt lat="54.624250" lon="20.285980"><ele>17.1</ele><time>2026-07-14T12:40:18Z</time></trkpt>
			<trkpt lat="54.622360" lon="20.279890"><ele>15.3</ele><time>2026-07-14T12:40:26Z</time></trkpt>
			<trkpt lat="54.621880" lon="20.278460"><ele>17.9</ele><time>2026-07-14T12:40:34Z</time></trkpt>
			<trkpt lat="54.621150" lon="20.276070"><ele>18.4</ele><time>2026-07-14T12:40:41Z</time></trkpt>
			<trkpt lat="54.620390" lon="20.273610"><ele>19.8</ele><time>2026-07-14T12:40:49Z</time></trkpt>
			<trkpt lat="54.618700" lon="20.268340"><ele>23.4</ele><time>2026-07-14T12:40:56Z</time></trkpt>
			<trkpt lat="54.617190" lon="20.263550"><ele>19.8</ele><time>2026-07-14T12:41:04Z</time></trkpt>
			<trkpt lat="54.615880" lon="20.259370"><ele>16.3</ele><time>2026-07-14T12:41:11Z</time></trkpt>
			<trkpt lat="54.615050" lon="20.256750"><ele>12.0</ele><time>2026-07-14T12:41:19Z</time></trkpt>
			<trkpt lat="54.615000" lon="20.256610"><ele>12.1</ele><time>2026-07-14T12:41:26Z</time></trkpt>
			<trkpt lat="54.614470" lon="20.254950"><ele>11.2</ele><time>2026-07-14T12:41:34Z</time></trkpt>
			<trkpt lat="54.613960" lon="20.253200"><ele>8.9</ele><time>2026-07-14T12:41:41Z</time></trkpt>
			<trkpt lat="54.613870" lon="20.252560"><ele>10.0</ele><time>2026-07-14T12:41:49Z</time></trkpt>
			<trkpt lat="54.613750" lon="20.251930"><ele>10.9</ele><time>2026-07-14T12:41:56Z</time></trkpt>
			<trkpt lat="54.613560" lon="20.250950"><ele>10.5</ele><time>2026-07-14T12:42:04Z</time></trkpt>
			<trkpt lat="54.613490" lon="20.250590"><ele>10.0</ele><time>2026-07-14T12:42:11Z</time></trkpt>
			<trkpt lat="54.613410" lon="20.250330"><ele>9.6</ele><time>2026-07-14T12:42:19Z</time></trkpt>
			<trkpt lat="54.612940" lon="20.249040"><ele>8.7</ele><time>2026-07-14T12:42:27Z</time></trkpt>
			<trkpt lat="54.612750" lon="20.248340"><ele>8.6</ele><time>2026-07-14T12:42:34Z</time></trkpt>
			<trkpt lat="54.612500" lon="20.247340"><ele>4.9</ele><time>2026-07-14T12:42:42Z</time></trkpt>
			<trkpt lat="54.612480" lon="20.247220"><ele>4.3</ele><time>2026-07-14T12:42:49Z</time></trkpt>
			<trkpt lat="54.612460" lon="20.247150"><ele>3.9</ele><time>2026-07-14T12:42:57Z</time></trkpt>
			<trkpt lat="54.612400" lon="20.246900"><ele>2.4</ele><time>2026-07-14T12:43:04Z</time></trkpt>
			<trkpt lat="54.612180" lon="20.246050"><ele>0.6</ele><time>2026-07-14T12:43:12Z</time></trkpt>
			<trkpt lat="54.611730" lon="20.244390"><ele>0.2</ele><time>2026-07-14T12:43:19Z</time></trkpt>
			<trkpt lat="54.610920" lon="20.241140"><ele>3.4</ele><time>2026-07-14T12:43:27Z</time></trkpt>
			<trkpt lat="54.610690" lon="20.240300"><ele>5.7</ele><time>2026-07-14T12:43:34Z</time></trkpt>
			<trkpt lat="54.609970" lon="20.238340"><ele>10.0</ele><time>2026-07-14T12:43:42Z</time></trkpt>
			<trkpt lat="54.609550" lon="20.237250"><ele>11.1</ele><time>2026-07-14T12:43:49Z</time></trkpt>
			<trkpt lat="54.609310" lon="20.236620"><ele>11.3</ele><time>2026-07-14T12:43:57Z</time></trkpt>
			<trkpt lat="54.608980" lon="20.235790"><ele>11.9</ele><time>2026-07-14T12:44:04Z</time></trkpt>
			<trkpt lat="54.608030" lon="20.233270"><ele>13.1</ele><time>2026-07-14T12:44:12Z</time></trkpt>
			<trkpt lat="54.607370" lon="20.231490"><ele>16.0</ele><time>2026-07-14T12:44:20Z</time></trkpt>
			<trkpt lat="54.606910" lon="20.230220"><ele>16.5</ele><time>2026-07-14T12:44:27Z</time></trkpt>
			<trkpt lat="54.606270" lon="20.228480"><ele>17.9</ele><time>2026-07-14T12:44:35Z</time></trkpt>
			<trkpt lat="54.605470" lon="20.225860"><ele>19.5</ele><time>2026-07-14T12:44:42Z</time></trkpt>
			<trkpt lat="54.604190" lon="20.221750"><ele>24.4</ele><time>2026-07-14T12:44:50Z</time></trkpt>
			<trkpt lat="54.603700" lon="20.220160"><ele>25.3</ele><time>2026-07-14T12:44:57Z</time></trkpt>
			<trkpt lat="54.603020" lon="20.217890"><ele>26.9</ele><time>2026-07-14T12:45:05Z</time></trkpt>
			<trkpt lat="54.600870" lon="20.211040"><ele>32.8</ele><time>2026-07-14T12:45:12Z</time></trkpt>
			<trkpt lat="54.600490" lon="20.209820"><ele>33.3</ele><time>2026-07-14T12:45:20Z</time></trkpt>
			<trkpt lat="54.600460" lon="20.209700"><ele>33.5</ele><time>2026-07-14T12:45:27Z</time></trkpt>
			<trkpt lat="54.600140" lon="20.208810"><ele>34.1</ele><time>2026-07-14T12:45:35Z</time></trkpt>
			<trkpt lat="54.599670" lon="20.207910"><ele>34.0</ele><time>2026-07-14T12:45:42Z</time></trkpt>
			<trkpt lat="54.599470" lon="20.207610"><ele>34.5</ele><time>2026-07-14T12:45:50Z</time></trkpt>
			<trkpt lat="54.599330" lon="20.207410"><ele>35.0</ele><time>2026-07-14T12:45:57Z</time></trkpt>
			<trkpt lat="54.598500" lon="20.206370"><ele>36.8</ele><time>2026-07-14T12:46:05Z</time></trkpt>
			<trkpt lat="54.597410" lon="20.205020"><ele>37.6</ele><time>2026-07-14T12:46:13Z</time></trkpt>
			<trkpt lat="54.594640" lon="20.201600"><ele>44.8</ele><time>2026-07-14T12:46:20Z</time></trkpt>
			<trkpt lat="54.592330" lon="20.198770"><ele>43.0</ele><time>2026-07-14T12:46:28Z</time></trkpt>
			<trkpt lat="54.591860" lon="20.198240"><ele>43.5</ele><time>2026-07-14T12:46:35Z</time></trkpt>
			<trkpt lat="54.589090" lon="20.194820"><ele>50.4</ele><time>2026-07-14T12:46:43Z</time></trkpt>
			<trkpt lat="54.586280" lon="20.191480"><ele>42.1</ele><time>2026-07-14T12:46:50Z</time></trkpt>
			<trkpt lat="54.584270" lon="20.189110"><ele>35.8</ele><time>2026-07-14T12:46:58Z</time></trkpt>
			<trkpt lat="54.583570" lon="20.188260"><ele>34.0</ele><time>2026-07-14T12:47:05Z</time></trkpt>
			<trkpt lat="54.580790" lon="20.184880"><ele>27.0</ele><time>2026-07-14T12:47:13Z</time></trkpt>
			<trkpt lat="54.578320" lon="20.181910"><ele>26.6</ele><time>2026-07-14T12:47:20Z</time></trkpt>
			<trkpt lat="54.577170" lon="20.180470"><ele>23.1</ele><time>2026-07-14T12:47:28Z</time></trkpt>
			<trkpt lat="54.576760" lon="20.179980"><ele>22.4</ele><time>2026-07-14T12:47:35Z</time></trkpt>
			<trkpt lat="54.576570" lon="20.179730"><ele>21.1</ele><time>2026-07-14T12:47:43Z</time></trkpt>
			<trkpt lat="54.575550" lon="20.178530"><ele>13.9</ele><time>2026-07-14T12:47:50Z</time></trkpt>
			<trkpt lat="54.575410" lon="20.178370"><ele>13.9</ele><time>2026-07-14T12:47:58Z</time></trkpt>
			<trkpt lat="54.575250" lon="20.178150"><ele>13.9</ele><time>2026-07-14T12:48:05Z</time></trkpt>
			<trkpt lat="54.574490" lon="20.177240"><ele>14.6</ele><time>2026-07-14T12:48:13Z</time></trkpt>
			<trkpt lat="54.573950" lon="20.176610"><ele>13.8</ele><time>2026-07-14T12:48:21Z</time></trkpt>
			<trkpt lat="54.573870" lon="20.176560"><ele>13.5</ele><time>2026-07-14T12:48:28Z</time></trkpt>
			<trkpt lat="54.573780" lon="20.176530"><ele>13.1</ele><time>2026-07-14T12:48:36Z</time></trkpt>
			<trkpt lat="54.573510" lon="20.176460"><ele>11.7</ele><time>2026-07-14T12:48:43Z</time></trkpt>
			<trkpt lat="54.573280" lon="20.176410"><ele>11.5</ele><time>2026-07-14T12:48:51Z</time></trkpt>
			<trkpt lat="54.572630" lon="20.176250"><ele>16.3</ele><time>2026-07-14T12:48:58Z</time></trkpt>
			<trkpt lat="54.572590" lon="20.176240"><ele>16.5</ele><time>2026-07-14T12:49:06Z</time></trkpt>
			<trkpt lat="54.571340" lon="20.175930"><ele>20.0</ele><time>2026-07-14T12:49:13Z</time></trkpt>
			<trkpt lat="54.571000" lon="20.175640"><ele>20.5</ele><time>2026-07-14T12:49:21Z</time></trkpt>
			<trkpt lat="54.570840" lon="20.175440"><ele>20.8</ele><time>2026-07-14T12:49:28Z</time></trkpt>
			<trkpt lat="54.570660" lon="20.175130"><ele>21.1</ele><time>2026-07-14T12:49:36Z</time></trkpt>
			<trkpt lat="54.570410" lon="20.174260"><ele>20.4</ele><time>2026-07-14T12:49:43Z</time></trkpt>
			<trkpt lat="54.570290" lon="20.174020"><ele>20.1</ele><time>2026-07-14T12:49:51Z</time></trkpt>
			<trkpt lat="54.570080" lon="20.173750"><ele>19.7</ele><time>2026-07-14T12:49:58Z</time></trkpt>
			<trkpt lat="54.569910" lon="20.173560"><ele>19.8</ele><time>2026-07-14T12:50:06Z</time></trkpt>
			<trkpt lat="54.569520" lon="20.173100"><ele>19.8</ele><time>2026-07-14T12:50:14Z</time></trkpt>
			<trkpt lat="54.569380" lon="20.172950"><ele>19.6</ele><time>2026-07-14T12:50:21Z</time></trkpt>
			<trkpt lat="54.568400" lon="20.171750"><ele>19.5</ele><time>2026-07-14T12:50:29Z</time></trkpt>
			<trkpt lat="54.567750" lon="20.170980"><ele>17.9</ele><time>2026-07-14T12:50:36Z</time></trkpt>
			<trkpt lat="54.567520" lon="20.170730"><ele>17.9</ele><time>2026-07-14T12:50:44Z</time></trkpt>
			<trkpt lat="54.565700" lon="20.168570"><ele>20.0</ele><time>2026-07-14T12:50:51Z</time></trkpt>
			<trkpt lat="54.565180" lon="20.167930"><ele>21.2</ele><time>2026-07-14T12:50:59Z</time></trkpt>
			<trkpt lat="54.564830" lon="20.167490"><ele>21.2</ele><time>2026-07-14T12:51:06Z</time></trkpt>
			<trkpt lat="54.564350" lon="20.166930"><ele>23.0</ele><time>2026-07-14T12:51:14Z</time></trkpt>
			<trkpt lat="54.564020" lon="20.166550"><ele>24.6</ele><time>2026-07-14T12:51:21Z</time></trkpt>
			<trkpt lat="54.560820" lon="20.162820"><ele>23.6</ele><time>2026-07-14T12:51:29Z</time></trkpt>
			<trkpt lat="54.558960" lon="20.160590"><ele>19.3</ele><time>2026-07-14T12:51:36Z</time></trkpt>
			<trkpt lat="54.558920" lon="20.160540"><ele>19.0</ele><time>2026-07-14T12:51:44Z</time></trkpt>
			<trkpt lat="54.557790" lon="20.159220"><ele>16.5</ele><time>2026-07-14T12:51:51Z</time></trkpt>
			<trkpt lat="54.557240" lon="20.158570"><ele>15.4</ele><time>2026-07-14T12:51:59Z</time></trkpt>
			<trkpt lat="54.556310" lon="20.157410"><ele>14.3</ele><time>2026-07-14T12:52:07Z</time></trkpt>
			<trkpt lat="54.555060" lon="20.155970"><ele>13.4</ele><time>2026-07-14T12:52:14Z</time></trkpt>
			<trkpt lat="54.554280" lon="20.155020"><ele>13.8</ele><time>2026-07-14T12:52:22Z</time></trkpt>
			<trkpt lat="54.552840" lon="20.153330"><ele>12.2</ele><time>2026-07-14T12:52:29Z</time></trkpt>
			<trkpt lat="54.551830" lon="20.152150"><ele>12.4</ele><time>2026-07-14T12:52:37Z</time></trkpt>
			<trkpt lat="54.550620" lon="20.150740"><ele>15.3</ele><time>2026-07-14T12:52:44Z</time></trkpt>
			<trkpt lat="54.549620" lon="20.149580"><ele>17.6</ele><time>2026-07-14T12:52:52Z</time></trkpt>
			<trkpt lat="54.548730" lon="20.148510"><ele>20.1</ele><time>2026-07-14T12:52:59Z</time></trkpt>
			<trkpt lat="54.548270" lon="20.147960"><ele>20.6</ele><time>2026-07-14T12:53:07Z</time></trkpt>
			<trkpt lat="54.544960" lon="20.144010"><ele>22.1</ele><time>2026-07-14T12:53:14Z</time></trkpt>
			<trkpt lat="54.540660" lon="20.139010"><ele>33.1</ele><time>2026-07-14T12:53:22Z</time></trkpt>
			<trkpt lat="54.538500" lon="20.136430"><ele>37.7</ele><time>2026-07-14T12:53:29Z</time></trkpt>
			<trkpt lat="54.537500" lon="20.135300"><ele>38.4</ele><time>2026-07-14T12:53:37Z</time></trkpt>
			<trkpt lat="54.536390" lon="20.133930"><ele>40.1</ele><time>2026-07-14T12:53:44Z</time></trkpt>
			<trkpt lat="54.535610" lon="20.133060"><ele>42.2</ele><time>2026-07-14T12:53:52Z</time></trkpt>
			<trkpt lat="54.535140" lon="20.132430"><ele>46.4</ele><time>2026-07-14T12:54:00Z</time></trkpt>
			<trkpt lat="54.533790" lon="20.130870"><ele>59.1</ele><time>2026-07-14T12:54:07Z</time></trkpt>
			<trkpt lat="54.533290" lon="20.130200"><ele>58.3</ele><time>2026-07-14T12:54:15Z</time></trkpt>
			<trkpt lat="54.529220" lon="20.124220"><ele>51.3</ele><time>2026-07-14T12:54:22Z</time></trkpt>
			<trkpt lat="54.527250" lon="20.121440"><ele>63.0</ele><time>2026-07-14T12:54:30Z</time></trkpt>
			<trkpt lat="54.525420" lon="20.118830"><ele>63.3</ele><time>2026-07-14T12:54:37Z</time></trkpt>
			<trkpt lat="54.524190" lon="20.117090"><ele>60.5</ele><time>2026-07-14T12:54:45Z</time></trkpt>
			<trkpt lat="54.523710" lon="20.116630"><ele>58.0</ele><time>2026-07-14T12:54:52Z</time></trkpt>
			<trkpt lat="54.519970" lon="20.113080"><ele>54.7</ele><time>2026-07-14T12:55:00Z</time></trkpt>
			<trkpt lat="54.514670" lon="20.108150"><ele>65.4</ele><time>2026-07-14T12:55:07Z</time></trkpt>
			<trkpt lat="54.509930" lon="20.103840"><ele>69.7</ele><time>2026-07-14T12:55:15Z</time></trkpt>
			<trkpt lat="54.509580" lon="20.103480"><ele>71.2</ele><time>2026-07-14T12:55:22Z</time></trkpt>
			<trkpt lat="54.508920" lon="20.102880"><ele>73.3</ele><time>2026-07-14T12:55:30Z</time></trkpt>
			<trkpt lat="54.508920" lon="20.102890"><ele>73.3</ele><time>2026-07-14T12:55:36Z</time></trkpt>
			<trkpt lat="54.507130" lon="20.101250"><ele>77.1</ele><time>2026-07-14T12:55:43Z</time></trkpt>
			<trkpt lat="54.505270" lon="20.099600"><ele>77.1</ele><time>2026-07-14T12:55:49Z</time></trkpt>
			<trkpt lat="54.504860" lon="20.099250"><ele>76.6</ele><time>2026-07-14T12:55:56Z</time></trkpt>
			<trkpt lat="54.504600" lon="20.098950"><ele>76.1</ele><time>2026-07-14T12:56:02Z</time></trkpt>
			<trkpt lat="54.504240" lon="20.098570"><ele>75.8</ele><time>2026-07-14T12:56:09Z</time></trkpt>
			<trkpt lat="54.504090" lon="20.098390"><ele>75.8</ele><time>2026-07-14T12:56:15Z</time></trkpt>
			<trkpt lat="54.503730" lon="20.097920"><ele>75.5</ele><time>2026-07-14T12:56:22Z</time></trkpt>
			<trkpt lat="54.503400" lon="20.097500"><ele>75.0</ele><time>2026-07-14T12:56:28Z</time></trkpt>
			<trkpt lat="54.502960" lon="20.096880"><ele>73.8</ele><time>2026-07-14T12:56:35Z</time></trkpt>
			<trkpt lat="54.502770" lon="20.096590"><ele>73.3</ele><time>2026-07-14T12:56:41Z</time></trkpt>
			<trkpt lat="54.502640" lon="20.096290"><ele>73.2</ele><time>2026-07-14T12:56:48Z</time></trkpt>
			<trkpt lat="54.502520" lon="20.096050"><ele>73.1</ele><time>2026-07-14T12:56:54Z</time></trkpt>
			<trkpt lat="54.502070" lon="20.095470"><ele>73.2</ele><time>2026-07-14T12:57:01Z</time></trkpt>
			<trkpt lat="54.501820" lon="20.095690"><ele>73.6</ele><time>2026-07-14T12:57:07Z</time></trkpt>
			<trkpt lat="54.501720" lon="20.095730"><ele>73.7</ele><time>2026-07-14T12:57:14Z</time></trkpt>
			<trkpt lat="54.501460" lon="20.095630"><ele>73.5</ele><time>2026-07-14T12:57:20Z</time></trkpt>
			<trkpt lat="54.500370" lon="20.095260"><ele>73.8</ele><time>2026-07-14T12:57:27Z</time></trkpt>
			<trkpt lat="54.498790" lon="20.094750"><ele>78.5</ele><time>2026-07-14T12:57:33Z</time></trkpt>
			<trkpt lat="54.498140" lon="20.094530"><ele>79.6</ele><time>2026-07-14T12:57:40Z</time></trkpt>
			<trkpt lat="54.497940" lon="20.094460"><ele>79.2</ele><time>2026-07-14T12:57:46Z</time></trkpt>
			<trkpt lat="54.497250" lon="20.094240"><ele>78.4</ele><time>2026-07-14T12:57:53Z</time></trkpt>
			<trkpt lat="54.497080" lon="20.094180"><ele>78.5</ele><time>2026-07-14T12:57:59Z</time></trkpt>
			<trkpt lat="54.494660" lon="20.093380"><ele>78.6</ele><time>2026-07-14T12:58:06Z</time></trkpt>
			<trkpt lat="54.494610" lon="20.093370"><ele>78.5</ele><time>2026-07-14T12:58:12Z</time></trkpt>
			<trkpt lat="54.494540" lon="20.093350"><ele>78.5</ele><time>2026-07-14T12:58:19Z</time></trkpt>
			<trkpt lat="54.494360" lon="20.093340"><ele>78.3</ele><time>2026-07-14T12:58:25Z</time></trkpt>
			<trkpt lat="54.494180" lon="20.093450"><ele>78.2</ele><time>2026-07-14T12:58:31Z</time></trkpt>
			<trkpt lat="54.494080" lon="20.093580"><ele>78.2</ele><time>2026-07-14T12:58:38Z</time></trkpt>
			<trkpt lat="54.492170" lon="20.095380"><ele>79.8</ele><time>2026-07-14T12:58:44Z</time></trkpt>
			<trkpt lat="54.485800" lon="20.101310"><ele>85.2</ele><time>2026-07-14T12:58:51Z</time></trkpt>
			<trkpt lat="54.484990" lon="20.102000"><ele>86.0</ele><time>2026-07-14T12:58:57Z</time></trkpt>
			<trkpt lat="54.484010" lon="20.102670"><ele>82.9</ele><time>2026-07-14T12:59:04Z</time></trkpt>
			<trkpt lat="54.479770" lon="20.105510"><ele>83.5</ele><time>2026-07-14T12:59:10Z</time></trkpt>
			<trkpt lat="54.479430" lon="20.105830"><ele>83.7</ele><time>2026-07-14T12:59:17Z</time></trkpt>
			<trkpt lat="54.477980" lon="20.107520"><ele>85.5</ele><time>2026-07-14T12:59:23Z</time></trkpt>
			<trkpt lat="54.472560" lon="20.113050"><ele>89.9</ele><time>2026-07-14T12:59:30Z</time></trkpt>
			<trkpt lat="54.472260" lon="20.113490"><ele>89.7</ele><time>2026-07-14T12:59:36Z</time></trkpt>
			<trkpt lat="54.470510" lon="20.117090"><ele>89.8</ele><time>2026-07-14T12:59:43Z</time></trkpt>
			<trkpt lat="54.470450" lon="20.117230"><ele>89.6</ele><time>2026-07-14T12:59:49Z</time></trkpt>
			<trkpt lat="54.469260" lon="20.119800"><ele>87.7</ele><time>2026-07-14T12:59:56Z</time></trkpt>
			<trkpt lat="54.466850" lon="20.126580"><ele>80.3</ele><time>2026-07-14T13:00:02Z</time></trkpt>
			<trkpt lat="54.466380" lon="20.128020"><ele>81.4</ele><time>2026-07-14T13:00:09Z</time></trkpt>
			<trkpt lat="54.465820" lon="20.129480"><ele>81.8</ele><time>2026-07-14T13:00:15Z</time></trkpt>
			<trkpt lat="54.464950" lon="20.131260"><ele>81.8</ele><time>2026-07-14T13:00:22Z</time></trkpt>
			<trkpt lat="54.463780" lon="20.133740"><ele>83.5</ele><time>2026-07-14T13:00:28Z</time></trkpt>
			<trkpt lat="54.463210" lon="20.134950"><ele>86.6</ele><time>2026-07-14T13:00:35Z</time></trkpt>
			<trkpt lat="54.462970" lon="20.135340"><ele>87.0</ele><time>2026-07-14T13:00:41Z</time></trkpt>
			<trkpt lat="54.462870" lon="20.135680"><ele>87.4</ele><time>2026-07-14T13:00:48Z</time></trkpt>
			<trkpt lat="54.462760" lon="20.136570"><ele>88.2</ele><time>2026-07-14T13:00:54Z</time></trkpt>
			<trkpt lat="54.462700" lon="20.136810"><ele>88.6</ele><time>2026-07-14T13:01:01Z</time></trkpt>
			<trkpt lat="54.462680" lon="20.136850"><ele>88.7</ele><time>2026-07-14T13:01:07Z</time></trkpt>
			<trkpt lat="54.462500" lon="20.137030"><ele>88.9</ele><time>2026-07-14T13:01:14Z</time></trkpt>
			<trkpt lat="54.462340" lon="20.137040"><ele>88.8</ele><time>2026-07-14T13:01:20Z</time></trkpt>
			<trkpt lat="54.462140" lon="20.136940"><ele>88.4</ele><time>2026-07-14T13:01:27Z</time></trkpt>
			<trkpt lat="54.462010" lon="20.136810"><ele>87.9</ele><time>2026-07-14T13:01:33Z</time></trkpt>
			<trkpt lat="54.461030" lon="20.135890"><ele>84.5</ele><time>2026-07-14T13:01:40Z</time></trkpt>
			<trkpt lat="54.460090" lon="20.135200"><ele>80.5</ele><time>2026-07-14T13:01:46Z</time></trkpt>
			<trkpt lat="54.459850" lon="20.134920"><ele>79.5</ele><time>2026-07-14T13:01:53Z</time></trkpt>
			<trkpt lat="54.459710" lon="20.134730"><ele>78.8</ele><time>2026-07-14T13:01:59Z</time></trkpt>
			<trkpt lat="54.459630" lon="20.134670"><ele>78.6</ele><time>2026-07-14T13:02:05Z</time></trkpt>
			<trkpt lat="54.458980" lon="20.134160"><ele>77.3</ele><time>2026-07-14T13:02:12Z</time></trkpt>
			<trkpt lat="54.458820" lon="20.134060"><ele>77.1</ele><time>2026-07-14T13:02:18Z</time></trkpt>
			<trkpt lat="54.458720" lon="20.133990"><ele>77.1</ele><time>2026-07-14T13:02:25Z</time></trkpt>
			<trkpt lat="54.458600" lon="20.133990"><ele>77.3</ele><time>2026-07-14T13:02:31Z</time></trkpt>
			<trkpt lat="54.458420" lon="20.134040"><ele>77.6</ele><time>2026-07-14T13:02:38Z</time></trkpt>
			<trkpt lat="54.456890" lon="20.134610"><ele>87.5</ele><time>2026-07-14T13:02:44Z</time></trkpt>
			<trkpt lat="54.456890" lon="20.134610"><ele>87.5</ele><time>2026-07-14T13:02:54Z</time></trkpt>
			<trkpt lat="54.455500" lon="20.135120"><ele>94.5</ele><time>2026-07-14T13:03:03Z</time></trkpt>
			<trkpt lat="54.455160" lon="20.135240"><ele>95.0</ele><time>2026-07-14T13:03:12Z</time></trkpt>
			<trkpt lat="54.454810" lon="20.135270"><ele>95.6</ele><time>2026-07-14T13:03:21Z</time></trkpt>
			<trkpt lat="54.454300" lon="20.135130"><ele>96.5</ele><time>2026-07-14T13:03:30Z</time></trkpt>
			<trkpt lat="54.454210" lon="20.135090"><ele>96.7</ele><time>2026-07-14T13:03:39Z</time></trkpt>
			<trkpt lat="54.454100" lon="20.135020"><ele>96.8</ele><time>2026-07-14T13:03:48Z</time></trkpt>
			<trkpt lat="54.454020" lon="20.134950"><ele>96.9</ele><time>2026-07-14T13:03:57Z</time></trkpt>
			<trkpt lat="54.453940" lon="20.134870"><ele>96.9</ele><time>2026-07-14T13:04:06Z</time></trkpt>
			<trkpt lat="54.453800" lon="20.134620"><ele>97.2</ele><time>2026-07-14T13:04:16Z</time></trkpt>
			<trkpt lat="54.453680" lon="20.134400"><ele>97.8</ele><time>2026-07-14T13:04:25Z</time></trkpt>
			<trkpt lat="54.453630" lon="20.134320"><ele>98.1</ele><time>2026-07-14T13:04:34Z</time></trkpt>
			<trkpt lat="54.453570" lon="20.134270"><ele>98.3</ele><time>2026-07-14T13:04:43Z</time></trkpt>
			<trkpt lat="54.453500" lon="20.134230"><ele>98.3</ele><time>2026-07-14T13:04:52Z</time></trkpt>
			<trkpt lat="54.453380" lon="20.134200"><ele>98.4</ele><time>2026-07-14T13:05:01Z</time></trkpt>
			<trkpt lat="54.453320" lon="20.134190"><ele>98.5</ele><time>2026-07-14T13:05:10Z</time></trkpt>
			<trkpt lat="54.453190" lon="20.134230"><ele>98.3</ele><time>2026-07-14T13:05:19Z</time></trkpt>
			<trkpt lat="54.453110" lon="20.134280"><ele>97.9</ele><time>2026-07-14T13:05:29Z</time></trkpt>
			<trkpt lat="54.452890" lon="20.134460"><ele>96.7</ele><time>2026-07-14T13:05:38Z</time></trkpt>
			<trkpt lat="54.453110" lon="20.134920"><ele>95.1</ele><time>2026-07-14T13:05:47Z</time></trkpt>
			<trkpt lat="54.453510" lon="20.135760"><ele>93.0</ele><time>2026-07-14T13:05:56Z</time></trkpt>
			<trkpt lat="54.453590" lon="20.135940"><ele>92.9</ele><time>2026-07-14T13:06:05Z</time></trkpt>
			<trkpt lat="54.453800" lon="20.136430"><ele>93.6</ele><time>2026-07-14T13:06:14Z</time></trkpt>
			<trkpt lat="54.453860" lon="20.136560"><ele>93.6</ele><time>2026-07-14T13:06:23Z</time></trkpt>
			<trkpt lat="54.456180" lon="20.141540"><ele>90.6</ele><time>2026-07-14T13:06:32Z</time></trkpt>
			<trkpt lat="54.456950" lon="20.143080"><ele>85.0</ele><time>2026-07-14T13:06:41Z</time></trkpt>
			<trkpt lat="54.457500" lon="20.144140"><ele>81.3</ele><time>2026-07-14T13:06:51Z</time></trkpt>
			<trkpt lat="54.457650" lon="20.144420"><ele>80.9</ele><time>2026-07-14T13:07:00Z</time></trkpt>
			<trkpt lat="54.457810" lon="20.144710"><ele>80.5</ele><time>2026-07-14T13:07:09Z</time></trkpt>
			<trkpt lat="54.458500" lon="20.145980"><ele>80.0</ele><time>2026-07-14T13:07:18Z</time></trkpt>
			<trkpt lat="54.458670" lon="20.146280"><ele>79.9</ele><time>2026-07-14T13:07:27Z</time></trkpt>
			<trkpt lat="54.459110" lon="20.147060"><ele>80.4</ele><time>2026-07-14T13:07:36Z</time></trkpt>
			<trkpt lat="54.459960" lon="20.148510"><ele>85.5</ele><time>2026-07-14T13:07:45Z</time></trkpt>
			<trkpt lat="54.460500" lon="20.149390"><ele>86.9</ele><time>2026-07-14T13:07:54Z</time></trkpt>
			<trkpt lat="54.460990" lon="20.150170"><ele>87.7</ele><time>2026-07-14T13:08:04Z</time></trkpt>
			<trkpt lat="54.461890" lon="20.151530"><ele>86.9</ele><time>2026-07-14T13:08:13Z</time></trkpt>
			<trkpt lat="54.464410" lon="20.155260"><ele>85.0</ele><time>2026-07-14T13:08:22Z</time></trkpt>
			<trkpt lat="54.465320" lon="20.156640"><ele>85.6</ele><time>2026-07-14T13:08:31Z</time></trkpt>
			<trkpt lat="54.466140" lon="20.157880"><ele>89.8</ele><time>2026-07-14T13:08:40Z</time></trkpt>
			<trkpt lat="54.467890" lon="20.160370"><ele>95.2</ele><time>2026-07-14T13:08:49Z</time></trkpt>
			<trkpt lat="54.471570" lon="20.165760"><ele>99.2</ele><time>2026-07-14T13:08:58Z</time></trkpt>
			<trkpt lat="54.476620" lon="20.173210"><ele>99.5</ele><time>2026-07-14T13:09:07Z</time></trkpt>
			<trkpt lat="54.483810" lon="20.183730"><ele>90.6</ele><time>2026-07-14T13:09:16Z</time></trkpt>
			<trkpt lat="54.485350" lon="20.186030"><ele>87.0</ele><time>2026-07-14T13:09:26Z</time></trkpt>
			<trkpt lat="54.486630" lon="20.187920"><ele>83.5</ele><time>2026-07-14T13:09:35Z</time></trkpt>
			<trkpt lat="54.491160" lon="20.194500"><ele>79.8</ele><time>2026-07-14T13:09:44Z</time></trkpt>
			<trkpt lat="54.493520" lon="20.198010"><ele>82.0</ele><time>2026-07-14T13:09:53Z</time></trkpt>
			<trkpt lat="54.495890" lon="20.201510"><ele>69.4</ele><time>2026-07-14T13:10:02Z</time></trkpt>
			<trkpt lat="54.497790" lon="20.204320"><ele>62.6</ele><time>2026-07-14T13:10:11Z</time></trkpt>
			<trkpt lat="54.499380" lon="20.206550"><ele>65.7</ele><time>2026-07-14T13:10:20Z</time></trkpt>
			<trkpt lat="54.501810" lon="20.210190"><ele>63.2</ele><time>2026-07-14T13:10:29Z</time></trkpt>
			<trkpt lat="54.506210" lon="20.216650"><ele>51.1</ele><time>2026-07-14T13:10:39Z</time></trkpt>
			<trkpt lat="54.507670" lon="20.219140"><ele>51.0</ele><time>2026-07-14T13:10:48Z</time></trkpt>
			<trkpt lat="54.508370" lon="20.220480"><ele>52.2</ele><time>2026-07-14T13:10:57Z</time></trkpt>
			<trkpt lat="54.509070" lon="20.221900"><ele>53.8</ele><time>2026-07-14T13:11:06Z</time></trkpt>
			<trkpt lat="54.509570" lon="20.222970"><ele>54.2</ele><time>2026-07-14T13:11:15Z</time></trkpt>
			<trkpt lat="54.510310" lon="20.224750"><ele>56.5</ele><time>2026-07-14T13:11:24Z</time></trkpt>
			<trkpt lat="54.511080" lon="20.226880"><ele>56.0</ele><time>2026-07-14T13:11:33Z</time></trkpt>
			<trkpt lat="54.511400" lon="20.227900"><ele>54.5</ele><time>2026-07-14T13:11:42Z</time></trkpt>
			<trkpt lat="54.511570" lon="20.228440"><ele>54.1</ele><time>2026-07-14T13:11:51Z</time></trkpt>
			<trkpt lat="54.511870" lon="20.229370"><ele>53.9</ele><time>2026-07-14T13:12:01Z</time></trkpt>
			<trkpt lat="54.512010" lon="20.229850"><ele>53.7</ele><time>2026-07-14T13:12:10Z</time></trkpt>
			<trkpt lat="54.512290" lon="20.230850"><ele>54.3</ele><time>2026-07-14T13:12:19Z</time></trkpt>
			<trkpt lat="54.512320" lon="20.230950"><ele>54.4</ele><time>2026-07-14T13:12:28Z</time></trkpt>
			<trkpt lat="54.512600" lon="20.231960"><ele>54.7</ele><time>2026-07-14T13:12:37Z</time></trkpt>
			<trkpt lat="54.513010" lon="20.233490"><ele>54.3</ele><time>2026-07-14T13:12:46Z</time></trkpt>
			<trkpt lat="54.513450" lon="20.235020"><ele>54.8</ele><time>2026-07-14T13:12:55Z</time></trkpt>
			<trkpt lat="54.515630" lon="20.243030"><ele>56.3</ele><time>2026-07-14T13:13:04Z</time></trkpt>
			<trkpt lat="54.516860" lon="20.247470"><ele>58.5</ele><time>2026-07-14T13:13:14Z</time></trkpt>
			<trkpt lat="54.521380" lon="20.264310"><ele>63.5</ele><time>2026-07-14T13:13:23Z</time></trkpt>
			<trkpt lat="54.522670" lon="20.269010"><ele>65.0</ele><time>2026-07-14T13:13:32Z</time></trkpt>
			<trkpt lat="54.523090" lon="20.270490"><ele>63.6</ele><time>2026-07-14T13:13:41Z</time></trkpt>
			<trkpt lat="54.523860" lon="20.273440"><ele>50.5</ele><time>2026-07-14T13:13:50Z</time></trkpt>
			<trkpt lat="54.524440" lon="20.275560"><ele>50.7</ele><time>2026-07-14T13:13:59Z</time></trkpt>
			<trkpt lat="54.525150" lon="20.278230"><ele>49.3</ele><time>2026-07-14T13:14:08Z</time></trkpt>
			<trkpt lat="54.525730" lon="20.280460"><ele>49.7</ele><time>2026-07-14T13:14:17Z</time></trkpt>
			<trkpt lat="54.526490" lon="20.283250"><ele>50.4</ele><time>2026-07-14T13:14:26Z</time></trkpt>
			<trkpt lat="54.528570" lon="20.290930"><ele>34.5</ele><time>2026-07-14T13:14:36Z</time></trkpt>
			<trkpt lat="54.530470" lon="20.298040"><ele>33.0</ele><time>2026-07-14T13:14:45Z</time></trkpt>
			<trkpt lat="54.531660" lon="20.302440"><ele>33.2</ele><time>2026-07-14T13:14:54Z</time></trkpt>
			<trkpt lat="54.532200" lon="20.304300"><ele>32.9</ele><time>2026-07-14T13:15:03Z</time></trkpt>
			<trkpt lat="54.532680" lon="20.305920"><ele>33.3</ele><time>2026-07-14T13:15:12Z</time></trkpt>
			<trkpt lat="54.533130" lon="20.307410"><ele>33.1</ele><time>2026-07-14T13:15:21Z</time></trkpt>
			<trkpt lat="54.533620" lon="20.308900"><ele>33.3</ele><time>2026-07-14T13:15:30Z</time></trkpt>
			<trkpt lat="54.535970" lon="20.315490"><ele>29.2</ele><time>2026-07-14T13:15:39Z</time></trkpt>
			<trkpt lat="54.540820" lon="20.329110"><ele>24.3</ele><time>2026-07-14T13:15:49Z</time></trkpt>
			<trkpt lat="54.540820" lon="20.329110"><ele>24.3</ele><time>2026-07-14T13:15:56Z</time></trkpt>
			<trkpt lat="54.542190" lon="20.332950"><ele>22.8</ele><time>2026-07-14T13:16:03Z</time></trkpt>
			<trkpt lat="54.542920" lon="20.335060"><ele>21.4</ele><time>2026-07-14T13:16:10Z</time></trkpt>
			<trkpt lat="54.544780" lon="20.340220"><ele>20.8</ele><time>2026-07-14T13:16:18Z</time></trkpt>
			<trkpt lat="54.545240" lon="20.341450"><ele>19.4</ele><time>2026-07-14T13:16:25Z</time></trkpt>
			<trkpt lat="54.546230" lon="20.344270"><ele>12.1</ele><time>2026-07-14T13:16:32Z</time></trkpt>
			<trkpt lat="54.547880" lon="20.348880"><ele>10.0</ele><time>2026-07-14T13:16:39Z</time></trkpt>
			<trkpt lat="54.548770" lon="20.351410"><ele>6.3</ele><time>2026-07-14T13:16:47Z</time></trkpt>
			<trkpt lat="54.549230" lon="20.352650"><ele>4.8</ele><time>2026-07-14T13:16:54Z</time></trkpt>
			<trkpt lat="54.549670" lon="20.353780"><ele>3.1</ele><time>2026-07-14T13:17:01Z</time></trkpt>
			<trkpt lat="54.550450" lon="20.355700"><ele>1.9</ele><time>2026-07-14T13:17:08Z</time></trkpt>
			<trkpt lat="54.550870" lon="20.356670"><ele>2.8</ele><time>2026-07-14T13:17:16Z</time></trkpt>
			<trkpt lat="54.551270" lon="20.357560"><ele>1.7</ele><time>2026-07-14T13:17:23Z</time></trkpt>
			<trkpt lat="54.552260" lon="20.359690"><ele>1.6</ele><time>2026-07-14T13:17:30Z</time></trkpt>
			<trkpt lat="54.555770" lon="20.366810"><ele>1.9</ele><time>2026-07-14T13:17:38Z</time></trkpt>
			<trkpt lat="54.556720" lon="20.368670"><ele>3.0</ele><time>2026-07-14T13:17:45Z</time></trkpt>
			<trkpt lat="54.556230" lon="20.368840"><ele>2.8</ele><time>2026-07-14T13:17:52Z</time></trkpt>
			<trkpt lat="54.556030" lon="20.368930"><ele>2.8</ele><time>2026-07-14T13:17:59Z</time></trkpt>
			<trkpt lat="54.555850" lon="20.369130"><ele>2.9</ele><time>2026-07-14T13:18:07Z</time></trkpt>
			<trkpt lat="54.555520" lon="20.369610"><ele>2.8</ele><time>2026-07-14T13:18:14Z</time></trkpt>
			<trkpt lat="54.555370" lon="20.369810"><ele>2.6</ele><time>2026-07-14T13:18:21Z</time></trkpt>
			<trkpt lat="54.555180" lon="20.370010"><ele>2.4</ele><time>2026-07-14T13:18:28Z</time></trkpt>
			<trkpt lat="54.554960" lon="20.370160"><ele>2.1</ele><time>2026-07-14T13:18:36Z</time></trkpt>
			<trkpt lat="54.554620" lon="20.370350"><ele>1.5</ele><time>2026-07-14T13:18:43Z</time></trkpt>
			<trkpt lat="54.553840" lon="20.370730"><ele>1.3</ele><time>2026-07-14T13:18:50Z</time></trkpt>
			<trkpt lat="54.552810" lon="20.371080"><ele>1.6</ele><time>2026-07-14T13:18:58Z</time></trkpt>
			<trkpt lat="54.549840" lon="20.371840"><ele>2.4</ele><time>2026-07-14T13:19:05Z</time></trkpt>
			<trkpt lat="54.549840" lon="20.371840"><ele>2.4</ele><time>2026-07-14T13:19:14Z</time></trkpt>
			<trkpt lat="54.549620" lon="20.371870"><ele>3.0</ele><time>2026-07-14T13:19:23Z</time></trkpt>
			<trkpt lat="54.549330" lon="20.371870"><ele>3.8</ele><time>2026-07-14T13:19:32Z</time></trkpt>
			<trkpt lat="54.548650" lon="20.371780"><ele>5.8</ele><time>2026-07-14T13:19:41Z</time></trkpt>
			<trkpt lat="54.544490" lon="20.369710"><ele>10.0</ele><time>2026-07-14T13:19:49Z</time></trkpt>
			<trkpt lat="54.544290" lon="20.369620"><ele>9.7</ele><time>2026-07-14T13:19:58Z</time></trkpt>
			<trkpt lat="54.543460" lon="20.369170"><ele>8.3</ele><time>2026-07-14T13:20:07Z</time></trkpt>
			<trkpt lat="54.542600" lon="20.368330"><ele>7.0</ele><time>2026-07-14T13:20:16Z</time></trkpt>
			<trkpt lat="54.541750" lon="20.367450"><ele>5.9</ele><time>2026-07-14T13:20:25Z</time></trkpt>
			<trkpt lat="54.541540" lon="20.367250"><ele>5.9</ele><time>2026-07-14T13:20:34Z</time></trkpt>
			<trkpt lat="54.541330" lon="20.367140"><ele>5.8</ele><time>2026-07-14T13:20:43Z</time></trkpt>
			<trkpt lat="54.541080" lon="20.367130"><ele>5.7</ele><time>2026-07-14T13:20:52Z</time></trkpt>
			<trkpt lat="54.540830" lon="20.367220"><ele>5.7</ele><time>2026-07-14T13:21:01Z</time></trkpt>
			<trkpt lat="54.539610" lon="20.368010"><ele>6.1</ele><time>2026-07-14T13:21:10Z</time></trkpt>
			<trkpt lat="54.539520" lon="20.368070"><ele>6.3</ele><time>2026-07-14T13:21:19Z</time></trkpt>
			<trkpt lat="54.539250" lon="20.368240"><ele>6.8</ele><time>2026-07-14T13:21:28Z</time></trkpt>
			<trkpt lat="54.538870" lon="20.368450"><ele>7.5</ele><time>2026-07-14T13:21:37Z</time></trkpt>
			<trkpt lat="54.538480" lon="20.368580"><ele>8.3</ele><time>2026-07-14T13:21:46Z</time></trkpt>
			<trkpt lat="54.537970" lon="20.368600"><ele>8.6</ele><time>2026-07-14T13:21:55Z</time></trkpt>
			<trkpt lat="54.537790" lon="20.368570"><ele>8.6</ele><time>2026-07-14T13:22:03Z</time></trkpt>
			<trkpt lat="54.537250" lon="20.368550"><ele>8.5</ele><time>2026-07-14T13:22:12Z</time></trkpt>
			<trkpt lat="54.537060" lon="20.368580"><ele>8.7</ele><time>2026-07-14T13:22:21Z</time></trkpt>
			<trkpt lat="54.535630" lon="20.369450"><ele>8.6</ele><time>2026-07-14T13:22:30Z</time></trkpt>
			<trkpt lat="54.534620" lon="20.370120"><ele>11.2</ele><time>2026-07-14T13:22:39Z</time></trkpt>
			<trkpt lat="54.534390" lon="20.370410"><ele>11.7</ele><time>2026-07-14T13:22:48Z</time></trkpt>
			<trkpt lat="54.533640" lon="20.371340"><ele>11.3</ele><time>2026-07-14T13:22:57Z</time></trkpt>
			<trkpt lat="54.533710" lon="20.371520"><ele>11.1</ele><time>2026-07-14T13:23:06Z</time></trkpt>
			<trkpt lat="54.533710" lon="20.371770"><ele>10.9</ele><time>2026-07-14T13:23:15Z</time></trkpt>
			<trkpt lat="54.533690" lon="20.372690"><ele>9.9</ele><time>2026-07-14T13:23:24Z</time></trkpt>
			<trkpt lat="54.533650" lon="20.376740"><ele>15.0</ele><time>2026-07-14T13:23:33Z</time></trkpt>
			<trkpt lat="54.533620" lon="20.377970"><ele>16.6</ele><time>2026-07-14T13:23:42Z</time></trkpt>
			<trkpt lat="54.532980" lon="20.384110"><ele>12.5</ele><time>2026-07-14T13:23:51Z</time></trkpt>
			<trkpt lat="54.532920" lon="20.384620"><ele>12.3</ele><time>2026-07-14T13:24:00Z</time></trkpt>
			<trkpt lat="54.532820" lon="20.384990"><ele>12.3</ele><time>2026-07-14T13:24:09Z</time></trkpt>
			<trkpt lat="54.532610" lon="20.385280"><ele>12.3</ele><time>2026-07-14T13:24:17Z</time></trkpt>
			<trkpt lat="54.530340" lon="20.388010"><ele>10.4</ele><time>2026-07-14T13:24:26Z</time></trkpt>
			<trkpt lat="54.530180" lon="20.388340"><ele>10.0</ele><time>2026-07-14T13:24:35Z</time></trkpt>
			<trkpt lat="54.530030" lon="20.388920"><ele>9.3</ele><time>2026-07-14T13:24:44Z</time></trkpt>
			<trkpt lat="54.529940" lon="20.389830"><ele>7.8</ele><time>2026-07-14T13:24:53Z</time></trkpt>
			<trkpt lat="54.529730" lon="20.391540"><ele>7.6</ele><time>2026-07-14T13:25:02Z</time></trkpt>
			<trkpt lat="54.529650" lon="20.391990"><ele>8.1</ele><time>2026-07-14T13:25:11Z</time></trkpt>
			<trkpt lat="54.529510" lon="20.392740"><ele>8.3</ele><time>2026-07-14T13:25:20Z</time></trkpt>
			<trkpt lat="54.529320" lon="20.393820"><ele>8.4</ele><time>2026-07-14T13:25:29Z</time></trkpt>
			<trkpt lat="54.528910" lon="20.395910"><ele>14.1</ele><time>2026-07-14T13:25:38Z</time></trkpt>
			<trkpt lat="54.528620" lon="20.396870"><ele>17.3</ele><time>2026-07-14T13:25:47Z</time></trkpt>
			<trkpt lat="54.528280" lon="20.397590"><ele>19.8</ele><time>2026-07-14T13:25:56Z</time></trkpt>
			<trkpt lat="54.525470" lon="20.402160"><ele>26.4</ele><time>2026-07-14T13:26:05Z</time></trkpt>
			<trkpt lat="54.521970" lon="20.406810"><ele>25.7</ele><time>2026-07-14T13:26:14Z</time></trkpt>
			<trkpt lat="54.520330" lon="20.409260"><ele>23.6</ele><time>2026-07-14T13:26:23Z</time></trkpt>
			<trkpt lat="54.516140" lon="20.415910"><ele>20.9</ele><time>2026-07-14T13:26:31Z</time></trkpt>
			<trkpt lat="54.513720" lon="20.419340"><ele>23.7</ele><time>2026-07-14T13:26:40Z</time></trkpt>
			<trkpt lat="54.510740" lon="20.423500"><ele>19.8</ele><time>2026-07-14T13:26:49Z</time></trkpt>
			<trkpt lat="54.510380" lon="20.424070"><ele>19.0</ele><time>2026-07-14T13:26:58Z</time></trkpt>
			<trkpt lat="54.509690" lon="20.425400"><ele>17.1</ele><time>2026-07-14T13:27:07Z</time></trkpt>
			<trkpt lat="54.509320" lon="20.426230"><ele>16.4</ele><time>2026-07-14T13:27:16Z</time></trkpt>
			<trkpt lat="54.509040" lon="20.426970"><ele>16.2</ele><time>2026-07-14T13:27:25Z</time></trkpt>
			<trkpt lat="54.508650" lon="20.428460"><ele>16.8</ele><time>2026-07-14T13:27:34Z</time></trkpt>
			<trkpt lat="54.506460" lon="20.438320"><ele>32.7</ele><time>2026-07-14T13:27:43Z</time></trkpt>
			<trkpt lat="54.504850" lon="20.445520"><ele>29.3</ele><time>2026-07-14T13:27:52Z</time></trkpt>
			<trkpt lat="54.504720" lon="20.445940"><ele>27.9</ele><time>2026-07-14T13:28:01Z</time></trkpt>
			<trkpt lat="54.504630" lon="20.446210"><ele>27.1</ele><time>2026-07-14T13:28:10Z</time></trkpt>
			<trkpt lat="54.504540" lon="20.446440"><ele>26.4</ele><time>2026-07-14T13:28:19Z</time></trkpt>
			<trkpt lat="54.504430" lon="20.446660"><ele>25.8</ele><time>2026-07-14T13:28:28Z</time></trkpt>
			<trkpt lat="54.503900" lon="20.447660"><ele>24.5</ele><time>2026-07-14T13:28:37Z</time></trkpt>
			<trkpt lat="54.503480" lon="20.447560"><ele>23.5</ele><time>2026-07-14T13:28:45Z</time></trkpt>
			<trkpt lat="54.503480" lon="20.447820"><ele>23.9</ele><time>2026-07-14T13:28:54Z</time></trkpt>
			<trkpt lat="54.503570" lon="20.448750"><ele>25.5</ele><time>2026-07-14T13:29:03Z</time></trkpt>
			<trkpt lat="54.503680" lon="20.449670"><ele>26.4</ele><time>2026-07-14T13:29:12Z</time></trkpt>
			<trkpt lat="54.503800" lon="20.450870"><ele>27.9</ele><time>2026-07-14T13:29:21Z</time></trkpt>
			<trkpt lat="54.503820" lon="20.451250"><ele>28.6</ele><time>2026-07-14T13:29:30Z</time></trkpt>
			<trkpt lat="54.503820" lon="20.451490"><ele>28.9</ele><time>2026-07-14T13:29:39Z</time></trkpt>
			<trkpt lat="54.503800" lon="20.451740"><ele>29.2</ele><time>2026-07-14T13:29:48Z</time></trkpt>
			<trkpt lat="54.503440" lon="20.453310"><ele>30.2</ele><time>2026-07-14T13:29:57Z</time></trkpt>
			<trkpt lat="54.503060" lon="20.454970"><ele>29.8</ele><time>2026-07-14T13:30:06Z</time></trkpt>
			<trkpt lat="54.502650" lon="20.456600"><ele>30.3</ele><time>2026-07-14T13:30:15Z</time></trkpt>
			<trkpt lat="54.502530" lon="20.457210"><ele>30.7</ele><time>2026-07-14T13:30:24Z</time></trkpt>
			<trkpt lat="54.502460" lon="20.457710"><ele>31.1</ele><time>2026-07-14T13:30:33Z</time></trkpt>
			<trkpt lat="54.502420" lon="20.458190"><ele>31.6</ele><time>2026-07-14T13:30:42Z</time></trkpt>
			<trkpt lat="54.502350" lon="20.458770"><ele>32.3</ele><time>2026-07-14T13:30:51Z</time></trkpt>
			<trkpt lat="54.501990" lon="20.461350"><ele>34.6</ele><time>2026-07-14T13:30:59Z</time></trkpt>
			<trkpt lat="54.501390" lon="20.464370"><ele>34.6</ele><time>2026-07-14T13:31:08Z</time></trkpt>
			<trkpt lat="54.500430" lon="20.469090"><ele>35.0</ele><time>2026-07-14T13:31:17Z</time></trkpt>
			<trkpt lat="54.500290" lon="20.469580"><ele>35.2</ele><time>2026-07-14T13:31:26Z</time></trkpt>
			<trkpt lat="54.499900" lon="20.470650"><ele>35.6</ele><time>2026-07-14T13:31:35Z</time></trkpt>
			<trkpt lat="54.499390" lon="20.472080"><ele>36.1</ele><time>2026-07-14T13:31:44Z</time></trkpt>
			<trkpt lat="54.498700" lon="20.474570"><ele>37.2</ele><time>2026-07-14T13:31:53Z</time></trkpt>
			<trkpt lat="54.498030" lon="20.477480"><ele>39.2</ele><time>2026-07-14T13:32:02Z</time></trkpt>
			<trkpt lat="54.497730" lon="20.478170"><ele>39.5</ele><time>2026-07-14T13:32:11Z</time></trkpt>
			<trkpt lat="54.497340" lon="20.478840"><ele>38.4</ele><time>2026-07-14T13:32:20Z</time></trkpt>
			<trkpt lat="54.497030" lon="20.479440"><ele>37.5</ele><time>2026-07-14T13:32:29Z</time></trkpt>
			<trkpt lat="54.496780" lon="20.480030"><ele>37.8</ele><time>2026-07-14T13:32:38Z</time></trkpt>
			<trkpt lat="54.496610" lon="20.480640"><ele>37.7</ele><time>2026-07-14T13:32:47Z</time></trkpt>
			<trkpt lat="54.496440" lon="20.481350"><ele>37.2</ele><time>2026-07-14T13:32:56Z</time></trkpt>
			<trkpt lat="54.496230" lon="20.482040"><ele>37.0</ele><time>2026-07-14T13:33:05Z</time></trkpt>
			<trkpt lat="54.495960" lon="20.482810"><ele>36.5</ele><time>2026-07-14T13:33:13Z</time></trkpt>
			<trkpt lat="54.495650" lon="20.483580"><ele>35.3</ele><time>2026-07-14T13:33:22Z</time></trkpt>
			<trkpt lat="54.495240" lon="20.484520"><ele>35.3</ele><time>2026-07-14T13:33:31Z</time></trkpt>
			<trkpt lat="54.495060" lon="20.484980"><ele>36.0</ele><time>2026-07-14T13:33:40Z</time></trkpt>
			<trkpt lat="54.495010" lon="20.485330"><ele>36.8</ele><time>2026-07-14T13:33:49Z</time></trkpt>
			<trkpt lat="54.495000" lon="20.485410"><ele>37.0</ele><time>2026-07-14T13:33:58Z</time></trkpt>
			<trkpt lat="54.495000" lon="20.485700"><ele>37.5</ele><time>2026-07-14T13:34:07Z</time></trkpt>
			<trkpt lat="54.495220" lon="20.487060"><ele>40.0</ele><time>2026-07-14T13:34:16Z</time></trkpt>
			<trkpt lat="54.495300" lon="20.487770"><ele>41.6</ele><time>2026-07-14T13:34:25Z</time></trkpt>
			<trkpt lat="54.495210" lon="20.488330"><ele>42.3</ele><time>2026-07-14T13:34:34Z</time></trkpt>
			<trkpt lat="54.493830" lon="20.493670"><ele>43.4</ele><time>2026-07-14T13:34:43Z</time></trkpt>
			<trkpt lat="54.493030" lon="20.496690"><ele>35.3</ele><time>2026-07-14T13:34:52Z</time></trkpt>
			<trkpt lat="54.492640" lon="20.498190"><ele>33.9</ele><time>2026-07-14T13:35:01Z</time></trkpt>
			<trkpt lat="54.492330" lon="20.499400"><ele>33.2</ele><time>2026-07-14T13:35:10Z</time></trkpt>
			<trkpt lat="54.491550" lon="20.501950"><ele>33.0</ele><time>2026-07-14T13:35:19Z</time></trkpt>
			<trkpt lat="54.490970" lon="20.503710"><ele>37.0</ele><time>2026-07-14T13:35:27Z</time></trkpt>
			<trkpt lat="54.488450" lon="20.510420"><ele>44.2</ele><time>2026-07-14T13:35:36Z</time></trkpt>
			<trkpt lat="54.488300" lon="20.510960"><ele>44.8</ele><time>2026-07-14T13:35:45Z</time></trkpt>
			<trkpt lat="54.488290" lon="20.511480"><ele>44.2</ele><time>2026-07-14T13:35:54Z</time></trkpt>
			<trkpt lat="54.488590" lon="20.519600"><ele>49.9</ele><time>2026-07-14T13:36:03Z</time></trkpt>
			<trkpt lat="54.488560" lon="20.520340"><ele>50.3</ele><time>2026-07-14T13:36:12Z</time></trkpt>
			<trkpt lat="54.488360" lon="20.520880"><ele>50.7</ele><time>2026-07-14T13:36:21Z</time></trkpt>
			<trkpt lat="54.484710" lon="20.528320"><ele>52.0</ele><time>2026-07-14T13:36:30Z</time></trkpt>
			<trkpt lat="54.484520" lon="20.528810"><ele>52.1</ele><time>2026-07-14T13:36:39Z</time></trkpt>
			<trkpt lat="54.484240" lon="20.529700"><ele>52.1</ele><time>2026-07-14T13:36:48Z</time></trkpt>
			<trkpt lat="54.483610" lon="20.531860"><ele>49.4</ele><time>2026-07-14T13:36:57Z</time></trkpt>
			<trkpt lat="54.482540" lon="20.535270"><ele>51.8</ele><time>2026-07-14T13:37:06Z</time></trkpt>
			<trkpt lat="54.481300" lon="20.539370"><ele>51.9</ele><time>2026-07-14T13:37:15Z</time></trkpt>
			<trkpt lat="54.481160" lon="20.539760"><ele>51.8</ele><time>2026-07-14T13:37:24Z</time></trkpt>
			<trkpt lat="54.481060" lon="20.539950"><ele>51.9</ele><time>2026-07-14T13:37:33Z</time></trkpt>
			<trkpt lat="54.480940" lon="20.540090"><ele>52.0</ele><time>2026-07-14T13:37:41Z</time></trkpt>
			<trkpt lat="54.480720" lon="20.540250"><ele>52.4</ele><time>2026-07-14T13:37:50Z</time></trkpt>
			<trkpt lat="54.479720" lon="20.540690"><ele>52.6</ele><time>2026-07-14T13:37:59Z</time></trkpt>
			<trkpt lat="54.478240" lon="20.541420"><ele>49.9</ele><time>2026-07-14T13:38:08Z</time></trkpt>
			<trkpt lat="54.477500" lon="20.541770"><ele>50.2</ele><time>2026-07-14T13:38:17Z</time></trkpt>
			<trkpt lat="54.475720" lon="20.542780"><ele>55.8</ele><time>2026-07-14T13:38:26Z</time></trkpt>
			<trkpt lat="54.475340" lon="20.543030"><ele>56.1</ele><time>2026-07-14T13:38:35Z</time></trkpt>
			<trkpt lat="54.474910" lon="20.543370"><ele>56.5</ele><time>2026-07-14T13:38:44Z</time></trkpt>
			<trkpt lat="54.474530" lon="20.543710"><ele>55.8</ele><time>2026-07-14T13:38:53Z</time></trkpt>
			<trkpt lat="54.472980" lon="20.545000"><ele>52.1</ele><time>2026-07-14T13:39:02Z</time></trkpt>
			<trkpt lat="54.472360" lon="20.545500"><ele>50.1</ele><time>2026-07-14T13:39:11Z</time></trkpt>
			<trkpt lat="54.471960" lon="20.545800"><ele>48.8</ele><time>2026-07-14T13:39:20Z</time></trkpt>
			<trkpt lat="54.471810" lon="20.545860"><ele>48.3</ele><time>2026-07-14T13:39:29Z</time></trkpt>
			<trkpt lat="54.471550" lon="20.545860"><ele>48.6</ele><time>2026-07-14T13:39:38Z</time></trkpt>
			<trkpt lat="54.470560" lon="20.545760"><ele>51.2</ele><time>2026-07-14T13:39:47Z</time></trkpt>
			<trkpt lat="54.470100" lon="20.545660"><ele>51.7</ele><time>2026-07-14T13:39:55Z</time></trkpt>
			<trkpt lat="54.467770" lon="20.545460"><ele>42.6</ele><time>2026-07-14T13:40:04Z</time></trkpt>
			<trkpt lat="54.467550" lon="20.545490"><ele>41.8</ele><time>2026-07-14T13:40:13Z</time></trkpt>
			<trkpt lat="54.467240" lon="20.545570"><ele>41.3</ele><time>2026-07-14T13:40:22Z</time></trkpt>
			<trkpt lat="54.466480" lon="20.545740"><ele>40.8</ele><time>2026-07-14T13:40:31Z</time></trkpt>
			<trkpt lat="54.465710" lon="20.545880"><ele>40.7</ele><time>2026-07-14T13:40:40Z</time></trkpt>
			<trkpt lat="54.463910" lon="20.546590"><ele>36.7</ele><time>2026-07-14T13:40:49Z</time></trkpt>
			<trkpt lat="54.463770" lon="20.546730"><ele>36.2</ele><time>2026-07-14T13:40:58Z</time></trkpt>
			<trkpt lat="54.463650" lon="20.546960"><ele>35.6</ele><time>2026-07-14T13:41:07Z</time></trkpt>
			<trkpt lat="54.463500" lon="20.547820"><ele>35.1</ele><time>2026-07-14T13:41:16Z</time></trkpt>
			<trkpt lat="54.463400" lon="20.548310"><ele>35.1</ele><time>2026-07-14T13:41:25Z</time></trkpt>
			<trkpt lat="54.463330" lon="20.548550"><ele>35.2</ele><time>2026-07-14T13:41:34Z</time></trkpt>
			<trkpt lat="54.463220" lon="20.548650"><ele>35.1</ele><time>2026-07-14T13:41:43Z</time></trkpt>
			<trkpt lat="54.462980" lon="20.548760"><ele>34.9</ele><time>2026-07-14T13:41:52Z</time></trkpt>
			<trkpt lat="54.462840" lon="20.548790"><ele>35.0</ele><time>2026-07-14T13:42:01Z</time></trkpt>
			<trkpt lat="54.460930" lon="20.550720"><ele>36.3</ele><time>2026-07-14T13:42:09Z</time></trkpt>
			<trkpt lat="54.460810" lon="20.550780"><ele>36.6</ele><time>2026-07-14T13:42:18Z</time></trkpt>
			<trkpt lat="54.460660" lon="20.550800"><ele>36.9</ele><time>2026-07-14T13:42:27Z</time></trkpt>
			<trkpt lat="54.460440" lon="20.550900"><ele>37.2</ele><time>2026-07-14T13:42:36Z</time></trkpt>
			<trkpt lat="54.460390" lon="20.550970"><ele>37.3</ele><time>2026-07-14T13:42:45Z</time></trkpt>
			<trkpt lat="54.460360" lon="20.551170"><ele>37.8</ele><time>2026-07-14T13:42:54Z</time></trkpt>
			<trkpt lat="54.460530" lon="20.551800"><ele>39.0</ele><time>2026-07-14T13:43:03Z</time></trkpt>
			<trkpt lat="54.460790" lon="20.552830"><ele>40.3</ele><time>2026-07-14T13:43:12Z</time></trkpt>
			<trkpt lat="54.460910" lon="20.553320"><ele>41.0</ele><time>2026-07-14T13:43:21Z</time></trkpt>
			<trkpt lat="54.460940" lon="20.553720"><ele>41.8</ele><time>2026-07-14T13:43:30Z</time></trkpt>
			<trkpt lat="54.460920" lon="20.554120"><ele>42.6</ele><time>2026-07-14T13:43:39Z</time></trkpt>
			<trkpt lat="54.460470" lon="20.557850"><ele>50.3</ele><time>2026-07-14T13:43:48Z</time></trkpt>
			<trkpt lat="54.459860" lon="20.563240"><ele>51.1</ele><time>2026-07-14T13:43:57Z</time></trkpt>
			<trkpt lat="54.459290" lon="20.568010"><ele>51.3</ele><time>2026-07-14T13:44:06Z</time></trkpt>
			<trkpt lat="54.459010" lon="20.568450"><ele>50.7</ele><time>2026-07-14T13:44:15Z</time></trkpt>
			<trkpt lat="54.455740" lon="20.573080"><ele>53.5</ele><time>2026-07-14T13:44:23Z</time></trkpt>
			<trkpt lat="54.454740" lon="20.574560"><ele>56.5</ele><time>2026-07-14T13:44:32Z</time></trkpt>
			<trkpt lat="54.452630" lon="20.576800"><ele>50.9</ele><time>2026-07-14T13:44:41Z</time></trkpt>
			<trkpt lat="54.452040" lon="20.577450"><ele>50.1</ele><time>2026-07-14T13:44:50Z</time></trkpt>
			<trkpt lat="54.451480" lon="20.577970"><ele>49.4</ele><time>2026-07-14T13:44:59Z</time></trkpt>
			<trkpt lat="54.450030" lon="20.579190"><ele>51.9</ele><time>2026-07-14T13:45:08Z</time></trkpt>
			<trkpt lat="54.449510" lon="20.579560"><ele>52.1</ele><time>2026-07-14T13:45:17Z</time></trkpt>
			<trkpt lat="54.449380" lon="20.579670"><ele>52.3</ele><time>2026-07-14T13:45:26Z</time></trkpt>
			<trkpt lat="54.448990" lon="20.579760"><ele>53.0</ele><time>2026-07-14T13:45:35Z</time></trkpt>
			<trkpt lat="54.439670" lon="20.581510"><ele>54.4</ele><time>2026-07-14T13:45:44Z</time></trkpt>
			<trkpt lat="54.439280" lon="20.581760"><ele>54.8</ele><time>2026-07-14T13:45:53Z</time></trkpt>
			<trkpt lat="54.434570" lon="20.586440"><ele>48.3</ele><time>2026-07-14T13:46:02Z</time></trkpt>
			<trkpt lat="54.430870" lon="20.590220"><ele>53.5</ele><time>2026-07-14T13:46:11Z</time></trkpt>
			<trkpt lat="54.430630" lon="20.590470"><ele>53.3</ele><time>2026-07-14T13:46:20Z</time></trkpt>
			<trkpt lat="54.428150" lon="20.592940"><ele>52.1</ele><time>2026-07-14T13:46:29Z</time></trkpt>
			<trkpt lat="54.425710" lon="20.595590"><ele>47.7</ele><time>2026-07-14T13:46:37Z</time></trkpt>
			<trkpt lat="54.425010" lon="20.597130"><ele>48.5</ele><time>2026-07-14T13:46:46Z</time></trkpt>
			<trkpt lat="54.424410" lon="20.598640"><ele>48.5</ele><time>2026-07-14T13:46:55Z</time></trkpt>
			<trkpt lat="54.423900" lon="20.601690"><ele>48.9</ele><time>2026-07-14T13:47:04Z</time></trkpt>
			<trkpt lat="54.423220" lon="20.603740"><ele>49.9</ele><time>2026-07-14T13:47:13Z</time></trkpt>
			<trkpt lat="54.422560" lon="20.605660"><ele>50.7</ele><time>2026-07-14T13:47:22Z</time></trkpt>
			<trkpt lat="54.422310" lon="20.606160"><ele>50.8</ele><time>2026-07-14T13:47:31Z</time></trkpt>
			<trkpt lat="54.421680" lon="20.607340"><ele>50.1</ele><time>2026-07-14T13:47:40Z</time></trkpt>
			<trkpt lat="54.420770" lon="20.609000"><ele>50.2</ele><time>2026-07-14T13:47:49Z</time></trkpt>
			<trkpt lat="54.419070" lon="20.612300"><ele>52.3</ele><time>2026-07-14T13:47:58Z</time></trkpt>
			<trkpt lat="54.418630" lon="20.613210"><ele>52.0</ele><time>2026-07-14T13:48:07Z</time></trkpt>
			<trkpt lat="54.418450" lon="20.613830"><ele>52.0</ele><time>2026-07-14T13:48:16Z</time></trkpt>
			<trkpt lat="54.418380" lon="20.614340"><ele>52.0</ele><time>2026-07-14T13:48:25Z</time></trkpt>
			<trkpt lat="54.417910" lon="20.615480"><ele>52.6</ele><time>2026-07-14T13:48:34Z</time></trkpt>
			<trkpt lat="54.417220" lon="20.616550"><ele>53.3</ele><time>2026-07-14T13:48:43Z</time></trkpt>
			<trkpt lat="54.416480" lon="20.617750"><ele>54.4</ele><time>2026-07-14T13:48:51Z</time></trkpt>
			<trkpt lat="54.412360" lon="20.624430"><ele>54.0</ele><time>2026-07-14T13:49:00Z</time></trkpt>
			<trkpt lat="54.411880" lon="20.625350"><ele>55.6</ele><time>2026-07-14T13:49:09Z</time></trkpt>
			<trkpt lat="54.410260" lon="20.631890"><ele>58.0</ele><time>2026-07-14T13:49:18Z</time></trkpt>
			<trkpt lat="54.408600" lon="20.638410"><ele>57.8</ele><time>2026-07-14T13:49:27Z</time></trkpt>
			<trkpt lat="54.408200" lon="20.640060"><ele>57.4</ele><time>2026-07-14T13:49:36Z</time></trkpt>
			<trkpt lat="54.408200" lon="20.640370"><ele>57.9</ele><time>2026-07-14T13:49:45Z</time></trkpt>
			<trkpt lat="54.408390" lon="20.642250"><ele>61.3</ele><time>2026-07-14T13:49:54Z</time></trkpt>
			<trkpt lat="54.408450" lon="20.642810"><ele>61.7</ele><time>2026-07-14T13:50:03Z</time></trkpt>
			<trkpt lat="54.408530" lon="20.643510"><ele>62.2</ele><time>2026-07-14T13:50:12Z</time></trkpt>
			<trkpt lat="54.408560" lon="20.644720"><ele>63.7</ele><time>2026-07-14T13:50:21Z</time></trkpt>
			<trkpt lat="54.408560" lon="20.645940"><ele>62.4</ele><time>2026-07-14T13:50:30Z</time></trkpt>
			<trkpt lat="54.408560" lon="20.646950"><ele>62.1</ele><time>2026-07-14T13:50:39Z</time></trkpt>
			<trkpt lat="54.408490" lon="20.647160"><ele>62.0</ele><time>2026-07-14T13:50:48Z</time></trkpt>
			<trkpt lat="54.408340" lon="20.647360"><ele>62.3</ele><time>2026-07-14T13:50:57Z</time></trkpt>
			<trkpt lat="54.406790" lon="20.647050"><ele>63.9</ele><time>2026-07-14T13:51:05Z</time></trkpt>
			<trkpt lat="54.406000" lon="20.646910"><ele>62.9</ele><time>2026-07-14T13:51:14Z</time></trkpt>
			<trkpt lat="54.404420" lon="20.646570"><ele>63.5</ele><time>2026-07-14T13:51:23Z</time></trkpt>
			<trkpt lat="54.403830" lon="20.646450"><ele>64.1</ele><time>2026-07-14T13:51:32Z</time></trkpt>
			<trkpt lat="54.402840" lon="20.646230"><ele>63.6</ele><time>2026-07-14T13:51:41Z</time></trkpt>
			<trkpt lat="54.402420" lon="20.646140"><ele>62.9</ele><time>2026-07-14T13:51:50Z</time></trkpt>
			<trkpt lat="54.402260" lon="20.646100"><ele>63.3</ele><time>2026-07-14T13:51:59Z</time></trkpt>
			<trkpt lat="54.400440" lon="20.645730"><ele>63.4</ele><time>2026-07-14T13:52:08Z</time></trkpt>
			<trkpt lat="54.400160" lon="20.645690"><ele>63.0</ele><time>2026-07-14T13:52:17Z</time></trkpt>
			<trkpt lat="54.399880" lon="20.645630"><ele>62.7</ele><time>2026-07-14T13:52:26Z</time></trkpt>
			<trkpt lat="54.399500" lon="20.645550"><ele>62.4</ele><time>2026-07-14T13:52:35Z</time></trkpt>
			<trkpt lat="54.398890" lon="20.645420"><ele>62.3</ele><time>2026-07-14T13:52:44Z</time></trkpt>
			<trkpt lat="54.397010" lon="20.645060"><ele>63.2</ele><time>2026-07-14T13:52:53Z</time></trkpt>
			<trkpt lat="54.396980" lon="20.645060"><ele>63.3</ele><time>2026-07-14T13:53:02Z</time></trkpt>
			<trkpt lat="54.396550" lon="20.644980"><ele>64.2</ele><time>2026-07-14T13:53:11Z</time></trkpt>
			<trkpt lat="54.394420" lon="20.644570"><ele>68.8</ele><time>2026-07-14T13:53:19Z</time></trkpt>
			<trkpt lat="54.391690" lon="20.644010"><ele>70.5</ele><time>2026-07-14T13:53:28Z</time></trkpt>
			<trkpt lat="54.391350" lon="20.643700"><ele>69.3</ele><time>2026-07-14T13:53:37Z</time></trkpt>
			<trkpt lat="54.390980" lon="20.643290"><ele>68.6</ele><time>2026-07-14T13:53:46Z</time></trkpt>
			<trkpt lat="54.390750" lon="20.643000"><ele>68.4</ele><time>2026-07-14T13:53:55Z</time></trkpt>
			<trkpt lat="54.390680" lon="20.642920"><ele>68.3</ele><time>2026-07-14T13:54:04Z</time></trkpt>
			<trkpt lat="54.389800" lon="20.641810"><ele>67.8</ele><time>2026-07-14T13:54:13Z</time></trkpt>
			<trkpt lat="54.389430" lon="20.641430"><ele>68.9</ele><time>2026-07-14T13:54:22Z</time></trkpt>
			<trkpt lat="54.389210" lon="20.641230"><ele>69.8</ele><time>2026-07-14T13:54:31Z</time></trkpt>
			<trkpt lat="54.388820" lon="20.641010"><ele>71.7</ele><time>2026-07-14T13:54:40Z</time></trkpt>
			<trkpt lat="54.388440" lon="20.640870"><ele>74.1</ele><time>2026-07-14T13:54:49Z</time></trkpt>
			<trkpt lat="54.387060" lon="20.640150"><ele>78.7</ele><time>2026-07-14T13:54:58Z</time></trkpt>
			<trkpt lat="54.386800" lon="20.639980"><ele>79.9</ele><time>2026-07-14T13:55:07Z</time></trkpt>
			<trkpt lat="54.386750" lon="20.639910"><ele>80.1</ele><time>2026-07-14T13:55:16Z</time></trkpt>
			<trkpt lat="54.386750" lon="20.639910"><ele>80.1</ele><time>2026-07-14T13:55:19Z</time></trkpt>
			<trkpt lat="54.386730" lon="20.639890"><ele>80.2</ele><time>2026-07-14T13:55:22Z</time></trkpt>
			<trkpt lat="54.386570" lon="20.639660"><ele>80.4</ele><time>2026-07-14T13:55:25Z</time></trkpt>
			<trkpt lat="54.386220" lon="20.640650"><ele>77.7</ele><time>2026-07-14T13:55:28Z</time></trkpt>
			<trkpt lat="54.386320" lon="20.640840"><ele>77.5</ele><time>2026-07-14T13:55:32Z</time></trkpt>
			<trkpt lat="54.386430" lon="20.641100"><ele>77.3</ele><time>2026-07-14T13:55:35Z</time></trkpt>
			<trkpt lat="54.386430" lon="20.641100"><ele>77.3</ele><time>2026-07-14T13:55:40Z</time></trkpt>
			<trkpt lat="54.386800" lon="20.641960"><ele>74.8</ele><time>2026-07-14T13:55:44Z</time></trkpt>
			<trkpt lat="54.387010" lon="20.642480"><ele>72.8</ele><time>2026-07-14T13:55:49Z</time></trkpt>
			<trkpt lat="54.387130" lon="20.642810"><ele>72.1</ele><time>2026-07-14T13:55:54Z</time></trkpt>
			<trkpt lat="54.387160" lon="20.642950"><ele>72.0</ele><time>2026-07-14T13:55:59Z</time></trkpt>
			<trkpt lat="54.387190" lon="20.643150"><ele>71.8</ele><time>2026-07-14T13:56:04Z</time></trkpt>
			<trkpt lat="54.387240" lon="20.643680"><ele>71.7</ele><time>2026-07-14T13:56:09Z</time></trkpt>
			<trkpt lat="54.387290" lon="20.644040"><ele>72.0</ele><time>2026-07-14T13:56:13Z</time></trkpt>
			<trkpt lat="54.387310" lon="20.644160"><ele>72.2</ele><time>2026-07-14T13:56:18Z</time></trkpt>
			<trkpt lat="54.387340" lon="20.644310"><ele>72.4</ele><time>2026-07-14T13:56:23Z</time></trkpt>
			<trkpt lat="54.387440" lon="20.644620"><ele>73.5</ele><time>2026-07-14T13:56:28Z</time></trkpt>
			<trkpt lat="54.387880" lon="20.645780"><ele>76.3</ele><time>2026-07-14T13:56:33Z</time></trkpt>
			<trkpt lat="54.388230" lon="20.646680"><ele>76.1</ele><time>2026-07-14T13:56:38Z</time></trkpt>
			<trkpt lat="54.388270" lon="20.646830"><ele>76.0</ele><time>2026-07-14T13:56:42Z</time></trkpt>
			<trkpt lat="54.388270" lon="20.647470"><ele>75.2</ele><time>2026-07-14T13:56:47Z</time></trkpt>
			<trkpt lat="54.388270" lon="20.648040"><ele>74.4</ele><time>2026-07-14T13:56:52Z</time></trkpt>
			<trkpt lat="54.388220" lon="20.648280"><ele>74.1</ele><time>2026-07-14T13:56:57Z</time></trkpt>
			<trkpt lat="54.387660" lon="20.651250"><ele>71.8</ele><time>2026-07-14T13:57:02Z</time></trkpt>
			<trkpt lat="54.387660" lon="20.651250"><ele>71.8</ele><time>2026-07-14T13:57:08Z</time></trkpt>
			<trkpt lat="54.387520" lon="20.651990"><ele>72.4</ele><time>2026-07-14T13:57:15Z</time></trkpt>
			<trkpt lat="54.387250" lon="20.653610"><ele>72.8</ele><time>2026-07-14T13:57:22Z</time></trkpt>
			<trkpt lat="54.387010" lon="20.654890"><ele>73.9</ele><time>2026-07-14T13:57:29Z</time></trkpt>
			<trkpt lat="54.386900" lon="20.655460"><ele>74.5</ele><time>2026-07-14T13:57:36Z</time></trkpt>
			<trkpt lat="54.385800" lon="20.659660"><ele>75.1</ele><time>2026-07-14T13:57:43Z</time></trkpt>
			<trkpt lat="54.385640" lon="20.660340"><ele>76.2</ele><time>2026-07-14T13:57:50Z</time></trkpt>
			<trkpt lat="54.385590" lon="20.660750"><ele>76.4</ele><time>2026-07-14T13:57:56Z</time></trkpt>
			<trkpt lat="54.385550" lon="20.661200"><ele>76.2</ele><time>2026-07-14T13:58:03Z</time></trkpt>
			<trkpt lat="54.385500" lon="20.662740"><ele>75.6</ele><time>2026-07-14T13:58:10Z</time></trkpt>
			<trkpt lat="54.385480" lon="20.663620"><ele>75.7</ele><time>2026-07-14T13:58:17Z</time></trkpt>
			<trkpt lat="54.385460" lon="20.664470"><ele>76.2</ele><time>2026-07-14T13:58:24Z</time></trkpt>
			<trkpt lat="54.385450" lon="20.664900"><ele>76.0</ele><time>2026-07-14T13:58:31Z</time></trkpt>
			<trkpt lat="54.385450" lon="20.665000"><ele>75.9</ele><time>2026-07-14T13:58:38Z</time></trkpt>
			<trkpt lat="54.385420" lon="20.665870"><ele>75.0</ele><time>2026-07-14T13:58:44Z</time></trkpt>
			<trkpt lat="54.385390" lon="20.666740"><ele>75.3</ele><time>2026-07-14T13:58:51Z</time></trkpt>
			<trkpt lat="54.385380" lon="20.667250"><ele>76.0</ele><time>2026-07-14T13:58:58Z</time></trkpt>
			<trkpt lat="54.385330" lon="20.669210"><ele>76.8</ele><time>2026-07-14T13:59:05Z</time></trkpt>
			<trkpt lat="54.385270" lon="20.671180"><ele>75.5</ele><time>2026-07-14T13:59:12Z</time></trkpt>
			<trkpt lat="54.385260" lon="20.672000"><ele>75.4</ele><time>2026-07-14T13:59:19Z</time></trkpt>
			<trkpt lat="54.385060" lon="20.677560"><ele>79.3</ele><time>2026-07-14T13:59:25Z</time></trkpt>
			<trkpt lat="54.384880" lon="20.685520"><ele>70.3</ele><time>2026-07-14T13:59:32Z</time></trkpt>
			<trkpt lat="54.384700" lon="20.687070"><ele>69.2</ele><time>2026-07-14T13:59:39Z</time></trkpt>
			<trkpt lat="54.384280" lon="20.687810"><ele>68.6</ele><time>2026-07-14T13:59:46Z</time></trkpt>
			<trkpt lat="54.383840" lon="20.688400"><ele>68.3</ele><time>2026-07-14T13:59:53Z</time></trkpt>
			<trkpt lat="54.383350" lon="20.689310"><ele>68.0</ele><time>2026-07-14T14:00:00Z</time></trkpt>
			<trkpt lat="54.383120" lon="20.690520"><ele>68.9</ele><time>2026-07-14T14:00:07Z</time></trkpt>
			<trkpt lat="54.383130" lon="20.691620"><ele>69.9</ele><time>2026-07-14T14:00:13Z</time></trkpt>
			<trkpt lat="54.383450" lon="20.692800"><ele>69.3</ele><time>2026-07-14T14:00:20Z</time></trkpt>
			<trkpt lat="54.383760" lon="20.694210"><ele>68.4</ele><time>2026-07-14T14:00:27Z</time></trkpt>
			<trkpt lat="54.383740" lon="20.695480"><ele>67.6</ele><time>2026-07-14T14:00:34Z</time></trkpt>
			<trkpt lat="54.382960" lon="20.702540"><ele>66.1</ele><time>2026-07-14T14:00:41Z</time></trkpt>
			<trkpt lat="54.382760" lon="20.704600"><ele>67.0</ele><time>2026-07-14T14:00:48Z</time></trkpt>
			<trkpt lat="54.381890" lon="20.709830"><ele>67.5</ele><time>2026-07-14T14:00:55Z</time></trkpt>
			<trkpt lat="54.380960" lon="20.714730"><ele>63.9</ele><time>2026-07-14T14:01:01Z</time></trkpt>
			<trkpt lat="54.380820" lon="20.715760"><ele>64.0</ele><time>2026-07-14T14:01:08Z</time></trkpt>
			<trkpt lat="54.380780" lon="20.716030"><ele>64.2</ele><time>2026-07-14T14:01:15Z</time></trkpt>
			<trkpt lat="54.380810" lon="20.717020"><ele>65.4</ele><time>2026-07-14T14:01:22Z</time></trkpt>
			<trkpt lat="54.380900" lon="20.718340"><ele>64.8</ele><time>2026-07-14T14:01:29Z</time></trkpt>
			<trkpt lat="54.380730" lon="20.721230"><ele>60.8</ele><time>2026-07-14T14:01:36Z</time></trkpt>
			<trkpt lat="54.380690" lon="20.722330"><ele>62.4</ele><time>2026-07-14T14:01:42Z</time></trkpt>
			<trkpt lat="54.380840" lon="20.723230"><ele>63.0</ele><time>2026-07-14T14:01:49Z</time></trkpt>
			<trkpt lat="54.380950" lon="20.723930"><ele>63.4</ele><time>2026-07-14T14:01:56Z</time></trkpt>
			<trkpt lat="54.381060" lon="20.724660"><ele>63.9</ele><time>2026-07-14T14:02:03Z</time></trkpt>
			<trkpt lat="54.381110" lon="20.725450"><ele>63.7</ele><time>2026-07-14T14:02:10Z</time></trkpt>
			<trkpt lat="54.381010" lon="20.729010"><ele>62.6</ele><time>2026-07-14T14:02:17Z</time></trkpt>
			<trkpt lat="54.381090" lon="20.730000"><ele>63.6</ele><time>2026-07-14T14:02:24Z</time></trkpt>
			<trkpt lat="54.384140" lon="20.744980"><ele>75.1</ele><time>2026-07-14T14:02:30Z</time></trkpt>
			<trkpt lat="54.384450" lon="20.746160"><ele>76.2</ele><time>2026-07-14T14:02:37Z</time></trkpt>
			<trkpt lat="54.384900" lon="20.746950"><ele>75.2</ele><time>2026-07-14T14:02:44Z</time></trkpt>
			<trkpt lat="54.386530" lon="20.750060"><ele>73.0</ele><time>2026-07-14T14:02:51Z</time></trkpt>
			<trkpt lat="54.387730" lon="20.752360"><ele>74.5</ele><time>2026-07-14T14:02:58Z</time></trkpt>
			<trkpt lat="54.388520" lon="20.753980"><ele>75.0</ele><time>2026-07-14T14:03:05Z</time></trkpt>
			<trkpt lat="54.388860" lon="20.755260"><ele>72.6</ele><time>2026-07-14T14:03:12Z</time></trkpt>
			<trkpt lat="54.388890" lon="20.756660"><ele>75.4</ele><time>2026-07-14T14:03:18Z</time></trkpt>
			<trkpt lat="54.389610" lon="20.774630"><ele>88.1</ele><time>2026-07-14T14:03:25Z</time></trkpt>
			<trkpt lat="54.389640" lon="20.775840"><ele>90.7</ele><time>2026-07-14T14:03:32Z</time></trkpt>
			<trkpt lat="54.389830" lon="20.778810"><ele>96.4</ele><time>2026-07-14T14:03:39Z</time></trkpt>
			<trkpt lat="54.390080" lon="20.780970"><ele>96.3</ele><time>2026-07-14T14:03:46Z</time></trkpt>
			<trkpt lat="54.390270" lon="20.782000"><ele>97.9</ele><time>2026-07-14T14:03:53Z</time></trkpt>
			<trkpt lat="54.390440" lon="20.782350"><ele>97.9</ele><time>2026-07-14T14:04:00Z</time></trkpt>
			<trkpt lat="54.391440" lon="20.782740"><ele>95.4</ele><time>2026-07-14T14:04:06Z</time></trkpt>
			<trkpt lat="54.396030" lon="20.785030"><ele>99.0</ele><time>2026-07-14T14:04:13Z</time></trkpt>
			<trkpt lat="54.396480" lon="20.785240"><ele>98.9</ele><time>2026-07-14T14:04:20Z</time></trkpt>
			<trkpt lat="54.397540" lon="20.785740"><ele>97.0</ele><time>2026-07-14T14:04:27Z</time></trkpt>
			<trkpt lat="54.398390" lon="20.786330"><ele>96.1</ele><time>2026-07-14T14:04:34Z</time></trkpt>
			<trkpt lat="54.398920" lon="20.786850"><ele>97.0</ele><time>2026-07-14T14:04:41Z</time></trkpt>
			<trkpt lat="54.401380" lon="20.789820"><ele>101.6</ele><time>2026-07-14T14:04:47Z</time></trkpt>
			<trkpt lat="54.401820" lon="20.790500"><ele>101.2</ele><time>2026-07-14T14:04:54Z</time></trkpt>
			<trkpt lat="54.401900" lon="20.790610"><ele>100.8</ele><time>2026-07-14T14:05:01Z</time></trkpt>
			<trkpt lat="54.402140" lon="20.791350"><ele>100.5</ele><time>2026-07-14T14:05:08Z</time></trkpt>
			<trkpt lat="54.402430" lon="20.792750"><ele>99.2</ele><time>2026-07-14T14:05:15Z</time></trkpt>
			<trkpt lat="54.402840" lon="20.794250"><ele>96.3</ele><time>2026-07-14T14:05:22Z</time></trkpt>
			<trkpt lat="54.403160" lon="20.795700"><ele>94.5</ele><time>2026-07-14T14:05:29Z</time></trkpt>
			<trkpt lat="54.403470" lon="20.797520"><ele>94.3</ele><time>2026-07-14T14:05:35Z</time></trkpt>
			<trkpt lat="54.404550" lon="20.804110"><ele>89.9</ele><time>2026-07-14T14:05:42Z</time></trkpt>
			<trkpt lat="54.404930" lon="20.804710"><ele>88.1</ele><time>2026-07-14T14:05:49Z</time></trkpt>
			<trkpt lat="54.405730" lon="20.805710"><ele>89.5</ele><time>2026-07-14T14:05:56Z</time></trkpt>
			<trkpt lat="54.410430" lon="20.811510"><ele>89.9</ele><time>2026-07-14T14:06:03Z</time></trkpt>
			<trkpt lat="54.410570" lon="20.811690"><ele>89.9</ele><time>2026-07-14T14:06:10Z</time></trkpt>
			<trkpt lat="54.411170" lon="20.812110"><ele>89.7</ele><time>2026-07-14T14:06:17Z</time></trkpt>
			<trkpt lat="54.412790" lon="20.812900"><ele>87.7</ele><time>2026-07-14T14:06:23Z</time></trkpt>
			<trkpt lat="54.414410" lon="20.813880"><ele>85.4</ele><time>2026-07-14T14:06:30Z</time></trkpt>
			<trkpt lat="54.417580" lon="20.816480"><ele>78.7</ele><time>2026-07-14T14:06:37Z</time></trkpt>
			<trkpt lat="54.419390" lon="20.817980"><ele>76.2</ele><time>2026-07-14T14:06:44Z</time></trkpt>
			<trkpt lat="54.421620" lon="20.819810"><ele>76.8</ele><time>2026-07-14T14:06:51Z</time></trkpt>
			<trkpt lat="54.421650" lon="20.819910"><ele>76.8</ele><time>2026-07-14T14:06:58Z</time></trkpt>
			<trkpt lat="54.421800" lon="20.820370"><ele>77.7</ele><time>2026-07-14T14:07:04Z</time></trkpt>
			<trkpt lat="54.422070" lon="20.821680"><ele>79.0</ele><time>2026-07-14T14:07:11Z</time></trkpt>
			<trkpt lat="54.422500" lon="20.822590"><ele>80.5</ele><time>2026-07-14T14:07:18Z</time></trkpt>
			<trkpt lat="54.422870" lon="20.823120"><ele>78.4</ele><time>2026-07-14T14:07:25Z</time></trkpt>
			<trkpt lat="54.423060" lon="20.823340"><ele>77.6</ele><time>2026-07-14T14:07:32Z</time></trkpt>
			<trkpt lat="54.423790" lon="20.824080"><ele>75.8</ele><time>2026-07-14T14:07:39Z</time></trkpt>
			<trkpt lat="54.423910" lon="20.824420"><ele>75.7</ele><time>2026-07-14T14:07:46Z</time></trkpt>
			<trkpt lat="54.423970" lon="20.824730"><ele>75.4</ele><time>2026-07-14T14:07:52Z</time></trkpt>
			<trkpt lat="54.423990" lon="20.825020"><ele>75.2</ele><time>2026-07-14T14:07:59Z</time></trkpt>
			<trkpt lat="54.423990" lon="20.825230"><ele>75.1</ele><time>2026-07-14T14:08:06Z</time></trkpt>
			<trkpt lat="54.423960" lon="20.825440"><ele>75.0</ele><time>2026-07-14T14:08:13Z</time></trkpt>
			<trkpt lat="54.423840" lon="20.825830"><ele>74.7</ele><time>2026-07-14T14:08:20Z</time></trkpt>
			<trkpt lat="54.423700" lon="20.826140"><ele>74.3</ele><time>2026-07-14T14:08:27Z</time></trkpt>
			<trkpt lat="54.423640" lon="20.826350"><ele>74.4</ele><time>2026-07-14T14:08:34Z</time></trkpt>
			<trkpt lat="54.423660" lon="20.826520"><ele>74.4</ele><time>2026-07-14T14:08:40Z</time></trkpt>
			<trkpt lat="54.423740" lon="20.826900"><ele>74.7</ele><time>2026-07-14T14:08:47Z</time></trkpt>
			<trkpt lat="54.423790" lon="20.827120"><ele>75.1</ele><time>2026-07-14T14:08:54Z</time></trkpt>
			<trkpt lat="54.423920" lon="20.827750"><ele>76.0</ele><time>2026-07-14T14:09:01Z</time></trkpt>
			<trkpt lat="54.423770" lon="20.827950"><ele>76.0</ele><time>2026-07-14T14:09:08Z</time></trkpt>
			<trkpt lat="54.423600" lon="20.828190"><ele>75.9</ele><time>2026-07-14T14:09:15Z</time></trkpt>
			<trkpt lat="54.423440" lon="20.828590"><ele>76.2</ele><time>2026-07-14T14:09:21Z</time></trkpt>
			<trkpt lat="54.423380" lon="20.829280"><ele>77.5</ele><time>2026-07-14T14:09:28Z</time></trkpt>
			<trkpt lat="54.423340" lon="20.830420"><ele>78.1</ele><time>2026-07-14T14:09:35Z</time></trkpt>
			<trkpt lat="54.423360" lon="20.831100"><ele>75.3</ele><time>2026-07-14T14:09:42Z</time></trkpt>
			<trkpt lat="54.423340" lon="20.831490"><ele>73.6</ele><time>2026-07-14T14:09:49Z</time></trkpt>
			<trkpt lat="54.423300" lon="20.831710"><ele>72.6</ele><time>2026-07-14T14:09:56Z</time></trkpt>
			<trkpt lat="54.423200" lon="20.831910"><ele>72.0</ele><time>2026-07-14T14:10:03Z</time></trkpt>
			<trkpt lat="54.423040" lon="20.832130"><ele>72.3</ele><time>2026-07-14T14:10:09Z</time></trkpt>
			<trkpt lat="54.422500" lon="20.832430"><ele>74.1</ele><time>2026-07-14T14:10:16Z</time></trkpt>
			<trkpt lat="54.422010" lon="20.832560"><ele>76.7</ele><time>2026-07-14T14:10:23Z</time></trkpt>
			<trkpt lat="54.421670" lon="20.832730"><ele>77.7</ele><time>2026-07-14T14:10:30Z</time></trkpt>
			<trkpt lat="54.421190" lon="20.833270"><ele>76.9</ele><time>2026-07-14T14:10:37Z</time></trkpt>
			<trkpt lat="54.420620" lon="20.834190"><ele>76.1</ele><time>2026-07-14T14:10:44Z</time></trkpt>
			<trkpt lat="54.419610" lon="20.836010"><ele>74.5</ele><time>2026-07-14T14:10:51Z</time></trkpt>
			<trkpt lat="54.417710" lon="20.839060"><ele>74.0</ele><time>2026-07-14T14:10:57Z</time></trkpt>
			<trkpt lat="54.416860" lon="20.840280"><ele>70.8</ele><time>2026-07-14T14:11:04Z</time></trkpt>
			<trkpt lat="54.415020" lon="20.842910"><ele>67.1</ele><time>2026-07-14T14:11:11Z</time></trkpt>
			<trkpt lat="54.414340" lon="20.842970"><ele>66.9</ele><time>2026-07-14T14:11:18Z</time></trkpt>
			<trkpt lat="54.414040" lon="20.843000"><ele>67.6</ele><time>2026-07-14T14:11:25Z</time></trkpt>
			<trkpt lat="54.413870" lon="20.843400"><ele>69.9</ele><time>2026-07-14T14:11:32Z</time></trkpt>
			<trkpt lat="54.412750" lon="20.846150"><ele>79.4</ele><time>2026-07-14T14:11:38Z</time></trkpt>
			<trkpt lat="54.411640" lon="20.849850"><ele>77.2</ele><time>2026-07-14T14:11:45Z</time></trkpt>
			<trkpt lat="54.411530" lon="20.850230"><ele>77.1</ele><time>2026-07-14T14:11:52Z</time></trkpt>
			<trkpt lat="54.410300" lon="20.855460"><ele>67.9</ele><time>2026-07-14T14:11:59Z</time></trkpt>
			<trkpt lat="54.409320" lon="20.860030"><ele>65.1</ele><time>2026-07-14T14:12:06Z</time></trkpt>
			<trkpt lat="54.409010" lon="20.862660"><ele>62.5</ele><time>2026-07-14T14:12:13Z</time></trkpt>
			<trkpt lat="54.408780" lon="20.864820"><ele>60.7</ele><time>2026-07-14T14:12:20Z</time></trkpt>
			<trkpt lat="54.408060" lon="20.871460"><ele>52.6</ele><time>2026-07-14T14:12:26Z</time></trkpt>
			<trkpt lat="54.407570" lon="20.875940"><ele>48.8</ele><time>2026-07-14T14:12:33Z</time></trkpt>
			<trkpt lat="54.407170" lon="20.879140"><ele>50.6</ele><time>2026-07-14T14:12:40Z</time></trkpt>
			<trkpt lat="54.407270" lon="20.889110"><ele>49.9</ele><time>2026-07-14T14:12:47Z</time></trkpt>
			<trkpt lat="54.407280" lon="20.891190"><ele>48.0</ele><time>2026-07-14T14:12:54Z</time></trkpt>
			<trkpt lat="54.407290" lon="20.893320"><ele>43.2</ele><time>2026-07-14T14:13:01Z</time></trkpt>
			<trkpt lat="54.407350" lon="20.903950"><ele>41.6</ele><time>2026-07-14T14:13:08Z</time></trkpt>
			<trkpt lat="54.407410" lon="20.907440"><ele>39.0</ele><time>2026-07-14T14:13:14Z</time></trkpt>
			<trkpt lat="54.407530" lon="20.914650"><ele>36.0</ele><time>2026-07-14T14:13:21Z</time></trkpt>
			<trkpt lat="54.407580" lon="20.915550"><ele>34.7</ele><time>2026-07-14T14:13:28Z</time></trkpt>
			<trkpt lat="54.407700" lon="20.916340"><ele>33.2</ele><time>2026-07-14T14:13:35Z</time></trkpt>
			<trkpt lat="54.407760" lon="20.916950"><ele>32.2</ele><time>2026-07-14T14:13:42Z</time></trkpt>
			<trkpt lat="54.407770" lon="20.917350"><ele>31.7</ele><time>2026-07-14T14:13:49Z</time></trkpt>
			<trkpt lat="54.407740" lon="20.917710"><ele>31.3</ele><time>2026-07-14T14:13:55Z</time></trkpt>
			<trkpt lat="54.407140" lon="20.922770"><ele>38.0</ele><time>2026-07-14T14:14:02Z</time></trkpt>
			<trkpt lat="54.406780" lon="20.925640"><ele>42.4</ele><time>2026-07-14T14:14:09Z</time></trkpt>
			<trkpt lat="54.406380" lon="20.928930"><ele>42.9</ele><time>2026-07-14T14:14:16Z</time></trkpt>
			<trkpt lat="54.406040" lon="20.931660"><ele>41.6</ele><time>2026-07-14T14:14:23Z</time></trkpt>
			<trkpt lat="54.405950" lon="20.932390"><ele>41.9</ele><time>2026-07-14T14:14:30Z</time></trkpt>
			<trkpt lat="54.406000" lon="20.933030"><ele>42.4</ele><time>2026-07-14T14:14:37Z</time></trkpt>
			<trkpt lat="54.406170" lon="20.933540"><ele>43.1</ele><time>2026-07-14T14:14:43Z</time></trkpt>
			<trkpt lat="54.406180" lon="20.933570"><ele>43.1</ele><time>2026-07-14T14:14:50Z</time></trkpt>
			<trkpt lat="54.406420" lon="20.933930"><ele>43.4</ele><time>2026-07-14T14:14:57Z</time></trkpt>
			<trkpt lat="54.406740" lon="20.934100"><ele>42.8</ele><time>2026-07-14T14:15:04Z</time></trkpt>
			<trkpt lat="54.407990" lon="20.934640"><ele>40.4</ele><time>2026-07-14T14:15:11Z</time></trkpt>
			<trkpt lat="54.412070" lon="20.936710"><ele>39.0</ele><time>2026-07-14T14:15:18Z</time></trkpt>
			<trkpt lat="54.413710" lon="20.937900"><ele>37.8</ele><time>2026-07-14T14:15:25Z</time></trkpt>
			<trkpt lat="54.416210" lon="20.939610"><ele>39.4</ele><time>2026-07-14T14:15:31Z</time></trkpt>
			<trkpt lat="54.418410" lon="20.941180"><ele>35.4</ele><time>2026-07-14T14:15:38Z</time></trkpt>
			<trkpt lat="54.418870" lon="20.941500"><ele>36.3</ele><time>2026-07-14T14:15:45Z</time></trkpt>
			<trkpt lat="54.420840" lon="20.942950"><ele>37.0</ele><time>2026-07-14T14:15:52Z</time></trkpt>
			<trkpt lat="54.421440" lon="20.943410"><ele>36.6</ele><time>2026-07-14T14:15:59Z</time></trkpt>
			<trkpt lat="54.421720" lon="20.943770"><ele>36.4</ele><time>2026-07-14T14:16:06Z</time></trkpt>
			<trkpt lat="54.421900" lon="20.944210"><ele>36.3</ele><time>2026-07-14T14:16:12Z</time></trkpt>
			<trkpt lat="54.422220" lon="20.945140"><ele>35.8</ele><time>2026-07-14T14:16:19Z</time></trkpt>
			<trkpt lat="54.423060" lon="20.947530"><ele>36.1</ele><time>2026-07-14T14:16:26Z</time></trkpt>
			<trkpt lat="54.424110" lon="20.950310"><ele>36.9</ele><time>2026-07-14T14:16:33Z</time></trkpt>
			<trkpt lat="54.424880" lon="20.952550"><ele>34.7</ele><time>2026-07-14T14:16:40Z</time></trkpt>
			<trkpt lat="54.425480" lon="20.953730"><ele>32.0</ele><time>2026-07-14T14:16:47Z</time></trkpt>
			<trkpt lat="54.426350" lon="20.955350"><ele>32.6</ele><time>2026-07-14T14:16:54Z</time></trkpt>
			<trkpt lat="54.426930" lon="20.956510"><ele>34.4</ele><time>2026-07-14T14:17:00Z</time></trkpt>
			<trkpt lat="54.427450" lon="20.957460"><ele>35.8</ele><time>2026-07-14T14:17:07Z</time></trkpt>
			<trkpt lat="54.428700" lon="20.958890"><ele>37.3</ele><time>2026-07-14T14:17:14Z</time></trkpt>
			<trkpt lat="54.431690" lon="20.962250"><ele>28.6</ele><time>2026-07-14T14:17:21Z</time></trkpt>
			<trkpt lat="54.432100" lon="20.962780"><ele>26.9</ele><time>2026-07-14T14:17:28Z</time></trkpt>
			<trkpt lat="54.432430" lon="20.963440"><ele>26.1</ele><time>2026-07-14T14:17:35Z</time></trkpt>
			<trkpt lat="54.433090" lon="20.964950"><ele>24.5</ele><time>2026-07-14T14:17:42Z</time></trkpt>
			<trkpt lat="54.433530" lon="20.966070"><ele>26.9</ele><time>2026-07-14T14:17:48Z</time></trkpt>
			<trkpt lat="54.433790" lon="20.966960"><ele>27.3</ele><time>2026-07-14T14:17:55Z</time></trkpt>
			<trkpt lat="54.434140" lon="20.968650"><ele>25.9</ele><time>2026-07-14T14:18:02Z</time></trkpt>
			<trkpt lat="54.434390" lon="20.969490"><ele>27.6</ele><time>2026-07-14T14:18:09Z</time></trkpt>
			<trkpt lat="54.435070" lon="20.971420"><ele>31.9</ele><time>2026-07-14T14:18:16Z</time></trkpt>
			<trkpt lat="54.435480" lon="20.972710"><ele>31.7</ele><time>2026-07-14T14:18:23Z</time></trkpt>
			<trkpt lat="54.435530" lon="20.972870"><ele>31.8</ele><time>2026-07-14T14:18:29Z</time></trkpt>
			<trkpt lat="54.435530" lon="20.972870"><ele>31.8</ele><time>2026-07-14T14:18:36Z</time></trkpt>
			<trkpt lat="54.436620" lon="20.975920"><ele>30.2</ele><time>2026-07-14T14:18:42Z</time></trkpt>
			<trkpt lat="54.438320" lon="20.980740"><ele>31.9</ele><time>2026-07-14T14:18:49Z</time></trkpt>
			<trkpt lat="54.438510" lon="20.981340"><ele>31.7</ele><time>2026-07-14T14:18:55Z</time></trkpt>
			<trkpt lat="54.438650" lon="20.982230"><ele>31.2</ele><time>2026-07-14T14:19:02Z</time></trkpt>
			<trkpt lat="54.438860" lon="20.983310"><ele>32.2</ele><time>2026-07-14T14:19:08Z</time></trkpt>
			<trkpt lat="54.439390" lon="20.985950"><ele>31.6</ele><time>2026-07-14T14:19:15Z</time></trkpt>
			<trkpt lat="54.439490" lon="20.986490"><ele>31.5</ele><time>2026-07-14T14:19:21Z</time></trkpt>
			<trkpt lat="54.439520" lon="20.986650"><ele>31.4</ele><time>2026-07-14T14:19:28Z</time></trkpt>
			<trkpt lat="54.439680" lon="20.987470"><ele>31.0</ele><time>2026-07-14T14:19:34Z</time></trkpt>
			<trkpt lat="54.439900" lon="20.988570"><ele>31.1</ele><time>2026-07-14T14:19:41Z</time></trkpt>
			<trkpt lat="54.439990" lon="20.989030"><ele>31.1</ele><time>2026-07-14T14:19:47Z</time></trkpt>
			<trkpt lat="54.440320" lon="20.990720"><ele>31.9</ele><time>2026-07-14T14:19:54Z</time></trkpt>
			<trkpt lat="54.440920" lon="20.993780"><ele>31.9</ele><time>2026-07-14T14:20:00Z</time></trkpt>
			<trkpt lat="54.441300" lon="20.995710"><ele>31.4</ele><time>2026-07-14T14:20:07Z</time></trkpt>
			<trkpt lat="54.441630" lon="20.997330"><ele>31.0</ele><time>2026-07-14T14:20:13Z</time></trkpt>
			<trkpt lat="54.441630" lon="20.997850"><ele>30.5</ele><time>2026-07-14T14:20:20Z</time></trkpt>
			<trkpt lat="54.441600" lon="20.998570"><ele>30.4</ele><time>2026-07-14T14:20:26Z</time></trkpt>
			<trkpt lat="54.441600" lon="20.998990"><ele>30.7</ele><time>2026-07-14T14:20:33Z</time></trkpt>
			<trkpt lat="54.441620" lon="20.999220"><ele>31.0</ele><time>2026-07-14T14:20:39Z</time></trkpt>
			<trkpt lat="54.441760" lon="20.999380"><ele>31.2</ele><time>2026-07-14T14:20:46Z</time></trkpt>
			<trkpt lat="54.441990" lon="20.999440"><ele>31.5</ele><time>2026-07-14T14:20:52Z</time></trkpt>
			<trkpt lat="54.442120" lon="20.999660"><ele>31.4</ele><time>2026-07-14T14:20:59Z</time></trkpt>
			<trkpt lat="54.442390" lon="21.001050"><ele>31.7</ele><time>2026-07-14T14:21:05Z</time></trkpt>
			<trkpt lat="54.442740" lon="21.002760"><ele>34.1</ele><time>2026-07-14T14:21:11Z</time></trkpt>
			<trkpt lat="54.443050" lon="21.004300"><ele>29.5</ele><time>2026-07-14T14:21:18Z</time></trkpt>
			<trkpt lat="54.443390" lon="21.005890"><ele>26.3</ele><time>2026-07-14T14:21:24Z</time></trkpt>
			<trkpt lat="54.443420" lon="21.006040"><ele>26.5</ele><time>2026-07-14T14:21:31Z</time></trkpt>
			<trkpt lat="54.443950" lon="21.007900"><ele>26.7</ele><time>2026-07-14T14:21:37Z</time></trkpt>
			<trkpt lat="54.444400" lon="21.009340"><ele>28.5</ele><time>2026-07-14T14:21:44Z</time></trkpt>
			<trkpt lat="54.444710" lon="21.010120"><ele>28.2</ele><time>2026-07-14T14:21:50Z</time></trkpt>
			<trkpt lat="54.444940" lon="21.010930"><ele>28.8</ele><time>2026-07-14T14:21:57Z</time></trkpt>
			<trkpt lat="54.445090" lon="21.011530"><ele>29.6</ele><time>2026-07-14T14:22:03Z</time></trkpt>
			<trkpt lat="54.445180" lon="21.011950"><ele>29.7</ele><time>2026-07-14T14:22:10Z</time></trkpt>
			<trkpt lat="54.445460" lon="21.013390"><ele>28.5</ele><time>2026-07-14T14:22:16Z</time></trkpt>
			<trkpt lat="54.445630" lon="21.014250"><ele>28.2</ele><time>2026-07-14T14:22:23Z</time></trkpt>
			<trkpt lat="54.446040" lon="21.016320"><ele>27.0</ele><time>2026-07-14T14:22:29Z</time></trkpt>
			<trkpt lat="54.446010" lon="21.016470"><ele>26.6</ele><time>2026-07-14T14:22:36Z</time></trkpt>
			<trkpt lat="54.446060" lon="21.016910"><ele>26.5</ele><time>2026-07-14T14:22:42Z</time></trkpt>
			<trkpt lat="54.446070" lon="21.017100"><ele>26.6</ele><time>2026-07-14T14:22:49Z</time></trkpt>
			<trkpt lat="54.446050" lon="21.017290"><ele>26.6</ele><time>2026-07-14T14:22:55Z</time></trkpt>
			<trkpt lat="54.445950" lon="21.017490"><ele>26.6</ele><time>2026-07-14T14:23:02Z</time></trkpt>
			<trkpt lat="54.445920" lon="21.017620"><ele>26.6</ele><time>2026-07-14T14:23:08Z</time></trkpt>
			<trkpt lat="54.446000" lon="21.018220"><ele>27.3</ele><time>2026-07-14T14:23:15Z</time></trkpt>
			<trkpt lat="54.446130" lon="21.019140"><ele>25.1</ele><time>2026-07-14T14:23:21Z</time></trkpt>
			<trkpt lat="54.446280" lon="21.020370"><ele>22.6</ele><time>2026-07-14T14:23:28Z</time></trkpt>
			<trkpt lat="54.446320" lon="21.020750"><ele>21.2</ele><time>2026-07-14T14:23:34Z</time></trkpt>
			<trkpt lat="54.446370" lon="21.020920"><ele>20.8</ele><time>2026-07-14T14:23:41Z</time></trkpt>
			<trkpt lat="54.446500" lon="21.021120"><ele>20.2</ele><time>2026-07-14T14:23:47Z</time></trkpt>
			<trkpt lat="54.446840" lon="21.020850"><ele>19.6</ele><time>2026-07-14T14:23:53Z</time></trkpt>
			<trkpt lat="54.447160" lon="21.020590"><ele>19.4</ele><time>2026-07-14T14:24:00Z</time></trkpt>
			<trkpt lat="54.447480" lon="21.020290"><ele>18.8</ele><time>2026-07-14T14:24:06Z</time></trkpt>
			<trkpt lat="54.447820" lon="21.019840"><ele>19.0</ele><time>2026-07-14T14:24:13Z</time></trkpt>
			<trkpt lat="54.448200" lon="21.019170"><ele>19.4</ele><time>2026-07-14T14:24:19Z</time></trkpt>
			<trkpt lat="54.448290" lon="21.019010"><ele>19.4</ele><time>2026-07-14T14:24:26Z</time></trkpt>
			<trkpt lat="54.448470" lon="21.018560"><ele>19.9</ele><time>2026-07-14T14:24:32Z</time></trkpt>
			<trkpt lat="54.448610" lon="21.018170"><ele>20.8</ele><time>2026-07-14T14:24:39Z</time></trkpt>
			<trkpt lat="54.448730" lon="21.017820"><ele>21.7</ele><time>2026-07-14T14:24:45Z</time></trkpt>
			<trkpt lat="54.449330" lon="21.015280"><ele>23.0</ele><time>2026-07-14T14:24:52Z</time></trkpt>
			<trkpt lat="54.450040" lon="21.012410"><ele>24.8</ele><time>2026-07-14T14:24:58Z</time></trkpt>
			<trkpt lat="54.450560" lon="21.010660"><ele>24.8</ele><time>2026-07-14T14:25:05Z</time></trkpt>
			<trkpt lat="54.451020" lon="21.009160"><ele>26.9</ele><time>2026-07-14T14:25:11Z</time></trkpt>
			<trkpt lat="54.451580" lon="21.007310"><ele>28.4</ele><time>2026-07-14T14:25:18Z</time></trkpt>
			<trkpt lat="54.452070" lon="21.005680"><ele>27.8</ele><time>2026-07-14T14:25:24Z</time></trkpt>
			<trkpt lat="54.452410" lon="21.004500"><ele>27.5</ele><time>2026-07-14T14:25:31Z</time></trkpt>
			<trkpt lat="54.452820" lon="21.003180"><ele>26.9</ele><time>2026-07-14T14:25:37Z</time></trkpt>
			<trkpt lat="54.453290" lon="21.001660"><ele>28.7</ele><time>2026-07-14T14:25:44Z</time></trkpt>
			<trkpt lat="54.453440" lon="21.001270"><ele>28.9</ele><time>2026-07-14T14:25:50Z</time></trkpt>
			<trkpt lat="54.453630" lon="21.000860"><ele>28.6</ele><time>2026-07-14T14:25:57Z</time></trkpt>
			<trkpt lat="54.455690" lon="20.997510"><ele>26.2</ele><time>2026-07-14T14:26:03Z</time></trkpt>
			<trkpt lat="54.459000" lon="20.992120"><ele>25.8</ele><time>2026-07-14T14:26:10Z</time></trkpt>
			<trkpt lat="54.459190" lon="20.991710"><ele>25.9</ele><time>2026-07-14T14:26:16Z</time></trkpt>
			<trkpt lat="54.459410" lon="20.991080"><ele>25.6</ele><time>2026-07-14T14:26:23Z</time></trkpt>
			<trkpt lat="54.460480" lon="20.987780"><ele>25.0</ele><time>2026-07-14T14:26:29Z</time></trkpt>
			<trkpt lat="54.460880" lon="20.986120"><ele>25.0</ele><time>2026-07-14T14:26:35Z</time></trkpt>
			<trkpt lat="54.461590" lon="20.983110"><ele>27.0</ele><time>2026-07-14T14:26:42Z</time></trkpt>
			<trkpt lat="54.461590" lon="20.983110"><ele>27.0</ele><time>2026-07-14T14:26:49Z</time></trkpt>
			<trkpt lat="54.461790" lon="20.982240"><ele>27.6</ele><time>2026-07-14T14:26:56Z</time></trkpt>
			<trkpt lat="54.461880" lon="20.981870"><ele>28.3</ele><time>2026-07-14T14:27:02Z</time></trkpt>
			<trkpt lat="54.462230" lon="20.980310"><ele>29.7</ele><time>2026-07-14T14:27:09Z</time></trkpt>
			<trkpt lat="54.462380" lon="20.979760"><ele>29.9</ele><time>2026-07-14T14:27:16Z</time></trkpt>
			<trkpt lat="54.462550" lon="20.979240"><ele>30.1</ele><time>2026-07-14T14:27:23Z</time></trkpt>
			<trkpt lat="54.464060" lon="20.975210"><ele>30.2</ele><time>2026-07-14T14:27:30Z</time></trkpt>
			<trkpt lat="54.464520" lon="20.973990"><ele>30.9</ele><time>2026-07-14T14:27:37Z</time></trkpt>
			<trkpt lat="54.464990" lon="20.972640"><ele>31.0</ele><time>2026-07-14T14:27:43Z</time></trkpt>
			<trkpt lat="54.465180" lon="20.972080"><ele>30.6</ele><time>2026-07-14T14:27:50Z</time></trkpt>
			<trkpt lat="54.465330" lon="20.971750"><ele>30.2</ele><time>2026-07-14T14:27:57Z</time></trkpt>
			<trkpt lat="54.465530" lon="20.971430"><ele>29.6</ele><time>2026-07-14T14:28:04Z</time></trkpt>
			<trkpt lat="54.465840" lon="20.971010"><ele>29.0</ele><time>2026-07-14T14:28:11Z</time></trkpt>
			<trkpt lat="54.466250" lon="20.970560"><ele>28.7</ele><time>2026-07-14T14:28:18Z</time></trkpt>
			<trkpt lat="54.466520" lon="20.970210"><ele>28.8</ele><time>2026-07-14T14:28:24Z</time></trkpt>
			<trkpt lat="54.466710" lon="20.969940"><ele>29.0</ele><time>2026-07-14T14:28:31Z</time></trkpt>
			<trkpt lat="54.466930" lon="20.969570"><ele>29.3</ele><time>2026-07-14T14:28:38Z</time></trkpt>
			<trkpt lat="54.467510" lon="20.968550"><ele>29.2</ele><time>2026-07-14T14:28:45Z</time></trkpt>
			<trkpt lat="54.472060" lon="20.960460"><ele>30.0</ele><time>2026-07-14T14:28:52Z</time></trkpt>
			<trkpt lat="54.473460" lon="20.958020"><ele>30.4</ele><time>2026-07-14T14:28:59Z</time></trkpt>
			<trkpt lat="54.475010" lon="20.955560"><ele>31.2</ele><time>2026-07-14T14:29:05Z</time></trkpt>
			<trkpt lat="54.479600" lon="20.948400"><ele>30.4</ele><time>2026-07-14T14:29:12Z</time></trkpt>
			<trkpt lat="54.481630" lon="20.945250"><ele>29.4</ele><time>2026-07-14T14:29:19Z</time></trkpt>
			<trkpt lat="54.481720" lon="20.945090"><ele>29.1</ele><time>2026-07-14T14:29:26Z</time></trkpt>
			<trkpt lat="54.481760" lon="20.944960"><ele>28.9</ele><time>2026-07-14T14:29:33Z</time></trkpt>
			<trkpt lat="54.481780" lon="20.944830"><ele>28.7</ele><time>2026-07-14T14:29:40Z</time></trkpt>
			<trkpt lat="54.481800" lon="20.944680"><ele>28.5</ele><time>2026-07-14T14:29:46Z</time></trkpt>
			<trkpt lat="54.481800" lon="20.944320"><ele>28.0</ele><time>2026-07-14T14:29:53Z</time></trkpt>
			<trkpt lat="54.481780" lon="20.944110"><ele>27.9</ele><time>2026-07-14T14:30:00Z</time></trkpt>
			<trkpt lat="54.481710" lon="20.943780"><ele>28.0</ele><time>2026-07-14T14:30:07Z</time></trkpt>
			<trkpt lat="54.480910" lon="20.940280"><ele>28.0</ele><time>2026-07-14T14:30:14Z</time></trkpt>
			<trkpt lat="54.479370" lon="20.933550"><ele>29.9</ele><time>2026-07-14T14:30:21Z</time></trkpt>
			<trkpt lat="54.477590" lon="20.925610"><ele>29.8</ele><time>2026-07-14T14:30:27Z</time></trkpt>
			<trkpt lat="54.476340" lon="20.920350"><ele>30.1</ele><time>2026-07-14T14:30:34Z</time></trkpt>
			<trkpt lat="54.475970" lon="20.918740"><ele>29.9</ele><time>2026-07-14T14:30:41Z</time></trkpt>
			<trkpt lat="54.474790" lon="20.906440"><ele>33.7</ele><time>2026-07-14T14:30:48Z</time></trkpt>
			<trkpt lat="54.474490" lon="20.903320"><ele>33.9</ele><time>2026-07-14T14:30:55Z</time></trkpt>
			<trkpt lat="54.474460" lon="20.901760"><ele>35.6</ele><time>2026-07-14T14:31:01Z</time></trkpt>
			<trkpt lat="54.474380" lon="20.884630"><ele>36.1</ele><time>2026-07-14T14:31:08Z</time></trkpt>
			<trkpt lat="54.474360" lon="20.880550"><ele>36.0</ele><time>2026-07-14T14:31:15Z</time></trkpt>
			<trkpt lat="54.474310" lon="20.879570"><ele>36.4</ele><time>2026-07-14T14:31:22Z</time></trkpt>
			<trkpt lat="54.474170" lon="20.876410"><ele>36.7</ele><time>2026-07-14T14:31:29Z</time></trkpt>
			<trkpt lat="54.474080" lon="20.874620"><ele>36.4</ele><time>2026-07-14T14:31:36Z</time></trkpt>
			<trkpt lat="54.474010" lon="20.873050"><ele>38.0</ele><time>2026-07-14T14:31:42Z</time></trkpt>
			<trkpt lat="54.473990" lon="20.872360"><ele>38.6</ele><time>2026-07-14T14:31:49Z</time></trkpt>
			<trkpt lat="54.474010" lon="20.871600"><ele>39.0</ele><time>2026-07-14T14:31:56Z</time></trkpt>
			<trkpt lat="54.474110" lon="20.868990"><ele>37.5</ele><time>2026-07-14T14:32:03Z</time></trkpt>
			<trkpt lat="54.474150" lon="20.868390"><ele>36.2</ele><time>2026-07-14T14:32:10Z</time></trkpt>
			<trkpt lat="54.474220" lon="20.867650"><ele>35.9</ele><time>2026-07-14T14:32:17Z</time></trkpt>
			<trkpt lat="54.474390" lon="20.866970"><ele>35.3</ele><time>2026-07-14T14:32:23Z</time></trkpt>
			<trkpt lat="54.475300" lon="20.863880"><ele>36.7</ele><time>2026-07-14T14:32:30Z</time></trkpt>
			<trkpt lat="54.475630" lon="20.863140"><ele>35.6</ele><time>2026-07-14T14:32:37Z</time></trkpt>
			<trkpt lat="54.477780" lon="20.860630"><ele>34.8</ele><time>2026-07-14T14:32:44Z</time></trkpt>
			<trkpt lat="54.478050" lon="20.860180"><ele>34.9</ele><time>2026-07-14T14:32:51Z</time></trkpt>
			<trkpt lat="54.478290" lon="20.859730"><ele>35.3</ele><time>2026-07-14T14:32:58Z</time></trkpt>
			<trkpt lat="54.478440" lon="20.859300"><ele>35.5</ele><time>2026-07-14T14:33:04Z</time></trkpt>
			<trkpt lat="54.478570" lon="20.858910"><ele>35.6</ele><time>2026-07-14T14:33:11Z</time></trkpt>
			<trkpt lat="54.478670" lon="20.858530"><ele>35.5</ele><time>2026-07-14T14:33:18Z</time></trkpt>
			<trkpt lat="54.478790" lon="20.857940"><ele>35.5</ele><time>2026-07-14T14:33:25Z</time></trkpt>
			<trkpt lat="54.479400" lon="20.853580"><ele>39.1</ele><time>2026-07-14T14:33:32Z</time></trkpt>
			<trkpt lat="54.479930" lon="20.849740"><ele>40.1</ele><time>2026-07-14T14:33:39Z</time></trkpt>
			<trkpt lat="54.480120" lon="20.848310"><ele>39.9</ele><time>2026-07-14T14:33:45Z</time></trkpt>
			<trkpt lat="54.480220" lon="20.847720"><ele>40.3</ele><time>2026-07-14T14:33:52Z</time></trkpt>
			<trkpt lat="54.480360" lon="20.846060"><ele>41.7</ele><time>2026-07-14T14:33:59Z</time></trkpt>
			<trkpt lat="54.480330" lon="20.845670"><ele>41.8</ele><time>2026-07-14T14:34:06Z</time></trkpt>
			<trkpt lat="54.480380" lon="20.845110"><ele>42.0</ele><time>2026-07-14T14:34:13Z</time></trkpt>
			<trkpt lat="54.480870" lon="20.843010"><ele>40.0</ele><time>2026-07-14T14:34:20Z</time></trkpt>
			<trkpt lat="54.480930" lon="20.842390"><ele>39.6</ele><time>2026-07-14T14:34:26Z</time></trkpt>
			<trkpt lat="54.481020" lon="20.841560"><ele>38.7</ele><time>2026-07-14T14:34:33Z</time></trkpt>
			<trkpt lat="54.481250" lon="20.839840"><ele>38.6</ele><time>2026-07-14T14:34:40Z</time></trkpt>
			<trkpt lat="54.481380" lon="20.838930"><ele>39.0</ele><time>2026-07-14T14:34:47Z</time></trkpt>
			<trkpt lat="54.481670" lon="20.837670"><ele>39.7</ele><time>2026-07-14T14:34:54Z</time></trkpt>
			<trkpt lat="54.485440" lon="20.823700"><ele>35.9</ele><time>2026-07-14T14:35:01Z</time></trkpt>
			<trkpt lat="54.485790" lon="20.822520"><ele>35.9</ele><time>2026-07-14T14:35:07Z</time></trkpt>
			<trkpt lat="54.486230" lon="20.821440"><ele>36.0</ele><time>2026-07-14T14:35:14Z</time></trkpt>
			<trkpt lat="54.486750" lon="20.820570"><ele>35.5</ele><time>2026-07-14T14:35:21Z</time></trkpt>
			<trkpt lat="54.487280" lon="20.819810"><ele>35.0</ele><time>2026-07-14T14:35:28Z</time></trkpt>
			<trkpt lat="54.489500" lon="20.816880"><ele>32.7</ele><time>2026-07-14T14:35:35Z</time></trkpt>
			<trkpt lat="54.489860" lon="20.816260"><ele>32.1</ele><time>2026-07-14T14:35:41Z</time></trkpt>
			<trkpt lat="54.490100" lon="20.815590"><ele>32.3</ele><time>2026-07-14T14:35:48Z</time></trkpt>
			<trkpt lat="54.490630" lon="20.813290"><ele>33.0</ele><time>2026-07-14T14:35:55Z</time></trkpt>
			<trkpt lat="54.491050" lon="20.811430"><ele>33.5</ele><time>2026-07-14T14:36:02Z</time></trkpt>
			<trkpt lat="54.491560" lon="20.808940"><ele>33.0</ele><time>2026-07-14T14:36:09Z</time></trkpt>
			<trkpt lat="54.491680" lon="20.808300"><ele>34.0</ele><time>2026-07-14T14:36:16Z</time></trkpt>
			<trkpt lat="54.491730" lon="20.807840"><ele>34.6</ele><time>2026-07-14T14:36:22Z</time></trkpt>
			<trkpt lat="54.491740" lon="20.807200"><ele>34.6</ele><time>2026-07-14T14:36:29Z</time></trkpt>
			<trkpt lat="54.491770" lon="20.806500"><ele>33.8</ele><time>2026-07-14T14:36:36Z</time></trkpt>
			<trkpt lat="54.491810" lon="20.805730"><ele>33.3</ele><time>2026-07-14T14:36:43Z</time></trkpt>
			<trkpt lat="54.491900" lon="20.804480"><ele>34.6</ele><time>2026-07-14T14:36:50Z</time></trkpt>
			<trkpt lat="54.491950" lon="20.803790"><ele>35.0</ele><time>2026-07-14T14:36:57Z</time></trkpt>
			<trkpt lat="54.491960" lon="20.801680"><ele>35.3</ele><time>2026-07-14T14:37:03Z</time></trkpt>
			<trkpt lat="54.491950" lon="20.801400"><ele>35.7</ele><time>2026-07-14T14:37:10Z</time></trkpt>
			<trkpt lat="54.491990" lon="20.800720"><ele>36.3</ele><time>2026-07-14T14:37:17Z</time></trkpt>
			<trkpt lat="54.492280" lon="20.797160"><ele>35.0</ele><time>2026-07-14T14:37:24Z</time></trkpt>
			<trkpt lat="54.492310" lon="20.795970"><ele>35.1</ele><time>2026-07-14T14:37:31Z</time></trkpt>
			<trkpt lat="54.492440" lon="20.790380"><ele>37.4</ele><time>2026-07-14T14:37:38Z</time></trkpt>
			<trkpt lat="54.492460" lon="20.789470"><ele>36.4</ele><time>2026-07-14T14:37:44Z</time></trkpt>
			<trkpt lat="54.492500" lon="20.787550"><ele>36.2</ele><time>2026-07-14T14:37:51Z</time></trkpt>
			<trkpt lat="54.492550" lon="20.785440"><ele>35.9</ele><time>2026-07-14T14:37:58Z</time></trkpt>
			<trkpt lat="54.492630" lon="20.784580"><ele>36.1</ele><time>2026-07-14T14:38:05Z</time></trkpt>
			<trkpt lat="54.492780" lon="20.783880"><ele>36.3</ele><time>2026-07-14T14:38:12Z</time></trkpt>
			<trkpt lat="54.493300" lon="20.781890"><ele>37.7</ele><time>2026-07-14T14:38:19Z</time></trkpt>
			<trkpt lat="54.493760" lon="20.779980"><ele>38.0</ele><time>2026-07-14T14:38:25Z</time></trkpt>
			<trkpt lat="54.494360" lon="20.777200"><ele>37.9</ele><time>2026-07-14T14:38:32Z</time></trkpt>
			<trkpt lat="54.495340" lon="20.772200"><ele>35.2</ele><time>2026-07-14T14:38:39Z</time></trkpt>
			<trkpt lat="54.495470" lon="20.771680"><ele>34.8</ele><time>2026-07-14T14:38:46Z</time></trkpt>
			<trkpt lat="54.495600" lon="20.771310"><ele>34.5</ele><time>2026-07-14T14:38:53Z</time></trkpt>
			<trkpt lat="54.495830" lon="20.770780"><ele>34.4</ele><time>2026-07-14T14:39:00Z</time></trkpt>
			<trkpt lat="54.495980" lon="20.770490"><ele>34.8</ele><time>2026-07-14T14:39:06Z</time></trkpt>
			<trkpt lat="54.496140" lon="20.770210"><ele>35.5</ele><time>2026-07-14T14:39:13Z</time></trkpt>
			<trkpt lat="54.496260" lon="20.770030"><ele>35.9</ele><time>2026-07-14T14:39:20Z</time></trkpt>
			<trkpt lat="54.496580" lon="20.769660"><ele>35.9</ele><time>2026-07-14T14:39:27Z</time></trkpt>
			<trkpt lat="54.496790" lon="20.769510"><ele>35.8</ele><time>2026-07-14T14:39:34Z</time></trkpt>
			<trkpt lat="54.497030" lon="20.769320"><ele>35.6</ele><time>2026-07-14T14:39:41Z</time></trkpt>
			<trkpt lat="54.497260" lon="20.769080"><ele>35.2</ele><time>2026-07-14T14:39:47Z</time></trkpt>
			<trkpt lat="54.497510" lon="20.768780"><ele>34.5</ele><time>2026-07-14T14:39:54Z</time></trkpt>
			<trkpt lat="54.497780" lon="20.768330"><ele>34.1</ele><time>2026-07-14T14:40:01Z</time></trkpt>
			<trkpt lat="54.498420" lon="20.767360"><ele>34.3</ele><time>2026-07-14T14:40:08Z</time></trkpt>
			<trkpt lat="54.498590" lon="20.767050"><ele>33.7</ele><time>2026-07-14T14:40:15Z</time></trkpt>
			<trkpt lat="54.498760" lon="20.766670"><ele>33.0</ele><time>2026-07-14T14:40:22Z</time></trkpt>
			<trkpt lat="54.499040" lon="20.765910"><ele>33.6</ele><time>2026-07-14T14:40:28Z</time></trkpt>
			<trkpt lat="54.499320" lon="20.764640"><ele>33.9</ele><time>2026-07-14T14:40:35Z</time></trkpt>
			<trkpt lat="54.499310" lon="20.764270"><ele>34.0</ele><time>2026-07-14T14:40:42Z</time></trkpt>
			<trkpt lat="54.499210" lon="20.763640"><ele>34.6</ele><time>2026-07-14T14:40:49Z</time></trkpt>
			<trkpt lat="54.499200" lon="20.763180"><ele>35.1</ele><time>2026-07-14T14:40:56Z</time></trkpt>
			<trkpt lat="54.499210" lon="20.762950"><ele>35.3</ele><time>2026-07-14T14:41:02Z</time></trkpt>
			<trkpt lat="54.499390" lon="20.760160"><ele>34.7</ele><time>2026-07-14T14:41:09Z</time></trkpt>
			<trkpt lat="54.499770" lon="20.758020"><ele>32.0</ele><time>2026-07-14T14:41:16Z</time></trkpt>
			<trkpt lat="54.499900" lon="20.757300"><ele>32.0</ele><time>2026-07-14T14:41:23Z</time></trkpt>
			<trkpt lat="54.499950" lon="20.756960"><ele>32.0</ele><time>2026-07-14T14:41:30Z</time></trkpt>
			<trkpt lat="54.500050" lon="20.756500"><ele>31.8</ele><time>2026-07-14T14:41:37Z</time></trkpt>
			<trkpt lat="54.500120" lon="20.756380"><ele>31.7</ele><time>2026-07-14T14:41:43Z</time></trkpt>
			<trkpt lat="54.500270" lon="20.756280"><ele>31.6</ele><time>2026-07-14T14:41:50Z</time></trkpt>
			<trkpt lat="54.501430" lon="20.756270"><ele>31.9</ele><time>2026-07-14T14:41:57Z</time></trkpt>
			<trkpt lat="54.501790" lon="20.756270"><ele>31.6</ele><time>2026-07-14T14:42:04Z</time></trkpt>
			<trkpt lat="54.503130" lon="20.756060"><ele>29.0</ele><time>2026-07-14T14:42:11Z</time></trkpt>
			<trkpt lat="54.503730" lon="20.755880"><ele>29.0</ele><time>2026-07-14T14:42:18Z</time></trkpt>
			<trkpt lat="54.506170" lon="20.754690"><ele>28.6</ele><time>2026-07-14T14:42:24Z</time></trkpt>
			<trkpt lat="54.506830" lon="20.754020"><ele>28.0</ele><time>2026-07-14T14:42:31Z</time></trkpt>
			<trkpt lat="54.508130" lon="20.753570"><ele>28.7</ele><time>2026-07-14T14:42:38Z</time></trkpt>
			<trkpt lat="54.511760" lon="20.752310"><ele>29.1</ele><time>2026-07-14T14:42:45Z</time></trkpt>
			<trkpt lat="54.515240" lon="20.750780"><ele>28.1</ele><time>2026-07-14T14:42:52Z</time></trkpt>
			<trkpt lat="54.518310" lon="20.749240"><ele>26.3</ele><time>2026-07-14T14:42:59Z</time></trkpt>
			<trkpt lat="54.518570" lon="20.749110"><ele>26.6</ele><time>2026-07-14T14:43:05Z</time></trkpt>
			<trkpt lat="54.518760" lon="20.749010"><ele>27.0</ele><time>2026-07-14T14:43:12Z</time></trkpt>
			<trkpt lat="54.518970" lon="20.748900"><ele>27.3</ele><time>2026-07-14T14:43:19Z</time></trkpt>
			<trkpt lat="54.519480" lon="20.748580"><ele>27.7</ele><time>2026-07-14T14:43:26Z</time></trkpt>
			<trkpt lat="54.522670" lon="20.745090"><ele>30.0</ele><time>2026-07-14T14:43:33Z</time></trkpt>
			<trkpt lat="54.525200" lon="20.741510"><ele>28.1</ele><time>2026-07-14T14:43:40Z</time></trkpt>
			<trkpt lat="54.525620" lon="20.740850"><ele>27.0</ele><time>2026-07-14T14:43:46Z</time></trkpt>
			<trkpt lat="54.526010" lon="20.740080"><ele>26.6</ele><time>2026-07-14T14:43:53Z</time></trkpt>
			<trkpt lat="54.526580" lon="20.738970"><ele>26.0</ele><time>2026-07-14T14:44:00Z</time></trkpt>
			<trkpt lat="54.530230" lon="20.734860"><ele>26.2</ele><time>2026-07-14T14:44:07Z</time></trkpt>
			<trkpt lat="54.530560" lon="20.734620"><ele>26.4</ele><time>2026-07-14T14:44:14Z</time></trkpt>
			<trkpt lat="54.531200" lon="20.734560"><ele>26.9</ele><time>2026-07-14T14:44:21Z</time></trkpt>
			<trkpt lat="54.531300" lon="20.734550"><ele>27.1</ele><time>2026-07-14T14:44:27Z</time></trkpt>
			<trkpt lat="54.531660" lon="20.734470"><ele>27.6</ele><time>2026-07-14T14:44:34Z</time></trkpt>
			<trkpt lat="54.531880" lon="20.734310"><ele>28.0</ele><time>2026-07-14T14:44:41Z</time></trkpt>
			<trkpt lat="54.532440" lon="20.733810"><ele>28.9</ele><time>2026-07-14T14:44:48Z</time></trkpt>
			<trkpt lat="54.534530" lon="20.732080"><ele>28.0</ele><time>2026-07-14T14:44:55Z</time></trkpt>
			<trkpt lat="54.537750" lon="20.729480"><ele>26.9</ele><time>2026-07-14T14:45:02Z</time></trkpt>
			<trkpt lat="54.538760" lon="20.728630"><ele>28.4</ele><time>2026-07-14T14:45:08Z</time></trkpt>
			<trkpt lat="54.539030" lon="20.728400"><ele>28.8</ele><time>2026-07-14T14:45:15Z</time></trkpt>
			<trkpt lat="54.540060" lon="20.727550"><ele>28.9</ele><time>2026-07-14T14:45:22Z</time></trkpt>
			<trkpt lat="54.542690" lon="20.725340"><ele>27.9</ele><time>2026-07-14T14:45:29Z</time></trkpt>
			<trkpt lat="54.543820" lon="20.724430"><ele>26.6</ele><time>2026-07-14T14:45:36Z</time></trkpt>
			<trkpt lat="54.544200" lon="20.724120"><ele>27.0</ele><time>2026-07-14T14:45:42Z</time></trkpt>
			<trkpt lat="54.544330" lon="20.723990"><ele>27.0</ele><time>2026-07-14T14:45:49Z</time></trkpt>
			<trkpt lat="54.544430" lon="20.723850"><ele>27.0</ele><time>2026-07-14T14:45:56Z</time></trkpt>
			<trkpt lat="54.544500" lon="20.723700"><ele>27.0</ele><time>2026-07-14T14:46:03Z</time></trkpt>
			<trkpt lat="54.544640" lon="20.723370"><ele>27.0</ele><time>2026-07-14T14:46:10Z</time></trkpt>
			<trkpt lat="54.544720" lon="20.723240"><ele>26.9</ele><time>2026-07-14T14:46:17Z</time></trkpt>
			<trkpt lat="54.544840" lon="20.723130"><ele>26.3</ele><time>2026-07-14T14:46:23Z</time></trkpt>
			<trkpt lat="54.545130" lon="20.722900"><ele>24.5</ele><time>2026-07-14T14:46:30Z</time></trkpt>
			<trkpt lat="54.545580" lon="20.722480"><ele>21.7</ele><time>2026-07-14T14:46:37Z</time></trkpt>
			<trkpt lat="54.545840" lon="20.722180"><ele>20.6</ele><time>2026-07-14T14:46:44Z</time></trkpt>
			<trkpt lat="54.546030" lon="20.721940"><ele>20.2</ele><time>2026-07-14T14:46:51Z</time></trkpt>
			<trkpt lat="54.546170" lon="20.721790"><ele>20.1</ele><time>2026-07-14T14:46:58Z</time></trkpt>
			<trkpt lat="54.546270" lon="20.721680"><ele>20.0</ele><time>2026-07-14T14:47:04Z</time></trkpt>
			<trkpt lat="54.546440" lon="20.721530"><ele>20.3</ele><time>2026-07-14T14:47:11Z</time></trkpt>
			<trkpt lat="54.546580" lon="20.721470"><ele>20.5</ele><time>2026-07-14T14:47:18Z</time></trkpt>
			<trkpt lat="54.546800" lon="20.721400"><ele>21.0</ele><time>2026-07-14T14:47:25Z</time></trkpt>
			<trkpt lat="54.547040" lon="20.721390"><ele>21.5</ele><time>2026-07-14T14:47:32Z</time></trkpt>
			<trkpt lat="54.547830" lon="20.721470"><ele>22.2</ele><time>2026-07-14T14:47:39Z</time></trkpt>
			<trkpt lat="54.548090" lon="20.721360"><ele>22.1</ele><time>2026-07-14T14:47:45Z</time></trkpt>
			<trkpt lat="54.548310" lon="20.721190"><ele>22.2</ele><time>2026-07-14T14:47:52Z</time></trkpt>
			<trkpt lat="54.548390" lon="20.721080"><ele>22.3</ele><time>2026-07-14T14:47:59Z</time></trkpt>
			<trkpt lat="54.548470" lon="20.720960"><ele>22.5</ele><time>2026-07-14T14:48:06Z</time></trkpt>
			<trkpt lat="54.548580" lon="20.720630"><ele>22.7</ele><time>2026-07-14T14:48:13Z</time></trkpt>
			<trkpt lat="54.548690" lon="20.720160"><ele>22.6</ele><time>2026-07-14T14:48:20Z</time></trkpt>
			<trkpt lat="54.548860" lon="20.719280"><ele>21.8</ele><time>2026-07-14T14:48:26Z</time></trkpt>
			<trkpt lat="54.549050" lon="20.718300"><ele>23.0</ele><time>2026-07-14T14:48:33Z</time></trkpt>
			<trkpt lat="54.549130" lon="20.717890"><ele>23.5</ele><time>2026-07-14T14:48:40Z</time></trkpt>
			<trkpt lat="54.549270" lon="20.717160"><ele>23.7</ele><time>2026-07-14T14:48:47Z</time></trkpt>
			<trkpt lat="54.549520" lon="20.716130"><ele>23.4</ele><time>2026-07-14T14:48:54Z</time></trkpt>
			<trkpt lat="54.549700" lon="20.715590"><ele>23.8</ele><time>2026-07-14T14:49:01Z</time></trkpt>
			<trkpt lat="54.549900" lon="20.715100"><ele>24.7</ele><time>2026-07-14T14:49:07Z</time></trkpt>
			<trkpt lat="54.550460" lon="20.714230"><ele>26.5</ele><time>2026-07-14T14:49:14Z</time></trkpt>
			<trkpt lat="54.550990" lon="20.713500"><ele>26.9</ele><time>2026-07-14T14:49:21Z</time></trkpt>
			<trkpt lat="54.556170" lon="20.708660"><ele>24.8</ele><time>2026-07-14T14:49:28Z</time></trkpt>
			<trkpt lat="54.562630" lon="20.704180"><ele>27.7</ele><time>2026-07-14T14:49:35Z</time></trkpt>
			<trkpt lat="54.567520" lon="20.699900"><ele>33.0</ele><time>2026-07-14T14:49:42Z</time></trkpt>
			<trkpt lat="54.571170" lon="20.696060"><ele>37.1</ele><time>2026-07-14T14:49:48Z</time></trkpt>
			<trkpt lat="54.575930" lon="20.692950"><ele>37.3</ele><time>2026-07-14T14:49:55Z</time></trkpt>
			<trkpt lat="54.578430" lon="20.691350"><ele>35.4</ele><time>2026-07-14T14:50:02Z</time></trkpt>
			<trkpt lat="54.579050" lon="20.690920"><ele>34.2</ele><time>2026-07-14T14:50:09Z</time></trkpt>
			<trkpt lat="54.579460" lon="20.690630"><ele>34.3</ele><time>2026-07-14T14:50:16Z</time></trkpt>
			<trkpt lat="54.579770" lon="20.690490"><ele>34.4</ele><time>2026-07-14T14:50:23Z</time></trkpt>
			<trkpt lat="54.580080" lon="20.690550"><ele>34.6</ele><time>2026-07-14T14:50:29Z</time></trkpt>
			<trkpt lat="54.580400" lon="20.690750"><ele>34.5</ele><time>2026-07-14T14:50:36Z</time></trkpt>
			<trkpt lat="54.580670" lon="20.691140"><ele>34.5</ele><time>2026-07-14T14:50:43Z</time></trkpt>
			<trkpt lat="54.581590" lon="20.692650"><ele>34.3</ele><time>2026-07-14T14:50:50Z</time></trkpt>
			<trkpt lat="54.582040" lon="20.692980"><ele>34.5</ele><time>2026-07-14T14:50:57Z</time></trkpt>
			<trkpt lat="54.582390" lon="20.693050"><ele>34.6</ele><time>2026-07-14T14:51:03Z</time></trkpt>
			<trkpt lat="54.582750" lon="20.692960"><ele>34.4</ele><time>2026-07-14T14:51:10Z</time></trkpt>
			<trkpt lat="54.582860" lon="20.692900"><ele>34.3</ele><time>2026-07-14T14:51:17Z</time></trkpt>
			<trkpt lat="54.583160" lon="20.692680"><ele>34.0</ele><time>2026-07-14T14:51:24Z</time></trkpt>
			<trkpt lat="54.583670" lon="20.692250"><ele>34.4</ele><time>2026-07-14T14:51:31Z</time></trkpt>
			<trkpt lat="54.584480" lon="20.691540"><ele>35.6</ele><time>2026-07-14T14:51:38Z</time></trkpt>
			<trkpt lat="54.585820" lon="20.690360"><ele>34.2</ele><time>2026-07-14T14:51:44Z</time></trkpt>
			<trkpt lat="54.590360" lon="20.686240"><ele>31.5</ele><time>2026-07-14T14:51:51Z</time></trkpt>
			<trkpt lat="54.590630" lon="20.686010"><ele>31.2</ele><time>2026-07-14T14:51:58Z</time></trkpt>
			<trkpt lat="54.591130" lon="20.685740"><ele>31.1</ele><time>2026-07-14T14:52:05Z</time></trkpt>
			<trkpt lat="54.592680" lon="20.685080"><ele>31.1</ele><time>2026-07-14T14:52:12Z</time></trkpt>
			<trkpt lat="54.593280" lon="20.684820"><ele>31.2</ele><time>2026-07-14T14:52:19Z</time></trkpt>
			<trkpt lat="54.597130" lon="20.683490"><ele>30.9</ele><time>2026-07-14T14:52:25Z</time></trkpt>
			<trkpt lat="54.597790" lon="20.683210"><ele>30.7</ele><time>2026-07-14T14:52:32Z</time></trkpt>
			<trkpt lat="54.598020" lon="20.683050"><ele>30.4</ele><time>2026-07-14T14:52:39Z</time></trkpt>
			<trkpt lat="54.598310" lon="20.682760"><ele>30.1</ele><time>2026-07-14T14:52:46Z</time></trkpt>
			<trkpt lat="54.600250" lon="20.680260"><ele>29.6</ele><time>2026-07-14T14:52:53Z</time></trkpt>
			<trkpt lat="54.602210" lon="20.677720"><ele>28.8</ele><time>2026-07-14T14:53:00Z</time></trkpt>
			<trkpt lat="54.603500" lon="20.676010"><ele>27.0</ele><time>2026-07-14T14:53:06Z</time></trkpt>
			<trkpt lat="54.604400" lon="20.674810"><ele>26.7</ele><time>2026-07-14T14:53:13Z</time></trkpt>
			<trkpt lat="54.607760" lon="20.670320"><ele>26.0</ele><time>2026-07-14T14:53:20Z</time></trkpt>
			<trkpt lat="54.609600" lon="20.667860"><ele>24.2</ele><time>2026-07-14T14:53:27Z</time></trkpt>
			<trkpt lat="54.612980" lon="20.665020"><ele>23.5</ele><time>2026-07-14T14:53:34Z</time></trkpt>
			<trkpt lat="54.614360" lon="20.663840"><ele>22.2</ele><time>2026-07-14T14:53:41Z</time></trkpt>
			<trkpt lat="54.614530" lon="20.663780"><ele>22.2</ele><time>2026-07-14T14:53:47Z</time></trkpt>
			<trkpt lat="54.614680" lon="20.663770"><ele>22.4</ele><time>2026-07-14T14:53:54Z</time></trkpt>
			<trkpt lat="54.614840" lon="20.663820"><ele>22.5</ele><time>2026-07-14T14:54:01Z</time></trkpt>
			<trkpt lat="54.615560" lon="20.664350"><ele>22.3</ele><time>2026-07-14T14:54:08Z</time></trkpt>
			<trkpt lat="54.616070" lon="20.664670"><ele>22.6</ele><time>2026-07-14T14:54:15Z</time></trkpt>
			<trkpt lat="54.616770" lon="20.665170"><ele>24.4</ele><time>2026-07-14T14:54:22Z</time></trkpt>
			<trkpt lat="54.617110" lon="20.665350"><ele>25.2</ele><time>2026-07-14T14:54:28Z</time></trkpt>
			<trkpt lat="54.617580" lon="20.665570"><ele>25.8</ele><time>2026-07-14T14:54:35Z</time></trkpt>
			<trkpt lat="54.617860" lon="20.665660"><ele>25.1</ele><time>2026-07-14T14:54:42Z</time></trkpt>
			<trkpt lat="54.618310" lon="20.665770"><ele>24.0</ele><time>2026-07-14T14:54:49Z</time></trkpt>
			<trkpt lat="54.619410" lon="20.665640"><ele>21.5</ele><time>2026-07-14T14:54:56Z</time></trkpt>
			<trkpt lat="54.619860" lon="20.665550"><ele>21.2</ele><time>2026-07-14T14:55:03Z</time></trkpt>
			<trkpt lat="54.620520" lon="20.665510"><ele>21.6</ele><time>2026-07-14T14:55:09Z</time></trkpt>
			<trkpt lat="54.620650" lon="20.665470"><ele>21.8</ele><time>2026-07-14T14:55:16Z</time></trkpt>
			<trkpt lat="54.620890" lon="20.665390"><ele>22.0</ele><time>2026-07-14T14:55:23Z</time></trkpt>
			<trkpt lat="54.621140" lon="20.665150"><ele>22.0</ele><time>2026-07-14T14:55:30Z</time></trkpt>
			<trkpt lat="54.621270" lon="20.665010"><ele>21.8</ele><time>2026-07-14T14:55:37Z</time></trkpt>
			<trkpt lat="54.621290" lon="20.664980"><ele>21.8</ele><time>2026-07-14T14:55:43Z</time></trkpt>
			<trkpt lat="54.621830" lon="20.664000"><ele>20.5</ele><time>2026-07-14T14:55:50Z</time></trkpt>
			<trkpt lat="54.622990" lon="20.661900"><ele>23.0</ele><time>2026-07-14T14:55:57Z</time></trkpt>
			<trkpt lat="54.625890" lon="20.656670"><ele>21.7</ele><time>2026-07-14T14:56:04Z</time></trkpt>
			<trkpt lat="54.626650" lon="20.655290"><ele>19.9</ele><time>2026-07-14T14:56:11Z</time></trkpt>
			<trkpt lat="54.627610" lon="20.653550"><ele>20.1</ele><time>2026-07-14T14:56:18Z</time></trkpt>
			<trkpt lat="54.627800" lon="20.653290"><ele>20.3</ele><time>2026-07-14T14:56:24Z</time></trkpt>
			<trkpt lat="54.627990" lon="20.653110"><ele>20.5</ele><time>2026-07-14T14:56:31Z</time></trkpt>
			<trkpt lat="54.629810" lon="20.651680"><ele>19.8</ele><time>2026-07-14T14:56:38Z</time></trkpt>
			<trkpt lat="54.629960" lon="20.651560"><ele>19.9</ele><time>2026-07-14T14:56:45Z</time></trkpt>
			<trkpt lat="54.631830" lon="20.650020"><ele>20.9</ele><time>2026-07-14T14:56:52Z</time></trkpt>
			<trkpt lat="54.633020" lon="20.649040"><ele>19.3</ele><time>2026-07-14T14:56:59Z</time></trkpt>
			<trkpt lat="54.633920" lon="20.648300"><ele>18.2</ele><time>2026-07-14T14:57:05Z</time></trkpt>
			<trkpt lat="54.635010" lon="20.647450"><ele>18.0</ele><time>2026-07-14T14:57:12Z</time></trkpt>
			<trkpt lat="54.639040" lon="20.644170"><ele>17.9</ele><time>2026-07-14T14:57:19Z</time></trkpt>
			<trkpt lat="54.640300" lon="20.643140"><ele>17.6</ele><time>2026-07-14T14:57:26Z</time></trkpt>
			<trkpt lat="54.640460" lon="20.642990"><ele>17.7</ele><time>2026-07-14T14:57:33Z</time></trkpt>
			<trkpt lat="54.641480" lon="20.642050"><ele>18.4</ele><time>2026-07-14T14:57:40Z</time></trkpt>
			<trkpt lat="54.641610" lon="20.641940"><ele>18.5</ele><time>2026-07-14T14:57:46Z</time></trkpt>
			<trkpt lat="54.642610" lon="20.640990"><ele>17.0</ele><time>2026-07-14T14:57:53Z</time></trkpt>
			<trkpt lat="54.645050" lon="20.638680"><ele>16.0</ele><time>2026-07-14T14:58:00Z</time></trkpt>
			<trkpt lat="54.646520" lon="20.637260"><ele>15.8</ele><time>2026-07-14T14:58:07Z</time></trkpt>
			<trkpt lat="54.647250" lon="20.636580"><ele>16.0</ele><time>2026-07-14T14:58:14Z</time></trkpt>
			<trkpt lat="54.647330" lon="20.636480"><ele>16.0</ele><time>2026-07-14T14:58:21Z</time></trkpt>
			<trkpt lat="54.647600" lon="20.636240"><ele>16.1</ele><time>2026-07-14T14:58:27Z</time></trkpt>
			<trkpt lat="54.647670" lon="20.636170"><ele>16.2</ele><time>2026-07-14T14:58:34Z</time></trkpt>
			<trkpt lat="54.648000" lon="20.635940"><ele>16.6</ele><time>2026-07-14T14:58:41Z</time></trkpt>
			<trkpt lat="54.648210" lon="20.635850"><ele>16.7</ele><time>2026-07-14T14:58:48Z</time></trkpt>
			<trkpt lat="54.648690" lon="20.635670"><ele>16.0</ele><time>2026-07-14T14:58:55Z</time></trkpt>
			<trkpt lat="54.649190" lon="20.635520"><ele>15.0</ele><time>2026-07-14T14:59:02Z</time></trkpt>
			<trkpt lat="54.649400" lon="20.635480"><ele>14.7</ele><time>2026-07-14T14:59:08Z</time></trkpt>
			<trkpt lat="54.649870" lon="20.635330"><ele>14.2</ele><time>2026-07-14T14:59:15Z</time></trkpt>
			<trkpt lat="54.650170" lon="20.635280"><ele>14.4</ele><time>2026-07-14T14:59:22Z</time></trkpt>
			<trkpt lat="54.650280" lon="20.635260"><ele>14.6</ele><time>2026-07-14T14:59:29Z</time></trkpt>
			<trkpt lat="54.650530" lon="20.635260"><ele>15.1</ele><time>2026-07-14T14:59:36Z</time></trkpt>
			<trkpt lat="54.651200" lon="20.635300"><ele>15.5</ele><time>2026-07-14T14:59:43Z</time></trkpt>
			<trkpt lat="54.651280" lon="20.635310"><ele>15.4</ele><time>2026-07-14T14:59:49Z</time></trkpt>
			<trkpt lat="54.652020" lon="20.635360"><ele>14.8</ele><time>2026-07-14T14:59:56Z</time></trkpt>
			<trkpt lat="54.652870" lon="20.635420"><ele>14.9</ele><time>2026-07-14T15:00:03Z</time></trkpt>
			<trkpt lat="54.654540" lon="20.635530"><ele>14.6</ele><time>2026-07-14T15:00:10Z</time></trkpt>
			<trkpt lat="54.654660" lon="20.635540"><ele>14.7</ele><time>2026-07-14T15:00:17Z</time></trkpt>
			<trkpt lat="54.655400" lon="20.635600"><ele>14.7</ele><time>2026-07-14T15:00:24Z</time></trkpt>
			<trkpt lat="54.655920" lon="20.635620"><ele>14.6</ele><time>2026-07-14T15:00:30Z</time></trkpt>
			<trkpt lat="54.656540" lon="20.635670"><ele>14.2</ele><time>2026-07-14T15:00:37Z</time></trkpt>
			<trkpt lat="54.656730" lon="20.635630"><ele>14.0</ele><time>2026-07-14T15:00:44Z</time></trkpt>
			<trkpt lat="54.657050" lon="20.635520"><ele>14.2</ele><time>2026-07-14T15:00:51Z</time></trkpt>
			<trkpt lat="54.657540" lon="20.635260"><ele>14.5</ele><time>2026-07-14T15:00:58Z</time></trkpt>
			<trkpt lat="54.657830" lon="20.635070"><ele>14.1</ele><time>2026-07-14T15:01:04Z</time></trkpt>
			<trkpt lat="54.658100" lon="20.634950"><ele>13.5</ele><time>2026-07-14T15:01:11Z</time></trkpt>
			<trkpt lat="54.658320" lon="20.634920"><ele>13.1</ele><time>2026-07-14T15:01:18Z</time></trkpt>
			<trkpt lat="54.659090" lon="20.634860"><ele>12.4</ele><time>2026-07-14T15:01:25Z</time></trkpt>
			<trkpt lat="54.659140" lon="20.634860"><ele>12.4</ele><time>2026-07-14T15:01:32Z</time></trkpt>
			<trkpt lat="54.662440" lon="20.634640"><ele>11.7</ele><time>2026-07-14T15:01:39Z</time></trkpt>
			<trkpt lat="54.662940" lon="20.634610"><ele>11.0</ele><time>2026-07-14T15:01:45Z</time></trkpt>
			<trkpt lat="54.663140" lon="20.634600"><ele>10.8</ele><time>2026-07-14T15:01:52Z</time></trkpt>
			<trkpt lat="54.665270" lon="20.634500"><ele>6.7</ele><time>2026-07-14T15:01:59Z</time></trkpt>
			<trkpt lat="54.666890" lon="20.634420"><ele>6.7</ele><time>2026-07-14T15:02:06Z</time></trkpt>
			<trkpt lat="54.667910" lon="20.634360"><ele>6.3</ele><time>2026-07-14T15:02:13Z</time></trkpt>
			<trkpt lat="54.668170" lon="20.634320"><ele>6.6</ele><time>2026-07-14T15:02:20Z</time></trkpt>
			<trkpt lat="54.668380" lon="20.634270"><ele>7.1</ele><time>2026-07-14T15:02:26Z</time></trkpt>
			<trkpt lat="54.668510" lon="20.634220"><ele>7.4</ele><time>2026-07-14T15:02:33Z</time></trkpt>
			<trkpt lat="54.668690" lon="20.634140"><ele>7.8</ele><time>2026-07-14T15:02:40Z</time></trkpt>
			<trkpt lat="54.669020" lon="20.633960"><ele>8.2</ele><time>2026-07-14T15:02:47Z</time></trkpt>
			<trkpt lat="54.669250" lon="20.633920"><ele>8.4</ele><time>2026-07-14T15:02:54Z</time></trkpt>
			<trkpt lat="54.669430" lon="20.634020"><ele>8.4</ele><time>2026-07-14T15:03:01Z</time></trkpt>
			<trkpt lat="54.669570" lon="20.634130"><ele>8.5</ele><time>2026-07-14T15:03:07Z</time></trkpt>
			<trkpt lat="54.669600" lon="20.634180"><ele>8.5</ele><time>2026-07-14T15:03:14Z</time></trkpt>
			<trkpt lat="54.669650" lon="20.634390"><ele>8.6</ele><time>2026-07-14T15:03:21Z</time></trkpt>
			<trkpt lat="54.669680" lon="20.634640"><ele>8.6</ele><time>2026-07-14T15:03:28Z</time></trkpt>
			<trkpt lat="54.669670" lon="20.634850"><ele>8.8</ele><time>2026-07-14T15:03:35Z</time></trkpt>
			<trkpt lat="54.668520" lon="20.638470"><ele>12.4</ele><time>2026-07-14T15:03:42Z</time></trkpt>
			<trkpt lat="54.668250" lon="20.639300"><ele>13.9</ele><time>2026-07-14T15:03:48Z</time></trkpt>
			<trkpt lat="54.668170" lon="20.639570"><ele>14.0</ele><time>2026-07-14T15:03:55Z</time></trkpt>
			<trkpt lat="54.667930" lon="20.640360"><ele>14.3</ele><time>2026-07-14T15:04:02Z</time></trkpt>
			<trkpt lat="54.667240" lon="20.644510"><ele>13.2</ele><time>2026-07-14T15:04:09Z</time></trkpt>
			<trkpt lat="54.667240" lon="20.644510"><ele>13.2</ele><time>2026-07-14T15:04:14Z</time></trkpt>
			<trkpt lat="54.666850" lon="20.646850"><ele>12.0</ele><time>2026-07-14T15:04:18Z</time></trkpt>
			<trkpt lat="54.666780" lon="20.647290"><ele>11.3</ele><time>2026-07-14T15:04:23Z</time></trkpt>
			<trkpt lat="54.666520" lon="20.648710"><ele>9.3</ele><time>2026-07-14T15:04:28Z</time></trkpt>
			<trkpt lat="54.666350" lon="20.649120"><ele>8.7</ele><time>2026-07-14T15:04:32Z</time></trkpt>
			<trkpt lat="54.666130" lon="20.649560"><ele>8.8</ele><time>2026-07-14T15:04:37Z</time></trkpt>
			<trkpt lat="54.665300" lon="20.650840"><ele>7.7</ele><time>2026-07-14T15:04:41Z</time></trkpt>
			<trkpt lat="54.664580" lon="20.651940"><ele>7.4</ele><time>2026-07-14T15:04:46Z</time></trkpt>
			<trkpt lat="54.664340" lon="20.652300"><ele>7.6</ele><time>2026-07-14T15:04:51Z</time></trkpt>
			<trkpt lat="54.664300" lon="20.652370"><ele>7.7</ele><time>2026-07-14T15:04:55Z</time></trkpt>
			<trkpt lat="54.663160" lon="20.654120"><ele>9.0</ele><time>2026-07-14T15:05:00Z</time></trkpt>
			<trkpt lat="54.663010" lon="20.654390"><ele>10.1</ele><time>2026-07-14T15:05:05Z</time></trkpt>
			<trkpt lat="54.662930" lon="20.654650"><ele>10.9</ele><time>2026-07-14T15:05:09Z</time></trkpt>
			<trkpt lat="54.662840" lon="20.655040"><ele>11.6</ele><time>2026-07-14T15:05:14Z</time></trkpt>
			<trkpt lat="54.662740" lon="20.655860"><ele>11.6</ele><time>2026-07-14T15:05:19Z</time></trkpt>
			<trkpt lat="54.662630" lon="20.656940"><ele>12.1</ele><time>2026-07-14T15:05:23Z</time></trkpt>
			<trkpt lat="54.662600" lon="20.657230"><ele>12.2</ele><time>2026-07-14T15:05:28Z</time></trkpt>
			<trkpt lat="54.662590" lon="20.657470"><ele>12.3</ele><time>2026-07-14T15:05:33Z</time></trkpt>
			<trkpt lat="54.662120" lon="20.663260"><ele>11.9</ele><time>2026-07-14T15:05:37Z</time></trkpt>
			<trkpt lat="54.661820" lon="20.667080"><ele>15.2</ele><time>2026-07-14T15:05:42Z</time></trkpt>
			<trkpt lat="54.661710" lon="20.668220"><ele>15.1</ele><time>2026-07-14T15:05:47Z</time></trkpt>
			<trkpt lat="54.661630" lon="20.668870"><ele>15.6</ele><time>2026-07-14T15:05:51Z</time></trkpt>
			<trkpt lat="54.661340" lon="20.670640"><ele>15.6</ele><time>2026-07-14T15:05:56Z</time></trkpt>
			<trkpt lat="54.661070" lon="20.672210"><ele>15.4</ele><time>2026-07-14T15:06:01Z</time></trkpt>
			<trkpt lat="54.660840" lon="20.673500"><ele>15.8</ele><time>2026-07-14T15:06:05Z</time></trkpt>
			<trkpt lat="54.660740" lon="20.674090"><ele>14.9</ele><time>2026-07-14T15:06:10Z</time></trkpt>
			<trkpt lat="54.660640" lon="20.674550"><ele>14.1</ele><time>2026-07-14T15:06:15Z</time></trkpt>
			<trkpt lat="54.660570" lon="20.674740"><ele>13.7</ele><time>2026-07-14T15:06:19Z</time></trkpt>
			<trkpt lat="54.660490" lon="20.674870"><ele>13.3</ele><time>2026-07-14T15:06:24Z</time></trkpt>
			<trkpt lat="54.660330" lon="20.675020"><ele>12.8</ele><time>2026-07-14T15:06:29Z</time></trkpt>
			<trkpt lat="54.660060" lon="20.675140"><ele>12.1</ele><time>2026-07-14T15:06:33Z</time></trkpt>
			<trkpt lat="54.659800" lon="20.675180"><ele>12.3</ele><time>2026-07-14T15:06:38Z</time></trkpt>
			<trkpt lat="54.659230" lon="20.675210"><ele>13.9</ele><time>2026-07-14T15:06:43Z</time></trkpt>
			<trkpt lat="54.659030" lon="20.675300"><ele>14.8</ele><time>2026-07-14T15:06:47Z</time></trkpt>
			<trkpt lat="54.658890" lon="20.675430"><ele>15.5</ele><time>2026-07-14T15:06:52Z</time></trkpt>
			<trkpt lat="54.658800" lon="20.675540"><ele>15.9</ele><time>2026-07-14T15:06:57Z</time></trkpt>
			<trkpt lat="54.658640" lon="20.675750"><ele>16.7</ele><time>2026-07-14T15:07:01Z</time></trkpt>
			<trkpt lat="54.658480" lon="20.675890"><ele>16.8</ele><time>2026-07-14T15:07:06Z</time></trkpt>
			<trkpt lat="54.658300" lon="20.675970"><ele>16.7</ele><time>2026-07-14T15:07:10Z</time></trkpt>
			<trkpt lat="54.658050" lon="20.676040"><ele>15.8</ele><time>2026-07-14T15:07:15Z</time></trkpt>
			<trkpt lat="54.657840" lon="20.676020"><ele>15.1</ele><time>2026-07-14T15:07:20Z</time></trkpt>
			<trkpt lat="54.657310" lon="20.676110"><ele>14.3</ele><time>2026-07-14T15:07:24Z</time></trkpt>
			<trkpt lat="54.656650" lon="20.676210"><ele>15.1</ele><time>2026-07-14T15:07:29Z</time></trkpt>
			<trkpt lat="54.655870" lon="20.676330"><ele>16.5</ele><time>2026-07-14T15:07:34Z</time></trkpt>
			<trkpt lat="54.654580" lon="20.676590"><ele>18.0</ele><time>2026-07-14T15:07:38Z</time></trkpt>
			<trkpt lat="54.654360" lon="20.676640"><ele>18.0</ele><time>2026-07-14T15:07:43Z</time></trkpt>
			<trkpt lat="54.653640" lon="20.676790"><ele>17.4</ele><time>2026-07-14T15:07:48Z</time></trkpt>
			<trkpt lat="54.653090" lon="20.676900"><ele>17.4</ele><time>2026-07-14T15:07:52Z</time></trkpt>
			<trkpt lat="54.652810" lon="20.676960"><ele>17.5</ele><time>2026-07-14T15:07:57Z</time></trkpt>
			<trkpt lat="54.652200" lon="20.677030"><ele>17.7</ele><time>2026-07-14T15:08:02Z</time></trkpt>
			<trkpt lat="54.651790" lon="20.676970"><ele>17.9</ele><time>2026-07-14T15:08:06Z</time></trkpt>
			<trkpt lat="54.651580" lon="20.677030"><ele>17.7</ele><time>2026-07-14T15:08:11Z</time></trkpt>
			<trkpt lat="54.651440" lon="20.677040"><ele>17.6</ele><time>2026-07-14T15:08:16Z</time></trkpt>
			<trkpt lat="54.651230" lon="20.677080"><ele>17.3</ele><time>2026-07-14T15:08:20Z</time></trkpt>
			<trkpt lat="54.650810" lon="20.677430"><ele>16.9</ele><time>2026-07-14T15:08:25Z</time></trkpt>
			<trkpt lat="54.650400" lon="20.677910"><ele>17.0</ele><time>2026-07-14T15:08:30Z</time></trkpt>
			<trkpt lat="54.650210" lon="20.678360"><ele>17.2</ele><time>2026-07-14T15:08:34Z</time></trkpt>
			<trkpt lat="54.650060" lon="20.678680"><ele>17.8</ele><time>2026-07-14T15:08:39Z</time></trkpt>
			<trkpt lat="54.649930" lon="20.679130"><ele>18.6</ele><time>2026-07-14T15:08:44Z</time></trkpt>
			<trkpt lat="54.649700" lon="20.680880"><ele>17.7</ele><time>2026-07-14T15:08:48Z</time></trkpt>
			<trkpt lat="54.649680" lon="20.681110"><ele>17.7</ele><time>2026-07-14T15:08:53Z</time></trkpt>
			<trkpt lat="54.648890" lon="20.690510"><ele>18.5</ele><time>2026-07-14T15:08:58Z</time></trkpt>
			<trkpt lat="54.648710" lon="20.692170"><ele>17.8</ele><time>2026-07-14T15:09:02Z</time></trkpt>
			<trkpt lat="54.648580" lon="20.692920"><ele>18.3</ele><time>2026-07-14T15:09:07Z</time></trkpt>
			<trkpt lat="54.648340" lon="20.694010"><ele>21.2</ele><time>2026-07-14T15:09:12Z</time></trkpt>
			<trkpt lat="54.647270" lon="20.698080"><ele>18.4</ele><time>2026-07-14T15:09:16Z</time></trkpt>
			<trkpt lat="54.646330" lon="20.701640"><ele>18.5</ele><time>2026-07-14T15:09:21Z</time></trkpt>
			<trkpt lat="54.646530" lon="20.701760"><ele>18.6</ele><time>2026-07-14T15:09:26Z</time></trkpt>
			<trkpt lat="54.646530" lon="20.701760"><ele>18.6</ele><time>2026-07-14T15:09:31Z</time></trkpt>
			<trkpt lat="54.646330" lon="20.701640"><ele>18.8</ele><time>2026-07-14T15:09:37Z</time></trkpt>
			<trkpt lat="54.643080" lon="20.713240"><ele>20.1</ele><time>2026-07-14T15:09:43Z</time></trkpt>
			<trkpt lat="54.642660" lon="20.714670"><ele>22.5</ele><time>2026-07-14T15:09:48Z</time></trkpt>
			<trkpt lat="54.642340" lon="20.715450"><ele>25.9</ele><time>2026-07-14T15:09:54Z</time></trkpt>
			<trkpt lat="54.642040" lon="20.716030"><ele>27.0</ele><time>2026-07-14T15:10:00Z</time></trkpt>
			<trkpt lat="54.641620" lon="20.716630"><ele>26.1</ele><time>2026-07-14T15:10:06Z</time></trkpt>
			<trkpt lat="54.637820" lon="20.720510"><ele>23.2</ele><time>2026-07-14T15:10:11Z</time></trkpt>
			<trkpt lat="54.636450" lon="20.721910"><ele>23.4</ele><time>2026-07-14T15:10:17Z</time></trkpt>
			<trkpt lat="54.636010" lon="20.722400"><ele>23.0</ele><time>2026-07-14T15:10:23Z</time></trkpt>
			<trkpt lat="54.635660" lon="20.723060"><ele>22.8</ele><time>2026-07-14T15:10:28Z</time></trkpt>
			<trkpt lat="54.635450" lon="20.723650"><ele>22.4</ele><time>2026-07-14T15:10:34Z</time></trkpt>
			<trkpt lat="54.634840" lon="20.725690"><ele>22.0</ele><time>2026-07-14T15:10:40Z</time></trkpt>
			<trkpt lat="54.634280" lon="20.727760"><ele>23.4</ele><time>2026-07-14T15:10:46Z</time></trkpt>
			<trkpt lat="54.634140" lon="20.728430"><ele>23.6</ele><time>2026-07-14T15:10:51Z</time></trkpt>
			<trkpt lat="54.634080" lon="20.728840"><ele>23.3</ele><time>2026-07-14T15:10:57Z</time></trkpt>
			<trkpt lat="54.634060" lon="20.729750"><ele>22.7</ele><time>2026-07-14T15:11:03Z</time></trkpt>
			<trkpt lat="54.634040" lon="20.731420"><ele>21.9</ele><time>2026-07-14T15:11:09Z</time></trkpt>
			<trkpt lat="54.634030" lon="20.733780"><ele>21.4</ele><time>2026-07-14T15:11:14Z</time></trkpt>
			<trkpt lat="54.634030" lon="20.734630"><ele>21.5</ele><time>2026-07-14T15:11:20Z</time></trkpt>
			<trkpt lat="54.633990" lon="20.734990"><ele>21.8</ele><time>2026-07-14T15:11:26Z</time></trkpt>
			<trkpt lat="54.633970" lon="20.735200"><ele>22.1</ele><time>2026-07-14T15:11:31Z</time></trkpt>
			<trkpt lat="54.633930" lon="20.735400"><ele>22.3</ele><time>2026-07-14T15:11:37Z</time></trkpt>
			<trkpt lat="54.633850" lon="20.735680"><ele>22.7</ele><time>2026-07-14T15:11:43Z</time></trkpt>
			<trkpt lat="54.633620" lon="20.736230"><ele>23.2</ele><time>2026-07-14T15:11:49Z</time></trkpt>
			<trkpt lat="54.633190" lon="20.737320"><ele>22.1</ele><time>2026-07-14T15:11:54Z</time></trkpt>
			<trkpt lat="54.633110" lon="20.737550"><ele>21.5</ele><time>2026-07-14T15:12:00Z</time></trkpt>
			<trkpt lat="54.633080" lon="20.737710"><ele>20.8</ele><time>2026-07-14T15:12:06Z</time></trkpt>
			<trkpt lat="54.633040" lon="20.737900"><ele>19.9</ele><time>2026-07-14T15:12:11Z</time></trkpt>
			<trkpt lat="54.633030" lon="20.738110"><ele>19.0</ele><time>2026-07-14T15:12:17Z</time></trkpt>
			<trkpt lat="54.633040" lon="20.738270"><ele>18.4</ele><time>2026-07-14T15:12:23Z</time></trkpt>
			<trkpt lat="54.633070" lon="20.738680"><ele>17.1</ele><time>2026-07-14T15:12:29Z</time></trkpt>
			<trkpt lat="54.633130" lon="20.739100"><ele>16.1</ele><time>2026-07-14T15:12:34Z</time></trkpt>
			<trkpt lat="54.633150" lon="20.739180"><ele>15.9</ele><time>2026-07-14T15:12:40Z</time></trkpt>
			<trkpt lat="54.633400" lon="20.740200"><ele>16.0</ele><time>2026-07-14T15:12:46Z</time></trkpt>
			<trkpt lat="54.633470" lon="20.740530"><ele>17.1</ele><time>2026-07-14T15:12:51Z</time></trkpt>
			<trkpt lat="54.633490" lon="20.740680"><ele>17.4</ele><time>2026-07-14T15:12:57Z</time></trkpt>
			<trkpt lat="54.633500" lon="20.740820"><ele>17.6</ele><time>2026-07-14T15:13:03Z</time></trkpt>
			<trkpt lat="54.633480" lon="20.740990"><ele>18.0</ele><time>2026-07-14T15:13:09Z</time></trkpt>
			<trkpt lat="54.633190" lon="20.741370"><ele>18.4</ele><time>2026-07-14T15:13:14Z</time></trkpt>
			<trkpt lat="54.632480" lon="20.742220"><ele>20.3</ele><time>2026-07-14T15:13:20Z</time></trkpt>
			<trkpt lat="54.631370" lon="20.743210"><ele>24.0</ele><time>2026-07-14T15:13:26Z</time></trkpt>
			<trkpt lat="54.630460" lon="20.743900"><ele>24.5</ele><time>2026-07-14T15:13:32Z</time></trkpt>
			<trkpt lat="54.630160" lon="20.744160"><ele>23.6</ele><time>2026-07-14T15:13:37Z</time></trkpt>
			<trkpt lat="54.629960" lon="20.744530"><ele>22.9</ele><time>2026-07-14T15:13:43Z</time></trkpt>
			<trkpt lat="54.629720" lon="20.745460"><ele>21.8</ele><time>2026-07-14T15:13:49Z</time></trkpt>
			<trkpt lat="54.629450" lon="20.746340"><ele>21.3</ele><time>2026-07-14T15:13:54Z</time></trkpt>
			<trkpt lat="54.629410" lon="20.746470"><ele>21.3</ele><time>2026-07-14T15:14:00Z</time></trkpt>
			<trkpt lat="54.629070" lon="20.747850"><ele>23.5</ele><time>2026-07-14T15:14:06Z</time></trkpt>
			<trkpt lat="54.628800" lon="20.748540"><ele>24.8</ele><time>2026-07-14T15:14:12Z</time></trkpt>
			<trkpt lat="54.628300" lon="20.749790"><ele>26.1</ele><time>2026-07-14T15:14:17Z</time></trkpt>
			<trkpt lat="54.627880" lon="20.750830"><ele>24.0</ele><time>2026-07-14T15:14:23Z</time></trkpt>
			<trkpt lat="54.626960" lon="20.753110"><ele>24.5</ele><time>2026-07-14T15:14:29Z</time></trkpt>
			<trkpt lat="54.625570" lon="20.756380"><ele>24.9</ele><time>2026-07-14T15:14:34Z</time></trkpt>
			<trkpt lat="54.625070" lon="20.757560"><ele>25.2</ele><time>2026-07-14T15:14:40Z</time></trkpt>
			<trkpt lat="54.624890" lon="20.758050"><ele>25.8</ele><time>2026-07-14T15:14:46Z</time></trkpt>
			<trkpt lat="54.624810" lon="20.758370"><ele>26.5</ele><time>2026-07-14T15:14:52Z</time></trkpt>
			<trkpt lat="54.624520" lon="20.760290"><ele>33.4</ele><time>2026-07-14T15:14:57Z</time></trkpt>
			<trkpt lat="54.624200" lon="20.762550"><ele>30.8</ele><time>2026-07-14T15:15:03Z</time></trkpt>
			<trkpt lat="54.623870" lon="20.764860"><ele>26.9</ele><time>2026-07-14T15:15:09Z</time></trkpt>
			<trkpt lat="54.623060" lon="20.770590"><ele>27.8</ele><time>2026-07-14T15:15:15Z</time></trkpt>
			<trkpt lat="54.621750" lon="20.779930"><ele>25.6</ele><time>2026-07-14T15:15:20Z</time></trkpt>
			<trkpt lat="54.621630" lon="20.780640"><ele>25.2</ele><time>2026-07-14T15:15:26Z</time></trkpt>
			<trkpt lat="54.621610" lon="20.780890"><ele>25.2</ele><time>2026-07-14T15:15:32Z</time></trkpt>
			<trkpt lat="54.621620" lon="20.781120"><ele>25.4</ele><time>2026-07-14T15:15:37Z</time></trkpt>
			<trkpt lat="54.621650" lon="20.781290"><ele>25.5</ele><time>2026-07-14T15:15:43Z</time></trkpt>
			<trkpt lat="54.621780" lon="20.781480"><ele>25.8</ele><time>2026-07-14T15:15:49Z</time></trkpt>
			<trkpt lat="54.622130" lon="20.781790"><ele>26.1</ele><time>2026-07-14T15:15:55Z</time></trkpt>
			<trkpt lat="54.622610" lon="20.782200"><ele>26.1</ele><time>2026-07-14T15:16:00Z</time></trkpt>
			<trkpt lat="54.623130" lon="20.782640"><ele>24.7</ele><time>2026-07-14T15:16:06Z</time></trkpt>
			<trkpt lat="54.624940" lon="20.784200"><ele>25.1</ele><time>2026-07-14T15:16:12Z</time></trkpt>
			<trkpt lat="54.625420" lon="20.784740"><ele>24.4</ele><time>2026-07-14T15:16:17Z</time></trkpt>
			<trkpt lat="54.625830" lon="20.785170"><ele>24.0</ele><time>2026-07-14T15:16:23Z</time></trkpt>
			<trkpt lat="54.626200" lon="20.785420"><ele>22.9</ele><time>2026-07-14T15:16:29Z</time></trkpt>
			<trkpt lat="54.626980" lon="20.785750"><ele>16.3</ele><time>2026-07-14T15:16:35Z</time></trkpt>
			<trkpt lat="54.627080" lon="20.785820"><ele>14.7</ele><time>2026-07-14T15:16:40Z</time></trkpt>
			<trkpt lat="54.627220" lon="20.786070"><ele>12.4</ele><time>2026-07-14T15:16:46Z</time></trkpt>
			<trkpt lat="54.627270" lon="20.786300"><ele>11.9</ele><time>2026-07-14T15:16:52Z</time></trkpt>
			<trkpt lat="54.627280" lon="20.786790"><ele>11.7</ele><time>2026-07-14T15:16:57Z</time></trkpt>
			<trkpt lat="54.627270" lon="20.790230"><ele>10.7</ele><time>2026-07-14T15:17:03Z</time></trkpt>
			<trkpt lat="54.627260" lon="20.790820"><ele>10.8</ele><time>2026-07-14T15:17:09Z</time></trkpt>
			<trkpt lat="54.627260" lon="20.794110"><ele>13.9</ele><time>2026-07-14T15:17:15Z</time></trkpt>
			<trkpt lat="54.627350" lon="20.796160"><ele>12.8</ele><time>2026-07-14T15:17:20Z</time></trkpt>
			<trkpt lat="54.627410" lon="20.797890"><ele>12.1</ele><time>2026-07-14T15:17:26Z</time></trkpt>
			<trkpt lat="54.627420" lon="20.798230"><ele>12.0</ele><time>2026-07-14T15:17:32Z</time></trkpt>
			<trkpt lat="54.627660" lon="20.801140"><ele>10.2</ele><time>2026-07-14T15:17:38Z</time></trkpt>
			<trkpt lat="54.627890" lon="20.803710"><ele>8.2</ele><time>2026-07-14T15:17:43Z</time></trkpt>
			<trkpt lat="54.628070" lon="20.805830"><ele>8.3</ele><time>2026-07-14T15:17:49Z</time></trkpt>
			<trkpt lat="54.628170" lon="20.806670"><ele>7.6</ele><time>2026-07-14T15:17:55Z</time></trkpt>
			<trkpt lat="54.628830" lon="20.810220"><ele>4.6</ele><time>2026-07-14T15:18:00Z</time></trkpt>
			<trkpt lat="54.628930" lon="20.810860"><ele>4.7</ele><time>2026-07-14T15:18:06Z</time></trkpt>
			<trkpt lat="54.629080" lon="20.811800"><ele>5.4</ele><time>2026-07-14T15:18:12Z</time></trkpt>
			<trkpt lat="54.629220" lon="20.812920"><ele>7.9</ele><time>2026-07-14T15:18:18Z</time></trkpt>
			<trkpt lat="54.629290" lon="20.813760"><ele>8.4</ele><time>2026-07-14T15:18:23Z</time></trkpt>
			<trkpt lat="54.629500" lon="20.818080"><ele>3.8</ele><time>2026-07-14T15:18:29Z</time></trkpt>
			<trkpt lat="54.629590" lon="20.819390"><ele>3.7</ele><time>2026-07-14T15:18:35Z</time></trkpt>
			<trkpt lat="54.630240" lon="20.823760"><ele>11.8</ele><time>2026-07-14T15:18:40Z</time></trkpt>
			<trkpt lat="54.630860" lon="20.826860"><ele>9.0</ele><time>2026-07-14T15:18:46Z</time></trkpt>
			<trkpt lat="54.631150" lon="20.828320"><ele>6.8</ele><time>2026-07-14T15:18:52Z</time></trkpt>
			<trkpt lat="54.632630" lon="20.835530"><ele>9.1</ele><time>2026-07-14T15:18:58Z</time></trkpt>
			<trkpt lat="54.632960" lon="20.837160"><ele>8.2</ele><time>2026-07-14T15:19:03Z</time></trkpt>
			<trkpt lat="54.633100" lon="20.838110"><ele>8.1</ele><time>2026-07-14T15:19:09Z</time></trkpt>
			<trkpt lat="54.633200" lon="20.838990"><ele>8.9</ele><time>2026-07-14T15:19:15Z</time></trkpt>
			<trkpt lat="54.633280" lon="20.839880"><ele>9.7</ele><time>2026-07-14T15:19:20Z</time></trkpt>
			<trkpt lat="54.633300" lon="20.840620"><ele>8.6</ele><time>2026-07-14T15:19:26Z</time></trkpt>
			<trkpt lat="54.633300" lon="20.841320"><ele>7.4</ele><time>2026-07-14T15:19:32Z</time></trkpt>
			<trkpt lat="54.633200" lon="20.843110"><ele>5.9</ele><time>2026-07-14T15:19:38Z</time></trkpt>
			<trkpt lat="54.633160" lon="20.843820"><ele>6.7</ele><time>2026-07-14T15:19:43Z</time></trkpt>
			<trkpt lat="54.633100" lon="20.844640"><ele>7.6</ele><time>2026-07-14T15:19:49Z</time></trkpt>
			<trkpt lat="54.632920" lon="20.847240"><ele>6.0</ele><time>2026-07-14T15:19:55Z</time></trkpt>
			<trkpt lat="54.632870" lon="20.848090"><ele>6.2</ele><time>2026-07-14T15:20:01Z</time></trkpt>
			<trkpt lat="54.632860" lon="20.849030"><ele>8.1</ele><time>2026-07-14T15:20:06Z</time></trkpt>
			<trkpt lat="54.632950" lon="20.850410"><ele>8.7</ele><time>2026-07-14T15:20:12Z</time></trkpt>
			<trkpt lat="54.633080" lon="20.852430"><ele>10.1</ele><time>2026-07-14T15:20:18Z</time></trkpt>
			<trkpt lat="54.633140" lon="20.853120"><ele>10.6</ele><time>2026-07-14T15:20:23Z</time></trkpt>
			<trkpt lat="54.633120" lon="20.854430"><ele>11.4</ele><time>2026-07-14T15:20:29Z</time></trkpt>
			<trkpt lat="54.633030" lon="20.855720"><ele>14.7</ele><time>2026-07-14T15:20:35Z</time></trkpt>
			<trkpt lat="54.632930" lon="20.856470"><ele>15.1</ele><time>2026-07-14T15:20:41Z</time></trkpt>
			<trkpt lat="54.632640" lon="20.858070"><ele>17.6</ele><time>2026-07-14T15:20:46Z</time></trkpt>
			<trkpt lat="54.632550" lon="20.858480"><ele>18.4</ele><time>2026-07-14T15:20:52Z</time></trkpt>
			<trkpt lat="54.631930" lon="20.861770"><ele>20.5</ele><time>2026-07-14T15:20:58Z</time></trkpt>
			<trkpt lat="54.631660" lon="20.863550"><ele>21.9</ele><time>2026-07-14T15:21:03Z</time></trkpt>
			<trkpt lat="54.631170" lon="20.868330"><ele>19.9</ele><time>2026-07-14T15:21:09Z</time></trkpt>
			<trkpt lat="54.630900" lon="20.871160"><ele>19.4</ele><time>2026-07-14T15:21:15Z</time></trkpt>
			<trkpt lat="54.630810" lon="20.871980"><ele>19.0</ele><time>2026-07-14T15:21:21Z</time></trkpt>
			<trkpt lat="54.630770" lon="20.872330"><ele>18.9</ele><time>2026-07-14T15:21:26Z</time></trkpt>
			<trkpt lat="54.630700" lon="20.873000"><ele>19.0</ele><time>2026-07-14T15:21:32Z</time></trkpt>
			<trkpt lat="54.630550" lon="20.873760"><ele>19.3</ele><time>2026-07-14T15:21:38Z</time></trkpt>
			<trkpt lat="54.630300" lon="20.874760"><ele>20.5</ele><time>2026-07-14T15:21:44Z</time></trkpt>
			<trkpt lat="54.629880" lon="20.876110"><ele>21.2</ele><time>2026-07-14T15:21:49Z</time></trkpt>
			<trkpt lat="54.629230" lon="20.878320"><ele>19.2</ele><time>2026-07-14T15:21:55Z</time></trkpt>
			<trkpt lat="54.628830" lon="20.879740"><ele>21.1</ele><time>2026-07-14T15:22:01Z</time></trkpt>
			<trkpt lat="54.628570" lon="20.880730"><ele>21.1</ele><time>2026-07-14T15:22:06Z</time></trkpt>
			<trkpt lat="54.628530" lon="20.880930"><ele>21.2</ele><time>2026-07-14T15:22:12Z</time></trkpt>
			<trkpt lat="54.628520" lon="20.881190"><ele>21.3</ele><time>2026-07-14T15:22:18Z</time></trkpt>
			<trkpt lat="54.628550" lon="20.881400"><ele>21.2</ele><time>2026-07-14T15:22:24Z</time></trkpt>
			<trkpt lat="54.629010" lon="20.884490"><ele>21.5</ele><time>2026-07-14T15:22:29Z</time></trkpt>
			<trkpt lat="54.629910" lon="20.890500"><ele>23.0</ele><time>2026-07-14T15:22:35Z</time></trkpt>
			<trkpt lat="54.629970" lon="20.890820"><ele>23.0</ele><time>2026-07-14T15:22:41Z</time></trkpt>
			<trkpt lat="54.630190" lon="20.891520"><ele>22.3</ele><time>2026-07-14T15:22:46Z</time></trkpt>
			<trkpt lat="54.630280" lon="20.891860"><ele>21.8</ele><time>2026-07-14T15:22:52Z</time></trkpt>
			<trkpt lat="54.630310" lon="20.892010"><ele>21.6</ele><time>2026-07-14T15:22:58Z</time></trkpt>
			<trkpt lat="54.630820" lon="20.895560"><ele>24.0</ele><time>2026-07-14T15:23:04Z</time></trkpt>
			<trkpt lat="54.630840" lon="20.895760"><ele>23.9</ele><time>2026-07-14T15:23:09Z</time></trkpt>
			<trkpt lat="54.631410" lon="20.899240"><ele>21.7</ele><time>2026-07-14T15:23:15Z</time></trkpt>
			<trkpt lat="54.631410" lon="20.899600"><ele>22.0</ele><time>2026-07-14T15:23:21Z</time></trkpt>
			<trkpt lat="54.631250" lon="20.899690"><ele>22.3</ele><time>2026-07-14T15:23:26Z</time></trkpt>
			<trkpt lat="54.630960" lon="20.899810"><ele>22.7</ele><time>2026-07-14T15:23:32Z</time></trkpt>
			<trkpt lat="54.631130" lon="20.900860"><ele>23.3</ele><time>2026-07-14T15:23:38Z</time></trkpt>
			<trkpt lat="54.631300" lon="20.902020"><ele>23.1</ele><time>2026-07-14T15:23:44Z</time></trkpt>
			<trkpt lat="54.631600" lon="20.904210"><ele>21.1</ele><time>2026-07-14T15:23:49Z</time></trkpt>
			<trkpt lat="54.631700" lon="20.905060"><ele>20.9</ele><time>2026-07-14T15:23:55Z</time></trkpt>
			<trkpt lat="54.632040" lon="20.907200"><ele>22.3</ele><time>2026-07-14T15:24:01Z</time></trkpt>
			<trkpt lat="54.632830" lon="20.912560"><ele>19.6</ele><time>2026-07-14T15:24:07Z</time></trkpt>
			<trkpt lat="54.633060" lon="20.914250"><ele>20.9</ele><time>2026-07-14T15:24:12Z</time></trkpt>
			<trkpt lat="54.633110" lon="20.914890"><ele>20.8</ele><time>2026-07-14T15:24:18Z</time></trkpt>
			<trkpt lat="54.633220" lon="20.917340"><ele>23.1</ele><time>2026-07-14T15:24:24Z</time></trkpt>
			<trkpt lat="54.633390" lon="20.919980"><ele>25.7</ele><time>2026-07-14T15:24:29Z</time></trkpt>
			<trkpt lat="54.633360" lon="20.920800"><ele>25.0</ele><time>2026-07-14T15:24:35Z</time></trkpt>
			<trkpt lat="54.632950" lon="20.924460"><ele>23.5</ele><time>2026-07-14T15:24:41Z</time></trkpt>
			<trkpt lat="54.632810" lon="20.925870"><ele>22.8</ele><time>2026-07-14T15:24:47Z</time></trkpt>
			<trkpt lat="54.632810" lon="20.926120"><ele>22.6</ele><time>2026-07-14T15:24:52Z</time></trkpt>
			<trkpt lat="54.632850" lon="20.926350"><ele>22.5</ele><time>2026-07-14T15:24:58Z</time></trkpt>
			<trkpt lat="54.632920" lon="20.926560"><ele>22.5</ele><time>2026-07-14T15:25:04Z</time></trkpt>
			<trkpt lat="54.633270" lon="20.927190"><ele>22.6</ele><time>2026-07-14T15:25:09Z</time></trkpt>
			<trkpt lat="54.633440" lon="20.927560"><ele>22.9</ele><time>2026-07-14T15:25:15Z</time></trkpt>
			<trkpt lat="54.633530" lon="20.927790"><ele>23.0</ele><time>2026-07-14T15:25:21Z</time></trkpt>
			<trkpt lat="54.633600" lon="20.928000"><ele>23.1</ele><time>2026-07-14T15:25:27Z</time></trkpt>
			<trkpt lat="54.633720" lon="20.928480"><ele>22.9</ele><time>2026-07-14T15:25:32Z</time></trkpt>
			<trkpt lat="54.633800" lon="20.928930"><ele>22.6</ele><time>2026-07-14T15:25:38Z</time></trkpt>
			<trkpt lat="54.633970" lon="20.929840"><ele>23.0</ele><time>2026-07-14T15:25:44Z</time></trkpt>
			<trkpt lat="54.634090" lon="20.930710"><ele>23.1</ele><time>2026-07-14T15:25:50Z</time></trkpt>
			<trkpt lat="54.634120" lon="20.931260"><ele>23.0</ele><time>2026-07-14T15:25:55Z</time></trkpt>
			<trkpt lat="54.634110" lon="20.931840"><ele>23.0</ele><time>2026-07-14T15:26:01Z</time></trkpt>
			<trkpt lat="54.634030" lon="20.932550"><ele>22.9</ele><time>2026-07-14T15:26:07Z</time></trkpt>
			<trkpt lat="54.633830" lon="20.933970"><ele>22.9</ele><time>2026-07-14T15:26:12Z</time></trkpt>
			<trkpt lat="54.633810" lon="20.934380"><ele>22.9</ele><time>2026-07-14T15:26:18Z</time></trkpt>
			<trkpt lat="54.633830" lon="20.934520"><ele>22.9</ele><time>2026-07-14T15:26:24Z</time></trkpt>
			<trkpt lat="54.634040" lon="20.935140"><ele>23.2</ele><time>2026-07-14T15:26:30Z</time></trkpt>
			<trkpt lat="54.634160" lon="20.935380"><ele>23.2</ele><time>2026-07-14T15:26:35Z</time></trkpt>
			<trkpt lat="54.634240" lon="20.935500"><ele>23.1</ele><time>2026-07-14T15:26:41Z</time></trkpt>
			<trkpt lat="54.634410" lon="20.935620"><ele>22.9</ele><time>2026-07-14T15:26:47Z</time></trkpt>
			<trkpt lat="54.634650" lon="20.935740"><ele>22.2</ele><time>2026-07-14T15:26:52Z</time></trkpt>
			<trkpt lat="54.634790" lon="20.935870"><ele>21.9</ele><time>2026-07-14T15:26:58Z</time></trkpt>
			<trkpt lat="54.634910" lon="20.936080"><ele>21.7</ele><time>2026-07-14T15:27:04Z</time></trkpt>
			<trkpt lat="54.635040" lon="20.936440"><ele>21.5</ele><time>2026-07-14T15:27:10Z</time></trkpt>
			<trkpt lat="54.635380" lon="20.937270"><ele>20.2</ele><time>2026-07-14T15:27:15Z</time></trkpt>
			<trkpt lat="54.635590" lon="20.937730"><ele>19.6</ele><time>2026-07-14T15:27:21Z</time></trkpt>
			<trkpt lat="54.635840" lon="20.938330"><ele>19.1</ele><time>2026-07-14T15:27:27Z</time></trkpt>
			<trkpt lat="54.636000" lon="20.939100"><ele>18.8</ele><time>2026-07-14T15:27:32Z</time></trkpt>
			<trkpt lat="54.636220" lon="20.940470"><ele>16.1</ele><time>2026-07-14T15:27:38Z</time></trkpt>
			<trkpt lat="54.636310" lon="20.940730"><ele>15.2</ele><time>2026-07-14T15:27:44Z</time></trkpt>
			<trkpt lat="54.636450" lon="20.941050"><ele>13.9</ele><time>2026-07-14T15:27:50Z</time></trkpt>
			<trkpt lat="54.636560" lon="20.941380"><ele>13.1</ele><time>2026-07-14T15:27:55Z</time></trkpt>
			<trkpt lat="54.636660" lon="20.942020"><ele>10.4</ele><time>2026-07-14T15:28:01Z</time></trkpt>
			<trkpt lat="54.636690" lon="20.942640"><ele>7.5</ele><time>2026-07-14T15:28:07Z</time></trkpt>
			<trkpt lat="54.636690" lon="20.942770"><ele>7.0</ele><time>2026-07-14T15:28:13Z</time></trkpt>
			<trkpt lat="54.636690" lon="20.943000"><ele>6.3</ele><time>2026-07-14T15:28:18Z</time></trkpt>
			<trkpt lat="54.636650" lon="20.944540"><ele>9.3</ele><time>2026-07-14T15:28:24Z</time></trkpt>
			<trkpt lat="54.636630" lon="20.945040"><ele>11.8</ele><time>2026-07-14T15:28:30Z</time></trkpt>
			<trkpt lat="54.636580" lon="20.946230"><ele>15.7</ele><time>2026-07-14T15:28:35Z</time></trkpt>
			<trkpt lat="54.636500" lon="20.947600"><ele>17.5</ele><time>2026-07-14T15:28:41Z</time></trkpt>
			<trkpt lat="54.636160" lon="20.951000"><ele>17.0</ele><time>2026-07-14T15:28:47Z</time></trkpt>
			<trkpt lat="54.636080" lon="20.951680"><ele>17.0</ele><time>2026-07-14T15:28:53Z</time></trkpt>
			<trkpt lat="54.635960" lon="20.952220"><ele>17.0</ele><time>2026-07-14T15:28:58Z</time></trkpt>
			<trkpt lat="54.635850" lon="20.952690"><ele>17.2</ele><time>2026-07-14T15:29:04Z</time></trkpt>
			<trkpt lat="54.633480" lon="20.961830"><ele>22.5</ele><time>2026-07-14T15:29:10Z</time></trkpt>
			<trkpt lat="54.633230" lon="20.962860"><ele>22.2</ele><time>2026-07-14T15:29:15Z</time></trkpt>
			<trkpt lat="54.632920" lon="20.964360"><ele>19.5</ele><time>2026-07-14T15:29:21Z</time></trkpt>
			<trkpt lat="54.630850" lon="20.975470"><ele>19.0</ele><time>2026-07-14T15:29:27Z</time></trkpt>
			<trkpt lat="54.629390" lon="20.984680"><ele>18.5</ele><time>2026-07-14T15:29:33Z</time></trkpt>
			<trkpt lat="54.629290" lon="20.985180"><ele>18.4</ele><time>2026-07-14T15:29:38Z</time></trkpt>
			<trkpt lat="54.629200" lon="20.985540"><ele>18.1</ele><time>2026-07-14T15:29:44Z</time></trkpt>
			<trkpt lat="54.628480" lon="20.987100"><ele>17.0</ele><time>2026-07-14T15:29:50Z</time></trkpt>
			<trkpt lat="54.628230" lon="20.987670"><ele>17.2</ele><time>2026-07-14T15:29:56Z</time></trkpt>
			<trkpt lat="54.628160" lon="20.987790"><ele>17.4</ele><time>2026-07-14T15:30:01Z</time></trkpt>
			<trkpt lat="54.627900" lon="20.988290"><ele>17.9</ele><time>2026-07-14T15:30:07Z</time></trkpt>
			<trkpt lat="54.627590" lon="20.988690"><ele>18.0</ele><time>2026-07-14T15:30:13Z</time></trkpt>
			<trkpt lat="54.627370" lon="20.989120"><ele>18.0</ele><time>2026-07-14T15:30:18Z</time></trkpt>
			<trkpt lat="54.627290" lon="20.989400"><ele>17.9</ele><time>2026-07-14T15:30:24Z</time></trkpt>
			<trkpt lat="54.627360" lon="20.990950"><ele>18.4</ele><time>2026-07-14T15:30:30Z</time></trkpt>
			<trkpt lat="54.627410" lon="20.991890"><ele>17.5</ele><time>2026-07-14T15:30:36Z</time></trkpt>
			<trkpt lat="54.627500" lon="20.993810"><ele>16.0</ele><time>2026-07-14T15:30:41Z</time></trkpt>
			<trkpt lat="54.627620" lon="20.996060"><ele>15.7</ele><time>2026-07-14T15:30:47Z</time></trkpt>
			<trkpt lat="54.627630" lon="20.997170"><ele>16.2</ele><time>2026-07-14T15:30:53Z</time></trkpt>
			<trkpt lat="54.627620" lon="20.997800"><ele>16.1</ele><time>2026-07-14T15:30:58Z</time></trkpt>
			<trkpt lat="54.627510" lon="21.000580"><ele>9.6</ele><time>2026-07-14T15:31:04Z</time></trkpt>
			<trkpt lat="54.627430" lon="21.003830"><ele>5.1</ele><time>2026-07-14T15:31:10Z</time></trkpt>
			<trkpt lat="54.627410" lon="21.004320"><ele>5.3</ele><time>2026-07-14T15:31:16Z</time></trkpt>
			<trkpt lat="54.627350" lon="21.005310"><ele>5.9</ele><time>2026-07-14T15:31:21Z</time></trkpt>
			<trkpt lat="54.627300" lon="21.006290"><ele>5.2</ele><time>2026-07-14T15:31:27Z</time></trkpt>
			<trkpt lat="54.627250" lon="21.006650"><ele>4.9</ele><time>2026-07-14T15:31:33Z</time></trkpt>
			<trkpt lat="54.627150" lon="21.007080"><ele>4.7</ele><time>2026-07-14T15:31:38Z</time></trkpt>
			<trkpt lat="54.626980" lon="21.007510"><ele>5.4</ele><time>2026-07-14T15:31:44Z</time></trkpt>
			<trkpt lat="54.626410" lon="21.008600"><ele>6.6</ele><time>2026-07-14T15:31:50Z</time></trkpt>
			<trkpt lat="54.626060" lon="21.009350"><ele>7.0</ele><time>2026-07-14T15:31:56Z</time></trkpt>
			<trkpt lat="54.625900" lon="21.009740"><ele>6.6</ele><time>2026-07-14T15:32:01Z</time></trkpt>
			<trkpt lat="54.625810" lon="21.009990"><ele>6.2</ele><time>2026-07-14T15:32:07Z</time></trkpt>
			<trkpt lat="54.625660" lon="21.010540"><ele>6.3</ele><time>2026-07-14T15:32:13Z</time></trkpt>
			<trkpt lat="54.625610" lon="21.010810"><ele>6.3</ele><time>2026-07-14T15:32:19Z</time></trkpt>
			<trkpt lat="54.625410" lon="21.011690"><ele>6.5</ele><time>2026-07-14T15:32:24Z</time></trkpt>
			<trkpt lat="54.625000" lon="21.013680"><ele>4.7</ele><time>2026-07-14T15:32:30Z</time></trkpt>
			<trkpt lat="54.624850" lon="21.014330"><ele>4.6</ele><time>2026-07-14T15:32:36Z</time></trkpt>
			<trkpt lat="54.624680" lon="21.014990"><ele>4.6</ele><time>2026-07-14T15:32:41Z</time></trkpt>
			<trkpt lat="54.624460" lon="21.015710"><ele>4.5</ele><time>2026-07-14T15:32:47Z</time></trkpt>
			<trkpt lat="54.624250" lon="21.016280"><ele>3.3</ele><time>2026-07-14T15:32:53Z</time></trkpt>
			<trkpt lat="54.623530" lon="21.018030"><ele>1.6</ele><time>2026-07-14T15:32:59Z</time></trkpt>
			<trkpt lat="54.622240" lon="21.021050"><ele>0.6</ele><time>2026-07-14T15:33:04Z</time></trkpt>
			<trkpt lat="54.621110" lon="21.023620"><ele>0.7</ele><time>2026-07-14T15:33:10Z</time></trkpt>
			<trkpt lat="54.619930" lon="21.026410"><ele>1.3</ele><time>2026-07-14T15:33:16Z</time></trkpt>
			<trkpt lat="54.619710" lon="21.027000"><ele>2.2</ele><time>2026-07-14T15:33:21Z</time></trkpt>
			<trkpt lat="54.619510" lon="21.027600"><ele>2.3</ele><time>2026-07-14T15:33:27Z</time></trkpt>
			<trkpt lat="54.619390" lon="21.028020"><ele>2.4</ele><time>2026-07-14T15:33:33Z</time></trkpt>
			<trkpt lat="54.619110" lon="21.029100"><ele>2.4</ele><time>2026-07-14T15:33:39Z</time></trkpt>
			<trkpt lat="54.618940" lon="21.029810"><ele>2.6</ele><time>2026-07-14T15:33:44Z</time></trkpt>
			<trkpt lat="54.618800" lon="21.030500"><ele>2.6</ele><time>2026-07-14T15:33:50Z</time></trkpt>
			<trkpt lat="54.618650" lon="21.031350"><ele>2.1</ele><time>2026-07-14T15:33:56Z</time></trkpt>
			<trkpt lat="54.618600" lon="21.031740"><ele>1.8</ele><time>2026-07-14T15:34:01Z</time></trkpt>
			<trkpt lat="54.618530" lon="21.032200"><ele>1.6</ele><time>2026-07-14T15:34:07Z</time></trkpt>
			<trkpt lat="54.618450" lon="21.033010"><ele>1.2</ele><time>2026-07-14T15:34:13Z</time></trkpt>
			<trkpt lat="54.618390" lon="21.034120"><ele>1.0</ele><time>2026-07-14T15:34:19Z</time></trkpt>
			<trkpt lat="54.618380" lon="21.035030"><ele>1.0</ele><time>2026-07-14T15:34:24Z</time></trkpt>
			<trkpt lat="54.618400" lon="21.035990"><ele>1.0</ele><time>2026-07-14T15:34:30Z</time></trkpt>
			<trkpt lat="54.618470" lon="21.037240"><ele>1.9</ele><time>2026-07-14T15:34:36Z</time></trkpt>
			<trkpt lat="54.618600" lon="21.038500"><ele>2.9</ele><time>2026-07-14T15:34:42Z</time></trkpt>
			<trkpt lat="54.618750" lon="21.039520"><ele>2.6</ele><time>2026-07-14T15:34:47Z</time></trkpt>
			<trkpt lat="54.619010" lon="21.041270"><ele>2.5</ele><time>2026-07-14T15:34:53Z</time></trkpt>
			<trkpt lat="54.619620" lon="21.045070"><ele>3.1</ele><time>2026-07-14T15:34:59Z</time></trkpt>
			<trkpt lat="54.619910" lon="21.046770"><ele>1.3</ele><time>2026-07-14T15:35:04Z</time></trkpt>
			<trkpt lat="54.620260" lon="21.048380"><ele>-0.7</ele><time>2026-07-14T15:35:10Z</time></trkpt>
			<trkpt lat="54.620450" lon="21.049000"><ele>-1.4</ele><time>2026-07-14T15:35:16Z</time></trkpt>
			<trkpt lat="54.620560" lon="21.049680"><ele>-1.7</ele><time>2026-07-14T15:35:22Z</time></trkpt>
			<trkpt lat="54.620640" lon="21.050670"><ele>-1.2</ele><time>2026-07-14T15:35:27Z</time></trkpt>
			<trkpt lat="54.620730" lon="21.051350"><ele>-0.9</ele><time>2026-07-14T15:35:33Z</time></trkpt>
			<trkpt lat="54.620810" lon="21.051870"><ele>-0.7</ele><time>2026-07-14T15:35:39Z</time></trkpt>
			<trkpt lat="54.620950" lon="21.052300"><ele>-0.5</ele><time>2026-07-14T15:35:44Z</time></trkpt>
			<trkpt lat="54.621660" lon="21.053230"><ele>-1.1</ele><time>2026-07-14T15:35:50Z</time></trkpt>
			<trkpt lat="54.622210" lon="21.054050"><ele>-0.7</ele><time>2026-07-14T15:35:56Z</time></trkpt>
			<trkpt lat="54.622330" lon="21.054320"><ele>-0.7</ele><time>2026-07-14T15:36:02Z</time></trkpt>
			<trkpt lat="54.622400" lon="21.054460"><ele>-0.6</ele><time>2026-07-14T15:36:07Z</time></trkpt>
			<trkpt lat="54.622460" lon="21.054670"><ele>-0.4</ele><time>2026-07-14T15:36:13Z</time></trkpt>
			<trkpt lat="54.622460" lon="21.054730"><ele>-0.3</ele><time>2026-07-14T15:36:19Z</time></trkpt>
			<trkpt lat="54.622460" lon="21.055000"><ele>0.0</ele><time>2026-07-14T15:36:25Z</time></trkpt>
			<trkpt lat="54.622260" lon="21.055990"><ele>3.3</ele><time>2026-07-14T15:36:30Z</time></trkpt>
			<trkpt lat="54.620860" lon="21.061090"><ele>3.0</ele><time>2026-07-14T15:36:36Z</time></trkpt>
			<trkpt lat="54.620750" lon="21.061580"><ele>2.8</ele><time>2026-07-14T15:36:42Z</time></trkpt>
			<trkpt lat="54.620690" lon="21.062020"><ele>3.0</ele><time>2026-07-14T15:36:47Z</time></trkpt>
			<trkpt lat="54.620670" lon="21.062640"><ele>3.4</ele><time>2026-07-14T15:36:53Z</time></trkpt>
			<trkpt lat="54.620670" lon="21.064220"><ele>4.6</ele><time>2026-07-14T15:36:59Z</time></trkpt>
			<trkpt lat="54.620650" lon="21.064860"><ele>4.7</ele><time>2026-07-14T15:37:05Z</time></trkpt>
			<trkpt lat="54.620570" lon="21.065390"><ele>5.0</ele><time>2026-07-14T15:37:10Z</time></trkpt>
			<trkpt lat="54.620260" lon="21.066750"><ele>5.4</ele><time>2026-07-14T15:37:16Z</time></trkpt>
			<trkpt lat="54.620140" lon="21.067370"><ele>5.9</ele><time>2026-07-14T15:37:22Z</time></trkpt>
			<trkpt lat="54.620050" lon="21.067760"><ele>6.3</ele><time>2026-07-14T15:37:27Z</time></trkpt>
			<trkpt lat="54.619980" lon="21.067980"><ele>6.6</ele><time>2026-07-14T15:37:33Z</time></trkpt>
			<trkpt lat="54.619820" lon="21.068440"><ele>6.7</ele><time>2026-07-14T15:37:39Z</time></trkpt>
			<trkpt lat="54.619510" lon="21.069250"><ele>5.1</ele><time>2026-07-14T15:37:45Z</time></trkpt>
			<trkpt lat="54.619410" lon="21.069590"><ele>4.9</ele><time>2026-07-14T15:37:50Z</time></trkpt>
			<trkpt lat="54.619360" lon="21.069860"><ele>4.7</ele><time>2026-07-14T15:37:56Z</time></trkpt>
			<trkpt lat="54.620250" lon="21.069680"><ele>4.0</ele><time>2026-07-14T15:38:02Z</time></trkpt>
			<trkpt lat="54.622830" lon="21.069190"><ele>5.0</ele><time>2026-07-14T15:38:07Z</time></trkpt>
			<trkpt lat="54.627220" lon="21.068350"><ele>14.0</ele><time>2026-07-14T15:38:13Z</time></trkpt>
			<trkpt lat="54.628780" lon="21.068050"><ele>17.2</ele><time>2026-07-14T15:38:19Z</time></trkpt>
			<trkpt lat="54.629230" lon="21.067890"><ele>17.3</ele><time>2026-07-14T15:38:25Z</time></trkpt>
			<trkpt lat="54.629560" lon="21.067720"><ele>16.7</ele><time>2026-07-14T15:38:30Z</time></trkpt>
			<trkpt lat="54.630120" lon="21.067400"><ele>14.5</ele><time>2026-07-14T15:38:36Z</time></trkpt>
			<trkpt lat="54.631030" lon="21.066850"><ele>11.0</ele><time>2026-07-14T15:38:42Z</time></trkpt>
			<trkpt lat="54.631230" lon="21.066760"><ele>10.7</ele><time>2026-07-14T15:38:48Z</time></trkpt>
			<trkpt lat="54.631460" lon="21.066840"><ele>10.5</ele><time>2026-07-14T15:38:53Z</time></trkpt>
			<trkpt lat="54.631660" lon="21.066940"><ele>10.1</ele><time>2026-07-14T15:38:59Z</time></trkpt>
			<trkpt lat="54.631790" lon="21.067040"><ele>9.8</ele><time>2026-07-14T15:39:05Z</time></trkpt>
			<trkpt lat="54.631960" lon="21.067290"><ele>8.9</ele><time>2026-07-14T15:39:10Z</time></trkpt>
			<trkpt lat="54.632070" lon="21.067570"><ele>8.1</ele><time>2026-07-14T15:39:16Z</time></trkpt>
			<trkpt lat="54.633700" lon="21.071940"><ele>3.3</ele><time>2026-07-14T15:39:22Z</time></trkpt>
			<trkpt lat="54.633830" lon="21.072250"><ele>3.2</ele><time>2026-07-14T15:39:28Z</time></trkpt>
			<trkpt lat="54.634600" lon="21.074290"><ele>3.1</ele><time>2026-07-14T15:39:33Z</time></trkpt>
			<trkpt lat="54.635180" lon="21.075910"><ele>3.2</ele><time>2026-07-14T15:39:39Z</time></trkpt>
			<trkpt lat="54.635370" lon="21.076230"><ele>3.2</ele><time>2026-07-14T15:39:45Z</time></trkpt>
			<trkpt lat="54.635540" lon="21.076420"><ele>3.5</ele><time>2026-07-14T15:39:50Z</time></trkpt>
			<trkpt lat="54.635650" lon="21.076490"><ele>3.7</ele><time>2026-07-14T15:39:56Z</time></trkpt>
			<trkpt lat="54.635750" lon="21.076460"><ele>3.8</ele><time>2026-07-14T15:40:02Z</time></trkpt>
			<trkpt lat="54.636190" lon="21.076310"><ele>4.2</ele><time>2026-07-14T15:40:08Z</time></trkpt>
			<trkpt lat="54.636880" lon="21.076130"><ele>4.4</ele><time>2026-07-14T15:40:13Z</time></trkpt>
			<trkpt lat="54.637470" lon="21.076060"><ele>4.2</ele><time>2026-07-14T15:40:19Z</time></trkpt>
			<trkpt lat="54.637730" lon="21.076010"><ele>3.6</ele><time>2026-07-14T15:40:25Z</time></trkpt>
			<trkpt lat="54.637930" lon="21.076050"><ele>3.1</ele><time>2026-07-14T15:40:31Z</time></trkpt>
			<trkpt lat="54.638050" lon="21.076140"><ele>2.8</ele><time>2026-07-14T15:40:36Z</time></trkpt>
			<trkpt lat="54.638310" lon="21.076370"><ele>2.0</ele><time>2026-07-14T15:40:42Z</time></trkpt>
			<trkpt lat="54.639910" lon="21.077610"><ele>-3.8</ele><time>2026-07-14T15:40:48Z</time></trkpt>
			<trkpt lat="54.640210" lon="21.077850"><ele>-3.6</ele><time>2026-07-14T15:40:53Z</time></trkpt>
			<trkpt lat="54.640400" lon="21.077910"><ele>-3.3</ele><time>2026-07-14T15:40:59Z</time></trkpt>
			<trkpt lat="54.640560" lon="21.077910"><ele>-3.0</ele><time>2026-07-14T15:41:05Z</time></trkpt>
			<trkpt lat="54.641070" lon="21.077650"><ele>-1.4</ele><time>2026-07-14T15:41:11Z</time></trkpt>
			<trkpt lat="54.641200" lon="21.077580"><ele>-0.8</ele><time>2026-07-14T15:41:16Z</time></trkpt>
			<trkpt lat="54.642040" lon="21.077130"><ele>1.9</ele><time>2026-07-14T15:41:22Z</time></trkpt>
			<trkpt lat="54.643410" lon="21.076420"><ele>3.6</ele><time>2026-07-14T15:41:28Z</time></trkpt>
			<trkpt lat="54.645230" lon="21.075500"><ele>1.7</ele><time>2026-07-14T15:41:33Z</time></trkpt>
			<trkpt lat="54.645780" lon="21.075260"><ele>1.1</ele><time>2026-07-14T15:41:39Z</time></trkpt>
			<trkpt lat="54.645850" lon="21.075240"><ele>1.1</ele><time>2026-07-14T15:41:45Z</time></trkpt>
			<trkpt lat="54.646020" lon="21.075190"><ele>1.3</ele><time>2026-07-14T15:41:51Z</time></trkpt>
			<trkpt lat="54.646460" lon="21.075040"><ele>2.6</ele><time>2026-07-14T15:41:56Z</time></trkpt>
			<trkpt lat="54.646900" lon="21.074920"><ele>5.4</ele><time>2026-07-14T15:42:02Z</time></trkpt>
			<trkpt lat="54.647310" lon="21.074870"><ele>9.5</ele><time>2026-07-14T15:42:08Z</time></trkpt>
			<trkpt lat="54.647430" lon="21.074840"><ele>10.8</ele><time>2026-07-14T15:42:13Z</time></trkpt>
			<trkpt lat="54.647520" lon="21.074800"><ele>11.5</ele><time>2026-07-14T15:42:19Z</time></trkpt>
			<trkpt lat="54.647580" lon="21.074710"><ele>11.8</ele><time>2026-07-14T15:42:25Z</time></trkpt>
			<trkpt lat="54.647680" lon="21.074060"><ele>13.2</ele><time>2026-07-14T15:42:31Z</time></trkpt>
			<trkpt lat="54.647720" lon="21.073740"><ele>13.5</ele><time>2026-07-14T15:42:36Z</time></trkpt>
			<trkpt lat="54.647720" lon="21.073320"><ele>13.8</ele><time>2026-07-14T15:42:42Z</time></trkpt>
			<trkpt lat="54.647780" lon="21.073090"><ele>14.0</ele><time>2026-07-14T15:42:48Z</time></trkpt>
			<trkpt lat="54.647880" lon="21.072950"><ele>14.0</ele><time>2026-07-14T15:42:54Z</time></trkpt>
			<trkpt lat="54.647890" lon="21.072950"><ele>14.0</ele><time>2026-07-14T15:42:59Z</time></trkpt>
			<trkpt lat="54.647890" lon="21.072950"><ele>14.0</ele><time>2026-07-14T15:43:05Z</time></trkpt>
			<trkpt lat="54.647880" lon="21.072950"><ele>14.0</ele><time>2026-07-14T15:43:10Z</time></trkpt>
			<trkpt lat="54.647780" lon="21.073090"><ele>13.9</ele><time>2026-07-14T15:43:15Z</time></trkpt>
			<trkpt lat="54.647720" lon="21.073320"><ele>13.8</ele><time>2026-07-14T15:43:21Z</time></trkpt>
			<trkpt lat="54.647720" lon="21.073740"><ele>13.5</ele><time>2026-07-14T15:43:26Z</time></trkpt>
			<trkpt lat="54.647680" lon="21.074060"><ele>13.1</ele><time>2026-07-14T15:43:32Z</time></trkpt>
			<trkpt lat="54.647580" lon="21.074710"><ele>11.6</ele><time>2026-07-14T15:43:37Z</time></trkpt>
			<trkpt lat="54.647520" lon="21.074800"><ele>11.2</ele><time>2026-07-14T15:43:42Z</time></trkpt>
			<trkpt lat="54.647430" lon="21.074840"><ele>10.6</ele><time>2026-07-14T15:43:48Z</time></trkpt>
			<trkpt lat="54.647310" lon="21.074870"><ele>9.5</ele><time>2026-07-14T15:43:53Z</time></trkpt>
			<trkpt lat="54.646900" lon="21.074920"><ele>5.4</ele><time>2026-07-14T15:43:59Z</time></trkpt>
			<trkpt lat="54.646460" lon="21.075040"><ele>2.5</ele><time>2026-07-14T15:44:04Z</time></trkpt>
			<trkpt lat="54.646020" lon="21.075190"><ele>1.2</ele><time>2026-07-14T15:44:09Z</time></trkpt>
			<trkpt lat="54.645850" lon="21.075240"><ele>0.8</ele><time>2026-07-14T15:44:15Z</time></trkpt>
			<trkpt lat="54.645850" lon="21.075520"><ele>0.4</ele><time>2026-07-14T15:44:20Z</time></trkpt>
			<trkpt lat="54.645870" lon="21.075700"><ele>0.3</ele><time>2026-07-14T15:44:26Z</time></trkpt>
			<trkpt lat="54.645930" lon="21.075910"><ele>0.4</ele><time>2026-07-14T15:44:31Z</time></trkpt>
			<trkpt lat="54.646260" lon="21.076860"><ele>1.4</ele><time>2026-07-14T15:44:36Z</time></trkpt>
			<trkpt lat="54.646820" lon="21.078880"><ele>-0.4</ele><time>2026-07-14T15:44:42Z</time></trkpt>
			<trkpt lat="54.646920" lon="21.079260"><ele>-1.0</ele><time>2026-07-14T15:44:47Z</time></trkpt>
			<trkpt lat="54.647370" lon="21.080780"><ele>-0.6</ele><time>2026-07-14T15:44:53Z</time></trkpt>
			<trkpt lat="54.647750" lon="21.081960"><ele>-0.6</ele><time>2026-07-14T15:44:58Z</time></trkpt>
			<trkpt lat="54.647940" lon="21.082470"><ele>-1.3</ele><time>2026-07-14T15:45:03Z</time></trkpt>
			<trkpt lat="54.648700" lon="21.084330"><ele>-1.2</ele><time>2026-07-14T15:45:09Z</time></trkpt>
			<trkpt lat="54.649400" lon="21.085790"><ele>-0.3</ele><time>2026-07-14T15:45:14Z</time></trkpt>
			<trkpt lat="54.649670" lon="21.086250"><ele>0.4</ele><time>2026-07-14T15:45:20Z</time></trkpt>
			<trkpt lat="54.649930" lon="21.086600"><ele>1.4</ele><time>2026-07-14T15:45:25Z</time></trkpt>
			<trkpt lat="54.650960" lon="21.087840"><ele>0.2</ele><time>2026-07-14T15:45:30Z</time></trkpt>
			<trkpt lat="54.651160" lon="21.088130"><ele>0.1</ele><time>2026-07-14T15:45:36Z</time></trkpt>
			<trkpt lat="54.651340" lon="21.088490"><ele>-0.0</ele><time>2026-07-14T15:45:41Z</time></trkpt>
			<trkpt lat="54.651470" lon="21.088830"><ele>-0.2</ele><time>2026-07-14T15:45:47Z</time></trkpt>
			<trkpt lat="54.651560" lon="21.089190"><ele>-0.4</ele><time>2026-07-14T15:45:52Z</time></trkpt>
			<trkpt lat="54.651640" lon="21.089580"><ele>-0.5</ele><time>2026-07-14T15:45:57Z</time></trkpt>
			<trkpt lat="54.651810" lon="21.090360"><ele>-1.0</ele><time>2026-07-14T15:46:03Z</time></trkpt>
			<trkpt lat="54.651840" lon="21.090650"><ele>-1.6</ele><time>2026-07-14T15:46:08Z</time></trkpt>
			<trkpt lat="54.651860" lon="21.090970"><ele>-2.0</ele><time>2026-07-14T15:46:14Z</time></trkpt>
			<trkpt lat="54.651850" lon="21.091200"><ele>-2.2</ele><time>2026-07-14T15:46:19Z</time></trkpt>
			<trkpt lat="54.651830" lon="21.091560"><ele>-2.4</ele><time>2026-07-14T15:46:24Z</time></trkpt>
			<trkpt lat="54.651780" lon="21.092000"><ele>-2.5</ele><time>2026-07-14T15:46:30Z</time></trkpt>
			<trkpt lat="54.651430" lon="21.095570"><ele>-7.4</ele><time>2026-07-14T15:46:35Z</time></trkpt>
			<trkpt lat="54.651380" lon="21.096000"><ele>-6.8</ele><time>2026-07-14T15:46:41Z</time></trkpt>
			<trkpt lat="54.651090" lon="21.099150"><ele>-0.3</ele><time>2026-07-14T15:46:46Z</time></trkpt>
			<trkpt lat="54.651040" lon="21.099840"><ele>-0.4</ele><time>2026-07-14T15:46:51Z</time></trkpt>
			<trkpt lat="54.651010" lon="21.100530"><ele>-0.1</ele><time>2026-07-14T15:46:57Z</time></trkpt>
			<trkpt lat="54.650940" lon="21.104010"><ele>8.4</ele><time>2026-07-14T15:47:02Z</time></trkpt>
			<trkpt lat="54.650920" lon="21.106260"><ele>20.1</ele><time>2026-07-14T15:47:08Z</time></trkpt>
			<trkpt lat="54.650780" lon="21.114960"><ele>21.9</ele><time>2026-07-14T15:47:13Z</time></trkpt>
			<trkpt lat="54.650600" lon="21.122320"><ele>17.9</ele><time>2026-07-14T15:47:18Z</time></trkpt>
			<trkpt lat="54.650590" lon="21.122820"><ele>17.8</ele><time>2026-07-14T15:47:24Z</time></trkpt>
			<trkpt lat="54.650580" lon="21.123300"><ele>17.4</ele><time>2026-07-14T15:47:29Z</time></trkpt>
			<trkpt lat="54.650530" lon="21.125470"><ele>14.0</ele><time>2026-07-14T15:47:35Z</time></trkpt>
			<trkpt lat="54.650420" lon="21.132500"><ele>19.6</ele><time>2026-07-14T15:47:40Z</time></trkpt>
			<trkpt lat="54.650250" lon="21.141050"><ele>24.5</ele><time>2026-07-14T15:47:46Z</time></trkpt>
			<trkpt lat="54.650100" lon="21.148540"><ele>27.0</ele><time>2026-07-14T15:47:51Z</time></trkpt>
			<trkpt lat="54.649950" lon="21.156830"><ele>36.6</ele><time>2026-07-14T15:47:56Z</time></trkpt>
			<trkpt lat="54.649870" lon="21.161400"><ele>35.3</ele><time>2026-07-14T15:48:02Z</time></trkpt>
			<trkpt lat="54.649810" lon="21.163530"><ele>27.9</ele><time>2026-07-14T15:48:07Z</time></trkpt>
			<trkpt lat="54.649730" lon="21.167450"><ele>25.6</ele><time>2026-07-14T15:48:13Z</time></trkpt>
			<trkpt lat="54.649690" lon="21.169490"><ele>24.3</ele><time>2026-07-14T15:48:18Z</time></trkpt>
			<trkpt lat="54.649690" lon="21.170490"><ele>24.4</ele><time>2026-07-14T15:48:23Z</time></trkpt>
			<trkpt lat="54.649650" lon="21.173540"><ele>25.3</ele><time>2026-07-14T15:48:29Z</time></trkpt>
			<trkpt lat="54.649610" lon="21.175220"><ele>26.3</ele><time>2026-07-14T15:48:34Z</time></trkpt>
			<trkpt lat="54.649600" lon="21.176070"><ele>26.5</ele><time>2026-07-14T15:48:40Z</time></trkpt>
			<trkpt lat="54.649580" lon="21.177170"><ele>26.8</ele><time>2026-07-14T15:48:45Z</time></trkpt>
			<trkpt lat="54.649470" lon="21.183380"><ele>29.2</ele><time>2026-07-14T15:48:50Z</time></trkpt>
			<trkpt lat="54.649380" lon="21.186470"><ele>31.2</ele><time>2026-07-14T15:48:56Z</time></trkpt>
			<trkpt lat="54.649260" lon="21.192090"><ele>33.3</ele><time>2026-07-14T15:49:01Z</time></trkpt>
			<trkpt lat="54.649030" lon="21.202400"><ele>16.8</ele><time>2026-07-14T15:49:07Z</time></trkpt>
			<trkpt lat="54.648950" lon="21.206150"><ele>17.3</ele><time>2026-07-14T15:49:12Z</time></trkpt>
			<trkpt lat="54.648880" lon="21.213080"><ele>15.8</ele><time>2026-07-14T15:49:17Z</time></trkpt>
			<trkpt lat="54.648760" lon="21.219720"><ele>15.8</ele><time>2026-07-14T15:49:23Z</time></trkpt>
			<trkpt lat="54.648710" lon="21.220240"><ele>15.4</ele><time>2026-07-14T15:49:28Z</time></trkpt>
			<trkpt lat="54.648680" lon="21.220450"><ele>15.3</ele><time>2026-07-14T15:49:34Z</time></trkpt>
			<trkpt lat="54.648600" lon="21.220620"><ele>15.2</ele><time>2026-07-14T15:49:39Z</time></trkpt>
			<trkpt lat="54.648360" lon="21.220770"><ele>15.1</ele><time>2026-07-14T15:49:44Z</time></trkpt>
			<trkpt lat="54.647970" lon="21.220780"><ele>15.4</ele><time>2026-07-14T15:49:50Z</time></trkpt>
			<trkpt lat="54.647290" lon="21.220750"><ele>15.7</ele><time>2026-07-14T15:49:55Z</time></trkpt>
			<trkpt lat="54.647070" lon="21.220710"><ele>15.5</ele><time>2026-07-14T15:50:01Z</time></trkpt>
			<trkpt lat="54.647010" lon="21.220690"><ele>15.5</ele><time>2026-07-14T15:50:06Z</time></trkpt>
			<trkpt lat="54.646910" lon="21.220630"><ele>15.4</ele><time>2026-07-14T15:50:11Z</time></trkpt>
			<trkpt lat="54.646870" lon="21.220590"><ele>15.5</ele><time>2026-07-14T15:50:17Z</time></trkpt>
			<trkpt lat="54.646770" lon="21.220460"><ele>15.6</ele><time>2026-07-14T15:50:22Z</time></trkpt>
			<trkpt lat="54.646730" lon="21.220390"><ele>15.6</ele><time>2026-07-14T15:50:28Z</time></trkpt>
			<trkpt lat="54.646660" lon="21.220220"><ele>15.7</ele><time>2026-07-14T15:50:33Z</time></trkpt>
			<trkpt lat="54.646590" lon="21.219970"><ele>15.9</ele><time>2026-07-14T15:50:38Z</time></trkpt>
			<trkpt lat="54.646410" lon="21.219190"><ele>16.3</ele><time>2026-07-14T15:50:44Z</time></trkpt>
			<trkpt lat="54.646270" lon="21.218500"><ele>16.1</ele><time>2026-07-14T15:50:49Z</time></trkpt>
			<trkpt lat="54.645850" lon="21.218770"><ele>16.5</ele><time>2026-07-14T15:50:55Z</time></trkpt>
			<trkpt lat="54.645100" lon="21.219240"><ele>16.7</ele><time>2026-07-14T15:51:00Z</time></trkpt>
			<trkpt lat="54.644310" lon="21.219740"><ele>15.7</ele><time>2026-07-14T15:51:05Z</time></trkpt>
			<trkpt lat="54.644110" lon="21.219860"><ele>15.8</ele><time>2026-07-14T15:51:11Z</time></trkpt>
			<trkpt lat="54.642260" lon="21.220730"><ele>14.3</ele><time>2026-07-14T15:51:16Z</time></trkpt>
			<trkpt lat="54.641960" lon="21.220930"><ele>13.5</ele><time>2026-07-14T15:51:22Z</time></trkpt>
			<trkpt lat="54.641680" lon="21.221190"><ele>12.7</ele><time>2026-07-14T15:51:27Z</time></trkpt>
			<trkpt lat="54.641110" lon="21.221960"><ele>12.8</ele><time>2026-07-14T15:51:32Z</time></trkpt>
			<trkpt lat="54.639680" lon="21.224040"><ele>17.1</ele><time>2026-07-14T15:51:38Z</time></trkpt>
			<trkpt lat="54.636460" lon="21.228660"><ele>12.5</ele><time>2026-07-14T15:51:43Z</time></trkpt>
			<trkpt lat="54.636420" lon="21.228720"><ele>12.4</ele><time>2026-07-14T15:51:49Z</time></trkpt>
			<trkpt lat="54.636280" lon="21.228890"><ele>12.2</ele><time>2026-07-14T15:51:54Z</time></trkpt>
			<trkpt lat="54.636220" lon="21.228980"><ele>12.2</ele><time>2026-07-14T15:51:59Z</time></trkpt>
			<trkpt lat="54.634300" lon="21.231770"><ele>12.6</ele><time>2026-07-14T15:52:05Z</time></trkpt>
			<trkpt lat="54.633820" lon="21.232430"><ele>11.2</ele><time>2026-07-14T15:52:10Z</time></trkpt>
			<trkpt lat="54.633580" lon="21.232650"><ele>10.8</ele><time>2026-07-14T15:52:16Z</time></trkpt>
			<trkpt lat="54.633530" lon="21.232690"><ele>10.8</ele><time>2026-07-14T15:52:21Z</time></trkpt>
			<trkpt lat="54.633170" lon="21.233030"><ele>10.0</ele><time>2026-07-14T15:52:26Z</time></trkpt>
			<trkpt lat="54.632730" lon="21.233330"><ele>9.2</ele><time>2026-07-14T15:52:32Z</time></trkpt>
			<trkpt lat="54.632280" lon="21.233570"><ele>7.9</ele><time>2026-07-14T15:52:37Z</time></trkpt>
			<trkpt lat="54.631940" lon="21.233670"><ele>6.8</ele><time>2026-07-14T15:52:43Z</time></trkpt>
			<trkpt lat="54.631730" lon="21.233720"><ele>6.1</ele><time>2026-07-14T15:52:48Z</time></trkpt>
			<trkpt lat="54.631400" lon="21.233770"><ele>5.2</ele><time>2026-07-14T15:52:53Z</time></trkpt>
			<trkpt lat="54.630850" lon="21.233880"><ele>4.0</ele><time>2026-07-14T15:52:59Z</time></trkpt>
			<trkpt lat="54.629070" lon="21.234150"><ele>3.8</ele><time>2026-07-14T15:53:04Z</time></trkpt>
			<trkpt lat="54.626210" lon="21.234610"><ele>1.5</ele><time>2026-07-14T15:53:10Z</time></trkpt>
			<trkpt lat="54.626100" lon="21.234620"><ele>1.5</ele><time>2026-07-14T15:53:15Z</time></trkpt>
			<trkpt lat="54.625790" lon="21.234660"><ele>2.0</ele><time>2026-07-14T15:53:20Z</time></trkpt>
			<trkpt lat="54.624280" lon="21.234900"><ele>5.0</ele><time>2026-07-14T15:53:26Z</time></trkpt>
			<trkpt lat="54.623370" lon="21.235050"><ele>5.5</ele><time>2026-07-14T15:53:31Z</time></trkpt>
			<trkpt lat="54.623270" lon="21.235050"><ele>5.4</ele><time>2026-07-14T15:53:37Z</time></trkpt>
			<trkpt lat="54.623200" lon="21.234960"><ele>5.3</ele><time>2026-07-14T15:53:42Z</time></trkpt>
			<trkpt lat="54.622940" lon="21.234290"><ele>3.2</ele><time>2026-07-14T15:53:47Z</time></trkpt>
			<trkpt lat="54.622790" lon="21.234070"><ele>2.3</ele><time>2026-07-14T15:53:53Z</time></trkpt>
			<trkpt lat="54.622640" lon="21.233980"><ele>1.6</ele><time>2026-07-14T15:53:58Z</time></trkpt>
			<trkpt lat="54.622490" lon="21.233980"><ele>1.1</ele><time>2026-07-14T15:54:04Z</time></trkpt>
			<trkpt lat="54.622090" lon="21.234030"><ele>0.3</ele><time>2026-07-14T15:54:09Z</time></trkpt>
			<trkpt lat="54.620230" lon="21.234410"><ele>2.1</ele><time>2026-07-14T15:54:14Z</time></trkpt>
			<trkpt lat="54.619910" lon="21.234360"><ele>3.3</ele><time>2026-07-14T15:54:20Z</time></trkpt>
			<trkpt lat="54.619700" lon="21.234400"><ele>3.9</ele><time>2026-07-14T15:54:25Z</time></trkpt>
			<trkpt lat="54.619540" lon="21.234420"><ele>4.2</ele><time>2026-07-14T15:54:31Z</time></trkpt>
			<trkpt lat="54.619260" lon="21.234450"><ele>4.8</ele><time>2026-07-14T15:54:36Z</time></trkpt>
			<trkpt lat="54.618940" lon="21.234320"><ele>4.7</ele><time>2026-07-14T15:54:41Z</time></trkpt>
			<trkpt lat="54.618820" lon="21.234170"><ele>4.6</ele><time>2026-07-14T15:54:47Z</time></trkpt>
			<trkpt lat="54.618760" lon="21.233930"><ele>4.4</ele><time>2026-07-14T15:54:52Z</time></trkpt>
			<trkpt lat="54.618770" lon="21.232760"><ele>4.4</ele><time>2026-07-14T15:54:58Z</time></trkpt>
			<trkpt lat="54.618780" lon="21.231640"><ele>5.4</ele><time>2026-07-14T15:55:03Z</time></trkpt>
			<trkpt lat="54.618780" lon="21.231530"><ele>5.3</ele><time>2026-07-14T15:55:08Z</time></trkpt>
			<trkpt lat="54.618780" lon="21.229630"><ele>3.8</ele><time>2026-07-14T15:55:14Z</time></trkpt>
			<trkpt lat="54.618780" lon="21.227850"><ele>3.8</ele><time>2026-07-14T15:55:19Z</time></trkpt>
			<trkpt lat="54.618770" lon="21.226560"><ele>3.0</ele><time>2026-07-14T15:55:25Z</time></trkpt>
			<trkpt lat="54.617890" lon="21.226260"><ele>2.0</ele><time>2026-07-14T15:55:30Z</time></trkpt>
			<trkpt lat="54.616790" lon="21.226960"><ele>2.9</ele><time>2026-07-14T15:55:35Z</time></trkpt>
			<trkpt lat="54.616430" lon="21.227160"><ele>3.5</ele><time>2026-07-14T15:55:41Z</time></trkpt>
			<trkpt lat="54.616060" lon="21.227450"><ele>5.0</ele><time>2026-07-14T15:55:46Z</time></trkpt>
			<trkpt lat="54.615490" lon="21.227850"><ele>6.4</ele><time>2026-07-14T15:55:52Z</time></trkpt>
			<trkpt lat="54.614270" lon="21.228720"><ele>7.8</ele><time>2026-07-14T15:55:57Z</time></trkpt>
			<trkpt lat="54.613850" lon="21.229020"><ele>8.7</ele><time>2026-07-14T15:56:02Z</time></trkpt>
			<trkpt lat="54.613760" lon="21.229190"><ele>9.1</ele><time>2026-07-14T15:56:08Z</time></trkpt>
			<trkpt lat="54.613600" lon="21.229530"><ele>9.8</ele><time>2026-07-14T15:56:13Z</time></trkpt>
			<trkpt lat="54.613470" lon="21.229690"><ele>10.4</ele><time>2026-07-14T15:56:19Z</time></trkpt>
			<trkpt lat="54.613290" lon="21.229850"><ele>11.1</ele><time>2026-07-14T15:56:24Z</time></trkpt>
			<trkpt lat="54.613200" lon="21.229940"><ele>11.5</ele><time>2026-07-14T15:56:29Z</time></trkpt>
			<trkpt lat="54.612160" lon="21.230590"><ele>12.9</ele><time>2026-07-14T15:56:35Z</time></trkpt>
			<trkpt lat="54.611790" lon="21.230780"><ele>12.5</ele><time>2026-07-14T15:56:40Z</time></trkpt>
			<trkpt lat="54.611530" lon="21.231050"><ele>11.8</ele><time>2026-07-14T15:56:46Z</time></trkpt>
			<trkpt lat="54.611330" lon="21.231420"><ele>10.4</ele><time>2026-07-14T15:56:51Z</time></trkpt>
			<trkpt lat="54.610780" lon="21.232740"><ele>11.8</ele><time>2026-07-14T15:56:56Z</time></trkpt>
			<trkpt lat="54.610660" lon="21.233310"><ele>12.3</ele><time>2026-07-14T15:57:02Z</time></trkpt>
			<trkpt lat="54.610410" lon="21.234910"><ele>15.4</ele><time>2026-07-14T15:57:07Z</time></trkpt>
			<trkpt lat="54.610320" lon="21.235470"><ele>16.5</ele><time>2026-07-14T15:57:13Z</time></trkpt>
			<trkpt lat="54.609350" lon="21.241710"><ele>19.0</ele><time>2026-07-14T15:57:18Z</time></trkpt>
			<trkpt lat="54.609280" lon="21.242140"><ele>18.7</ele><time>2026-07-14T15:57:23Z</time></trkpt>
			<trkpt lat="54.609200" lon="21.242510"><ele>18.0</ele><time>2026-07-14T15:57:29Z</time></trkpt>
			<trkpt lat="54.608990" lon="21.243210"><ele>18.1</ele><time>2026-07-14T15:57:34Z</time></trkpt>
			<trkpt lat="54.608870" lon="21.243520"><ele>18.7</ele><time>2026-07-14T15:57:40Z</time></trkpt>
			<trkpt lat="54.608740" lon="21.243810"><ele>19.8</ele><time>2026-07-14T15:57:45Z</time></trkpt>
			<trkpt lat="54.608420" lon="21.244390"><ele>22.0</ele><time>2026-07-14T15:57:50Z</time></trkpt>
			<trkpt lat="54.606440" lon="21.248000"><ele>21.0</ele><time>2026-07-14T15:57:56Z</time></trkpt>
			<trkpt lat="54.606230" lon="21.248460"><ele>20.6</ele><time>2026-07-14T15:58:01Z</time></trkpt>
			<trkpt lat="54.605900" lon="21.249260"><ele>21.2</ele><time>2026-07-14T15:58:07Z</time></trkpt>
			<trkpt lat="54.605730" lon="21.249610"><ele>21.7</ele><time>2026-07-14T15:58:12Z</time></trkpt>
			<trkpt lat="54.605610" lon="21.249830"><ele>22.0</ele><time>2026-07-14T15:58:17Z</time></trkpt>
			<trkpt lat="54.605260" lon="21.250360"><ele>22.7</ele><time>2026-07-14T15:58:23Z</time></trkpt>
			<trkpt lat="54.604810" lon="21.250920"><ele>23.9</ele><time>2026-07-14T15:58:28Z</time></trkpt>
			<trkpt lat="54.604290" lon="21.251530"><ele>25.3</ele><time>2026-07-14T15:58:34Z</time></trkpt>
			<trkpt lat="54.601940" lon="21.254340"><ele>24.1</ele><time>2026-07-14T15:58:39Z</time></trkpt>
			<trkpt lat="54.601230" lon="21.255190"><ele>23.6</ele><time>2026-07-14T15:58:44Z</time></trkpt>
			<trkpt lat="54.597960" lon="21.259230"><ele>21.1</ele><time>2026-07-14T15:58:50Z</time></trkpt>
			<trkpt lat="54.593370" lon="21.264900"><ele>18.7</ele><time>2026-07-14T15:58:55Z</time></trkpt>
			<trkpt lat="54.591980" lon="21.266380"><ele>18.5</ele><time>2026-07-14T15:59:01Z</time></trkpt>
			<trkpt lat="54.591190" lon="21.266960"><ele>19.0</ele><time>2026-07-14T15:59:06Z</time></trkpt>
			<trkpt lat="54.590510" lon="21.267290"><ele>20.4</ele><time>2026-07-14T15:59:11Z</time></trkpt>
			<trkpt lat="54.590340" lon="21.267390"><ele>21.0</ele><time>2026-07-14T15:59:17Z</time></trkpt>
			<trkpt lat="54.590060" lon="21.267550"><ele>21.5</ele><time>2026-07-14T15:59:22Z</time></trkpt>
			<trkpt lat="54.588970" lon="21.268130"><ele>20.0</ele><time>2026-07-14T15:59:28Z</time></trkpt>
			<trkpt lat="54.586590" lon="21.269410"><ele>19.0</ele><time>2026-07-14T15:59:33Z</time></trkpt>
			<trkpt lat="54.584490" lon="21.270570"><ele>20.8</ele><time>2026-07-14T15:59:38Z</time></trkpt>
			<trkpt lat="54.583630" lon="21.271020"><ele>20.9</ele><time>2026-07-14T15:59:44Z</time></trkpt>
			<trkpt lat="54.582800" lon="21.271480"><ele>20.9</ele><time>2026-07-14T15:59:49Z</time></trkpt>
			<trkpt lat="54.580780" lon="21.272560"><ele>20.2</ele><time>2026-07-14T15:59:55Z</time></trkpt>
			<trkpt lat="54.580330" lon="21.272770"><ele>20.6</ele><time>2026-07-14T16:00:00Z</time></trkpt>
			<trkpt lat="54.578400" lon="21.273290"><ele>20.8</ele><time>2026-07-14T16:00:05Z</time></trkpt>
			<trkpt lat="54.578290" lon="21.273330"><ele>20.8</ele><time>2026-07-14T16:00:11Z</time></trkpt>
			<trkpt lat="54.578120" lon="21.273350"><ele>20.7</ele><time>2026-07-14T16:00:16Z</time></trkpt>
			<trkpt lat="54.577960" lon="21.273350"><ele>20.6</ele><time>2026-07-14T16:00:22Z</time></trkpt>
			<trkpt lat="54.577690" lon="21.273320"><ele>20.2</ele><time>2026-07-14T16:00:27Z</time></trkpt>
			<trkpt lat="54.577250" lon="21.273210"><ele>19.7</ele><time>2026-07-14T16:00:32Z</time></trkpt>
			<trkpt lat="54.576520" lon="21.273020"><ele>18.5</ele><time>2026-07-14T16:00:38Z</time></trkpt>
			<trkpt lat="54.576320" lon="21.272930"><ele>18.0</ele><time>2026-07-14T16:00:43Z</time></trkpt>
			<trkpt lat="54.576200" lon="21.272850"><ele>17.7</ele><time>2026-07-14T16:00:49Z</time></trkpt>
			<trkpt lat="54.576030" lon="21.272680"><ele>17.3</ele><time>2026-07-14T16:00:54Z</time></trkpt>
			<trkpt lat="54.575860" lon="21.272440"><ele>16.6</ele><time>2026-07-14T16:00:59Z</time></trkpt>
			<trkpt lat="54.575500" lon="21.271840"><ele>14.1</ele><time>2026-07-14T16:01:05Z</time></trkpt>
			<trkpt lat="54.575390" lon="21.271680"><ele>13.5</ele><time>2026-07-14T16:01:10Z</time></trkpt>
			<trkpt lat="54.575290" lon="21.271580"><ele>13.1</ele><time>2026-07-14T16:01:16Z</time></trkpt>
			<trkpt lat="54.575170" lon="21.271510"><ele>12.7</ele><time>2026-07-14T16:01:21Z</time></trkpt>
			<trkpt lat="54.575050" lon="21.271500"><ele>12.5</ele><time>2026-07-14T16:01:26Z</time></trkpt>
			<trkpt lat="54.574780" lon="21.271580"><ele>12.2</ele><time>2026-07-14T16:01:32Z</time></trkpt>
			<trkpt lat="54.573110" lon="21.272350"><ele>17.1</ele><time>2026-07-14T16:01:37Z</time></trkpt>
			<trkpt lat="54.572710" lon="21.272620"><ele>17.0</ele><time>2026-07-14T16:01:43Z</time></trkpt>
			<trkpt lat="54.569770" lon="21.274830"><ele>19.8</ele><time>2026-07-14T16:01:48Z</time></trkpt>
			<trkpt lat="54.562060" lon="21.280370"><ele>20.6</ele><time>2026-07-14T16:01:53Z</time></trkpt>
			<trkpt lat="54.560000" lon="21.281940"><ele>20.6</ele><time>2026-07-14T16:01:59Z</time></trkpt>
			<trkpt lat="54.554930" lon="21.287400"><ele>31.3</ele><time>2026-07-14T16:02:04Z</time></trkpt>
			<trkpt lat="54.553100" lon="21.289940"><ele>31.3</ele><time>2026-07-14T16:02:10Z</time></trkpt>
			<trkpt lat="54.553100" lon="21.289950"><ele>31.3</ele><time>2026-07-14T16:02:17Z</time></trkpt>
			<trkpt lat="54.552440" lon="21.290870"><ele>31.0</ele><time>2026-07-14T16:02:24Z</time></trkpt>
			<trkpt lat="54.548300" lon="21.298960"><ele>32.2</ele><time>2026-07-14T16:02:31Z</time></trkpt>
			<trkpt lat="54.547370" lon="21.300380"><ele>31.7</ele><time>2026-07-14T16:02:38Z</time></trkpt>
			<trkpt lat="54.545100" lon="21.301560"><ele>30.3</ele><time>2026-07-14T16:02:45Z</time></trkpt>
			<trkpt lat="54.543420" lon="21.302460"><ele>28.1</ele><time>2026-07-14T16:02:52Z</time></trkpt>
			<trkpt lat="54.540030" lon="21.304540"><ele>26.0</ele><time>2026-07-14T16:02:59Z</time></trkpt>
			<trkpt lat="54.532890" lon="21.308990"><ele>25.7</ele><time>2026-07-14T16:03:06Z</time></trkpt>
			<trkpt lat="54.528670" lon="21.311920"><ele>23.2</ele><time>2026-07-14T16:03:13Z</time></trkpt>
			<trkpt lat="54.526320" lon="21.313380"><ele>23.1</ele><time>2026-07-14T16:03:20Z</time></trkpt>
			<trkpt lat="54.524160" lon="21.314820"><ele>30.3</ele><time>2026-07-14T16:03:27Z</time></trkpt>
			<trkpt lat="54.522720" lon="21.315770"><ele>32.6</ele><time>2026-07-14T16:03:34Z</time></trkpt>
			<trkpt lat="54.519170" lon="21.318130"><ele>34.6</ele><time>2026-07-14T16:03:41Z</time></trkpt>
			<trkpt lat="54.518920" lon="21.318310"><ele>33.2</ele><time>2026-07-14T16:03:48Z</time></trkpt>
			<trkpt lat="54.518760" lon="21.318480"><ele>31.6</ele><time>2026-07-14T16:03:55Z</time></trkpt>
			<trkpt lat="54.518630" lon="21.318670"><ele>30.2</ele><time>2026-07-14T16:04:02Z</time></trkpt>
			<trkpt lat="54.518480" lon="21.318980"><ele>28.6</ele><time>2026-07-14T16:04:09Z</time></trkpt>
			<trkpt lat="54.517730" lon="21.320820"><ele>23.7</ele><time>2026-07-14T16:04:16Z</time></trkpt>
			<trkpt lat="54.514450" lon="21.328660"><ele>23.1</ele><time>2026-07-14T16:04:23Z</time></trkpt>
			<trkpt lat="54.514270" lon="21.329080"><ele>23.1</ele><time>2026-07-14T16:04:30Z</time></trkpt>
			<trkpt lat="54.514140" lon="21.329290"><ele>22.6</ele><time>2026-07-14T16:04:37Z</time></trkpt>
			<trkpt lat="54.513990" lon="21.329400"><ele>21.9</ele><time>2026-07-14T16:04:44Z</time></trkpt>
			<trkpt lat="54.513800" lon="21.329480"><ele>21.0</ele><time>2026-07-14T16:04:51Z</time></trkpt>
			<trkpt lat="54.513280" lon="21.329480"><ele>20.2</ele><time>2026-07-14T16:04:58Z</time></trkpt>
			<trkpt lat="54.512990" lon="21.329490"><ele>22.3</ele><time>2026-07-14T16:05:05Z</time></trkpt>
			<trkpt lat="54.510650" lon="21.329550"><ele>25.1</ele><time>2026-07-14T16:05:13Z</time></trkpt>
			<trkpt lat="54.509610" lon="21.329580"><ele>27.2</ele><time>2026-07-14T16:05:20Z</time></trkpt>
			<trkpt lat="54.509120" lon="21.329610"><ele>27.3</ele><time>2026-07-14T16:05:27Z</time></trkpt>
			<trkpt lat="54.508540" lon="21.329650"><ele>26.5</ele><time>2026-07-14T16:05:34Z</time></trkpt>
			<trkpt lat="54.508360" lon="21.329680"><ele>26.0</ele><time>2026-07-14T16:05:41Z</time></trkpt>
			<trkpt lat="54.508240" lon="21.329790"><ele>25.6</ele><time>2026-07-14T16:05:48Z</time></trkpt>
			<trkpt lat="54.508160" lon="21.328940"><ele>22.6</ele><time>2026-07-14T16:05:55Z</time></trkpt>
			<trkpt lat="54.508130" lon="21.328680"><ele>21.3</ele><time>2026-07-14T16:06:02Z</time></trkpt>
			<trkpt lat="54.508000" lon="21.328460"><ele>19.7</ele><time>2026-07-14T16:06:09Z</time></trkpt>
			<trkpt lat="54.507560" lon="21.328020"><ele>15.5</ele><time>2026-07-14T16:06:16Z</time></trkpt>
			<trkpt lat="54.507440" lon="21.327780"><ele>14.6</ele><time>2026-07-14T16:06:23Z</time></trkpt>
			<trkpt lat="54.507290" lon="21.327240"><ele>15.5</ele><time>2026-07-14T16:06:30Z</time></trkpt>
			<trkpt lat="54.507220" lon="21.326880"><ele>16.8</ele><time>2026-07-14T16:06:37Z</time></trkpt>
			<trkpt lat="54.507150" lon="21.326570"><ele>18.0</ele><time>2026-07-14T16:06:44Z</time></trkpt>
			<trkpt lat="54.507130" lon="21.326350"><ele>19.0</ele><time>2026-07-14T16:06:51Z</time></trkpt>
			<trkpt lat="54.507180" lon="21.326060"><ele>20.0</ele><time>2026-07-14T16:06:58Z</time></trkpt>
			<trkpt lat="54.507240" lon="21.325990"><ele>19.9</ele><time>2026-07-14T16:07:05Z</time></trkpt>
			<trkpt lat="54.507390" lon="21.325940"><ele>19.7</ele><time>2026-07-14T16:07:12Z</time></trkpt>
			<trkpt lat="54.507770" lon="21.325900"><ele>18.6</ele><time>2026-07-14T16:07:19Z</time></trkpt>
			<trkpt lat="54.507940" lon="21.325800"><ele>18.0</ele><time>2026-07-14T16:07:26Z</time></trkpt>
			<trkpt lat="54.508200" lon="21.325100"><ele>17.0</ele><time>2026-07-14T16:07:33Z</time></trkpt>
			<trkpt lat="54.508490" lon="21.324080"><ele>18.9</ele><time>2026-07-14T16:07:40Z</time></trkpt>
			<trkpt lat="54.508740" lon="21.322840"><ele>21.2</ele><time>2026-07-14T16:07:47Z</time></trkpt>
			<trkpt lat="54.508770" lon="21.322410"><ele>21.6</ele><time>2026-07-14T16:07:54Z</time></trkpt>
			<trkpt lat="54.508740" lon="21.322000"><ele>22.1</ele><time>2026-07-14T16:08:01Z</time></trkpt>
			<trkpt lat="54.507880" lon="21.317140"><ele>24.0</ele><time>2026-07-14T16:08:08Z</time></trkpt>
			<trkpt lat="54.506640" lon="21.310130"><ele>23.1</ele><time>2026-07-14T16:08:15Z</time></trkpt>
			<trkpt lat="54.505950" lon="21.306440"><ele>24.5</ele><time>2026-07-14T16:08:22Z</time></trkpt>
			<trkpt lat="54.505100" lon="21.302220"><ele>23.2</ele><time>2026-07-14T16:08:29Z</time></trkpt>
			<trkpt lat="54.504940" lon="21.301240"><ele>24.5</ele><time>2026-07-14T16:08:36Z</time></trkpt>
			<trkpt lat="54.504900" lon="21.301000"><ele>24.8</ele><time>2026-07-14T16:08:43Z</time></trkpt>
			<trkpt lat="54.504560" lon="21.298160"><ele>28.2</ele><time>2026-07-14T16:08:51Z</time></trkpt>
			<trkpt lat="54.504380" lon="21.297410"><ele>30.7</ele><time>2026-07-14T16:08:58Z</time></trkpt>
			<trkpt lat="54.503660" lon="21.296390"><ele>32.4</ele><time>2026-07-14T16:09:05Z</time></trkpt>
			<trkpt lat="54.503360" lon="21.295540"><ele>31.2</ele><time>2026-07-14T16:09:12Z</time></trkpt>
			<trkpt lat="54.503170" lon="21.294010"><ele>28.8</ele><time>2026-07-14T16:09:19Z</time></trkpt>
			<trkpt lat="54.503100" lon="21.292560"><ele>27.7</ele><time>2026-07-14T16:09:26Z</time></trkpt>
			<trkpt lat="54.503100" lon="21.292560"><ele>27.7</ele><time>2026-07-14T16:09:33Z</time></trkpt>
			<trkpt lat="54.503090" lon="21.292220"><ele>28.1</ele><time>2026-07-14T16:09:39Z</time></trkpt>
			<trkpt lat="54.502850" lon="21.289290"><ele>28.2</ele><time>2026-07-14T16:09:46Z</time></trkpt>
			<trkpt lat="54.502670" lon="21.287750"><ele>27.9</ele><time>2026-07-14T16:09:53Z</time></trkpt>
			<trkpt lat="54.502410" lon="21.286080"><ele>26.0</ele><time>2026-07-14T16:10:00Z</time></trkpt>
			<trkpt lat="54.502270" lon="21.285010"><ele>26.3</ele><time>2026-07-14T16:10:07Z</time></trkpt>
			<trkpt lat="54.502230" lon="21.283900"><ele>25.2</ele><time>2026-07-14T16:10:14Z</time></trkpt>
			<trkpt lat="54.502300" lon="21.282630"><ele>28.7</ele><time>2026-07-14T16:10:21Z</time></trkpt>
			<trkpt lat="54.502490" lon="21.281830"><ele>30.3</ele><time>2026-07-14T16:10:28Z</time></trkpt>
			<trkpt lat="54.502820" lon="21.280870"><ele>27.5</ele><time>2026-07-14T16:10:35Z</time></trkpt>
			<trkpt lat="54.503100" lon="21.279840"><ele>23.0</ele><time>2026-07-14T16:10:42Z</time></trkpt>
			<trkpt lat="54.503800" lon="21.270470"><ele>21.0</ele><time>2026-07-14T16:10:49Z</time></trkpt>
			<trkpt lat="54.504350" lon="21.261580"><ele>14.8</ele><time>2026-07-14T16:10:55Z</time></trkpt>
			<trkpt lat="54.504470" lon="21.259160"><ele>10.4</ele><time>2026-07-14T16:11:02Z</time></trkpt>
			<trkpt lat="54.504480" lon="21.258780"><ele>10.0</ele><time>2026-07-14T16:11:09Z</time></trkpt>
			<trkpt lat="54.504450" lon="21.258440"><ele>10.1</ele><time>2026-07-14T16:11:16Z</time></trkpt>
			<trkpt lat="54.504420" lon="21.258330"><ele>10.1</ele><time>2026-07-14T16:11:23Z</time></trkpt>
			<trkpt lat="54.504250" lon="21.257610"><ele>11.7</ele><time>2026-07-14T16:11:30Z</time></trkpt>
			<trkpt lat="54.504240" lon="21.257540"><ele>11.9</ele><time>2026-07-14T16:11:37Z</time></trkpt>
			<trkpt lat="54.504170" lon="21.257320"><ele>12.6</ele><time>2026-07-14T16:11:44Z</time></trkpt>
			<trkpt lat="54.504080" lon="21.257080"><ele>13.4</ele><time>2026-07-14T16:11:51Z</time></trkpt>
			<trkpt lat="54.503870" lon="21.256740"><ele>14.4</ele><time>2026-07-14T16:11:58Z</time></trkpt>
			<trkpt lat="54.503770" lon="21.256510"><ele>14.8</ele><time>2026-07-14T16:12:04Z</time></trkpt>
			<trkpt lat="54.503650" lon="21.256220"><ele>15.1</ele><time>2026-07-14T16:12:11Z</time></trkpt>
			<trkpt lat="54.503490" lon="21.255800"><ele>15.2</ele><time>2026-07-14T16:12:18Z</time></trkpt>
			<trkpt lat="54.502880" lon="21.254040"><ele>13.5</ele><time>2026-07-14T16:12:25Z</time></trkpt>
			<trkpt lat="54.501570" lon="21.250230"><ele>13.6</ele><time>2026-07-14T16:12:32Z</time></trkpt>
			<trkpt lat="54.501130" lon="21.248460"><ele>12.5</ele><time>2026-07-14T16:12:39Z</time></trkpt>
			<trkpt lat="54.499920" lon="21.242350"><ele>13.3</ele><time>2026-07-14T16:12:46Z</time></trkpt>
			<trkpt lat="54.498120" lon="21.233060"><ele>12.8</ele><time>2026-07-14T16:12:53Z</time></trkpt>
			<trkpt lat="54.498120" lon="21.232510"><ele>13.0</ele><time>2026-07-14T16:13:00Z</time></trkpt>
			<trkpt lat="54.498350" lon="21.231150"><ele>10.9</ele><time>2026-07-14T16:13:07Z</time></trkpt>
			<trkpt lat="54.498670" lon="21.229590"><ele>6.7</ele><time>2026-07-14T16:13:14Z</time></trkpt>
			<trkpt lat="54.498750" lon="21.228420"><ele>7.9</ele><time>2026-07-14T16:13:20Z</time></trkpt>
			<trkpt lat="54.498760" lon="21.227880"><ele>9.4</ele><time>2026-07-14T16:13:27Z</time></trkpt>
			<trkpt lat="54.498760" lon="21.227090"><ele>11.7</ele><time>2026-07-14T16:13:34Z</time></trkpt>
			<trkpt lat="54.498760" lon="21.226690"><ele>12.9</ele><time>2026-07-14T16:13:41Z</time></trkpt>
			<trkpt lat="54.498570" lon="21.225550"><ele>14.3</ele><time>2026-07-14T16:13:48Z</time></trkpt>
			<trkpt lat="54.498170" lon="21.224030"><ele>16.0</ele><time>2026-07-14T16:13:55Z</time></trkpt>
			<trkpt lat="54.497970" lon="21.223330"><ele>16.5</ele><time>2026-07-14T16:14:02Z</time></trkpt>
			<trkpt lat="54.497840" lon="21.222870"><ele>17.2</ele><time>2026-07-14T16:14:09Z</time></trkpt>
			<trkpt lat="54.497550" lon="21.221740"><ele>17.8</ele><time>2026-07-14T16:14:16Z</time></trkpt>
			<trkpt lat="54.497290" lon="21.220680"><ele>17.1</ele><time>2026-07-14T16:14:23Z</time></trkpt>
			<trkpt lat="54.495940" lon="21.213280"><ele>19.9</ele><time>2026-07-14T16:14:29Z</time></trkpt>
			<trkpt lat="54.494540" lon="21.205690"><ele>12.5</ele><time>2026-07-14T16:14:36Z</time></trkpt>
			<trkpt lat="54.494230" lon="21.204110"><ele>10.6</ele><time>2026-07-14T16:14:43Z</time></trkpt>
			<trkpt lat="54.494160" lon="21.203650"><ele>10.2</ele><time>2026-07-14T16:14:50Z</time></trkpt>
			<trkpt lat="54.494170" lon="21.203450"><ele>10.0</ele><time>2026-07-14T16:14:57Z</time></trkpt>
			<trkpt lat="54.494280" lon="21.202840"><ele>8.9</ele><time>2026-07-14T16:15:04Z</time></trkpt>
			<trkpt lat="54.494280" lon="21.202310"><ele>8.9</ele><time>2026-07-14T16:15:11Z</time></trkpt>
			<trkpt lat="54.493830" lon="21.197530"><ele>8.3</ele><time>2026-07-14T16:15:18Z</time></trkpt>
			<trkpt lat="54.493800" lon="21.197200"><ele>8.7</ele><time>2026-07-14T16:15:25Z</time></trkpt>
			<trkpt lat="54.493760" lon="21.196700"><ele>9.2</ele><time>2026-07-14T16:15:32Z</time></trkpt>
			<trkpt lat="54.493740" lon="21.194850"><ele>6.7</ele><time>2026-07-14T16:15:38Z</time></trkpt>
			<trkpt lat="54.493700" lon="21.194470"><ele>6.6</ele><time>2026-07-14T16:15:45Z</time></trkpt>
			<trkpt lat="54.493630" lon="21.194240"><ele>6.7</ele><time>2026-07-14T16:15:52Z</time></trkpt>
			<trkpt lat="54.493540" lon="21.194010"><ele>6.9</ele><time>2026-07-14T16:15:59Z</time></trkpt>
			<trkpt lat="54.493180" lon="21.193250"><ele>8.0</ele><time>2026-07-14T16:16:06Z</time></trkpt>
			<trkpt lat="54.492890" lon="21.192750"><ele>8.4</ele><time>2026-07-14T16:16:13Z</time></trkpt>
			<trkpt lat="54.492800" lon="21.192660"><ele>8.5</ele><time>2026-07-14T16:16:20Z</time></trkpt>
			<trkpt lat="54.492720" lon="21.192570"><ele>8.7</ele><time>2026-07-14T16:16:27Z</time></trkpt>
			<trkpt lat="54.492580" lon="21.192440"><ele>9.0</ele><time>2026-07-14T16:16:34Z</time></trkpt>
			<trkpt lat="54.492070" lon="21.192160"><ele>9.9</ele><time>2026-07-14T16:16:41Z</time></trkpt>
			<trkpt lat="54.491930" lon="21.192070"><ele>10.2</ele><time>2026-07-14T16:16:48Z</time></trkpt>
			<trkpt lat="54.491560" lon="21.191690"><ele>11.1</ele><time>2026-07-14T16:16:54Z</time></trkpt>
			<trkpt lat="54.491110" lon="21.192610"><ele>12.0</ele><time>2026-07-14T16:17:01Z</time></trkpt>
			<trkpt lat="54.490700" lon="21.193480"><ele>12.6</ele><time>2026-07-14T16:17:08Z</time></trkpt>
			<trkpt lat="54.490010" lon="21.195230"><ele>14.8</ele><time>2026-07-14T16:17:15Z</time></trkpt>
			<trkpt lat="54.489700" lon="21.196160"><ele>14.0</ele><time>2026-07-14T16:17:22Z</time></trkpt>
			<trkpt lat="54.489030" lon="21.198110"><ele>14.0</ele><time>2026-07-14T16:17:29Z</time></trkpt>
			<trkpt lat="54.488820" lon="21.198770"><ele>13.8</ele><time>2026-07-14T16:17:36Z</time></trkpt>
			<trkpt lat="54.488660" lon="21.198550"><ele>13.9</ele><time>2026-07-14T16:17:43Z</time></trkpt>
			<trkpt lat="54.485950" lon="21.194670"><ele>5.5</ele><time>2026-07-14T16:17:50Z</time></trkpt>
			<trkpt lat="54.485810" lon="21.194490"><ele>5.1</ele><time>2026-07-14T16:17:57Z</time></trkpt>
			<trkpt lat="54.485670" lon="21.194340"><ele>5.0</ele><time>2026-07-14T16:18:03Z</time></trkpt>
			<trkpt lat="54.485500" lon="21.194280"><ele>5.5</ele><time>2026-07-14T16:18:10Z</time></trkpt>
			<trkpt lat="54.483510" lon="21.195110"><ele>8.4</ele><time>2026-07-14T16:18:17Z</time></trkpt>
			<trkpt lat="54.483000" lon="21.195290"><ele>8.8</ele><time>2026-07-14T16:18:24Z</time></trkpt>
			<trkpt lat="54.482660" lon="21.195280"><ele>9.6</ele><time>2026-07-14T16:18:31Z</time></trkpt>
			<trkpt lat="54.482260" lon="21.195220"><ele>10.3</ele><time>2026-07-14T16:18:38Z</time></trkpt>
			<trkpt lat="54.481900" lon="21.195070"><ele>10.8</ele><time>2026-07-14T16:18:45Z</time></trkpt>
			<trkpt lat="54.481350" lon="21.194710"><ele>10.4</ele><time>2026-07-14T16:18:52Z</time></trkpt>
			<trkpt lat="54.480800" lon="21.194250"><ele>10.1</ele><time>2026-07-14T16:18:59Z</time></trkpt>
			<trkpt lat="54.480240" lon="21.193740"><ele>9.1</ele><time>2026-07-14T16:19:06Z</time></trkpt>
			<trkpt lat="54.479820" lon="21.193250"><ele>8.5</ele><time>2026-07-14T16:19:13Z</time></trkpt>
			<trkpt lat="54.479520" lon="21.192710"><ele>9.1</ele><time>2026-07-14T16:19:19Z</time></trkpt>
			<trkpt lat="54.479110" lon="21.191600"><ele>10.8</ele><time>2026-07-14T16:19:26Z</time></trkpt>
			<trkpt lat="54.478800" lon="21.190530"><ele>10.2</ele><time>2026-07-14T16:19:33Z</time></trkpt>
			<trkpt lat="54.471340" lon="21.156980"><ele>17.7</ele><time>2026-07-14T16:19:40Z</time></trkpt>
			<trkpt lat="54.468040" lon="21.142190"><ele>19.8</ele><time>2026-07-14T16:19:47Z</time></trkpt>
			<trkpt lat="54.467810" lon="21.140860"><ele>18.6</ele><time>2026-07-14T16:19:54Z</time></trkpt>
			<trkpt lat="54.467400" lon="21.137390"><ele>22.6</ele><time>2026-07-14T16:20:01Z</time></trkpt>
			<trkpt lat="54.466860" lon="21.132540"><ele>20.5</ele><time>2026-07-14T16:20:08Z</time></trkpt>
			<trkpt lat="54.466730" lon="21.131260"><ele>21.4</ele><time>2026-07-14T16:20:15Z</time></trkpt>
			<trkpt lat="54.466310" lon="21.127380"><ele>23.1</ele><time>2026-07-14T16:20:22Z</time></trkpt>
			<trkpt lat="54.466240" lon="21.126600"><ele>24.2</ele><time>2026-07-14T16:20:28Z</time></trkpt>
			<trkpt lat="54.466060" lon="21.124340"><ele>25.5</ele><time>2026-07-14T16:20:35Z</time></trkpt>
			<trkpt lat="54.466010" lon="21.123530"><ele>25.1</ele><time>2026-07-14T16:20:42Z</time></trkpt>
			<trkpt lat="54.466010" lon="21.123460"><ele>25.0</ele><time>2026-07-14T16:20:49Z</time></trkpt>
			<trkpt lat="54.465890" lon="21.121610"><ele>24.2</ele><time>2026-07-14T16:20:56Z</time></trkpt>
			<trkpt lat="54.465580" lon="21.114610"><ele>21.3</ele><time>2026-07-14T16:21:03Z</time></trkpt>
			<trkpt lat="54.465210" lon="21.107070"><ele>22.5</ele><time>2026-07-14T16:21:10Z</time></trkpt>
			<trkpt lat="54.464870" lon="21.099300"><ele>23.0</ele><time>2026-07-14T16:21:17Z</time></trkpt>
			<trkpt lat="54.464840" lon="21.098760"><ele>22.6</ele><time>2026-07-14T16:21:24Z</time></trkpt>
			<trkpt lat="54.464580" lon="21.096200"><ele>22.0</ele><time>2026-07-14T16:21:31Z</time></trkpt>
			<trkpt lat="54.464390" lon="21.094330"><ele>21.6</ele><time>2026-07-14T16:21:37Z</time></trkpt>
			<trkpt lat="54.463910" lon="21.089900"><ele>22.7</ele><time>2026-07-14T16:21:44Z</time></trkpt>
			<trkpt lat="54.463800" lon="21.089190"><ele>22.7</ele><time>2026-07-14T16:21:51Z</time></trkpt>
			<trkpt lat="54.463040" lon="21.086550"><ele>22.6</ele><time>2026-07-14T16:21:58Z</time></trkpt>
			<trkpt lat="54.461330" lon="21.081010"><ele>21.9</ele><time>2026-07-14T16:22:05Z</time></trkpt>
			<trkpt lat="54.461150" lon="21.080350"><ele>23.4</ele><time>2026-07-14T16:22:12Z</time></trkpt>
			<trkpt lat="54.460940" lon="21.079430"><ele>26.5</ele><time>2026-07-14T16:22:19Z</time></trkpt>
			<trkpt lat="54.460690" lon="21.078190"><ele>26.8</ele><time>2026-07-14T16:22:26Z</time></trkpt>
			<trkpt lat="54.460580" lon="21.077390"><ele>25.2</ele><time>2026-07-14T16:22:33Z</time></trkpt>
			<trkpt lat="54.460510" lon="21.076660"><ele>24.8</ele><time>2026-07-14T16:22:40Z</time></trkpt>
			<trkpt lat="54.460330" lon="21.074470"><ele>26.7</ele><time>2026-07-14T16:22:47Z</time></trkpt>
			<trkpt lat="54.460170" lon="21.071700"><ele>25.7</ele><time>2026-07-14T16:22:53Z</time></trkpt>
			<trkpt lat="54.460050" lon="21.070420"><ele>26.9</ele><time>2026-07-14T16:23:00Z</time></trkpt>
			<trkpt lat="54.459990" lon="21.070020"><ele>27.1</ele><time>2026-07-14T16:23:07Z</time></trkpt>
			<trkpt lat="54.459880" lon="21.069430"><ele>27.4</ele><time>2026-07-14T16:23:14Z</time></trkpt>
			<trkpt lat="54.459600" lon="21.068180"><ele>27.9</ele><time>2026-07-14T16:23:21Z</time></trkpt>
			<trkpt lat="54.459130" lon="21.065780"><ele>26.2</ele><time>2026-07-14T16:23:28Z</time></trkpt>
			<trkpt lat="54.458500" lon="21.062840"><ele>29.4</ele><time>2026-07-14T16:23:35Z</time></trkpt>
			<trkpt lat="54.457990" lon="21.060360"><ele>35.1</ele><time>2026-07-14T16:23:42Z</time></trkpt>
			<trkpt lat="54.457670" lon="21.058990"><ele>35.8</ele><time>2026-07-14T16:23:49Z</time></trkpt>
			<trkpt lat="54.457370" lon="21.057900"><ele>33.4</ele><time>2026-07-14T16:23:56Z</time></trkpt>
			<trkpt lat="54.457250" lon="21.057500"><ele>32.1</ele><time>2026-07-14T16:24:02Z</time></trkpt>
			<trkpt lat="54.456830" lon="21.056340"><ele>30.2</ele><time>2026-07-14T16:24:09Z</time></trkpt>
			<trkpt lat="54.456290" lon="21.055080"><ele>28.0</ele><time>2026-07-14T16:24:16Z</time></trkpt>
			<trkpt lat="54.454620" lon="21.051510"><ele>24.2</ele><time>2026-07-14T16:24:23Z</time></trkpt>
			<trkpt lat="54.452960" lon="21.047920"><ele>24.2</ele><time>2026-07-14T16:24:30Z</time></trkpt>
			<trkpt lat="54.451910" lon="21.045620"><ele>25.9</ele><time>2026-07-14T16:24:37Z</time></trkpt>
			<trkpt lat="54.449730" lon="21.041000"><ele>26.5</ele><time>2026-07-14T16:24:44Z</time></trkpt>
			<trkpt lat="54.449000" lon="21.039360"><ele>26.4</ele><time>2026-07-14T16:24:51Z</time></trkpt>
			<trkpt lat="54.447270" lon="21.034780"><ele>26.5</ele><time>2026-07-14T16:24:58Z</time></trkpt>
			<trkpt lat="54.446710" lon="21.033270"><ele>25.9</ele><time>2026-07-14T16:25:05Z</time></trkpt>
			<trkpt lat="54.446440" lon="21.032570"><ele>26.3</ele><time>2026-07-14T16:25:12Z</time></trkpt>
			<trkpt lat="54.446300" lon="21.032180"><ele>26.6</ele><time>2026-07-14T16:25:18Z</time></trkpt>
			<trkpt lat="54.445820" lon="21.030880"><ele>27.9</ele><time>2026-07-14T16:25:25Z</time></trkpt>
			<trkpt lat="54.445780" lon="21.030760"><ele>28.0</ele><time>2026-07-14T16:25:32Z</time></trkpt>
			<trkpt lat="54.444850" lon="21.028270"><ele>25.4</ele><time>2026-07-14T16:25:39Z</time></trkpt>
			<trkpt lat="54.444670" lon="21.027670"><ele>21.3</ele><time>2026-07-14T16:25:46Z</time></trkpt>
			<trkpt lat="54.444560" lon="21.027120"><ele>18.7</ele><time>2026-07-14T16:25:53Z</time></trkpt>
			<trkpt lat="54.444250" lon="21.024460"><ele>18.2</ele><time>2026-07-14T16:26:00Z</time></trkpt>
			<trkpt lat="54.444150" lon="21.023710"><ele>19.2</ele><time>2026-07-14T16:26:07Z</time></trkpt>
			<trkpt lat="54.444030" lon="21.024140"><ele>20.0</ele><time>2026-07-14T16:26:14Z</time></trkpt>
			<trkpt lat="54.443880" lon="21.024620"><ele>21.7</ele><time>2026-07-14T16:26:21Z</time></trkpt>
			<trkpt lat="54.443560" lon="21.025340"><ele>26.2</ele><time>2026-07-14T16:26:27Z</time></trkpt>
			<trkpt lat="54.443360" lon="21.025740"><ele>29.3</ele><time>2026-07-14T16:26:34Z</time></trkpt>
			<trkpt lat="54.443290" lon="21.025850"><ele>30.2</ele><time>2026-07-14T16:26:41Z</time></trkpt>
			<trkpt lat="54.443130" lon="21.026070"><ele>30.8</ele><time>2026-07-14T16:26:48Z</time></trkpt>
			<trkpt lat="54.442900" lon="21.026270"><ele>31.5</ele><time>2026-07-14T16:26:55Z</time></trkpt>
			<trkpt lat="54.442530" lon="21.026520"><ele>32.1</ele><time>2026-07-14T16:27:02Z</time></trkpt>
			<trkpt lat="54.442360" lon="21.026700"><ele>32.0</ele><time>2026-07-14T16:27:09Z</time></trkpt>
			<trkpt lat="54.442290" lon="21.026790"><ele>31.9</ele><time>2026-07-14T16:27:16Z</time></trkpt>
			<trkpt lat="54.442130" lon="21.027100"><ele>31.3</ele><time>2026-07-14T16:27:23Z</time></trkpt>
			<trkpt lat="54.441810" lon="21.028100"><ele>31.2</ele><time>2026-07-14T16:27:30Z</time></trkpt>
			<trkpt lat="54.441430" lon="21.029260"><ele>32.3</ele><time>2026-07-14T16:27:36Z</time></trkpt>
			<trkpt lat="54.441180" lon="21.030070"><ele>33.5</ele><time>2026-07-14T16:27:43Z</time></trkpt>
			<trkpt lat="54.441000" lon="21.030530"><ele>35.1</ele><time>2026-07-14T16:27:50Z</time></trkpt>
			<trkpt lat="54.440870" lon="21.030750"><ele>36.2</ele><time>2026-07-14T16:27:57Z</time></trkpt>
			<trkpt lat="54.440720" lon="21.031010"><ele>36.2</ele><time>2026-07-14T16:28:04Z</time></trkpt>
			<trkpt lat="54.440430" lon="21.031410"><ele>34.4</ele><time>2026-07-14T16:28:11Z</time></trkpt>
			<trkpt lat="54.437880" lon="21.034990"><ele>28.6</ele><time>2026-07-14T16:28:18Z</time></trkpt>
			<trkpt lat="54.437560" lon="21.035570"><ele>28.0</ele><time>2026-07-14T16:28:25Z</time></trkpt>
			<trkpt lat="54.437460" lon="21.035720"><ele>27.9</ele><time>2026-07-14T16:28:32Z</time></trkpt>
			<trkpt lat="54.436980" lon="21.036830"><ele>27.0</ele><time>2026-07-14T16:28:39Z</time></trkpt>
			<trkpt lat="54.434950" lon="21.041500"><ele>28.0</ele><time>2026-07-14T16:28:46Z</time></trkpt>
			<trkpt lat="54.434670" lon="21.042130"><ele>28.0</ele><time>2026-07-14T16:28:52Z</time></trkpt>
			<trkpt lat="54.432740" lon="21.046550"><ele>29.0</ele><time>2026-07-14T16:28:59Z</time></trkpt>
			<trkpt lat="54.431680" lon="21.049010"><ele>30.0</ele><time>2026-07-14T16:29:06Z</time></trkpt>
			<trkpt lat="54.431590" lon="21.049120"><ele>30.0</ele><time>2026-07-14T16:29:13Z</time></trkpt>
			<trkpt lat="54.431490" lon="21.049200"><ele>30.0</ele><time>2026-07-14T16:29:20Z</time></trkpt>
			<trkpt lat="54.431410" lon="21.049220"><ele>30.0</ele><time>2026-07-14T16:29:27Z</time></trkpt>
			<trkpt lat="54.431300" lon="21.049180"><ele>30.0</ele><time>2026-07-14T16:29:34Z</time></trkpt>
			<trkpt lat="54.431130" lon="21.049060"><ele>30.0</ele><time>2026-07-14T16:29:41Z</time></trkpt>
			<trkpt lat="54.430950" lon="21.048890"><ele>30.0</ele><time>2026-07-14T16:29:48Z</time></trkpt>
			<trkpt lat="54.430840" lon="21.048810"><ele>30.0</ele><time>2026-07-14T16:29:55Z</time></trkpt>
			<trkpt lat="54.430740" lon="21.048770"><ele>30.0</ele><time>2026-07-14T16:30:01Z</time></trkpt>
			<trkpt lat="54.430640" lon="21.048760"><ele>30.0</ele><time>2026-07-14T16:30:08Z</time></trkpt>
			<trkpt lat="54.430490" lon="21.048780"><ele>30.0</ele><time>2026-07-14T16:30:15Z</time></trkpt>
			<trkpt lat="54.430300" lon="21.048850"><ele>30.0</ele><time>2026-07-14T16:30:22Z</time></trkpt>
			<trkpt lat="54.430190" lon="21.048860"><ele>30.0</ele><time>2026-07-14T16:30:29Z</time></trkpt>
			<trkpt lat="54.430100" lon="21.048860"><ele>30.0</ele><time>2026-07-14T16:30:36Z</time></trkpt>
			<trkpt lat="54.429920" lon="21.048790"><ele>30.0</ele><time>2026-07-14T16:30:43Z</time></trkpt>
			<trkpt lat="54.429800" lon="21.048670"><ele>30.0</ele><time>2026-07-14T16:30:50Z</time></trkpt>
			<trkpt lat="54.429680" lon="21.048530"><ele>30.0</ele><time>2026-07-14T16:30:57Z</time></trkpt>
			<trkpt lat="54.428990" lon="21.047530"><ele>29.3</ele><time>2026-07-14T16:31:04Z</time></trkpt>
			<trkpt lat="54.428770" lon="21.047250"><ele>29.5</ele><time>2026-07-14T16:31:11Z</time></trkpt>
			<trkpt lat="54.428660" lon="21.047160"><ele>29.6</ele><time>2026-07-14T16:31:17Z</time></trkpt>
			<trkpt lat="54.428540" lon="21.047110"><ele>29.8</ele><time>2026-07-14T16:31:24Z</time></trkpt>
			<trkpt lat="54.428460" lon="21.047090"><ele>29.8</ele><time>2026-07-14T16:31:31Z</time></trkpt>
			<trkpt lat="54.428350" lon="21.047140"><ele>29.8</ele><time>2026-07-14T16:31:38Z</time></trkpt>
			<trkpt lat="54.428270" lon="21.047230"><ele>29.8</ele><time>2026-07-14T16:31:45Z</time></trkpt>
			<trkpt lat="54.428170" lon="21.047390"><ele>29.8</ele><time>2026-07-14T16:31:52Z</time></trkpt>
			<trkpt lat="54.427130" lon="21.049960"><ele>30.0</ele><time>2026-07-14T16:31:59Z</time></trkpt>
			<trkpt lat="54.426910" lon="21.050470"><ele>30.1</ele><time>2026-07-14T16:32:06Z</time></trkpt>
			<trkpt lat="54.423230" lon="21.059450"><ele>31.0</ele><time>2026-07-14T16:32:13Z</time></trkpt>
			<trkpt lat="54.418560" lon="21.070130"><ele>31.7</ele><time>2026-07-14T16:32:20Z</time></trkpt>
			<trkpt lat="54.417910" lon="21.071620"><ele>32.9</ele><time>2026-07-14T16:32:26Z</time></trkpt>
			<trkpt lat="54.417650" lon="21.072370"><ele>33.1</ele><time>2026-07-14T16:32:33Z</time></trkpt>
			<trkpt lat="54.416210" lon="21.076960"><ele>32.7</ele><time>2026-07-14T16:32:40Z</time></trkpt>
			<trkpt lat="54.416050" lon="21.077300"><ele>32.9</ele><time>2026-07-14T16:32:47Z</time></trkpt>
			<trkpt lat="54.415900" lon="21.077630"><ele>33.4</ele><time>2026-07-14T16:32:54Z</time></trkpt>
			<trkpt lat="54.415660" lon="21.077970"><ele>33.9</ele><time>2026-07-14T16:33:01Z</time></trkpt>
			<trkpt lat="54.415390" lon="21.078280"><ele>34.3</ele><time>2026-07-14T16:33:08Z</time></trkpt>
			<trkpt lat="54.412510" lon="21.080710"><ele>33.0</ele><time>2026-07-14T16:33:15Z</time></trkpt>
			<trkpt lat="54.407540" lon="21.087970"><ele>31.9</ele><time>2026-07-14T16:33:22Z</time></trkpt>
			<trkpt lat="54.403760" lon="21.093460"><ele>33.8</ele><time>2026-07-14T16:33:29Z</time></trkpt>
			<trkpt lat="54.403760" lon="21.093460"><ele>33.8</ele><time>2026-07-14T16:33:37Z</time></trkpt>
			<trkpt lat="54.400550" lon="21.098120"><ele>34.4</ele><time>2026-07-14T16:33:46Z</time></trkpt>
			<trkpt lat="54.400190" lon="21.098870"><ele>34.6</ele><time>2026-07-14T16:33:54Z</time></trkpt>
			<trkpt lat="54.399970" lon="21.099600"><ele>35.0</ele><time>2026-07-14T16:34:02Z</time></trkpt>
			<trkpt lat="54.399860" lon="21.100240"><ele>35.5</ele><time>2026-07-14T16:34:11Z</time></trkpt>
			<trkpt lat="54.399790" lon="21.100990"><ele>36.1</ele><time>2026-07-14T16:34:19Z</time></trkpt>
			<trkpt lat="54.399650" lon="21.102960"><ele>33.9</ele><time>2026-07-14T16:34:28Z</time></trkpt>
			<trkpt lat="54.399550" lon="21.104340"><ele>33.3</ele><time>2026-07-14T16:34:36Z</time></trkpt>
			<trkpt lat="54.399480" lon="21.104860"><ele>33.5</ele><time>2026-07-14T16:34:45Z</time></trkpt>
			<trkpt lat="54.399260" lon="21.105450"><ele>33.2</ele><time>2026-07-14T16:34:53Z</time></trkpt>
			<trkpt lat="54.399040" lon="21.105750"><ele>32.7</ele><time>2026-07-14T16:35:02Z</time></trkpt>
			<trkpt lat="54.398610" lon="21.106350"><ele>33.1</ele><time>2026-07-14T16:35:10Z</time></trkpt>
			<trkpt lat="54.398430" lon="21.106670"><ele>33.4</ele><time>2026-07-14T16:35:19Z</time></trkpt>
			<trkpt lat="54.398400" lon="21.107010"><ele>33.3</ele><time>2026-07-14T16:35:27Z</time></trkpt>
			<trkpt lat="54.398510" lon="21.107860"><ele>32.9</ele><time>2026-07-14T16:35:36Z</time></trkpt>
			<trkpt lat="54.398520" lon="21.108220"><ele>33.1</ele><time>2026-07-14T16:35:44Z</time></trkpt>
			<trkpt lat="54.398470" lon="21.108400"><ele>33.3</ele><time>2026-07-14T16:35:52Z</time></trkpt>
			<trkpt lat="54.398260" lon="21.108740"><ele>33.7</ele><time>2026-07-14T16:36:01Z</time></trkpt>
			<trkpt lat="54.397600" lon="21.109510"><ele>32.8</ele><time>2026-07-14T16:36:09Z</time></trkpt>
			<trkpt lat="54.396870" lon="21.110450"><ele>32.4</ele><time>2026-07-14T16:36:18Z</time></trkpt>
			<trkpt lat="54.396190" lon="21.111400"><ele>32.3</ele><time>2026-07-14T16:36:26Z</time></trkpt>
			<trkpt lat="54.395520" lon="21.112360"><ele>33.3</ele><time>2026-07-14T16:36:35Z</time></trkpt>
			<trkpt lat="54.395320" lon="21.112620"><ele>33.2</ele><time>2026-07-14T16:36:43Z</time></trkpt>
			<trkpt lat="54.394190" lon="21.113880"><ele>32.9</ele><time>2026-07-14T16:36:52Z</time></trkpt>
			<trkpt lat="54.393300" lon="21.115220"><ele>32.1</ele><time>2026-07-14T16:37:00Z</time></trkpt>
			<trkpt lat="54.387770" lon="21.123850"><ele>40.5</ele><time>2026-07-14T16:37:09Z</time></trkpt>
			<trkpt lat="54.387660" lon="21.124090"><ele>40.6</ele><time>2026-07-14T16:37:17Z</time></trkpt>
			<trkpt lat="54.387570" lon="21.124350"><ele>40.2</ele><time>2026-07-14T16:37:26Z</time></trkpt>
			<trkpt lat="54.387490" lon="21.124620"><ele>39.9</ele><time>2026-07-14T16:37:34Z</time></trkpt>
			<trkpt lat="54.387340" lon="21.125290"><ele>38.9</ele><time>2026-07-14T16:37:43Z</time></trkpt>
			<trkpt lat="54.386140" lon="21.130730"><ele>38.5</ele><time>2026-07-14T16:37:51Z</time></trkpt>
			<trkpt lat="54.386010" lon="21.131210"><ele>38.9</ele><time>2026-07-14T16:37:59Z</time></trkpt>
			<trkpt lat="54.383970" lon="21.137100"><ele>36.4</ele><time>2026-07-14T16:38:08Z</time></trkpt>
			<trkpt lat="54.383770" lon="21.137590"><ele>36.0</ele><time>2026-07-14T16:38:16Z</time></trkpt>
			<trkpt lat="54.383370" lon="21.138440"><ele>36.7</ele><time>2026-07-14T16:38:25Z</time></trkpt>
			<trkpt lat="54.380160" lon="21.144530"><ele>41.0</ele><time>2026-07-14T16:38:33Z</time></trkpt>
			<trkpt lat="54.377860" lon="21.148940"><ele>39.5</ele><time>2026-07-14T16:38:42Z</time></trkpt>
			<trkpt lat="54.375970" lon="21.152510"><ele>41.0</ele><time>2026-07-14T16:38:50Z</time></trkpt>
			<trkpt lat="54.375560" lon="21.153350"><ele>41.5</ele><time>2026-07-14T16:38:59Z</time></trkpt>
			<trkpt lat="54.374760" lon="21.154970"><ele>43.2</ele><time>2026-07-14T16:39:07Z</time></trkpt>
			<trkpt lat="54.374430" lon="21.155730"><ele>43.0</ele><time>2026-07-14T16:39:16Z</time></trkpt>
			<trkpt lat="54.373380" lon="21.158630"><ele>44.5</ele><time>2026-07-14T16:39:24Z</time></trkpt>
			<trkpt lat="54.372990" lon="21.159680"><ele>43.8</ele><time>2026-07-14T16:39:33Z</time></trkpt>
			<trkpt lat="54.370020" lon="21.167930"><ele>46.4</ele><time>2026-07-14T16:39:41Z</time></trkpt>
			<trkpt lat="54.369850" lon="21.168430"><ele>45.8</ele><time>2026-07-14T16:39:50Z</time></trkpt>
			<trkpt lat="54.369750" lon="21.169000"><ele>45.4</ele><time>2026-07-14T16:39:58Z</time></trkpt>
			<trkpt lat="54.369340" lon="21.171680"><ele>46.6</ele><time>2026-07-14T16:40:06Z</time></trkpt>
			<trkpt lat="54.368480" lon="21.177320"><ele>50.3</ele><time>2026-07-14T16:40:15Z</time></trkpt>
			<trkpt lat="54.368350" lon="21.178190"><ele>51.7</ele><time>2026-07-14T16:40:23Z</time></trkpt>
			<trkpt lat="54.368280" lon="21.178820"><ele>52.5</ele><time>2026-07-14T16:40:32Z</time></trkpt>
			<trkpt lat="54.368260" lon="21.179210"><ele>52.9</ele><time>2026-07-14T16:40:40Z</time></trkpt>
			<trkpt lat="54.368250" lon="21.181030"><ele>53.7</ele><time>2026-07-14T16:40:49Z</time></trkpt>
			<trkpt lat="54.368260" lon="21.190890"><ele>41.8</ele><time>2026-07-14T16:40:57Z</time></trkpt>
			<trkpt lat="54.368180" lon="21.203850"><ele>48.9</ele><time>2026-07-14T16:41:06Z</time></trkpt>
			<trkpt lat="54.368140" lon="21.225430"><ele>58.4</ele><time>2026-07-14T16:41:14Z</time></trkpt>
			<trkpt lat="54.368100" lon="21.233680"><ele>58.3</ele><time>2026-07-14T16:41:23Z</time></trkpt>
			<trkpt lat="54.368070" lon="21.234180"><ele>58.6</ele><time>2026-07-14T16:41:31Z</time></trkpt>
			<trkpt lat="54.368010" lon="21.234650"><ele>57.9</ele><time>2026-07-14T16:41:40Z</time></trkpt>
			<trkpt lat="54.367910" lon="21.235100"><ele>57.2</ele><time>2026-07-14T16:41:48Z</time></trkpt>
			<trkpt lat="54.367780" lon="21.235550"><ele>56.8</ele><time>2026-07-14T16:41:57Z</time></trkpt>
			<trkpt lat="54.367610" lon="21.236110"><ele>57.7</ele><time>2026-07-14T16:42:05Z</time></trkpt>
			<trkpt lat="54.364500" lon="21.245560"><ele>53.8</ele><time>2026-07-14T16:42:13Z</time></trkpt>
			<trkpt lat="54.364220" lon="21.246430"><ele>51.8</ele><time>2026-07-14T16:42:22Z</time></trkpt>
			<trkpt lat="54.364010" lon="21.247850"><ele>51.3</ele><time>2026-07-14T16:42:30Z</time></trkpt>
			<trkpt lat="54.363960" lon="21.248330"><ele>51.1</ele><time>2026-07-14T16:42:39Z</time></trkpt>
			<trkpt lat="54.363570" lon="21.253010"><ele>45.7</ele><time>2026-07-14T16:42:47Z</time></trkpt>
			<trkpt lat="54.363360" lon="21.255250"><ele>45.3</ele><time>2026-07-14T16:42:56Z</time></trkpt>
			<trkpt lat="54.363350" lon="21.255500"><ele>45.6</ele><time>2026-07-14T16:43:04Z</time></trkpt>
			<trkpt lat="54.363350" lon="21.255750"><ele>45.9</ele><time>2026-07-14T16:43:13Z</time></trkpt>
			<trkpt lat="54.363360" lon="21.256010"><ele>46.1</ele><time>2026-07-14T16:43:21Z</time></trkpt>
			<trkpt lat="54.363530" lon="21.257510"><ele>45.4</ele><time>2026-07-14T16:43:30Z</time></trkpt>
			<trkpt lat="54.363580" lon="21.258160"><ele>45.1</ele><time>2026-07-14T16:43:38Z</time></trkpt>
			<trkpt lat="54.363600" lon="21.258590"><ele>45.1</ele><time>2026-07-14T16:43:47Z</time></trkpt>
			<trkpt lat="54.363590" lon="21.259370"><ele>45.1</ele><time>2026-07-14T16:43:55Z</time></trkpt>
			<trkpt lat="54.363420" lon="21.271960"><ele>42.4</ele><time>2026-07-14T16:44:03Z</time></trkpt>
			<trkpt lat="54.363370" lon="21.274850"><ele>42.0</ele><time>2026-07-14T16:44:12Z</time></trkpt>
			<trkpt lat="54.363360" lon="21.275770"><ele>41.3</ele><time>2026-07-14T16:44:20Z</time></trkpt>
			<trkpt lat="54.363330" lon="21.277950"><ele>41.4</ele><time>2026-07-14T16:44:29Z</time></trkpt>
			<trkpt lat="54.363210" lon="21.285920"><ele>40.9</ele><time>2026-07-14T16:44:37Z</time></trkpt>
			<trkpt lat="54.363160" lon="21.289300"><ele>39.3</ele><time>2026-07-14T16:44:46Z</time></trkpt>
			<trkpt lat="54.363090" lon="21.291060"><ele>37.4</ele><time>2026-07-14T16:44:54Z</time></trkpt>
			<trkpt lat="54.363060" lon="21.291640"><ele>36.7</ele><time>2026-07-14T16:45:03Z</time></trkpt>
			<trkpt lat="54.362920" lon="21.292810"><ele>36.9</ele><time>2026-07-14T16:45:11Z</time></trkpt>
			<trkpt lat="54.362570" lon="21.295020"><ele>36.9</ele><time>2026-07-14T16:45:20Z</time></trkpt>
			<trkpt lat="54.362320" lon="21.296830"><ele>35.5</ele><time>2026-07-14T16:45:28Z</time></trkpt>
			<trkpt lat="54.362250" lon="21.297260"><ele>34.7</ele><time>2026-07-14T16:45:37Z</time></trkpt>
			<trkpt lat="54.362130" lon="21.298190"><ele>32.5</ele><time>2026-07-14T16:45:45Z</time></trkpt>
			<trkpt lat="54.362030" lon="21.299290"><ele>29.2</ele><time>2026-07-14T16:45:54Z</time></trkpt>
			<trkpt lat="54.361950" lon="21.300270"><ele>28.7</ele><time>2026-07-14T16:46:02Z</time></trkpt>
			<trkpt lat="54.361810" lon="21.302140"><ele>30.5</ele><time>2026-07-14T16:46:10Z</time></trkpt>
			<trkpt lat="54.361780" lon="21.302570"><ele>30.6</ele><time>2026-07-14T16:46:19Z</time></trkpt>
			<trkpt lat="54.361760" lon="21.302900"><ele>31.6</ele><time>2026-07-14T16:46:27Z</time></trkpt>
			<trkpt lat="54.361770" lon="21.303150"><ele>32.4</ele><time>2026-07-14T16:46:36Z</time></trkpt>
			<trkpt lat="54.361810" lon="21.303320"><ele>33.0</ele><time>2026-07-14T16:46:44Z</time></trkpt>
			<trkpt lat="54.362010" lon="21.303720"><ele>34.5</ele><time>2026-07-14T16:46:53Z</time></trkpt>
			<trkpt lat="54.362040" lon="21.303910"><ele>35.1</ele><time>2026-07-14T16:47:01Z</time></trkpt>
			<trkpt lat="54.362010" lon="21.303990"><ele>35.4</ele><time>2026-07-14T16:47:10Z</time></trkpt>
			<trkpt lat="54.361930" lon="21.304060"><ele>35.9</ele><time>2026-07-14T16:47:18Z</time></trkpt>
			<trkpt lat="54.361390" lon="21.304410"><ele>37.8</ele><time>2026-07-14T16:47:27Z</time></trkpt>
			<trkpt lat="54.361170" lon="21.304550"><ele>38.2</ele><time>2026-07-14T16:47:35Z</time></trkpt>
			<trkpt lat="54.361120" lon="21.304620"><ele>38.5</ele><time>2026-07-14T16:47:44Z</time></trkpt>
			<trkpt lat="54.361090" lon="21.304660"><ele>38.6</ele><time>2026-07-14T16:47:52Z</time></trkpt>
			<trkpt lat="54.361070" lon="21.304730"><ele>38.7</ele><time>2026-07-14T16:48:01Z</time></trkpt>
			<trkpt lat="54.361080" lon="21.304850"><ele>39.0</ele><time>2026-07-14T16:48:09Z</time></trkpt>
			<trkpt lat="54.361230" lon="21.305630"><ele>40.2</ele><time>2026-07-14T16:48:17Z</time></trkpt>
			<trkpt lat="54.361280" lon="21.305710"><ele>40.2</ele><time>2026-07-14T16:48:26Z</time></trkpt>
			<trkpt lat="54.361330" lon="21.305800"><ele>40.2</ele><time>2026-07-14T16:48:34Z</time></trkpt>
			<trkpt lat="54.361380" lon="21.305970"><ele>40.2</ele><time>2026-07-14T16:48:43Z</time></trkpt>
			<trkpt lat="54.361450" lon="21.306320"><ele>39.8</ele><time>2026-07-14T16:48:51Z</time></trkpt>
			<trkpt lat="54.361490" lon="21.306430"><ele>39.6</ele><time>2026-07-14T16:49:00Z</time></trkpt>
			<trkpt lat="54.361560" lon="21.306540"><ele>39.3</ele><time>2026-07-14T16:49:08Z</time></trkpt>
			<trkpt lat="54.361730" lon="21.306720"><ele>37.9</ele><time>2026-07-14T16:49:17Z</time></trkpt>
			<trkpt lat="54.362240" lon="21.307130"><ele>33.2</ele><time>2026-07-14T16:49:25Z</time></trkpt>
			<trkpt lat="54.362450" lon="21.307180"><ele>32.4</ele><time>2026-07-14T16:49:34Z</time></trkpt>
			<trkpt lat="54.362550" lon="21.307150"><ele>32.0</ele><time>2026-07-14T16:49:42Z</time></trkpt>
			<trkpt lat="54.362980" lon="21.306940"><ele>31.9</ele><time>2026-07-14T16:49:51Z</time></trkpt>
			<trkpt lat="54.363050" lon="21.306930"><ele>31.8</ele><time>2026-07-14T16:49:59Z</time></trkpt>
			<trkpt lat="54.363130" lon="21.306950"><ele>31.7</ele><time>2026-07-14T16:50:07Z</time></trkpt>
			<trkpt lat="54.363210" lon="21.307000"><ele>31.6</ele><time>2026-07-14T16:50:16Z</time></trkpt>
			<trkpt lat="54.363300" lon="21.307120"><ele>31.4</ele><time>2026-07-14T16:50:24Z</time></trkpt>
			<trkpt lat="54.363570" lon="21.307500"><ele>30.5</ele><time>2026-07-14T16:50:33Z</time></trkpt>
			<trkpt lat="54.363690" lon="21.307770"><ele>30.0</ele><time>2026-07-14T16:50:41Z</time></trkpt>
			<trkpt lat="54.363760" lon="21.308030"><ele>29.7</ele><time>2026-07-14T16:50:50Z</time></trkpt>
			<trkpt lat="54.363900" lon="21.308500"><ele>29.8</ele><time>2026-07-14T16:50:58Z</time></trkpt>
			<trkpt lat="54.363930" lon="21.308620"><ele>30.1</ele><time>2026-07-14T16:51:07Z</time></trkpt>
			<trkpt lat="54.364000" lon="21.309050"><ele>31.3</ele><time>2026-07-14T16:51:15Z</time></trkpt>
			<trkpt lat="54.364000" lon="21.309280"><ele>32.3</ele><time>2026-07-14T16:51:24Z</time></trkpt>
			<trkpt lat="54.363950" lon="21.309480"><ele>33.6</ele><time>2026-07-14T16:51:32Z</time></trkpt>
			<trkpt lat="54.363890" lon="21.309620"><ele>34.6</ele><time>2026-07-14T16:51:41Z</time></trkpt>
			<trkpt lat="54.363420" lon="21.310370"><ele>38.5</ele><time>2026-07-14T16:51:49Z</time></trkpt>
			<trkpt lat="54.363110" lon="21.310600"><ele>40.1</ele><time>2026-07-14T16:51:58Z</time></trkpt>
			<trkpt lat="54.361930" lon="21.311010"><ele>41.9</ele><time>2026-07-14T16:52:06Z</time></trkpt>
			<trkpt lat="54.361640" lon="21.311180"><ele>42.7</ele><time>2026-07-14T16:52:14Z</time></trkpt>
			<trkpt lat="54.361370" lon="21.311520"><ele>43.7</ele><time>2026-07-14T16:52:23Z</time></trkpt>
			<trkpt lat="54.361180" lon="21.311960"><ele>44.7</ele><time>2026-07-14T16:52:31Z</time></trkpt>
			<trkpt lat="54.361030" lon="21.312550"><ele>46.5</ele><time>2026-07-14T16:52:40Z</time></trkpt>
			<trkpt lat="54.360950" lon="21.313300"><ele>48.0</ele><time>2026-07-14T16:52:48Z</time></trkpt>
			<trkpt lat="54.360880" lon="21.314370"><ele>46.9</ele><time>2026-07-14T16:52:57Z</time></trkpt>
			<trkpt lat="54.360810" lon="21.315560"><ele>46.1</ele><time>2026-07-14T16:53:05Z</time></trkpt>
			<trkpt lat="54.360690" lon="21.317300"><ele>43.4</ele><time>2026-07-14T16:53:14Z</time></trkpt>
			<trkpt lat="54.360570" lon="21.319500"><ele>40.1</ele><time>2026-07-14T16:53:22Z</time></trkpt>
			<trkpt lat="54.360490" lon="21.320810"><ele>41.0</ele><time>2026-07-14T16:53:31Z</time></trkpt>
			<trkpt lat="54.360470" lon="21.321210"><ele>41.0</ele><time>2026-07-14T16:53:39Z</time></trkpt>
			<trkpt lat="54.360370" lon="21.322840"><ele>41.0</ele><time>2026-07-14T16:53:48Z</time></trkpt>
			<trkpt lat="54.360290" lon="21.323800"><ele>43.8</ele><time>2026-07-14T16:53:56Z</time></trkpt>
			<trkpt lat="54.360220" lon="21.324230"><ele>44.9</ele><time>2026-07-14T16:54:05Z</time></trkpt>
			<trkpt lat="54.360200" lon="21.324350"><ele>45.2</ele><time>2026-07-14T16:54:13Z</time></trkpt>
			<trkpt lat="54.359820" lon="21.325650"><ele>46.2</ele><time>2026-07-14T16:54:21Z</time></trkpt>
			<trkpt lat="54.359640" lon="21.326260"><ele>46.4</ele><time>2026-07-14T16:54:30Z</time></trkpt>
			<trkpt lat="54.359150" lon="21.327940"><ele>50.9</ele><time>2026-07-14T16:54:38Z</time></trkpt>
			<trkpt lat="54.358830" lon="21.329000"><ele>51.1</ele><time>2026-07-14T16:54:47Z</time></trkpt>
			<trkpt lat="54.358480" lon="21.330190"><ele>52.2</ele><time>2026-07-14T16:54:55Z</time></trkpt>
			<trkpt lat="54.357840" lon="21.332260"><ele>53.1</ele><time>2026-07-14T16:55:04Z</time></trkpt>
			<trkpt lat="54.357020" lon="21.335040"><ele>52.0</ele><time>2026-07-14T16:55:12Z</time></trkpt>
			<trkpt lat="54.356190" lon="21.337930"><ele>53.2</ele><time>2026-07-14T16:55:21Z</time></trkpt>
			<trkpt lat="54.356140" lon="21.338140"><ele>53.2</ele><time>2026-07-14T16:55:29Z</time></trkpt>
			<trkpt lat="54.355640" lon="21.340200"><ele>53.4</ele><time>2026-07-14T16:55:38Z</time></trkpt>
			<trkpt lat="54.355320" lon="21.341260"><ele>52.4</ele><time>2026-07-14T16:55:46Z</time></trkpt>
			<trkpt lat="54.355180" lon="21.341620"><ele>52.6</ele><time>2026-07-14T16:55:55Z</time></trkpt>
			<trkpt lat="54.355120" lon="21.341760"><ele>52.6</ele><time>2026-07-14T16:56:03Z</time></trkpt>
			<trkpt lat="54.353760" lon="21.344310"><ele>54.4</ele><time>2026-07-14T16:56:11Z</time></trkpt>
			<trkpt lat="54.349380" lon="21.352370"><ele>55.1</ele><time>2026-07-14T16:56:20Z</time></trkpt>
			<trkpt lat="54.348110" lon="21.354750"><ele>52.8</ele><time>2026-07-14T16:56:28Z</time></trkpt>
			<trkpt lat="54.346140" lon="21.359250"><ele>54.1</ele><time>2026-07-14T16:56:37Z</time></trkpt>
			<trkpt lat="54.344540" lon="21.362340"><ele>47.3</ele><time>2026-07-14T16:56:45Z</time></trkpt>
			<trkpt lat="54.343810" lon="21.366840"><ele>49.5</ele><time>2026-07-14T16:56:54Z</time></trkpt>
			<trkpt lat="54.342790" lon="21.374190"><ele>54.1</ele><time>2026-07-14T16:57:02Z</time></trkpt>
			<trkpt lat="54.342710" lon="21.374870"><ele>54.9</ele><time>2026-07-14T16:57:11Z</time></trkpt>
			<trkpt lat="54.342640" lon="21.375530"><ele>54.4</ele><time>2026-07-14T16:57:19Z</time></trkpt>
			<trkpt lat="54.342440" lon="21.377490"><ele>51.0</ele><time>2026-07-14T16:57:28Z</time></trkpt>
			<trkpt lat="54.341460" lon="21.390150"><ele>49.9</ele><time>2026-07-14T16:57:36Z</time></trkpt>
			<trkpt lat="54.340880" lon="21.393800"><ele>53.3</ele><time>2026-07-14T16:57:45Z</time></trkpt>
			<trkpt lat="54.340380" lon="21.396500"><ele>54.9</ele><time>2026-07-14T16:57:53Z</time></trkpt>
			<trkpt lat="54.340040" lon="21.397670"><ele>57.7</ele><time>2026-07-14T16:58:02Z</time></trkpt>
			<trkpt lat="54.339530" lon="21.399340"><ele>60.2</ele><time>2026-07-14T16:58:10Z</time></trkpt>
			<trkpt lat="54.337880" lon="21.403290"><ele>59.3</ele><time>2026-07-14T16:58:18Z</time></trkpt>
			<trkpt lat="54.328900" lon="21.421610"><ele>66.7</ele><time>2026-07-14T16:58:27Z</time></trkpt>
			<trkpt lat="54.328350" lon="21.423030"><ele>65.4</ele><time>2026-07-14T16:58:35Z</time></trkpt>
			<trkpt lat="54.328200" lon="21.424140"><ele>65.2</ele><time>2026-07-14T16:58:44Z</time></trkpt>
			<trkpt lat="54.328370" lon="21.426500"><ele>62.2</ele><time>2026-07-14T16:58:52Z</time></trkpt>
			<trkpt lat="54.328700" lon="21.429680"><ele>64.2</ele><time>2026-07-14T16:59:01Z</time></trkpt>
			<trkpt lat="54.329370" lon="21.432730"><ele>65.4</ele><time>2026-07-14T16:59:09Z</time></trkpt>
			<trkpt lat="54.334450" lon="21.454960"><ele>69.4</ele><time>2026-07-14T16:59:18Z</time></trkpt>
			<trkpt lat="54.334940" lon="21.456430"><ele>69.2</ele><time>2026-07-14T16:59:26Z</time></trkpt>
			<trkpt lat="54.335390" lon="21.457940"><ele>65.9</ele><time>2026-07-14T16:59:35Z</time></trkpt>
			<trkpt lat="54.335600" lon="21.459220"><ele>65.1</ele><time>2026-07-14T16:59:43Z</time></trkpt>
			<trkpt lat="54.336710" lon="21.473650"><ele>54.0</ele><time>2026-07-14T16:59:52Z</time></trkpt>
			<trkpt lat="54.336710" lon="21.473650"><ele>54.0</ele><time>2026-07-14T17:00:00Z</time></trkpt>
			<trkpt lat="54.337430" lon="21.482940"><ele>60.4</ele><time>2026-07-14T17:00:08Z</time></trkpt>
			<trkpt lat="54.337660" lon="21.486030"><ele>63.4</ele><time>2026-07-14T17:00:17Z</time></trkpt>
			<trkpt lat="54.337730" lon="21.487830"><ele>64.2</ele><time>2026-07-14T17:00:25Z</time></trkpt>
			<trkpt lat="54.337630" lon="21.489550"><ele>64.0</ele><time>2026-07-14T17:00:33Z</time></trkpt>
			<trkpt lat="54.336560" lon="21.498570"><ele>57.3</ele><time>2026-07-14T17:00:42Z</time></trkpt>
			<trkpt lat="54.333440" lon="21.524740"><ele>74.1</ele><time>2026-07-14T17:00:50Z</time></trkpt>
			<trkpt lat="54.332810" lon="21.527920"><ele>73.8</ele><time>2026-07-14T17:00:59Z</time></trkpt>
			<trkpt lat="54.332380" lon="21.530530"><ele>76.0</ele><time>2026-07-14T17:01:07Z</time></trkpt>
			<trkpt lat="54.331680" lon="21.535040"><ele>74.8</ele><time>2026-07-14T17:01:15Z</time></trkpt>
			<trkpt lat="54.331600" lon="21.535540"><ele>73.8</ele><time>2026-07-14T17:01:24Z</time></trkpt>
			<trkpt lat="54.331200" lon="21.538430"><ele>73.6</ele><time>2026-07-14T17:01:32Z</time></trkpt>
			<trkpt lat="54.329860" lon="21.548210"><ele>70.0</ele><time>2026-07-14T17:01:40Z</time></trkpt>
			<trkpt lat="54.329660" lon="21.549690"><ele>72.0</ele><time>2026-07-14T17:01:49Z</time></trkpt>
			<trkpt lat="54.329530" lon="21.550580"><ele>73.3</ele><time>2026-07-14T17:01:57Z</time></trkpt>
			<trkpt lat="54.329450" lon="21.550970"><ele>73.5</ele><time>2026-07-14T17:02:05Z</time></trkpt>
			<trkpt lat="54.329310" lon="21.551420"><ele>73.3</ele><time>2026-07-14T17:02:14Z</time></trkpt>
			<trkpt lat="54.329130" lon="21.551850"><ele>73.1</ele><time>2026-07-14T17:02:22Z</time></trkpt>
			<trkpt lat="54.328920" lon="21.552160"><ele>73.2</ele><time>2026-07-14T17:02:31Z</time></trkpt>
			<trkpt lat="54.328450" lon="21.552680"><ele>72.1</ele><time>2026-07-14T17:02:39Z</time></trkpt>
			<trkpt lat="54.328260" lon="21.552940"><ele>71.4</ele><time>2026-07-14T17:02:47Z</time></trkpt>
			<trkpt lat="54.328220" lon="21.553150"><ele>71.2</ele><time>2026-07-14T17:02:56Z</time></trkpt>
			<trkpt lat="54.328230" lon="21.553390"><ele>70.9</ele><time>2026-07-14T17:03:04Z</time></trkpt>
			<trkpt lat="54.328280" lon="21.553710"><ele>70.9</ele><time>2026-07-14T17:03:12Z</time></trkpt>
			<trkpt lat="54.328580" lon="21.555120"><ele>69.7</ele><time>2026-07-14T17:03:21Z</time></trkpt>
			<trkpt lat="54.328620" lon="21.555380"><ele>69.2</ele><time>2026-07-14T17:03:29Z</time></trkpt>
			<trkpt lat="54.328640" lon="21.555800"><ele>68.4</ele><time>2026-07-14T17:03:38Z</time></trkpt>
			<trkpt lat="54.328640" lon="21.556750"><ele>67.3</ele><time>2026-07-14T17:03:46Z</time></trkpt>
			<trkpt lat="54.328710" lon="21.557110"><ele>67.2</ele><time>2026-07-14T17:03:54Z</time></trkpt>
			<trkpt lat="54.328790" lon="21.557310"><ele>67.3</ele><time>2026-07-14T17:04:03Z</time></trkpt>
			<trkpt lat="54.328990" lon="21.557520"><ele>67.5</ele><time>2026-07-14T17:04:11Z</time></trkpt>
			<trkpt lat="54.329340" lon="21.557570"><ele>67.7</ele><time>2026-07-14T17:04:19Z</time></trkpt>
			<trkpt lat="54.329720" lon="21.557420"><ele>67.4</ele><time>2026-07-14T17:04:28Z</time></trkpt>
			<trkpt lat="54.330490" lon="21.557040"><ele>67.6</ele><time>2026-07-14T17:04:36Z</time></trkpt>
			<trkpt lat="54.332710" lon="21.556420"><ele>70.8</ele><time>2026-07-14T17:04:44Z</time></trkpt>
			<trkpt lat="54.333190" lon="21.556300"><ele>70.6</ele><time>2026-07-14T17:04:53Z</time></trkpt>
			<trkpt lat="54.333880" lon="21.556200"><ele>71.6</ele><time>2026-07-14T17:05:01Z</time></trkpt>
			<trkpt lat="54.334370" lon="21.556260"><ele>72.0</ele><time>2026-07-14T17:05:10Z</time></trkpt>
			<trkpt lat="54.337810" lon="21.556650"><ele>70.0</ele><time>2026-07-14T17:05:18Z</time></trkpt>
			<trkpt lat="54.339530" lon="21.556870"><ele>70.1</ele><time>2026-07-14T17:05:26Z</time></trkpt>
			<trkpt lat="54.340980" lon="21.557020"><ele>71.3</ele><time>2026-07-14T17:05:35Z</time></trkpt>
			<trkpt lat="54.342120" lon="21.556900"><ele>71.3</ele><time>2026-07-14T17:05:43Z</time></trkpt>
			<trkpt lat="54.343610" lon="21.556730"><ele>70.3</ele><time>2026-07-14T17:05:51Z</time></trkpt>
			<trkpt lat="54.344250" lon="21.556640"><ele>70.8</ele><time>2026-07-14T17:06:00Z</time></trkpt>
			<trkpt lat="54.344790" lon="21.556530"><ele>70.1</ele><time>2026-07-14T17:06:08Z</time></trkpt>
			<trkpt lat="54.345190" lon="21.556640"><ele>69.5</ele><time>2026-07-14T17:06:17Z</time></trkpt>
			<trkpt lat="54.345270" lon="21.556660"><ele>69.3</ele><time>2026-07-14T17:06:25Z</time></trkpt>
			<trkpt lat="54.345940" lon="21.557080"><ele>67.5</ele><time>2026-07-14T17:06:33Z</time></trkpt>
			<trkpt lat="54.352150" lon="21.561710"><ele>63.4</ele><time>2026-07-14T17:06:42Z</time></trkpt>
			<trkpt lat="54.353200" lon="21.562620"><ele>61.5</ele><time>2026-07-14T17:06:50Z</time></trkpt>
			<trkpt lat="54.354200" lon="21.563780"><ele>65.1</ele><time>2026-07-14T17:06:58Z</time></trkpt>
			<trkpt lat="54.357390" lon="21.567350"><ele>69.4</ele><time>2026-07-14T17:07:07Z</time></trkpt>
			<trkpt lat="54.360020" lon="21.569790"><ele>69.0</ele><time>2026-07-14T17:07:15Z</time></trkpt>
			<trkpt lat="54.360810" lon="21.570340"><ele>68.0</ele><time>2026-07-14T17:07:23Z</time></trkpt>
			<trkpt lat="54.361910" lon="21.570950"><ele>68.5</ele><time>2026-07-14T17:07:32Z</time></trkpt>
			<trkpt lat="54.365770" lon="21.573370"><ele>61.9</ele><time>2026-07-14T17:07:40Z</time></trkpt>
			<trkpt lat="54.366230" lon="21.573680"><ele>61.0</ele><time>2026-07-14T17:07:49Z</time></trkpt>
			<trkpt lat="54.366670" lon="21.574040"><ele>60.0</ele><time>2026-07-14T17:07:57Z</time></trkpt>
			<trkpt lat="54.369770" lon="21.577570"><ele>59.4</ele><time>2026-07-14T17:08:05Z</time></trkpt>
			<trkpt lat="54.370760" lon="21.576630"><ele>59.0</ele><time>2026-07-14T17:08:14Z</time></trkpt>
			<trkpt lat="54.372780" lon="21.574630"><ele>58.4</ele><time>2026-07-14T17:08:22Z</time></trkpt>
			<trkpt lat="54.374040" lon="21.572490"><ele>55.5</ele><time>2026-07-14T17:08:30Z</time></trkpt>
			<trkpt lat="54.375870" lon="21.568930"><ele>55.8</ele><time>2026-07-14T17:08:39Z</time></trkpt>
			<trkpt lat="54.376910" lon="21.566860"><ele>55.7</ele><time>2026-07-14T17:08:47Z</time></trkpt>
			<trkpt lat="54.378120" lon="21.565160"><ele>55.6</ele><time>2026-07-14T17:08:56Z</time></trkpt>
			<trkpt lat="54.379910" lon="21.563110"><ele>55.2</ele><time>2026-07-14T17:09:04Z</time></trkpt>
			<trkpt lat="54.384010" lon="21.558970"><ele>57.1</ele><time>2026-07-14T17:09:12Z</time></trkpt>
			<trkpt lat="54.388240" lon="21.553550"><ele>54.7</ele><time>2026-07-14T17:09:21Z</time></trkpt>
			<trkpt lat="54.389400" lon="21.551760"><ele>56.7</ele><time>2026-07-14T17:09:29Z</time></trkpt>
			<trkpt lat="54.395610" lon="21.539520"><ele>55.5</ele><time>2026-07-14T17:09:37Z</time></trkpt>
			<trkpt lat="54.396740" lon="21.537320"><ele>53.3</ele><time>2026-07-14T17:09:46Z</time></trkpt>
			<trkpt lat="54.397000" lon="21.536970"><ele>52.2</ele><time>2026-07-14T17:09:54Z</time></trkpt>
			<trkpt lat="54.398510" lon="21.535400"><ele>49.0</ele><time>2026-07-14T17:10:02Z</time></trkpt>
			<trkpt lat="54.399990" lon="21.533850"><ele>50.0</ele><time>2026-07-14T17:10:11Z</time></trkpt>
			<trkpt lat="54.400080" lon="21.533640"><ele>50.0</ele><time>2026-07-14T17:10:19Z</time></trkpt>
			<trkpt lat="54.400110" lon="21.533240"><ele>50.1</ele><time>2026-07-14T17:10:28Z</time></trkpt>
			<trkpt lat="54.400090" lon="21.525500"><ele>49.3</ele><time>2026-07-14T17:10:36Z</time></trkpt>
			<trkpt lat="54.400190" lon="21.524480"><ele>48.3</ele><time>2026-07-14T17:10:44Z</time></trkpt>
			<trkpt lat="54.400390" lon="21.523590"><ele>48.2</ele><time>2026-07-14T17:10:53Z</time></trkpt>
			<trkpt lat="54.400870" lon="21.522820"><ele>47.4</ele><time>2026-07-14T17:11:01Z</time></trkpt>
			<trkpt lat="54.402900" lon="21.520140"><ele>48.0</ele><time>2026-07-14T17:11:09Z</time></trkpt>
			<trkpt lat="54.404050" lon="21.518680"><ele>48.0</ele><time>2026-07-14T17:11:18Z</time></trkpt>
			<trkpt lat="54.407700" lon="21.514050"><ele>48.5</ele><time>2026-07-14T17:11:26Z</time></trkpt>
			<trkpt lat="54.407920" lon="21.513770"><ele>48.3</ele><time>2026-07-14T17:11:34Z</time></trkpt>
			<trkpt lat="54.415630" lon="21.506270"><ele>44.0</ele><time>2026-07-14T17:11:43Z</time></trkpt>
			<trkpt lat="54.419590" lon="21.502470"><ele>41.5</ele><time>2026-07-14T17:11:51Z</time></trkpt>
			<trkpt lat="54.419790" lon="21.502320"><ele>41.8</ele><time>2026-07-14T17:12:00Z</time></trkpt>
			<trkpt lat="54.419950" lon="21.502260"><ele>42.1</ele><time>2026-07-14T17:12:08Z</time></trkpt>
			<trkpt lat="54.420080" lon="21.502280"><ele>42.3</ele><time>2026-07-14T17:12:16Z</time></trkpt>
			<trkpt lat="54.420260" lon="21.502380"><ele>42.7</ele><time>2026-07-14T17:12:25Z</time></trkpt>
			<trkpt lat="54.420400" lon="21.502410"><ele>43.0</ele><time>2026-07-14T17:12:33Z</time></trkpt>
			<trkpt lat="54.420530" lon="21.502310"><ele>43.4</ele><time>2026-07-14T17:12:41Z</time></trkpt>
			<trkpt lat="54.421190" lon="21.501440"><ele>44.5</ele><time>2026-07-14T17:12:50Z</time></trkpt>
			<trkpt lat="54.422030" lon="21.500190"><ele>42.7</ele><time>2026-07-14T17:12:58Z</time></trkpt>
			<trkpt lat="54.431710" lon="21.486800"><ele>40.9</ele><time>2026-07-14T17:13:07Z</time></trkpt>
			<trkpt lat="54.434740" lon="21.482490"><ele>37.0</ele><time>2026-07-14T17:13:15Z</time></trkpt>
			<trkpt lat="54.434950" lon="21.482250"><ele>36.6</ele><time>2026-07-14T17:13:23Z</time></trkpt>
			<trkpt lat="54.435150" lon="21.482070"><ele>36.7</ele><time>2026-07-14T17:13:32Z</time></trkpt>
			<trkpt lat="54.435390" lon="21.481940"><ele>37.1</ele><time>2026-07-14T17:13:40Z</time></trkpt>
			<trkpt lat="54.435550" lon="21.481880"><ele>37.4</ele><time>2026-07-14T17:13:48Z</time></trkpt>
			<trkpt lat="54.435820" lon="21.481860"><ele>37.5</ele><time>2026-07-14T17:13:57Z</time></trkpt>
			<trkpt lat="54.436070" lon="21.481930"><ele>36.9</ele><time>2026-07-14T17:14:05Z</time></trkpt>
			<trkpt lat="54.436170" lon="21.481990"><ele>36.6</ele><time>2026-07-14T17:14:13Z</time></trkpt>
			<trkpt lat="54.436260" lon="21.482070"><ele>36.3</ele><time>2026-07-14T17:14:22Z</time></trkpt>
			<trkpt lat="54.436350" lon="21.482160"><ele>35.9</ele><time>2026-07-14T17:14:30Z</time></trkpt>
			<trkpt lat="54.436480" lon="21.482330"><ele>35.6</ele><time>2026-07-14T17:14:39Z</time></trkpt>
			<trkpt lat="54.436900" lon="21.482910"><ele>36.5</ele><time>2026-07-14T17:14:47Z</time></trkpt>
			<trkpt lat="54.437610" lon="21.483930"><ele>41.0</ele><time>2026-07-14T17:14:55Z</time></trkpt>
			<trkpt lat="54.438170" lon="21.484670"><ele>41.6</ele><time>2026-07-14T17:15:04Z</time></trkpt>
			<trkpt lat="54.438240" lon="21.484760"><ele>41.6</ele><time>2026-07-14T17:15:12Z</time></trkpt>
			<trkpt lat="54.438830" lon="21.484740"><ele>41.7</ele><time>2026-07-14T17:15:20Z</time></trkpt>
			<trkpt lat="54.439590" lon="21.484070"><ele>41.9</ele><time>2026-07-14T17:15:29Z</time></trkpt>
			<trkpt lat="54.440280" lon="21.483370"><ele>40.7</ele><time>2026-07-14T17:15:37Z</time></trkpt>
			<trkpt lat="54.441880" lon="21.480960"><ele>41.9</ele><time>2026-07-14T17:15:46Z</time></trkpt>
			<trkpt lat="54.443430" lon="21.478430"><ele>39.6</ele><time>2026-07-14T17:15:54Z</time></trkpt>
			<trkpt lat="54.443480" lon="21.478340"><ele>39.7</ele><time>2026-07-14T17:16:02Z</time></trkpt>
			<trkpt lat="54.443860" lon="21.477750"><ele>40.0</ele><time>2026-07-14T17:16:11Z</time></trkpt>
			<trkpt lat="54.444660" lon="21.476430"><ele>39.0</ele><time>2026-07-14T17:16:19Z</time></trkpt>
			<trkpt lat="54.445280" lon="21.475410"><ele>39.6</ele><time>2026-07-14T17:16:27Z</time></trkpt>
			<trkpt lat="54.445890" lon="21.474410"><ele>39.0</ele><time>2026-07-14T17:16:36Z</time></trkpt>
			<trkpt lat="54.446310" lon="21.473730"><ele>38.5</ele><time>2026-07-14T17:16:44Z</time></trkpt>
			<trkpt lat="54.446380" lon="21.473600"><ele>38.3</ele><time>2026-07-14T17:16:52Z</time></trkpt>
			<trkpt lat="54.448140" lon="21.470760"><ele>39.2</ele><time>2026-07-14T17:17:01Z</time></trkpt>
			<trkpt lat="54.448530" lon="21.470130"><ele>38.7</ele><time>2026-07-14T17:17:09Z</time></trkpt>
			<trkpt lat="54.449730" lon="21.468110"><ele>36.9</ele><time>2026-07-14T17:17:18Z</time></trkpt>
			<trkpt lat="54.452020" lon="21.464320"><ele>37.0</ele><time>2026-07-14T17:17:26Z</time></trkpt>
			<trkpt lat="54.452020" lon="21.464320"><ele>37.0</ele><time>2026-07-14T17:17:35Z</time></trkpt>
			<trkpt lat="54.453930" lon="21.461180"><ele>34.5</ele><time>2026-07-14T17:17:45Z</time></trkpt>
			<trkpt lat="54.454950" lon="21.459550"><ele>34.6</ele><time>2026-07-14T17:17:54Z</time></trkpt>
			<trkpt lat="54.456690" lon="21.457370"><ele>35.0</ele><time>2026-07-14T17:18:04Z</time></trkpt>
			<trkpt lat="54.456880" lon="21.457140"><ele>35.3</ele><time>2026-07-14T17:18:13Z</time></trkpt>
			<trkpt lat="54.457790" lon="21.456000"><ele>36.7</ele><time>2026-07-14T17:18:23Z</time></trkpt>
			<trkpt lat="54.459480" lon="21.453890"><ele>37.9</ele><time>2026-07-14T17:18:32Z</time></trkpt>
			<trkpt lat="54.459660" lon="21.453730"><ele>37.9</ele><time>2026-07-14T17:18:42Z</time></trkpt>
			<trkpt lat="54.459850" lon="21.453610"><ele>37.8</ele><time>2026-07-14T17:18:51Z</time></trkpt>
			<trkpt lat="54.461550" lon="21.452870"><ele>36.6</ele><time>2026-07-14T17:19:01Z</time></trkpt>
			<trkpt lat="54.462940" lon="21.452290"><ele>36.1</ele><time>2026-07-14T17:19:10Z</time></trkpt>
			<trkpt lat="54.469180" lon="21.449610"><ele>34.8</ele><time>2026-07-14T17:19:20Z</time></trkpt>
			<trkpt lat="54.469990" lon="21.449270"><ele>36.0</ele><time>2026-07-14T17:19:29Z</time></trkpt>
			<trkpt lat="54.472150" lon="21.448350"><ele>38.0</ele><time>2026-07-14T17:19:39Z</time></trkpt>
			<trkpt lat="54.473250" lon="21.447860"><ele>37.1</ele><time>2026-07-14T17:19:48Z</time></trkpt>
			<trkpt lat="54.474320" lon="21.447510"><ele>35.6</ele><time>2026-07-14T17:19:58Z</time></trkpt>
			<trkpt lat="54.477450" lon="21.446520"><ele>29.9</ele><time>2026-07-14T17:20:07Z</time></trkpt>
			<trkpt lat="54.482300" lon="21.444990"><ele>33.7</ele><time>2026-07-14T17:20:17Z</time></trkpt>
			<trkpt lat="54.493910" lon="21.441360"><ele>29.5</ele><time>2026-07-14T17:20:26Z</time></trkpt>
			<trkpt lat="54.496830" lon="21.440460"><ele>25.9</ele><time>2026-07-14T17:20:36Z</time></trkpt>
			<trkpt lat="54.497610" lon="21.440190"><ele>26.7</ele><time>2026-07-14T17:20:45Z</time></trkpt>
			<trkpt lat="54.497870" lon="21.440000"><ele>26.5</ele><time>2026-07-14T17:20:55Z</time></trkpt>
			<trkpt lat="54.498110" lon="21.439780"><ele>26.2</ele><time>2026-07-14T17:21:04Z</time></trkpt>
			<trkpt lat="54.498410" lon="21.439400"><ele>26.1</ele><time>2026-07-14T17:21:14Z</time></trkpt>
			<trkpt lat="54.498760" lon="21.438830"><ele>26.7</ele><time>2026-07-14T17:21:23Z</time></trkpt>
			<trkpt lat="54.498980" lon="21.438330"><ele>27.3</ele><time>2026-07-14T17:21:33Z</time></trkpt>
			<trkpt lat="54.500150" lon="21.435450"><ele>28.1</ele><time>2026-07-14T17:21:42Z</time></trkpt>
			<trkpt lat="54.500550" lon="21.434390"><ele>26.5</ele><time>2026-07-14T17:21:52Z</time></trkpt>
			<trkpt lat="54.500590" lon="21.434250"><ele>26.3</ele><time>2026-07-14T17:22:01Z</time></trkpt>
			<trkpt lat="54.500620" lon="21.434110"><ele>26.0</ele><time>2026-07-14T17:22:11Z</time></trkpt>
			<trkpt lat="54.500630" lon="21.433960"><ele>25.9</ele><time>2026-07-14T17:22:20Z</time></trkpt>
			<trkpt lat="54.500640" lon="21.433810"><ele>25.9</ele><time>2026-07-14T17:22:30Z</time></trkpt>
			<trkpt lat="54.500620" lon="21.433340"><ele>25.8</ele><time>2026-07-14T17:22:39Z</time></trkpt>
			<trkpt lat="54.501000" lon="21.433650"><ele>26.0</ele><time>2026-07-14T17:22:49Z</time></trkpt>
			<trkpt lat="54.501480" lon="21.434110"><ele>26.0</ele><time>2026-07-14T17:22:58Z</time></trkpt>
			<trkpt lat="54.501570" lon="21.434400"><ele>26.3</ele><time>2026-07-14T17:23:07Z</time></trkpt>
			<trkpt lat="54.501730" lon="21.435000"><ele>27.0</ele><time>2026-07-14T17:23:17Z</time></trkpt>
			<trkpt lat="54.501830" lon="21.436270"><ele>27.9</ele><time>2026-07-14T17:23:26Z</time></trkpt>
			<trkpt lat="54.502380" lon="21.456320"><ele>30.4</ele><time>2026-07-14T17:23:36Z</time></trkpt>
			<trkpt lat="54.502500" lon="21.460140"><ele>31.2</ele><time>2026-07-14T17:23:45Z</time></trkpt>
			<trkpt lat="54.502500" lon="21.460140"><ele>31.2</ele><time>2026-07-14T17:23:56Z</time></trkpt>
			<trkpt lat="54.502680" lon="21.465960"><ele>30.9</ele><time>2026-07-14T17:24:07Z</time></trkpt>
			<trkpt lat="54.502930" lon="21.474260"><ele>30.3</ele><time>2026-07-14T17:24:17Z</time></trkpt>
			<trkpt lat="54.503320" lon="21.485550"><ele>31.0</ele><time>2026-07-14T17:24:28Z</time></trkpt>
			<trkpt lat="54.503380" lon="21.488600"><ele>31.8</ele><time>2026-07-14T17:24:39Z</time></trkpt>
			<trkpt lat="54.502900" lon="21.493590"><ele>33.5</ele><time>2026-07-14T17:24:49Z</time></trkpt>
			<trkpt lat="54.501030" lon="21.501930"><ele>32.4</ele><time>2026-07-14T17:25:00Z</time></trkpt>
			<trkpt lat="54.500020" lon="21.505000"><ele>31.0</ele><time>2026-07-14T17:25:11Z</time></trkpt>
			<trkpt lat="54.499580" lon="21.506790"><ele>30.5</ele><time>2026-07-14T17:25:21Z</time></trkpt>
			<trkpt lat="54.499530" lon="21.508230"><ele>30.5</ele><time>2026-07-14T17:25:32Z</time></trkpt>
			<trkpt lat="54.499640" lon="21.509820"><ele>29.6</ele><time>2026-07-14T17:25:43Z</time></trkpt>
			<trkpt lat="54.499880" lon="21.510550"><ele>29.9</ele><time>2026-07-14T17:25:53Z</time></trkpt>
			<trkpt lat="54.499990" lon="21.510850"><ele>30.0</ele><time>2026-07-14T17:26:04Z</time></trkpt>
			<trkpt lat="54.499950" lon="21.511250"><ele>30.0</ele><time>2026-07-14T17:26:15Z</time></trkpt>
			<trkpt lat="54.499460" lon="21.511850"><ele>29.8</ele><time>2026-07-14T17:26:25Z</time></trkpt>
			<trkpt lat="54.499000" lon="21.512240"><ele>29.3</ele><time>2026-07-14T17:26:36Z</time></trkpt>
			<trkpt lat="54.498840" lon="21.512940"><ele>29.0</ele><time>2026-07-14T17:26:47Z</time></trkpt>
			<trkpt lat="54.498690" lon="21.513530"><ele>29.3</ele><time>2026-07-14T17:26:57Z</time></trkpt>
			<trkpt lat="54.498290" lon="21.514380"><ele>30.4</ele><time>2026-07-14T17:27:08Z</time></trkpt>
			<trkpt lat="54.497790" lon="21.514950"><ele>31.1</ele><time>2026-07-14T17:27:19Z</time></trkpt>
			<trkpt lat="54.497150" lon="21.515420"><ele>31.2</ele><time>2026-07-14T17:27:29Z</time></trkpt>
			<trkpt lat="54.495260" lon="21.516820"><ele>30.7</ele><time>2026-07-14T17:27:40Z</time></trkpt>
			<trkpt lat="54.494810" lon="21.517200"><ele>31.1</ele><time>2026-07-14T17:27:51Z</time></trkpt>
			<trkpt lat="54.494120" lon="21.517960"><ele>31.5</ele><time>2026-07-14T17:28:01Z</time></trkpt>
			<trkpt lat="54.493620" lon="21.518470"><ele>31.6</ele><time>2026-07-14T17:28:12Z</time></trkpt>
			<trkpt lat="54.493290" lon="21.518970"><ele>32.4</ele><time>2026-07-14T17:28:23Z</time></trkpt>
			<trkpt lat="54.493090" lon="21.519590"><ele>33.6</ele><time>2026-07-14T17:28:33Z</time></trkpt>
			<trkpt lat="54.492830" lon="21.520570"><ele>35.9</ele><time>2026-07-14T17:28:44Z</time></trkpt>
			<trkpt lat="54.491280" lon="21.527070"><ele>38.3</ele><time>2026-07-14T17:28:54Z</time></trkpt>
			<trkpt lat="54.490870" lon="21.528800"><ele>38.4</ele><time>2026-07-14T17:29:05Z</time></trkpt>
			<trkpt lat="54.490550" lon="21.530130"><ele>36.3</ele><time>2026-07-14T17:29:16Z</time></trkpt>
			<trkpt lat="54.490300" lon="21.531350"><ele>35.1</ele><time>2026-07-14T17:29:26Z</time></trkpt>
			<trkpt lat="54.488680" lon="21.544590"><ele>33.9</ele><time>2026-07-14T17:29:37Z</time></trkpt>
			<trkpt lat="54.488680" lon="21.544590"><ele>33.9</ele><time>2026-07-14T17:29:45Z</time></trkpt>
			<trkpt lat="54.488490" lon="21.546100"><ele>33.9</ele><time>2026-07-14T17:29:54Z</time></trkpt>
			<trkpt lat="54.487900" lon="21.547830"><ele>33.1</ele><time>2026-07-14T17:30:02Z</time></trkpt>
			<trkpt lat="54.487270" lon="21.549400"><ele>35.4</ele><time>2026-07-14T17:30:11Z</time></trkpt>
			<trkpt lat="54.486430" lon="21.551790"><ele>38.0</ele><time>2026-07-14T17:30:19Z</time></trkpt>
			<trkpt lat="54.486370" lon="21.552350"><ele>38.5</ele><time>2026-07-14T17:30:27Z</time></trkpt>
			<trkpt lat="54.486330" lon="21.552970"><ele>39.7</ele><time>2026-07-14T17:30:36Z</time></trkpt>
			<trkpt lat="54.486250" lon="21.554690"><ele>41.0</ele><time>2026-07-14T17:30:44Z</time></trkpt>
			<trkpt lat="54.485790" lon="21.559300"><ele>40.7</ele><time>2026-07-14T17:30:53Z</time></trkpt>
			<trkpt lat="54.485740" lon="21.560200"><ele>39.5</ele><time>2026-07-14T17:31:01Z</time></trkpt>
			<trkpt lat="54.481250" lon="21.566180"><ele>40.0</ele><time>2026-07-14T17:31:09Z</time></trkpt>
			<trkpt lat="54.471850" lon="21.578690"><ele>38.1</ele><time>2026-07-14T17:31:18Z</time></trkpt>
			<trkpt lat="54.471360" lon="21.579320"><ele>39.0</ele><time>2026-07-14T17:31:26Z</time></trkpt>
			<trkpt lat="54.471240" lon="21.579550"><ele>39.3</ele><time>2026-07-14T17:31:35Z</time></trkpt>
			<trkpt lat="54.471200" lon="21.579640"><ele>39.4</ele><time>2026-07-14T17:31:43Z</time></trkpt>
			<trkpt lat="54.471070" lon="21.580010"><ele>39.6</ele><time>2026-07-14T17:31:51Z</time></trkpt>
			<trkpt lat="54.471010" lon="21.580310"><ele>39.6</ele><time>2026-07-14T17:32:00Z</time></trkpt>
			<trkpt lat="54.470980" lon="21.580580"><ele>39.3</ele><time>2026-07-14T17:32:08Z</time></trkpt>
			<trkpt lat="54.470970" lon="21.580660"><ele>39.1</ele><time>2026-07-14T17:32:17Z</time></trkpt>
			<trkpt lat="54.470950" lon="21.582100"><ele>37.9</ele><time>2026-07-14T17:32:25Z</time></trkpt>
			<trkpt lat="54.471800" lon="21.601870"><ele>40.1</ele><time>2026-07-14T17:32:33Z</time></trkpt>
			<trkpt lat="54.471770" lon="21.602970"><ele>41.6</ele><time>2026-07-14T17:32:42Z</time></trkpt>
			<trkpt lat="54.471630" lon="21.603670"><ele>43.2</ele><time>2026-07-14T17:32:50Z</time></trkpt>
			<trkpt lat="54.471470" lon="21.604910"><ele>42.9</ele><time>2026-07-14T17:32:58Z</time></trkpt>
			<trkpt lat="54.470730" lon="21.609150"><ele>40.0</ele><time>2026-07-14T17:33:07Z</time></trkpt>
			<trkpt lat="54.468800" lon="21.620630"><ele>40.2</ele><time>2026-07-14T17:33:15Z</time></trkpt>
			<trkpt lat="54.468600" lon="21.622040"><ele>39.1</ele><time>2026-07-14T17:33:24Z</time></trkpt>
			<trkpt lat="54.468750" lon="21.622970"><ele>38.5</ele><time>2026-07-14T17:33:32Z</time></trkpt>
			<trkpt lat="54.468760" lon="21.623580"><ele>38.8</ele><time>2026-07-14T17:33:40Z</time></trkpt>
			<trkpt lat="54.468580" lon="21.624800"><ele>39.8</ele><time>2026-07-14T17:33:49Z</time></trkpt>
			<trkpt lat="54.465610" lon="21.641020"><ele>41.0</ele><time>2026-07-14T17:33:57Z</time></trkpt>
			<trkpt lat="54.464980" lon="21.644450"><ele>42.0</ele><time>2026-07-14T17:34:06Z</time></trkpt>
			<trkpt lat="54.464790" lon="21.645520"><ele>42.2</ele><time>2026-07-14T17:34:14Z</time></trkpt>
			<trkpt lat="54.464130" lon="21.649090"><ele>42.8</ele><time>2026-07-14T17:34:22Z</time></trkpt>
			<trkpt lat="54.463850" lon="21.650690"><ele>44.2</ele><time>2026-07-14T17:34:31Z</time></trkpt>
			<trkpt lat="54.463760" lon="21.651300"><ele>44.7</ele><time>2026-07-14T17:34:39Z</time></trkpt>
			<trkpt lat="54.463700" lon="21.652030"><ele>44.9</ele><time>2026-07-14T17:34:48Z</time></trkpt>
			<trkpt lat="54.463660" lon="21.652870"><ele>44.7</ele><time>2026-07-14T17:34:56Z</time></trkpt>
			<trkpt lat="54.463600" lon="21.654460"><ele>44.5</ele><time>2026-07-14T17:35:04Z</time></trkpt>
			<trkpt lat="54.463880" lon="21.654670"><ele>44.1</ele><time>2026-07-14T17:35:13Z</time></trkpt>
			<trkpt lat="54.465580" lon="21.655870"><ele>43.3</ele><time>2026-07-14T17:35:21Z</time></trkpt>
			<trkpt lat="54.468730" lon="21.658060"><ele>46.2</ele><time>2026-07-14T17:35:29Z</time></trkpt>
			<trkpt lat="54.472750" lon="21.660670"><ele>44.8</ele><time>2026-07-14T17:35:38Z</time></trkpt>
			<trkpt lat="54.478940" lon="21.664490"><ele>43.3</ele><time>2026-07-14T17:35:46Z</time></trkpt>
			<trkpt lat="54.486660" lon="21.669140"><ele>42.4</ele><time>2026-07-14T17:35:55Z</time></trkpt>
			<trkpt lat="54.488390" lon="21.670180"><ele>37.7</ele><time>2026-07-14T17:36:03Z</time></trkpt>
			<trkpt lat="54.494600" lon="21.673760"><ele>37.8</ele><time>2026-07-14T17:36:11Z</time></trkpt>
			<trkpt lat="54.494610" lon="21.674050"><ele>37.9</ele><time>2026-07-14T17:36:20Z</time></trkpt>
			<trkpt lat="54.494580" lon="21.674280"><ele>38.0</ele><time>2026-07-14T17:36:28Z</time></trkpt>
			<trkpt lat="54.494180" lon="21.675650"><ele>37.5</ele><time>2026-07-14T17:36:37Z</time></trkpt>
			<trkpt lat="54.494130" lon="21.675880"><ele>37.1</ele><time>2026-07-14T17:36:45Z</time></trkpt>
			<trkpt lat="54.494140" lon="21.676110"><ele>36.7</ele><time>2026-07-14T17:36:53Z</time></trkpt>
			<trkpt lat="54.494190" lon="21.676310"><ele>36.6</ele><time>2026-07-14T17:37:02Z</time></trkpt>
			<trkpt lat="54.494310" lon="21.676500"><ele>36.6</ele><time>2026-07-14T17:37:10Z</time></trkpt>
			<trkpt lat="54.494470" lon="21.676700"><ele>36.6</ele><time>2026-07-14T17:37:19Z</time></trkpt>
			<trkpt lat="54.494610" lon="21.676860"><ele>36.6</ele><time>2026-07-14T17:37:27Z</time></trkpt>
			<trkpt lat="54.494970" lon="21.677190"><ele>36.7</ele><time>2026-07-14T17:37:35Z</time></trkpt>
			<trkpt lat="54.497110" lon="21.678950"><ele>36.5</ele><time>2026-07-14T17:37:44Z</time></trkpt>
			<trkpt lat="54.497850" lon="21.679660"><ele>36.4</ele><time>2026-07-14T17:37:52Z</time></trkpt>
			<trkpt lat="54.498080" lon="21.680230"><ele>35.9</ele><time>2026-07-14T17:38:00Z</time></trkpt>
			<trkpt lat="54.498310" lon="21.681420"><ele>35.0</ele><time>2026-07-14T17:38:09Z</time></trkpt>
			<trkpt lat="54.498800" lon="21.682880"><ele>36.4</ele><time>2026-07-14T17:38:17Z</time></trkpt>
			<trkpt lat="54.499720" lon="21.684330"><ele>36.8</ele><time>2026-07-14T17:38:26Z</time></trkpt>
			<trkpt lat="54.500380" lon="21.685370"><ele>37.2</ele><time>2026-07-14T17:38:34Z</time></trkpt>
			<trkpt lat="54.500740" lon="21.685930"><ele>38.1</ele><time>2026-07-14T17:38:42Z</time></trkpt>
			<trkpt lat="54.501160" lon="21.686610"><ele>38.9</ele><time>2026-07-14T17:38:51Z</time></trkpt>
			<trkpt lat="54.501640" lon="21.687400"><ele>39.7</ele><time>2026-07-14T17:38:59Z</time></trkpt>
			<trkpt lat="54.502000" lon="21.687990"><ele>39.7</ele><time>2026-07-14T17:39:08Z</time></trkpt>
			<trkpt lat="54.502170" lon="21.688270"><ele>39.5</ele><time>2026-07-14T17:39:16Z</time></trkpt>
			<trkpt lat="54.502420" lon="21.688680"><ele>39.1</ele><time>2026-07-14T17:39:24Z</time></trkpt>
			<trkpt lat="54.502750" lon="21.689220"><ele>38.9</ele><time>2026-07-14T17:39:33Z</time></trkpt>
			<trkpt lat="54.502910" lon="21.689440"><ele>39.0</ele><time>2026-07-14T17:39:41Z</time></trkpt>
			<trkpt lat="54.503520" lon="21.690130"><ele>39.6</ele><time>2026-07-14T17:39:50Z</time></trkpt>
			<trkpt lat="54.505030" lon="21.691780"><ele>36.9</ele><time>2026-07-14T17:39:58Z</time></trkpt>
			<trkpt lat="54.508310" lon="21.695500"><ele>35.3</ele><time>2026-07-14T17:40:06Z</time></trkpt>
			<trkpt lat="54.512330" lon="21.700080"><ele>35.0</ele><time>2026-07-14T17:40:15Z</time></trkpt>
			<trkpt lat="54.512460" lon="21.700230"><ele>35.0</ele><time>2026-07-14T17:40:23Z</time></trkpt>
			<trkpt lat="54.516900" lon="21.703690"><ele>36.0</ele><time>2026-07-14T17:40:32Z</time></trkpt>
			<trkpt lat="54.523540" lon="21.708740"><ele>40.0</ele><time>2026-07-14T17:40:40Z</time></trkpt>
			<trkpt lat="54.527900" lon="21.712130"><ele>38.6</ele><time>2026-07-14T17:40:48Z</time></trkpt>
			<trkpt lat="54.528300" lon="21.712530"><ele>39.5</ele><time>2026-07-14T17:40:57Z</time></trkpt>
			<trkpt lat="54.528510" lon="21.712820"><ele>39.4</ele><time>2026-07-14T17:41:05Z</time></trkpt>
			<trkpt lat="54.530840" lon="21.715990"><ele>40.6</ele><time>2026-07-14T17:41:13Z</time></trkpt>
			<trkpt lat="54.533530" lon="21.718830"><ele>38.6</ele><time>2026-07-14T17:41:22Z</time></trkpt>
			<trkpt lat="54.534930" lon="21.720340"><ele>39.1</ele><time>2026-07-14T17:41:30Z</time></trkpt>
			<trkpt lat="54.536880" lon="21.722650"><ele>36.8</ele><time>2026-07-14T17:41:39Z</time></trkpt>
			<trkpt lat="54.538970" lon="21.725040"><ele>36.8</ele><time>2026-07-14T17:41:47Z</time></trkpt>
			<trkpt lat="54.539000" lon="21.725080"><ele>36.9</ele><time>2026-07-14T17:41:55Z</time></trkpt>
			<trkpt lat="54.539160" lon="21.725260"><ele>37.2</ele><time>2026-07-14T17:42:04Z</time></trkpt>
			<trkpt lat="54.540210" lon="21.726500"><ele>36.7</ele><time>2026-07-14T17:42:12Z</time></trkpt>
			<trkpt lat="54.540620" lon="21.726940"><ele>36.2</ele><time>2026-07-14T17:42:21Z</time></trkpt>
			<trkpt lat="54.540830" lon="21.727120"><ele>35.9</ele><time>2026-07-14T17:42:29Z</time></trkpt>
			<trkpt lat="54.541770" lon="21.727760"><ele>33.2</ele><time>2026-07-14T17:42:37Z</time></trkpt>
			<trkpt lat="54.542790" lon="21.728430"><ele>32.1</ele><time>2026-07-14T17:42:46Z</time></trkpt>
			<trkpt lat="54.542970" lon="21.728550"><ele>32.3</ele><time>2026-07-14T17:42:54Z</time></trkpt>
			<trkpt lat="54.543140" lon="21.728660"><ele>32.7</ele><time>2026-07-14T17:43:03Z</time></trkpt>
			<trkpt lat="54.543260" lon="21.728850"><ele>33.2</ele><time>2026-07-14T17:43:11Z</time></trkpt>
			<trkpt lat="54.543490" lon="21.729300"><ele>34.8</ele><time>2026-07-14T17:43:19Z</time></trkpt>
			<trkpt lat="54.543600" lon="21.729500"><ele>35.5</ele><time>2026-07-14T17:43:28Z</time></trkpt>
			<trkpt lat="54.543810" lon="21.729790"><ele>36.3</ele><time>2026-07-14T17:43:36Z</time></trkpt>
			<trkpt lat="54.544050" lon="21.729910"><ele>36.8</ele><time>2026-07-14T17:43:44Z</time></trkpt>
			<trkpt lat="54.544200" lon="21.730100"><ele>37.1</ele><time>2026-07-14T17:43:53Z</time></trkpt>
			<trkpt lat="54.545070" lon="21.731370"><ele>38.5</ele><time>2026-07-14T17:44:01Z</time></trkpt>
			<trkpt lat="54.545140" lon="21.731480"><ele>38.6</ele><time>2026-07-14T17:44:10Z</time></trkpt>
			<trkpt lat="54.545720" lon="21.732380"><ele>38.2</ele><time>2026-07-14T17:44:18Z</time></trkpt>
			<trkpt lat="54.545790" lon="21.732460"><ele>38.1</ele><time>2026-07-14T17:44:26Z</time></trkpt>
			<trkpt lat="54.546250" lon="21.733160"><ele>39.7</ele><time>2026-07-14T17:44:35Z</time></trkpt>
			<trkpt lat="54.547790" lon="21.735460"><ele>39.2</ele><time>2026-07-14T17:44:43Z</time></trkpt>
			<trkpt lat="54.548410" lon="21.736410"><ele>38.9</ele><time>2026-07-14T17:44:52Z</time></trkpt>
			<trkpt lat="54.548640" lon="21.736670"><ele>38.6</ele><time>2026-07-14T17:45:00Z</time></trkpt>
			<trkpt lat="54.548650" lon="21.736680"><ele>38.6</ele><time>2026-07-14T17:45:08Z</time></trkpt>
			<trkpt lat="54.548830" lon="21.736810"><ele>38.3</ele><time>2026-07-14T17:45:17Z</time></trkpt>
			<trkpt lat="54.549000" lon="21.736890"><ele>38.0</ele><time>2026-07-14T17:45:25Z</time></trkpt>
			<trkpt lat="54.549170" lon="21.736960"><ele>37.7</ele><time>2026-07-14T17:45:34Z</time></trkpt>
			<trkpt lat="54.549720" lon="21.737070"><ele>37.2</ele><time>2026-07-14T17:45:42Z</time></trkpt>
			<trkpt lat="54.550150" lon="21.737150"><ele>37.1</ele><time>2026-07-14T17:45:50Z</time></trkpt>
			<trkpt lat="54.550260" lon="21.737160"><ele>37.2</ele><time>2026-07-14T17:45:59Z</time></trkpt>
			<trkpt lat="54.553290" lon="21.737680"><ele>37.0</ele><time>2026-07-14T17:46:07Z</time></trkpt>
			<trkpt lat="54.554120" lon="21.737850"><ele>37.4</ele><time>2026-07-14T17:46:15Z</time></trkpt>
			<trkpt lat="54.554310" lon="21.737950"><ele>37.4</ele><time>2026-07-14T17:46:24Z</time></trkpt>
			<trkpt lat="54.556200" lon="21.739150"><ele>35.5</ele><time>2026-07-14T17:46:32Z</time></trkpt>
			<trkpt lat="54.560500" lon="21.741800"><ele>34.9</ele><time>2026-07-14T17:46:41Z</time></trkpt>
			<trkpt lat="54.566450" lon="21.745430"><ele>34.1</ele><time>2026-07-14T17:46:49Z</time></trkpt>
			<trkpt lat="54.570310" lon="21.747200"><ele>33.0</ele><time>2026-07-14T17:46:57Z</time></trkpt>
			<trkpt lat="54.573450" lon="21.748660"><ele>32.0</ele><time>2026-07-14T17:47:06Z</time></trkpt>
			<trkpt lat="54.574100" lon="21.748970"><ele>32.1</ele><time>2026-07-14T17:47:14Z</time></trkpt>
			<trkpt lat="54.574790" lon="21.749300"><ele>32.5</ele><time>2026-07-14T17:47:23Z</time></trkpt>
			<trkpt lat="54.574920" lon="21.749360"><ele>32.5</ele><time>2026-07-14T17:47:31Z</time></trkpt>
			<trkpt lat="54.575570" lon="21.750090"><ele>30.7</ele><time>2026-07-14T17:47:39Z</time></trkpt>
			<trkpt lat="54.575900" lon="21.750520"><ele>30.2</ele><time>2026-07-14T17:47:48Z</time></trkpt>
			<trkpt lat="54.576040" lon="21.750780"><ele>30.5</ele><time>2026-07-14T17:47:56Z</time></trkpt>
			<trkpt lat="54.576160" lon="21.751090"><ele>31.0</ele><time>2026-07-14T17:48:05Z</time></trkpt>
			<trkpt lat="54.576820" lon="21.753460"><ele>32.0</ele><time>2026-07-14T17:48:13Z</time></trkpt>
			<trkpt lat="54.577100" lon="21.754350"><ele>33.3</ele><time>2026-07-14T17:48:21Z</time></trkpt>
			<trkpt lat="54.577300" lon="21.754780"><ele>34.3</ele><time>2026-07-14T17:48:30Z</time></trkpt>
			<trkpt lat="54.577480" lon="21.755120"><ele>34.5</ele><time>2026-07-14T17:48:38Z</time></trkpt>
			<trkpt lat="54.578130" lon="21.755830"><ele>34.7</ele><time>2026-07-14T17:48:47Z</time></trkpt>
			<trkpt lat="54.578390" lon="21.756230"><ele>34.5</ele><time>2026-07-14T17:48:55Z</time></trkpt>
			<trkpt lat="54.578730" lon="21.756740"><ele>33.0</ele><time>2026-07-14T17:49:03Z</time></trkpt>
			<trkpt lat="54.579170" lon="21.757500"><ele>31.3</ele><time>2026-07-14T17:49:12Z</time></trkpt>
			<trkpt lat="54.579990" lon="21.758780"><ele>31.0</ele><time>2026-07-14T17:49:20Z</time></trkpt>
			<trkpt lat="54.580480" lon="21.759570"><ele>30.2</ele><time>2026-07-14T17:49:28Z</time></trkpt>
			<trkpt lat="54.581380" lon="21.761040"><ele>30.3</ele><time>2026-07-14T17:49:37Z</time></trkpt>
			<trkpt lat="54.581990" lon="21.762010"><ele>30.8</ele><time>2026-07-14T17:49:45Z</time></trkpt>
			<trkpt lat="54.582150" lon="21.762250"><ele>31.3</ele><time>2026-07-14T17:49:54Z</time></trkpt>
			<trkpt lat="54.582350" lon="21.762530"><ele>31.6</ele><time>2026-07-14T17:50:02Z</time></trkpt>
			<trkpt lat="54.582560" lon="21.762750"><ele>31.7</ele><time>2026-07-14T17:50:10Z</time></trkpt>
			<trkpt lat="54.583450" lon="21.763480"><ele>32.3</ele><time>2026-07-14T17:50:19Z</time></trkpt>
			<trkpt lat="54.585020" lon="21.764690"><ele>33.7</ele><time>2026-07-14T17:50:27Z</time></trkpt>
			<trkpt lat="54.585460" lon="21.765080"><ele>34.1</ele><time>2026-07-14T17:50:36Z</time></trkpt>
			<trkpt lat="54.585850" lon="21.765500"><ele>34.9</ele><time>2026-07-14T17:50:44Z</time></trkpt>
			<trkpt lat="54.586120" lon="21.765940"><ele>35.0</ele><time>2026-07-14T17:50:52Z</time></trkpt>
			<trkpt lat="54.586320" lon="21.766310"><ele>34.6</ele><time>2026-07-14T17:51:01Z</time></trkpt>
			<trkpt lat="54.586460" lon="21.766610"><ele>34.1</ele><time>2026-07-14T17:51:09Z</time></trkpt>
			<trkpt lat="54.586580" lon="21.766900"><ele>33.7</ele><time>2026-07-14T17:51:18Z</time></trkpt>
			<trkpt lat="54.587160" lon="21.768570"><ele>33.8</ele><time>2026-07-14T17:51:26Z</time></trkpt>
			<trkpt lat="54.589180" lon="21.774740"><ele>32.0</ele><time>2026-07-14T17:51:34Z</time></trkpt>
			<trkpt lat="54.590760" lon="21.779500"><ele>32.9</ele><time>2026-07-14T17:51:43Z</time></trkpt>
			<trkpt lat="54.591530" lon="21.781800"><ele>33.2</ele><time>2026-07-14T17:51:51Z</time></trkpt>
			<trkpt lat="54.592890" lon="21.785850"><ele>32.4</ele><time>2026-07-14T17:51:59Z</time></trkpt>
			<trkpt lat="54.594400" lon="21.790390"><ele>33.0</ele><time>2026-07-14T17:52:08Z</time></trkpt>
			<trkpt lat="54.594680" lon="21.791390"><ele>33.0</ele><time>2026-07-14T17:52:16Z</time></trkpt>
			<trkpt lat="54.596010" lon="21.797050"><ele>32.7</ele><time>2026-07-14T17:52:25Z</time></trkpt>
			<trkpt lat="54.596450" lon="21.798800"><ele>33.1</ele><time>2026-07-14T17:52:33Z</time></trkpt>
			<trkpt lat="54.596640" lon="21.799360"><ele>32.7</ele><time>2026-07-14T17:52:41Z</time></trkpt>
			<trkpt lat="54.596870" lon="21.799930"><ele>32.3</ele><time>2026-07-14T17:52:50Z</time></trkpt>
			<trkpt lat="54.597620" lon="21.801290"><ele>32.6</ele><time>2026-07-14T17:52:58Z</time></trkpt>
			<trkpt lat="54.598150" lon="21.802230"><ele>32.3</ele><time>2026-07-14T17:53:07Z</time></trkpt>
			<trkpt lat="54.598470" lon="21.802910"><ele>32.7</ele><time>2026-07-14T17:53:15Z</time></trkpt>
			<trkpt lat="54.598800" lon="21.803790"><ele>34.7</ele><time>2026-07-14T17:53:23Z</time></trkpt>
			<trkpt lat="54.600370" lon="21.808670"><ele>40.2</ele><time>2026-07-14T17:53:32Z</time></trkpt>
			<trkpt lat="54.600400" lon="21.808710"><ele>40.1</ele><time>2026-07-14T17:53:40Z</time></trkpt>
			<trkpt lat="54.602200" lon="21.814150"><ele>36.4</ele><time>2026-07-14T17:53:49Z</time></trkpt>
			<trkpt lat="54.603140" lon="21.817830"><ele>35.7</ele><time>2026-07-14T17:53:57Z</time></trkpt>
			<trkpt lat="54.603810" lon="21.820680"><ele>36.9</ele><time>2026-07-14T17:54:05Z</time></trkpt>
			<trkpt lat="54.604230" lon="21.822240"><ele>37.4</ele><time>2026-07-14T17:54:14Z</time></trkpt>
			<trkpt lat="54.605600" lon="21.828010"><ele>39.0</ele><time>2026-07-14T17:54:22Z</time></trkpt>
			<trkpt lat="54.608470" lon="21.826880"><ele>38.0</ele><time>2026-07-14T17:54:30Z</time></trkpt>
			<trkpt lat="54.608730" lon="21.826830"><ele>37.0</ele><time>2026-07-14T17:54:39Z</time></trkpt>
			<trkpt lat="54.608970" lon="21.826960"><ele>35.9</ele><time>2026-07-14T17:54:47Z</time></trkpt>
			<trkpt lat="54.609150" lon="21.827210"><ele>35.1</ele><time>2026-07-14T17:54:56Z</time></trkpt>
			<trkpt lat="54.610740" lon="21.829240"><ele>32.7</ele><time>2026-07-14T17:55:04Z</time></trkpt>
			<trkpt lat="54.612040" lon="21.830910"><ele>30.4</ele><time>2026-07-14T17:55:12Z</time></trkpt>
			<trkpt lat="54.612390" lon="21.831200"><ele>30.8</ele><time>2026-07-14T17:55:21Z</time></trkpt>
			<trkpt lat="54.612650" lon="21.831310"><ele>31.7</ele><time>2026-07-14T17:55:29Z</time></trkpt>
			<trkpt lat="54.612770" lon="21.831320"><ele>32.2</ele><time>2026-07-14T17:55:38Z</time></trkpt>
			<trkpt lat="54.613010" lon="21.831380"><ele>33.2</ele><time>2026-07-14T17:55:46Z</time></trkpt>
			<trkpt lat="54.613340" lon="21.831350"><ele>34.5</ele><time>2026-07-14T17:55:54Z</time></trkpt>
			<trkpt lat="54.614170" lon="21.831100"><ele>37.0</ele><time>2026-07-14T17:56:03Z</time></trkpt>
			<trkpt lat="54.615800" lon="21.830420"><ele>37.0</ele><time>2026-07-14T17:56:11Z</time></trkpt>
			<trkpt lat="54.618010" lon="21.829500"><ele>32.3</ele><time>2026-07-14T17:56:20Z</time></trkpt>
			<trkpt lat="54.618260" lon="21.829290"><ele>31.4</ele><time>2026-07-14T17:56:28Z</time></trkpt>
			<trkpt lat="54.618410" lon="21.829120"><ele>31.0</ele><time>2026-07-14T17:56:36Z</time></trkpt>
			<trkpt lat="54.618580" lon="21.828840"><ele>31.0</ele><time>2026-07-14T17:56:45Z</time></trkpt>
			<trkpt lat="54.619610" lon="21.826920"><ele>33.7</ele><time>2026-07-14T17:56:53Z</time></trkpt>
			<trkpt lat="54.620410" lon="21.825390"><ele>32.5</ele><time>2026-07-14T17:57:02Z</time></trkpt>
			<trkpt lat="54.620660" lon="21.824920"><ele>31.9</ele><time>2026-07-14T17:57:10Z</time></trkpt>
			<trkpt lat="54.620850" lon="21.824550"><ele>31.5</ele><time>2026-07-14T17:57:18Z</time></trkpt>
			<trkpt lat="54.621620" lon="21.823100"><ele>31.9</ele><time>2026-07-14T17:57:27Z</time></trkpt>
			<trkpt lat="54.621890" lon="21.822590"><ele>32.5</ele><time>2026-07-14T17:57:35Z</time></trkpt>
			<trkpt lat="54.622940" lon="21.821060"><ele>31.8</ele><time>2026-07-14T17:57:43Z</time></trkpt>
			<trkpt lat="54.624490" lon="21.818820"><ele>32.6</ele><time>2026-07-14T17:57:52Z</time></trkpt>
			<trkpt lat="54.624660" lon="21.818490"><ele>32.9</ele><time>2026-07-14T17:58:00Z</time></trkpt>
			<trkpt lat="54.624760" lon="21.818080"><ele>33.1</ele><time>2026-07-14T17:58:09Z</time></trkpt>
			<trkpt lat="54.624930" lon="21.816970"><ele>31.9</ele><time>2026-07-14T17:58:17Z</time></trkpt>
			<trkpt lat="54.625000" lon="21.816560"><ele>30.9</ele><time>2026-07-14T17:58:25Z</time></trkpt>
			<trkpt lat="54.625140" lon="21.815360"><ele>29.6</ele><time>2026-07-14T17:58:34Z</time></trkpt>
			<trkpt lat="54.625280" lon="21.814660"><ele>29.1</ele><time>2026-07-14T17:58:42Z</time></trkpt>
			<trkpt lat="54.625630" lon="21.814260"><ele>29.5</ele><time>2026-07-14T17:58:51Z</time></trkpt>
			<trkpt lat="54.625880" lon="21.814000"><ele>29.6</ele><time>2026-07-14T17:58:59Z</time></trkpt>
			<trkpt lat="54.626860" lon="21.813280"><ele>30.4</ele><time>2026-07-14T17:59:07Z</time></trkpt>
			<trkpt lat="54.627650" lon="21.812690"><ele>31.2</ele><time>2026-07-14T17:59:16Z</time></trkpt>
			<trkpt lat="54.628440" lon="21.812070"><ele>30.3</ele><time>2026-07-14T17:59:24Z</time></trkpt>
			<trkpt lat="54.629010" lon="21.811610"><ele>31.1</ele><time>2026-07-14T17:59:33Z</time></trkpt>
			<trkpt lat="54.629290" lon="21.810420"><ele>30.3</ele><time>2026-07-14T17:59:41Z</time></trkpt>
			<trkpt lat="54.629400" lon="21.810120"><ele>30.0</ele><time>2026-07-14T17:59:49Z</time></trkpt>
			<trkpt lat="54.629500" lon="21.810080"><ele>30.2</ele><time>2026-07-14T17:59:58Z</time></trkpt>
			<trkpt lat="54.629870" lon="21.810120"><ele>30.7</ele><time>2026-07-14T18:00:06Z</time></trkpt>
			<trkpt lat="54.629953" lon="21.810135"><ele>30.8</ele><time>2026-07-14T18:00:14Z</time></trkpt>
			<trkpt lat="54.629950" lon="21.810130"><ele>30.8</ele><time>2026-07-14T18:00:17Z</time></trkpt>
			<trkpt lat="54.629960" lon="21.810140"><ele>30.8</ele><time>2026-07-14T18:00:20Z</time></trkpt>
			<trkpt lat="54.629980" lon="21.809840"><ele>30.9</ele><time>2026-07-14T18:00:23Z</time></trkpt>
			<trkpt lat="54.630040" lon="21.809390"><ele>31.0</ele><time>2026-07-14T18:00:26Z</time></trkpt>
			<trkpt lat="54.630170" lon="21.808550"><ele>31.5</ele><time>2026-07-14T18:00:29Z</time></trkpt>
			<trkpt lat="54.630460" lon="21.807080"><ele>33.5</ele><time>2026-07-14T18:00:32Z</time></trkpt>
			<trkpt lat="54.630930" lon="21.806040"><ele>33.4</ele><time>2026-07-14T18:00:35Z</time></trkpt>
			<trkpt lat="54.630980" lon="21.805820"><ele>33.2</ele><time>2026-07-14T18:00:38Z</time></trkpt>
			<trkpt lat="54.630970" lon="21.805280"><ele>32.7</ele><time>2026-07-14T18:00:41Z</time></trkpt>
			<trkpt lat="54.630970" lon="21.805070"><ele>32.7</ele><time>2026-07-14T18:00:44Z</time></trkpt>
			<trkpt lat="54.630960" lon="21.804830"><ele>32.7</ele><time>2026-07-14T18:00:47Z</time></trkpt>
			<trkpt lat="54.631100" lon="21.803390"><ele>32.0</ele><time>2026-07-14T18:00:50Z</time></trkpt>
			<trkpt lat="54.631180" lon="21.802700"><ele>32.0</ele><time>2026-07-14T18:00:53Z</time></trkpt>
			<trkpt lat="54.631240" lon="21.802380"><ele>32.0</ele><time>2026-07-14T18:00:56Z</time></trkpt>
			<trkpt lat="54.631300" lon="21.802430"><ele>32.0</ele><time>2026-07-14T18:00:59Z</time></trkpt>
			<trkpt lat="54.631350" lon="21.802480"><ele>32.0</ele><time>2026-07-14T18:01:01Z</time></trkpt>
			<trkpt lat="54.631480" lon="21.802600"><ele>32.0</ele><time>2026-07-14T18:01:04Z</time></trkpt>
			<trkpt lat="54.631700" lon="21.802800"><ele>31.5</ele><time>2026-07-14T18:01:07Z</time></trkpt>
			<trkpt lat="54.631890" lon="21.802980"><ele>30.9</ele><time>2026-07-14T18:01:10Z</time></trkpt>
			<trkpt lat="54.631960" lon="21.803030"><ele>30.6</ele><time>2026-07-14T18:01:13Z</time></trkpt>
			<trkpt lat="54.632150" lon="21.803060"><ele>29.7</ele><time>2026-07-14T18:01:16Z</time></trkpt>
			<trkpt lat="54.632690" lon="21.803090"><ele>27.5</ele><time>2026-07-14T18:01:19Z</time></trkpt>
			<trkpt lat="54.632770" lon="21.803090"><ele>27.3</ele><time>2026-07-14T18:01:22Z</time></trkpt>
			<trkpt lat="54.632900" lon="21.803100"><ele>26.9</ele><time>2026-07-14T18:01:25Z</time></trkpt>
			<trkpt lat="54.633310" lon="21.803110"><ele>25.8</ele><time>2026-07-14T18:01:28Z</time></trkpt>
			<trkpt lat="54.634320" lon="21.803110"><ele>23.7</ele><time>2026-07-14T18:01:31Z</time></trkpt>
			<trkpt lat="54.634960" lon="21.803100"><ele>23.4</ele><time>2026-07-14T18:01:34Z</time></trkpt>
			<trkpt lat="54.634990" lon="21.803100"><ele>23.4</ele><time>2026-07-14T18:01:37Z</time></trkpt>
			<trkpt lat="54.635370" lon="21.803100"><ele>24.0</ele><time>2026-07-14T18:01:40Z</time></trkpt>
			<trkpt lat="54.635830" lon="21.803120"><ele>24.8</ele><time>2026-07-14T18:01:43Z</time></trkpt>
			<trkpt lat="54.635950" lon="21.803120"><ele>25.2</ele><time>2026-07-14T18:01:46Z</time></trkpt>
			<trkpt lat="54.635860" lon="21.801740"><ele>26.1</ele><time>2026-07-14T18:01:48Z</time></trkpt>
			<trkpt lat="54.635760" lon="21.800220"><ele>24.3</ele><time>2026-07-14T18:01:51Z</time></trkpt>
			<trkpt lat="54.635740" lon="21.800050"><ele>24.3</ele><time>2026-07-14T18:01:54Z</time></trkpt>
			<trkpt lat="54.635730" lon="21.799900"><ele>24.3</ele><time>2026-07-14T18:01:57Z</time></trkpt>
			<trkpt lat="54.635660" lon="21.798860"><ele>24.6</ele><time>2026-07-14T18:02:00Z</time></trkpt>
			<trkpt lat="54.635620" lon="21.798390"><ele>24.5</ele><time>2026-07-14T18:02:03Z</time></trkpt>
			<trkpt lat="54.635600" lon="21.798060"><ele>24.2</ele><time>2026-07-14T18:02:06Z</time></trkpt>
			<trkpt lat="54.635560" lon="21.797560"><ele>23.9</ele><time>2026-07-14T18:02:09Z</time></trkpt>
			<trkpt lat="54.635630" lon="21.797530"><ele>23.9</ele><time>2026-07-14T18:02:12Z</time></trkpt>
			<trkpt lat="54.635920" lon="21.797400"><ele>24.3</ele><time>2026-07-14T18:02:15Z</time></trkpt>
			<trkpt lat="54.636250" lon="21.797330"><ele>24.8</ele><time>2026-07-14T18:02:18Z</time></trkpt>
			<trkpt lat="54.636280" lon="21.797310"><ele>24.8</ele><time>2026-07-14T18:02:21Z</time></trkpt>
			<trkpt lat="54.636240" lon="21.796860"><ele>25.0</ele><time>2026-07-14T18:02:24Z</time></trkpt>
			<trkpt lat="54.636210" lon="21.796510"><ele>25.0</ele><time>2026-07-14T18:02:27Z</time></trkpt>
			<trkpt lat="54.636240" lon="21.796460"><ele>25.0</ele><time>2026-07-14T18:02:30Z</time></trkpt>
			<trkpt lat="54.636380" lon="21.796170"><ele>25.1</ele><time>2026-07-14T18:02:32Z</time></trkpt>
			<trkpt lat="54.636450" lon="21.796150"><ele>25.2</ele><time>2026-07-14T18:02:35Z</time></trkpt>
			<trkpt lat="54.636450" lon="21.796150"><ele>25.2</ele><time>2026-07-14T18:02:38Z</time></trkpt>
			<trkpt lat="54.636380" lon="21.796170"><ele>25.2</ele><time>2026-07-14T18:02:41Z</time></trkpt>
			<trkpt lat="54.636240" lon="21.796460"><ele>25.1</ele><time>2026-07-14T18:02:44Z</time></trkpt>
			<trkpt lat="54.636210" lon="21.796510"><ele>25.1</ele><time>2026-07-14T18:02:48Z</time></trkpt>
			<trkpt lat="54.636240" lon="21.796860"><ele>25.0</ele><time>2026-07-14T18:02:51Z</time></trkpt>
			<trkpt lat="54.636280" lon="21.797310"><ele>25.0</ele><time>2026-07-14T18:02:54Z</time></trkpt>
			<trkpt lat="54.636250" lon="21.797330"><ele>25.0</ele><time>2026-07-14T18:02:57Z</time></trkpt>
			<trkpt lat="54.635920" lon="21.797400"><ele>24.2</ele><time>2026-07-14T18:03:00Z</time></trkpt>
			<trkpt lat="54.635630" lon="21.797530"><ele>23.9</ele><time>2026-07-14T18:03:03Z</time></trkpt>
			<trkpt lat="54.635560" lon="21.797560"><ele>23.8</ele><time>2026-07-14T18:03:06Z</time></trkpt>
			<trkpt lat="54.635600" lon="21.798060"><ele>24.2</ele><time>2026-07-14T18:03:09Z</time></trkpt>
			<trkpt lat="54.635620" lon="21.798390"><ele>24.4</ele><time>2026-07-14T18:03:12Z</time></trkpt>
			<trkpt lat="54.635660" lon="21.798860"><ele>24.6</ele><time>2026-07-14T18:03:15Z</time></trkpt>
			<trkpt lat="54.635730" lon="21.799900"><ele>24.2</ele><time>2026-07-14T18:03:18Z</time></trkpt>
			<trkpt lat="54.635740" lon="21.800050"><ele>24.1</ele><time>2026-07-14T18:03:21Z</time></trkpt>
			<trkpt lat="54.635760" lon="21.800220"><ele>24.3</ele><time>2026-07-14T18:03:24Z</time></trkpt>
			<trkpt lat="54.635860" lon="21.801740"><ele>26.1</ele><time>2026-07-14T18:03:27Z</time></trkpt>
			<trkpt lat="54.635950" lon="21.803120"><ele>24.8</ele><time>2026-07-14T18:03:30Z</time></trkpt>
			<trkpt lat="54.635830" lon="21.803120"><ele>24.6</ele><time>2026-07-14T18:03:33Z</time></trkpt>
			<trkpt lat="54.635370" lon="21.803100"><ele>24.0</ele><time>2026-07-14T18:03:36Z</time></trkpt>
			<trkpt lat="54.634990" lon="21.803100"><ele>23.5</ele><time>2026-07-14T18:03:39Z</time></trkpt>
			<trkpt lat="54.634960" lon="21.803100"><ele>23.5</ele><time>2026-07-14T18:03:42Z</time></trkpt>
			<trkpt lat="54.634320" lon="21.803110"><ele>23.7</ele><time>2026-07-14T18:03:45Z</time></trkpt>
			<trkpt lat="54.633310" lon="21.803110"><ele>25.8</ele><time>2026-07-14T18:03:48Z</time></trkpt>
			<trkpt lat="54.632900" lon="21.803100"><ele>26.9</ele><time>2026-07-14T18:03:51Z</time></trkpt>
			<trkpt lat="54.632770" lon="21.803090"><ele>27.2</ele><time>2026-07-14T18:03:54Z</time></trkpt>
			<trkpt lat="54.632690" lon="21.803090"><ele>27.5</ele><time>2026-07-14T18:03:57Z</time></trkpt>
			<trkpt lat="54.632150" lon="21.803060"><ele>29.7</ele><time>2026-07-14T18:04:00Z</time></trkpt>
			<trkpt lat="54.631960" lon="21.803030"><ele>30.6</ele><time>2026-07-14T18:04:03Z</time></trkpt>
			<trkpt lat="54.631890" lon="21.802980"><ele>30.9</ele><time>2026-07-14T18:04:06Z</time></trkpt>
			<trkpt lat="54.631700" lon="21.802800"><ele>31.8</ele><time>2026-07-14T18:04:09Z</time></trkpt>
			<trkpt lat="54.631480" lon="21.802600"><ele>32.0</ele><time>2026-07-14T18:04:12Z</time></trkpt>
			<trkpt lat="54.631350" lon="21.802480"><ele>32.0</ele><time>2026-07-14T18:04:15Z</time></trkpt>
			<trkpt lat="54.631300" lon="21.802430"><ele>32.0</ele><time>2026-07-14T18:04:18Z</time></trkpt>
			<trkpt lat="54.631240" lon="21.802380"><ele>32.0</ele><time>2026-07-14T18:04:21Z</time></trkpt>
			<trkpt lat="54.631180" lon="21.802700"><ele>32.0</ele><time>2026-07-14T18:04:24Z</time></trkpt>
			<trkpt lat="54.631100" lon="21.803390"><ele>32.0</ele><time>2026-07-14T18:04:27Z</time></trkpt>
			<trkpt lat="54.630960" lon="21.804830"><ele>32.6</ele><time>2026-07-14T18:04:30Z</time></trkpt>
			<trkpt lat="54.630970" lon="21.805070"><ele>32.7</ele><time>2026-07-14T18:04:33Z</time></trkpt>
			<trkpt lat="54.630970" lon="21.805280"><ele>32.8</ele><time>2026-07-14T18:04:36Z</time></trkpt>
			<trkpt lat="54.630980" lon="21.805670"><ele>32.8</ele><time>2026-07-14T18:04:39Z</time></trkpt>
			<trkpt lat="54.630980" lon="21.805670"><ele>32.8</ele><time>2026-07-14T18:04:42Z</time></trkpt>
			<trkpt lat="54.630980" lon="21.805820"><ele>32.7</ele><time>2026-07-14T18:04:44Z</time></trkpt>
			<trkpt lat="54.630930" lon="21.806040"><ele>33.3</ele><time>2026-07-14T18:04:46Z</time></trkpt>
			<trkpt lat="54.630460" lon="21.807080"><ele>33.6</ele><time>2026-07-14T18:04:49Z</time></trkpt>
			<trkpt lat="54.630170" lon="21.808550"><ele>31.5</ele><time>2026-07-14T18:04:51Z</time></trkpt>
			<trkpt lat="54.630040" lon="21.809390"><ele>30.9</ele><time>2026-07-14T18:04:53Z</time></trkpt>
			<trkpt lat="54.629980" lon="21.809840"><ele>31.0</ele><time>2026-07-14T18:04:55Z</time></trkpt>
			<trkpt lat="54.629960" lon="21.810140"><ele>31.2</ele><time>2026-07-14T18:04:58Z</time></trkpt>
			<trkpt lat="54.629960" lon="21.810440"><ele>31.5</ele><time>2026-07-14T18:05:00Z</time></trkpt>
			<trkpt lat="54.629990" lon="21.810640"><ele>31.7</ele><time>2026-07-14T18:05:02Z</time></trkpt>
			<trkpt lat="54.630290" lon="21.811760"><ele>32.4</ele><time>2026-07-14T18:05:05Z</time></trkpt>
			<trkpt lat="54.630640" lon="21.813260"><ele>33.7</ele><time>2026-07-14T18:05:07Z</time></trkpt>
			<trkpt lat="54.630670" lon="21.813580"><ele>34.1</ele><time>2026-07-14T18:05:09Z</time></trkpt>
			<trkpt lat="54.630670" lon="21.814720"><ele>35.2</ele><time>2026-07-14T18:05:11Z</time></trkpt>
			<trkpt lat="54.630660" lon="21.814730"><ele>35.3</ele><time>2026-07-14T18:05:14Z</time></trkpt>
			<trkpt lat="54.630660" lon="21.814730"><ele>35.3</ele><time>2026-07-14T18:05:19Z</time></trkpt>
			<trkpt lat="54.630660" lon="21.815120"><ele>35.4</ele><time>2026-07-14T18:05:25Z</time></trkpt>
			<trkpt lat="54.630630" lon="21.815490"><ele>35.1</ele><time>2026-07-14T18:05:31Z</time></trkpt>
			<trkpt lat="54.630570" lon="21.816060"><ele>34.7</ele><time>2026-07-14T18:05:37Z</time></trkpt>
			<trkpt lat="54.630460" lon="21.816990"><ele>34.3</ele><time>2026-07-14T18:05:42Z</time></trkpt>
			<trkpt lat="54.630390" lon="21.817520"><ele>34.1</ele><time>2026-07-14T18:05:48Z</time></trkpt>
			<trkpt lat="54.630220" lon="21.819190"><ele>35.7</ele><time>2026-07-14T18:05:54Z</time></trkpt>
			<trkpt lat="54.630170" lon="21.819700"><ele>36.2</ele><time>2026-07-14T18:06:00Z</time></trkpt>
			<trkpt lat="54.630080" lon="21.820580"><ele>36.2</ele><time>2026-07-14T18:06:05Z</time></trkpt>
			<trkpt lat="54.629940" lon="21.822610"><ele>36.3</ele><time>2026-07-14T18:06:11Z</time></trkpt>
			<trkpt lat="54.629770" lon="21.824940"><ele>35.4</ele><time>2026-07-14T18:06:17Z</time></trkpt>
			<trkpt lat="54.629680" lon="21.826120"><ele>35.7</ele><time>2026-07-14T18:06:23Z</time></trkpt>
			<trkpt lat="54.629550" lon="21.827870"><ele>34.8</ele><time>2026-07-14T18:06:28Z</time></trkpt>
			<trkpt lat="54.629530" lon="21.828170"><ele>34.6</ele><time>2026-07-14T18:06:34Z</time></trkpt>
			<trkpt lat="54.629440" lon="21.829300"><ele>34.3</ele><time>2026-07-14T18:06:40Z</time></trkpt>
			<trkpt lat="54.629390" lon="21.829650"><ele>34.1</ele><time>2026-07-14T18:06:45Z</time></trkpt>
			<trkpt lat="54.628870" lon="21.831840"><ele>34.0</ele><time>2026-07-14T18:06:51Z</time></trkpt>
			<trkpt lat="54.628570" lon="21.833060"><ele>35.5</ele><time>2026-07-14T18:06:57Z</time></trkpt>
			<trkpt lat="54.628120" lon="21.834950"><ele>36.4</ele><time>2026-07-14T18:07:03Z</time></trkpt>
			<trkpt lat="54.627770" lon="21.836460"><ele>37.6</ele><time>2026-07-14T18:07:08Z</time></trkpt>
			<trkpt lat="54.627750" lon="21.836550"><ele>37.6</ele><time>2026-07-14T18:07:14Z</time></trkpt>
			<trkpt lat="54.627720" lon="21.836680"><ele>37.7</ele><time>2026-07-14T18:07:20Z</time></trkpt>
			<trkpt lat="54.627460" lon="21.837760"><ele>37.1</ele><time>2026-07-14T18:07:26Z</time></trkpt>
			<trkpt lat="54.627130" lon="21.839160"><ele>38.0</ele><time>2026-07-14T18:07:31Z</time></trkpt>
			<trkpt lat="54.627060" lon="21.839440"><ele>38.2</ele><time>2026-07-14T18:07:37Z</time></trkpt>
			<trkpt lat="54.627010" lon="21.839720"><ele>38.4</ele><time>2026-07-14T18:07:43Z</time></trkpt>
			<trkpt lat="54.626970" lon="21.840190"><ele>38.5</ele><time>2026-07-14T18:07:49Z</time></trkpt>
			<trkpt lat="54.626970" lon="21.840420"><ele>38.5</ele><time>2026-07-14T18:07:54Z</time></trkpt>
			<trkpt lat="54.626750" lon="21.848070"><ele>39.5</ele><time>2026-07-14T18:08:00Z</time></trkpt>
			<trkpt lat="54.626710" lon="21.849310"><ele>39.6</ele><time>2026-07-14T18:08:06Z</time></trkpt>
			<trkpt lat="54.626590" lon="21.852570"><ele>40.8</ele><time>2026-07-14T18:08:11Z</time></trkpt>
			<trkpt lat="54.626480" lon="21.856230"><ele>37.8</ele><time>2026-07-14T18:08:17Z</time></trkpt>
			<trkpt lat="54.626380" lon="21.859200"><ele>36.9</ele><time>2026-07-14T18:08:23Z</time></trkpt>
			<trkpt lat="54.626300" lon="21.861340"><ele>36.3</ele><time>2026-07-14T18:08:29Z</time></trkpt>
			<trkpt lat="54.626250" lon="21.862230"><ele>35.7</ele><time>2026-07-14T18:08:34Z</time></trkpt>
			<trkpt lat="54.626180" lon="21.863170"><ele>35.9</ele><time>2026-07-14T18:08:40Z</time></trkpt>
			<trkpt lat="54.626090" lon="21.864220"><ele>35.8</ele><time>2026-07-14T18:08:46Z</time></trkpt>
			<trkpt lat="54.626050" lon="21.864600"><ele>35.9</ele><time>2026-07-14T18:08:52Z</time></trkpt>
			<trkpt lat="54.625930" lon="21.866060"><ele>35.6</ele><time>2026-07-14T18:08:57Z</time></trkpt>
			<trkpt lat="54.625870" lon="21.866850"><ele>35.1</ele><time>2026-07-14T18:09:03Z</time></trkpt>
			<trkpt lat="54.625130" lon="21.875640"><ele>31.8</ele><time>2026-07-14T18:09:09Z</time></trkpt>
			<trkpt lat="54.624900" lon="21.878390"><ele>30.7</ele><time>2026-07-14T18:09:15Z</time></trkpt>
			<trkpt lat="54.624850" lon="21.878900"><ele>29.9</ele><time>2026-07-14T18:09:20Z</time></trkpt>
			<trkpt lat="54.624750" lon="21.879340"><ele>29.6</ele><time>2026-07-14T18:09:26Z</time></trkpt>
			<trkpt lat="54.624600" lon="21.879880"><ele>30.0</ele><time>2026-07-14T18:09:32Z</time></trkpt>
			<trkpt lat="54.623200" lon="21.884450"><ele>34.0</ele><time>2026-07-14T18:09:37Z</time></trkpt>
			<trkpt lat="54.622860" lon="21.885590"><ele>33.6</ele><time>2026-07-14T18:09:43Z</time></trkpt>
			<trkpt lat="54.622780" lon="21.885940"><ele>34.0</ele><time>2026-07-14T18:09:49Z</time></trkpt>
			<trkpt lat="54.622360" lon="21.888310"><ele>35.5</ele><time>2026-07-14T18:09:55Z</time></trkpt>
			<trkpt lat="54.622210" lon="21.889120"><ele>35.6</ele><time>2026-07-14T18:10:00Z</time></trkpt>
			<trkpt lat="54.621210" lon="21.894680"><ele>37.3</ele><time>2026-07-14T18:10:06Z</time></trkpt>
			<trkpt lat="54.620700" lon="21.897590"><ele>36.9</ele><time>2026-07-14T18:10:12Z</time></trkpt>
			<trkpt lat="54.620610" lon="21.898010"><ele>36.6</ele><time>2026-07-14T18:10:18Z</time></trkpt>
			<trkpt lat="54.620500" lon="21.898400"><ele>36.4</ele><time>2026-07-14T18:10:23Z</time></trkpt>
			<trkpt lat="54.620360" lon="21.898790"><ele>36.5</ele><time>2026-07-14T18:10:29Z</time></trkpt>
			<trkpt lat="54.619830" lon="21.900150"><ele>35.8</ele><time>2026-07-14T18:10:35Z</time></trkpt>
			<trkpt lat="54.619560" lon="21.900340"><ele>35.7</ele><time>2026-07-14T18:10:41Z</time></trkpt>
			<trkpt lat="54.619380" lon="21.900430"><ele>35.6</ele><time>2026-07-14T18:10:46Z</time></trkpt>
			<trkpt lat="54.619250" lon="21.900470"><ele>35.5</ele><time>2026-07-14T18:10:52Z</time></trkpt>
			<trkpt lat="54.617670" lon="21.900770"><ele>33.9</ele><time>2026-07-14T18:10:58Z</time></trkpt>
			<trkpt lat="54.612960" lon="21.901770"><ele>32.2</ele><time>2026-07-14T18:11:03Z</time></trkpt>
			<trkpt lat="54.612300" lon="21.901890"><ele>32.8</ele><time>2026-07-14T18:11:09Z</time></trkpt>
			<trkpt lat="54.610470" lon="21.901930"><ele>32.0</ele><time>2026-07-14T18:11:15Z</time></trkpt>
			<trkpt lat="54.610190" lon="21.901920"><ele>31.8</ele><time>2026-07-14T18:11:21Z</time></trkpt>
			<trkpt lat="54.610030" lon="21.901900"><ele>31.8</ele><time>2026-07-14T18:11:26Z</time></trkpt>
			<trkpt lat="54.609870" lon="21.901830"><ele>31.8</ele><time>2026-07-14T18:11:32Z</time></trkpt>
			<trkpt lat="54.609740" lon="21.901730"><ele>31.9</ele><time>2026-07-14T18:11:38Z</time></trkpt>
			<trkpt lat="54.609490" lon="21.901500"><ele>32.3</ele><time>2026-07-14T18:11:44Z</time></trkpt>
			<trkpt lat="54.608020" lon="21.900000"><ele>38.3</ele><time>2026-07-14T18:11:49Z</time></trkpt>
			<trkpt lat="54.607640" lon="21.899800"><ele>38.8</ele><time>2026-07-14T18:11:55Z</time></trkpt>
			<trkpt lat="54.603910" lon="21.899660"><ele>38.9</ele><time>2026-07-14T18:12:01Z</time></trkpt>
			<trkpt lat="54.602850" lon="21.899620"><ele>37.1</ele><time>2026-07-14T18:12:07Z</time></trkpt>
			<trkpt lat="54.596740" lon="21.899340"><ele>34.9</ele><time>2026-07-14T18:12:12Z</time></trkpt>
			<trkpt lat="54.591930" lon="21.899100"><ele>36.7</ele><time>2026-07-14T18:12:18Z</time></trkpt>
			<trkpt lat="54.591440" lon="21.899090"><ele>36.8</ele><time>2026-07-14T18:12:24Z</time></trkpt>
			<trkpt lat="54.591060" lon="21.898900"><ele>36.5</ele><time>2026-07-14T18:12:29Z</time></trkpt>
			<trkpt lat="54.588980" lon="21.897630"><ele>36.2</ele><time>2026-07-14T18:12:35Z</time></trkpt>
			<trkpt lat="54.588650" lon="21.897520"><ele>36.0</ele><time>2026-07-14T18:12:41Z</time></trkpt>
			<trkpt lat="54.588390" lon="21.897490"><ele>36.0</ele><time>2026-07-14T18:12:47Z</time></trkpt>
			<trkpt lat="54.588100" lon="21.897540"><ele>36.1</ele><time>2026-07-14T18:12:52Z</time></trkpt>
			<trkpt lat="54.585170" lon="21.899150"><ele>39.0</ele><time>2026-07-14T18:12:58Z</time></trkpt>
			<trkpt lat="54.582240" lon="21.900820"><ele>43.3</ele><time>2026-07-14T18:13:04Z</time></trkpt>
			<trkpt lat="54.580860" lon="21.901670"><ele>42.2</ele><time>2026-07-14T18:13:10Z</time></trkpt>
			<trkpt lat="54.579170" lon="21.902580"><ele>42.4</ele><time>2026-07-14T18:13:15Z</time></trkpt>
			<trkpt lat="54.578740" lon="21.902740"><ele>44.2</ele><time>2026-07-14T18:13:21Z</time></trkpt>
			<trkpt lat="54.576610" lon="21.903460"><ele>49.3</ele><time>2026-07-14T18:13:27Z</time></trkpt>
			<trkpt lat="54.576220" lon="21.903650"><ele>49.7</ele><time>2026-07-14T18:13:33Z</time></trkpt>
			<trkpt lat="54.576020" lon="21.903870"><ele>49.1</ele><time>2026-07-14T18:13:38Z</time></trkpt>
			<trkpt lat="54.575810" lon="21.904200"><ele>48.3</ele><time>2026-07-14T18:13:44Z</time></trkpt>
			<trkpt lat="54.573710" lon="21.907910"><ele>50.4</ele><time>2026-07-14T18:13:50Z</time></trkpt>
			<trkpt lat="54.573460" lon="21.908370"><ele>50.9</ele><time>2026-07-14T18:13:55Z</time></trkpt>
			<trkpt lat="54.573110" lon="21.908670"><ele>49.7</ele><time>2026-07-14T18:14:01Z</time></trkpt>
			<trkpt lat="54.567730" lon="21.909770"><ele>46.0</ele><time>2026-07-14T18:14:07Z</time></trkpt>
			<trkpt lat="54.566940" lon="21.909970"><ele>45.3</ele><time>2026-07-14T18:14:13Z</time></trkpt>
			<trkpt lat="54.566300" lon="21.910260"><ele>45.3</ele><time>2026-07-14T18:14:18Z</time></trkpt>
			<trkpt lat="54.565080" lon="21.910940"><ele>46.2</ele><time>2026-07-14T18:14:24Z</time></trkpt>
			<trkpt lat="54.564640" lon="21.911100"><ele>46.6</ele><time>2026-07-14T18:14:30Z</time></trkpt>
			<trkpt lat="54.563390" lon="21.911000"><ele>47.7</ele><time>2026-07-14T18:14:36Z</time></trkpt>
			<trkpt lat="54.561910" lon="21.912260"><ele>48.7</ele><time>2026-07-14T18:14:41Z</time></trkpt>
			<trkpt lat="54.560340" lon="21.914180"><ele>46.5</ele><time>2026-07-14T18:14:47Z</time></trkpt>
			<trkpt lat="54.558530" lon="21.916450"><ele>46.4</ele><time>2026-07-14T18:14:53Z</time></trkpt>
			<trkpt lat="54.555260" lon="21.919030"><ele>48.7</ele><time>2026-07-14T18:14:58Z</time></trkpt>
			<trkpt lat="54.551200" lon="21.921730"><ele>51.5</ele><time>2026-07-14T18:15:04Z</time></trkpt>
			<trkpt lat="54.550120" lon="21.922690"><ele>52.6</ele><time>2026-07-14T18:15:10Z</time></trkpt>
			<trkpt lat="54.548860" lon="21.923930"><ele>55.4</ele><time>2026-07-14T18:15:16Z</time></trkpt>
			<trkpt lat="54.548210" lon="21.924480"><ele>56.1</ele><time>2026-07-14T18:15:21Z</time></trkpt>
			<trkpt lat="54.546370" lon="21.925980"><ele>58.2</ele><time>2026-07-14T18:15:27Z</time></trkpt>
			<trkpt lat="54.543770" lon="21.927190"><ele>60.6</ele><time>2026-07-14T18:15:33Z</time></trkpt>
			<trkpt lat="54.543390" lon="21.927440"><ele>61.7</ele><time>2026-07-14T18:15:39Z</time></trkpt>
			<trkpt lat="54.543270" lon="21.927510"><ele>61.9</ele><time>2026-07-14T18:15:44Z</time></trkpt>
			<trkpt lat="54.542950" lon="21.927640"><ele>62.4</ele><time>2026-07-14T18:15:50Z</time></trkpt>
			<trkpt lat="54.542670" lon="21.927670"><ele>62.6</ele><time>2026-07-14T18:15:56Z</time></trkpt>
			<trkpt lat="54.542220" lon="21.927610"><ele>63.2</ele><time>2026-07-14T18:16:02Z</time></trkpt>
			<trkpt lat="54.541610" lon="21.927450"><ele>63.9</ele><time>2026-07-14T18:16:07Z</time></trkpt>
			<trkpt lat="54.538330" lon="21.927670"><ele>64.7</ele><time>2026-07-14T18:16:13Z</time></trkpt>
			<trkpt lat="54.538070" lon="21.927690"><ele>64.8</ele><time>2026-07-14T18:16:19Z</time></trkpt>
			<trkpt lat="54.537740" lon="21.927740"><ele>64.9</ele><time>2026-07-14T18:16:24Z</time></trkpt>
			<trkpt lat="54.537470" lon="21.927850"><ele>65.0</ele><time>2026-07-14T18:16:30Z</time></trkpt>
			<trkpt lat="54.537160" lon="21.928080"><ele>65.2</ele><time>2026-07-14T18:16:36Z</time></trkpt>
			<trkpt lat="54.534650" lon="21.930900"><ele>66.0</ele><time>2026-07-14T18:16:42Z</time></trkpt>
			<trkpt lat="54.532140" lon="21.933810"><ele>70.0</ele><time>2026-07-14T18:16:47Z</time></trkpt>
			<trkpt lat="54.530020" lon="21.936190"><ele>74.0</ele><time>2026-07-14T18:16:53Z</time></trkpt>
			<trkpt lat="54.529760" lon="21.936400"><ele>73.7</ele><time>2026-07-14T18:16:59Z</time></trkpt>
			<trkpt lat="54.529580" lon="21.936480"><ele>73.5</ele><time>2026-07-14T18:17:05Z</time></trkpt>
			<trkpt lat="54.529320" lon="21.936520"><ele>73.4</ele><time>2026-07-14T18:17:10Z</time></trkpt>
			<trkpt lat="54.529050" lon="21.936510"><ele>73.5</ele><time>2026-07-14T18:17:16Z</time></trkpt>
			<trkpt lat="54.528500" lon="21.936360"><ele>74.2</ele><time>2026-07-14T18:17:22Z</time></trkpt>
			<trkpt lat="54.527510" lon="21.936200"><ele>73.1</ele><time>2026-07-14T18:17:28Z</time></trkpt>
			<trkpt lat="54.526990" lon="21.936100"><ele>72.4</ele><time>2026-07-14T18:17:33Z</time></trkpt>
			<trkpt lat="54.526690" lon="21.936070"><ele>72.3</ele><time>2026-07-14T18:17:39Z</time></trkpt>
			<trkpt lat="54.525730" lon="21.936120"><ele>75.8</ele><time>2026-07-14T18:17:45Z</time></trkpt>
			<trkpt lat="54.525330" lon="21.936170"><ele>77.4</ele><time>2026-07-14T18:17:50Z</time></trkpt>
			<trkpt lat="54.524020" lon="21.936270"><ele>78.7</ele><time>2026-07-14T18:17:56Z</time></trkpt>
			<trkpt lat="54.523910" lon="21.936280"><ele>78.5</ele><time>2026-07-14T18:18:02Z</time></trkpt>
			<trkpt lat="54.523750" lon="21.936320"><ele>78.2</ele><time>2026-07-14T18:18:08Z</time></trkpt>
			<trkpt lat="54.523620" lon="21.936400"><ele>78.2</ele><time>2026-07-14T18:18:13Z</time></trkpt>
			<trkpt lat="54.523550" lon="21.936470"><ele>78.2</ele><time>2026-07-14T18:18:19Z</time></trkpt>
			<trkpt lat="54.523480" lon="21.936570"><ele>78.2</ele><time>2026-07-14T18:18:25Z</time></trkpt>
			<trkpt lat="54.522950" lon="21.937790"><ele>75.8</ele><time>2026-07-14T18:18:31Z</time></trkpt>
			<trkpt lat="54.522340" lon="21.939190"><ele>75.7</ele><time>2026-07-14T18:18:36Z</time></trkpt>
			<trkpt lat="54.521240" lon="21.941710"><ele>70.1</ele><time>2026-07-14T18:18:42Z</time></trkpt>
			<trkpt lat="54.520510" lon="21.943220"><ele>66.8</ele><time>2026-07-14T18:18:48Z</time></trkpt>
			<trkpt lat="54.520290" lon="21.943580"><ele>66.1</ele><time>2026-07-14T18:18:54Z</time></trkpt>
			<trkpt lat="54.519960" lon="21.943910"><ele>65.6</ele><time>2026-07-14T18:18:59Z</time></trkpt>
			<trkpt lat="54.519140" lon="21.944800"><ele>65.4</ele><time>2026-07-14T18:19:05Z</time></trkpt>
			<trkpt lat="54.518980" lon="21.944970"><ele>65.3</ele><time>2026-07-14T18:19:11Z</time></trkpt>
			<trkpt lat="54.518050" lon="21.945890"><ele>63.7</ele><time>2026-07-14T18:19:16Z</time></trkpt>
			<trkpt lat="54.517790" lon="21.946210"><ele>63.6</ele><time>2026-07-14T18:19:22Z</time></trkpt>
			<trkpt lat="54.517500" lon="21.946610"><ele>63.4</ele><time>2026-07-14T18:19:28Z</time></trkpt>
			<trkpt lat="54.515500" lon="21.949560"><ele>65.8</ele><time>2026-07-14T18:19:34Z</time></trkpt>
			<trkpt lat="54.514920" lon="21.950390"><ele>64.3</ele><time>2026-07-14T18:19:39Z</time></trkpt>
			<trkpt lat="54.514380" lon="21.951140"><ele>63.4</ele><time>2026-07-14T18:19:45Z</time></trkpt>
			<trkpt lat="54.514130" lon="21.951380"><ele>63.6</ele><time>2026-07-14T18:19:51Z</time></trkpt>
			<trkpt lat="54.513910" lon="21.951540"><ele>63.8</ele><time>2026-07-14T18:19:57Z</time></trkpt>
			<trkpt lat="54.513620" lon="21.951590"><ele>63.8</ele><time>2026-07-14T18:20:02Z</time></trkpt>
			<trkpt lat="54.510570" lon="21.951550"><ele>61.9</ele><time>2026-07-14T18:20:08Z</time></trkpt>
			<trkpt lat="54.510290" lon="21.951600"><ele>62.0</ele><time>2026-07-14T18:20:14Z</time></trkpt>
			<trkpt lat="54.510070" lon="21.951660"><ele>62.0</ele><time>2026-07-14T18:20:20Z</time></trkpt>
			<trkpt lat="54.509370" lon="21.951960"><ele>63.9</ele><time>2026-07-14T18:20:25Z</time></trkpt>
			<trkpt lat="54.507820" lon="21.952710"><ele>67.1</ele><time>2026-07-14T18:20:31Z</time></trkpt>
			<trkpt lat="54.506460" lon="21.953340"><ele>67.9</ele><time>2026-07-14T18:20:37Z</time></trkpt>
			<trkpt lat="54.505150" lon="21.953990"><ele>67.9</ele><time>2026-07-14T18:20:42Z</time></trkpt>
			<trkpt lat="54.503620" lon="21.954690"><ele>69.6</ele><time>2026-07-14T18:20:48Z</time></trkpt>
			<trkpt lat="54.502720" lon="21.955120"><ele>70.2</ele><time>2026-07-14T18:20:54Z</time></trkpt>
			<trkpt lat="54.502140" lon="21.955390"><ele>69.4</ele><time>2026-07-14T18:21:00Z</time></trkpt>
			<trkpt lat="54.501460" lon="21.955740"><ele>69.2</ele><time>2026-07-14T18:21:05Z</time></trkpt>
			<trkpt lat="54.501260" lon="21.955870"><ele>69.5</ele><time>2026-07-14T18:21:11Z</time></trkpt>
			<trkpt lat="54.501040" lon="21.956080"><ele>69.9</ele><time>2026-07-14T18:21:17Z</time></trkpt>
			<trkpt lat="54.498710" lon="21.959090"><ele>77.6</ele><time>2026-07-14T18:21:23Z</time></trkpt>
			<trkpt lat="54.498500" lon="21.959320"><ele>78.0</ele><time>2026-07-14T18:21:28Z</time></trkpt>
			<trkpt lat="54.498150" lon="21.959620"><ele>78.0</ele><time>2026-07-14T18:21:34Z</time></trkpt>
			<trkpt lat="54.497800" lon="21.959890"><ele>77.8</ele><time>2026-07-14T18:21:40Z</time></trkpt>
			<trkpt lat="54.497470" lon="21.960120"><ele>77.9</ele><time>2026-07-14T18:21:46Z</time></trkpt>
			<trkpt lat="54.497190" lon="21.960410"><ele>77.8</ele><time>2026-07-14T18:21:51Z</time></trkpt>
			<trkpt lat="54.497000" lon="21.960760"><ele>77.7</ele><time>2026-07-14T18:21:57Z</time></trkpt>
			<trkpt lat="54.496790" lon="21.961070"><ele>77.4</ele><time>2026-07-14T18:22:03Z</time></trkpt>
			<trkpt lat="54.496460" lon="21.961610"><ele>77.1</ele><time>2026-07-14T18:22:08Z</time></trkpt>
			<trkpt lat="54.496220" lon="21.961910"><ele>77.3</ele><time>2026-07-14T18:22:14Z</time></trkpt>
			<trkpt lat="54.495990" lon="21.962120"><ele>77.8</ele><time>2026-07-14T18:22:20Z</time></trkpt>
			<trkpt lat="54.491610" lon="21.965770"><ele>91.7</ele><time>2026-07-14T18:22:26Z</time></trkpt>
			<trkpt lat="54.490250" lon="21.966920"><ele>94.6</ele><time>2026-07-14T18:22:31Z</time></trkpt>
			<trkpt lat="54.489980" lon="21.967240"><ele>95.3</ele><time>2026-07-14T18:22:37Z</time></trkpt>
			<trkpt lat="54.489740" lon="21.967570"><ele>95.8</ele><time>2026-07-14T18:22:43Z</time></trkpt>
			<trkpt lat="54.489500" lon="21.967980"><ele>96.4</ele><time>2026-07-14T18:22:49Z</time></trkpt>
			<trkpt lat="54.489240" lon="21.968520"><ele>96.6</ele><time>2026-07-14T18:22:54Z</time></trkpt>
			<trkpt lat="54.488980" lon="21.969200"><ele>96.7</ele><time>2026-07-14T18:23:00Z</time></trkpt>
			<trkpt lat="54.487540" lon="21.973090"><ele>108.9</ele><time>2026-07-14T18:23:06Z</time></trkpt>
			<trkpt lat="54.487430" lon="21.973300"><ele>109.9</ele><time>2026-07-14T18:23:12Z</time></trkpt>
			<trkpt lat="54.487300" lon="21.973500"><ele>110.3</ele><time>2026-07-14T18:23:17Z</time></trkpt>
			<trkpt lat="54.484170" lon="21.977000"><ele>119.0</ele><time>2026-07-14T18:23:23Z</time></trkpt>
			<trkpt lat="54.482440" lon="21.978890"><ele>111.5</ele><time>2026-07-14T18:23:29Z</time></trkpt>
			<trkpt lat="54.482090" lon="21.979270"><ele>109.6</ele><time>2026-07-14T18:23:34Z</time></trkpt>
			<trkpt lat="54.482090" lon="21.979270"><ele>109.6</ele><time>2026-07-14T18:23:41Z</time></trkpt>
			<trkpt lat="54.481870" lon="21.979510"><ele>108.3</ele><time>2026-07-14T18:23:48Z</time></trkpt>
			<trkpt lat="54.481600" lon="21.979770"><ele>106.8</ele><time>2026-07-14T18:23:55Z</time></trkpt>
			<trkpt lat="54.480870" lon="21.980190"><ele>103.9</ele><time>2026-07-14T18:24:01Z</time></trkpt>
			<trkpt lat="54.480590" lon="21.980470"><ele>103.4</ele><time>2026-07-14T18:24:08Z</time></trkpt>
			<trkpt lat="54.480270" lon="21.978770"><ele>102.5</ele><time>2026-07-14T18:24:15Z</time></trkpt>
			<trkpt lat="54.480110" lon="21.978080"><ele>101.7</ele><time>2026-07-14T18:24:21Z</time></trkpt>
			<trkpt lat="54.479780" lon="21.976980"><ele>103.3</ele><time>2026-07-14T18:24:28Z</time></trkpt>
			<trkpt lat="54.479340" lon="21.974060"><ele>104.3</ele><time>2026-07-14T18:24:35Z</time></trkpt>
			<trkpt lat="54.479290" lon="21.973290"><ele>103.9</ele><time>2026-07-14T18:24:41Z</time></trkpt>
			<trkpt lat="54.479160" lon="21.971510"><ele>102.6</ele><time>2026-07-14T18:24:48Z</time></trkpt>
			<trkpt lat="54.479020" lon="21.970200"><ele>103.6</ele><time>2026-07-14T18:24:55Z</time></trkpt>
			<trkpt lat="54.478960" lon="21.969340"><ele>103.1</ele><time>2026-07-14T18:25:01Z</time></trkpt>
			<trkpt lat="54.478950" lon="21.968950"><ele>102.3</ele><time>2026-07-14T18:25:08Z</time></trkpt>
			<trkpt lat="54.478960" lon="21.967970"><ele>99.8</ele><time>2026-07-14T18:25:15Z</time></trkpt>
			<trkpt lat="54.478950" lon="21.967400"><ele>98.3</ele><time>2026-07-14T18:25:21Z</time></trkpt>
			<trkpt lat="54.478920" lon="21.966970"><ele>97.4</ele><time>2026-07-14T18:25:28Z</time></trkpt>
			<trkpt lat="54.478880" lon="21.966670"><ele>96.8</ele><time>2026-07-14T18:25:35Z</time></trkpt>
			<trkpt lat="54.478440" lon="21.963940"><ele>91.7</ele><time>2026-07-14T18:25:41Z</time></trkpt>
			<trkpt lat="54.478280" lon="21.962900"><ele>91.7</ele><time>2026-07-14T18:25:48Z</time></trkpt>
			<trkpt lat="54.478200" lon="21.962420"><ele>90.5</ele><time>2026-07-14T18:25:55Z</time></trkpt>
			<trkpt lat="54.478080" lon="21.962000"><ele>88.7</ele><time>2026-07-14T18:26:01Z</time></trkpt>
			<trkpt lat="54.477940" lon="21.961640"><ele>87.1</ele><time>2026-07-14T18:26:08Z</time></trkpt>
			<trkpt lat="54.477750" lon="21.961240"><ele>86.1</ele><time>2026-07-14T18:26:15Z</time></trkpt>
			<trkpt lat="54.477630" lon="21.960910"><ele>86.2</ele><time>2026-07-14T18:26:22Z</time></trkpt>
			<trkpt lat="54.477490" lon="21.960410"><ele>87.4</ele><time>2026-07-14T18:26:28Z</time></trkpt>
			<trkpt lat="54.477510" lon="21.960020"><ele>88.6</ele><time>2026-07-14T18:26:35Z</time></trkpt>
			<trkpt lat="54.477570" lon="21.959770"><ele>89.0</ele><time>2026-07-14T18:26:42Z</time></trkpt>
			<trkpt lat="54.478600" lon="21.956300"><ele>87.0</ele><time>2026-07-14T18:26:48Z</time></trkpt>
			<trkpt lat="54.478700" lon="21.956070"><ele>87.1</ele><time>2026-07-14T18:26:55Z</time></trkpt>
			<trkpt lat="54.478790" lon="21.955920"><ele>87.1</ele><time>2026-07-14T18:27:02Z</time></trkpt>
			<trkpt lat="54.479260" lon="21.955310"><ele>87.4</ele><time>2026-07-14T18:27:08Z</time></trkpt>
			<trkpt lat="54.479380" lon="21.955120"><ele>87.3</ele><time>2026-07-14T18:27:15Z</time></trkpt>
			<trkpt lat="54.479470" lon="21.954950"><ele>87.2</ele><time>2026-07-14T18:27:22Z</time></trkpt>
			<trkpt lat="54.480520" lon="21.951280"><ele>83.8</ele><time>2026-07-14T18:27:28Z</time></trkpt>
			<trkpt lat="54.480620" lon="21.950890"><ele>82.7</ele><time>2026-07-14T18:27:35Z</time></trkpt>
			<trkpt lat="54.480670" lon="21.950560"><ele>82.7</ele><time>2026-07-14T18:27:42Z</time></trkpt>
			<trkpt lat="54.480700" lon="21.950260"><ele>82.8</ele><time>2026-07-14T18:27:48Z</time></trkpt>
			<trkpt lat="54.480710" lon="21.949980"><ele>83.2</ele><time>2026-07-14T18:27:55Z</time></trkpt>
			<trkpt lat="54.480700" lon="21.947230"><ele>85.6</ele><time>2026-07-14T18:28:02Z</time></trkpt>
			<trkpt lat="54.480670" lon="21.946950"><ele>86.1</ele><time>2026-07-14T18:28:08Z</time></trkpt>
			<trkpt lat="54.480620" lon="21.946720"><ele>86.5</ele><time>2026-07-14T18:28:15Z</time></trkpt>
			<trkpt lat="54.480530" lon="21.946480"><ele>86.4</ele><time>2026-07-14T18:28:22Z</time></trkpt>
			<trkpt lat="54.479620" lon="21.944600"><ele>86.1</ele><time>2026-07-14T18:28:28Z</time></trkpt>
			<trkpt lat="54.479510" lon="21.944320"><ele>86.7</ele><time>2026-07-14T18:28:35Z</time></trkpt>
			<trkpt lat="54.479420" lon="21.944000"><ele>86.7</ele><time>2026-07-14T18:28:42Z</time></trkpt>
			<trkpt lat="54.479350" lon="21.943700"><ele>86.6</ele><time>2026-07-14T18:28:49Z</time></trkpt>
			<trkpt lat="54.479270" lon="21.943210"><ele>86.2</ele><time>2026-07-14T18:28:55Z</time></trkpt>
			<trkpt lat="54.479090" lon="21.942060"><ele>85.1</ele><time>2026-07-14T18:29:02Z</time></trkpt>
			<trkpt lat="54.479010" lon="21.941670"><ele>84.9</ele><time>2026-07-14T18:29:09Z</time></trkpt>
			<trkpt lat="54.478920" lon="21.941310"><ele>84.6</ele><time>2026-07-14T18:29:15Z</time></trkpt>
			<trkpt lat="54.478800" lon="21.940990"><ele>84.5</ele><time>2026-07-14T18:29:22Z</time></trkpt>
			<trkpt lat="54.478660" lon="21.940690"><ele>84.6</ele><time>2026-07-14T18:29:29Z</time></trkpt>
			<trkpt lat="54.477840" lon="21.939040"><ele>86.1</ele><time>2026-07-14T18:29:35Z</time></trkpt>
			<trkpt lat="54.477710" lon="21.938660"><ele>87.5</ele><time>2026-07-14T18:29:42Z</time></trkpt>
			<trkpt lat="54.477610" lon="21.938250"><ele>89.0</ele><time>2026-07-14T18:29:49Z</time></trkpt>
			<trkpt lat="54.477550" lon="21.937830"><ele>90.2</ele><time>2026-07-14T18:29:55Z</time></trkpt>
			<trkpt lat="54.477530" lon="21.937410"><ele>91.2</ele><time>2026-07-14T18:30:02Z</time></trkpt>
			<trkpt lat="54.477550" lon="21.937000"><ele>92.1</ele><time>2026-07-14T18:30:09Z</time></trkpt>
			<trkpt lat="54.477610" lon="21.936600"><ele>92.9</ele><time>2026-07-14T18:30:15Z</time></trkpt>
			<trkpt lat="54.477680" lon="21.936270"><ele>92.9</ele><time>2026-07-14T18:30:22Z</time></trkpt>
			<trkpt lat="54.477740" lon="21.936110"><ele>92.8</ele><time>2026-07-14T18:30:29Z</time></trkpt>
			<trkpt lat="54.477810" lon="21.935930"><ele>92.7</ele><time>2026-07-14T18:30:35Z</time></trkpt>
			<trkpt lat="54.478640" lon="21.934070"><ele>92.2</ele><time>2026-07-14T18:30:42Z</time></trkpt>
			<trkpt lat="54.478790" lon="21.933710"><ele>91.9</ele><time>2026-07-14T18:30:49Z</time></trkpt>
			<trkpt lat="54.479360" lon="21.931930"><ele>90.2</ele><time>2026-07-14T18:30:55Z</time></trkpt>
			<trkpt lat="54.479510" lon="21.931320"><ele>90.8</ele><time>2026-07-14T18:31:02Z</time></trkpt>
			<trkpt lat="54.479600" lon="21.930820"><ele>91.5</ele><time>2026-07-14T18:31:09Z</time></trkpt>
			<trkpt lat="54.479640" lon="21.930420"><ele>91.9</ele><time>2026-07-14T18:31:16Z</time></trkpt>
			<trkpt lat="54.479640" lon="21.930030"><ele>92.2</ele><time>2026-07-14T18:31:22Z</time></trkpt>
			<trkpt lat="54.479560" lon="21.929210"><ele>91.4</ele><time>2026-07-14T18:31:29Z</time></trkpt>
			<trkpt lat="54.479460" lon="21.928820"><ele>91.3</ele><time>2026-07-14T18:31:36Z</time></trkpt>
			<trkpt lat="54.479320" lon="21.928450"><ele>91.6</ele><time>2026-07-14T18:31:42Z</time></trkpt>
			<trkpt lat="54.479030" lon="21.927870"><ele>90.3</ele><time>2026-07-14T18:31:49Z</time></trkpt>
			<trkpt lat="54.478700" lon="21.927360"><ele>88.2</ele><time>2026-07-14T18:31:56Z</time></trkpt>
			<trkpt lat="54.478290" lon="21.926660"><ele>86.6</ele><time>2026-07-14T18:32:02Z</time></trkpt>
			<trkpt lat="54.477880" lon="21.925990"><ele>84.8</ele><time>2026-07-14T18:32:09Z</time></trkpt>
			<trkpt lat="54.477150" lon="21.924690"><ele>86.2</ele><time>2026-07-14T18:32:16Z</time></trkpt>
			<trkpt lat="54.476600" lon="21.923710"><ele>87.3</ele><time>2026-07-14T18:32:22Z</time></trkpt>
			<trkpt lat="54.476350" lon="21.923250"><ele>88.1</ele><time>2026-07-14T18:32:29Z</time></trkpt>
			<trkpt lat="54.475740" lon="21.922350"><ele>88.0</ele><time>2026-07-14T18:32:36Z</time></trkpt>
			<trkpt lat="54.475480" lon="21.921180"><ele>86.8</ele><time>2026-07-14T18:32:42Z</time></trkpt>
			<trkpt lat="54.475080" lon="21.919060"><ele>82.7</ele><time>2026-07-14T18:32:49Z</time></trkpt>
			<trkpt lat="54.474650" lon="21.916300"><ele>77.8</ele><time>2026-07-14T18:32:56Z</time></trkpt>
			<trkpt lat="54.474590" lon="21.915900"><ele>77.3</ele><time>2026-07-14T18:33:02Z</time></trkpt>
			<trkpt lat="54.474600" lon="21.915470"><ele>77.7</ele><time>2026-07-14T18:33:09Z</time></trkpt>
			<trkpt lat="54.474760" lon="21.915140"><ele>78.8</ele><time>2026-07-14T18:33:16Z</time></trkpt>
			<trkpt lat="54.474960" lon="21.914870"><ele>80.3</ele><time>2026-07-14T18:33:22Z</time></trkpt>
			<trkpt lat="54.475560" lon="21.914680"><ele>83.0</ele><time>2026-07-14T18:33:29Z</time></trkpt>
			<trkpt lat="54.476260" lon="21.914140"><ele>85.2</ele><time>2026-07-14T18:33:36Z</time></trkpt>
			<trkpt lat="54.476790" lon="21.913230"><ele>83.9</ele><time>2026-07-14T18:33:43Z</time></trkpt>
			<trkpt lat="54.477250" lon="21.912190"><ele>82.3</ele><time>2026-07-14T18:33:49Z</time></trkpt>
			<trkpt lat="54.477550" lon="21.911560"><ele>82.0</ele><time>2026-07-14T18:33:56Z</time></trkpt>
			<trkpt lat="54.477820" lon="21.910920"><ele>82.0</ele><time>2026-07-14T18:34:03Z</time></trkpt>
			<trkpt lat="54.478310" lon="21.909740"><ele>81.0</ele><time>2026-07-14T18:34:09Z</time></trkpt>
			<trkpt lat="54.479340" lon="21.907570"><ele>79.7</ele><time>2026-07-14T18:34:16Z</time></trkpt>
			<trkpt lat="54.482620" lon="21.900440"><ele>78.0</ele><time>2026-07-14T18:34:23Z</time></trkpt>
			<trkpt lat="54.486070" lon="21.892880"><ele>79.1</ele><time>2026-07-14T18:34:29Z</time></trkpt>
			<trkpt lat="54.486420" lon="21.892280"><ele>80.8</ele><time>2026-07-14T18:34:36Z</time></trkpt>
			<trkpt lat="54.486750" lon="21.892080"><ele>81.9</ele><time>2026-07-14T18:34:43Z</time></trkpt>
			<trkpt lat="54.487240" lon="21.891800"><ele>81.6</ele><time>2026-07-14T18:34:49Z</time></trkpt>
			<trkpt lat="54.487920" lon="21.891840"><ele>79.8</ele><time>2026-07-14T18:34:56Z</time></trkpt>
			<trkpt lat="54.488580" lon="21.891980"><ele>78.1</ele><time>2026-07-14T18:35:03Z</time></trkpt>
			<trkpt lat="54.488900" lon="21.891910"><ele>77.6</ele><time>2026-07-14T18:35:09Z</time></trkpt>
			<trkpt lat="54.489180" lon="21.891700"><ele>77.0</ele><time>2026-07-14T18:35:16Z</time></trkpt>
			<trkpt lat="54.489480" lon="21.891310"><ele>76.4</ele><time>2026-07-14T18:35:23Z</time></trkpt>
			<trkpt lat="54.489960" lon="21.890850"><ele>75.8</ele><time>2026-07-14T18:35:29Z</time></trkpt>
			<trkpt lat="54.490240" lon="21.890660"><ele>75.2</ele><time>2026-07-14T18:35:36Z</time></trkpt>
			<trkpt lat="54.492410" lon="21.889890"><ele>71.4</ele><time>2026-07-14T18:35:43Z</time></trkpt>
			<trkpt lat="54.492360" lon="21.889670"><ele>71.3</ele><time>2026-07-14T18:35:49Z</time></trkpt>
			<trkpt lat="54.490120" lon="21.882120"><ele>72.2</ele><time>2026-07-14T18:35:56Z</time></trkpt>
			<trkpt lat="54.487730" lon="21.874100"><ele>71.7</ele><time>2026-07-14T18:36:03Z</time></trkpt>
			<trkpt lat="54.486290" lon="21.869170"><ele>74.2</ele><time>2026-07-14T18:36:10Z</time></trkpt>
			<trkpt lat="54.484830" lon="21.863320"><ele>69.2</ele><time>2026-07-14T18:36:16Z</time></trkpt>
			<trkpt lat="54.484510" lon="21.862040"><ele>67.9</ele><time>2026-07-14T18:36:23Z</time></trkpt>
			<trkpt lat="54.484290" lon="21.861250"><ele>66.6</ele><time>2026-07-14T18:36:30Z</time></trkpt>
			<trkpt lat="54.484170" lon="21.860950"><ele>66.5</ele><time>2026-07-14T18:36:36Z</time></trkpt>
			<trkpt lat="54.483880" lon="21.860230"><ele>67.5</ele><time>2026-07-14T18:36:43Z</time></trkpt>
			<trkpt lat="54.483520" lon="21.859420"><ele>68.6</ele><time>2026-07-14T18:36:50Z</time></trkpt>
			<trkpt lat="54.483370" lon="21.859140"><ele>68.8</ele><time>2026-07-14T18:36:56Z</time></trkpt>
			<trkpt lat="54.483210" lon="21.858880"><ele>68.9</ele><time>2026-07-14T18:37:03Z</time></trkpt>
			<trkpt lat="54.482430" lon="21.857790"><ele>68.5</ele><time>2026-07-14T18:37:10Z</time></trkpt>
			<trkpt lat="54.481630" lon="21.856740"><ele>68.9</ele><time>2026-07-14T18:37:16Z</time></trkpt>
			<trkpt lat="54.475020" lon="21.847750"><ele>70.2</ele><time>2026-07-14T18:37:23Z</time></trkpt>
			<trkpt lat="54.472370" lon="21.844170"><ele>66.8</ele><time>2026-07-14T18:37:30Z</time></trkpt>
			<trkpt lat="54.471290" lon="21.841170"><ele>65.1</ele><time>2026-07-14T18:37:36Z</time></trkpt>
			<trkpt lat="54.470020" lon="21.837150"><ele>66.3</ele><time>2026-07-14T18:37:43Z</time></trkpt>
			<trkpt lat="54.468640" lon="21.832970"><ele>68.0</ele><time>2026-07-14T18:37:50Z</time></trkpt>
			<trkpt lat="54.465870" lon="21.824530"><ele>68.3</ele><time>2026-07-14T18:37:56Z</time></trkpt>
			<trkpt lat="54.464190" lon="21.825190"><ele>72.0</ele><time>2026-07-14T18:38:03Z</time></trkpt>
			<trkpt lat="54.461480" lon="21.826530"><ele>71.0</ele><time>2026-07-14T18:38:10Z</time></trkpt>
			<trkpt lat="54.458630" lon="21.828220"><ele>77.1</ele><time>2026-07-14T18:38:17Z</time></trkpt>
			<trkpt lat="54.455930" lon="21.829730"><ele>80.3</ele><time>2026-07-14T18:38:23Z</time></trkpt>
			<trkpt lat="54.454330" lon="21.830990"><ele>78.8</ele><time>2026-07-14T18:38:30Z</time></trkpt>
			<trkpt lat="54.451750" lon="21.833270"><ele>76.8</ele><time>2026-07-14T18:38:37Z</time></trkpt>
			<trkpt lat="54.450980" lon="21.834160"><ele>77.7</ele><time>2026-07-14T18:38:43Z</time></trkpt>
			<trkpt lat="54.450030" lon="21.835180"><ele>77.2</ele><time>2026-07-14T18:38:50Z</time></trkpt>
			<trkpt lat="54.449940" lon="21.835260"><ele>77.2</ele><time>2026-07-14T18:38:57Z</time></trkpt>
			<trkpt lat="54.449260" lon="21.835840"><ele>78.0</ele><time>2026-07-14T18:39:03Z</time></trkpt>
			<trkpt lat="54.448280" lon="21.836580"><ele>80.5</ele><time>2026-07-14T18:39:10Z</time></trkpt>
			<trkpt lat="54.446990" lon="21.837560"><ele>83.6</ele><time>2026-07-14T18:39:17Z</time></trkpt>
			<trkpt lat="54.446750" lon="21.837730"><ele>84.2</ele><time>2026-07-14T18:39:23Z</time></trkpt>
			<trkpt lat="54.446340" lon="21.837940"><ele>85.5</ele><time>2026-07-14T18:39:30Z</time></trkpt>
			<trkpt lat="54.446100" lon="21.837990"><ele>86.2</ele><time>2026-07-14T18:39:37Z</time></trkpt>
			<trkpt lat="54.445600" lon="21.837930"><ele>87.8</ele><time>2026-07-14T18:39:43Z</time></trkpt>
			<trkpt lat="54.444920" lon="21.837680"><ele>90.1</ele><time>2026-07-14T18:39:50Z</time></trkpt>
			<trkpt lat="54.444340" lon="21.837680"><ele>91.4</ele><time>2026-07-14T18:39:57Z</time></trkpt>
			<trkpt lat="54.443650" lon="21.837780"><ele>93.1</ele><time>2026-07-14T18:40:03Z</time></trkpt>
			<trkpt lat="54.443340" lon="21.837700"><ele>93.8</ele><time>2026-07-14T18:40:10Z</time></trkpt>
			<trkpt lat="54.443180" lon="21.837510"><ele>93.8</ele><time>2026-07-14T18:40:17Z</time></trkpt>
			<trkpt lat="54.443110" lon="21.837320"><ele>93.6</ele><time>2026-07-14T18:40:23Z</time></trkpt>
			<trkpt lat="54.443110" lon="21.837140"><ele>93.5</ele><time>2026-07-14T18:40:30Z</time></trkpt>
			<trkpt lat="54.443180" lon="21.834120"><ele>92.5</ele><time>2026-07-14T18:40:37Z</time></trkpt>
			<trkpt lat="54.443140" lon="21.833710"><ele>91.5</ele><time>2026-07-14T18:40:44Z</time></trkpt>
			<trkpt lat="54.443010" lon="21.833450"><ele>90.8</ele><time>2026-07-14T18:40:50Z</time></trkpt>
			<trkpt lat="54.442920" lon="21.833260"><ele>90.6</ele><time>2026-07-14T18:40:57Z</time></trkpt>
			<trkpt lat="54.442370" lon="21.832900"><ele>90.4</ele><time>2026-07-14T18:41:04Z</time></trkpt>
			<trkpt lat="54.440800" lon="21.832090"><ele>88.0</ele><time>2026-07-14T18:41:10Z</time></trkpt>
			<trkpt lat="54.440590" lon="21.831880"><ele>87.7</ele><time>2026-07-14T18:41:17Z</time></trkpt>
			<trkpt lat="54.440200" lon="21.831460"><ele>88.0</ele><time>2026-07-14T18:41:24Z</time></trkpt>
			<trkpt lat="54.439240" lon="21.829920"><ele>89.7</ele><time>2026-07-14T18:41:30Z</time></trkpt>
			<trkpt lat="54.438370" lon="21.828510"><ele>89.1</ele><time>2026-07-14T18:41:37Z</time></trkpt>
			<trkpt lat="54.438250" lon="21.828330"><ele>89.1</ele><time>2026-07-14T18:41:44Z</time></trkpt>
			<trkpt lat="54.436990" lon="21.826270"><ele>89.3</ele><time>2026-07-14T18:41:50Z</time></trkpt>
			<trkpt lat="54.436530" lon="21.825440"><ele>89.8</ele><time>2026-07-14T18:41:57Z</time></trkpt>
			<trkpt lat="54.436060" lon="21.824960"><ele>89.6</ele><time>2026-07-14T18:42:04Z</time></trkpt>
			<trkpt lat="54.435650" lon="21.824740"><ele>88.6</ele><time>2026-07-14T18:42:10Z</time></trkpt>
			<trkpt lat="54.435220" lon="21.824660"><ele>87.2</ele><time>2026-07-14T18:42:17Z</time></trkpt>
			<trkpt lat="54.434300" lon="21.824660"><ele>86.2</ele><time>2026-07-14T18:42:24Z</time></trkpt>
			<trkpt lat="54.428390" lon="21.825240"><ele>100.4</ele><time>2026-07-14T18:42:30Z</time></trkpt>
			<trkpt lat="54.426930" lon="21.825360"><ele>98.5</ele><time>2026-07-14T18:42:37Z</time></trkpt>
			<trkpt lat="54.424350" lon="21.825560"><ele>93.5</ele><time>2026-07-14T18:42:44Z</time></trkpt>
			<trkpt lat="54.420560" lon="21.826050"><ele>105.2</ele><time>2026-07-14T18:42:50Z</time></trkpt>
			<trkpt lat="54.419180" lon="21.826170"><ele>107.8</ele><time>2026-07-14T18:42:57Z</time></trkpt>
			<trkpt lat="54.419180" lon="21.826160"><ele>107.8</ele><time>2026-07-14T18:43:06Z</time></trkpt>
			<trkpt lat="54.417470" lon="21.826300"><ele>110.6</ele><time>2026-07-14T18:43:16Z</time></trkpt>
			<trkpt lat="54.413690" lon="21.826550"><ele>108.6</ele><time>2026-07-14T18:43:25Z</time></trkpt>
			<trkpt lat="54.410510" lon="21.827080"><ele>109.7</ele><time>2026-07-14T18:43:34Z</time></trkpt>
			<trkpt lat="54.409750" lon="21.827060"><ele>110.8</ele><time>2026-07-14T18:43:44Z</time></trkpt>
			<trkpt lat="54.409110" lon="21.826900"><ele>112.9</ele><time>2026-07-14T18:43:53Z</time></trkpt>
			<trkpt lat="54.408210" lon="21.826940"><ele>115.9</ele><time>2026-07-14T18:44:02Z</time></trkpt>
			<trkpt lat="54.406810" lon="21.827420"><ele>116.0</ele><time>2026-07-14T18:44:12Z</time></trkpt>
			<trkpt lat="54.406400" lon="21.827380"><ele>117.1</ele><time>2026-07-14T18:44:21Z</time></trkpt>
			<trkpt lat="54.404740" lon="21.827840"><ele>119.0</ele><time>2026-07-14T18:44:30Z</time></trkpt>
			<trkpt lat="54.404340" lon="21.828160"><ele>118.9</ele><time>2026-07-14T18:44:40Z</time></trkpt>
			<trkpt lat="54.403710" lon="21.828570"><ele>117.4</ele><time>2026-07-14T18:44:49Z</time></trkpt>
			<trkpt lat="54.403030" lon="21.829390"><ele>115.3</ele><time>2026-07-14T18:44:58Z</time></trkpt>
			<trkpt lat="54.402160" lon="21.830070"><ele>114.3</ele><time>2026-07-14T18:45:08Z</time></trkpt>
			<trkpt lat="54.400770" lon="21.831380"><ele>115.3</ele><time>2026-07-14T18:45:17Z</time></trkpt>
			<trkpt lat="54.399800" lon="21.832580"><ele>118.0</ele><time>2026-07-14T18:45:26Z</time></trkpt>
			<trkpt lat="54.398210" lon="21.834170"><ele>120.1</ele><time>2026-07-14T18:45:36Z</time></trkpt>
			<trkpt lat="54.394880" lon="21.838060"><ele>107.5</ele><time>2026-07-14T18:45:45Z</time></trkpt>
			<trkpt lat="54.392630" lon="21.840690"><ele>109.9</ele><time>2026-07-14T18:45:54Z</time></trkpt>
			<trkpt lat="54.392230" lon="21.841110"><ele>111.0</ele><time>2026-07-14T18:46:04Z</time></trkpt>
			<trkpt lat="54.391760" lon="21.841800"><ele>112.5</ele><time>2026-07-14T18:46:13Z</time></trkpt>
			<trkpt lat="54.391490" lon="21.842050"><ele>112.6</ele><time>2026-07-14T18:46:22Z</time></trkpt>
			<trkpt lat="54.390420" lon="21.842850"><ele>112.2</ele><time>2026-07-14T18:46:32Z</time></trkpt>
			<trkpt lat="54.388750" lon="21.843320"><ele>114.0</ele><time>2026-07-14T18:46:41Z</time></trkpt>
			<trkpt lat="54.386800" lon="21.843990"><ele>111.1</ele><time>2026-07-14T18:46:50Z</time></trkpt>
			<trkpt lat="54.384800" lon="21.844890"><ele>109.7</ele><time>2026-07-14T18:47:00Z</time></trkpt>
			<trkpt lat="54.382920" lon="21.845680"><ele>112.1</ele><time>2026-07-14T18:47:09Z</time></trkpt>
			<trkpt lat="54.382060" lon="21.845620"><ele>113.7</ele><time>2026-07-14T18:47:18Z</time></trkpt>
			<trkpt lat="54.381350" lon="21.845100"><ele>115.6</ele><time>2026-07-14T18:47:28Z</time></trkpt>
			<trkpt lat="54.380260" lon="21.843940"><ele>117.5</ele><time>2026-07-14T18:47:37Z</time></trkpt>
			<trkpt lat="54.379490" lon="21.842960"><ele>118.0</ele><time>2026-07-14T18:47:46Z</time></trkpt>
			<trkpt lat="54.378100" lon="21.841600"><ele>119.0</ele><time>2026-07-14T18:47:56Z</time></trkpt>
			<trkpt lat="54.375910" lon="21.839070"><ele>120.9</ele><time>2026-07-14T18:48:05Z</time></trkpt>
			<trkpt lat="54.374620" lon="21.837760"><ele>130.4</ele><time>2026-07-14T18:48:14Z</time></trkpt>
			<trkpt lat="54.373490" lon="21.836430"><ele>134.0</ele><time>2026-07-14T18:48:24Z</time></trkpt>
			<trkpt lat="54.371600" lon="21.835170"><ele>131.5</ele><time>2026-07-14T18:48:33Z</time></trkpt>
			<trkpt lat="54.370400" lon="21.834420"><ele>131.6</ele><time>2026-07-14T18:48:42Z</time></trkpt>
			<trkpt lat="54.367800" lon="21.832960"><ele>138.4</ele><time>2026-07-14T18:48:52Z</time></trkpt>
			<trkpt lat="54.363520" lon="21.830680"><ele>144.7</ele><time>2026-07-14T18:49:01Z</time></trkpt>
			<trkpt lat="54.362280" lon="21.829790"><ele>144.1</ele><time>2026-07-14T18:49:10Z</time></trkpt>
			<trkpt lat="54.361890" lon="21.829560"><ele>142.7</ele><time>2026-07-14T18:49:20Z</time></trkpt>
			<trkpt lat="54.361700" lon="21.829580"><ele>142.1</ele><time>2026-07-14T18:49:29Z</time></trkpt>
			<trkpt lat="54.362170" lon="21.832730"><ele>138.9</ele><time>2026-07-14T18:49:38Z</time></trkpt>
			<trkpt lat="54.362680" lon="21.836020"><ele>129.4</ele><time>2026-07-14T18:49:48Z</time></trkpt>
			<trkpt lat="54.363050" lon="21.837180"><ele>132.1</ele><time>2026-07-14T18:49:57Z</time></trkpt>
			<trkpt lat="54.363500" lon="21.838280"><ele>134.2</ele><time>2026-07-14T18:50:06Z</time></trkpt>
			<trkpt lat="54.363500" lon="21.838280"><ele>134.2</ele><time>2026-07-14T18:50:12Z</time></trkpt>
			<trkpt lat="54.364520" lon="21.840760"><ele>140.1</ele><time>2026-07-14T18:50:17Z</time></trkpt>
			<trkpt lat="54.365960" lon="21.843840"><ele>140.6</ele><time>2026-07-14T18:50:22Z</time></trkpt>
			<trkpt lat="54.366310" lon="21.844770"><ele>139.8</ele><time>2026-07-14T18:50:27Z</time></trkpt>
			<trkpt lat="54.366630" lon="21.845920"><ele>141.9</ele><time>2026-07-14T18:50:32Z</time></trkpt>
			<trkpt lat="54.367710" lon="21.850180"><ele>135.4</ele><time>2026-07-14T18:50:38Z</time></trkpt>
			<trkpt lat="54.368520" lon="21.852940"><ele>133.1</ele><time>2026-07-14T18:50:43Z</time></trkpt>
			<trkpt lat="54.369220" lon="21.855670"><ele>131.4</ele><time>2026-07-14T18:50:48Z</time></trkpt>
			<trkpt lat="54.370620" lon="21.861200"><ele>122.8</ele><time>2026-07-14T18:50:53Z</time></trkpt>
			<trkpt lat="54.372020" lon="21.866520"><ele>112.1</ele><time>2026-07-14T18:50:58Z</time></trkpt>
			<trkpt lat="54.372270" lon="21.867400"><ele>110.0</ele><time>2026-07-14T18:51:04Z</time></trkpt>
			<trkpt lat="54.372410" lon="21.868270"><ele>110.1</ele><time>2026-07-14T18:51:09Z</time></trkpt>
			<trkpt lat="54.373480" lon="21.875660"><ele>112.7</ele><time>2026-07-14T18:51:14Z</time></trkpt>
			<trkpt lat="54.373610" lon="21.876350"><ele>111.6</ele><time>2026-07-14T18:51:19Z</time></trkpt>
			<trkpt lat="54.373810" lon="21.877030"><ele>109.4</ele><time>2026-07-14T18:51:24Z</time></trkpt>
			<trkpt lat="54.374150" lon="21.877980"><ele>107.1</ele><time>2026-07-14T18:51:30Z</time></trkpt>
			<trkpt lat="54.374170" lon="21.878060"><ele>107.1</ele><time>2026-07-14T18:51:35Z</time></trkpt>
			<trkpt lat="54.376840" lon="21.885610"><ele>116.2</ele><time>2026-07-14T18:51:40Z</time></trkpt>
			<trkpt lat="54.378240" lon="21.889550"><ele>115.1</ele><time>2026-07-14T18:51:45Z</time></trkpt>
			<trkpt lat="54.379930" lon="21.894270"><ele>127.1</ele><time>2026-07-14T18:51:50Z</time></trkpt>
			<trkpt lat="54.380130" lon="21.895050"><ele>127.6</ele><time>2026-07-14T18:51:55Z</time></trkpt>
			<trkpt lat="54.380880" lon="21.898370"><ele>128.7</ele><time>2026-07-14T18:52:01Z</time></trkpt>
			<trkpt lat="54.381170" lon="21.899280"><ele>128.5</ele><time>2026-07-14T18:52:06Z</time></trkpt>
			<trkpt lat="54.381640" lon="21.900400"><ele>129.7</ele><time>2026-07-14T18:52:11Z</time></trkpt>
			<trkpt lat="54.384830" lon="21.907840"><ele>127.5</ele><time>2026-07-14T18:52:16Z</time></trkpt>
			<trkpt lat="54.385110" lon="21.908400"><ele>127.5</ele><time>2026-07-14T18:52:21Z</time></trkpt>
			<trkpt lat="54.385480" lon="21.908870"><ele>126.6</ele><time>2026-07-14T18:52:27Z</time></trkpt>
			<trkpt lat="54.386340" lon="21.909670"><ele>125.8</ele><time>2026-07-14T18:52:32Z</time></trkpt>
			<trkpt lat="54.386580" lon="21.910050"><ele>125.7</ele><time>2026-07-14T18:52:37Z</time></trkpt>
			<trkpt lat="54.386710" lon="21.910370"><ele>125.5</ele><time>2026-07-14T18:52:42Z</time></trkpt>
			<trkpt lat="54.386820" lon="21.910710"><ele>125.2</ele><time>2026-07-14T18:52:47Z</time></trkpt>
			<trkpt lat="54.388200" lon="21.915410"><ele>128.3</ele><time>2026-07-14T18:52:53Z</time></trkpt>
			<trkpt lat="54.388350" lon="21.915830"><ele>128.0</ele><time>2026-07-14T18:52:58Z</time></trkpt>
			<trkpt lat="54.388600" lon="21.916320"><ele>126.4</ele><time>2026-07-14T18:53:03Z</time></trkpt>
			<trkpt lat="54.388910" lon="21.916740"><ele>125.4</ele><time>2026-07-14T18:53:08Z</time></trkpt>
			<trkpt lat="54.394170" lon="21.923220"><ele>121.9</ele><time>2026-07-14T18:53:13Z</time></trkpt>
			<trkpt lat="54.396010" lon="21.925000"><ele>121.8</ele><time>2026-07-14T18:53:19Z</time></trkpt>
			<trkpt lat="54.396320" lon="21.925400"><ele>120.5</ele><time>2026-07-14T18:53:24Z</time></trkpt>
			<trkpt lat="54.396640" lon="21.926080"><ele>119.3</ele><time>2026-07-14T18:53:29Z</time></trkpt>
			<trkpt lat="54.398350" lon="21.930180"><ele>119.9</ele><time>2026-07-14T18:53:34Z</time></trkpt>
			<trkpt lat="54.400310" lon="21.934770"><ele>117.4</ele><time>2026-07-14T18:53:39Z</time></trkpt>
			<trkpt lat="54.400610" lon="21.935930"><ele>116.4</ele><time>2026-07-14T18:53:45Z</time></trkpt>
			<trkpt lat="54.401060" lon="21.937750"><ele>113.3</ele><time>2026-07-14T18:53:50Z</time></trkpt>
			<trkpt lat="54.401260" lon="21.938930"><ele>112.2</ele><time>2026-07-14T18:53:55Z</time></trkpt>
			<trkpt lat="54.401340" lon="21.939770"><ele>112.0</ele><time>2026-07-14T18:54:00Z</time></trkpt>
			<trkpt lat="54.401500" lon="21.942250"><ele>111.3</ele><time>2026-07-14T18:54:05Z</time></trkpt>
			<trkpt lat="54.401630" lon="21.944740"><ele>110.7</ele><time>2026-07-14T18:54:10Z</time></trkpt>
			<trkpt lat="54.401740" lon="21.946150"><ele>112.3</ele><time>2026-07-14T18:54:16Z</time></trkpt>
			<trkpt lat="54.401890" lon="21.948720"><ele>111.7</ele><time>2026-07-14T18:54:21Z</time></trkpt>
			<trkpt lat="54.401930" lon="21.949670"><ele>112.3</ele><time>2026-07-14T18:54:26Z</time></trkpt>
			<trkpt lat="54.402100" lon="21.952340"><ele>111.1</ele><time>2026-07-14T18:54:31Z</time></trkpt>
			<trkpt lat="54.402220" lon="21.954560"><ele>112.3</ele><time>2026-07-14T18:54:36Z</time></trkpt>
			<trkpt lat="54.402340" lon="21.957070"><ele>113.1</ele><time>2026-07-14T18:54:42Z</time></trkpt>
			<trkpt lat="54.402430" lon="21.958430"><ele>111.5</ele><time>2026-07-14T18:54:47Z</time></trkpt>
			<trkpt lat="54.402460" lon="21.959090"><ele>110.2</ele><time>2026-07-14T18:54:52Z</time></trkpt>
			<trkpt lat="54.402710" lon="21.961950"><ele>110.0</ele><time>2026-07-14T18:54:57Z</time></trkpt>
			<trkpt lat="54.402760" lon="21.962680"><ele>109.8</ele><time>2026-07-14T18:55:02Z</time></trkpt>
			<trkpt lat="54.402930" lon="21.964530"><ele>110.5</ele><time>2026-07-14T18:55:08Z</time></trkpt>
			<trkpt lat="54.403140" lon="21.966260"><ele>109.9</ele><time>2026-07-14T18:55:13Z</time></trkpt>
			<trkpt lat="54.403230" lon="21.966740"><ele>109.8</ele><time>2026-07-14T18:55:18Z</time></trkpt>
			<trkpt lat="54.404040" lon="21.969940"><ele>105.2</ele><time>2026-07-14T18:55:23Z</time></trkpt>
			<trkpt lat="54.404510" lon="21.971840"><ele>105.7</ele><time>2026-07-14T18:55:28Z</time></trkpt>
			<trkpt lat="54.404920" lon="21.973960"><ele>102.1</ele><time>2026-07-14T18:55:34Z</time></trkpt>
			<trkpt lat="54.405330" lon="21.975980"><ele>100.2</ele><time>2026-07-14T18:55:39Z</time></trkpt>
			<trkpt lat="54.405510" lon="21.976860"><ele>101.4</ele><time>2026-07-14T18:55:44Z</time></trkpt>
			<trkpt lat="54.406340" lon="21.981100"><ele>106.0</ele><time>2026-07-14T18:55:49Z</time></trkpt>
			<trkpt lat="54.406990" lon="21.984440"><ele>104.5</ele><time>2026-07-14T18:55:54Z</time></trkpt>
			<trkpt lat="54.408140" lon="21.990780"><ele>97.1</ele><time>2026-07-14T18:55:59Z</time></trkpt>
			<trkpt lat="54.408300" lon="21.991770"><ele>97.1</ele><time>2026-07-14T18:56:05Z</time></trkpt>
			<trkpt lat="54.408390" lon="21.993200"><ele>98.0</ele><time>2026-07-14T18:56:10Z</time></trkpt>
			<trkpt lat="54.408350" lon="21.993760"><ele>97.9</ele><time>2026-07-14T18:56:15Z</time></trkpt>
			<trkpt lat="54.407730" lon="21.997820"><ele>98.6</ele><time>2026-07-14T18:56:20Z</time></trkpt>
			<trkpt lat="54.407640" lon="21.998440"><ele>99.3</ele><time>2026-07-14T18:56:25Z</time></trkpt>
			<trkpt lat="54.407350" lon="22.000370"><ele>97.8</ele><time>2026-07-14T18:56:31Z</time></trkpt>
			<trkpt lat="54.406990" lon="22.002800"><ele>93.9</ele><time>2026-07-14T18:56:36Z</time></trkpt>
			<trkpt lat="54.407000" lon="22.002860"><ele>93.8</ele><time>2026-07-14T18:56:41Z</time></trkpt>
			<trkpt lat="54.406990" lon="22.003280"><ele>93.4</ele><time>2026-07-14T18:56:46Z</time></trkpt>
			<trkpt lat="54.407130" lon="22.004520"><ele>93.2</ele><time>2026-07-14T18:56:51Z</time></trkpt>
			<trkpt lat="54.407260" lon="22.005510"><ele>93.8</ele><time>2026-07-14T18:56:57Z</time></trkpt>
			<trkpt lat="54.407590" lon="22.008000"><ele>90.8</ele><time>2026-07-14T18:57:02Z</time></trkpt>
			<trkpt lat="54.407810" lon="22.009560"><ele>85.4</ele><time>2026-07-14T18:57:07Z</time></trkpt>
			<trkpt lat="54.407850" lon="22.009850"><ele>84.8</ele><time>2026-07-14T18:57:12Z</time></trkpt>
			<trkpt lat="54.408050" lon="22.011440"><ele>80.6</ele><time>2026-07-14T18:57:17Z</time></trkpt>
			<trkpt lat="54.408110" lon="22.011930"><ele>80.0</ele><time>2026-07-14T18:57:23Z</time></trkpt>
			<trkpt lat="54.408120" lon="22.012050"><ele>79.9</ele><time>2026-07-14T18:57:28Z</time></trkpt>
			<trkpt lat="54.408210" lon="22.012750"><ele>79.7</ele><time>2026-07-14T18:57:33Z</time></trkpt>
			<trkpt lat="54.408390" lon="22.013150"><ele>79.2</ele><time>2026-07-14T18:57:38Z</time></trkpt>
			<trkpt lat="54.408440" lon="22.013320"><ele>79.0</ele><time>2026-07-14T18:57:43Z</time></trkpt>
			<trkpt lat="54.408490" lon="22.013630"><ele>78.8</ele><time>2026-07-14T18:57:49Z</time></trkpt>
			<trkpt lat="54.408500" lon="22.013850"><ele>78.7</ele><time>2026-07-14T18:57:54Z</time></trkpt>
			<trkpt lat="54.408500" lon="22.014110"><ele>78.7</ele><time>2026-07-14T18:57:59Z</time></trkpt>
			<trkpt lat="54.408490" lon="22.014660"><ele>79.1</ele><time>2026-07-14T18:58:04Z</time></trkpt>
			<trkpt lat="54.408500" lon="22.014990"><ele>79.5</ele><time>2026-07-14T18:58:09Z</time></trkpt>
			<trkpt lat="54.408510" lon="22.015050"><ele>79.4</ele><time>2026-07-14T18:58:14Z</time></trkpt>
			<trkpt lat="54.408690" lon="22.016560"><ele>76.9</ele><time>2026-07-14T18:58:20Z</time></trkpt>
			<trkpt lat="54.408320" lon="22.016890"><ele>75.0</ele><time>2026-07-14T18:58:25Z</time></trkpt>
			<trkpt lat="54.408140" lon="22.017110"><ele>73.6</ele><time>2026-07-14T18:58:30Z</time></trkpt>
			<trkpt lat="54.408030" lon="22.017270"><ele>72.6</ele><time>2026-07-14T18:58:35Z</time></trkpt>
			<trkpt lat="54.407920" lon="22.017350"><ele>71.9</ele><time>2026-07-14T18:58:40Z</time></trkpt>
			<trkpt lat="54.407810" lon="22.017390"><ele>71.4</ele><time>2026-07-14T18:58:46Z</time></trkpt>
			<trkpt lat="54.407340" lon="22.017510"><ele>70.8</ele><time>2026-07-14T18:58:51Z</time></trkpt>
			<trkpt lat="54.407010" lon="22.017600"><ele>71.8</ele><time>2026-07-14T18:58:56Z</time></trkpt>
			<trkpt lat="54.406780" lon="22.017650"><ele>73.0</ele><time>2026-07-14T18:59:01Z</time></trkpt>
			<trkpt lat="54.406530" lon="22.017750"><ele>74.5</ele><time>2026-07-14T18:59:06Z</time></trkpt>
			<trkpt lat="54.406260" lon="22.017860"><ele>77.1</ele><time>2026-07-14T18:59:12Z</time></trkpt>
			<trkpt lat="54.406160" lon="22.017880"><ele>78.0</ele><time>2026-07-14T18:59:17Z</time></trkpt>
			<trkpt lat="54.406080" lon="22.017880"><ele>78.7</ele><time>2026-07-14T18:59:22Z</time></trkpt>
			<trkpt lat="54.406010" lon="22.017840"><ele>79.3</ele><time>2026-07-14T18:59:27Z</time></trkpt>
			<trkpt lat="54.405930" lon="22.017770"><ele>80.1</ele><time>2026-07-14T18:59:32Z</time></trkpt>
			<trkpt lat="54.405860" lon="22.017690"><ele>80.7</ele><time>2026-07-14T18:59:38Z</time></trkpt>
			<trkpt lat="54.405800" lon="22.017550"><ele>80.9</ele><time>2026-07-14T18:59:43Z</time></trkpt>
			<trkpt lat="54.405770" lon="22.017380"><ele>81.1</ele><time>2026-07-14T18:59:48Z</time></trkpt>
			<trkpt lat="54.405770" lon="22.017160"><ele>81.3</ele><time>2026-07-14T18:59:53Z</time></trkpt>
			<trkpt lat="54.405780" lon="22.016320"><ele>80.4</ele><time>2026-07-14T18:59:58Z</time></trkpt>
			<trkpt lat="54.405760" lon="22.016050"><ele>80.4</ele><time>2026-07-14T19:00:03Z</time></trkpt>
			<trkpt lat="54.405690" lon="22.015820"><ele>80.4</ele><time>2026-07-14T19:00:09Z</time></trkpt>
			<trkpt lat="54.405590" lon="22.015640"><ele>80.5</ele><time>2026-07-14T19:00:14Z</time></trkpt>
			<trkpt lat="54.405440" lon="22.015510"><ele>80.8</ele><time>2026-07-14T19:00:19Z</time></trkpt>
			<trkpt lat="54.405170" lon="22.015460"><ele>82.6</ele><time>2026-07-14T19:00:24Z</time></trkpt>
			<trkpt lat="54.404900" lon="22.015420"><ele>83.9</ele><time>2026-07-14T19:00:29Z</time></trkpt>
			<trkpt lat="54.404530" lon="22.015380"><ele>85.5</ele><time>2026-07-14T19:00:35Z</time></trkpt>
			<trkpt lat="54.404300" lon="22.015380"><ele>86.9</ele><time>2026-07-14T19:00:40Z</time></trkpt>
			<trkpt lat="54.404110" lon="22.015530"><ele>88.6</ele><time>2026-07-14T19:00:45Z</time></trkpt>
			<trkpt lat="54.404040" lon="22.015640"><ele>89.3</ele><time>2026-07-14T19:00:50Z</time></trkpt>
			<trkpt lat="54.403940" lon="22.015940"><ele>90.6</ele><time>2026-07-14T19:00:55Z</time></trkpt>
			<trkpt lat="54.403850" lon="22.016800"><ele>92.9</ele><time>2026-07-14T19:01:01Z</time></trkpt>
			<trkpt lat="54.403770" lon="22.017550"><ele>94.8</ele><time>2026-07-14T19:01:06Z</time></trkpt>
			<trkpt lat="54.403760" lon="22.017620"><ele>94.9</ele><time>2026-07-14T19:01:11Z</time></trkpt>
			<trkpt lat="54.403690" lon="22.018490"><ele>96.1</ele><time>2026-07-14T19:01:16Z</time></trkpt>
			<trkpt lat="54.403620" lon="22.018950"><ele>97.0</ele><time>2026-07-14T19:01:21Z</time></trkpt>
			<trkpt lat="54.403550" lon="22.019280"><ele>97.6</ele><time>2026-07-14T19:01:27Z</time></trkpt>
			<trkpt lat="54.403480" lon="22.019490"><ele>98.1</ele><time>2026-07-14T19:01:32Z</time></trkpt>
			<trkpt lat="54.403360" lon="22.019830"><ele>98.8</ele><time>2026-07-14T19:01:37Z</time></trkpt>
			<trkpt lat="54.403230" lon="22.020130"><ele>99.3</ele><time>2026-07-14T19:01:42Z</time></trkpt>
			<trkpt lat="54.403170" lon="22.020340"><ele>99.7</ele><time>2026-07-14T19:01:47Z</time></trkpt>
			<trkpt lat="54.403140" lon="22.020550"><ele>100.2</ele><time>2026-07-14T19:01:52Z</time></trkpt>
			<trkpt lat="54.403130" lon="22.020750"><ele>100.6</ele><time>2026-07-14T19:01:58Z</time></trkpt>
			<trkpt lat="54.403140" lon="22.021250"><ele>100.7</ele><time>2026-07-14T19:02:03Z</time></trkpt>
			<trkpt lat="54.403260" lon="22.024490"><ele>100.5</ele><time>2026-07-14T19:02:08Z</time></trkpt>
			<trkpt lat="54.403270" lon="22.024660"><ele>100.3</ele><time>2026-07-14T19:02:13Z</time></trkpt>
			<trkpt lat="54.403250" lon="22.025410"><ele>100.0</ele><time>2026-07-14T19:02:18Z</time></trkpt>
			<trkpt lat="54.403090" lon="22.026670"><ele>98.2</ele><time>2026-07-14T19:02:24Z</time></trkpt>
			<trkpt lat="54.402850" lon="22.028690"><ele>97.8</ele><time>2026-07-14T19:02:29Z</time></trkpt>
			<trkpt lat="54.402670" lon="22.030040"><ele>95.9</ele><time>2026-07-14T19:02:34Z</time></trkpt>
			<trkpt lat="54.402640" lon="22.030460"><ele>94.8</ele><time>2026-07-14T19:02:39Z</time></trkpt>
			<trkpt lat="54.402640" lon="22.030800"><ele>94.0</ele><time>2026-07-14T19:02:44Z</time></trkpt>
			<trkpt lat="54.402670" lon="22.031070"><ele>93.4</ele><time>2026-07-14T19:02:50Z</time></trkpt>
			<trkpt lat="54.402850" lon="22.031950"><ele>91.6</ele><time>2026-07-14T19:02:55Z</time></trkpt>
			<trkpt lat="54.403620" lon="22.035760"><ele>89.9</ele><time>2026-07-14T19:03:00Z</time></trkpt>
			<trkpt lat="54.403660" lon="22.036210"><ele>90.5</ele><time>2026-07-14T19:03:05Z</time></trkpt>
			<trkpt lat="54.407100" lon="22.040570"><ele>91.9</ele><time>2026-07-14T19:03:10Z</time></trkpt>
			<trkpt lat="54.407170" lon="22.040670"><ele>92.4</ele><time>2026-07-14T19:03:16Z</time></trkpt>
			<trkpt lat="54.407230" lon="22.040770"><ele>92.8</ele><time>2026-07-14T19:03:21Z</time></trkpt>
			<trkpt lat="54.407240" lon="22.040900"><ele>93.1</ele><time>2026-07-14T19:03:26Z</time></trkpt>
			<trkpt lat="54.407220" lon="22.041030"><ele>93.1</ele><time>2026-07-14T19:03:31Z</time></trkpt>
			<trkpt lat="54.406650" lon="22.042010"><ele>92.9</ele><time>2026-07-14T19:03:36Z</time></trkpt>
			<trkpt lat="54.406190" lon="22.042750"><ele>90.7</ele><time>2026-07-14T19:03:42Z</time></trkpt>
			<trkpt lat="54.405750" lon="22.043530"><ele>89.1</ele><time>2026-07-14T19:03:47Z</time></trkpt>
			<trkpt lat="54.405730" lon="22.043580"><ele>89.1</ele><time>2026-07-14T19:03:52Z</time></trkpt>
			<trkpt lat="54.405720" lon="22.043780"><ele>89.4</ele><time>2026-07-14T19:03:57Z</time></trkpt>
			<trkpt lat="54.405740" lon="22.043860"><ele>89.5</ele><time>2026-07-14T19:04:02Z</time></trkpt>
			<trkpt lat="54.405780" lon="22.043930"><ele>89.7</ele><time>2026-07-14T19:04:07Z</time></trkpt>
			<trkpt lat="54.405960" lon="22.044220"><ele>90.3</ele><time>2026-07-14T19:04:13Z</time></trkpt>
			<trkpt lat="54.406030" lon="22.044320"><ele>90.5</ele><time>2026-07-14T19:04:18Z</time></trkpt>
			<trkpt lat="54.406130" lon="22.044430"><ele>90.8</ele><time>2026-07-14T19:04:23Z</time></trkpt>
			<trkpt lat="54.406440" lon="22.044720"><ele>91.1</ele><time>2026-07-14T19:04:28Z</time></trkpt>
			<trkpt lat="54.406660" lon="22.044980"><ele>91.0</ele><time>2026-07-14T19:04:33Z</time></trkpt>
			<trkpt lat="54.406750" lon="22.045120"><ele>91.0</ele><time>2026-07-14T19:04:39Z</time></trkpt>
			<trkpt lat="54.406820" lon="22.045270"><ele>91.0</ele><time>2026-07-14T19:04:44Z</time></trkpt>
			<trkpt lat="54.408190" lon="22.048810"><ele>93.2</ele><time>2026-07-14T19:04:49Z</time></trkpt>
			<trkpt lat="54.409330" lon="22.051810"><ele>90.3</ele><time>2026-07-14T19:04:54Z</time></trkpt>
			<trkpt lat="54.410910" lon="22.055810"><ele>91.9</ele><time>2026-07-14T19:04:59Z</time></trkpt>
			<trkpt lat="54.411540" lon="22.057490"><ele>91.4</ele><time>2026-07-14T19:05:05Z</time></trkpt>
			<trkpt lat="54.411920" lon="22.058540"><ele>92.3</ele><time>2026-07-14T19:05:10Z</time></trkpt>
			<trkpt lat="54.412440" lon="22.060090"><ele>89.4</ele><time>2026-07-14T19:05:15Z</time></trkpt>
			<trkpt lat="54.412910" lon="22.061620"><ele>89.0</ele><time>2026-07-14T19:05:20Z</time></trkpt>
			<trkpt lat="54.414010" lon="22.065160"><ele>88.6</ele><time>2026-07-14T19:05:25Z</time></trkpt>
			<trkpt lat="54.414380" lon="22.066220"><ele>89.3</ele><time>2026-07-14T19:05:31Z</time></trkpt>
			<trkpt lat="54.414550" lon="22.066620"><ele>89.5</ele><time>2026-07-14T19:05:36Z</time></trkpt>
			<trkpt lat="54.414690" lon="22.066870"><ele>89.6</ele><time>2026-07-14T19:05:41Z</time></trkpt>
			<trkpt lat="54.415170" lon="22.067660"><ele>89.6</ele><time>2026-07-14T19:05:46Z</time></trkpt>
			<trkpt lat="54.415330" lon="22.067990"><ele>89.2</ele><time>2026-07-14T19:05:51Z</time></trkpt>
			<trkpt lat="54.415410" lon="22.068210"><ele>88.8</ele><time>2026-07-14T19:05:56Z</time></trkpt>
			<trkpt lat="54.415650" lon="22.068440"><ele>88.1</ele><time>2026-07-14T19:06:02Z</time></trkpt>
			<trkpt lat="54.417070" lon="22.069420"><ele>88.5</ele><time>2026-07-14T19:06:07Z</time></trkpt>
			<trkpt lat="54.417560" lon="22.069820"><ele>88.8</ele><time>2026-07-14T19:06:12Z</time></trkpt>
			<trkpt lat="54.417730" lon="22.070040"><ele>88.2</ele><time>2026-07-14T19:06:17Z</time></trkpt>
			<trkpt lat="54.417880" lon="22.070270"><ele>87.7</ele><time>2026-07-14T19:06:22Z</time></trkpt>
			<trkpt lat="54.417990" lon="22.070490"><ele>87.4</ele><time>2026-07-14T19:06:28Z</time></trkpt>
			<trkpt lat="54.418080" lon="22.070760"><ele>87.3</ele><time>2026-07-14T19:06:33Z</time></trkpt>
			<trkpt lat="54.418140" lon="22.071040"><ele>87.2</ele><time>2026-07-14T19:06:38Z</time></trkpt>
			<trkpt lat="54.418600" lon="22.074040"><ele>87.0</ele><time>2026-07-14T19:06:43Z</time></trkpt>
			<trkpt lat="54.419410" lon="22.079370"><ele>88.0</ele><time>2026-07-14T19:06:48Z</time></trkpt>
			<trkpt lat="54.419430" lon="22.079620"><ele>88.1</ele><time>2026-07-14T19:06:54Z</time></trkpt>
			<trkpt lat="54.418470" lon="22.095970"><ele>87.9</ele><time>2026-07-14T19:06:59Z</time></trkpt>
			<trkpt lat="54.418620" lon="22.098140"><ele>86.4</ele><time>2026-07-14T19:07:04Z</time></trkpt>
			<trkpt lat="54.418560" lon="22.098560"><ele>86.9</ele><time>2026-07-14T19:07:09Z</time></trkpt>
			<trkpt lat="54.418330" lon="22.099310"><ele>88.1</ele><time>2026-07-14T19:07:14Z</time></trkpt>
			<trkpt lat="54.418270" lon="22.099420"><ele>88.3</ele><time>2026-07-14T19:07:20Z</time></trkpt>
			<trkpt lat="54.415950" lon="22.104360"><ele>88.3</ele><time>2026-07-14T19:07:25Z</time></trkpt>
			<trkpt lat="54.415380" lon="22.105730"><ele>86.5</ele><time>2026-07-14T19:07:30Z</time></trkpt>
			<trkpt lat="54.414150" lon="22.108990"><ele>86.8</ele><time>2026-07-14T19:07:35Z</time></trkpt>
			<trkpt lat="54.413710" lon="22.110640"><ele>85.4</ele><time>2026-07-14T19:07:40Z</time></trkpt>
			<trkpt lat="54.413460" lon="22.111660"><ele>85.9</ele><time>2026-07-14T19:07:45Z</time></trkpt>
			<trkpt lat="54.412960" lon="22.113580"><ele>88.4</ele><time>2026-07-14T19:07:51Z</time></trkpt>
			<trkpt lat="54.412930" lon="22.114080"><ele>88.4</ele><time>2026-07-14T19:07:56Z</time></trkpt>
			<trkpt lat="54.413010" lon="22.115940"><ele>88.8</ele><time>2026-07-14T19:08:01Z</time></trkpt>
			<trkpt lat="54.413260" lon="22.120970"><ele>89.4</ele><time>2026-07-14T19:08:06Z</time></trkpt>
			<trkpt lat="54.413660" lon="22.128910"><ele>86.9</ele><time>2026-07-14T19:08:11Z</time></trkpt>
			<trkpt lat="54.413810" lon="22.131820"><ele>87.4</ele><time>2026-07-14T19:08:17Z</time></trkpt>
			<trkpt lat="54.414160" lon="22.137630"><ele>90.0</ele><time>2026-07-14T19:08:22Z</time></trkpt>
			<trkpt lat="54.414550" lon="22.145480"><ele>89.8</ele><time>2026-07-14T19:08:27Z</time></trkpt>
			<trkpt lat="54.414550" lon="22.145970"><ele>89.2</ele><time>2026-07-14T19:08:32Z</time></trkpt>
			<trkpt lat="54.414370" lon="22.148310"><ele>90.2</ele><time>2026-07-14T19:08:37Z</time></trkpt>
			<trkpt lat="54.414040" lon="22.152370"><ele>91.9</ele><time>2026-07-14T19:08:43Z</time></trkpt>
			<trkpt lat="54.413950" lon="22.153470"><ele>92.8</ele><time>2026-07-14T19:08:48Z</time></trkpt>
			<trkpt lat="54.413860" lon="22.154230"><ele>92.2</ele><time>2026-07-14T19:08:53Z</time></trkpt>
			<trkpt lat="54.413820" lon="22.154760"><ele>92.8</ele><time>2026-07-14T19:08:58Z</time></trkpt>
			<trkpt lat="54.413870" lon="22.155360"><ele>93.3</ele><time>2026-07-14T19:09:03Z</time></trkpt>
			<trkpt lat="54.413950" lon="22.156200"><ele>93.4</ele><time>2026-07-14T19:09:09Z</time></trkpt>
			<trkpt lat="54.414090" lon="22.157280"><ele>93.0</ele><time>2026-07-14T19:09:14Z</time></trkpt>
			<trkpt lat="54.414190" lon="22.157970"><ele>91.2</ele><time>2026-07-14T19:09:19Z</time></trkpt>
			<trkpt lat="54.414210" lon="22.158050"><ele>90.9</ele><time>2026-07-14T19:09:24Z</time></trkpt>
			<trkpt lat="54.414600" lon="22.160360"><ele>86.0</ele><time>2026-07-14T19:09:29Z</time></trkpt>
			<trkpt lat="54.414720" lon="22.161210"><ele>86.8</ele><time>2026-07-14T19:09:35Z</time></trkpt>
			<trkpt lat="54.414730" lon="22.161540"><ele>86.9</ele><time>2026-07-14T19:09:40Z</time></trkpt>
			<trkpt lat="54.414690" lon="22.161920"><ele>86.9</ele><time>2026-07-14T19:09:45Z</time></trkpt>
			<trkpt lat="54.414460" lon="22.162950"><ele>87.3</ele><time>2026-07-14T19:09:50Z</time></trkpt>
			<trkpt lat="54.414090" lon="22.164640"><ele>87.5</ele><time>2026-07-14T19:09:55Z</time></trkpt>
			<trkpt lat="54.414070" lon="22.164960"><ele>87.3</ele><time>2026-07-14T19:10:00Z</time></trkpt>
			<trkpt lat="54.414080" lon="22.165230"><ele>87.5</ele><time>2026-07-14T19:10:06Z</time></trkpt>
			<trkpt lat="54.414190" lon="22.167180"><ele>85.7</ele><time>2026-07-14T19:10:11Z</time></trkpt>
			<trkpt lat="54.414180" lon="22.167790"><ele>84.7</ele><time>2026-07-14T19:10:16Z</time></trkpt>
			<trkpt lat="54.413770" lon="22.183170"><ele>77.8</ele><time>2026-07-14T19:10:21Z</time></trkpt>
			<trkpt lat="54.413770" lon="22.183550"><ele>78.0</ele><time>2026-07-14T19:10:26Z</time></trkpt>
			<trkpt lat="54.413800" lon="22.183810"><ele>78.1</ele><time>2026-07-14T19:10:32Z</time></trkpt>
			<trkpt lat="54.413930" lon="22.184010"><ele>78.1</ele><time>2026-07-14T19:10:37Z</time></trkpt>
			<trkpt lat="54.414740" lon="22.184720"><ele>77.8</ele><time>2026-07-14T19:10:42Z</time></trkpt>
			<trkpt lat="54.415050" lon="22.184990"><ele>78.0</ele><time>2026-07-14T19:10:47Z</time></trkpt>
			<trkpt lat="54.415270" lon="22.185140"><ele>78.3</ele><time>2026-07-14T19:10:52Z</time></trkpt>
			<trkpt lat="54.415420" lon="22.185270"><ele>78.5</ele><time>2026-07-14T19:10:58Z</time></trkpt>
			<trkpt lat="54.415560" lon="22.185430"><ele>79.0</ele><time>2026-07-14T19:11:03Z</time></trkpt>
			<trkpt lat="54.415630" lon="22.185660"><ele>79.5</ele><time>2026-07-14T19:11:08Z</time></trkpt>
			<trkpt lat="54.415650" lon="22.185930"><ele>80.1</ele><time>2026-07-14T19:11:13Z</time></trkpt>
			<trkpt lat="54.415620" lon="22.186220"><ele>81.0</ele><time>2026-07-14T19:11:18Z</time></trkpt>
			<trkpt lat="54.415410" lon="22.186750"><ele>81.9</ele><time>2026-07-14T19:11:24Z</time></trkpt>
			<trkpt lat="54.415150" lon="22.187270"><ele>81.6</ele><time>2026-07-14T19:11:29Z</time></trkpt>
			<trkpt lat="54.414900" lon="22.187970"><ele>81.1</ele><time>2026-07-14T19:11:34Z</time></trkpt>
			<trkpt lat="54.414660" lon="22.188740"><ele>80.9</ele><time>2026-07-14T19:11:39Z</time></trkpt>
			<trkpt lat="54.414500" lon="22.189320"><ele>81.3</ele><time>2026-07-14T19:11:44Z</time></trkpt>
			<trkpt lat="54.413980" lon="22.193240"><ele>88.0</ele><time>2026-07-14T19:11:49Z</time></trkpt>
			<trkpt lat="54.413870" lon="22.193640"><ele>88.0</ele><time>2026-07-14T19:11:55Z</time></trkpt>
			<trkpt lat="54.413640" lon="22.194070"><ele>87.9</ele><time>2026-07-14T19:12:00Z</time></trkpt>
			<trkpt lat="54.411630" lon="22.197430"><ele>83.7</ele><time>2026-07-14T19:12:05Z</time></trkpt>
			<trkpt lat="54.411480" lon="22.197550"><ele>83.6</ele><time>2026-07-14T19:12:10Z</time></trkpt>
			<trkpt lat="54.411330" lon="22.197580"><ele>83.3</ele><time>2026-07-14T19:12:15Z</time></trkpt>
			<trkpt lat="54.411090" lon="22.197540"><ele>82.6</ele><time>2026-07-14T19:12:21Z</time></trkpt>
			<trkpt lat="54.410380" lon="22.197330"><ele>81.8</ele><time>2026-07-14T19:12:26Z</time></trkpt>
			<trkpt lat="54.409970" lon="22.197250"><ele>82.2</ele><time>2026-07-14T19:12:31Z</time></trkpt>
			<trkpt lat="54.409660" lon="22.197270"><ele>84.0</ele><time>2026-07-14T19:12:36Z</time></trkpt>
			<trkpt lat="54.407510" lon="22.197650"><ele>97.3</ele><time>2026-07-14T19:12:41Z</time></trkpt>
			<trkpt lat="54.407280" lon="22.197810"><ele>98.2</ele><time>2026-07-14T19:12:47Z</time></trkpt>
			<trkpt lat="54.405980" lon="22.199190"><ele>102.2</ele><time>2026-07-14T19:12:52Z</time></trkpt>
			<trkpt lat="54.405860" lon="22.199360"><ele>102.3</ele><time>2026-07-14T19:12:57Z</time></trkpt>
			<trkpt lat="54.405770" lon="22.199680"><ele>102.5</ele><time>2026-07-14T19:13:02Z</time></trkpt>
			<trkpt lat="54.405170" lon="22.202090"><ele>107.4</ele><time>2026-07-14T19:13:07Z</time></trkpt>
			<trkpt lat="54.405080" lon="22.202630"><ele>107.9</ele><time>2026-07-14T19:13:13Z</time></trkpt>
			<trkpt lat="54.405080" lon="22.202950"><ele>107.8</ele><time>2026-07-14T19:13:18Z</time></trkpt>
			<trkpt lat="54.405220" lon="22.205370"><ele>106.5</ele><time>2026-07-14T19:13:23Z</time></trkpt>
			<trkpt lat="54.405340" lon="22.207950"><ele>107.9</ele><time>2026-07-14T19:13:28Z</time></trkpt>
			<trkpt lat="54.405410" lon="22.209880"><ele>107.6</ele><time>2026-07-14T19:13:33Z</time></trkpt>
			<trkpt lat="54.405450" lon="22.210600"><ele>106.2</ele><time>2026-07-14T19:13:38Z</time></trkpt>
			<trkpt lat="54.405460" lon="22.210880"><ele>105.8</ele><time>2026-07-14T19:13:44Z</time></trkpt>
			<trkpt lat="54.405450" lon="22.211080"><ele>105.4</ele><time>2026-07-14T19:13:49Z</time></trkpt>
			<trkpt lat="54.405420" lon="22.211280"><ele>105.2</ele><time>2026-07-14T19:13:54Z</time></trkpt>
			<trkpt lat="54.404500" lon="22.215030"><ele>105.6</ele><time>2026-07-14T19:13:59Z</time></trkpt>
			<trkpt lat="54.404260" lon="22.215940"><ele>107.3</ele><time>2026-07-14T19:14:04Z</time></trkpt>
			<trkpt lat="54.402880" lon="22.220270"><ele>111.6</ele><time>2026-07-14T19:14:10Z</time></trkpt>
			<trkpt lat="54.401830" lon="22.224240"><ele>108.5</ele><time>2026-07-14T19:14:15Z</time></trkpt>
			<trkpt lat="54.401300" lon="22.225940"><ele>106.7</ele><time>2026-07-14T19:14:20Z</time></trkpt>
			<trkpt lat="54.400040" lon="22.229470"><ele>105.3</ele><time>2026-07-14T19:14:25Z</time></trkpt>
			<trkpt lat="54.399820" lon="22.230050"><ele>105.7</ele><time>2026-07-14T19:14:30Z</time></trkpt>
			<trkpt lat="54.399620" lon="22.230670"><ele>107.5</ele><time>2026-07-14T19:14:36Z</time></trkpt>
			<trkpt lat="54.398890" lon="22.234290"><ele>113.5</ele><time>2026-07-14T19:14:41Z</time></trkpt>
			<trkpt lat="54.398720" lon="22.236700"><ele>114.5</ele><time>2026-07-14T19:14:46Z</time></trkpt>
			<trkpt lat="54.398700" lon="22.236960"><ele>114.4</ele><time>2026-07-14T19:14:51Z</time></trkpt>
			<trkpt lat="54.398680" lon="22.237260"><ele>114.4</ele><time>2026-07-14T19:14:56Z</time></trkpt>
			<trkpt lat="54.398650" lon="22.237610"><ele>114.4</ele><time>2026-07-14T19:15:02Z</time></trkpt>
			<trkpt lat="54.398610" lon="22.237940"><ele>114.3</ele><time>2026-07-14T19:15:07Z</time></trkpt>
			<trkpt lat="54.398390" lon="22.238280"><ele>113.8</ele><time>2026-07-14T19:15:12Z</time></trkpt>
			<trkpt lat="54.398180" lon="22.238700"><ele>112.9</ele><time>2026-07-14T19:15:17Z</time></trkpt>
			<trkpt lat="54.397840" lon="22.239540"><ele>111.2</ele><time>2026-07-14T19:15:22Z</time></trkpt>
			<trkpt lat="54.397610" lon="22.240050"><ele>111.9</ele><time>2026-07-14T19:15:28Z</time></trkpt>
			<trkpt lat="54.397080" lon="22.241150"><ele>113.4</ele><time>2026-07-14T19:15:33Z</time></trkpt>
			<trkpt lat="54.396950" lon="22.241520"><ele>112.9</ele><time>2026-07-14T19:15:38Z</time></trkpt>
			<trkpt lat="54.396810" lon="22.241760"><ele>111.4</ele><time>2026-07-14T19:15:43Z</time></trkpt>
			<trkpt lat="54.396670" lon="22.241950"><ele>110.0</ele><time>2026-07-14T19:15:48Z</time></trkpt>
			<trkpt lat="54.396050" lon="22.242330"><ele>106.4</ele><time>2026-07-14T19:15:53Z</time></trkpt>
			<trkpt lat="54.395810" lon="22.242480"><ele>105.8</ele><time>2026-07-14T19:15:59Z</time></trkpt>
			<trkpt lat="54.395340" lon="22.242700"><ele>104.6</ele><time>2026-07-14T19:16:04Z</time></trkpt>
			<trkpt lat="54.395080" lon="22.242900"><ele>104.3</ele><time>2026-07-14T19:16:09Z</time></trkpt>
			<trkpt lat="54.394450" lon="22.243650"><ele>104.1</ele><time>2026-07-14T19:16:14Z</time></trkpt>
			<trkpt lat="54.394240" lon="22.243920"><ele>104.4</ele><time>2026-07-14T19:16:19Z</time></trkpt>
			<trkpt lat="54.392820" lon="22.245550"><ele>106.9</ele><time>2026-07-14T19:16:25Z</time></trkpt>
			<trkpt lat="54.392640" lon="22.245780"><ele>107.2</ele><time>2026-07-14T19:16:30Z</time></trkpt>
			<trkpt lat="54.392550" lon="22.245930"><ele>107.2</ele><time>2026-07-14T19:16:35Z</time></trkpt>
			<trkpt lat="54.392470" lon="22.246120"><ele>107.3</ele><time>2026-07-14T19:16:40Z</time></trkpt>
			<trkpt lat="54.392390" lon="22.246360"><ele>107.3</ele><time>2026-07-14T19:16:45Z</time></trkpt>
			<trkpt lat="54.391880" lon="22.248290"><ele>107.7</ele><time>2026-07-14T19:16:51Z</time></trkpt>
			<trkpt lat="54.391670" lon="22.249090"><ele>107.2</ele><time>2026-07-14T19:16:56Z</time></trkpt>
			<trkpt lat="54.391510" lon="22.249590"><ele>106.8</ele><time>2026-07-14T19:17:01Z</time></trkpt>
			<trkpt lat="54.389810" lon="22.253420"><ele>112.2</ele><time>2026-07-14T19:17:06Z</time></trkpt>
			<trkpt lat="54.388620" lon="22.256900"><ele>102.9</ele><time>2026-07-14T19:17:11Z</time></trkpt>
			<trkpt lat="54.388530" lon="22.257130"><ele>102.6</ele><time>2026-07-14T19:17:17Z</time></trkpt>
			<trkpt lat="54.388450" lon="22.257300"><ele>102.4</ele><time>2026-07-14T19:17:22Z</time></trkpt>
			<trkpt lat="54.388340" lon="22.257500"><ele>102.8</ele><time>2026-07-14T19:17:27Z</time></trkpt>
			<trkpt lat="54.388210" lon="22.257630"><ele>103.2</ele><time>2026-07-14T19:17:32Z</time></trkpt>
			<trkpt lat="54.388080" lon="22.257710"><ele>103.7</ele><time>2026-07-14T19:17:37Z</time></trkpt>
			<trkpt lat="54.387920" lon="22.257740"><ele>104.4</ele><time>2026-07-14T19:17:42Z</time></trkpt>
			<trkpt lat="54.387760" lon="22.257720"><ele>104.9</ele><time>2026-07-14T19:17:48Z</time></trkpt>
			<trkpt lat="54.385730" lon="22.256900"><ele>110.4</ele><time>2026-07-14T19:17:53Z</time></trkpt>
			<trkpt lat="54.385570" lon="22.256790"><ele>111.0</ele><time>2026-07-14T19:17:58Z</time></trkpt>
			<trkpt lat="54.384890" lon="22.255940"><ele>111.4</ele><time>2026-07-14T19:18:03Z</time></trkpt>
			<trkpt lat="54.384060" lon="22.254630"><ele>109.0</ele><time>2026-07-14T19:18:08Z</time></trkpt>
			<trkpt lat="54.383820" lon="22.254320"><ele>109.0</ele><time>2026-07-14T19:18:14Z</time></trkpt>
			<trkpt lat="54.383650" lon="22.254150"><ele>109.4</ele><time>2026-07-14T19:18:19Z</time></trkpt>
			<trkpt lat="54.383450" lon="22.254020"><ele>110.3</ele><time>2026-07-14T19:18:24Z</time></trkpt>
			<trkpt lat="54.383250" lon="22.253940"><ele>110.8</ele><time>2026-07-14T19:18:29Z</time></trkpt>
			<trkpt lat="54.383090" lon="22.253900"><ele>111.1</ele><time>2026-07-14T19:18:34Z</time></trkpt>
			<trkpt lat="54.382910" lon="22.253880"><ele>111.1</ele><time>2026-07-14T19:18:40Z</time></trkpt>
			<trkpt lat="54.382240" lon="22.254010"><ele>109.9</ele><time>2026-07-14T19:18:45Z</time></trkpt>
			<trkpt lat="54.381950" lon="22.254020"><ele>109.0</ele><time>2026-07-14T19:18:50Z</time></trkpt>
			<trkpt lat="54.381730" lon="22.253980"><ele>108.5</ele><time>2026-07-14T19:18:55Z</time></trkpt>
			<trkpt lat="54.381540" lon="22.253900"><ele>108.2</ele><time>2026-07-14T19:19:00Z</time></trkpt>
			<trkpt lat="54.381370" lon="22.253790"><ele>108.1</ele><time>2026-07-14T19:19:06Z</time></trkpt>
			<trkpt lat="54.381250" lon="22.253690"><ele>108.1</ele><time>2026-07-14T19:19:11Z</time></trkpt>
			<trkpt lat="54.381110" lon="22.253530"><ele>108.1</ele><time>2026-07-14T19:19:16Z</time></trkpt>
			<trkpt lat="54.380940" lon="22.253390"><ele>108.2</ele><time>2026-07-14T19:19:21Z</time></trkpt>
			<trkpt lat="54.380480" lon="22.253120"><ele>109.7</ele><time>2026-07-14T19:19:26Z</time></trkpt>
			<trkpt lat="54.380270" lon="22.253100"><ele>110.8</ele><time>2026-07-14T19:19:32Z</time></trkpt>
			<trkpt lat="54.380080" lon="22.253130"><ele>111.9</ele><time>2026-07-14T19:19:37Z</time></trkpt>
			<trkpt lat="54.379670" lon="22.253280"><ele>115.2</ele><time>2026-07-14T19:19:42Z</time></trkpt>
			<trkpt lat="54.379480" lon="22.253380"><ele>116.7</ele><time>2026-07-14T19:19:47Z</time></trkpt>
			<trkpt lat="54.379350" lon="22.253510"><ele>117.7</ele><time>2026-07-14T19:19:52Z</time></trkpt>
			<trkpt lat="54.379260" lon="22.253660"><ele>118.5</ele><time>2026-07-14T19:19:57Z</time></trkpt>
			<trkpt lat="54.378140" lon="22.255530"><ele>128.2</ele><time>2026-07-14T19:20:03Z</time></trkpt>
			<trkpt lat="54.377220" lon="22.257090"><ele>131.0</ele><time>2026-07-14T19:20:08Z</time></trkpt>
			<trkpt lat="54.372330" lon="22.265250"><ele>141.1</ele><time>2026-07-14T19:20:13Z</time></trkpt>
			<trkpt lat="54.371190" lon="22.267630"><ele>138.8</ele><time>2026-07-14T19:20:18Z</time></trkpt>
			<trkpt lat="54.371030" lon="22.267920"><ele>139.9</ele><time>2026-07-14T19:20:23Z</time></trkpt>
			<trkpt lat="54.370910" lon="22.268070"><ele>140.7</ele><time>2026-07-14T19:20:29Z</time></trkpt>
			<trkpt lat="54.370750" lon="22.268220"><ele>141.9</ele><time>2026-07-14T19:20:34Z</time></trkpt>
			<trkpt lat="54.369260" lon="22.269130"><ele>148.6</ele><time>2026-07-14T19:20:39Z</time></trkpt>
			<trkpt lat="54.368790" lon="22.269390"><ele>148.4</ele><time>2026-07-14T19:20:44Z</time></trkpt>
			<trkpt lat="54.368370" lon="22.269690"><ele>148.1</ele><time>2026-07-14T19:20:49Z</time></trkpt>
			<trkpt lat="54.368180" lon="22.269860"><ele>148.2</ele><time>2026-07-14T19:20:55Z</time></trkpt>
			<trkpt lat="54.366350" lon="22.272070"><ele>147.7</ele><time>2026-07-14T19:21:00Z</time></trkpt>
			<trkpt lat="54.366240" lon="22.272250"><ele>146.9</ele><time>2026-07-14T19:21:05Z</time></trkpt>
			<trkpt lat="54.366170" lon="22.272450"><ele>146.4</ele><time>2026-07-14T19:21:10Z</time></trkpt>
			<trkpt lat="54.366000" lon="22.273050"><ele>145.4</ele><time>2026-07-14T19:21:15Z</time></trkpt>
			<trkpt lat="54.365750" lon="22.273900"><ele>141.7</ele><time>2026-07-14T19:21:21Z</time></trkpt>
			<trkpt lat="54.365590" lon="22.274530"><ele>138.5</ele><time>2026-07-14T19:21:26Z</time></trkpt>
			<trkpt lat="54.365310" lon="22.275870"><ele>137.2</ele><time>2026-07-14T19:21:31Z</time></trkpt>
			<trkpt lat="54.365030" lon="22.277470"><ele>137.8</ele><time>2026-07-14T19:21:36Z</time></trkpt>
			<trkpt lat="54.365000" lon="22.277730"><ele>137.4</ele><time>2026-07-14T19:21:41Z</time></trkpt>
			<trkpt lat="54.364960" lon="22.278170"><ele>136.5</ele><time>2026-07-14T19:21:46Z</time></trkpt>
			<trkpt lat="54.364960" lon="22.278570"><ele>135.8</ele><time>2026-07-14T19:21:52Z</time></trkpt>
			<trkpt lat="54.364980" lon="22.279100"><ele>135.2</ele><time>2026-07-14T19:21:57Z</time></trkpt>
			<trkpt lat="54.365000" lon="22.279510"><ele>135.0</ele><time>2026-07-14T19:22:02Z</time></trkpt>
			<trkpt lat="54.365010" lon="22.280000"><ele>135.0</ele><time>2026-07-14T19:22:07Z</time></trkpt>
			<trkpt lat="54.364980" lon="22.280280"><ele>135.3</ele><time>2026-07-14T19:22:12Z</time></trkpt>
			<trkpt lat="54.364930" lon="22.280400"><ele>135.4</ele><time>2026-07-14T19:22:18Z</time></trkpt>
			<trkpt lat="54.364880" lon="22.280540"><ele>135.6</ele><time>2026-07-14T19:22:23Z</time></trkpt>
			<trkpt lat="54.364860" lon="22.280580"><ele>135.6</ele><time>2026-07-14T19:22:28Z</time></trkpt>
			<trkpt lat="54.364680" lon="22.280830"><ele>136.3</ele><time>2026-07-14T19:22:33Z</time></trkpt>
			<trkpt lat="54.364040" lon="22.281640"><ele>141.3</ele><time>2026-07-14T19:22:38Z</time></trkpt>
			<trkpt lat="54.363830" lon="22.281940"><ele>142.9</ele><time>2026-07-14T19:22:44Z</time></trkpt>
			<trkpt lat="54.363400" lon="22.282340"><ele>146.1</ele><time>2026-07-14T19:22:49Z</time></trkpt>
			<trkpt lat="54.362080" lon="22.283250"><ele>147.9</ele><time>2026-07-14T19:22:54Z</time></trkpt>
			<trkpt lat="54.361550" lon="22.283620"><ele>148.4</ele><time>2026-07-14T19:22:59Z</time></trkpt>
			<trkpt lat="54.361130" lon="22.283870"><ele>149.3</ele><time>2026-07-14T19:23:04Z</time></trkpt>
			<trkpt lat="54.360880" lon="22.284170"><ele>150.9</ele><time>2026-07-14T19:23:10Z</time></trkpt>
			<trkpt lat="54.360620" lon="22.284490"><ele>152.6</ele><time>2026-07-14T19:23:15Z</time></trkpt>
			<trkpt lat="54.360410" lon="22.284910"><ele>154.3</ele><time>2026-07-14T19:23:20Z</time></trkpt>
			<trkpt lat="54.360040" lon="22.286140"><ele>159.2</ele><time>2026-07-14T19:23:25Z</time></trkpt>
			<trkpt lat="54.359980" lon="22.286330"><ele>160.0</ele><time>2026-07-14T19:23:30Z</time></trkpt>
			<trkpt lat="54.359680" lon="22.287300"><ele>167.7</ele><time>2026-07-14T19:23:35Z</time></trkpt>
			<trkpt lat="54.358770" lon="22.288710"><ele>178.2</ele><time>2026-07-14T19:23:41Z</time></trkpt>
			<trkpt lat="54.357560" lon="22.290480"><ele>180.7</ele><time>2026-07-14T19:23:46Z</time></trkpt>
			<trkpt lat="54.356100" lon="22.293100"><ele>183.9</ele><time>2026-07-14T19:23:51Z</time></trkpt>
			<trkpt lat="54.355050" lon="22.294170"><ele>187.7</ele><time>2026-07-14T19:23:56Z</time></trkpt>
			<trkpt lat="54.354110" lon="22.294640"><ele>189.1</ele><time>2026-07-14T19:24:01Z</time></trkpt>
			<trkpt lat="54.352860" lon="22.295810"><ele>185.4</ele><time>2026-07-14T19:24:07Z</time></trkpt>
			<trkpt lat="54.352400" lon="22.296060"><ele>183.1</ele><time>2026-07-14T19:24:12Z</time></trkpt>
			<trkpt lat="54.350950" lon="22.296040"><ele>187.2</ele><time>2026-07-14T19:24:17Z</time></trkpt>
			<trkpt lat="54.350380" lon="22.296370"><ele>185.4</ele><time>2026-07-14T19:24:22Z</time></trkpt>
			<trkpt lat="54.349890" lon="22.297120"><ele>181.6</ele><time>2026-07-14T19:24:27Z</time></trkpt>
			<trkpt lat="54.349130" lon="22.297810"><ele>180.3</ele><time>2026-07-14T19:24:33Z</time></trkpt>
			<trkpt lat="54.348360" lon="22.297920"><ele>177.2</ele><time>2026-07-14T19:24:38Z</time></trkpt>
			<trkpt lat="54.347980" lon="22.297920"><ele>177.0</ele><time>2026-07-14T19:24:43Z</time></trkpt>
			<trkpt lat="54.347710" lon="22.297970"><ele>177.0</ele><time>2026-07-14T19:24:48Z</time></trkpt>
			<trkpt lat="54.347600" lon="22.298020"><ele>177.1</ele><time>2026-07-14T19:24:53Z</time></trkpt>
			<trkpt lat="54.347500" lon="22.298060"><ele>177.3</ele><time>2026-07-14T19:24:59Z</time></trkpt>
			<trkpt lat="54.347370" lon="22.298150"><ele>177.4</ele><time>2026-07-14T19:25:04Z</time></trkpt>
			<trkpt lat="54.347270" lon="22.298220"><ele>177.6</ele><time>2026-07-14T19:25:09Z</time></trkpt>
			<trkpt lat="54.347190" lon="22.298320"><ele>177.9</ele><time>2026-07-14T19:25:14Z</time></trkpt>
			<trkpt lat="54.346980" lon="22.298520"><ele>178.5</ele><time>2026-07-14T19:25:19Z</time></trkpt>
			<trkpt lat="54.346920" lon="22.298600"><ele>178.6</ele><time>2026-07-14T19:25:25Z</time></trkpt>
			<trkpt lat="54.346900" lon="22.298570"><ele>178.7</ele><time>2026-07-14T19:25:30Z</time></trkpt>
			<trkpt lat="54.346870" lon="22.298560"><ele>178.7</ele><time>2026-07-14T19:25:35Z</time></trkpt>
			<trkpt lat="54.346840" lon="22.298570"><ele>178.8</ele><time>2026-07-14T19:25:40Z</time></trkpt>
			<trkpt lat="54.346820" lon="22.298600"><ele>178.9</ele><time>2026-07-14T19:25:45Z</time></trkpt>
			<trkpt lat="54.346800" lon="22.298650"><ele>178.9</ele><time>2026-07-14T19:25:50Z</time></trkpt>
			<trkpt lat="54.346800" lon="22.298690"><ele>179.0</ele><time>2026-07-14T19:25:56Z</time></trkpt>
			<trkpt lat="54.346800" lon="22.298740"><ele>179.0</ele><time>2026-07-14T19:26:01Z</time></trkpt>
			<trkpt lat="54.346820" lon="22.298780"><ele>179.1</ele><time>2026-07-14T19:26:06Z</time></trkpt>
			<trkpt lat="54.346840" lon="22.298810"><ele>179.2</ele><time>2026-07-14T19:26:11Z</time></trkpt>
			<trkpt lat="54.346870" lon="22.298820"><ele>179.2</ele><time>2026-07-14T19:26:16Z</time></trkpt>
			<trkpt lat="54.346900" lon="22.298810"><ele>179.1</ele><time>2026-07-14T19:26:22Z</time></trkpt>
			<trkpt lat="54.346920" lon="22.298790"><ele>179.1</ele><time>2026-07-14T19:26:27Z</time></trkpt>
			<trkpt lat="54.347060" lon="22.299180"><ele>179.1</ele><time>2026-07-14T19:26:32Z</time></trkpt>
			<trkpt lat="54.347110" lon="22.299280"><ele>179.1</ele><time>2026-07-14T19:26:37Z</time></trkpt>
			<trkpt lat="54.347380" lon="22.300140"><ele>179.0</ele><time>2026-07-14T19:26:42Z</time></trkpt>
			<trkpt lat="54.347660" lon="22.301230"><ele>178.9</ele><time>2026-07-14T19:26:48Z</time></trkpt>
			<trkpt lat="54.348260" lon="22.303410"><ele>173.6</ele><time>2026-07-14T19:26:53Z</time></trkpt>
			<trkpt lat="54.348430" lon="22.303960"><ele>169.5</ele><time>2026-07-14T19:26:58Z</time></trkpt>
			<trkpt lat="54.348700" lon="22.304720"><ele>161.9</ele><time>2026-07-14T19:27:03Z</time></trkpt>
			<trkpt lat="54.348940" lon="22.305260"><ele>156.5</ele><time>2026-07-14T19:27:08Z</time></trkpt>
			<trkpt lat="54.349280" lon="22.305900"><ele>152.9</ele><time>2026-07-14T19:27:14Z</time></trkpt>
			<trkpt lat="54.350350" lon="22.307740"><ele>154.6</ele><time>2026-07-14T19:27:19Z</time></trkpt>
			<trkpt lat="54.351050" lon="22.308830"><ele>153.4</ele><time>2026-07-14T19:27:24Z</time></trkpt>
			<trkpt lat="54.351490" lon="22.309390"><ele>153.7</ele><time>2026-07-14T19:27:29Z</time></trkpt>
			<trkpt lat="54.352020" lon="22.309950"><ele>156.0</ele><time>2026-07-14T19:27:34Z</time></trkpt>
			<trkpt lat="54.352480" lon="22.310370"><ele>160.1</ele><time>2026-07-14T19:27:39Z</time></trkpt>
			<trkpt lat="54.352790" lon="22.310600"><ele>163.5</ele><time>2026-07-14T19:27:45Z</time></trkpt>
			<trkpt lat="54.352790" lon="22.310600"><ele>163.5</ele><time>2026-07-14T19:27:50Z</time></trkpt>
			<trkpt lat="54.352880" lon="22.310670"><ele>164.2</ele><time>2026-07-14T19:27:55Z</time></trkpt>
			<trkpt lat="54.353230" lon="22.310870"><ele>166.8</ele><time>2026-07-14T19:28:01Z</time></trkpt>
			<trkpt lat="54.353570" lon="22.311020"><ele>169.2</ele><time>2026-07-14T19:28:06Z</time></trkpt>
			<trkpt lat="54.354040" lon="22.311150"><ele>171.8</ele><time>2026-07-14T19:28:11Z</time></trkpt>
			<trkpt lat="54.354730" lon="22.311280"><ele>173.8</ele><time>2026-07-14T19:28:16Z</time></trkpt>
			<trkpt lat="54.357330" lon="22.311650"><ele>177.0</ele><time>2026-07-14T19:28:22Z</time></trkpt>
			<trkpt lat="54.358340" lon="22.311810"><ele>177.1</ele><time>2026-07-14T19:28:27Z</time></trkpt>
			<trkpt lat="54.359110" lon="22.311960"><ele>177.3</ele><time>2026-07-14T19:28:32Z</time></trkpt>
			<trkpt lat="54.359610" lon="22.312140"><ele>177.6</ele><time>2026-07-14T19:28:37Z</time></trkpt>
			<trkpt lat="54.359940" lon="22.312300"><ele>177.7</ele><time>2026-07-14T19:28:43Z</time></trkpt>
			<trkpt lat="54.360530" lon="22.312650"><ele>179.5</ele><time>2026-07-14T19:28:48Z</time></trkpt>
			<trkpt lat="54.361150" lon="22.313140"><ele>181.1</ele><time>2026-07-14T19:28:53Z</time></trkpt>
			<trkpt lat="54.362120" lon="22.314020"><ele>183.0</ele><time>2026-07-14T19:28:59Z</time></trkpt>
			<trkpt lat="54.362640" lon="22.314450"><ele>182.3</ele><time>2026-07-14T19:29:04Z</time></trkpt>
			<trkpt lat="54.363080" lon="22.314770"><ele>181.5</ele><time>2026-07-14T19:29:09Z</time></trkpt>
			<trkpt lat="54.363320" lon="22.314920"><ele>180.7</ele><time>2026-07-14T19:29:14Z</time></trkpt>
			<trkpt lat="54.364090" lon="22.315300"><ele>180.0</ele><time>2026-07-14T19:29:20Z</time></trkpt>
			<trkpt lat="54.364440" lon="22.315440"><ele>180.1</ele><time>2026-07-14T19:29:25Z</time></trkpt>
			<trkpt lat="54.365310" lon="22.315730"><ele>178.7</ele><time>2026-07-14T19:29:30Z</time></trkpt>
			<trkpt lat="54.366000" lon="22.315980"><ele>176.9</ele><time>2026-07-14T19:29:36Z</time></trkpt>
			<trkpt lat="54.366230" lon="22.316100"><ele>175.9</ele><time>2026-07-14T19:29:41Z</time></trkpt>
			<trkpt lat="54.366560" lon="22.316280"><ele>174.5</ele><time>2026-07-14T19:29:46Z</time></trkpt>
			<trkpt lat="54.366900" lon="22.316520"><ele>173.7</ele><time>2026-07-14T19:29:51Z</time></trkpt>
			<trkpt lat="54.367340" lon="22.316870"><ele>172.1</ele><time>2026-07-14T19:29:57Z</time></trkpt>
			<trkpt lat="54.367460" lon="22.316970"><ele>171.8</ele><time>2026-07-14T19:30:02Z</time></trkpt>
			<trkpt lat="54.367800" lon="22.317320"><ele>172.3</ele><time>2026-07-14T19:30:07Z</time></trkpt>
			<trkpt lat="54.368200" lon="22.317780"><ele>175.1</ele><time>2026-07-14T19:30:13Z</time></trkpt>
			<trkpt lat="54.370630" lon="22.321160"><ele>181.5</ele><time>2026-07-14T19:30:18Z</time></trkpt>
			<trkpt lat="54.371120" lon="22.321870"><ele>180.5</ele><time>2026-07-14T19:30:23Z</time></trkpt>
			<trkpt lat="54.371740" lon="22.322850"><ele>178.3</ele><time>2026-07-14T19:30:28Z</time></trkpt>
			<trkpt lat="54.372650" lon="22.324410"><ele>177.6</ele><time>2026-07-14T19:30:34Z</time></trkpt>
			<trkpt lat="54.373100" lon="22.325220"><ele>174.6</ele><time>2026-07-14T19:30:39Z</time></trkpt>
			<trkpt lat="54.374300" lon="22.327530"><ele>175.7</ele><time>2026-07-14T19:30:44Z</time></trkpt>
			<trkpt lat="54.374610" lon="22.328100"><ele>176.1</ele><time>2026-07-14T19:30:49Z</time></trkpt>
			<trkpt lat="54.374920" lon="22.328640"><ele>174.9</ele><time>2026-07-14T19:30:55Z</time></trkpt>
			<trkpt lat="54.375210" lon="22.329130"><ele>173.1</ele><time>2026-07-14T19:31:00Z</time></trkpt>
			<trkpt lat="54.375680" lon="22.329880"><ele>171.3</ele><time>2026-07-14T19:31:05Z</time></trkpt>
			<trkpt lat="54.376430" lon="22.330980"><ele>170.0</ele><time>2026-07-14T19:31:11Z</time></trkpt>
			<trkpt lat="54.376940" lon="22.331680"><ele>168.9</ele><time>2026-07-14T19:31:16Z</time></trkpt>
			<trkpt lat="54.377760" lon="22.332700"><ele>165.1</ele><time>2026-07-14T19:31:21Z</time></trkpt>
			<trkpt lat="54.377980" lon="22.332940"><ele>163.8</ele><time>2026-07-14T19:31:26Z</time></trkpt>
			<trkpt lat="54.379320" lon="22.334260"><ele>159.9</ele><time>2026-07-14T19:31:32Z</time></trkpt>
			<trkpt lat="54.379660" lon="22.334570"><ele>160.9</ele><time>2026-07-14T19:31:37Z</time></trkpt>
			<trkpt lat="54.380250" lon="22.335040"><ele>159.2</ele><time>2026-07-14T19:31:42Z</time></trkpt>
			<trkpt lat="54.380740" lon="22.335380"><ele>155.6</ele><time>2026-07-14T19:31:48Z</time></trkpt>
			<trkpt lat="54.381710" lon="22.336010"><ele>152.9</ele><time>2026-07-14T19:31:53Z</time></trkpt>
			<trkpt lat="54.382250" lon="22.336310"><ele>150.8</ele><time>2026-07-14T19:31:58Z</time></trkpt>
			<trkpt lat="54.383290" lon="22.336820"><ele>150.6</ele><time>2026-07-14T19:32:03Z</time></trkpt>
			<trkpt lat="54.384250" lon="22.337190"><ele>152.4</ele><time>2026-07-14T19:32:09Z</time></trkpt>
			<trkpt lat="54.384750" lon="22.337340"><ele>152.9</ele><time>2026-07-14T19:32:14Z</time></trkpt>
			<trkpt lat="54.385690" lon="22.337540"><ele>154.2</ele><time>2026-07-14T19:32:19Z</time></trkpt>
			<trkpt lat="54.387250" lon="22.337720"><ele>152.2</ele><time>2026-07-14T19:32:25Z</time></trkpt>
			<trkpt lat="54.387680" lon="22.337750"><ele>150.7</ele><time>2026-07-14T19:32:30Z</time></trkpt>
			<trkpt lat="54.388140" lon="22.337720"><ele>150.4</ele><time>2026-07-14T19:32:35Z</time></trkpt>
			<trkpt lat="54.389830" lon="22.337550"><ele>150.3</ele><time>2026-07-14T19:32:40Z</time></trkpt>
			<trkpt lat="54.391690" lon="22.337400"><ele>147.6</ele><time>2026-07-14T19:32:46Z</time></trkpt>
			<trkpt lat="54.392820" lon="22.337210"><ele>143.5</ele><time>2026-07-14T19:32:51Z</time></trkpt>
			<trkpt lat="54.393970" lon="22.337160"><ele>136.0</ele><time>2026-07-14T19:32:56Z</time></trkpt>
			<trkpt lat="54.396230" lon="22.336980"><ele>125.4</ele><time>2026-07-14T19:33:01Z</time></trkpt>
			<trkpt lat="54.397080" lon="22.336870"><ele>119.4</ele><time>2026-07-14T19:33:07Z</time></trkpt>
			<trkpt lat="54.397530" lon="22.336790"><ele>115.7</ele><time>2026-07-14T19:33:12Z</time></trkpt>
			<trkpt lat="54.397930" lon="22.336680"><ele>113.9</ele><time>2026-07-14T19:33:17Z</time></trkpt>
			<trkpt lat="54.398550" lon="22.336380"><ele>111.3</ele><time>2026-07-14T19:33:23Z</time></trkpt>
			<trkpt lat="54.399170" lon="22.336050"><ele>110.1</ele><time>2026-07-14T19:33:28Z</time></trkpt>
			<trkpt lat="54.400150" lon="22.335340"><ele>116.4</ele><time>2026-07-14T19:33:33Z</time></trkpt>
			<trkpt lat="54.400370" lon="22.335140"><ele>118.2</ele><time>2026-07-14T19:33:38Z</time></trkpt>
			<trkpt lat="54.401130" lon="22.334440"><ele>121.6</ele><time>2026-07-14T19:33:44Z</time></trkpt>
			<trkpt lat="54.401550" lon="22.334080"><ele>122.2</ele><time>2026-07-14T19:33:49Z</time></trkpt>
			<trkpt lat="54.402980" lon="22.332920"><ele>119.3</ele><time>2026-07-14T19:33:54Z</time></trkpt>
			<trkpt lat="54.404620" lon="22.331570"><ele>115.3</ele><time>2026-07-14T19:34:00Z</time></trkpt>
			<trkpt lat="54.406720" lon="22.329800"><ele>112.8</ele><time>2026-07-14T19:34:05Z</time></trkpt>
			<trkpt lat="54.408260" lon="22.327800"><ele>112.2</ele><time>2026-07-14T19:34:10Z</time></trkpt>
			<trkpt lat="54.409100" lon="22.326680"><ele>109.8</ele><time>2026-07-14T19:34:15Z</time></trkpt>
			<trkpt lat="54.409770" lon="22.325940"><ele>110.1</ele><time>2026-07-14T19:34:21Z</time></trkpt>
			<trkpt lat="54.409870" lon="22.325750"><ele>109.7</ele><time>2026-07-14T19:34:26Z</time></trkpt>
			<trkpt lat="54.409860" lon="22.325680"><ele>109.6</ele><time>2026-07-14T19:34:31Z</time></trkpt>
			<trkpt lat="54.409860" lon="22.325520"><ele>109.4</ele><time>2026-07-14T19:34:37Z</time></trkpt>
			<trkpt lat="54.409860" lon="22.325430"><ele>109.3</ele><time>2026-07-14T19:34:42Z</time></trkpt>
			<trkpt lat="54.409830" lon="22.325020"><ele>108.7</ele><time>2026-07-14T19:34:47Z</time></trkpt>
			<trkpt lat="54.409720" lon="22.324360"><ele>108.6</ele><time>2026-07-14T19:34:52Z</time></trkpt>
			<trkpt lat="54.409710" lon="22.323860"><ele>109.5</ele><time>2026-07-14T19:34:58Z</time></trkpt>
			<trkpt lat="54.409760" lon="22.323270"><ele>111.1</ele><time>2026-07-14T19:35:03Z</time></trkpt>
			<trkpt lat="54.409930" lon="22.322610"><ele>113.4</ele><time>2026-07-14T19:35:08Z</time></trkpt>
			<trkpt lat="54.410170" lon="22.322080"><ele>113.6</ele><time>2026-07-14T19:35:13Z</time></trkpt>
			<trkpt lat="54.410810" lon="22.320780"><ele>113.1</ele><time>2026-07-14T19:35:19Z</time></trkpt>
			<trkpt lat="54.410900" lon="22.320600"><ele>113.1</ele><time>2026-07-14T19:35:24Z</time></trkpt>
			<trkpt lat="54.411810" lon="22.318800"><ele>109.0</ele><time>2026-07-14T19:35:29Z</time></trkpt>
			<trkpt lat="54.412080" lon="22.318120"><ele>107.4</ele><time>2026-07-14T19:35:35Z</time></trkpt>
			<trkpt lat="54.412330" lon="22.317230"><ele>105.6</ele><time>2026-07-14T19:35:40Z</time></trkpt>
			<trkpt lat="54.413290" lon="22.313670"><ele>101.9</ele><time>2026-07-14T19:35:45Z</time></trkpt>
			<trkpt lat="54.413790" lon="22.311770"><ele>101.3</ele><time>2026-07-14T19:35:50Z</time></trkpt>
			<trkpt lat="54.413850" lon="22.311590"><ele>101.3</ele><time>2026-07-14T19:35:56Z</time></trkpt>
			<trkpt lat="54.413960" lon="22.311150"><ele>102.0</ele><time>2026-07-14T19:36:01Z</time></trkpt>
			<trkpt lat="54.414320" lon="22.309780"><ele>104.5</ele><time>2026-07-14T19:36:06Z</time></trkpt>
			<trkpt lat="54.414530" lon="22.309240"><ele>105.8</ele><time>2026-07-14T19:36:12Z</time></trkpt>
			<trkpt lat="54.414580" lon="22.309130"><ele>105.8</ele><time>2026-07-14T19:36:17Z</time></trkpt>
			<trkpt lat="54.414740" lon="22.308950"><ele>106.0</ele><time>2026-07-14T19:36:22Z</time></trkpt>
			<trkpt lat="54.414880" lon="22.308910"><ele>106.0</ele><time>2026-07-14T19:36:27Z</time></trkpt>
			<trkpt lat="54.415000" lon="22.308900"><ele>106.0</ele><time>2026-07-14T19:36:33Z</time></trkpt>
			<trkpt lat="54.415190" lon="22.308930"><ele>105.9</ele><time>2026-07-14T19:36:38Z</time></trkpt>
			<trkpt lat="54.415540" lon="22.309040"><ele>105.9</ele><time>2026-07-14T19:36:43Z</time></trkpt>
			<trkpt lat="54.415950" lon="22.309190"><ele>105.1</ele><time>2026-07-14T19:36:49Z</time></trkpt>
			<trkpt lat="54.416030" lon="22.309200"><ele>104.5</ele><time>2026-07-14T19:36:54Z</time></trkpt>
			<trkpt lat="54.416150" lon="22.309220"><ele>103.6</ele><time>2026-07-14T19:36:59Z</time></trkpt>
			<trkpt lat="54.416230" lon="22.309220"><ele>103.0</ele><time>2026-07-14T19:37:04Z</time></trkpt>
			<trkpt lat="54.418000" lon="22.309010"><ele>96.4</ele><time>2026-07-14T19:37:10Z</time></trkpt>
			<trkpt lat="54.418530" lon="22.308960"><ele>97.3</ele><time>2026-07-14T19:37:15Z</time></trkpt>
			<trkpt lat="54.419800" lon="22.308800"><ele>101.7</ele><time>2026-07-14T19:37:20Z</time></trkpt>
			<trkpt lat="54.420220" lon="22.308700"><ele>102.0</ele><time>2026-07-14T19:37:26Z</time></trkpt>
			<trkpt lat="54.420650" lon="22.308430"><ele>101.9</ele><time>2026-07-14T19:37:31Z</time></trkpt>
			<trkpt lat="54.421480" lon="22.307690"><ele>102.6</ele><time>2026-07-14T19:37:36Z</time></trkpt>
			<trkpt lat="54.423360" lon="22.306140"><ele>113.6</ele><time>2026-07-14T19:37:41Z</time></trkpt>
			<trkpt lat="54.426190" lon="22.303830"><ele>120.4</ele><time>2026-07-14T19:37:47Z</time></trkpt>
			<trkpt lat="54.427660" lon="22.302640"><ele>114.3</ele><time>2026-07-14T19:37:52Z</time></trkpt>
			<trkpt lat="54.440330" lon="22.292370"><ele>100.5</ele><time>2026-07-14T19:37:57Z</time></trkpt>
			<trkpt lat="54.440720" lon="22.292190"><ele>99.8</ele><time>2026-07-14T19:38:02Z</time></trkpt>
			<trkpt lat="54.441410" lon="22.291990"><ele>99.3</ele><time>2026-07-14T19:38:08Z</time></trkpt>
			<trkpt lat="54.442640" lon="22.291700"><ele>100.5</ele><time>2026-07-14T19:38:13Z</time></trkpt>
			<trkpt lat="54.443070" lon="22.291750"><ele>99.6</ele><time>2026-07-14T19:38:18Z</time></trkpt>
			<trkpt lat="54.445230" lon="22.292050"><ele>94.8</ele><time>2026-07-14T19:38:24Z</time></trkpt>
			<trkpt lat="54.445540" lon="22.292200"><ele>93.9</ele><time>2026-07-14T19:38:29Z</time></trkpt>
			<trkpt lat="54.445940" lon="22.292500"><ele>93.1</ele><time>2026-07-14T19:38:34Z</time></trkpt>
			<trkpt lat="54.448820" lon="22.295010"><ele>95.1</ele><time>2026-07-14T19:38:39Z</time></trkpt>
			<trkpt lat="54.448940" lon="22.295110"><ele>95.1</ele><time>2026-07-14T19:38:45Z</time></trkpt>
			<trkpt lat="54.449290" lon="22.295430"><ele>95.1</ele><time>2026-07-14T19:38:50Z</time></trkpt>
			<trkpt lat="54.453880" lon="22.298030"><ele>87.4</ele><time>2026-07-14T19:38:55Z</time></trkpt>
			<trkpt lat="54.454300" lon="22.298190"><ele>88.0</ele><time>2026-07-14T19:39:01Z</time></trkpt>
			<trkpt lat="54.454820" lon="22.298250"><ele>89.3</ele><time>2026-07-14T19:39:06Z</time></trkpt>
			<trkpt lat="54.458680" lon="22.298380"><ele>88.1</ele><time>2026-07-14T19:39:11Z</time></trkpt>
			<trkpt lat="54.460910" lon="22.298480"><ele>92.4</ele><time>2026-07-14T19:39:16Z</time></trkpt>
			<trkpt lat="54.461530" lon="22.298490"><ele>94.5</ele><time>2026-07-14T19:39:22Z</time></trkpt>
			<trkpt lat="54.461830" lon="22.298590"><ele>94.8</ele><time>2026-07-14T19:39:27Z</time></trkpt>
			<trkpt lat="54.462310" lon="22.298660"><ele>94.4</ele><time>2026-07-14T19:39:32Z</time></trkpt>
			<trkpt lat="54.462590" lon="22.298620"><ele>94.2</ele><time>2026-07-14T19:39:38Z</time></trkpt>
			<trkpt lat="54.463750" lon="22.298400"><ele>94.3</ele><time>2026-07-14T19:39:43Z</time></trkpt>
			<trkpt lat="54.470820" lon="22.297090"><ele>97.5</ele><time>2026-07-14T19:39:48Z</time></trkpt>
			<trkpt lat="54.480890" lon="22.295160"><ele>87.1</ele><time>2026-07-14T19:39:53Z</time></trkpt>
			<trkpt lat="54.482000" lon="22.295040"><ele>84.2</ele><time>2026-07-14T19:39:59Z</time></trkpt>
			<trkpt lat="54.484640" lon="22.295030"><ele>74.8</ele><time>2026-07-14T19:40:04Z</time></trkpt>
			<trkpt lat="54.487110" lon="22.294980"><ele>67.5</ele><time>2026-07-14T19:40:09Z</time></trkpt>
			<trkpt lat="54.490950" lon="22.294920"><ele>65.4</ele><time>2026-07-14T19:40:14Z</time></trkpt>
			<trkpt lat="54.491350" lon="22.294930"><ele>65.8</ele><time>2026-07-14T19:40:20Z</time></trkpt>
			<trkpt lat="54.491580" lon="22.294970"><ele>65.9</ele><time>2026-07-14T19:40:25Z</time></trkpt>
			<trkpt lat="54.492060" lon="22.295210"><ele>65.5</ele><time>2026-07-14T19:40:30Z</time></trkpt>
			<trkpt lat="54.492360" lon="22.295300"><ele>65.3</ele><time>2026-07-14T19:40:36Z</time></trkpt>
			<trkpt lat="54.493320" lon="22.295440"><ele>64.4</ele><time>2026-07-14T19:40:41Z</time></trkpt>
			<trkpt lat="54.493690" lon="22.295600"><ele>63.7</ele><time>2026-07-14T19:40:46Z</time></trkpt>
			<trkpt lat="54.493960" lon="22.295630"><ele>63.3</ele><time>2026-07-14T19:40:51Z</time></trkpt>
			<trkpt lat="54.494130" lon="22.295610"><ele>63.2</ele><time>2026-07-14T19:40:57Z</time></trkpt>
			<trkpt lat="54.494250" lon="22.295550"><ele>63.7</ele><time>2026-07-14T19:41:02Z</time></trkpt>
			<trkpt lat="54.494420" lon="22.295420"><ele>64.4</ele><time>2026-07-14T19:41:07Z</time></trkpt>
			<trkpt lat="54.494700" lon="22.295150"><ele>65.2</ele><time>2026-07-14T19:41:13Z</time></trkpt>
			<trkpt lat="54.495370" lon="22.294520"><ele>66.2</ele><time>2026-07-14T19:41:18Z</time></trkpt>
			<trkpt lat="54.495460" lon="22.294460"><ele>66.3</ele><time>2026-07-14T19:41:23Z</time></trkpt>
			<trkpt lat="54.495550" lon="22.294440"><ele>66.5</ele><time>2026-07-14T19:41:28Z</time></trkpt>
			<trkpt lat="54.495730" lon="22.294430"><ele>66.8</ele><time>2026-07-14T19:41:34Z</time></trkpt>
			<trkpt lat="54.495910" lon="22.294450"><ele>67.3</ele><time>2026-07-14T19:41:39Z</time></trkpt>
			<trkpt lat="54.496300" lon="22.294460"><ele>68.2</ele><time>2026-07-14T19:41:44Z</time></trkpt>
			<trkpt lat="54.496580" lon="22.294340"><ele>68.4</ele><time>2026-07-14T19:41:50Z</time></trkpt>
			<trkpt lat="54.496750" lon="22.294270"><ele>68.2</ele><time>2026-07-14T19:41:55Z</time></trkpt>
			<trkpt lat="54.497630" lon="22.293930"><ele>66.0</ele><time>2026-07-14T19:42:00Z</time></trkpt>
			<trkpt lat="54.497830" lon="22.293930"><ele>65.6</ele><time>2026-07-14T19:42:05Z</time></trkpt>
			<trkpt lat="54.498020" lon="22.293990"><ele>65.4</ele><time>2026-07-14T19:42:11Z</time></trkpt>
			<trkpt lat="54.498910" lon="22.294600"><ele>64.7</ele><time>2026-07-14T19:42:16Z</time></trkpt>
			<trkpt lat="54.499340" lon="22.294860"><ele>64.3</ele><time>2026-07-14T19:42:21Z</time></trkpt>
			<trkpt lat="54.499980" lon="22.295290"><ele>63.9</ele><time>2026-07-14T19:42:26Z</time></trkpt>
			<trkpt lat="54.500170" lon="22.295380"><ele>64.3</ele><time>2026-07-14T19:42:32Z</time></trkpt>
			<trkpt lat="54.500350" lon="22.295400"><ele>64.7</ele><time>2026-07-14T19:42:37Z</time></trkpt>
			<trkpt lat="54.500540" lon="22.295390"><ele>65.2</ele><time>2026-07-14T19:42:42Z</time></trkpt>
			<trkpt lat="54.500720" lon="22.295360"><ele>65.3</ele><time>2026-07-14T19:42:48Z</time></trkpt>
			<trkpt lat="54.500950" lon="22.295230"><ele>65.4</ele><time>2026-07-14T19:42:53Z</time></trkpt>
			<trkpt lat="54.501520" lon="22.294720"><ele>64.9</ele><time>2026-07-14T19:42:58Z</time></trkpt>
			<trkpt lat="54.501710" lon="22.294500"><ele>65.0</ele><time>2026-07-14T19:43:03Z</time></trkpt>
			<trkpt lat="54.501870" lon="22.294170"><ele>64.9</ele><time>2026-07-14T19:43:09Z</time></trkpt>
			<trkpt lat="54.501940" lon="22.293900"><ele>64.7</ele><time>2026-07-14T19:43:14Z</time></trkpt>
			<trkpt lat="54.501930" lon="22.292950"><ele>63.2</ele><time>2026-07-14T19:43:19Z</time></trkpt>
			<trkpt lat="54.501980" lon="22.292470"><ele>62.5</ele><time>2026-07-14T19:43:25Z</time></trkpt>
			<trkpt lat="54.502110" lon="22.292060"><ele>62.4</ele><time>2026-07-14T19:43:30Z</time></trkpt>
			<trkpt lat="54.502300" lon="22.291650"><ele>62.4</ele><time>2026-07-14T19:43:35Z</time></trkpt>
			<trkpt lat="54.502540" lon="22.291220"><ele>62.9</ele><time>2026-07-14T19:43:40Z</time></trkpt>
			<trkpt lat="54.502690" lon="22.290840"><ele>63.8</ele><time>2026-07-14T19:43:46Z</time></trkpt>
			<trkpt lat="54.502760" lon="22.290360"><ele>64.6</ele><time>2026-07-14T19:43:51Z</time></trkpt>
			<trkpt lat="54.502780" lon="22.289710"><ele>64.7</ele><time>2026-07-14T19:43:56Z</time></trkpt>
			<trkpt lat="54.502970" lon="22.288940"><ele>64.2</ele><time>2026-07-14T19:44:02Z</time></trkpt>
			<trkpt lat="54.503240" lon="22.287930"><ele>63.4</ele><time>2026-07-14T19:44:07Z</time></trkpt>
			<trkpt lat="54.503410" lon="22.287390"><ele>63.5</ele><time>2026-07-14T19:44:12Z</time></trkpt>
			<trkpt lat="54.504020" lon="22.285770"><ele>65.2</ele><time>2026-07-14T19:44:17Z</time></trkpt>
			<trkpt lat="54.504080" lon="22.285610"><ele>65.3</ele><time>2026-07-14T19:44:23Z</time></trkpt>
			<trkpt lat="54.505000" lon="22.283070"><ele>66.2</ele><time>2026-07-14T19:44:28Z</time></trkpt>
			<trkpt lat="54.505730" lon="22.281030"><ele>64.0</ele><time>2026-07-14T19:44:33Z</time></trkpt>
			<trkpt lat="54.506510" lon="22.278820"><ele>61.6</ele><time>2026-07-14T19:44:38Z</time></trkpt>
			<trkpt lat="54.508050" lon="22.274630"><ele>61.8</ele><time>2026-07-14T19:44:44Z</time></trkpt>
			<trkpt lat="54.509010" lon="22.271860"><ele>61.6</ele><time>2026-07-14T19:44:49Z</time></trkpt>
			<trkpt lat="54.509330" lon="22.271400"><ele>61.2</ele><time>2026-07-14T19:44:54Z</time></trkpt>
			<trkpt lat="54.509590" lon="22.271170"><ele>61.8</ele><time>2026-07-14T19:45:00Z</time></trkpt>
			<trkpt lat="54.510680" lon="22.270180"><ele>61.3</ele><time>2026-07-14T19:45:05Z</time></trkpt>
			<trkpt lat="54.511000" lon="22.269810"><ele>60.9</ele><time>2026-07-14T19:45:10Z</time></trkpt>
			<trkpt lat="54.511140" lon="22.269600"><ele>60.6</ele><time>2026-07-14T19:45:15Z</time></trkpt>
			<trkpt lat="54.511280" lon="22.269350"><ele>60.2</ele><time>2026-07-14T19:45:21Z</time></trkpt>
			<trkpt lat="54.511450" lon="22.268880"><ele>59.4</ele><time>2026-07-14T19:45:26Z</time></trkpt>
			<trkpt lat="54.511810" lon="22.268070"><ele>59.4</ele><time>2026-07-14T19:45:31Z</time></trkpt>
			<trkpt lat="54.512500" lon="22.266970"><ele>62.0</ele><time>2026-07-14T19:45:37Z</time></trkpt>
			<trkpt lat="54.512730" lon="22.266670"><ele>63.6</ele><time>2026-07-14T19:45:42Z</time></trkpt>
			<trkpt lat="54.512990" lon="22.266400"><ele>65.8</ele><time>2026-07-14T19:45:47Z</time></trkpt>
			<trkpt lat="54.513930" lon="22.265470"><ele>69.3</ele><time>2026-07-14T19:45:52Z</time></trkpt>
			<trkpt lat="54.515800" lon="22.263790"><ele>72.9</ele><time>2026-07-14T19:45:58Z</time></trkpt>
			<trkpt lat="54.516740" lon="22.262990"><ele>73.4</ele><time>2026-07-14T19:46:03Z</time></trkpt>
			<trkpt lat="54.517280" lon="22.262490"><ele>73.7</ele><time>2026-07-14T19:46:08Z</time></trkpt>
			<trkpt lat="54.517700" lon="22.262180"><ele>74.7</ele><time>2026-07-14T19:46:14Z</time></trkpt>
			<trkpt lat="54.518080" lon="22.261800"><ele>76.1</ele><time>2026-07-14T19:46:19Z</time></trkpt>
			<trkpt lat="54.519090" lon="22.260790"><ele>78.2</ele><time>2026-07-14T19:46:24Z</time></trkpt>
			<trkpt lat="54.525160" lon="22.253960"><ele>74.0</ele><time>2026-07-14T19:46:29Z</time></trkpt>
			<trkpt lat="54.525380" lon="22.253740"><ele>74.0</ele><time>2026-07-14T19:46:35Z</time></trkpt>
			<trkpt lat="54.525540" lon="22.253600"><ele>74.3</ele><time>2026-07-14T19:46:40Z</time></trkpt>
			<trkpt lat="54.525680" lon="22.253510"><ele>74.4</ele><time>2026-07-14T19:46:45Z</time></trkpt>
			<trkpt lat="54.525840" lon="22.253440"><ele>74.3</ele><time>2026-07-14T19:46:50Z</time></trkpt>
			<trkpt lat="54.526630" lon="22.253240"><ele>71.9</ele><time>2026-07-14T19:46:56Z</time></trkpt>
			<trkpt lat="54.527500" lon="22.253030"><ele>69.8</ele><time>2026-07-14T19:47:01Z</time></trkpt>
			<trkpt lat="54.527950" lon="22.252930"><ele>68.1</ele><time>2026-07-14T19:47:06Z</time></trkpt>
			<trkpt lat="54.528110" lon="22.252880"><ele>67.5</ele><time>2026-07-14T19:47:12Z</time></trkpt>
			<trkpt lat="54.528340" lon="22.252780"><ele>66.9</ele><time>2026-07-14T19:47:17Z</time></trkpt>
			<trkpt lat="54.528460" lon="22.252660"><ele>66.5</ele><time>2026-07-14T19:47:22Z</time></trkpt>
			<trkpt lat="54.528660" lon="22.252430"><ele>66.3</ele><time>2026-07-14T19:47:27Z</time></trkpt>
			<trkpt lat="54.529510" lon="22.251340"><ele>67.9</ele><time>2026-07-14T19:47:33Z</time></trkpt>
			<trkpt lat="54.529710" lon="22.251160"><ele>68.6</ele><time>2026-07-14T19:47:38Z</time></trkpt>
			<trkpt lat="54.529950" lon="22.251010"><ele>69.3</ele><time>2026-07-14T19:47:43Z</time></trkpt>
			<trkpt lat="54.532140" lon="22.250330"><ele>64.2</ele><time>2026-07-14T19:47:49Z</time></trkpt>
			<trkpt lat="54.533780" lon="22.249900"><ele>65.9</ele><time>2026-07-14T19:47:54Z</time></trkpt>
			<trkpt lat="54.539330" lon="22.248310"><ele>58.7</ele><time>2026-07-14T19:47:59Z</time></trkpt>
			<trkpt lat="54.541810" lon="22.247660"><ele>56.9</ele><time>2026-07-14T19:48:04Z</time></trkpt>
			<trkpt lat="54.543550" lon="22.247180"><ele>55.5</ele><time>2026-07-14T19:48:10Z</time></trkpt>
			<trkpt lat="54.543790" lon="22.247100"><ele>56.1</ele><time>2026-07-14T19:48:15Z</time></trkpt>
			<trkpt lat="54.543990" lon="22.247010"><ele>56.6</ele><time>2026-07-14T19:48:20Z</time></trkpt>
			<trkpt lat="54.544170" lon="22.246890"><ele>57.0</ele><time>2026-07-14T19:48:26Z</time></trkpt>
			<trkpt lat="54.546090" lon="22.245250"><ele>56.0</ele><time>2026-07-14T19:48:31Z</time></trkpt>
			<trkpt lat="54.547980" lon="22.243740"><ele>54.6</ele><time>2026-07-14T19:48:36Z</time></trkpt>
			<trkpt lat="54.549870" lon="22.242040"><ele>53.9</ele><time>2026-07-14T19:48:41Z</time></trkpt>
			<trkpt lat="54.550040" lon="22.241890"><ele>54.4</ele><time>2026-07-14T19:48:47Z</time></trkpt>
			<trkpt lat="54.552310" lon="22.240020"><ele>53.0</ele><time>2026-07-14T19:48:52Z</time></trkpt>
			<trkpt lat="54.560560" lon="22.233330"><ele>49.6</ele><time>2026-07-14T19:48:57Z</time></trkpt>
			<trkpt lat="54.562200" lon="22.231900"><ele>49.5</ele><time>2026-07-14T19:49:02Z</time></trkpt>
			<trkpt lat="54.564370" lon="22.230130"><ele>46.2</ele><time>2026-07-14T19:49:08Z</time></trkpt>
			<trkpt lat="54.564590" lon="22.229950"><ele>46.6</ele><time>2026-07-14T19:49:13Z</time></trkpt>
			<trkpt lat="54.564750" lon="22.229850"><ele>47.0</ele><time>2026-07-14T19:49:18Z</time></trkpt>
			<trkpt lat="54.565680" lon="22.229550"><ele>47.7</ele><time>2026-07-14T19:49:24Z</time></trkpt>
			<trkpt lat="54.566110" lon="22.229460"><ele>48.0</ele><time>2026-07-14T19:49:29Z</time></trkpt>
			<trkpt lat="54.566330" lon="22.229340"><ele>48.1</ele><time>2026-07-14T19:49:34Z</time></trkpt>
			<trkpt lat="54.566570" lon="22.229220"><ele>48.0</ele><time>2026-07-14T19:49:39Z</time></trkpt>
			<trkpt lat="54.566760" lon="22.229060"><ele>47.6</ele><time>2026-07-14T19:49:45Z</time></trkpt>
			<trkpt lat="54.567200" lon="22.228600"><ele>45.8</ele><time>2026-07-14T19:49:50Z</time></trkpt>
			<trkpt lat="54.570280" lon="22.225400"><ele>45.5</ele><time>2026-07-14T19:49:55Z</time></trkpt>
			<trkpt lat="54.571870" lon="22.223770"><ele>44.4</ele><time>2026-07-14T19:50:01Z</time></trkpt>
			<trkpt lat="54.573300" lon="22.222260"><ele>45.0</ele><time>2026-07-14T19:50:06Z</time></trkpt>
			<trkpt lat="54.573620" lon="22.221870"><ele>44.6</ele><time>2026-07-14T19:50:11Z</time></trkpt>
			<trkpt lat="54.573880" lon="22.221550"><ele>44.6</ele><time>2026-07-14T19:50:16Z</time></trkpt>
			<trkpt lat="54.574630" lon="22.220350"><ele>44.9</ele><time>2026-07-14T19:50:22Z</time></trkpt>
			<trkpt lat="54.575850" lon="22.218220"><ele>44.7</ele><time>2026-07-14T19:50:27Z</time></trkpt>
			<trkpt lat="54.576410" lon="22.217240"><ele>42.8</ele><time>2026-07-14T19:50:32Z</time></trkpt>
			<trkpt lat="54.577070" lon="22.216160"><ele>44.6</ele><time>2026-07-14T19:50:38Z</time></trkpt>
			<trkpt lat="54.577240" lon="22.215850"><ele>45.1</ele><time>2026-07-14T19:50:43Z</time></trkpt>
			<trkpt lat="54.577560" lon="22.215350"><ele>45.9</ele><time>2026-07-14T19:50:48Z</time></trkpt>
			<trkpt lat="54.578130" lon="22.214540"><ele>46.5</ele><time>2026-07-14T19:50:53Z</time></trkpt>
			<trkpt lat="54.578690" lon="22.213780"><ele>46.6</ele><time>2026-07-14T19:50:59Z</time></trkpt>
			<trkpt lat="54.582040" lon="22.209280"><ele>47.5</ele><time>2026-07-14T19:51:04Z</time></trkpt>
			<trkpt lat="54.582410" lon="22.208790"><ele>47.1</ele><time>2026-07-14T19:51:09Z</time></trkpt>
			<trkpt lat="54.582420" lon="22.208780"><ele>47.1</ele><time>2026-07-14T19:51:15Z</time></trkpt>
			<trkpt lat="54.582480" lon="22.208700"><ele>47.0</ele><time>2026-07-14T19:51:20Z</time></trkpt>
			<trkpt lat="54.583060" lon="22.207900"><ele>47.0</ele><time>2026-07-14T19:51:25Z</time></trkpt>
			<trkpt lat="54.583770" lon="22.206950"><ele>45.1</ele><time>2026-07-14T19:51:30Z</time></trkpt>
			<trkpt lat="54.583910" lon="22.206770"><ele>44.8</ele><time>2026-07-14T19:51:36Z</time></trkpt>
			<trkpt lat="54.584210" lon="22.206360"><ele>44.6</ele><time>2026-07-14T19:51:41Z</time></trkpt>
			<trkpt lat="54.584260" lon="22.206290"><ele>44.7</ele><time>2026-07-14T19:51:46Z</time></trkpt>
			<trkpt lat="54.584750" lon="22.205530"><ele>44.6</ele><time>2026-07-14T19:51:51Z</time></trkpt>
			<trkpt lat="54.585180" lon="22.204930"><ele>44.6</ele><time>2026-07-14T19:51:57Z</time></trkpt>
			<trkpt lat="54.585250" lon="22.204810"><ele>44.8</ele><time>2026-07-14T19:52:02Z</time></trkpt>
			<trkpt lat="54.585330" lon="22.204610"><ele>44.9</ele><time>2026-07-14T19:52:07Z</time></trkpt>
			<trkpt lat="54.585710" lon="22.203540"><ele>45.8</ele><time>2026-07-14T19:52:13Z</time></trkpt>
			<trkpt lat="54.585740" lon="22.203450"><ele>45.9</ele><time>2026-07-14T19:52:18Z</time></trkpt>
			<trkpt lat="54.586310" lon="22.201740"><ele>45.9</ele><time>2026-07-14T19:52:23Z</time></trkpt>
			<trkpt lat="54.586340" lon="22.201660"><ele>45.8</ele><time>2026-07-14T19:52:28Z</time></trkpt>
			<trkpt lat="54.586770" lon="22.200160"><ele>45.8</ele><time>2026-07-14T19:52:34Z</time></trkpt>
			<trkpt lat="54.587010" lon="22.199430"><ele>46.1</ele><time>2026-07-14T19:52:39Z</time></trkpt>
			<trkpt lat="54.587130" lon="22.199010"><ele>46.5</ele><time>2026-07-14T19:52:44Z</time></trkpt>
			<trkpt lat="54.587240" lon="22.198670"><ele>46.8</ele><time>2026-07-14T19:52:50Z</time></trkpt>
			<trkpt lat="54.587480" lon="22.197950"><ele>47.4</ele><time>2026-07-14T19:52:55Z</time></trkpt>
			<trkpt lat="54.587710" lon="22.197250"><ele>47.9</ele><time>2026-07-14T19:53:00Z</time></trkpt>
			<trkpt lat="54.587720" lon="22.197260"><ele>47.9</ele><time>2026-07-14T19:53:05Z</time></trkpt>
			<trkpt lat="54.588300" lon="22.197810"><ele>47.0</ele><time>2026-07-14T19:53:11Z</time></trkpt>
			<trkpt lat="54.588860" lon="22.198340"><ele>45.4</ele><time>2026-07-14T19:53:16Z</time></trkpt>
			<trkpt lat="54.589727" lon="22.195583"><ele>43.0</ele><time>2026-07-14T19:57:29Z</time></trkpt>
			<trkpt lat="54.590699" lon="22.196511"><ele>43.0</ele><time>2026-07-14T20:00:03Z</time></trkpt>
			<trkpt lat="54.590820" lon="22.196206"><ele>43.0</ele><time>2026-07-14T20:00:33Z</time></trkpt>
			<trkpt lat="54.590744" lon="22.196533"><ele>43.0</ele><time>2026-07-14T20:01:01Z</time></trkpt>
			<trkpt lat="54.591065" lon="22.196962"><ele>43.1</ele><time>2026-07-14T20:01:57Z</time></trkpt>
			<trkpt lat="54.590278" lon="22.199631"><ele>45.0</ele><time>2026-07-14T20:05:58Z</time></trkpt>
			<trkpt lat="54.590278" lon="22.199631"><ele>45.0</ele><time>2026-07-14T20:06:01Z</time></trkpt>
			<trkpt lat="54.590310" lon="22.199660"><ele>45.0</ele><time>2026-07-14T20:06:05Z</time></trkpt>
			<trkpt lat="54.590380" lon="22.199730"><ele>44.8</ele><time>2026-07-14T20:06:08Z</time></trkpt>
			<trkpt lat="54.590570" lon="22.199950"><ele>44.0</ele><time>2026-07-14T20:06:12Z</time></trkpt>
			<trkpt lat="54.590940" lon="22.200300"><ele>42.9</ele><time>2026-07-14T20:06:15Z</time></trkpt>
			<trkpt lat="54.590990" lon="22.200340"><ele>43.1</ele><time>2026-07-14T20:06:19Z</time></trkpt>
			<trkpt lat="54.591200" lon="22.200510"><ele>43.6</ele><time>2026-07-14T20:06:22Z</time></trkpt>
			<trkpt lat="54.591490" lon="22.200790"><ele>44.5</ele><time>2026-07-14T20:06:25Z</time></trkpt>
			<trkpt lat="54.591600" lon="22.200980"><ele>45.0</ele><time>2026-07-14T20:06:29Z</time></trkpt>
			<trkpt lat="54.591660" lon="22.201100"><ele>45.4</ele><time>2026-07-14T20:06:32Z</time></trkpt>
			<trkpt lat="54.591700" lon="22.201250"><ele>45.9</ele><time>2026-07-14T20:06:36Z</time></trkpt>
			<trkpt lat="54.591720" lon="22.201470"><ele>46.4</ele><time>2026-07-14T20:06:39Z</time></trkpt>
			<trkpt lat="54.591600" lon="22.202010"><ele>46.8</ele><time>2026-07-14T20:06:43Z</time></trkpt>
			<trkpt lat="54.591400" lon="22.202690"><ele>46.4</ele><time>2026-07-14T20:06:46Z</time></trkpt>
			<trkpt lat="54.591310" lon="22.202960"><ele>46.1</ele><time>2026-07-14T20:06:50Z</time></trkpt>
			<trkpt lat="54.591230" lon="22.203220"><ele>45.9</ele><time>2026-07-14T20:06:53Z</time></trkpt>
			<trkpt lat="54.591200" lon="22.203360"><ele>45.7</ele><time>2026-07-14T20:06:56Z</time></trkpt>
			<trkpt lat="54.591190" lon="22.203520"><ele>45.5</ele><time>2026-07-14T20:07:00Z</time></trkpt>
			<trkpt lat="54.591190" lon="22.203690"><ele>45.3</ele><time>2026-07-14T20:07:03Z</time></trkpt>
			<trkpt lat="54.591330" lon="22.205320"><ele>44.8</ele><time>2026-07-14T20:07:07Z</time></trkpt>
			<trkpt lat="54.591510" lon="22.207440"><ele>48.3</ele><time>2026-07-14T20:07:10Z</time></trkpt>
			<trkpt lat="54.591510" lon="22.207490"><ele>48.2</ele><time>2026-07-14T20:07:14Z</time></trkpt>
			<trkpt lat="54.591610" lon="22.208490"><ele>46.8</ele><time>2026-07-14T20:07:17Z</time></trkpt>
			<trkpt lat="54.591690" lon="22.209430"><ele>45.7</ele><time>2026-07-14T20:07:21Z</time></trkpt>
			<trkpt lat="54.591720" lon="22.209770"><ele>45.4</ele><time>2026-07-14T20:07:24Z</time></trkpt>
			<trkpt lat="54.591780" lon="22.210130"><ele>45.2</ele><time>2026-07-14T20:07:27Z</time></trkpt>
			<trkpt lat="54.591820" lon="22.210400"><ele>45.0</ele><time>2026-07-14T20:07:31Z</time></trkpt>
			<trkpt lat="54.591870" lon="22.210640"><ele>45.0</ele><time>2026-07-14T20:07:34Z</time></trkpt>
			<trkpt lat="54.591950" lon="22.210900"><ele>45.1</ele><time>2026-07-14T20:07:38Z</time></trkpt>
			<trkpt lat="54.592190" lon="22.211870"><ele>46.0</ele><time>2026-07-14T20:07:41Z</time></trkpt>
			<trkpt lat="54.592620" lon="22.213520"><ele>48.5</ele><time>2026-07-14T20:07:45Z</time></trkpt>
			<trkpt lat="54.592630" lon="22.213610"><ele>48.6</ele><time>2026-07-14T20:07:48Z</time></trkpt>
			<trkpt lat="54.592810" lon="22.214540"><ele>50.9</ele><time>2026-07-14T20:07:52Z</time></trkpt>
			<trkpt lat="54.592870" lon="22.214790"><ele>51.5</ele><time>2026-07-14T20:07:55Z</time></trkpt>
			<trkpt lat="54.592790" lon="22.215010"><ele>52.1</ele><time>2026-07-14T20:07:58Z</time></trkpt>
			<trkpt lat="54.592520" lon="22.215620"><ele>51.7</ele><time>2026-07-14T20:08:02Z</time></trkpt>
			<trkpt lat="54.592440" lon="22.215820"><ele>51.5</ele><time>2026-07-14T20:08:05Z</time></trkpt>
			<trkpt lat="54.592400" lon="22.215980"><ele>51.3</ele><time>2026-07-14T20:08:09Z</time></trkpt>
			<trkpt lat="54.592370" lon="22.216110"><ele>51.2</ele><time>2026-07-14T20:08:12Z</time></trkpt>
			<trkpt lat="54.592340" lon="22.216550"><ele>51.1</ele><time>2026-07-14T20:08:16Z</time></trkpt>
			<trkpt lat="54.592280" lon="22.218010"><ele>50.1</ele><time>2026-07-14T20:08:19Z</time></trkpt>
			<trkpt lat="54.592220" lon="22.219240"><ele>49.7</ele><time>2026-07-14T20:08:23Z</time></trkpt>
			<trkpt lat="54.592190" lon="22.219890"><ele>50.1</ele><time>2026-07-14T20:08:26Z</time></trkpt>
			<trkpt lat="54.592190" lon="22.220050"><ele>50.1</ele><time>2026-07-14T20:08:29Z</time></trkpt>
			<trkpt lat="54.592170" lon="22.220300"><ele>50.2</ele><time>2026-07-14T20:08:33Z</time></trkpt>
			<trkpt lat="54.592140" lon="22.220790"><ele>50.2</ele><time>2026-07-14T20:08:36Z</time></trkpt>
			<trkpt lat="54.592090" lon="22.221110"><ele>50.4</ele><time>2026-07-14T20:08:40Z</time></trkpt>
			<trkpt lat="54.592020" lon="22.221480"><ele>50.8</ele><time>2026-07-14T20:08:43Z</time></trkpt>
			<trkpt lat="54.591990" lon="22.221650"><ele>50.9</ele><time>2026-07-14T20:08:47Z</time></trkpt>
			<trkpt lat="54.591890" lon="22.222110"><ele>51.0</ele><time>2026-07-14T20:08:50Z</time></trkpt>
			<trkpt lat="54.591680" lon="22.223000"><ele>50.9</ele><time>2026-07-14T20:08:54Z</time></trkpt>
			<trkpt lat="54.591350" lon="22.224610"><ele>47.9</ele><time>2026-07-14T20:08:57Z</time></trkpt>
			<trkpt lat="54.591220" lon="22.225220"><ele>47.5</ele><time>2026-07-14T20:09:00Z</time></trkpt>
			<trkpt lat="54.591150" lon="22.225590"><ele>47.4</ele><time>2026-07-14T20:09:04Z</time></trkpt>
			<trkpt lat="54.590870" lon="22.226990"><ele>46.7</ele><time>2026-07-14T20:09:07Z</time></trkpt>
			<trkpt lat="54.590530" lon="22.228600"><ele>45.5</ele><time>2026-07-14T20:09:11Z</time></trkpt>
			<trkpt lat="54.590240" lon="22.229970"><ele>45.7</ele><time>2026-07-14T20:09:14Z</time></trkpt>
			<trkpt lat="54.590180" lon="22.230340"><ele>45.6</ele><time>2026-07-14T20:09:18Z</time></trkpt>
			<trkpt lat="54.590110" lon="22.231010"><ele>45.4</ele><time>2026-07-14T20:09:21Z</time></trkpt>
			<trkpt lat="54.590090" lon="22.231480"><ele>45.3</ele><time>2026-07-14T20:09:25Z</time></trkpt>
			<trkpt lat="54.590080" lon="22.231700"><ele>45.1</ele><time>2026-07-14T20:09:28Z</time></trkpt>
			<trkpt lat="54.590060" lon="22.232080"><ele>44.7</ele><time>2026-07-14T20:09:31Z</time></trkpt>
			<trkpt lat="54.590030" lon="22.232520"><ele>44.2</ele><time>2026-07-14T20:09:35Z</time></trkpt>
			<trkpt lat="54.589960" lon="22.233140"><ele>44.0</ele><time>2026-07-14T20:09:38Z</time></trkpt>
			<trkpt lat="54.589920" lon="22.233440"><ele>44.0</ele><time>2026-07-14T20:09:42Z</time></trkpt>
			<trkpt lat="54.589880" lon="22.233700"><ele>43.8</ele><time>2026-07-14T20:09:45Z</time></trkpt>
			<trkpt lat="54.589850" lon="22.233870"><ele>43.7</ele><time>2026-07-14T20:09:49Z</time></trkpt>
			<trkpt lat="54.589790" lon="22.234080"><ele>43.5</ele><time>2026-07-14T20:09:52Z</time></trkpt>
			<trkpt lat="54.589720" lon="22.234310"><ele>43.2</ele><time>2026-07-14T20:09:56Z</time></trkpt>
			<trkpt lat="54.589630" lon="22.234510"><ele>42.9</ele><time>2026-07-14T20:09:59Z</time></trkpt>
			<trkpt lat="54.589440" lon="22.234850"><ele>42.4</ele><time>2026-07-14T20:10:02Z</time></trkpt>
			<trkpt lat="54.589340" lon="22.235140"><ele>42.4</ele><time>2026-07-14T20:10:06Z</time></trkpt>
			<trkpt lat="54.589320" lon="22.235230"><ele>42.4</ele><time>2026-07-14T20:10:09Z</time></trkpt>
			<trkpt lat="54.589170" lon="22.235980"><ele>42.9</ele><time>2026-07-14T20:10:13Z</time></trkpt>
			<trkpt lat="54.588990" lon="22.237070"><ele>43.3</ele><time>2026-07-14T20:10:16Z</time></trkpt>
			<trkpt lat="54.588890" lon="22.237660"><ele>43.8</ele><time>2026-07-14T20:10:20Z</time></trkpt>
			<trkpt lat="54.588880" lon="22.237980"><ele>44.3</ele><time>2026-07-14T20:10:23Z</time></trkpt>
			<trkpt lat="54.588910" lon="22.238270"><ele>44.7</ele><time>2026-07-14T20:10:27Z</time></trkpt>
			<trkpt lat="54.589240" lon="22.240200"><ele>45.2</ele><time>2026-07-14T20:10:30Z</time></trkpt>
			<trkpt lat="54.589310" lon="22.240820"><ele>45.5</ele><time>2026-07-14T20:10:33Z</time></trkpt>
			<trkpt lat="54.589310" lon="22.240820"><ele>45.5</ele><time>2026-07-14T20:10:38Z</time></trkpt>
			<trkpt lat="54.589460" lon="22.242490"><ele>44.7</ele><time>2026-07-14T20:10:43Z</time></trkpt>
			<trkpt lat="54.589590" lon="22.243660"><ele>43.6</ele><time>2026-07-14T20:10:48Z</time></trkpt>
			<trkpt lat="54.589780" lon="22.245380"><ele>41.7</ele><time>2026-07-14T20:10:53Z</time></trkpt>
			<trkpt lat="54.590180" lon="22.248480"><ele>42.9</ele><time>2026-07-14T20:10:58Z</time></trkpt>
			<trkpt lat="54.590210" lon="22.248910"><ele>43.4</ele><time>2026-07-14T20:11:02Z</time></trkpt>
			<trkpt lat="54.590270" lon="22.251080"><ele>47.0</ele><time>2026-07-14T20:11:07Z</time></trkpt>
			<trkpt lat="54.590330" lon="22.254730"><ele>48.0</ele><time>2026-07-14T20:11:12Z</time></trkpt>
			<trkpt lat="54.590350" lon="22.256190"><ele>48.0</ele><time>2026-07-14T20:11:17Z</time></trkpt>
			<trkpt lat="54.590420" lon="22.259730"><ele>48.0</ele><time>2026-07-14T20:11:22Z</time></trkpt>
			<trkpt lat="54.590490" lon="22.263530"><ele>49.3</ele><time>2026-07-14T20:11:27Z</time></trkpt>
			<trkpt lat="54.590500" lon="22.265030"><ele>48.0</ele><time>2026-07-14T20:11:31Z</time></trkpt>
			<trkpt lat="54.590530" lon="22.266430"><ele>48.2</ele><time>2026-07-14T20:11:36Z</time></trkpt>
			<trkpt lat="54.590550" lon="22.266760"><ele>47.9</ele><time>2026-07-14T20:11:41Z</time></trkpt>
			<trkpt lat="54.590620" lon="22.267230"><ele>47.0</ele><time>2026-07-14T20:11:46Z</time></trkpt>
			<trkpt lat="54.590750" lon="22.267870"><ele>45.9</ele><time>2026-07-14T20:11:51Z</time></trkpt>
			<trkpt lat="54.591160" lon="22.269770"><ele>45.9</ele><time>2026-07-14T20:11:56Z</time></trkpt>
			<trkpt lat="54.591240" lon="22.270190"><ele>46.0</ele><time>2026-07-14T20:12:00Z</time></trkpt>
			<trkpt lat="54.591430" lon="22.271560"><ele>46.4</ele><time>2026-07-14T20:12:05Z</time></trkpt>
			<trkpt lat="54.591450" lon="22.271820"><ele>46.4</ele><time>2026-07-14T20:12:10Z</time></trkpt>
			<trkpt lat="54.591460" lon="22.272000"><ele>46.3</ele><time>2026-07-14T20:12:15Z</time></trkpt>
			<trkpt lat="54.591430" lon="22.272150"><ele>46.2</ele><time>2026-07-14T20:12:20Z</time></trkpt>
			<trkpt lat="54.591260" lon="22.272760"><ele>45.4</ele><time>2026-07-14T20:12:25Z</time></trkpt>
			<trkpt lat="54.591190" lon="22.273240"><ele>44.8</ele><time>2026-07-14T20:12:29Z</time></trkpt>
			<trkpt lat="54.591150" lon="22.273760"><ele>43.9</ele><time>2026-07-14T20:12:34Z</time></trkpt>
			<trkpt lat="54.591170" lon="22.273960"><ele>43.6</ele><time>2026-07-14T20:12:39Z</time></trkpt>
			<trkpt lat="54.591220" lon="22.274230"><ele>43.5</ele><time>2026-07-14T20:12:44Z</time></trkpt>
			<trkpt lat="54.591530" lon="22.275270"><ele>44.1</ele><time>2026-07-14T20:12:49Z</time></trkpt>
			<trkpt lat="54.591800" lon="22.276080"><ele>44.4</ele><time>2026-07-14T20:12:54Z</time></trkpt>
			<trkpt lat="54.591840" lon="22.276270"><ele>44.5</ele><time>2026-07-14T20:12:58Z</time></trkpt>
			<trkpt lat="54.591870" lon="22.276530"><ele>44.6</ele><time>2026-07-14T20:13:03Z</time></trkpt>
			<trkpt lat="54.591900" lon="22.277060"><ele>44.5</ele><time>2026-07-14T20:13:08Z</time></trkpt>
			<trkpt lat="54.591960" lon="22.277950"><ele>44.6</ele><time>2026-07-14T20:13:13Z</time></trkpt>
			<trkpt lat="54.592000" lon="22.278200"><ele>44.8</ele><time>2026-07-14T20:13:18Z</time></trkpt>
			<trkpt lat="54.592050" lon="22.278420"><ele>44.9</ele><time>2026-07-14T20:13:23Z</time></trkpt>
			<trkpt lat="54.592130" lon="22.278670"><ele>45.1</ele><time>2026-07-14T20:13:27Z</time></trkpt>
			<trkpt lat="54.592590" lon="22.279690"><ele>46.2</ele><time>2026-07-14T20:13:32Z</time></trkpt>
			<trkpt lat="54.592650" lon="22.279870"><ele>46.4</ele><time>2026-07-14T20:13:37Z</time></trkpt>
			<trkpt lat="54.592730" lon="22.280140"><ele>46.6</ele><time>2026-07-14T20:13:42Z</time></trkpt>
			<trkpt lat="54.592850" lon="22.280860"><ele>46.1</ele><time>2026-07-14T20:13:47Z</time></trkpt>
			<trkpt lat="54.593330" lon="22.283910"><ele>45.3</ele><time>2026-07-14T20:13:52Z</time></trkpt>
			<trkpt lat="54.593440" lon="22.284730"><ele>45.2</ele><time>2026-07-14T20:13:56Z</time></trkpt>
			<trkpt lat="54.593480" lon="22.285220"><ele>45.3</ele><time>2026-07-14T20:14:01Z</time></trkpt>
			<trkpt lat="54.593490" lon="22.285640"><ele>45.2</ele><time>2026-07-14T20:14:06Z</time></trkpt>
			<trkpt lat="54.593460" lon="22.286170"><ele>44.7</ele><time>2026-07-14T20:14:11Z</time></trkpt>
			<trkpt lat="54.593410" lon="22.286600"><ele>44.2</ele><time>2026-07-14T20:14:16Z</time></trkpt>
			<trkpt lat="54.593300" lon="22.287130"><ele>44.2</ele><time>2026-07-14T20:14:21Z</time></trkpt>
			<trkpt lat="54.593200" lon="22.287560"><ele>44.3</ele><time>2026-07-14T20:14:25Z</time></trkpt>
			<trkpt lat="54.593080" lon="22.287950"><ele>44.4</ele><time>2026-07-14T20:14:30Z</time></trkpt>
			<trkpt lat="54.592940" lon="22.288330"><ele>44.5</ele><time>2026-07-14T20:14:35Z</time></trkpt>
			<trkpt lat="54.592720" lon="22.288770"><ele>44.4</ele><time>2026-07-14T20:14:40Z</time></trkpt>
			<trkpt lat="54.591840" lon="22.290260"><ele>43.8</ele><time>2026-07-14T20:14:45Z</time></trkpt>
			<trkpt lat="54.591670" lon="22.290600"><ele>44.0</ele><time>2026-07-14T20:14:50Z</time></trkpt>
			<trkpt lat="54.591580" lon="22.290990"><ele>43.9</ele><time>2026-07-14T20:14:54Z</time></trkpt>
			<trkpt lat="54.591560" lon="22.291480"><ele>43.9</ele><time>2026-07-14T20:14:59Z</time></trkpt>
			<trkpt lat="54.592050" lon="22.296930"><ele>47.1</ele><time>2026-07-14T20:15:04Z</time></trkpt>
			<trkpt lat="54.592130" lon="22.297920"><ele>46.3</ele><time>2026-07-14T20:15:09Z</time></trkpt>
			<trkpt lat="54.592180" lon="22.298200"><ele>46.1</ele><time>2026-07-14T20:15:14Z</time></trkpt>
			<trkpt lat="54.592380" lon="22.298850"><ele>45.4</ele><time>2026-07-14T20:15:19Z</time></trkpt>
			<trkpt lat="54.594150" lon="22.304040"><ele>47.8</ele><time>2026-07-14T20:15:23Z</time></trkpt>
			<trkpt lat="54.594200" lon="22.304220"><ele>47.9</ele><time>2026-07-14T20:15:28Z</time></trkpt>
			<trkpt lat="54.594230" lon="22.304380"><ele>48.0</ele><time>2026-07-14T20:15:33Z</time></trkpt>
			<trkpt lat="54.594260" lon="22.304580"><ele>48.0</ele><time>2026-07-14T20:15:38Z</time></trkpt>
			<trkpt lat="54.594280" lon="22.304880"><ele>47.8</ele><time>2026-07-14T20:15:43Z</time></trkpt>
			<trkpt lat="54.594390" lon="22.308140"><ele>45.9</ele><time>2026-07-14T20:15:48Z</time></trkpt>
			<trkpt lat="54.594480" lon="22.310740"><ele>46.5</ele><time>2026-07-14T20:15:53Z</time></trkpt>
			<trkpt lat="54.594510" lon="22.311040"><ele>46.9</ele><time>2026-07-14T20:15:57Z</time></trkpt>
			<trkpt lat="54.594820" lon="22.313250"><ele>47.5</ele><time>2026-07-14T20:16:02Z</time></trkpt>
			<trkpt lat="54.594850" lon="22.314090"><ele>48.2</ele><time>2026-07-14T20:16:07Z</time></trkpt>
			<trkpt lat="54.594840" lon="22.315560"><ele>49.4</ele><time>2026-07-14T20:16:12Z</time></trkpt>
			<trkpt lat="54.594860" lon="22.315950"><ele>49.3</ele><time>2026-07-14T20:16:17Z</time></trkpt>
			<trkpt lat="54.595040" lon="22.317120"><ele>49.1</ele><time>2026-07-14T20:16:22Z</time></trkpt>
			<trkpt lat="54.595080" lon="22.317350"><ele>49.2</ele><time>2026-07-14T20:16:26Z</time></trkpt>
			<trkpt lat="54.595140" lon="22.317560"><ele>49.5</ele><time>2026-07-14T20:16:31Z</time></trkpt>
			<trkpt lat="54.595230" lon="22.317650"><ele>49.7</ele><time>2026-07-14T20:16:36Z</time></trkpt>
			<trkpt lat="54.595330" lon="22.317650"><ele>49.9</ele><time>2026-07-14T20:16:41Z</time></trkpt>
			<trkpt lat="54.596740" lon="22.317290"><ele>52.0</ele><time>2026-07-14T20:16:46Z</time></trkpt>
			<trkpt lat="54.596860" lon="22.317310"><ele>52.0</ele><time>2026-07-14T20:16:51Z</time></trkpt>
			<trkpt lat="54.596950" lon="22.317360"><ele>52.0</ele><time>2026-07-14T20:16:55Z</time></trkpt>
			<trkpt lat="54.597040" lon="22.317470"><ele>52.0</ele><time>2026-07-14T20:17:00Z</time></trkpt>
			<trkpt lat="54.597140" lon="22.317690"><ele>52.0</ele><time>2026-07-14T20:17:05Z</time></trkpt>
			<trkpt lat="54.597450" lon="22.318240"><ele>52.6</ele><time>2026-07-14T20:17:10Z</time></trkpt>
			<trkpt lat="54.598500" lon="22.319390"><ele>53.1</ele><time>2026-07-14T20:17:15Z</time></trkpt>
			<trkpt lat="54.598870" lon="22.319830"><ele>51.7</ele><time>2026-07-14T20:17:20Z</time></trkpt>
			<trkpt lat="54.599430" lon="22.320560"><ele>51.0</ele><time>2026-07-14T20:17:24Z</time></trkpt>
			<trkpt lat="54.600350" lon="22.321690"><ele>50.9</ele><time>2026-07-14T20:17:29Z</time></trkpt>
			<trkpt lat="54.601560" lon="22.323270"><ele>51.0</ele><time>2026-07-14T20:17:34Z</time></trkpt>
			<trkpt lat="54.604630" lon="22.327170"><ele>53.3</ele><time>2026-07-14T20:17:39Z</time></trkpt>
			<trkpt lat="54.606010" lon="22.329060"><ele>52.6</ele><time>2026-07-14T20:17:44Z</time></trkpt>
			<trkpt lat="54.606470" lon="22.329880"><ele>52.0</ele><time>2026-07-14T20:17:49Z</time></trkpt>
			<trkpt lat="54.607910" lon="22.332290"><ele>52.4</ele><time>2026-07-14T20:17:53Z</time></trkpt>
			<trkpt lat="54.609180" lon="22.334380"><ele>54.7</ele><time>2026-07-14T20:17:58Z</time></trkpt>
			<trkpt lat="54.609320" lon="22.334610"><ele>54.3</ele><time>2026-07-14T20:18:03Z</time></trkpt>
			<trkpt lat="54.609490" lon="22.334900"><ele>53.8</ele><time>2026-07-14T20:18:08Z</time></trkpt>
			<trkpt lat="54.609560" lon="22.335940"><ele>53.0</ele><time>2026-07-14T20:18:13Z</time></trkpt>
			<trkpt lat="54.610210" lon="22.345660"><ele>50.1</ele><time>2026-07-14T20:18:18Z</time></trkpt>
			<trkpt lat="54.611960" lon="22.372190"><ele>50.1</ele><time>2026-07-14T20:18:22Z</time></trkpt>
			<trkpt lat="54.612170" lon="22.375430"><ele>51.1</ele><time>2026-07-14T20:18:27Z</time></trkpt>
			<trkpt lat="54.612170" lon="22.375430"><ele>51.1</ele><time>2026-07-14T20:18:36Z</time></trkpt>
			<trkpt lat="54.612280" lon="22.377120"><ele>51.7</ele><time>2026-07-14T20:18:44Z</time></trkpt>
			<trkpt lat="54.612660" lon="22.382740"><ele>52.5</ele><time>2026-07-14T20:18:52Z</time></trkpt>
			<trkpt lat="54.613050" lon="22.388450"><ele>51.7</ele><time>2026-07-14T20:19:01Z</time></trkpt>
			<trkpt lat="54.613140" lon="22.390000"><ele>52.3</ele><time>2026-07-14T20:19:09Z</time></trkpt>
			<trkpt lat="54.609010" lon="22.393940"><ele>50.5</ele><time>2026-07-14T20:19:18Z</time></trkpt>
			<trkpt lat="54.608190" lon="22.394730"><ele>49.6</ele><time>2026-07-14T20:19:26Z</time></trkpt>
			<trkpt lat="54.606400" lon="22.396360"><ele>46.7</ele><time>2026-07-14T20:19:34Z</time></trkpt>
			<trkpt lat="54.605440" lon="22.397060"><ele>47.9</ele><time>2026-07-14T20:19:43Z</time></trkpt>
			<trkpt lat="54.604620" lon="22.397750"><ele>49.8</ele><time>2026-07-14T20:19:51Z</time></trkpt>
			<trkpt lat="54.604340" lon="22.397990"><ele>49.4</ele><time>2026-07-14T20:20:00Z</time></trkpt>
			<trkpt lat="54.600100" lon="22.400960"><ele>47.1</ele><time>2026-07-14T20:20:08Z</time></trkpt>
			<trkpt lat="54.598100" lon="22.402280"><ele>46.9</ele><time>2026-07-14T20:20:16Z</time></trkpt>
			<trkpt lat="54.596370" lon="22.403500"><ele>46.1</ele><time>2026-07-14T20:20:25Z</time></trkpt>
			<trkpt lat="54.596050" lon="22.403730"><ele>46.3</ele><time>2026-07-14T20:20:33Z</time></trkpt>
			<trkpt lat="54.593950" lon="22.405320"><ele>46.8</ele><time>2026-07-14T20:20:42Z</time></trkpt>
			<trkpt lat="54.593840" lon="22.405460"><ele>46.6</ele><time>2026-07-14T20:20:50Z</time></trkpt>
			<trkpt lat="54.593120" lon="22.406390"><ele>45.7</ele><time>2026-07-14T20:20:58Z</time></trkpt>
			<trkpt lat="54.589700" lon="22.411560"><ele>47.6</ele><time>2026-07-14T20:21:07Z</time></trkpt>
			<trkpt lat="54.584930" lon="22.418950"><ele>47.7</ele><time>2026-07-14T20:21:15Z</time></trkpt>
			<trkpt lat="54.578500" lon="22.428480"><ele>51.6</ele><time>2026-07-14T20:21:24Z</time></trkpt>
			<trkpt lat="54.577350" lon="22.429970"><ele>51.8</ele><time>2026-07-14T20:21:32Z</time></trkpt>
			<trkpt lat="54.575480" lon="22.432420"><ele>51.1</ele><time>2026-07-14T20:21:40Z</time></trkpt>
			<trkpt lat="54.574020" lon="22.434800"><ele>52.8</ele><time>2026-07-14T20:21:49Z</time></trkpt>
			<trkpt lat="54.572980" lon="22.436550"><ele>55.3</ele><time>2026-07-14T20:21:57Z</time></trkpt>
			<trkpt lat="54.570810" lon="22.441280"><ele>57.3</ele><time>2026-07-14T20:22:06Z</time></trkpt>
			<trkpt lat="54.570250" lon="22.442520"><ele>58.3</ele><time>2026-07-14T20:22:14Z</time></trkpt>
			<trkpt lat="54.569970" lon="22.443130"><ele>58.9</ele><time>2026-07-14T20:22:22Z</time></trkpt>
			<trkpt lat="54.569820" lon="22.443350"><ele>60.0</ele><time>2026-07-14T20:22:31Z</time></trkpt>
			<trkpt lat="54.568240" lon="22.445560"><ele>63.2</ele><time>2026-07-14T20:22:39Z</time></trkpt>
			<trkpt lat="54.567940" lon="22.445980"><ele>64.0</ele><time>2026-07-14T20:22:48Z</time></trkpt>
			<trkpt lat="54.567910" lon="22.446070"><ele>64.1</ele><time>2026-07-14T20:22:56Z</time></trkpt>
			<trkpt lat="54.567880" lon="22.446190"><ele>64.3</ele><time>2026-07-14T20:23:04Z</time></trkpt>
			<trkpt lat="54.567840" lon="22.446470"><ele>64.6</ele><time>2026-07-14T20:23:13Z</time></trkpt>
			<trkpt lat="54.567260" lon="22.449790"><ele>63.7</ele><time>2026-07-14T20:23:21Z</time></trkpt>
			<trkpt lat="54.567150" lon="22.450790"><ele>64.7</ele><time>2026-07-14T20:23:30Z</time></trkpt>
			<trkpt lat="54.567100" lon="22.450960"><ele>64.9</ele><time>2026-07-14T20:23:38Z</time></trkpt>
			<trkpt lat="54.567070" lon="22.451020"><ele>65.0</ele><time>2026-07-14T20:23:46Z</time></trkpt>
			<trkpt lat="54.565990" lon="22.451800"><ele>64.8</ele><time>2026-07-14T20:23:55Z</time></trkpt>
			<trkpt lat="54.565540" lon="22.452170"><ele>64.9</ele><time>2026-07-14T20:24:03Z</time></trkpt>
			<trkpt lat="54.565380" lon="22.452370"><ele>65.0</ele><time>2026-07-14T20:24:12Z</time></trkpt>
			<trkpt lat="54.565260" lon="22.452620"><ele>65.2</ele><time>2026-07-14T20:24:20Z</time></trkpt>
			<trkpt lat="54.564870" lon="22.453550"><ele>65.3</ele><time>2026-07-14T20:24:28Z</time></trkpt>
			<trkpt lat="54.564110" lon="22.455290"><ele>66.6</ele><time>2026-07-14T20:24:37Z</time></trkpt>
			<trkpt lat="54.562970" lon="22.457850"><ele>67.6</ele><time>2026-07-14T20:24:45Z</time></trkpt>
			<trkpt lat="54.562860" lon="22.458050"><ele>68.0</ele><time>2026-07-14T20:24:54Z</time></trkpt>
			<trkpt lat="54.562760" lon="22.458180"><ele>68.3</ele><time>2026-07-14T20:25:02Z</time></trkpt>
			<trkpt lat="54.562640" lon="22.458310"><ele>68.5</ele><time>2026-07-14T20:25:10Z</time></trkpt>
			<trkpt lat="54.562210" lon="22.458570"><ele>68.9</ele><time>2026-07-14T20:25:19Z</time></trkpt>
			<trkpt lat="54.561420" lon="22.459010"><ele>70.0</ele><time>2026-07-14T20:25:27Z</time></trkpt>
			<trkpt lat="54.560450" lon="22.459550"><ele>71.9</ele><time>2026-07-14T20:25:36Z</time></trkpt>
			<trkpt lat="54.556810" lon="22.461900"><ele>75.0</ele><time>2026-07-14T20:25:44Z</time></trkpt>
			<trkpt lat="54.551450" lon="22.465240"><ele>74.5</ele><time>2026-07-14T20:25:52Z</time></trkpt>
			<trkpt lat="54.548690" lon="22.466850"><ele>77.2</ele><time>2026-07-14T20:26:01Z</time></trkpt>
			<trkpt lat="54.548540" lon="22.466980"><ele>77.6</ele><time>2026-07-14T20:26:09Z</time></trkpt>
			<trkpt lat="54.547420" lon="22.468120"><ele>79.8</ele><time>2026-07-14T20:26:18Z</time></trkpt>
			<trkpt lat="54.544600" lon="22.472400"><ele>74.4</ele><time>2026-07-14T20:26:26Z</time></trkpt>
			<trkpt lat="54.534950" lon="22.487060"><ele>80.3</ele><time>2026-07-14T20:26:34Z</time></trkpt>
			<trkpt lat="54.534690" lon="22.487580"><ele>80.4</ele><time>2026-07-14T20:26:43Z</time></trkpt>
			<trkpt lat="54.534410" lon="22.488120"><ele>80.6</ele><time>2026-07-14T20:26:51Z</time></trkpt>
			<trkpt lat="54.533280" lon="22.490740"><ele>83.8</ele><time>2026-07-14T20:26:59Z</time></trkpt>
			<trkpt lat="54.532560" lon="22.492370"><ele>84.9</ele><time>2026-07-14T20:27:08Z</time></trkpt>
			<trkpt lat="54.531900" lon="22.494030"><ele>83.7</ele><time>2026-07-14T20:27:16Z</time></trkpt>
			<trkpt lat="54.531770" lon="22.494670"><ele>83.3</ele><time>2026-07-14T20:27:25Z</time></trkpt>
			<trkpt lat="54.531640" lon="22.495470"><ele>83.0</ele><time>2026-07-14T20:27:33Z</time></trkpt>
			<trkpt lat="54.530820" lon="22.501980"><ele>85.0</ele><time>2026-07-14T20:27:41Z</time></trkpt>
			<trkpt lat="54.529990" lon="22.508340"><ele>88.2</ele><time>2026-07-14T20:27:50Z</time></trkpt>
			<trkpt lat="54.525300" lon="22.509580"><ele>95.4</ele><time>2026-07-14T20:27:58Z</time></trkpt>
			<trkpt lat="54.524520" lon="22.509800"><ele>96.9</ele><time>2026-07-14T20:28:07Z</time></trkpt>
			<trkpt lat="54.520650" lon="22.510910"><ele>98.3</ele><time>2026-07-14T20:28:15Z</time></trkpt>
			<trkpt lat="54.516690" lon="22.511990"><ele>98.4</ele><time>2026-07-14T20:28:23Z</time></trkpt>
			<trkpt lat="54.508140" lon="22.514450"><ele>104.8</ele><time>2026-07-14T20:28:32Z</time></trkpt>
			<trkpt lat="54.507990" lon="22.514470"><ele>105.2</ele><time>2026-07-14T20:28:40Z</time></trkpt>
			<trkpt lat="54.507610" lon="22.514510"><ele>106.1</ele><time>2026-07-14T20:28:49Z</time></trkpt>
			<trkpt lat="54.506260" lon="22.514600"><ele>106.9</ele><time>2026-07-14T20:28:57Z</time></trkpt>
			<trkpt lat="54.504870" lon="22.514700"><ele>109.9</ele><time>2026-07-14T20:29:05Z</time></trkpt>
			<trkpt lat="54.503550" lon="22.514690"><ele>109.3</ele><time>2026-07-14T20:29:14Z</time></trkpt>
			<trkpt lat="54.501380" lon="22.514660"><ele>109.5</ele><time>2026-07-14T20:29:22Z</time></trkpt>
			<trkpt lat="54.500360" lon="22.514650"><ele>110.7</ele><time>2026-07-14T20:29:31Z</time></trkpt>
			<trkpt lat="54.496130" lon="22.514650"><ele>119.0</ele><time>2026-07-14T20:29:39Z</time></trkpt>
			<trkpt lat="54.495360" lon="22.514650"><ele>121.1</ele><time>2026-07-14T20:29:47Z</time></trkpt>
			<trkpt lat="54.488890" lon="22.514580"><ele>116.3</ele><time>2026-07-14T20:29:56Z</time></trkpt>
			<trkpt lat="54.488080" lon="22.514550"><ele>116.1</ele><time>2026-07-14T20:30:04Z</time></trkpt>
			<trkpt lat="54.487280" lon="22.514420"><ele>116.6</ele><time>2026-07-14T20:30:13Z</time></trkpt>
			<trkpt lat="54.485410" lon="22.513770"><ele>122.1</ele><time>2026-07-14T20:30:21Z</time></trkpt>
			<trkpt lat="54.484640" lon="22.513560"><ele>124.5</ele><time>2026-07-14T20:30:29Z</time></trkpt>
			<trkpt lat="54.484300" lon="22.513520"><ele>124.4</ele><time>2026-07-14T20:30:38Z</time></trkpt>
			<trkpt lat="54.483820" lon="22.513590"><ele>124.7</ele><time>2026-07-14T20:30:46Z</time></trkpt>
			<trkpt lat="54.483330" lon="22.513710"><ele>125.4</ele><time>2026-07-14T20:30:55Z</time></trkpt>
			<trkpt lat="54.482830" lon="22.513930"><ele>125.9</ele><time>2026-07-14T20:31:03Z</time></trkpt>
			<trkpt lat="54.482620" lon="22.513900"><ele>126.0</ele><time>2026-07-14T20:31:11Z</time></trkpt>
			<trkpt lat="54.482510" lon="22.513840"><ele>126.2</ele><time>2026-07-14T20:31:20Z</time></trkpt>
			<trkpt lat="54.481300" lon="22.512960"><ele>128.7</ele><time>2026-07-14T20:31:28Z</time></trkpt>
			<trkpt lat="54.480850" lon="22.512700"><ele>129.3</ele><time>2026-07-14T20:31:37Z</time></trkpt>
			<trkpt lat="54.480410" lon="22.512500"><ele>129.5</ele><time>2026-07-14T20:31:45Z</time></trkpt>
			<trkpt lat="54.479630" lon="22.512180"><ele>129.1</ele><time>2026-07-14T20:31:53Z</time></trkpt>
			<trkpt lat="54.478800" lon="22.512270"><ele>129.8</ele><time>2026-07-14T20:32:02Z</time></trkpt>
			<trkpt lat="54.478580" lon="22.512290"><ele>130.2</ele><time>2026-07-14T20:32:10Z</time></trkpt>
			<trkpt lat="54.478020" lon="22.512360"><ele>131.2</ele><time>2026-07-14T20:32:19Z</time></trkpt>
			<trkpt lat="54.477160" lon="22.512510"><ele>132.4</ele><time>2026-07-14T20:32:27Z</time></trkpt>
			<trkpt lat="54.476580" lon="22.512480"><ele>133.1</ele><time>2026-07-14T20:32:35Z</time></trkpt>
			<trkpt lat="54.474700" lon="22.512080"><ele>134.6</ele><time>2026-07-14T20:32:44Z</time></trkpt>
			<trkpt lat="54.473630" lon="22.511870"><ele>134.0</ele><time>2026-07-14T20:32:52Z</time></trkpt>
			<trkpt lat="54.473250" lon="22.511820"><ele>133.9</ele><time>2026-07-14T20:33:01Z</time></trkpt>
			<trkpt lat="54.472820" lon="22.511850"><ele>133.5</ele><time>2026-07-14T20:33:09Z</time></trkpt>
			<trkpt lat="54.472460" lon="22.511950"><ele>133.5</ele><time>2026-07-14T20:33:17Z</time></trkpt>
			<trkpt lat="54.471100" lon="22.512610"><ele>135.0</ele><time>2026-07-14T20:33:26Z</time></trkpt>
			<trkpt lat="54.470320" lon="22.514950"><ele>133.7</ele><time>2026-07-14T20:33:34Z</time></trkpt>
			<trkpt lat="54.470040" lon="22.515600"><ele>133.1</ele><time>2026-07-14T20:33:43Z</time></trkpt>
			<trkpt lat="54.469760" lon="22.516130"><ele>132.4</ele><time>2026-07-14T20:33:51Z</time></trkpt>
			<trkpt lat="54.468310" lon="22.518140"><ele>133.4</ele><time>2026-07-14T20:33:59Z</time></trkpt>
			<trkpt lat="54.466610" lon="22.520390"><ele>135.8</ele><time>2026-07-14T20:34:08Z</time></trkpt>
			<trkpt lat="54.466170" lon="22.521090"><ele>136.3</ele><time>2026-07-14T20:34:16Z</time></trkpt>
			<trkpt lat="54.465800" lon="22.521950"><ele>135.5</ele><time>2026-07-14T20:34:25Z</time></trkpt>
			<trkpt lat="54.465170" lon="22.523600"><ele>135.6</ele><time>2026-07-14T20:34:33Z</time></trkpt>
			<trkpt lat="54.464590" lon="22.525090"><ele>134.6</ele><time>2026-07-14T20:34:41Z</time></trkpt>
			<trkpt lat="54.464240" lon="22.526030"><ele>132.5</ele><time>2026-07-14T20:34:50Z</time></trkpt>
			<trkpt lat="54.464110" lon="22.526740"><ele>131.6</ele><time>2026-07-14T20:34:58Z</time></trkpt>
			<trkpt lat="54.464030" lon="22.527600"><ele>130.0</ele><time>2026-07-14T20:35:07Z</time></trkpt>
			<trkpt lat="54.463970" lon="22.528460"><ele>129.8</ele><time>2026-07-14T20:35:15Z</time></trkpt>
			<trkpt lat="54.463890" lon="22.529530"><ele>133.7</ele><time>2026-07-14T20:35:23Z</time></trkpt>
			<trkpt lat="54.463890" lon="22.530350"><ele>134.8</ele><time>2026-07-14T20:35:32Z</time></trkpt>
			<trkpt lat="54.463940" lon="22.530880"><ele>134.5</ele><time>2026-07-14T20:35:40Z</time></trkpt>
			<trkpt lat="54.464940" lon="22.540010"><ele>147.7</ele><time>2026-07-14T20:35:49Z</time></trkpt>
			<trkpt lat="54.464970" lon="22.540420"><ele>147.9</ele><time>2026-07-14T20:35:57Z</time></trkpt>
			<trkpt lat="54.464980" lon="22.540860"><ele>148.1</ele><time>2026-07-14T20:36:05Z</time></trkpt>
			<trkpt lat="54.465010" lon="22.544350"><ele>151.0</ele><time>2026-07-14T20:36:14Z</time></trkpt>
			<trkpt lat="54.465080" lon="22.548310"><ele>149.2</ele><time>2026-07-14T20:36:22Z</time></trkpt>
			<trkpt lat="54.465090" lon="22.548710"><ele>149.1</ele><time>2026-07-14T20:36:31Z</time></trkpt>
			<trkpt lat="54.465150" lon="22.549140"><ele>149.2</ele><time>2026-07-14T20:36:39Z</time></trkpt>
			<trkpt lat="54.465430" lon="22.550410"><ele>148.3</ele><time>2026-07-14T20:36:47Z</time></trkpt>
			<trkpt lat="54.465470" lon="22.550850"><ele>147.7</ele><time>2026-07-14T20:36:56Z</time></trkpt>
			<trkpt lat="54.465470" lon="22.551230"><ele>147.4</ele><time>2026-07-14T20:37:04Z</time></trkpt>
			<trkpt lat="54.465420" lon="22.551630"><ele>147.1</ele><time>2026-07-14T20:37:13Z</time></trkpt>
			<trkpt lat="54.465300" lon="22.552110"><ele>147.4</ele><time>2026-07-14T20:37:21Z</time></trkpt>
			<trkpt lat="54.464110" lon="22.556320"><ele>149.2</ele><time>2026-07-14T20:37:29Z</time></trkpt>
			<trkpt lat="54.463990" lon="22.556650"><ele>149.4</ele><time>2026-07-14T20:37:38Z</time></trkpt>
			<trkpt lat="54.463860" lon="22.556960"><ele>149.9</ele><time>2026-07-14T20:37:46Z</time></trkpt>
			<trkpt lat="54.463710" lon="22.557260"><ele>150.5</ele><time>2026-07-14T20:37:55Z</time></trkpt>
			<trkpt lat="54.463550" lon="22.557520"><ele>151.2</ele><time>2026-07-14T20:38:03Z</time></trkpt>
			<trkpt lat="54.463260" lon="22.557880"><ele>151.3</ele><time>2026-07-14T20:38:11Z</time></trkpt>
			<trkpt lat="54.460340" lon="22.560780"><ele>150.5</ele><time>2026-07-14T20:38:20Z</time></trkpt>
			<trkpt lat="54.459430" lon="22.561470"><ele>151.0</ele><time>2026-07-14T20:38:28Z</time></trkpt>
			<trkpt lat="54.457500" lon="22.562830"><ele>147.4</ele><time>2026-07-14T20:38:37Z</time></trkpt>
			<trkpt lat="54.456330" lon="22.563710"><ele>145.4</ele><time>2026-07-14T20:38:45Z</time></trkpt>
			<trkpt lat="54.455300" lon="22.564390"><ele>143.9</ele><time>2026-07-14T20:38:53Z</time></trkpt>
			<trkpt lat="54.454200" lon="22.565220"><ele>140.4</ele><time>2026-07-14T20:39:02Z</time></trkpt>
			<trkpt lat="54.453830" lon="22.565620"><ele>141.1</ele><time>2026-07-14T20:39:10Z</time></trkpt>
			<trkpt lat="54.453540" lon="22.566010"><ele>141.5</ele><time>2026-07-14T20:39:18Z</time></trkpt>
			<trkpt lat="54.452520" lon="22.567700"><ele>143.3</ele><time>2026-07-14T20:39:27Z</time></trkpt>
			<trkpt lat="54.452300" lon="22.568020"><ele>144.4</ele><time>2026-07-14T20:39:35Z</time></trkpt>
			<trkpt lat="54.452020" lon="22.568460"><ele>146.2</ele><time>2026-07-14T20:39:44Z</time></trkpt>
			<trkpt lat="54.451830" lon="22.568750"><ele>146.8</ele><time>2026-07-14T20:39:52Z</time></trkpt>
			<trkpt lat="54.451680" lon="22.568950"><ele>147.4</ele><time>2026-07-14T20:40:00Z</time></trkpt>
			<trkpt lat="54.451460" lon="22.569200"><ele>149.0</ele><time>2026-07-14T20:40:09Z</time></trkpt>
			<trkpt lat="54.450520" lon="22.570180"><ele>149.2</ele><time>2026-07-14T20:40:17Z</time></trkpt>
			<trkpt lat="54.448630" lon="22.572020"><ele>142.4</ele><time>2026-07-14T20:40:26Z</time></trkpt>
			<trkpt lat="54.447760" lon="22.572890"><ele>142.1</ele><time>2026-07-14T20:40:34Z</time></trkpt>
			<trkpt lat="54.446740" lon="22.573950"><ele>144.8</ele><time>2026-07-14T20:40:42Z</time></trkpt>
			<trkpt lat="54.446560" lon="22.574160"><ele>145.1</ele><time>2026-07-14T20:40:51Z</time></trkpt>
			<trkpt lat="54.446150" lon="22.574740"><ele>145.4</ele><time>2026-07-14T20:40:59Z</time></trkpt>
			<trkpt lat="54.446060" lon="22.574680"><ele>145.6</ele><time>2026-07-14T20:41:08Z</time></trkpt>
			<trkpt lat="54.446010" lon="22.574640"><ele>145.8</ele><time>2026-07-14T20:41:16Z</time></trkpt>
			<trkpt lat="54.445980" lon="22.574590"><ele>145.9</ele><time>2026-07-14T20:41:24Z</time></trkpt>
			<trkpt lat="54.445880" lon="22.574390"><ele>146.3</ele><time>2026-07-14T20:41:33Z</time></trkpt>
			<trkpt lat="54.445680" lon="22.573930"><ele>147.2</ele><time>2026-07-14T20:41:41Z</time></trkpt>
			<trkpt lat="54.445520" lon="22.573560"><ele>147.4</ele><time>2026-07-14T20:41:50Z</time></trkpt>
			<trkpt lat="54.445360" lon="22.573230"><ele>147.7</ele><time>2026-07-14T20:41:58Z</time></trkpt>
			<trkpt lat="54.445260" lon="22.573040"><ele>147.9</ele><time>2026-07-14T20:42:06Z</time></trkpt>
			<trkpt lat="54.445190" lon="22.572920"><ele>148.0</ele><time>2026-07-14T20:42:15Z</time></trkpt>
			<trkpt lat="54.445040" lon="22.572820"><ele>148.1</ele><time>2026-07-14T20:42:23Z</time></trkpt>
			<trkpt lat="54.444680" lon="22.572690"><ele>147.8</ele><time>2026-07-14T20:42:32Z</time></trkpt>
			<trkpt lat="54.444550" lon="22.572660"><ele>147.6</ele><time>2026-07-14T20:42:40Z</time></trkpt>
			<trkpt lat="54.444390" lon="22.572660"><ele>147.2</ele><time>2026-07-14T20:42:48Z</time></trkpt>
			<trkpt lat="54.444270" lon="22.572700"><ele>147.0</ele><time>2026-07-14T20:42:57Z</time></trkpt>
			<trkpt lat="54.444140" lon="22.572780"><ele>146.9</ele><time>2026-07-14T20:43:05Z</time></trkpt>
			<trkpt lat="54.443790" lon="22.573130"><ele>147.8</ele><time>2026-07-14T20:43:14Z</time></trkpt>
			<trkpt lat="54.442610" lon="22.574360"><ele>148.3</ele><time>2026-07-14T20:43:22Z</time></trkpt>
			<trkpt lat="54.438450" lon="22.578680"><ele>145.4</ele><time>2026-07-14T20:43:30Z</time></trkpt>
			<trkpt lat="54.435680" lon="22.581570"><ele>161.4</ele><time>2026-07-14T20:43:39Z</time></trkpt>
			<trkpt lat="54.434970" lon="22.582300"><ele>166.5</ele><time>2026-07-14T20:43:47Z</time></trkpt>
			<trkpt lat="54.434380" lon="22.582920"><ele>173.8</ele><time>2026-07-14T20:43:56Z</time></trkpt>
			<trkpt lat="54.434000" lon="22.583410"><ele>174.0</ele><time>2026-07-14T20:44:04Z</time></trkpt>
			<trkpt lat="54.433520" lon="22.584270"><ele>173.0</ele><time>2026-07-14T20:44:12Z</time></trkpt>
			<trkpt lat="54.431680" lon="22.588310"><ele>170.7</ele><time>2026-07-14T20:44:21Z</time></trkpt>
			<trkpt lat="54.431450" lon="22.588700"><ele>170.0</ele><time>2026-07-14T20:44:29Z</time></trkpt>
			<trkpt lat="54.431290" lon="22.588840"><ele>169.6</ele><time>2026-07-14T20:44:38Z</time></trkpt>
			<trkpt lat="54.431160" lon="22.588880"><ele>169.5</ele><time>2026-07-14T20:44:46Z</time></trkpt>
			<trkpt lat="54.431020" lon="22.588880"><ele>169.6</ele><time>2026-07-14T20:44:54Z</time></trkpt>
			<trkpt lat="54.430760" lon="22.588810"><ele>169.5</ele><time>2026-07-14T20:45:03Z</time></trkpt>
			<trkpt lat="54.428350" lon="22.587820"><ele>165.3</ele><time>2026-07-14T20:45:11Z</time></trkpt>
			<trkpt lat="54.428130" lon="22.587770"><ele>165.3</ele><time>2026-07-14T20:45:20Z</time></trkpt>
			<trkpt lat="54.427880" lon="22.587770"><ele>165.3</ele><time>2026-07-14T20:45:28Z</time></trkpt>
			<trkpt lat="54.427560" lon="22.587810"><ele>165.3</ele><time>2026-07-14T20:45:36Z</time></trkpt>
			<trkpt lat="54.427060" lon="22.587940"><ele>165.2</ele><time>2026-07-14T20:45:45Z</time></trkpt>
			<trkpt lat="54.426140" lon="22.588270"><ele>166.3</ele><time>2026-07-14T20:45:53Z</time></trkpt>
			<trkpt lat="54.425610" lon="22.588460"><ele>166.2</ele><time>2026-07-14T20:46:02Z</time></trkpt>
			<trkpt lat="54.424080" lon="22.588950"><ele>163.7</ele><time>2026-07-14T20:46:10Z</time></trkpt>
			<trkpt lat="54.423900" lon="22.589030"><ele>163.0</ele><time>2026-07-14T20:46:18Z</time></trkpt>
			<trkpt lat="54.423760" lon="22.589170"><ele>162.5</ele><time>2026-07-14T20:46:27Z</time></trkpt>
			<trkpt lat="54.423660" lon="22.589370"><ele>162.1</ele><time>2026-07-14T20:46:35Z</time></trkpt>
			<trkpt lat="54.423550" lon="22.589610"><ele>161.8</ele><time>2026-07-14T20:46:44Z</time></trkpt>
			<trkpt lat="54.423250" lon="22.590400"><ele>161.5</ele><time>2026-07-14T20:46:52Z</time></trkpt>
			<trkpt lat="54.422980" lon="22.591020"><ele>161.9</ele><time>2026-07-14T20:47:00Z</time></trkpt>
			<trkpt lat="54.422800" lon="22.591350"><ele>163.1</ele><time>2026-07-14T20:47:09Z</time></trkpt>
			<trkpt lat="54.422600" lon="22.591620"><ele>164.4</ele><time>2026-07-14T20:47:17Z</time></trkpt>
			<trkpt lat="54.422170" lon="22.591840"><ele>166.8</ele><time>2026-07-14T20:47:26Z</time></trkpt>
			<trkpt lat="54.421900" lon="22.591750"><ele>167.7</ele><time>2026-07-14T20:47:34Z</time></trkpt>
			<trkpt lat="54.421760" lon="22.591590"><ele>167.9</ele><time>2026-07-14T20:47:42Z</time></trkpt>
			<trkpt lat="54.421070" lon="22.589720"><ele>171.2</ele><time>2026-07-14T20:47:51Z</time></trkpt>
			<trkpt lat="54.420950" lon="22.589560"><ele>170.7</ele><time>2026-07-14T20:47:59Z</time></trkpt>
			<trkpt lat="54.420800" lon="22.589400"><ele>170.3</ele><time>2026-07-14T20:48:08Z</time></trkpt>
			<trkpt lat="54.420620" lon="22.589330"><ele>170.0</ele><time>2026-07-14T20:48:16Z</time></trkpt>
			<trkpt lat="54.420420" lon="22.589290"><ele>170.7</ele><time>2026-07-14T20:48:24Z</time></trkpt>
			<trkpt lat="54.419710" lon="22.589340"><ele>172.3</ele><time>2026-07-14T20:48:33Z</time></trkpt>
			<trkpt lat="54.418520" lon="22.589370"><ele>171.2</ele><time>2026-07-14T20:48:41Z</time></trkpt>
			<trkpt lat="54.417920" lon="22.589420"><ele>172.9</ele><time>2026-07-14T20:48:50Z</time></trkpt>
			<trkpt lat="54.417580" lon="22.589460"><ele>174.2</ele><time>2026-07-14T20:48:58Z</time></trkpt>
			<trkpt lat="54.417190" lon="22.589880"><ele>175.4</ele><time>2026-07-14T20:49:06Z</time></trkpt>
			<trkpt lat="54.416850" lon="22.590500"><ele>174.1</ele><time>2026-07-14T20:49:15Z</time></trkpt>
			<trkpt lat="54.415970" lon="22.592080"><ele>173.5</ele><time>2026-07-14T20:49:23Z</time></trkpt>
			<trkpt lat="54.415590" lon="22.592910"><ele>173.8</ele><time>2026-07-14T20:49:32Z</time></trkpt>
			<trkpt lat="54.415180" lon="22.594890"><ele>165.2</ele><time>2026-07-14T20:49:40Z</time></trkpt>
			<trkpt lat="54.414710" lon="22.597420"><ele>161.9</ele><time>2026-07-14T20:49:48Z</time></trkpt>
			<trkpt lat="54.414600" lon="22.597870"><ele>162.8</ele><time>2026-07-14T20:49:57Z</time></trkpt>
			<trkpt lat="54.414350" lon="22.598510"><ele>165.4</ele><time>2026-07-14T20:50:05Z</time></trkpt>
			<trkpt lat="54.413720" lon="22.599410"><ele>170.0</ele><time>2026-07-14T20:50:14Z</time></trkpt>
			<trkpt lat="54.411740" lon="22.601470"><ele>175.5</ele><time>2026-07-14T20:50:22Z</time></trkpt>
			<trkpt lat="54.408760" lon="22.604890"><ele>169.8</ele><time>2026-07-14T20:50:30Z</time></trkpt>
			<trkpt lat="54.406770" lon="22.607270"><ele>176.3</ele><time>2026-07-14T20:50:39Z</time></trkpt>
			<trkpt lat="54.405930" lon="22.608300"><ele>169.0</ele><time>2026-07-14T20:50:47Z</time></trkpt>
			<trkpt lat="54.405630" lon="22.608960"><ele>164.2</ele><time>2026-07-14T20:50:56Z</time></trkpt>
			<trkpt lat="54.405290" lon="22.609780"><ele>160.2</ele><time>2026-07-14T20:51:04Z</time></trkpt>
			<trkpt lat="54.404790" lon="22.612410"><ele>158.0</ele><time>2026-07-14T20:51:12Z</time></trkpt>
			<trkpt lat="54.404610" lon="22.613400"><ele>158.7</ele><time>2026-07-14T20:51:21Z</time></trkpt>
			<trkpt lat="54.404340" lon="22.614090"><ele>159.4</ele><time>2026-07-14T20:51:29Z</time></trkpt>
			<trkpt lat="54.403530" lon="22.615910"><ele>165.1</ele><time>2026-07-14T20:51:38Z</time></trkpt>
			<trkpt lat="54.403380" lon="22.616400"><ele>166.4</ele><time>2026-07-14T20:51:46Z</time></trkpt>
			<trkpt lat="54.402830" lon="22.618360"><ele>171.8</ele><time>2026-07-14T20:51:54Z</time></trkpt>
			<trkpt lat="54.402430" lon="22.619960"><ele>176.0</ele><time>2026-07-14T20:52:03Z</time></trkpt>
			<trkpt lat="54.400830" lon="22.624710"><ele>197.0</ele><time>2026-07-14T20:52:11Z</time></trkpt>
			<trkpt lat="54.398390" lon="22.629610"><ele>202.4</ele><time>2026-07-14T20:52:19Z</time></trkpt>
			<trkpt lat="54.396670" lon="22.632770"><ele>201.3</ele><time>2026-07-14T20:52:28Z</time></trkpt>
			<trkpt lat="54.395170" lon="22.634710"><ele>204.6</ele><time>2026-07-14T20:52:36Z</time></trkpt>
			<trkpt lat="54.393620" lon="22.637170"><ele>204.2</ele><time>2026-07-14T20:52:45Z</time></trkpt>
			<trkpt lat="54.391960" lon="22.639900"><ele>198.6</ele><time>2026-07-14T20:52:53Z</time></trkpt>
			<trkpt lat="54.390550" lon="22.642460"><ele>183.3</ele><time>2026-07-14T20:53:01Z</time></trkpt>
			<trkpt lat="54.389490" lon="22.644380"><ele>189.2</ele><time>2026-07-14T20:53:10Z</time></trkpt>
			<trkpt lat="54.388960" lon="22.645460"><ele>191.1</ele><time>2026-07-14T20:53:18Z</time></trkpt>
			<trkpt lat="54.388670" lon="22.646730"><ele>197.0</ele><time>2026-07-14T20:53:27Z</time></trkpt>
			<trkpt lat="54.388340" lon="22.647990"><ele>194.2</ele><time>2026-07-14T20:53:35Z</time></trkpt>
			<trkpt lat="54.388150" lon="22.648630"><ele>189.9</ele><time>2026-07-14T20:53:43Z</time></trkpt>
			<trkpt lat="54.388020" lon="22.649710"><ele>185.4</ele><time>2026-07-14T20:53:52Z</time></trkpt>
			<trkpt lat="54.388010" lon="22.650280"><ele>184.4</ele><time>2026-07-14T20:54:00Z</time></trkpt>
			<trkpt lat="54.387990" lon="22.651340"><ele>184.8</ele><time>2026-07-14T20:54:09Z</time></trkpt>
			<trkpt lat="54.388010" lon="22.652260"><ele>184.9</ele><time>2026-07-14T20:54:17Z</time></trkpt>
			<trkpt lat="54.388040" lon="22.653030"><ele>184.9</ele><time>2026-07-14T20:54:25Z</time></trkpt>
			<trkpt lat="54.388070" lon="22.653560"><ele>184.7</ele><time>2026-07-14T20:54:34Z</time></trkpt>
			<trkpt lat="54.388010" lon="22.654140"><ele>184.2</ele><time>2026-07-14T20:54:42Z</time></trkpt>
			<trkpt lat="54.387680" lon="22.655970"><ele>186.6</ele><time>2026-07-14T20:54:51Z</time></trkpt>
			<trkpt lat="54.387450" lon="22.658610"><ele>192.6</ele><time>2026-07-14T20:54:59Z</time></trkpt>
			<trkpt lat="54.387180" lon="22.661250"><ele>194.6</ele><time>2026-07-14T20:55:07Z</time></trkpt>
			<trkpt lat="54.386930" lon="22.664420"><ele>196.9</ele><time>2026-07-14T20:55:16Z</time></trkpt>
			<trkpt lat="54.386820" lon="22.665460"><ele>200.6</ele><time>2026-07-14T20:55:24Z</time></trkpt>
			<trkpt lat="54.386730" lon="22.666460"><ele>204.8</ele><time>2026-07-14T20:55:33Z</time></trkpt>
			<trkpt lat="54.386600" lon="22.670570"><ele>207.3</ele><time>2026-07-14T20:55:41Z</time></trkpt>
			<trkpt lat="54.386470" lon="22.675730"><ele>209.7</ele><time>2026-07-14T20:55:49Z</time></trkpt>
			<trkpt lat="54.386480" lon="22.676890"><ele>209.6</ele><time>2026-07-14T20:55:58Z</time></trkpt>
			<trkpt lat="54.386490" lon="22.677510"><ele>208.9</ele><time>2026-07-14T20:56:06Z</time></trkpt>
			<trkpt lat="54.387050" lon="22.681500"><ele>206.9</ele><time>2026-07-14T20:56:15Z</time></trkpt>
			<trkpt lat="54.387050" lon="22.681500"><ele>206.9</ele><time>2026-07-14T20:56:21Z</time></trkpt>
			<trkpt lat="54.387660" lon="22.685640"><ele>204.0</ele><time>2026-07-14T20:56:27Z</time></trkpt>
			<trkpt lat="54.387950" lon="22.687690"><ele>209.9</ele><time>2026-07-14T20:56:33Z</time></trkpt>
			<trkpt lat="54.388360" lon="22.687700"><ele>210.2</ele><time>2026-07-14T20:56:39Z</time></trkpt>
			<trkpt lat="54.388540" lon="22.687760"><ele>210.4</ele><time>2026-07-14T20:56:45Z</time></trkpt>
			<trkpt lat="54.388710" lon="22.687770"><ele>210.8</ele><time>2026-07-14T20:56:51Z</time></trkpt>
			<trkpt lat="54.388940" lon="22.687650"><ele>211.3</ele><time>2026-07-14T20:56:57Z</time></trkpt>
			<trkpt lat="54.389280" lon="22.687390"><ele>211.1</ele><time>2026-07-14T20:57:03Z</time></trkpt>
			<trkpt lat="54.389650" lon="22.687170"><ele>208.4</ele><time>2026-07-14T20:57:09Z</time></trkpt>
			<trkpt lat="54.391100" lon="22.686590"><ele>202.1</ele><time>2026-07-14T20:57:16Z</time></trkpt>
			<trkpt lat="54.394050" lon="22.685370"><ele>203.7</ele><time>2026-07-14T20:57:22Z</time></trkpt>
			<trkpt lat="54.394720" lon="22.685200"><ele>201.8</ele><time>2026-07-14T20:57:28Z</time></trkpt>
			<trkpt lat="54.397790" lon="22.685520"><ele>209.0</ele><time>2026-07-14T20:57:34Z</time></trkpt>
			<trkpt lat="54.398060" lon="22.685520"><ele>206.6</ele><time>2026-07-14T20:57:40Z</time></trkpt>
			<trkpt lat="54.398310" lon="22.685570"><ele>204.7</ele><time>2026-07-14T20:57:46Z</time></trkpt>
			<trkpt lat="54.398570" lon="22.685690"><ele>202.7</ele><time>2026-07-14T20:57:52Z</time></trkpt>
			<trkpt lat="54.399010" lon="22.686130"><ele>198.6</ele><time>2026-07-14T20:57:58Z</time></trkpt>
			<trkpt lat="54.399430" lon="22.686630"><ele>198.3</ele><time>2026-07-14T20:58:04Z</time></trkpt>
			<trkpt lat="54.400920" lon="22.688280"><ele>194.7</ele><time>2026-07-14T20:58:10Z</time></trkpt>
			<trkpt lat="54.401090" lon="22.688420"><ele>194.8</ele><time>2026-07-14T20:58:16Z</time></trkpt>
			<trkpt lat="54.401800" lon="22.688790"><ele>195.2</ele><time>2026-07-14T20:58:23Z</time></trkpt>
			<trkpt lat="54.403040" lon="22.689340"><ele>192.8</ele><time>2026-07-14T20:58:29Z</time></trkpt>
			<trkpt lat="54.403250" lon="22.689290"><ele>192.0</ele><time>2026-07-14T20:58:35Z</time></trkpt>
			<trkpt lat="54.404730" lon="22.688780"><ele>187.7</ele><time>2026-07-14T20:58:41Z</time></trkpt>
			<trkpt lat="54.406540" lon="22.688020"><ele>186.7</ele><time>2026-07-14T20:58:47Z</time></trkpt>
			<trkpt lat="54.407080" lon="22.687800"><ele>185.9</ele><time>2026-07-14T20:58:53Z</time></trkpt>
			<trkpt lat="54.407240" lon="22.687740"><ele>185.6</ele><time>2026-07-14T20:58:59Z</time></trkpt>
			<trkpt lat="54.407490" lon="22.687730"><ele>185.3</ele><time>2026-07-14T20:59:05Z</time></trkpt>
			<trkpt lat="54.408610" lon="22.687980"><ele>188.3</ele><time>2026-07-14T20:59:11Z</time></trkpt>
			<trkpt lat="54.411260" lon="22.688690"><ele>185.7</ele><time>2026-07-14T20:59:17Z</time></trkpt>
			<trkpt lat="54.411440" lon="22.688730"><ele>185.2</ele><time>2026-07-14T20:59:23Z</time></trkpt>
			<trkpt lat="54.411490" lon="22.688740"><ele>185.1</ele><time>2026-07-14T20:59:30Z</time></trkpt>
			<trkpt lat="54.414130" lon="22.689290"><ele>184.8</ele><time>2026-07-14T20:59:36Z</time></trkpt>
			<trkpt lat="54.414650" lon="22.689440"><ele>182.2</ele><time>2026-07-14T20:59:42Z</time></trkpt>
			<trkpt lat="54.415850" lon="22.689640"><ele>178.1</ele><time>2026-07-14T20:59:48Z</time></trkpt>
			<trkpt lat="54.416030" lon="22.689670"><ele>177.7</ele><time>2026-07-14T20:59:54Z</time></trkpt>
			<trkpt lat="54.416220" lon="22.689670"><ele>177.2</ele><time>2026-07-14T21:00:00Z</time></trkpt>
			<trkpt lat="54.416420" lon="22.689610"><ele>176.6</ele><time>2026-07-14T21:00:06Z</time></trkpt>
			<trkpt lat="54.416850" lon="22.689280"><ele>175.5</ele><time>2026-07-14T21:00:12Z</time></trkpt>
			<trkpt lat="54.417000" lon="22.689170"><ele>175.2</ele><time>2026-07-14T21:00:18Z</time></trkpt>
			<trkpt lat="54.417260" lon="22.689080"><ele>174.6</ele><time>2026-07-14T21:00:24Z</time></trkpt>
			<trkpt lat="54.417400" lon="22.689070"><ele>174.2</ele><time>2026-07-14T21:00:30Z</time></trkpt>
			<trkpt lat="54.417600" lon="22.689120"><ele>173.5</ele><time>2026-07-14T21:00:37Z</time></trkpt>
			<trkpt lat="54.417750" lon="22.689100"><ele>172.9</ele><time>2026-07-14T21:00:43Z</time></trkpt>
			<trkpt lat="54.417930" lon="22.688980"><ele>172.6</ele><time>2026-07-14T21:00:49Z</time></trkpt>
			<trkpt lat="54.419210" lon="22.687960"><ele>173.1</ele><time>2026-07-14T21:00:55Z</time></trkpt>
			<trkpt lat="54.419950" lon="22.687500"><ele>174.6</ele><time>2026-07-14T21:01:01Z</time></trkpt>
			<trkpt lat="54.420660" lon="22.687130"><ele>173.6</ele><time>2026-07-14T21:01:07Z</time></trkpt>
			<trkpt lat="54.421630" lon="22.686750"><ele>174.6</ele><time>2026-07-14T21:01:13Z</time></trkpt>
			<trkpt lat="54.421930" lon="22.686610"><ele>174.3</ele><time>2026-07-14T21:01:19Z</time></trkpt>
			<trkpt lat="54.422080" lon="22.686490"><ele>173.9</ele><time>2026-07-14T21:01:25Z</time></trkpt>
			<trkpt lat="54.422150" lon="22.686430"><ele>173.8</ele><time>2026-07-14T21:01:31Z</time></trkpt>
			<trkpt lat="54.422260" lon="22.686330"><ele>173.8</ele><time>2026-07-14T21:01:37Z</time></trkpt>
			<trkpt lat="54.422430" lon="22.686060"><ele>173.7</ele><time>2026-07-14T21:01:44Z</time></trkpt>
			<trkpt lat="54.424220" lon="22.680790"><ele>180.0</ele><time>2026-07-14T21:01:50Z</time></trkpt>
			<trkpt lat="54.424420" lon="22.680330"><ele>180.7</ele><time>2026-07-14T21:01:56Z</time></trkpt>
			<trkpt lat="54.424590" lon="22.680200"><ele>180.3</ele><time>2026-07-14T21:02:02Z</time></trkpt>
			<trkpt lat="54.424770" lon="22.680140"><ele>179.6</ele><time>2026-07-14T21:02:08Z</time></trkpt>
			<trkpt lat="54.426680" lon="22.680140"><ele>177.7</ele><time>2026-07-14T21:02:14Z</time></trkpt>
			<trkpt lat="54.428210" lon="22.680110"><ele>173.6</ele><time>2026-07-14T21:02:20Z</time></trkpt>
			<trkpt lat="54.429300" lon="22.680110"><ele>173.7</ele><time>2026-07-14T21:02:26Z</time></trkpt>
			<trkpt lat="54.430390" lon="22.680250"><ele>176.8</ele><time>2026-07-14T21:02:32Z</time></trkpt>
			<trkpt lat="54.432400" lon="22.680560"><ele>179.4</ele><time>2026-07-14T21:02:38Z</time></trkpt>
			<trkpt lat="54.433740" lon="22.680720"><ele>184.6</ele><time>2026-07-14T21:02:44Z</time></trkpt>
			<trkpt lat="54.434410" lon="22.680630"><ele>187.0</ele><time>2026-07-14T21:02:51Z</time></trkpt>
			<trkpt lat="54.434970" lon="22.680480"><ele>187.8</ele><time>2026-07-14T21:02:57Z</time></trkpt>
			<trkpt lat="54.435590" lon="22.680190"><ele>185.5</ele><time>2026-07-14T21:03:03Z</time></trkpt>
			<trkpt lat="54.436960" lon="22.679380"><ele>185.1</ele><time>2026-07-14T21:03:09Z</time></trkpt>
			<trkpt lat="54.437770" lon="22.679080"><ele>185.8</ele><time>2026-07-14T21:03:15Z</time></trkpt>
			<trkpt lat="54.438830" lon="22.678730"><ele>189.1</ele><time>2026-07-14T21:03:21Z</time></trkpt>
			<trkpt lat="54.440020" lon="22.678260"><ele>189.4</ele><time>2026-07-14T21:03:27Z</time></trkpt>
			<trkpt lat="54.441760" lon="22.677700"><ele>189.6</ele><time>2026-07-14T21:03:33Z</time></trkpt>
			<trkpt lat="54.442100" lon="22.677540"><ele>190.1</ele><time>2026-07-14T21:03:39Z</time></trkpt>
			<trkpt lat="54.443950" lon="22.676390"><ele>187.7</ele><time>2026-07-14T21:03:45Z</time></trkpt>
			<trkpt lat="54.445350" lon="22.675510"><ele>188.0</ele><time>2026-07-14T21:03:51Z</time></trkpt>
			<trkpt lat="54.446330" lon="22.674880"><ele>186.8</ele><time>2026-07-14T21:03:58Z</time></trkpt>
			<trkpt lat="54.447320" lon="22.674260"><ele>187.3</ele><time>2026-07-14T21:04:04Z</time></trkpt>
			<trkpt lat="54.447740" lon="22.673980"><ele>186.9</ele><time>2026-07-14T21:04:10Z</time></trkpt>
			<trkpt lat="54.447940" lon="22.673800"><ele>186.6</ele><time>2026-07-14T21:04:16Z</time></trkpt>
			<trkpt lat="54.448090" lon="22.673620"><ele>186.1</ele><time>2026-07-14T21:04:22Z</time></trkpt>
			<trkpt lat="54.448320" lon="22.673240"><ele>185.4</ele><time>2026-07-14T21:04:28Z</time></trkpt>
			<trkpt lat="54.449110" lon="22.671800"><ele>183.9</ele><time>2026-07-14T21:04:34Z</time></trkpt>
			<trkpt lat="54.449860" lon="22.670460"><ele>185.1</ele><time>2026-07-14T21:04:40Z</time></trkpt>
			<trkpt lat="54.450710" lon="22.668900"><ele>178.1</ele><time>2026-07-14T21:04:46Z</time></trkpt>
			<trkpt lat="54.450920" lon="22.668530"><ele>176.5</ele><time>2026-07-14T21:04:52Z</time></trkpt>
			<trkpt lat="54.451370" lon="22.667760"><ele>173.5</ele><time>2026-07-14T21:04:58Z</time></trkpt>
			<trkpt lat="54.451470" lon="22.667600"><ele>172.7</ele><time>2026-07-14T21:05:05Z</time></trkpt>
			<trkpt lat="54.451580" lon="22.667500"><ele>171.9</ele><time>2026-07-14T21:05:11Z</time></trkpt>
			<trkpt lat="54.452010" lon="22.667240"><ele>169.6</ele><time>2026-07-14T21:05:17Z</time></trkpt>
			<trkpt lat="54.452140" lon="22.667140"><ele>169.2</ele><time>2026-07-14T21:05:23Z</time></trkpt>
			<trkpt lat="54.452310" lon="22.666970"><ele>169.0</ele><time>2026-07-14T21:05:29Z</time></trkpt>
			<trkpt lat="54.452420" lon="22.666810"><ele>168.9</ele><time>2026-07-14T21:05:35Z</time></trkpt>
			<trkpt lat="54.452520" lon="22.666630"><ele>169.1</ele><time>2026-07-14T21:05:41Z</time></trkpt>
			<trkpt lat="54.452620" lon="22.666380"><ele>169.4</ele><time>2026-07-14T21:05:47Z</time></trkpt>
			<trkpt lat="54.452730" lon="22.666070"><ele>169.7</ele><time>2026-07-14T21:05:53Z</time></trkpt>
			<trkpt lat="54.452940" lon="22.665600"><ele>170.2</ele><time>2026-07-14T21:05:59Z</time></trkpt>
			<trkpt lat="54.453300" lon="22.664920"><ele>170.9</ele><time>2026-07-14T21:06:05Z</time></trkpt>
			<trkpt lat="54.453500" lon="22.664610"><ele>171.2</ele><time>2026-07-14T21:06:12Z</time></trkpt>
			<trkpt lat="54.454120" lon="22.663760"><ele>172.4</ele><time>2026-07-14T21:06:18Z</time></trkpt>
			<trkpt lat="54.458790" lon="22.657440"><ele>189.0</ele><time>2026-07-14T21:06:24Z</time></trkpt>
			<trkpt lat="54.459050" lon="22.657130"><ele>188.1</ele><time>2026-07-14T21:06:30Z</time></trkpt>
			<trkpt lat="54.459420" lon="22.656750"><ele>186.4</ele><time>2026-07-14T21:06:36Z</time></trkpt>
			<trkpt lat="54.462880" lon="22.653440"><ele>175.1</ele><time>2026-07-14T21:06:42Z</time></trkpt>
			<trkpt lat="54.463120" lon="22.653250"><ele>174.5</ele><time>2026-07-14T21:06:48Z</time></trkpt>
			<trkpt lat="54.463320" lon="22.653180"><ele>174.1</ele><time>2026-07-14T21:06:54Z</time></trkpt>
			<trkpt lat="54.463430" lon="22.653170"><ele>173.9</ele><time>2026-07-14T21:07:00Z</time></trkpt>
			<trkpt lat="54.463540" lon="22.653190"><ele>173.7</ele><time>2026-07-14T21:07:06Z</time></trkpt>
			<trkpt lat="54.463630" lon="22.653220"><ele>173.6</ele><time>2026-07-14T21:07:12Z</time></trkpt>
			<trkpt lat="54.465460" lon="22.654140"><ele>174.1</ele><time>2026-07-14T21:07:19Z</time></trkpt>
			<trkpt lat="54.466390" lon="22.654900"><ele>177.3</ele><time>2026-07-14T21:07:25Z</time></trkpt>
			<trkpt lat="54.467920" lon="22.656240"><ele>174.0</ele><time>2026-07-14T21:07:31Z</time></trkpt>
			<trkpt lat="54.468230" lon="22.656480"><ele>173.4</ele><time>2026-07-14T21:07:37Z</time></trkpt>
			<trkpt lat="54.468500" lon="22.656680"><ele>172.8</ele><time>2026-07-14T21:07:43Z</time></trkpt>
			<trkpt lat="54.470820" lon="22.658170"><ele>170.9</ele><time>2026-07-14T21:07:49Z</time></trkpt>
			<trkpt lat="54.472320" lon="22.659110"><ele>168.9</ele><time>2026-07-14T21:07:55Z</time></trkpt>
			<trkpt lat="54.473810" lon="22.660080"><ele>166.7</ele><time>2026-07-14T21:08:01Z</time></trkpt>
			<trkpt lat="54.474150" lon="22.660270"><ele>165.7</ele><time>2026-07-14T21:08:07Z</time></trkpt>
			<trkpt lat="54.474360" lon="22.660360"><ele>165.3</ele><time>2026-07-14T21:08:13Z</time></trkpt>
			<trkpt lat="54.474810" lon="22.660500"><ele>164.8</ele><time>2026-07-14T21:08:19Z</time></trkpt>
			<trkpt lat="54.475740" lon="22.660710"><ele>163.8</ele><time>2026-07-14T21:08:26Z</time></trkpt>
			<trkpt lat="54.477460" lon="22.661180"><ele>165.0</ele><time>2026-07-14T21:08:32Z</time></trkpt>
			<trkpt lat="54.479720" lon="22.661700"><ele>168.5</ele><time>2026-07-14T21:08:38Z</time></trkpt>
			<trkpt lat="54.479960" lon="22.661790"><ele>168.4</ele><time>2026-07-14T21:08:44Z</time></trkpt>
			<trkpt lat="54.480310" lon="22.662000"><ele>168.1</ele><time>2026-07-14T21:08:50Z</time></trkpt>
			<trkpt lat="54.482150" lon="22.663280"><ele>167.7</ele><time>2026-07-14T21:08:56Z</time></trkpt>
			<trkpt lat="54.482380" lon="22.663440"><ele>167.4</ele><time>2026-07-14T21:09:02Z</time></trkpt>
			<trkpt lat="54.482540" lon="22.663600"><ele>167.4</ele><time>2026-07-14T21:09:08Z</time></trkpt>
			<trkpt lat="54.482710" lon="22.663830"><ele>168.0</ele><time>2026-07-14T21:09:14Z</time></trkpt>
			<trkpt lat="54.483110" lon="22.664400"><ele>169.4</ele><time>2026-07-14T21:09:20Z</time></trkpt>
			<trkpt lat="54.483260" lon="22.664590"><ele>169.8</ele><time>2026-07-14T21:09:26Z</time></trkpt>
			<trkpt lat="54.483390" lon="22.664730"><ele>170.0</ele><time>2026-07-14T21:09:33Z</time></trkpt>
			<trkpt lat="54.483520" lon="22.664840"><ele>170.0</ele><time>2026-07-14T21:09:39Z</time></trkpt>
			<trkpt lat="54.483730" lon="22.664890"><ele>169.9</ele><time>2026-07-14T21:09:45Z</time></trkpt>
			<trkpt lat="54.484230" lon="22.665030"><ele>169.6</ele><time>2026-07-14T21:09:51Z</time></trkpt>
			<trkpt lat="54.484370" lon="22.665080"><ele>169.3</ele><time>2026-07-14T21:09:57Z</time></trkpt>
			<trkpt lat="54.484460" lon="22.665140"><ele>169.1</ele><time>2026-07-14T21:10:03Z</time></trkpt>
			<trkpt lat="54.484610" lon="22.665390"><ele>168.7</ele><time>2026-07-14T21:10:09Z</time></trkpt>
			<trkpt lat="54.484950" lon="22.665950"><ele>168.4</ele><time>2026-07-14T21:10:15Z</time></trkpt>
			<trkpt lat="54.485210" lon="22.666330"><ele>169.2</ele><time>2026-07-14T21:10:21Z</time></trkpt>
			<trkpt lat="54.485340" lon="22.666440"><ele>169.6</ele><time>2026-07-14T21:10:27Z</time></trkpt>
			<trkpt lat="54.485420" lon="22.666470"><ele>169.9</ele><time>2026-07-14T21:10:33Z</time></trkpt>
			<trkpt lat="54.485500" lon="22.666470"><ele>170.1</ele><time>2026-07-14T21:10:40Z</time></trkpt>
			<trkpt lat="54.485640" lon="22.666420"><ele>170.4</ele><time>2026-07-14T21:10:46Z</time></trkpt>
			<trkpt lat="54.486780" lon="22.665790"><ele>171.5</ele><time>2026-07-14T21:10:52Z</time></trkpt>
			<trkpt lat="54.487560" lon="22.665340"><ele>169.9</ele><time>2026-07-14T21:10:58Z</time></trkpt>
			<trkpt lat="54.488690" lon="22.664790"><ele>169.7</ele><time>2026-07-14T21:11:04Z</time></trkpt>
			<trkpt lat="54.489690" lon="22.664320"><ele>169.3</ele><time>2026-07-14T21:11:10Z</time></trkpt>
			<trkpt lat="54.495010" lon="22.661720"><ele>160.5</ele><time>2026-07-14T21:11:16Z</time></trkpt>
			<trkpt lat="54.497360" lon="22.660350"><ele>155.0</ele><time>2026-07-14T21:11:22Z</time></trkpt>
			<trkpt lat="54.497740" lon="22.660100"><ele>153.6</ele><time>2026-07-14T21:11:28Z</time></trkpt>
			<trkpt lat="54.497970" lon="22.659930"><ele>152.8</ele><time>2026-07-14T21:11:34Z</time></trkpt>
			<trkpt lat="54.498200" lon="22.659710"><ele>152.2</ele><time>2026-07-14T21:11:40Z</time></trkpt>
			<trkpt lat="54.498380" lon="22.659530"><ele>151.9</ele><time>2026-07-14T21:11:47Z</time></trkpt>
			<trkpt lat="54.498550" lon="22.659340"><ele>151.5</ele><time>2026-07-14T21:11:53Z</time></trkpt>
			<trkpt lat="54.500670" lon="22.656490"><ele>144.4</ele><time>2026-07-14T21:11:59Z</time></trkpt>
			<trkpt lat="54.500850" lon="22.656310"><ele>144.1</ele><time>2026-07-14T21:12:05Z</time></trkpt>
			<trkpt lat="54.501030" lon="22.656180"><ele>143.6</ele><time>2026-07-14T21:12:11Z</time></trkpt>
			<trkpt lat="54.501230" lon="22.656110"><ele>143.1</ele><time>2026-07-14T21:12:17Z</time></trkpt>
			<trkpt lat="54.502240" lon="22.655840"><ele>140.6</ele><time>2026-07-14T21:12:23Z</time></trkpt>
			<trkpt lat="54.503350" lon="22.655540"><ele>136.4</ele><time>2026-07-14T21:12:29Z</time></trkpt>
			<trkpt lat="54.503620" lon="22.655510"><ele>135.7</ele><time>2026-07-14T21:12:35Z</time></trkpt>
			<trkpt lat="54.503910" lon="22.655530"><ele>135.2</ele><time>2026-07-14T21:12:41Z</time></trkpt>
			<trkpt lat="54.504180" lon="22.655590"><ele>134.7</ele><time>2026-07-14T21:12:47Z</time></trkpt>
			<trkpt lat="54.504530" lon="22.655700"><ele>134.0</ele><time>2026-07-14T21:12:54Z</time></trkpt>
			<trkpt lat="54.505680" lon="22.656160"><ele>134.6</ele><time>2026-07-14T21:13:00Z</time></trkpt>
			<trkpt lat="54.506830" lon="22.656610"><ele>136.4</ele><time>2026-07-14T21:13:06Z</time></trkpt>
			<trkpt lat="54.507400" lon="22.656850"><ele>136.1</ele><time>2026-07-14T21:13:12Z</time></trkpt>
			<trkpt lat="54.507900" lon="22.657100"><ele>135.6</ele><time>2026-07-14T21:13:18Z</time></trkpt>
			<trkpt lat="54.508870" lon="22.657550"><ele>133.5</ele><time>2026-07-14T21:13:24Z</time></trkpt>
			<trkpt lat="54.508990" lon="22.657610"><ele>133.1</ele><time>2026-07-14T21:13:30Z</time></trkpt>
			<trkpt lat="54.509180" lon="22.657690"><ele>132.5</ele><time>2026-07-14T21:13:36Z</time></trkpt>
			<trkpt lat="54.509750" lon="22.657950"><ele>131.3</ele><time>2026-07-14T21:13:42Z</time></trkpt>
			<trkpt lat="54.509890" lon="22.658000"><ele>131.1</ele><time>2026-07-14T21:13:48Z</time></trkpt>
			<trkpt lat="54.510000" lon="22.658010"><ele>130.9</ele><time>2026-07-14T21:13:54Z</time></trkpt>
			<trkpt lat="54.510080" lon="22.658000"><ele>130.9</ele><time>2026-07-14T21:14:01Z</time></trkpt>
			<trkpt lat="54.510250" lon="22.657910"><ele>130.8</ele><time>2026-07-14T21:14:07Z</time></trkpt>
			<trkpt lat="54.510310" lon="22.657860"><ele>130.7</ele><time>2026-07-14T21:14:13Z</time></trkpt>
			<trkpt lat="54.510390" lon="22.657750"><ele>130.6</ele><time>2026-07-14T21:14:19Z</time></trkpt>
			<trkpt lat="54.510520" lon="22.657560"><ele>130.4</ele><time>2026-07-14T21:14:25Z</time></trkpt>
			<trkpt lat="54.510600" lon="22.657450"><ele>130.5</ele><time>2026-07-14T21:14:31Z</time></trkpt>
			<trkpt lat="54.510670" lon="22.657300"><ele>131.0</ele><time>2026-07-14T21:14:37Z</time></trkpt>
			<trkpt lat="54.510730" lon="22.657140"><ele>131.5</ele><time>2026-07-14T21:14:43Z</time></trkpt>
			<trkpt lat="54.510770" lon="22.656970"><ele>132.0</ele><time>2026-07-14T21:14:49Z</time></trkpt>
			<trkpt lat="54.510800" lon="22.656760"><ele>131.9</ele><time>2026-07-14T21:14:55Z</time></trkpt>
			<trkpt lat="54.510830" lon="22.656390"><ele>131.9</ele><time>2026-07-14T21:15:01Z</time></trkpt>
			<trkpt lat="54.510850" lon="22.656210"><ele>131.4</ele><time>2026-07-14T21:15:08Z</time></trkpt>
			<trkpt lat="54.510880" lon="22.656070"><ele>131.0</ele><time>2026-07-14T21:15:14Z</time></trkpt>
			<trkpt lat="54.510930" lon="22.655960"><ele>130.6</ele><time>2026-07-14T21:15:20Z</time></trkpt>
			<trkpt lat="54.511020" lon="22.655840"><ele>130.0</ele><time>2026-07-14T21:15:26Z</time></trkpt>
			<trkpt lat="54.511250" lon="22.655700"><ele>129.4</ele><time>2026-07-14T21:15:32Z</time></trkpt>
			<trkpt lat="54.511430" lon="22.655620"><ele>129.0</ele><time>2026-07-14T21:15:38Z</time></trkpt>
			<trkpt lat="54.511600" lon="22.655570"><ele>128.6</ele><time>2026-07-14T21:15:44Z</time></trkpt>
			<trkpt lat="54.511780" lon="22.655580"><ele>128.3</ele><time>2026-07-14T21:15:50Z</time></trkpt>
			<trkpt lat="54.512100" lon="22.655660"><ele>127.8</ele><time>2026-07-14T21:15:56Z</time></trkpt>
			<trkpt lat="54.512240" lon="22.655680"><ele>127.5</ele><time>2026-07-14T21:16:02Z</time></trkpt>
			<trkpt lat="54.512310" lon="22.655670"><ele>127.3</ele><time>2026-07-14T21:16:08Z</time></trkpt>
			<trkpt lat="54.512470" lon="22.655650"><ele>127.0</ele><time>2026-07-14T21:16:15Z</time></trkpt>
			<trkpt lat="54.512550" lon="22.655630"><ele>126.9</ele><time>2026-07-14T21:16:21Z</time></trkpt>
			<trkpt lat="54.512720" lon="22.655600"><ele>126.7</ele><time>2026-07-14T21:16:27Z</time></trkpt>
			<trkpt lat="54.512950" lon="22.655550"><ele>126.8</ele><time>2026-07-14T21:16:33Z</time></trkpt>
			<trkpt lat="54.513010" lon="22.655520"><ele>126.8</ele><time>2026-07-14T21:16:39Z</time></trkpt>
			<trkpt lat="54.513140" lon="22.655340"><ele>127.0</ele><time>2026-07-14T21:16:45Z</time></trkpt>
			<trkpt lat="54.513220" lon="22.655160"><ele>127.5</ele><time>2026-07-14T21:16:51Z</time></trkpt>
			<trkpt lat="54.513410" lon="22.654610"><ele>128.6</ele><time>2026-07-14T21:16:57Z</time></trkpt>
			<trkpt lat="54.513520" lon="22.654290"><ele>129.3</ele><time>2026-07-14T21:17:03Z</time></trkpt>
			<trkpt lat="54.513610" lon="22.654080"><ele>129.7</ele><time>2026-07-14T21:17:09Z</time></trkpt>
			<trkpt lat="54.513670" lon="22.653980"><ele>129.9</ele><time>2026-07-14T21:17:15Z</time></trkpt>
			<trkpt lat="54.513800" lon="22.653730"><ele>130.4</ele><time>2026-07-14T21:17:22Z</time></trkpt>
			<trkpt lat="54.514020" lon="22.653370"><ele>131.4</ele><time>2026-07-14T21:17:28Z</time></trkpt>
			<trkpt lat="54.514210" lon="22.653060"><ele>132.0</ele><time>2026-07-14T21:17:34Z</time></trkpt>
			<trkpt lat="54.514320" lon="22.652900"><ele>132.3</ele><time>2026-07-14T21:17:40Z</time></trkpt>
			<trkpt lat="54.514450" lon="22.652730"><ele>132.6</ele><time>2026-07-14T21:17:46Z</time></trkpt>
			<trkpt lat="54.514540" lon="22.652650"><ele>132.8</ele><time>2026-07-14T21:17:52Z</time></trkpt>
			<trkpt lat="54.514620" lon="22.652630"><ele>132.9</ele><time>2026-07-14T21:17:58Z</time></trkpt>
			<trkpt lat="54.514680" lon="22.652640"><ele>133.0</ele><time>2026-07-14T21:18:04Z</time></trkpt>
			<trkpt lat="54.514740" lon="22.652670"><ele>133.1</ele><time>2026-07-14T21:18:10Z</time></trkpt>
			<trkpt lat="54.515200" lon="22.653100"><ele>133.6</ele><time>2026-07-14T21:18:16Z</time></trkpt>
			<trkpt lat="54.515240" lon="22.653140"><ele>133.7</ele><time>2026-07-14T21:18:23Z</time></trkpt>
			<trkpt lat="54.515470" lon="22.653350"><ele>134.1</ele><time>2026-07-14T21:18:29Z</time></trkpt>
			<trkpt lat="54.515700" lon="22.653540"><ele>134.9</ele><time>2026-07-14T21:18:35Z</time></trkpt>
			<trkpt lat="54.515830" lon="22.653650"><ele>135.4</ele><time>2026-07-14T21:18:41Z</time></trkpt>
			<trkpt lat="54.516830" lon="22.654270"><ele>135.7</ele><time>2026-07-14T21:18:47Z</time></trkpt>
			<trkpt lat="54.517200" lon="22.654500"><ele>135.0</ele><time>2026-07-14T21:18:53Z</time></trkpt>
			<trkpt lat="54.517320" lon="22.654570"><ele>134.7</ele><time>2026-07-14T21:18:59Z</time></trkpt>
			<trkpt lat="54.517620" lon="22.654730"><ele>133.9</ele><time>2026-07-14T21:19:05Z</time></trkpt>
			<trkpt lat="54.517790" lon="22.654780"><ele>133.3</ele><time>2026-07-14T21:19:11Z</time></trkpt>
			<trkpt lat="54.517830" lon="22.654790"><ele>133.2</ele><time>2026-07-14T21:19:17Z</time></trkpt>
			<trkpt lat="54.517970" lon="22.654830"><ele>132.7</ele><time>2026-07-14T21:19:23Z</time></trkpt>
			<trkpt lat="54.518230" lon="22.654880"><ele>132.0</ele><time>2026-07-14T21:19:30Z</time></trkpt>
			<trkpt lat="54.518670" lon="22.654850"><ele>130.3</ele><time>2026-07-14T21:19:36Z</time></trkpt>
			<trkpt lat="54.519080" lon="22.654740"><ele>128.4</ele><time>2026-07-14T21:19:42Z</time></trkpt>
			<trkpt lat="54.519640" lon="22.654550"><ele>125.4</ele><time>2026-07-14T21:19:48Z</time></trkpt>
			<trkpt lat="54.519730" lon="22.654520"><ele>124.9</ele><time>2026-07-14T21:19:54Z</time></trkpt>
			<trkpt lat="54.528790" lon="22.651440"><ele>119.4</ele><time>2026-07-14T21:20:00Z</time></trkpt>
			<trkpt lat="54.528890" lon="22.651410"><ele>119.3</ele><time>2026-07-14T21:20:06Z</time></trkpt>
			<trkpt lat="54.529140" lon="22.651410"><ele>119.1</ele><time>2026-07-14T21:20:12Z</time></trkpt>
			<trkpt lat="54.529270" lon="22.651420"><ele>119.0</ele><time>2026-07-14T21:20:18Z</time></trkpt>
			<trkpt lat="54.529660" lon="22.651510"><ele>118.7</ele><time>2026-07-14T21:20:24Z</time></trkpt>
			<trkpt lat="54.532920" lon="22.652340"><ele>117.5</ele><time>2026-07-14T21:20:30Z</time></trkpt>
			<trkpt lat="54.533740" lon="22.652460"><ele>116.8</ele><time>2026-07-14T21:20:37Z</time></trkpt>
			<trkpt lat="54.535950" lon="22.652700"><ele>108.3</ele><time>2026-07-14T21:20:43Z</time></trkpt>
			<trkpt lat="54.536650" lon="22.652790"><ele>107.9</ele><time>2026-07-14T21:20:49Z</time></trkpt>
			<trkpt lat="54.536940" lon="22.652810"><ele>107.3</ele><time>2026-07-14T21:20:55Z</time></trkpt>
			<trkpt lat="54.537690" lon="22.652740"><ele>106.4</ele><time>2026-07-14T21:21:01Z</time></trkpt>
			<trkpt lat="54.538550" lon="22.652540"><ele>107.0</ele><time>2026-07-14T21:21:07Z</time></trkpt>
			<trkpt lat="54.538730" lon="22.652450"><ele>106.5</ele><time>2026-07-14T21:21:13Z</time></trkpt>
			<trkpt lat="54.538850" lon="22.652360"><ele>106.1</ele><time>2026-07-14T21:21:19Z</time></trkpt>
			<trkpt lat="54.538980" lon="22.652230"><ele>105.9</ele><time>2026-07-14T21:21:25Z</time></trkpt>
			<trkpt lat="54.539940" lon="22.651230"><ele>104.6</ele><time>2026-07-14T21:21:31Z</time></trkpt>
			<trkpt lat="54.541910" lon="22.649030"><ele>100.1</ele><time>2026-07-14T21:21:37Z</time></trkpt>
			<trkpt lat="54.545030" lon="22.645390"><ele>99.3</ele><time>2026-07-14T21:21:44Z</time></trkpt>
			<trkpt lat="54.545840" lon="22.644400"><ele>100.2</ele><time>2026-07-14T21:21:50Z</time></trkpt>
			<trkpt lat="54.546290" lon="22.643640"><ele>97.0</ele><time>2026-07-14T21:21:56Z</time></trkpt>
			<trkpt lat="54.547910" lon="22.641150"><ele>92.4</ele><time>2026-07-14T21:22:02Z</time></trkpt>
			<trkpt lat="54.547980" lon="22.641030"><ele>92.2</ele><time>2026-07-14T21:22:08Z</time></trkpt>
			<trkpt lat="54.548060" lon="22.640840"><ele>92.1</ele><time>2026-07-14T21:22:14Z</time></trkpt>
			<trkpt lat="54.548100" lon="22.640740"><ele>92.0</ele><time>2026-07-14T21:22:20Z</time></trkpt>
			<trkpt lat="54.548260" lon="22.640170"><ele>89.7</ele><time>2026-07-14T21:22:26Z</time></trkpt>
			<trkpt lat="54.548300" lon="22.640050"><ele>89.2</ele><time>2026-07-14T21:22:32Z</time></trkpt>
			<trkpt lat="54.548350" lon="22.639940"><ele>88.7</ele><time>2026-07-14T21:22:38Z</time></trkpt>
			<trkpt lat="54.548470" lon="22.639760"><ele>87.7</ele><time>2026-07-14T21:22:44Z</time></trkpt>
			<trkpt lat="54.548810" lon="22.639380"><ele>86.2</ele><time>2026-07-14T21:22:51Z</time></trkpt>
			<trkpt lat="54.548890" lon="22.639260"><ele>86.0</ele><time>2026-07-14T21:22:57Z</time></trkpt>
			<trkpt lat="54.548970" lon="22.639130"><ele>85.8</ele><time>2026-07-14T21:23:03Z</time></trkpt>
			<trkpt lat="54.549050" lon="22.638970"><ele>85.6</ele><time>2026-07-14T21:23:09Z</time></trkpt>
			<trkpt lat="54.549290" lon="22.638340"><ele>85.2</ele><time>2026-07-14T21:23:15Z</time></trkpt>
			<trkpt lat="54.549370" lon="22.638170"><ele>85.0</ele><time>2026-07-14T21:23:21Z</time></trkpt>
			<trkpt lat="54.549440" lon="22.638070"><ele>84.9</ele><time>2026-07-14T21:23:27Z</time></trkpt>
			<trkpt lat="54.549570" lon="22.637910"><ele>84.8</ele><time>2026-07-14T21:23:33Z</time></trkpt>
			<trkpt lat="54.549650" lon="22.637840"><ele>84.9</ele><time>2026-07-14T21:23:39Z</time></trkpt>
			<trkpt lat="54.549750" lon="22.637770"><ele>85.0</ele><time>2026-07-14T21:23:45Z</time></trkpt>
			<trkpt lat="54.549970" lon="22.637700"><ele>85.1</ele><time>2026-07-14T21:23:51Z</time></trkpt>
			<trkpt lat="54.550080" lon="22.637690"><ele>85.2</ele><time>2026-07-14T21:23:58Z</time></trkpt>
			<trkpt lat="54.550320" lon="22.637680"><ele>85.2</ele><time>2026-07-14T21:24:04Z</time></trkpt>
			<trkpt lat="54.551140" lon="22.637700"><ele>84.8</ele><time>2026-07-14T21:24:10Z</time></trkpt>
			<trkpt lat="54.551520" lon="22.637770"><ele>84.7</ele><time>2026-07-14T21:24:16Z</time></trkpt>
			<trkpt lat="54.551890" lon="22.637860"><ele>84.1</ele><time>2026-07-14T21:24:22Z</time></trkpt>
			<trkpt lat="54.552310" lon="22.637990"><ele>83.5</ele><time>2026-07-14T21:24:28Z</time></trkpt>
			<trkpt lat="54.553060" lon="22.638190"><ele>84.1</ele><time>2026-07-14T21:24:34Z</time></trkpt>
			<trkpt lat="54.553460" lon="22.638250"><ele>84.4</ele><time>2026-07-14T21:24:40Z</time></trkpt>
			<trkpt lat="54.556640" lon="22.638390"><ele>83.0</ele><time>2026-07-14T21:24:46Z</time></trkpt>
			<trkpt lat="54.556870" lon="22.638380"><ele>83.3</ele><time>2026-07-14T21:24:52Z</time></trkpt>
			<trkpt lat="54.557060" lon="22.638360"><ele>83.5</ele><time>2026-07-14T21:24:58Z</time></trkpt>
			<trkpt lat="54.557280" lon="22.638310"><ele>83.7</ele><time>2026-07-14T21:25:05Z</time></trkpt>
			<trkpt lat="54.557450" lon="22.638250"><ele>83.7</ele><time>2026-07-14T21:25:11Z</time></trkpt>
			<trkpt lat="54.557730" lon="22.638090"><ele>83.3</ele><time>2026-07-14T21:25:17Z</time></trkpt>
			<trkpt lat="54.558000" lon="22.637900"><ele>82.9</ele><time>2026-07-14T21:25:23Z</time></trkpt>
			<trkpt lat="54.563940" lon="22.632550"><ele>74.0</ele><time>2026-07-14T21:25:29Z</time></trkpt>
			<trkpt lat="54.564140" lon="22.632390"><ele>73.8</ele><time>2026-07-14T21:25:35Z</time></trkpt>
			<trkpt lat="54.564340" lon="22.632250"><ele>73.6</ele><time>2026-07-14T21:25:41Z</time></trkpt>
			<trkpt lat="54.565340" lon="22.631880"><ele>73.0</ele><time>2026-07-14T21:25:47Z</time></trkpt>
			<trkpt lat="54.567600" lon="22.631200"><ele>73.0</ele><time>2026-07-14T21:25:53Z</time></trkpt>
			<trkpt lat="54.568220" lon="22.630980"><ele>73.0</ele><time>2026-07-14T21:25:59Z</time></trkpt>
			<trkpt lat="54.568640" lon="22.630660"><ele>72.8</ele><time>2026-07-14T21:26:05Z</time></trkpt>
			<trkpt lat="54.569110" lon="22.630160"><ele>73.6</ele><time>2026-07-14T21:26:12Z</time></trkpt>
			<trkpt lat="54.569810" lon="22.629120"><ele>72.9</ele><time>2026-07-14T21:26:18Z</time></trkpt>
			<trkpt lat="54.570190" lon="22.628680"><ele>72.2</ele><time>2026-07-14T21:26:24Z</time></trkpt>
			<trkpt lat="54.570760" lon="22.628180"><ele>71.1</ele><time>2026-07-14T21:26:30Z</time></trkpt>
			<trkpt lat="54.571260" lon="22.627700"><ele>71.5</ele><time>2026-07-14T21:26:36Z</time></trkpt>
			<trkpt lat="54.571770" lon="22.627270"><ele>72.1</ele><time>2026-07-14T21:26:42Z</time></trkpt>
			<trkpt lat="54.572370" lon="22.626470"><ele>73.4</ele><time>2026-07-14T21:26:48Z</time></trkpt>
			<trkpt lat="54.572800" lon="22.625800"><ele>72.6</ele><time>2026-07-14T21:26:54Z</time></trkpt>
			<trkpt lat="54.573190" lon="22.625080"><ele>71.2</ele><time>2026-07-14T21:27:00Z</time></trkpt>
			<trkpt lat="54.573560" lon="22.624480"><ele>70.8</ele><time>2026-07-14T21:27:06Z</time></trkpt>
			<trkpt lat="54.574480" lon="22.623250"><ele>70.4</ele><time>2026-07-14T21:27:12Z</time></trkpt>
			<trkpt lat="54.575410" lon="22.622060"><ele>70.1</ele><time>2026-07-14T21:27:19Z</time></trkpt>
			<trkpt lat="54.575760" lon="22.621780"><ele>70.0</ele><time>2026-07-14T21:27:25Z</time></trkpt>
			<trkpt lat="54.575940" lon="22.621690"><ele>70.2</ele><time>2026-07-14T21:27:31Z</time></trkpt>
			<trkpt lat="54.576460" lon="22.621620"><ele>71.5</ele><time>2026-07-14T21:27:37Z</time></trkpt>
			<trkpt lat="54.577920" lon="22.621600"><ele>73.9</ele><time>2026-07-14T21:27:43Z</time></trkpt>
			<trkpt lat="54.578480" lon="22.621570"><ele>75.1</ele><time>2026-07-14T21:27:49Z</time></trkpt>
			<trkpt lat="54.578620" lon="22.621530"><ele>75.2</ele><time>2026-07-14T21:27:55Z</time></trkpt>
			<trkpt lat="54.578860" lon="22.621410"><ele>75.5</ele><time>2026-07-14T21:28:01Z</time></trkpt>
			<trkpt lat="54.580800" lon="22.619490"><ele>74.0</ele><time>2026-07-14T21:28:07Z</time></trkpt>
			<trkpt lat="54.582920" lon="22.617330"><ele>76.6</ele><time>2026-07-14T21:28:13Z</time></trkpt>
			<trkpt lat="54.583130" lon="22.617020"><ele>77.2</ele><time>2026-07-14T21:28:19Z</time></trkpt>
			<trkpt lat="54.583750" lon="22.615780"><ele>75.2</ele><time>2026-07-14T21:28:26Z</time></trkpt>
			<trkpt lat="54.584500" lon="22.614110"><ele>74.8</ele><time>2026-07-14T21:28:32Z</time></trkpt>
			<trkpt lat="54.585230" lon="22.612630"><ele>74.2</ele><time>2026-07-14T21:28:38Z</time></trkpt>
			<trkpt lat="54.586520" lon="22.609960"><ele>78.5</ele><time>2026-07-14T21:28:44Z</time></trkpt>
			<trkpt lat="54.586710" lon="22.609580"><ele>79.3</ele><time>2026-07-14T21:28:50Z</time></trkpt>
			<trkpt lat="54.586830" lon="22.609370"><ele>79.6</ele><time>2026-07-14T21:28:56Z</time></trkpt>
			<trkpt lat="54.586920" lon="22.609270"><ele>79.5</ele><time>2026-07-14T21:29:02Z</time></trkpt>
			<trkpt lat="54.587030" lon="22.609200"><ele>79.4</ele><time>2026-07-14T21:29:08Z</time></trkpt>
			<trkpt lat="54.587150" lon="22.609170"><ele>79.2</ele><time>2026-07-14T21:29:14Z</time></trkpt>
			<trkpt lat="54.587320" lon="22.609170"><ele>78.6</ele><time>2026-07-14T21:29:20Z</time></trkpt>
			<trkpt lat="54.587540" lon="22.609180"><ele>78.0</ele><time>2026-07-14T21:29:26Z</time></trkpt>
			<trkpt lat="54.588090" lon="22.609240"><ele>77.3</ele><time>2026-07-14T21:29:33Z</time></trkpt>
			<trkpt lat="54.588140" lon="22.609250"><ele>77.3</ele><time>2026-07-14T21:29:39Z</time></trkpt>
			<trkpt lat="54.588420" lon="22.609250"><ele>76.9</ele><time>2026-07-14T21:29:45Z</time></trkpt>
			<trkpt lat="54.588560" lon="22.609230"><ele>76.8</ele><time>2026-07-14T21:29:51Z</time></trkpt>
			<trkpt lat="54.588750" lon="22.609170"><ele>76.5</ele><time>2026-07-14T21:29:57Z</time></trkpt>
			<trkpt lat="54.590270" lon="22.608540"><ele>78.8</ele><time>2026-07-14T21:30:03Z</time></trkpt>
			<trkpt lat="54.591320" lon="22.608170"><ele>80.3</ele><time>2026-07-14T21:30:09Z</time></trkpt>
			<trkpt lat="54.592210" lon="22.607940"><ele>78.5</ele><time>2026-07-14T21:30:15Z</time></trkpt>
			<trkpt lat="54.593120" lon="22.607730"><ele>77.8</ele><time>2026-07-14T21:30:21Z</time></trkpt>
			<trkpt lat="54.594640" lon="22.607370"><ele>77.3</ele><time>2026-07-14T21:30:27Z</time></trkpt>
			<trkpt lat="54.595360" lon="22.607180"><ele>75.3</ele><time>2026-07-14T21:30:33Z</time></trkpt>
			<trkpt lat="54.595690" lon="22.607100"><ele>74.5</ele><time>2026-07-14T21:30:40Z</time></trkpt>
			<trkpt lat="54.598210" lon="22.606500"><ele>73.0</ele><time>2026-07-14T21:30:46Z</time></trkpt>
			<trkpt lat="54.598610" lon="22.606480"><ele>71.2</ele><time>2026-07-14T21:30:52Z</time></trkpt>
			<trkpt lat="54.599270" lon="22.606170"><ele>68.4</ele><time>2026-07-14T21:30:58Z</time></trkpt>
			<trkpt lat="54.600800" lon="22.605370"><ele>67.1</ele><time>2026-07-14T21:31:04Z</time></trkpt>
			<trkpt lat="54.601430" lon="22.604940"><ele>67.5</ele><time>2026-07-14T21:31:10Z</time></trkpt>
			<trkpt lat="54.601530" lon="22.604830"><ele>67.6</ele><time>2026-07-14T21:31:16Z</time></trkpt>
			<trkpt lat="54.602030" lon="22.603930"><ele>67.9</ele><time>2026-07-14T21:31:22Z</time></trkpt>
			<trkpt lat="54.602110" lon="22.603760"><ele>67.7</ele><time>2026-07-14T21:31:28Z</time></trkpt>
			<trkpt lat="54.602170" lon="22.603580"><ele>67.4</ele><time>2026-07-14T21:31:34Z</time></trkpt>
			<trkpt lat="54.602230" lon="22.603330"><ele>67.0</ele><time>2026-07-14T21:31:40Z</time></trkpt>
			<trkpt lat="54.602290" lon="22.602920"><ele>66.4</ele><time>2026-07-14T21:31:47Z</time></trkpt>
			<trkpt lat="54.602330" lon="22.602770"><ele>66.2</ele><time>2026-07-14T21:31:53Z</time></trkpt>
			<trkpt lat="54.602380" lon="22.602640"><ele>65.9</ele><time>2026-07-14T21:31:59Z</time></trkpt>
			<trkpt lat="54.602430" lon="22.602560"><ele>65.6</ele><time>2026-07-14T21:32:05Z</time></trkpt>
			<trkpt lat="54.602500" lon="22.602500"><ele>65.3</ele><time>2026-07-14T21:32:11Z</time></trkpt>
			<trkpt lat="54.602590" lon="22.602460"><ele>65.0</ele><time>2026-07-14T21:32:17Z</time></trkpt>
			<trkpt lat="54.602640" lon="22.602450"><ele>64.8</ele><time>2026-07-14T21:32:23Z</time></trkpt>
			<trkpt lat="54.602690" lon="22.602460"><ele>64.8</ele><time>2026-07-14T21:32:29Z</time></trkpt>
			<trkpt lat="54.602790" lon="22.602490"><ele>64.7</ele><time>2026-07-14T21:32:35Z</time></trkpt>
			<trkpt lat="54.602910" lon="22.602610"><ele>64.7</ele><time>2026-07-14T21:32:41Z</time></trkpt>
			<trkpt lat="54.603220" lon="22.602970"><ele>64.7</ele><time>2026-07-14T21:32:47Z</time></trkpt>
			<trkpt lat="54.603330" lon="22.603040"><ele>64.7</ele><time>2026-07-14T21:32:54Z</time></trkpt>
			<trkpt lat="54.603480" lon="22.603090"><ele>64.8</ele><time>2026-07-14T21:33:00Z</time></trkpt>
			<trkpt lat="54.603600" lon="22.603230"><ele>64.9</ele><time>2026-07-14T21:33:06Z</time></trkpt>
			<trkpt lat="54.604010" lon="22.603810"><ele>66.1</ele><time>2026-07-14T21:33:12Z</time></trkpt>
			<trkpt lat="54.604340" lon="22.604400"><ele>67.6</ele><time>2026-07-14T21:33:18Z</time></trkpt>
			<trkpt lat="54.604450" lon="22.604610"><ele>68.0</ele><time>2026-07-14T21:33:24Z</time></trkpt>
			<trkpt lat="54.604510" lon="22.604770"><ele>68.2</ele><time>2026-07-14T21:33:30Z</time></trkpt>
			<trkpt lat="54.604560" lon="22.604930"><ele>68.4</ele><time>2026-07-14T21:33:36Z</time></trkpt>
			<trkpt lat="54.604590" lon="22.605140"><ele>68.7</ele><time>2026-07-14T21:33:42Z</time></trkpt>
			<trkpt lat="54.604640" lon="22.605920"><ele>69.9</ele><time>2026-07-14T21:33:48Z</time></trkpt>
			<trkpt lat="54.604660" lon="22.606010"><ele>70.1</ele><time>2026-07-14T21:33:54Z</time></trkpt>
			<trkpt lat="54.604720" lon="22.606150"><ele>70.4</ele><time>2026-07-14T21:34:01Z</time></trkpt>
			<trkpt lat="54.604790" lon="22.606220"><ele>70.6</ele><time>2026-07-14T21:34:07Z</time></trkpt>
			<trkpt lat="54.604870" lon="22.606260"><ele>70.9</ele><time>2026-07-14T21:34:13Z</time></trkpt>
			<trkpt lat="54.605190" lon="22.606340"><ele>71.5</ele><time>2026-07-14T21:34:19Z</time></trkpt>
			<trkpt lat="54.605460" lon="22.606340"><ele>71.3</ele><time>2026-07-14T21:34:25Z</time></trkpt>
			<trkpt lat="54.605920" lon="22.606280"><ele>71.0</ele><time>2026-07-14T21:34:31Z</time></trkpt>
			<trkpt lat="54.606510" lon="22.606160"><ele>70.7</ele><time>2026-07-14T21:34:37Z</time></trkpt>
			<trkpt lat="54.608720" lon="22.605660"><ele>67.7</ele><time>2026-07-14T21:34:43Z</time></trkpt>
			<trkpt lat="54.609780" lon="22.605430"><ele>69.9</ele><time>2026-07-14T21:34:49Z</time></trkpt>
			<trkpt lat="54.611590" lon="22.605020"><ele>67.8</ele><time>2026-07-14T21:34:55Z</time></trkpt>
			<trkpt lat="54.612590" lon="22.604810"><ele>65.0</ele><time>2026-07-14T21:35:01Z</time></trkpt>
			<trkpt lat="54.616030" lon="22.604180"><ele>64.9</ele><time>2026-07-14T21:35:08Z</time></trkpt>
			<trkpt lat="54.617140" lon="22.603940"><ele>65.0</ele><time>2026-07-14T21:35:14Z</time></trkpt>
			<trkpt lat="54.617340" lon="22.603820"><ele>64.9</ele><time>2026-07-14T21:35:20Z</time></trkpt>
			<trkpt lat="54.617610" lon="22.603610"><ele>64.6</ele><time>2026-07-14T21:35:26Z</time></trkpt>
			<trkpt lat="54.618360" lon="22.602730"><ele>65.4</ele><time>2026-07-14T21:35:32Z</time></trkpt>
			<trkpt lat="54.621250" lon="22.599460"><ele>66.5</ele><time>2026-07-14T21:35:38Z</time></trkpt>
			<trkpt lat="54.621930" lon="22.598610"><ele>67.1</ele><time>2026-07-14T21:35:44Z</time></trkpt>
			<trkpt lat="54.622660" lon="22.597840"><ele>69.8</ele><time>2026-07-14T21:35:50Z</time></trkpt>
			<trkpt lat="54.622750" lon="22.597710"><ele>70.0</ele><time>2026-07-14T21:35:56Z</time></trkpt>
			<trkpt lat="54.622790" lon="22.597630"><ele>70.0</ele><time>2026-07-14T21:36:02Z</time></trkpt>
			<trkpt lat="54.622820" lon="22.597540"><ele>70.1</ele><time>2026-07-14T21:36:08Z</time></trkpt>
			<trkpt lat="54.622850" lon="22.597410"><ele>70.2</ele><time>2026-07-14T21:36:15Z</time></trkpt>
			<trkpt lat="54.622890" lon="22.597080"><ele>70.2</ele><time>2026-07-14T21:36:21Z</time></trkpt>
			<trkpt lat="54.622960" lon="22.596620"><ele>70.1</ele><time>2026-07-14T21:36:27Z</time></trkpt>
			<trkpt lat="54.623360" lon="22.594750"><ele>70.6</ele><time>2026-07-14T21:36:33Z</time></trkpt>
			<trkpt lat="54.623840" lon="22.592230"><ele>68.4</ele><time>2026-07-14T21:36:39Z</time></trkpt>
			<trkpt lat="54.624420" lon="22.589480"><ele>68.1</ele><time>2026-07-14T21:36:45Z</time></trkpt>
			<trkpt lat="54.625050" lon="22.586390"><ele>67.9</ele><time>2026-07-14T21:36:51Z</time></trkpt>
			<trkpt lat="54.625160" lon="22.585940"><ele>67.9</ele><time>2026-07-14T21:36:57Z</time></trkpt>
			<trkpt lat="54.625270" lon="22.585560"><ele>68.1</ele><time>2026-07-14T21:37:03Z</time></trkpt>
			<trkpt lat="54.625470" lon="22.584990"><ele>69.0</ele><time>2026-07-14T21:37:09Z</time></trkpt>
			<trkpt lat="54.625570" lon="22.584730"><ele>69.5</ele><time>2026-07-14T21:37:15Z</time></trkpt>
			<trkpt lat="54.625880" lon="22.584020"><ele>70.9</ele><time>2026-07-14T21:37:22Z</time></trkpt>
			<trkpt lat="54.626320" lon="22.583050"><ele>71.1</ele><time>2026-07-14T21:37:28Z</time></trkpt>
			<trkpt lat="54.626620" lon="22.582360"><ele>71.5</ele><time>2026-07-14T21:37:34Z</time></trkpt>
			<trkpt lat="54.627150" lon="22.581030"><ele>69.5</ele><time>2026-07-14T21:37:40Z</time></trkpt>
			<trkpt lat="54.627340" lon="22.580450"><ele>69.7</ele><time>2026-07-14T21:37:46Z</time></trkpt>
			<trkpt lat="54.627460" lon="22.580190"><ele>69.9</ele><time>2026-07-14T21:37:52Z</time></trkpt>
			<trkpt lat="54.627500" lon="22.580120"><ele>69.9</ele><time>2026-07-14T21:37:58Z</time></trkpt>
			<trkpt lat="54.627810" lon="22.579730"><ele>69.5</ele><time>2026-07-14T21:38:04Z</time></trkpt>
			<trkpt lat="54.628020" lon="22.579460"><ele>69.1</ele><time>2026-07-14T21:38:10Z</time></trkpt>
			<trkpt lat="54.628200" lon="22.579180"><ele>69.1</ele><time>2026-07-14T21:38:16Z</time></trkpt>
			<trkpt lat="54.628220" lon="22.579130"><ele>69.1</ele><time>2026-07-14T21:38:22Z</time></trkpt>
			<trkpt lat="54.628240" lon="22.579070"><ele>69.2</ele><time>2026-07-14T21:38:29Z</time></trkpt>
			<trkpt lat="54.628240" lon="22.578950"><ele>69.3</ele><time>2026-07-14T21:38:35Z</time></trkpt>
			<trkpt lat="54.628220" lon="22.578720"><ele>69.5</ele><time>2026-07-14T21:38:41Z</time></trkpt>
			<trkpt lat="54.628130" lon="22.578190"><ele>70.3</ele><time>2026-07-14T21:38:47Z</time></trkpt>
			<trkpt lat="54.627690" lon="22.576020"><ele>72.3</ele><time>2026-07-14T21:38:53Z</time></trkpt>
			<trkpt lat="54.627680" lon="22.575920"><ele>72.1</ele><time>2026-07-14T21:38:59Z</time></trkpt>
			<trkpt lat="54.627690" lon="22.575710"><ele>71.7</ele><time>2026-07-14T21:39:05Z</time></trkpt>
			<trkpt lat="54.627730" lon="22.575610"><ele>71.4</ele><time>2026-07-14T21:39:11Z</time></trkpt>
			<trkpt lat="54.627790" lon="22.575490"><ele>71.0</ele><time>2026-07-14T21:39:17Z</time></trkpt>
			<trkpt lat="54.627830" lon="22.575430"><ele>70.7</ele><time>2026-07-14T21:39:23Z</time></trkpt>
			<trkpt lat="54.627990" lon="22.575320"><ele>70.1</ele><time>2026-07-14T21:39:29Z</time></trkpt>
			<trkpt lat="54.628200" lon="22.575120"><ele>69.4</ele><time>2026-07-14T21:39:36Z</time></trkpt>
			<trkpt lat="54.628370" lon="22.575010"><ele>69.3</ele><time>2026-07-14T21:39:42Z</time></trkpt>
			<trkpt lat="54.628500" lon="22.574870"><ele>69.3</ele><time>2026-07-14T21:39:48Z</time></trkpt>
			<trkpt lat="54.628540" lon="22.574820"><ele>69.3</ele><time>2026-07-14T21:39:54Z</time></trkpt>
			<trkpt lat="54.629860" lon="22.573320"><ele>69.3</ele><time>2026-07-14T21:40:00Z</time></trkpt>
			<trkpt lat="54.630650" lon="22.572350"><ele>67.6</ele><time>2026-07-14T21:40:06Z</time></trkpt>
			<trkpt lat="54.630780" lon="22.572200"><ele>67.6</ele><time>2026-07-14T21:40:12Z</time></trkpt>
			<trkpt lat="54.631060" lon="22.571870"><ele>67.8</ele><time>2026-07-14T21:40:18Z</time></trkpt>
			<trkpt lat="54.631100" lon="22.571840"><ele>67.9</ele><time>2026-07-14T21:40:24Z</time></trkpt>
			<trkpt lat="54.631160" lon="22.571850"><ele>67.9</ele><time>2026-07-14T21:40:30Z</time></trkpt>
			<trkpt lat="54.631170" lon="22.571790"><ele>67.9</ele><time>2026-07-14T21:40:36Z</time></trkpt>
			<trkpt lat="54.631200" lon="22.571730"><ele>68.0</ele><time>2026-07-14T21:40:43Z</time></trkpt>
			<trkpt lat="54.631450" lon="22.571430"><ele>68.3</ele><time>2026-07-14T21:40:49Z</time></trkpt>
			<trkpt lat="54.631820" lon="22.571030"><ele>69.0</ele><time>2026-07-14T21:40:55Z</time></trkpt>
			<trkpt lat="54.632680" lon="22.569960"><ele>70.2</ele><time>2026-07-14T21:41:01Z</time></trkpt>
			<trkpt lat="54.632760" lon="22.569830"><ele>70.4</ele><time>2026-07-14T21:41:07Z</time></trkpt>
			<trkpt lat="54.632790" lon="22.569680"><ele>70.5</ele><time>2026-07-14T21:41:13Z</time></trkpt>
			<trkpt lat="54.632900" lon="22.569240"><ele>70.9</ele><time>2026-07-14T21:41:19Z</time></trkpt>
			<trkpt lat="54.633020" lon="22.569040"><ele>71.0</ele><time>2026-07-14T21:41:25Z</time></trkpt>
			<trkpt lat="54.633550" lon="22.568630"><ele>71.0</ele><time>2026-07-14T21:41:31Z</time></trkpt>
			<trkpt lat="54.634160" lon="22.568100"><ele>69.9</ele><time>2026-07-14T21:41:37Z</time></trkpt>
			<trkpt lat="54.634750" lon="22.567430"><ele>68.0</ele><time>2026-07-14T21:41:43Z</time></trkpt>
			<trkpt lat="54.634800" lon="22.567310"><ele>67.9</ele><time>2026-07-14T21:41:50Z</time></trkpt>
			<trkpt lat="54.634750" lon="22.566880"><ele>67.6</ele><time>2026-07-14T21:41:56Z</time></trkpt>
			<trkpt lat="54.634690" lon="22.566550"><ele>67.5</ele><time>2026-07-14T21:42:02Z</time></trkpt>
			<trkpt lat="54.634650" lon="22.566190"><ele>67.2</ele><time>2026-07-14T21:42:08Z</time></trkpt>
			<trkpt lat="54.636610" lon="22.564040"><ele>65.3</ele><time>2026-07-14T21:42:14Z</time></trkpt>
			<trkpt lat="54.638000" lon="22.562490"><ele>63.6</ele><time>2026-07-14T21:42:20Z</time></trkpt>
			<trkpt lat="54.638850" lon="22.561430"><ele>64.0</ele><time>2026-07-14T21:42:26Z</time></trkpt>
			<trkpt lat="54.639330" lon="22.560820"><ele>63.8</ele><time>2026-07-14T21:42:32Z</time></trkpt>
			<trkpt lat="54.640500" lon="22.559270"><ele>61.3</ele><time>2026-07-14T21:42:38Z</time></trkpt>
			<trkpt lat="54.641860" lon="22.557550"><ele>58.2</ele><time>2026-07-14T21:42:44Z</time></trkpt>
			<trkpt lat="54.641990" lon="22.557480"><ele>58.4</ele><time>2026-07-14T21:42:50Z</time></trkpt>
			<trkpt lat="54.642150" lon="22.557470"><ele>58.6</ele><time>2026-07-14T21:42:57Z</time></trkpt>
			<trkpt lat="54.642250" lon="22.557520"><ele>58.7</ele><time>2026-07-14T21:43:03Z</time></trkpt>
			<trkpt lat="54.642720" lon="22.557770"><ele>59.1</ele><time>2026-07-14T21:43:09Z</time></trkpt>
			<trkpt lat="54.643740" lon="22.558110"><ele>58.9</ele><time>2026-07-14T21:43:15Z</time></trkpt>
			<trkpt lat="54.644780" lon="22.558750"><ele>56.9</ele><time>2026-07-14T21:43:21Z</time></trkpt>
			<trkpt lat="54.645110" lon="22.558920"><ele>56.0</ele><time>2026-07-14T21:43:27Z</time></trkpt>
			<trkpt lat="54.645250" lon="22.558940"><ele>55.7</ele><time>2026-07-14T21:43:33Z</time></trkpt>
			<trkpt lat="54.645510" lon="22.558900"><ele>55.1</ele><time>2026-07-14T21:43:39Z</time></trkpt>
			<trkpt lat="54.645970" lon="22.558690"><ele>54.5</ele><time>2026-07-14T21:43:45Z</time></trkpt>
			<trkpt lat="54.647820" lon="22.557920"><ele>55.2</ele><time>2026-07-14T21:43:51Z</time></trkpt>
			<trkpt lat="54.648020" lon="22.557910"><ele>54.7</ele><time>2026-07-14T21:43:57Z</time></trkpt>
			<trkpt lat="54.648180" lon="22.557980"><ele>54.2</ele><time>2026-07-14T21:44:04Z</time></trkpt>
			<trkpt lat="54.648760" lon="22.558490"><ele>53.1</ele><time>2026-07-14T21:44:10Z</time></trkpt>
			<trkpt lat="54.649550" lon="22.559230"><ele>52.0</ele><time>2026-07-14T21:44:16Z</time></trkpt>
			<trkpt lat="54.649750" lon="22.559350"><ele>52.0</ele><time>2026-07-14T21:44:22Z</time></trkpt>
			<trkpt lat="54.649980" lon="22.559400"><ele>52.0</ele><time>2026-07-14T21:44:28Z</time></trkpt>
			<trkpt lat="54.652240" lon="22.559620"><ele>50.9</ele><time>2026-07-14T21:44:34Z</time></trkpt>
			<trkpt lat="54.655340" lon="22.559900"><ele>49.4</ele><time>2026-07-14T21:44:40Z</time></trkpt>
			<trkpt lat="54.656070" lon="22.559960"><ele>48.1</ele><time>2026-07-14T21:44:46Z</time></trkpt>
			<trkpt lat="54.656370" lon="22.559960"><ele>47.0</ele><time>2026-07-14T21:44:52Z</time></trkpt>
			<trkpt lat="54.656830" lon="22.559880"><ele>46.2</ele><time>2026-07-14T21:44:58Z</time></trkpt>
			<trkpt lat="54.657180" lon="22.559880"><ele>46.7</ele><time>2026-07-14T21:45:04Z</time></trkpt>
			<trkpt lat="54.657390" lon="22.559910"><ele>47.0</ele><time>2026-07-14T21:45:11Z</time></trkpt>
			<trkpt lat="54.657500" lon="22.559920"><ele>47.2</ele><time>2026-07-14T21:45:17Z</time></trkpt>
			<trkpt lat="54.657640" lon="22.559960"><ele>47.6</ele><time>2026-07-14T21:45:23Z</time></trkpt>
			<trkpt lat="54.657840" lon="22.560040"><ele>48.1</ele><time>2026-07-14T21:45:29Z</time></trkpt>
			<trkpt lat="54.658560" lon="22.560370"><ele>49.7</ele><time>2026-07-14T21:45:35Z</time></trkpt>
			<trkpt lat="54.659570" lon="22.560810"><ele>50.0</ele><time>2026-07-14T21:45:41Z</time></trkpt>
			<trkpt lat="54.659980" lon="22.560940"><ele>49.2</ele><time>2026-07-14T21:45:47Z</time></trkpt>
			<trkpt lat="54.660110" lon="22.560960"><ele>49.1</ele><time>2026-07-14T21:45:53Z</time></trkpt>
			<trkpt lat="54.660220" lon="22.560950"><ele>49.0</ele><time>2026-07-14T21:45:59Z</time></trkpt>
			<trkpt lat="54.660350" lon="22.560920"><ele>49.0</ele><time>2026-07-14T21:46:05Z</time></trkpt>
			<trkpt lat="54.660710" lon="22.560800"><ele>49.0</ele><time>2026-07-14T21:46:11Z</time></trkpt>
			<trkpt lat="54.662320" lon="22.560190"><ele>49.9</ele><time>2026-07-14T21:46:18Z</time></trkpt>
			<trkpt lat="54.665000" lon="22.559210"><ele>49.1</ele><time>2026-07-14T21:46:24Z</time></trkpt>
			<trkpt lat="54.667190" lon="22.558440"><ele>50.6</ele><time>2026-07-14T21:46:30Z</time></trkpt>
			<trkpt lat="54.667310" lon="22.558380"><ele>50.6</ele><time>2026-07-14T21:46:36Z</time></trkpt>
			<trkpt lat="54.667420" lon="22.558300"><ele>50.5</ele><time>2026-07-14T21:46:42Z</time></trkpt>
			<trkpt lat="54.667740" lon="22.558030"><ele>49.9</ele><time>2026-07-14T21:46:48Z</time></trkpt>
			<trkpt lat="54.671890" lon="22.553970"><ele>54.6</ele><time>2026-07-14T21:46:54Z</time></trkpt>
			<trkpt lat="54.673290" lon="22.552630"><ele>54.6</ele><time>2026-07-14T21:47:00Z</time></trkpt>
			<trkpt lat="54.673670" lon="22.552270"><ele>54.6</ele><time>2026-07-14T21:47:06Z</time></trkpt>
			<trkpt lat="54.674740" lon="22.551220"><ele>55.2</ele><time>2026-07-14T21:47:12Z</time></trkpt>
			<trkpt lat="54.676110" lon="22.549930"><ele>55.9</ele><time>2026-07-14T21:47:18Z</time></trkpt>
			<trkpt lat="54.676290" lon="22.549800"><ele>55.8</ele><time>2026-07-14T21:47:25Z</time></trkpt>
			<trkpt lat="54.676520" lon="22.549700"><ele>55.6</ele><time>2026-07-14T21:47:31Z</time></trkpt>
			<trkpt lat="54.676910" lon="22.549560"><ele>55.2</ele><time>2026-07-14T21:47:37Z</time></trkpt>
			<trkpt lat="54.677270" lon="22.549460"><ele>54.9</ele><time>2026-07-14T21:47:43Z</time></trkpt>
			<trkpt lat="54.677920" lon="22.549330"><ele>53.9</ele><time>2026-07-14T21:47:49Z</time></trkpt>
			<trkpt lat="54.680490" lon="22.548890"><ele>51.7</ele><time>2026-07-14T21:47:55Z</time></trkpt>
			<trkpt lat="54.680760" lon="22.548860"><ele>51.6</ele><time>2026-07-14T21:48:01Z</time></trkpt>
			<trkpt lat="54.680870" lon="22.548860"><ele>51.6</ele><time>2026-07-14T21:48:07Z</time></trkpt>
			<trkpt lat="54.680980" lon="22.548890"><ele>51.6</ele><time>2026-07-14T21:48:13Z</time></trkpt>
			<trkpt lat="54.681090" lon="22.548940"><ele>51.5</ele><time>2026-07-14T21:48:19Z</time></trkpt>
			<trkpt lat="54.681210" lon="22.549020"><ele>51.4</ele><time>2026-07-14T21:48:25Z</time></trkpt>
			<trkpt lat="54.681520" lon="22.549290"><ele>51.3</ele><time>2026-07-14T21:48:32Z</time></trkpt>
			<trkpt lat="54.682150" lon="22.549860"><ele>52.4</ele><time>2026-07-14T21:48:38Z</time></trkpt>
			<trkpt lat="54.686440" lon="22.553630"><ele>54.3</ele><time>2026-07-14T21:48:44Z</time></trkpt>
			<trkpt lat="54.686550" lon="22.553720"><ele>54.2</ele><time>2026-07-14T21:48:50Z</time></trkpt>
			<trkpt lat="54.686640" lon="22.553760"><ele>54.2</ele><time>2026-07-14T21:48:56Z</time></trkpt>
			<trkpt lat="54.686750" lon="22.553800"><ele>54.2</ele><time>2026-07-14T21:49:02Z</time></trkpt>
			<trkpt lat="54.686900" lon="22.553810"><ele>54.3</ele><time>2026-07-14T21:49:08Z</time></trkpt>
			<trkpt lat="54.687430" lon="22.553740"><ele>54.9</ele><time>2026-07-14T21:49:14Z</time></trkpt>
			<trkpt lat="54.692290" lon="22.552950"><ele>55.1</ele><time>2026-07-14T21:49:20Z</time></trkpt>
			<trkpt lat="54.694220" lon="22.552440"><ele>50.2</ele><time>2026-07-14T21:49:26Z</time></trkpt>
			<trkpt lat="54.694990" lon="22.552220"><ele>49.7</ele><time>2026-07-14T21:49:32Z</time></trkpt>
			<trkpt lat="54.695100" lon="22.552190"><ele>49.7</ele><time>2026-07-14T21:49:39Z</time></trkpt>
			<trkpt lat="54.695340" lon="22.552100"><ele>49.7</ele><time>2026-07-14T21:49:45Z</time></trkpt>
			<trkpt lat="54.695690" lon="22.551960"><ele>49.9</ele><time>2026-07-14T21:49:51Z</time></trkpt>
			<trkpt lat="54.695990" lon="22.551780"><ele>50.0</ele><time>2026-07-14T21:49:57Z</time></trkpt>
			<trkpt lat="54.696530" lon="22.551340"><ele>50.0</ele><time>2026-07-14T21:50:03Z</time></trkpt>
			<trkpt lat="54.698140" lon="22.549850"><ele>52.4</ele><time>2026-07-14T21:50:09Z</time></trkpt>
			<trkpt lat="54.703300" lon="22.545030"><ele>54.9</ele><time>2026-07-14T21:50:15Z</time></trkpt>
			<trkpt lat="54.704720" lon="22.543710"><ele>53.8</ele><time>2026-07-14T21:50:21Z</time></trkpt>
			<trkpt lat="54.706650" lon="22.541900"><ele>54.4</ele><time>2026-07-14T21:50:27Z</time></trkpt>
			<trkpt lat="54.708070" lon="22.540580"><ele>54.9</ele><time>2026-07-14T21:50:33Z</time></trkpt>
			<trkpt lat="54.710070" lon="22.538700"><ele>57.5</ele><time>2026-07-14T21:50:39Z</time></trkpt>
			<trkpt lat="54.710730" lon="22.538090"><ele>57.8</ele><time>2026-07-14T21:50:46Z</time></trkpt>
			<trkpt lat="54.711170" lon="22.537700"><ele>58.4</ele><time>2026-07-14T21:50:52Z</time></trkpt>
			<trkpt lat="54.711370" lon="22.537570"><ele>58.6</ele><time>2026-07-14T21:50:58Z</time></trkpt>
			<trkpt lat="54.711470" lon="22.537520"><ele>58.8</ele><time>2026-07-14T21:51:04Z</time></trkpt>
			<trkpt lat="54.712440" lon="22.537280"><ele>59.2</ele><time>2026-07-14T21:51:10Z</time></trkpt>
			<trkpt lat="54.712630" lon="22.537220"><ele>59.1</ele><time>2026-07-14T21:51:16Z</time></trkpt>
			<trkpt lat="54.712740" lon="22.537140"><ele>59.0</ele><time>2026-07-14T21:51:22Z</time></trkpt>
			<trkpt lat="54.712900" lon="22.536950"><ele>59.1</ele><time>2026-07-14T21:51:28Z</time></trkpt>
			<trkpt lat="54.712990" lon="22.536770"><ele>59.2</ele><time>2026-07-14T21:51:34Z</time></trkpt>
			<trkpt lat="54.713090" lon="22.536460"><ele>59.2</ele><time>2026-07-14T21:51:40Z</time></trkpt>
			<trkpt lat="54.713340" lon="22.535200"><ele>59.6</ele><time>2026-07-14T21:51:46Z</time></trkpt>
			<trkpt lat="54.713450" lon="22.534650"><ele>59.9</ele><time>2026-07-14T21:51:53Z</time></trkpt>
			<trkpt lat="54.713780" lon="22.533470"><ele>60.3</ele><time>2026-07-14T21:51:59Z</time></trkpt>
			<trkpt lat="54.713900" lon="22.533090"><ele>60.5</ele><time>2026-07-14T21:52:05Z</time></trkpt>
			<trkpt lat="54.713990" lon="22.532910"><ele>60.6</ele><time>2026-07-14T21:52:11Z</time></trkpt>
			<trkpt lat="54.714040" lon="22.532830"><ele>60.7</ele><time>2026-07-14T21:52:17Z</time></trkpt>
			<trkpt lat="54.714100" lon="22.532760"><ele>60.6</ele><time>2026-07-14T21:52:23Z</time></trkpt>
			<trkpt lat="54.714220" lon="22.532670"><ele>60.5</ele><time>2026-07-14T21:52:29Z</time></trkpt>
			<trkpt lat="54.715870" lon="22.531810"><ele>56.0</ele><time>2026-07-14T21:52:35Z</time></trkpt>
			<trkpt lat="54.716150" lon="22.531660"><ele>55.2</ele><time>2026-07-14T21:52:41Z</time></trkpt>
			<trkpt lat="54.716580" lon="22.531440"><ele>54.4</ele><time>2026-07-14T21:52:47Z</time></trkpt>
			<trkpt lat="54.716700" lon="22.531380"><ele>54.2</ele><time>2026-07-14T21:52:53Z</time></trkpt>
			<trkpt lat="54.717960" lon="22.530750"><ele>55.4</ele><time>2026-07-14T21:53:00Z</time></trkpt>
			<trkpt lat="54.718110" lon="22.530660"><ele>55.5</ele><time>2026-07-14T21:53:06Z</time></trkpt>
			<trkpt lat="54.718190" lon="22.530600"><ele>55.5</ele><time>2026-07-14T21:53:12Z</time></trkpt>
			<trkpt lat="54.718330" lon="22.530460"><ele>55.4</ele><time>2026-07-14T21:53:18Z</time></trkpt>
			<trkpt lat="54.718920" lon="22.529660"><ele>54.6</ele><time>2026-07-14T21:53:24Z</time></trkpt>
			<trkpt lat="54.723050" lon="22.523850"><ele>58.6</ele><time>2026-07-14T21:53:30Z</time></trkpt>
			<trkpt lat="54.727140" lon="22.518110"><ele>59.5</ele><time>2026-07-14T21:53:36Z</time></trkpt>
			<trkpt lat="54.728250" lon="22.516540"><ele>60.0</ele><time>2026-07-14T21:53:42Z</time></trkpt>
			<trkpt lat="54.728580" lon="22.516040"><ele>60.0</ele><time>2026-07-14T21:53:48Z</time></trkpt>
			<trkpt lat="54.729220" lon="22.514950"><ele>60.1</ele><time>2026-07-14T21:53:54Z</time></trkpt>
			<trkpt lat="54.733840" lon="22.506690"><ele>61.5</ele><time>2026-07-14T21:54:00Z</time></trkpt>
			<trkpt lat="54.737890" lon="22.499500"><ele>58.4</ele><time>2026-07-14T21:54:07Z</time></trkpt>
			<trkpt lat="54.738110" lon="22.499140"><ele>58.3</ele><time>2026-07-14T21:54:13Z</time></trkpt>
			<trkpt lat="54.738290" lon="22.498890"><ele>58.4</ele><time>2026-07-14T21:54:19Z</time></trkpt>
			<trkpt lat="54.738480" lon="22.498680"><ele>58.7</ele><time>2026-07-14T21:54:25Z</time></trkpt>
			<trkpt lat="54.738600" lon="22.498580"><ele>59.0</ele><time>2026-07-14T21:54:31Z</time></trkpt>
			<trkpt lat="54.738720" lon="22.498520"><ele>59.2</ele><time>2026-07-14T21:54:37Z</time></trkpt>
			<trkpt lat="54.738820" lon="22.498510"><ele>59.3</ele><time>2026-07-14T21:54:43Z</time></trkpt>
			<trkpt lat="54.739730" lon="22.498710"><ele>60.2</ele><time>2026-07-14T21:54:49Z</time></trkpt>
			<trkpt lat="54.740320" lon="22.498790"><ele>60.5</ele><time>2026-07-14T21:54:55Z</time></trkpt>
			<trkpt lat="54.746740" lon="22.499430"><ele>59.6</ele><time>2026-07-14T21:55:01Z</time></trkpt>
			<trkpt lat="54.752320" lon="22.500100"><ele>57.3</ele><time>2026-07-14T21:55:07Z</time></trkpt>
			<trkpt lat="54.756860" lon="22.500610"><ele>63.8</ele><time>2026-07-14T21:55:14Z</time></trkpt>
			<trkpt lat="54.759860" lon="22.500920"><ele>69.2</ele><time>2026-07-14T21:55:20Z</time></trkpt>
			<trkpt lat="54.760520" lon="22.500970"><ele>72.0</ele><time>2026-07-14T21:55:26Z</time></trkpt>
			<trkpt lat="54.761510" lon="22.501070"><ele>75.4</ele><time>2026-07-14T21:55:32Z</time></trkpt>
			<trkpt lat="54.762430" lon="22.501160"><ele>75.1</ele><time>2026-07-14T21:55:38Z</time></trkpt>
			<trkpt lat="54.762440" lon="22.501160"><ele>75.1</ele><time>2026-07-14T21:55:44Z</time></trkpt>
			<trkpt lat="54.763190" lon="22.501240"><ele>77.3</ele><time>2026-07-14T21:55:50Z</time></trkpt>
			<trkpt lat="54.763850" lon="22.501310"><ele>77.9</ele><time>2026-07-14T21:55:56Z</time></trkpt>
			<trkpt lat="54.764140" lon="22.501370"><ele>77.7</ele><time>2026-07-14T21:56:02Z</time></trkpt>
			<trkpt lat="54.764530" lon="22.501530"><ele>77.7</ele><time>2026-07-14T21:56:08Z</time></trkpt>
			<trkpt lat="54.766500" lon="22.502400"><ele>78.9</ele><time>2026-07-14T21:56:15Z</time></trkpt>
			<trkpt lat="54.766680" lon="22.502470"><ele>79.0</ele><time>2026-07-14T21:56:21Z</time></trkpt>
			<trkpt lat="54.767660" lon="22.502940"><ele>80.0</ele><time>2026-07-14T21:56:27Z</time></trkpt>
			<trkpt lat="54.768020" lon="22.503230"><ele>81.0</ele><time>2026-07-14T21:56:33Z</time></trkpt>
			<trkpt lat="54.768670" lon="22.503760"><ele>79.3</ele><time>2026-07-14T21:56:39Z</time></trkpt>
			<trkpt lat="54.768760" lon="22.503790"><ele>79.1</ele><time>2026-07-14T21:56:45Z</time></trkpt>
			<trkpt lat="54.769730" lon="22.504070"><ele>74.6</ele><time>2026-07-14T21:56:51Z</time></trkpt>
			<trkpt lat="54.769810" lon="22.504090"><ele>74.2</ele><time>2026-07-14T21:56:57Z</time></trkpt>
			<trkpt lat="54.769890" lon="22.504040"><ele>73.8</ele><time>2026-07-14T21:57:03Z</time></trkpt>
			<trkpt lat="54.770140" lon="22.503930"><ele>72.6</ele><time>2026-07-14T21:57:09Z</time></trkpt>
			<trkpt lat="54.770240" lon="22.503920"><ele>72.2</ele><time>2026-07-14T21:57:15Z</time></trkpt>
			<trkpt lat="54.770400" lon="22.503950"><ele>71.5</ele><time>2026-07-14T21:57:22Z</time></trkpt>
			<trkpt lat="54.770670" lon="22.504080"><ele>70.0</ele><time>2026-07-14T21:57:28Z</time></trkpt>
			<trkpt lat="54.771230" lon="22.504330"><ele>68.5</ele><time>2026-07-14T21:57:34Z</time></trkpt>
			<trkpt lat="54.771290" lon="22.504340"><ele>68.4</ele><time>2026-07-14T21:57:40Z</time></trkpt>
			<trkpt lat="54.771460" lon="22.504450"><ele>68.2</ele><time>2026-07-14T21:57:46Z</time></trkpt>
			<trkpt lat="54.771690" lon="22.504630"><ele>67.9</ele><time>2026-07-14T21:57:52Z</time></trkpt>
			<trkpt lat="54.772730" lon="22.505430"><ele>62.9</ele><time>2026-07-14T21:57:58Z</time></trkpt>
			<trkpt lat="54.773020" lon="22.505660"><ele>60.4</ele><time>2026-07-14T21:58:04Z</time></trkpt>
			<trkpt lat="54.773160" lon="22.505740"><ele>59.3</ele><time>2026-07-14T21:58:10Z</time></trkpt>
			<trkpt lat="54.773340" lon="22.505820"><ele>58.1</ele><time>2026-07-14T21:58:16Z</time></trkpt>
			<trkpt lat="54.773710" lon="22.505940"><ele>56.0</ele><time>2026-07-14T21:58:22Z</time></trkpt>
			<trkpt lat="54.775710" lon="22.506510"><ele>52.9</ele><time>2026-07-14T21:58:29Z</time></trkpt>
			<trkpt lat="54.775840" lon="22.506520"><ele>52.9</ele><time>2026-07-14T21:58:35Z</time></trkpt>
			<trkpt lat="54.776120" lon="22.506480"><ele>53.1</ele><time>2026-07-14T21:58:41Z</time></trkpt>
			<trkpt lat="54.780220" lon="22.505710"><ele>51.0</ele><time>2026-07-14T21:58:47Z</time></trkpt>
			<trkpt lat="54.780700" lon="22.505610"><ele>50.8</ele><time>2026-07-14T21:58:53Z</time></trkpt>
			<trkpt lat="54.781190" lon="22.505530"><ele>50.4</ele><time>2026-07-14T21:58:59Z</time></trkpt>
			<trkpt lat="54.781430" lon="22.505510"><ele>50.2</ele><time>2026-07-14T21:59:05Z</time></trkpt>
			<trkpt lat="54.781680" lon="22.505510"><ele>50.0</ele><time>2026-07-14T21:59:11Z</time></trkpt>
			<trkpt lat="54.781880" lon="22.505530"><ele>49.7</ele><time>2026-07-14T21:59:17Z</time></trkpt>
			<trkpt lat="54.782280" lon="22.505630"><ele>49.3</ele><time>2026-07-14T21:59:23Z</time></trkpt>
			<trkpt lat="54.782500" lon="22.505720"><ele>49.0</ele><time>2026-07-14T21:59:29Z</time></trkpt>
			<trkpt lat="54.784160" lon="22.506550"><ele>48.1</ele><time>2026-07-14T21:59:36Z</time></trkpt>
			<trkpt lat="54.784760" lon="22.506860"><ele>48.5</ele><time>2026-07-14T21:59:42Z</time></trkpt>
			<trkpt lat="54.786560" lon="22.507780"><ele>49.3</ele><time>2026-07-14T21:59:48Z</time></trkpt>
			<trkpt lat="54.788340" lon="22.508680"><ele>48.6</ele><time>2026-07-14T21:59:54Z</time></trkpt>
			<trkpt lat="54.789450" lon="22.509250"><ele>49.4</ele><time>2026-07-14T22:00:00Z</time></trkpt>
			<trkpt lat="54.791540" lon="22.510310"><ele>51.8</ele><time>2026-07-14T22:00:06Z</time></trkpt>
			<trkpt lat="54.794690" lon="22.511910"><ele>54.2</ele><time>2026-07-14T22:00:12Z</time></trkpt>
			<trkpt lat="54.795600" lon="22.512390"><ele>55.0</ele><time>2026-07-14T22:00:18Z</time></trkpt>
			<trkpt lat="54.796150" lon="22.512660"><ele>54.8</ele><time>2026-07-14T22:00:24Z</time></trkpt>
			<trkpt lat="54.796630" lon="22.512850"><ele>55.5</ele><time>2026-07-14T22:00:30Z</time></trkpt>
			<trkpt lat="54.797030" lon="22.512950"><ele>56.6</ele><time>2026-07-14T22:00:36Z</time></trkpt>
			<trkpt lat="54.797520" lon="22.513030"><ele>57.9</ele><time>2026-07-14T22:00:43Z</time></trkpt>
			<trkpt lat="54.797760" lon="22.513090"><ele>57.7</ele><time>2026-07-14T22:00:49Z</time></trkpt>
			<trkpt lat="54.799970" lon="22.513550"><ele>54.9</ele><time>2026-07-14T22:00:55Z</time></trkpt>
			<trkpt lat="54.801390" lon="22.513880"><ele>55.0</ele><time>2026-07-14T22:01:01Z</time></trkpt>
			<trkpt lat="54.805150" lon="22.514660"><ele>52.0</ele><time>2026-07-14T22:01:07Z</time></trkpt>
			<trkpt lat="54.808200" lon="22.515310"><ele>49.5</ele><time>2026-07-14T22:01:13Z</time></trkpt>
			<trkpt lat="54.809420" lon="22.515630"><ele>50.9</ele><time>2026-07-14T22:01:19Z</time></trkpt>
			<trkpt lat="54.809940" lon="22.515600"><ele>50.6</ele><time>2026-07-14T22:01:25Z</time></trkpt>
			<trkpt lat="54.811150" lon="22.515650"><ele>49.7</ele><time>2026-07-14T22:01:31Z</time></trkpt>
			<trkpt lat="54.814210" lon="22.515810"><ele>48.6</ele><time>2026-07-14T22:01:37Z</time></trkpt>
			<trkpt lat="54.817480" lon="22.515970"><ele>40.3</ele><time>2026-07-14T22:01:43Z</time></trkpt>
			<trkpt lat="54.821500" lon="22.516250"><ele>37.5</ele><time>2026-07-14T22:01:50Z</time></trkpt>
			<trkpt lat="54.822370" lon="22.516350"><ele>37.4</ele><time>2026-07-14T22:01:56Z</time></trkpt>
			<trkpt lat="54.822860" lon="22.516550"><ele>37.5</ele><time>2026-07-14T22:02:02Z</time></trkpt>
			<trkpt lat="54.822990" lon="22.516650"><ele>37.6</ele><time>2026-07-14T22:02:08Z</time></trkpt>
			<trkpt lat="54.823120" lon="22.516750"><ele>37.6</ele><time>2026-07-14T22:02:14Z</time></trkpt>
			<trkpt lat="54.826850" lon="22.519440"><ele>45.7</ele><time>2026-07-14T22:02:20Z</time></trkpt>
			<trkpt lat="54.827160" lon="22.519700"><ele>46.0</ele><time>2026-07-14T22:02:26Z</time></trkpt>
			<trkpt lat="54.827670" lon="22.520000"><ele>46.0</ele><time>2026-07-14T22:02:32Z</time></trkpt>
			<trkpt lat="54.827970" lon="22.520100"><ele>46.1</ele><time>2026-07-14T22:02:38Z</time></trkpt>
			<trkpt lat="54.828330" lon="22.520080"><ele>46.1</ele><time>2026-07-14T22:02:44Z</time></trkpt>
			<trkpt lat="54.828680" lon="22.520020"><ele>45.6</ele><time>2026-07-14T22:02:50Z</time></trkpt>
			<trkpt lat="54.829100" lon="22.519730"><ele>45.1</ele><time>2026-07-14T22:02:57Z</time></trkpt>
			<trkpt lat="54.830950" lon="22.517970"><ele>44.9</ele><time>2026-07-14T22:03:03Z</time></trkpt>
			<trkpt lat="54.836160" lon="22.513080"><ele>40.8</ele><time>2026-07-14T22:03:09Z</time></trkpt>
			<trkpt lat="54.852880" lon="22.497490"><ele>34.9</ele><time>2026-07-14T22:03:15Z</time></trkpt>
			<trkpt lat="54.861480" lon="22.489460"><ele>36.1</ele><time>2026-07-14T22:03:21Z</time></trkpt>
			<trkpt lat="54.862830" lon="22.488140"><ele>36.5</ele><time>2026-07-14T22:03:27Z</time></trkpt>
			<trkpt lat="54.863550" lon="22.487460"><ele>36.0</ele><time>2026-07-14T22:03:33Z</time></trkpt>
			<trkpt lat="54.864120" lon="22.486960"><ele>36.2</ele><time>2026-07-14T22:03:39Z</time></trkpt>
			<trkpt lat="54.864230" lon="22.486870"><ele>36.2</ele><time>2026-07-14T22:03:45Z</time></trkpt>
			<trkpt lat="54.864340" lon="22.486800"><ele>36.2</ele><time>2026-07-14T22:03:51Z</time></trkpt>
			<trkpt lat="54.864530" lon="22.486750"><ele>36.3</ele><time>2026-07-14T22:03:57Z</time></trkpt>
			<trkpt lat="54.865400" lon="22.486650"><ele>39.4</ele><time>2026-07-14T22:04:04Z</time></trkpt>
			<trkpt lat="54.866470" lon="22.486470"><ele>47.1</ele><time>2026-07-14T22:04:10Z</time></trkpt>
			<trkpt lat="54.868100" lon="22.486350"><ele>40.3</ele><time>2026-07-14T22:04:16Z</time></trkpt>
			<trkpt lat="54.871710" lon="22.485990"><ele>41.1</ele><time>2026-07-14T22:04:22Z</time></trkpt>
			<trkpt lat="54.878650" lon="22.485260"><ele>47.6</ele><time>2026-07-14T22:04:28Z</time></trkpt>
			<trkpt lat="54.880850" lon="22.485060"><ele>45.2</ele><time>2026-07-14T22:04:34Z</time></trkpt>
			<trkpt lat="54.882790" lon="22.485430"><ele>40.5</ele><time>2026-07-14T22:04:40Z</time></trkpt>
			<trkpt lat="54.883340" lon="22.485430"><ele>36.5</ele><time>2026-07-14T22:04:46Z</time></trkpt>
			<trkpt lat="54.883480" lon="22.485430"><ele>36.0</ele><time>2026-07-14T22:04:52Z</time></trkpt>
			<trkpt lat="54.890230" lon="22.485730"><ele>38.1</ele><time>2026-07-14T22:04:58Z</time></trkpt>
			<trkpt lat="54.895050" lon="22.485950"><ele>39.6</ele><time>2026-07-14T22:05:04Z</time></trkpt>
			<trkpt lat="54.895470" lon="22.485970"><ele>39.8</ele><time>2026-07-14T22:05:11Z</time></trkpt>
			<trkpt lat="54.895790" lon="22.485970"><ele>39.8</ele><time>2026-07-14T22:05:17Z</time></trkpt>
			<trkpt lat="54.895990" lon="22.485960"><ele>39.7</ele><time>2026-07-14T22:05:23Z</time></trkpt>
			<trkpt lat="54.896200" lon="22.485920"><ele>39.6</ele><time>2026-07-14T22:05:29Z</time></trkpt>
			<trkpt lat="54.896380" lon="22.485860"><ele>39.1</ele><time>2026-07-14T22:05:35Z</time></trkpt>
			<trkpt lat="54.896520" lon="22.485790"><ele>38.8</ele><time>2026-07-14T22:05:41Z</time></trkpt>
			<trkpt lat="54.896620" lon="22.485740"><ele>38.4</ele><time>2026-07-14T22:05:47Z</time></trkpt>
			<trkpt lat="54.896760" lon="22.485650"><ele>37.9</ele><time>2026-07-14T22:05:53Z</time></trkpt>
			<trkpt lat="54.896970" lon="22.485500"><ele>37.1</ele><time>2026-07-14T22:05:59Z</time></trkpt>
			<trkpt lat="54.897770" lon="22.484840"><ele>35.7</ele><time>2026-07-14T22:06:05Z</time></trkpt>
			<trkpt lat="54.898570" lon="22.484270"><ele>38.5</ele><time>2026-07-14T22:06:11Z</time></trkpt>
			<trkpt lat="54.899500" lon="22.483500"><ele>41.2</ele><time>2026-07-14T22:06:18Z</time></trkpt>
			<trkpt lat="54.899930" lon="22.483180"><ele>41.5</ele><time>2026-07-14T22:06:24Z</time></trkpt>
			<trkpt lat="54.900500" lon="22.483050"><ele>42.5</ele><time>2026-07-14T22:06:30Z</time></trkpt>
			<trkpt lat="54.905600" lon="22.482490"><ele>38.3</ele><time>2026-07-14T22:06:36Z</time></trkpt>
			<trkpt lat="54.907480" lon="22.482280"><ele>36.4</ele><time>2026-07-14T22:06:42Z</time></trkpt>
			<trkpt lat="54.910330" lon="22.482000"><ele>42.0</ele><time>2026-07-14T22:06:48Z</time></trkpt>
			<trkpt lat="54.913290" lon="22.481730"><ele>35.4</ele><time>2026-07-14T22:06:54Z</time></trkpt>
			<trkpt lat="54.914200" lon="22.481620"><ele>34.9</ele><time>2026-07-14T22:07:00Z</time></trkpt>
			<trkpt lat="54.914860" lon="22.481360"><ele>36.1</ele><time>2026-07-14T22:07:06Z</time></trkpt>
			<trkpt lat="54.915230" lon="22.481180"><ele>35.3</ele><time>2026-07-14T22:07:12Z</time></trkpt>
			<trkpt lat="54.918100" lon="22.479810"><ele>35.2</ele><time>2026-07-14T22:07:18Z</time></trkpt>
			<trkpt lat="54.918450" lon="22.479660"><ele>35.7</ele><time>2026-07-14T22:07:25Z</time></trkpt>
			<trkpt lat="54.918800" lon="22.479640"><ele>36.2</ele><time>2026-07-14T22:07:31Z</time></trkpt>
			<trkpt lat="54.919820" lon="22.479770"><ele>38.2</ele><time>2026-07-14T22:07:37Z</time></trkpt>
			<trkpt lat="54.921630" lon="22.480080"><ele>40.5</ele><time>2026-07-14T22:07:43Z</time></trkpt>
			<trkpt lat="54.925300" lon="22.480810"><ele>43.3</ele><time>2026-07-14T22:07:49Z</time></trkpt>
			<trkpt lat="54.927530" lon="22.481170"><ele>47.1</ele><time>2026-07-14T22:07:55Z</time></trkpt>
			<trkpt lat="54.928020" lon="22.481350"><ele>47.2</ele><time>2026-07-14T22:08:01Z</time></trkpt>
			<trkpt lat="54.929530" lon="22.482000"><ele>49.1</ele><time>2026-07-14T22:08:07Z</time></trkpt>
			<trkpt lat="54.933390" lon="22.483630"><ele>46.5</ele><time>2026-07-14T22:08:13Z</time></trkpt>
			<trkpt lat="54.933660" lon="22.483750"><ele>46.1</ele><time>2026-07-14T22:08:19Z</time></trkpt>
			<trkpt lat="54.933850" lon="22.483830"><ele>45.8</ele><time>2026-07-14T22:08:25Z</time></trkpt>
			<trkpt lat="54.934020" lon="22.483910"><ele>45.5</ele><time>2026-07-14T22:08:32Z</time></trkpt>
			<trkpt lat="54.934340" lon="22.484060"><ele>45.1</ele><time>2026-07-14T22:08:38Z</time></trkpt>
			<trkpt lat="54.934470" lon="22.484110"><ele>45.1</ele><time>2026-07-14T22:08:44Z</time></trkpt>
			<trkpt lat="54.934600" lon="22.484170"><ele>45.0</ele><time>2026-07-14T22:08:50Z</time></trkpt>
			<trkpt lat="54.935020" lon="22.484480"><ele>44.9</ele><time>2026-07-14T22:08:56Z</time></trkpt>
			<trkpt lat="54.935120" lon="22.484550"><ele>44.9</ele><time>2026-07-14T22:09:02Z</time></trkpt>
			<trkpt lat="54.935290" lon="22.484700"><ele>44.8</ele><time>2026-07-14T22:09:08Z</time></trkpt>
			<trkpt lat="54.935840" lon="22.485260"><ele>43.7</ele><time>2026-07-14T22:09:14Z</time></trkpt>
			<trkpt lat="54.936270" lon="22.485690"><ele>43.6</ele><time>2026-07-14T22:09:20Z</time></trkpt>
			<trkpt lat="54.936290" lon="22.485710"><ele>43.6</ele><time>2026-07-14T22:09:26Z</time></trkpt>
			<trkpt lat="54.936600" lon="22.486010"><ele>44.1</ele><time>2026-07-14T22:09:32Z</time></trkpt>
			<trkpt lat="54.937100" lon="22.486450"><ele>43.8</ele><time>2026-07-14T22:09:39Z</time></trkpt>
			<trkpt lat="54.937500" lon="22.486830"><ele>43.2</ele><time>2026-07-14T22:09:45Z</time></trkpt>
			<trkpt lat="54.937550" lon="22.486870"><ele>43.2</ele><time>2026-07-14T22:09:51Z</time></trkpt>
			<trkpt lat="54.938070" lon="22.487400"><ele>43.2</ele><time>2026-07-14T22:09:57Z</time></trkpt>
			<trkpt lat="54.938730" lon="22.488070"><ele>43.7</ele><time>2026-07-14T22:10:03Z</time></trkpt>
			<trkpt lat="54.938960" lon="22.488280"><ele>43.9</ele><time>2026-07-14T22:10:09Z</time></trkpt>
			<trkpt lat="54.939520" lon="22.488760"><ele>42.3</ele><time>2026-07-14T22:10:15Z</time></trkpt>
			<trkpt lat="54.940820" lon="22.490020"><ele>38.6</ele><time>2026-07-14T22:10:21Z</time></trkpt>
			<trkpt lat="54.941010" lon="22.490180"><ele>39.1</ele><time>2026-07-14T22:10:27Z</time></trkpt>
			<trkpt lat="54.941150" lon="22.490270"><ele>39.4</ele><time>2026-07-14T22:10:33Z</time></trkpt>
			<trkpt lat="54.941460" lon="22.490410"><ele>39.4</ele><time>2026-07-14T22:10:39Z</time></trkpt>
			<trkpt lat="54.941790" lon="22.490490"><ele>39.2</ele><time>2026-07-14T22:10:46Z</time></trkpt>
			<trkpt lat="54.942190" lon="22.490550"><ele>39.5</ele><time>2026-07-14T22:10:52Z</time></trkpt>
			<trkpt lat="54.942190" lon="22.489540"><ele>39.3</ele><time>2026-07-14T22:10:58Z</time></trkpt>
			<trkpt lat="54.942190" lon="22.489540"><ele>39.3</ele><time>2026-07-14T22:11:06Z</time></trkpt>
			<trkpt lat="54.942210" lon="22.489190"><ele>39.2</ele><time>2026-07-14T22:11:15Z</time></trkpt>
			<trkpt lat="54.942230" lon="22.488720"><ele>39.2</ele><time>2026-07-14T22:11:23Z</time></trkpt>
			<trkpt lat="54.942390" lon="22.487580"><ele>38.8</ele><time>2026-07-14T22:11:32Z</time></trkpt>
			<trkpt lat="54.942490" lon="22.486950"><ele>38.2</ele><time>2026-07-14T22:11:41Z</time></trkpt>
			<trkpt lat="54.942560" lon="22.486650"><ele>37.7</ele><time>2026-07-14T22:11:49Z</time></trkpt>
			<trkpt lat="54.943810" lon="22.482860"><ele>32.2</ele><time>2026-07-14T22:11:58Z</time></trkpt>
			<trkpt lat="54.944410" lon="22.481100"><ele>32.1</ele><time>2026-07-14T22:12:06Z</time></trkpt>
			<trkpt lat="54.944850" lon="22.479820"><ele>33.1</ele><time>2026-07-14T22:12:15Z</time></trkpt>
			<trkpt lat="54.945080" lon="22.479160"><ele>33.0</ele><time>2026-07-14T22:12:23Z</time></trkpt>
			<trkpt lat="54.945230" lon="22.478740"><ele>33.2</ele><time>2026-07-14T22:12:32Z</time></trkpt>
			<trkpt lat="54.945340" lon="22.478400"><ele>33.3</ele><time>2026-07-14T22:12:41Z</time></trkpt>
			<trkpt lat="54.945820" lon="22.476990"><ele>33.4</ele><time>2026-07-14T22:12:49Z</time></trkpt>
			<trkpt lat="54.946300" lon="22.475570"><ele>33.7</ele><time>2026-07-14T22:12:58Z</time></trkpt>
			<trkpt lat="54.947370" lon="22.472360"><ele>31.4</ele><time>2026-07-14T22:13:06Z</time></trkpt>
			<trkpt lat="54.947570" lon="22.471860"><ele>32.6</ele><time>2026-07-14T22:13:15Z</time></trkpt>
			<trkpt lat="54.949090" lon="22.467360"><ele>38.3</ele><time>2026-07-14T22:13:23Z</time></trkpt>
			<trkpt lat="54.949130" lon="22.467250"><ele>38.2</ele><time>2026-07-14T22:13:32Z</time></trkpt>
			<trkpt lat="54.949280" lon="22.466700"><ele>37.0</ele><time>2026-07-14T22:13:40Z</time></trkpt>
			<trkpt lat="54.949360" lon="22.466230"><ele>37.6</ele><time>2026-07-14T22:13:49Z</time></trkpt>
			<trkpt lat="54.949370" lon="22.466090"><ele>37.9</ele><time>2026-07-14T22:13:58Z</time></trkpt>
			<trkpt lat="54.950190" lon="22.451120"><ele>40.2</ele><time>2026-07-14T22:14:06Z</time></trkpt>
			<trkpt lat="54.951050" lon="22.435730"><ele>44.2</ele><time>2026-07-14T22:14:15Z</time></trkpt>
			<trkpt lat="54.951480" lon="22.429050"><ele>36.6</ele><time>2026-07-14T22:14:23Z</time></trkpt>
			<trkpt lat="54.951760" lon="22.424570"><ele>39.7</ele><time>2026-07-14T22:14:32Z</time></trkpt>
			<trkpt lat="54.951860" lon="22.423190"><ele>39.8</ele><time>2026-07-14T22:14:40Z</time></trkpt>
			<trkpt lat="54.951940" lon="22.422590"><ele>40.3</ele><time>2026-07-14T22:14:49Z</time></trkpt>
			<trkpt lat="54.952050" lon="22.422030"><ele>39.5</ele><time>2026-07-14T22:14:58Z</time></trkpt>
			<trkpt lat="54.952210" lon="22.421500"><ele>37.5</ele><time>2026-07-14T22:15:06Z</time></trkpt>
			<trkpt lat="54.952380" lon="22.420990"><ele>34.9</ele><time>2026-07-14T22:15:15Z</time></trkpt>
			<trkpt lat="54.952740" lon="22.420190"><ele>32.3</ele><time>2026-07-14T22:15:23Z</time></trkpt>
			<trkpt lat="54.953100" lon="22.419410"><ele>29.8</ele><time>2026-07-14T22:15:32Z</time></trkpt>
			<trkpt lat="54.953840" lon="22.417740"><ele>28.7</ele><time>2026-07-14T22:15:40Z</time></trkpt>
			<trkpt lat="54.954570" lon="22.416050"><ele>32.2</ele><time>2026-07-14T22:15:49Z</time></trkpt>
			<trkpt lat="54.954800" lon="22.415500"><ele>35.3</ele><time>2026-07-14T22:15:58Z</time></trkpt>
			<trkpt lat="54.955040" lon="22.415000"><ele>38.6</ele><time>2026-07-14T22:16:06Z</time></trkpt>
			<trkpt lat="54.955560" lon="22.414070"><ele>40.2</ele><time>2026-07-14T22:16:15Z</time></trkpt>
			<trkpt lat="54.957520" lon="22.410790"><ele>34.2</ele><time>2026-07-14T22:16:23Z</time></trkpt>
			<trkpt lat="54.958230" lon="22.409470"><ele>36.8</ele><time>2026-07-14T22:16:32Z</time></trkpt>
			<trkpt lat="54.958630" lon="22.408420"><ele>37.0</ele><time>2026-07-14T22:16:40Z</time></trkpt>
			<trkpt lat="54.959100" lon="22.405880"><ele>32.6</ele><time>2026-07-14T22:16:49Z</time></trkpt>
			<trkpt lat="54.959620" lon="22.402890"><ele>28.1</ele><time>2026-07-14T22:16:58Z</time></trkpt>
			<trkpt lat="54.959660" lon="22.402670"><ele>28.2</ele><time>2026-07-14T22:17:06Z</time></trkpt>
			<trkpt lat="54.960050" lon="22.400530"><ele>28.1</ele><time>2026-07-14T22:17:15Z</time></trkpt>
			<trkpt lat="54.960240" lon="22.399410"><ele>28.3</ele><time>2026-07-14T22:17:23Z</time></trkpt>
			<trkpt lat="54.960750" lon="22.396610"><ele>27.1</ele><time>2026-07-14T22:17:32Z</time></trkpt>
			<trkpt lat="54.961110" lon="22.394540"><ele>28.5</ele><time>2026-07-14T22:17:40Z</time></trkpt>
			<trkpt lat="54.961430" lon="22.392920"><ele>31.2</ele><time>2026-07-14T22:17:49Z</time></trkpt>
			<trkpt lat="54.961690" lon="22.391750"><ele>35.9</ele><time>2026-07-14T22:17:57Z</time></trkpt>
			<trkpt lat="54.963770" lon="22.383240"><ele>37.4</ele><time>2026-07-14T22:18:06Z</time></trkpt>
			<trkpt lat="54.964190" lon="22.381650"><ele>35.9</ele><time>2026-07-14T22:18:15Z</time></trkpt>
			<trkpt lat="54.965030" lon="22.379680"><ele>36.2</ele><time>2026-07-14T22:18:23Z</time></trkpt>
			<trkpt lat="54.965540" lon="22.378590"><ele>36.7</ele><time>2026-07-14T22:18:32Z</time></trkpt>
			<trkpt lat="54.965910" lon="22.377810"><ele>40.3</ele><time>2026-07-14T22:18:40Z</time></trkpt>
			<trkpt lat="54.966190" lon="22.377080"><ele>41.3</ele><time>2026-07-14T22:18:49Z</time></trkpt>
			<trkpt lat="54.966360" lon="22.376550"><ele>41.5</ele><time>2026-07-14T22:18:57Z</time></trkpt>
			<trkpt lat="54.966540" lon="22.375840"><ele>42.2</ele><time>2026-07-14T22:19:06Z</time></trkpt>
			<trkpt lat="54.966640" lon="22.375110"><ele>40.9</ele><time>2026-07-14T22:19:15Z</time></trkpt>
			<trkpt lat="54.966690" lon="22.374210"><ele>38.1</ele><time>2026-07-14T22:19:23Z</time></trkpt>
			<trkpt lat="54.966620" lon="22.369140"><ele>27.2</ele><time>2026-07-14T22:19:32Z</time></trkpt>
			<trkpt lat="54.966420" lon="22.359200"><ele>28.0</ele><time>2026-07-14T22:19:40Z</time></trkpt>
			<trkpt lat="54.966420" lon="22.359200"><ele>28.0</ele><time>2026-07-14T22:19:49Z</time></trkpt>
			<trkpt lat="54.966170" lon="22.346010"><ele>25.2</ele><time>2026-07-14T22:19:58Z</time></trkpt>
			<trkpt lat="54.966150" lon="22.345640"><ele>25.2</ele><time>2026-07-14T22:20:07Z</time></trkpt>
			<trkpt lat="54.966090" lon="22.345110"><ele>25.1</ele><time>2026-07-14T22:20:16Z</time></trkpt>
			<trkpt lat="54.965930" lon="22.343900"><ele>26.2</ele><time>2026-07-14T22:20:25Z</time></trkpt>
			<trkpt lat="54.965570" lon="22.341090"><ele>26.9</ele><time>2026-07-14T22:20:34Z</time></trkpt>
			<trkpt lat="54.964980" lon="22.336450"><ele>28.0</ele><time>2026-07-14T22:20:43Z</time></trkpt>
			<trkpt lat="54.964220" lon="22.330720"><ele>28.8</ele><time>2026-07-14T22:20:52Z</time></trkpt>
			<trkpt lat="54.963870" lon="22.328170"><ele>27.4</ele><time>2026-07-14T22:21:01Z</time></trkpt>
			<trkpt lat="54.963820" lon="22.327810"><ele>27.4</ele><time>2026-07-14T22:21:10Z</time></trkpt>
			<trkpt lat="54.963270" lon="22.323810"><ele>27.1</ele><time>2026-07-14T22:21:19Z</time></trkpt>
			<trkpt lat="54.962510" lon="22.318260"><ele>30.0</ele><time>2026-07-14T22:21:28Z</time></trkpt>
			<trkpt lat="54.962480" lon="22.318030"><ele>29.9</ele><time>2026-07-14T22:21:37Z</time></trkpt>
			<trkpt lat="54.962150" lon="22.315740"><ele>29.2</ele><time>2026-07-14T22:21:47Z</time></trkpt>
			<trkpt lat="54.961750" lon="22.312650"><ele>29.1</ele><time>2026-07-14T22:21:56Z</time></trkpt>
			<trkpt lat="54.961730" lon="22.312500"><ele>28.9</ele><time>2026-07-14T22:22:05Z</time></trkpt>
			<trkpt lat="54.961540" lon="22.310880"><ele>27.8</ele><time>2026-07-14T22:22:14Z</time></trkpt>
			<trkpt lat="54.960850" lon="22.305820"><ele>26.1</ele><time>2026-07-14T22:22:23Z</time></trkpt>
			<trkpt lat="54.957790" lon="22.282640"><ele>25.3</ele><time>2026-07-14T22:22:32Z</time></trkpt>
			<trkpt lat="54.957610" lon="22.281220"><ele>25.2</ele><time>2026-07-14T22:22:41Z</time></trkpt>
			<trkpt lat="54.957300" lon="22.278980"><ele>25.8</ele><time>2026-07-14T22:22:50Z</time></trkpt>
			<trkpt lat="54.957240" lon="22.278480"><ele>25.2</ele><time>2026-07-14T22:22:59Z</time></trkpt>
			<trkpt lat="54.956780" lon="22.275070"><ele>26.7</ele><time>2026-07-14T22:23:08Z</time></trkpt>
			<trkpt lat="54.956690" lon="22.274520"><ele>26.9</ele><time>2026-07-14T22:23:17Z</time></trkpt>
			<trkpt lat="54.956610" lon="22.273970"><ele>26.6</ele><time>2026-07-14T22:23:26Z</time></trkpt>
			<trkpt lat="54.956570" lon="22.273140"><ele>25.5</ele><time>2026-07-14T22:23:35Z</time></trkpt>
			<trkpt lat="54.956600" lon="22.271130"><ele>24.1</ele><time>2026-07-14T22:23:44Z</time></trkpt>
			<trkpt lat="54.956620" lon="22.270950"><ele>24.3</ele><time>2026-07-14T22:23:53Z</time></trkpt>
			<trkpt lat="54.956690" lon="22.270610"><ele>24.5</ele><time>2026-07-14T22:24:02Z</time></trkpt>
			<trkpt lat="54.956730" lon="22.270450"><ele>24.8</ele><time>2026-07-14T22:24:11Z</time></trkpt>
			<trkpt lat="54.956820" lon="22.270160"><ele>25.4</ele><time>2026-07-14T22:24:20Z</time></trkpt>
			<trkpt lat="54.957380" lon="22.268770"><ele>27.4</ele><time>2026-07-14T22:24:29Z</time></trkpt>
			<trkpt lat="54.957880" lon="22.267630"><ele>27.1</ele><time>2026-07-14T22:24:38Z</time></trkpt>
			<trkpt lat="54.959220" lon="22.264500"><ele>27.5</ele><time>2026-07-14T22:24:47Z</time></trkpt>
			<trkpt lat="54.959300" lon="22.264300"><ele>27.5</ele><time>2026-07-14T22:24:56Z</time></trkpt>
			<trkpt lat="54.959540" lon="22.263700"><ele>28.0</ele><time>2026-07-14T22:25:05Z</time></trkpt>
			<trkpt lat="54.960690" lon="22.261080"><ele>27.1</ele><time>2026-07-14T22:25:14Z</time></trkpt>
			<trkpt lat="54.961380" lon="22.259670"><ele>28.0</ele><time>2026-07-14T22:25:23Z</time></trkpt>
			<trkpt lat="54.962220" lon="22.257930"><ele>33.7</ele><time>2026-07-14T22:25:32Z</time></trkpt>
			<trkpt lat="54.963240" lon="22.255210"><ele>29.0</ele><time>2026-07-14T22:25:41Z</time></trkpt>
			<trkpt lat="54.964690" lon="22.250880"><ele>27.0</ele><time>2026-07-14T22:25:50Z</time></trkpt>
			<trkpt lat="54.969730" lon="22.235160"><ele>25.1</ele><time>2026-07-14T22:25:59Z</time></trkpt>
			<trkpt lat="54.970810" lon="22.231850"><ele>25.5</ele><time>2026-07-14T22:26:08Z</time></trkpt>
			<trkpt lat="54.971940" lon="22.228220"><ele>22.2</ele><time>2026-07-14T22:26:17Z</time></trkpt>
			<trkpt lat="54.972950" lon="22.224450"><ele>18.1</ele><time>2026-07-14T22:26:26Z</time></trkpt>
			<trkpt lat="54.974160" lon="22.219880"><ele>18.9</ele><time>2026-07-14T22:26:35Z</time></trkpt>
			<trkpt lat="54.974590" lon="22.218180"><ele>17.6</ele><time>2026-07-14T22:26:44Z</time></trkpt>
			<trkpt lat="54.976540" lon="22.210520"><ele>17.6</ele><time>2026-07-14T22:26:53Z</time></trkpt>
			<trkpt lat="54.976930" lon="22.209130"><ele>16.3</ele><time>2026-07-14T22:27:02Z</time></trkpt>
			<trkpt lat="54.977640" lon="22.207120"><ele>14.7</ele><time>2026-07-14T22:27:11Z</time></trkpt>
			<trkpt lat="54.978000" lon="22.206230"><ele>14.3</ele><time>2026-07-14T22:27:20Z</time></trkpt>
			<trkpt lat="54.978370" lon="22.205410"><ele>14.0</ele><time>2026-07-14T22:27:29Z</time></trkpt>
			<trkpt lat="54.978920" lon="22.204310"><ele>15.2</ele><time>2026-07-14T22:27:38Z</time></trkpt>
			<trkpt lat="54.979480" lon="22.203330"><ele>15.9</ele><time>2026-07-14T22:27:47Z</time></trkpt>
			<trkpt lat="54.982940" lon="22.197230"><ele>15.4</ele><time>2026-07-14T22:27:56Z</time></trkpt>
			<trkpt lat="54.983360" lon="22.196550"><ele>16.6</ele><time>2026-07-14T22:28:05Z</time></trkpt>
			<trkpt lat="54.983760" lon="22.195970"><ele>16.5</ele><time>2026-07-14T22:28:14Z</time></trkpt>
			<trkpt lat="54.984480" lon="22.194880"><ele>16.5</ele><time>2026-07-14T22:28:23Z</time></trkpt>
			<trkpt lat="54.984940" lon="22.194250"><ele>16.0</ele><time>2026-07-14T22:28:32Z</time></trkpt>
			<trkpt lat="54.985370" lon="22.193600"><ele>15.7</ele><time>2026-07-14T22:28:41Z</time></trkpt>
			<trkpt lat="54.986430" lon="22.192050"><ele>14.6</ele><time>2026-07-14T22:28:50Z</time></trkpt>
			<trkpt lat="54.987230" lon="22.190940"><ele>13.6</ele><time>2026-07-14T22:28:59Z</time></trkpt>
			<trkpt lat="54.987800" lon="22.190260"><ele>14.4</ele><time>2026-07-14T22:29:08Z</time></trkpt>
			<trkpt lat="54.988200" lon="22.189840"><ele>15.2</ele><time>2026-07-14T22:29:17Z</time></trkpt>
			<trkpt lat="54.988580" lon="22.189490"><ele>14.7</ele><time>2026-07-14T22:29:26Z</time></trkpt>
			<trkpt lat="54.989950" lon="22.188220"><ele>11.2</ele><time>2026-07-14T22:29:35Z</time></trkpt>
			<trkpt lat="54.991350" lon="22.186960"><ele>8.7</ele><time>2026-07-14T22:29:44Z</time></trkpt>
			<trkpt lat="54.992010" lon="22.186350"><ele>8.6</ele><time>2026-07-14T22:29:53Z</time></trkpt>
			<trkpt lat="54.992670" lon="22.185700"><ele>10.9</ele><time>2026-07-14T22:30:02Z</time></trkpt>
			<trkpt lat="54.992960" lon="22.185360"><ele>12.4</ele><time>2026-07-14T22:30:11Z</time></trkpt>
			<trkpt lat="54.993210" lon="22.185010"><ele>13.3</ele><time>2026-07-14T22:30:20Z</time></trkpt>
			<trkpt lat="54.993460" lon="22.184620"><ele>13.4</ele><time>2026-07-14T22:30:29Z</time></trkpt>
			<trkpt lat="54.994020" lon="22.183710"><ele>14.0</ele><time>2026-07-14T22:30:38Z</time></trkpt>
			<trkpt lat="54.994160" lon="22.183470"><ele>14.0</ele><time>2026-07-14T22:30:47Z</time></trkpt>
			<trkpt lat="54.994210" lon="22.183350"><ele>13.9</ele><time>2026-07-14T22:30:56Z</time></trkpt>
			<trkpt lat="54.994330" lon="22.183090"><ele>13.6</ele><time>2026-07-14T22:31:05Z</time></trkpt>
			<trkpt lat="54.994710" lon="22.182180"><ele>13.0</ele><time>2026-07-14T22:31:14Z</time></trkpt>
			<trkpt lat="54.995070" lon="22.181090"><ele>13.5</ele><time>2026-07-14T22:31:24Z</time></trkpt>
			<trkpt lat="54.995430" lon="22.180050"><ele>12.5</ele><time>2026-07-14T22:31:33Z</time></trkpt>
			<trkpt lat="54.997020" lon="22.175400"><ele>12.7</ele><time>2026-07-14T22:31:42Z</time></trkpt>
			<trkpt lat="54.998480" lon="22.170970"><ele>12.6</ele><time>2026-07-14T22:31:51Z</time></trkpt>
			<trkpt lat="55.003710" lon="22.155390"><ele>16.0</ele><time>2026-07-14T22:32:00Z</time></trkpt>
			<trkpt lat="55.004480" lon="22.153060"><ele>18.4</ele><time>2026-07-14T22:32:09Z</time></trkpt>
			<trkpt lat="55.004560" lon="22.152830"><ele>18.5</ele><time>2026-07-14T22:32:18Z</time></trkpt>
			<trkpt lat="55.009120" lon="22.139280"><ele>24.7</ele><time>2026-07-14T22:32:27Z</time></trkpt>
			<trkpt lat="55.011380" lon="22.132420"><ele>45.8</ele><time>2026-07-14T22:32:36Z</time></trkpt>
			<trkpt lat="55.013610" lon="22.125690"><ele>46.7</ele><time>2026-07-14T22:32:45Z</time></trkpt>
			<trkpt lat="55.014240" lon="22.123750"><ele>43.2</ele><time>2026-07-14T22:32:54Z</time></trkpt>
			<trkpt lat="55.015030" lon="22.121300"><ele>40.3</ele><time>2026-07-14T22:33:03Z</time></trkpt>
			<trkpt lat="55.016140" lon="22.117900"><ele>42.1</ele><time>2026-07-14T22:33:12Z</time></trkpt>
			<trkpt lat="55.016380" lon="22.117180"><ele>44.4</ele><time>2026-07-14T22:33:21Z</time></trkpt>
			<trkpt lat="55.016640" lon="22.116250"><ele>46.9</ele><time>2026-07-14T22:33:30Z</time></trkpt>
			<trkpt lat="55.016850" lon="22.115380"><ele>47.8</ele><time>2026-07-14T22:33:39Z</time></trkpt>
			<trkpt lat="55.016970" lon="22.114710"><ele>48.6</ele><time>2026-07-14T22:33:48Z</time></trkpt>
			<trkpt lat="55.017000" lon="22.114500"><ele>48.8</ele><time>2026-07-14T22:33:57Z</time></trkpt>
			<trkpt lat="55.017070" lon="22.113720"><ele>49.1</ele><time>2026-07-14T22:34:06Z</time></trkpt>
			<trkpt lat="55.017130" lon="22.112810"><ele>49.5</ele><time>2026-07-14T22:34:15Z</time></trkpt>
			<trkpt lat="55.017130" lon="22.111920"><ele>50.7</ele><time>2026-07-14T22:34:24Z</time></trkpt>
			<trkpt lat="55.017150" lon="22.111220"><ele>51.5</ele><time>2026-07-14T22:34:33Z</time></trkpt>
			<trkpt lat="55.017190" lon="22.110380"><ele>51.0</ele><time>2026-07-14T22:34:42Z</time></trkpt>
			<trkpt lat="55.017220" lon="22.110100"><ele>50.6</ele><time>2026-07-14T22:34:51Z</time></trkpt>
			<trkpt lat="55.017380" lon="22.108840"><ele>48.5</ele><time>2026-07-14T22:35:00Z</time></trkpt>
			<trkpt lat="55.017970" lon="22.105360"><ele>45.0</ele><time>2026-07-14T22:35:09Z</time></trkpt>
			<trkpt lat="55.018050" lon="22.104650"><ele>43.5</ele><time>2026-07-14T22:35:18Z</time></trkpt>
			<trkpt lat="55.018330" lon="22.101480"><ele>39.8</ele><time>2026-07-14T22:35:27Z</time></trkpt>
			<trkpt lat="55.018330" lon="22.101430"><ele>39.8</ele><time>2026-07-14T22:35:36Z</time></trkpt>
			<trkpt lat="55.018630" lon="22.098100"><ele>37.1</ele><time>2026-07-14T22:35:45Z</time></trkpt>
			<trkpt lat="55.018710" lon="22.097160"><ele>36.8</ele><time>2026-07-14T22:35:54Z</time></trkpt>
			<trkpt lat="55.019270" lon="22.090820"><ele>35.0</ele><time>2026-07-14T22:36:03Z</time></trkpt>
			<trkpt lat="55.019560" lon="22.087440"><ele>32.5</ele><time>2026-07-14T22:36:12Z</time></trkpt>
			<trkpt lat="55.019870" lon="22.084060"><ele>34.3</ele><time>2026-07-14T22:36:21Z</time></trkpt>
			<trkpt lat="55.020070" lon="22.081690"><ele>34.2</ele><time>2026-07-14T22:36:30Z</time></trkpt>
			<trkpt lat="55.020090" lon="22.081500"><ele>34.9</ele><time>2026-07-14T22:36:39Z</time></trkpt>
			<trkpt lat="55.020170" lon="22.080710"><ele>36.7</ele><time>2026-07-14T22:36:48Z</time></trkpt>
			<trkpt lat="55.020340" lon="22.078630"><ele>35.7</ele><time>2026-07-14T22:36:57Z</time></trkpt>
			<trkpt lat="55.020490" lon="22.075120"><ele>41.0</ele><time>2026-07-14T22:37:06Z</time></trkpt>
			<trkpt lat="55.020520" lon="22.075000"><ele>40.9</ele><time>2026-07-14T22:37:15Z</time></trkpt>
			<trkpt lat="55.020500" lon="22.074900"><ele>40.6</ele><time>2026-07-14T22:37:24Z</time></trkpt>
			<trkpt lat="55.020470" lon="22.074830"><ele>40.4</ele><time>2026-07-14T22:37:33Z</time></trkpt>
			<trkpt lat="55.020410" lon="22.074820"><ele>40.1</ele><time>2026-07-14T22:37:42Z</time></trkpt>
			<trkpt lat="55.019980" lon="22.075070"><ele>37.6</ele><time>2026-07-14T22:37:51Z</time></trkpt>
			<trkpt lat="55.019830" lon="22.075090"><ele>36.6</ele><time>2026-07-14T22:38:00Z</time></trkpt>
			<trkpt lat="55.019790" lon="22.075090"><ele>36.4</ele><time>2026-07-14T22:38:09Z</time></trkpt>
			<trkpt lat="55.019520" lon="22.075080"><ele>34.5</ele><time>2026-07-14T22:38:18Z</time></trkpt>
			<trkpt lat="55.019000" lon="22.075060"><ele>31.6</ele><time>2026-07-14T22:38:27Z</time></trkpt>
			<trkpt lat="55.018530" lon="22.075030"><ele>30.4</ele><time>2026-07-14T22:38:36Z</time></trkpt>
			<trkpt lat="55.018430" lon="22.075030"><ele>30.2</ele><time>2026-07-14T22:38:45Z</time></trkpt>
			<trkpt lat="55.016150" lon="22.074940"><ele>26.7</ele><time>2026-07-14T22:38:54Z</time></trkpt>
			<trkpt lat="55.016150" lon="22.074940"><ele>26.7</ele><time>2026-07-14T22:39:05Z</time></trkpt>
			<trkpt lat="55.013340" lon="22.074820"><ele>27.5</ele><time>2026-07-14T22:39:16Z</time></trkpt>
			<trkpt lat="55.012730" lon="22.074780"><ele>26.5</ele><time>2026-07-14T22:39:28Z</time></trkpt>
			<trkpt lat="55.010730" lon="22.074700"><ele>26.5</ele><time>2026-07-14T22:39:39Z</time></trkpt>
			<trkpt lat="54.996360" lon="22.074080"><ele>21.6</ele><time>2026-07-14T22:39:50Z</time></trkpt>
			<trkpt lat="54.995630" lon="22.074200"><ele>21.5</ele><time>2026-07-14T22:40:01Z</time></trkpt>
			<trkpt lat="54.995570" lon="22.074220"><ele>21.7</ele><time>2026-07-14T22:40:12Z</time></trkpt>
			<trkpt lat="54.995110" lon="22.074370"><ele>22.8</ele><time>2026-07-14T22:40:23Z</time></trkpt>
			<trkpt lat="54.994370" lon="22.074520"><ele>23.8</ele><time>2026-07-14T22:40:34Z</time></trkpt>
			<trkpt lat="54.993460" lon="22.074730"><ele>24.8</ele><time>2026-07-14T22:40:45Z</time></trkpt>
			<trkpt lat="54.991520" lon="22.075160"><ele>26.2</ele><time>2026-07-14T22:40:56Z</time></trkpt>
			<trkpt lat="54.983400" lon="22.077200"><ele>27.9</ele><time>2026-07-14T22:41:07Z</time></trkpt>
			<trkpt lat="54.978040" lon="22.078550"><ele>28.3</ele><time>2026-07-14T22:41:18Z</time></trkpt>
			<trkpt lat="54.977940" lon="22.078570"><ele>28.3</ele><time>2026-07-14T22:41:29Z</time></trkpt>
			<trkpt lat="54.977530" lon="22.078680"><ele>28.3</ele><time>2026-07-14T22:41:40Z</time></trkpt>
			<trkpt lat="54.977040" lon="22.078840"><ele>27.7</ele><time>2026-07-14T22:41:52Z</time></trkpt>
			<trkpt lat="54.976690" lon="22.078920"><ele>27.3</ele><time>2026-07-14T22:42:03Z</time></trkpt>
			<trkpt lat="54.976300" lon="22.079010"><ele>27.9</ele><time>2026-07-14T22:42:14Z</time></trkpt>
			<trkpt lat="54.972580" lon="22.079960"><ele>31.8</ele><time>2026-07-14T22:42:25Z</time></trkpt>
			<trkpt lat="54.967320" lon="22.081130"><ele>34.8</ele><time>2026-07-14T22:42:36Z</time></trkpt>
			<trkpt lat="54.965200" lon="22.080900"><ele>42.3</ele><time>2026-07-14T22:42:47Z</time></trkpt>
			<trkpt lat="54.955930" lon="22.079780"><ele>40.7</ele><time>2026-07-14T22:42:58Z</time></trkpt>
			<trkpt lat="54.955450" lon="22.079620"><ele>41.0</ele><time>2026-07-14T22:43:09Z</time></trkpt>
			<trkpt lat="54.954320" lon="22.079270"><ele>41.3</ele><time>2026-07-14T22:43:20Z</time></trkpt>
			<trkpt lat="54.952550" lon="22.078440"><ele>41.7</ele><time>2026-07-14T22:43:31Z</time></trkpt>
			<trkpt lat="54.949500" lon="22.077060"><ele>36.9</ele><time>2026-07-14T22:43:42Z</time></trkpt>
			<trkpt lat="54.946020" lon="22.075430"><ele>36.5</ele><time>2026-07-14T22:43:53Z</time></trkpt>
			<trkpt lat="54.940160" lon="22.072710"><ele>43.1</ele><time>2026-07-14T22:44:04Z</time></trkpt>
			<trkpt lat="54.937570" lon="22.071480"><ele>44.2</ele><time>2026-07-14T22:44:16Z</time></trkpt>
			<trkpt lat="54.934730" lon="22.070170"><ele>44.8</ele><time>2026-07-14T22:44:27Z</time></trkpt>
			<trkpt lat="54.934350" lon="22.070120"><ele>45.1</ele><time>2026-07-14T22:44:38Z</time></trkpt>
			<trkpt lat="54.933840" lon="22.070160"><ele>46.2</ele><time>2026-07-14T22:44:49Z</time></trkpt>
			<trkpt lat="54.933330" lon="22.070220"><ele>47.4</ele><time>2026-07-14T22:45:00Z</time></trkpt>
			<trkpt lat="54.932730" lon="22.070400"><ele>48.3</ele><time>2026-07-14T22:45:11Z</time></trkpt>
			<trkpt lat="54.932410" lon="22.070530"><ele>48.7</ele><time>2026-07-14T22:45:22Z</time></trkpt>
			<trkpt lat="54.931850" lon="22.070930"><ele>49.9</ele><time>2026-07-14T22:45:33Z</time></trkpt>
			<trkpt lat="54.930680" lon="22.071870"><ele>54.8</ele><time>2026-07-14T22:45:44Z</time></trkpt>
			<trkpt lat="54.930320" lon="22.072150"><ele>57.3</ele><time>2026-07-14T22:45:55Z</time></trkpt>
			<trkpt lat="54.929520" lon="22.072820"><ele>60.0</ele><time>2026-07-14T22:46:06Z</time></trkpt>
			<trkpt lat="54.929050" lon="22.073280"><ele>60.1</ele><time>2026-07-14T22:46:17Z</time></trkpt>
			<trkpt lat="54.927430" lon="22.075100"><ele>63.0</ele><time>2026-07-14T22:46:28Z</time></trkpt>
			<trkpt lat="54.925610" lon="22.077270"><ele>64.0</ele><time>2026-07-14T22:46:40Z</time></trkpt>
			<trkpt lat="54.923850" lon="22.079210"><ele>64.6</ele><time>2026-07-14T22:46:51Z</time></trkpt>
			<trkpt lat="54.922870" lon="22.080300"><ele>62.5</ele><time>2026-07-14T22:47:02Z</time></trkpt>
			<trkpt lat="54.921670" lon="22.081450"><ele>62.4</ele><time>2026-07-14T22:47:13Z</time></trkpt>
			<trkpt lat="54.920700" lon="22.082260"><ele>63.3</ele><time>2026-07-14T22:47:24Z</time></trkpt>
			<trkpt lat="54.920800" lon="22.083100"><ele>62.2</ele><time>2026-07-14T22:47:35Z</time></trkpt>
			<trkpt lat="54.921090" lon="22.085540"><ele>60.3</ele><time>2026-07-14T22:47:46Z</time></trkpt>
			<trkpt lat="54.921190" lon="22.086650"><ele>60.9</ele><time>2026-07-14T22:47:57Z</time></trkpt>
			<trkpt lat="54.921380" lon="22.089240"><ele>59.3</ele><time>2026-07-14T22:48:08Z</time></trkpt>
			<trkpt lat="54.921660" lon="22.092730"><ele>53.9</ele><time>2026-07-14T22:48:19Z</time></trkpt>
			<trkpt lat="54.921800" lon="22.094430"><ele>55.2</ele><time>2026-07-14T22:48:30Z</time></trkpt>
			<trkpt lat="54.921910" lon="22.096570"><ele>55.7</ele><time>2026-07-14T22:48:41Z</time></trkpt>
			<trkpt lat="54.921910" lon="22.097460"><ele>55.0</ele><time>2026-07-14T22:48:52Z</time></trkpt>
			<trkpt lat="54.921890" lon="22.098260"><ele>55.1</ele><time>2026-07-14T22:49:04Z</time></trkpt>
			<trkpt lat="54.921840" lon="22.098960"><ele>54.4</ele><time>2026-07-14T22:49:15Z</time></trkpt>
			<trkpt lat="54.921770" lon="22.099650"><ele>54.0</ele><time>2026-07-14T22:49:26Z</time></trkpt>
			<trkpt lat="54.921690" lon="22.100210"><ele>53.7</ele><time>2026-07-14T22:49:37Z</time></trkpt>
			<trkpt lat="54.921550" lon="22.100970"><ele>53.2</ele><time>2026-07-14T22:49:48Z</time></trkpt>
			<trkpt lat="54.921350" lon="22.101720"><ele>51.9</ele><time>2026-07-14T22:49:59Z</time></trkpt>
			<trkpt lat="54.921160" lon="22.102350"><ele>51.2</ele><time>2026-07-14T22:50:10Z</time></trkpt>
			<trkpt lat="54.920900" lon="22.103090"><ele>51.0</ele><time>2026-07-14T22:50:21Z</time></trkpt>
			<trkpt lat="54.920520" lon="22.103970"><ele>51.0</ele><time>2026-07-14T22:50:32Z</time></trkpt>
			<trkpt lat="54.919350" lon="22.106880"><ele>45.9</ele><time>2026-07-14T22:50:43Z</time></trkpt>
			<trkpt lat="54.918760" lon="22.108390"><ele>44.6</ele><time>2026-07-14T22:50:54Z</time></trkpt>
			<trkpt lat="54.918550" lon="22.109090"><ele>41.7</ele><time>2026-07-14T22:51:05Z</time></trkpt>
			<trkpt lat="54.918380" lon="22.109870"><ele>36.1</ele><time>2026-07-14T22:51:17Z</time></trkpt>
			<trkpt lat="54.918260" lon="22.110640"><ele>30.5</ele><time>2026-07-14T22:51:28Z</time></trkpt>
			<trkpt lat="54.918220" lon="22.111560"><ele>28.0</ele><time>2026-07-14T22:51:39Z</time></trkpt>
			<trkpt lat="54.918170" lon="22.116020"><ele>22.0</ele><time>2026-07-14T22:51:50Z</time></trkpt>
			<trkpt lat="54.918140" lon="22.118270"><ele>19.9</ele><time>2026-07-14T22:52:01Z</time></trkpt>
			<trkpt lat="54.918100" lon="22.121780"><ele>16.9</ele><time>2026-07-14T22:52:12Z</time></trkpt>
			<trkpt lat="54.918020" lon="22.131000"><ele>14.9</ele><time>2026-07-14T22:52:23Z</time></trkpt>
			<trkpt lat="54.918020" lon="22.131240"><ele>14.9</ele><time>2026-07-14T22:52:34Z</time></trkpt>
			<trkpt lat="54.917980" lon="22.132990"><ele>18.7</ele><time>2026-07-14T22:52:45Z</time></trkpt>
			<trkpt lat="54.917970" lon="22.133180"><ele>19.2</ele><time>2026-07-14T22:52:56Z</time></trkpt>
			<trkpt lat="54.917970" lon="22.133370"><ele>19.7</ele><time>2026-07-14T22:53:07Z</time></trkpt>
			<trkpt lat="54.917930" lon="22.133910"><ele>21.2</ele><time>2026-07-14T22:53:18Z</time></trkpt>
			<trkpt lat="54.917880" lon="22.134560"><ele>22.4</ele><time>2026-07-14T22:53:29Z</time></trkpt>
			<trkpt lat="54.917850" lon="22.136390"><ele>22.7</ele><time>2026-07-14T22:53:41Z</time></trkpt>
			<trkpt lat="54.917810" lon="22.140080"><ele>27.6</ele><time>2026-07-14T22:53:52Z</time></trkpt>
			<trkpt lat="54.917760" lon="22.140950"><ele>27.5</ele><time>2026-07-14T22:54:03Z</time></trkpt>
			<trkpt lat="54.917680" lon="22.141750"><ele>27.1</ele><time>2026-07-14T22:54:14Z</time></trkpt>
			<trkpt lat="54.917540" lon="22.142600"><ele>27.1</ele><time>2026-07-14T22:54:25Z</time></trkpt>
			<trkpt lat="54.917020" lon="22.144660"><ele>27.8</ele><time>2026-07-14T22:54:36Z</time></trkpt>
			<trkpt lat="54.915620" lon="22.149780"><ele>27.7</ele><time>2026-07-14T22:54:47Z</time></trkpt>
			<trkpt lat="54.914330" lon="22.154410"><ele>27.0</ele><time>2026-07-14T22:54:58Z</time></trkpt>
			<trkpt lat="54.907910" lon="22.177780"><ele>27.3</ele><time>2026-07-14T22:55:09Z</time></trkpt>
			<trkpt lat="54.907110" lon="22.180750"><ele>27.6</ele><time>2026-07-14T22:55:20Z</time></trkpt>
			<trkpt lat="54.902770" lon="22.196440"><ele>27.0</ele><time>2026-07-14T22:55:31Z</time></trkpt>
			<trkpt lat="54.901600" lon="22.200750"><ele>23.5</ele><time>2026-07-14T22:55:42Z</time></trkpt>
			<trkpt lat="54.897930" lon="22.214230"><ele>22.5</ele><time>2026-07-14T22:55:53Z</time></trkpt>
			<trkpt lat="54.896940" lon="22.217660"><ele>20.8</ele><time>2026-07-14T22:56:05Z</time></trkpt>
			<trkpt lat="54.896700" lon="22.218360"><ele>21.6</ele><time>2026-07-14T22:56:16Z</time></trkpt>
			<trkpt lat="54.896450" lon="22.218990"><ele>21.9</ele><time>2026-07-14T22:56:27Z</time></trkpt>
			<trkpt lat="54.896150" lon="22.219640"><ele>21.4</ele><time>2026-07-14T22:56:38Z</time></trkpt>
			<trkpt lat="54.894550" lon="22.222750"><ele>19.9</ele><time>2026-07-14T22:56:49Z</time></trkpt>
			<trkpt lat="54.894320" lon="22.223170"><ele>19.9</ele><time>2026-07-14T22:57:00Z</time></trkpt>
			<trkpt lat="54.893360" lon="22.225010"><ele>21.8</ele><time>2026-07-14T22:57:11Z</time></trkpt>
			<trkpt lat="54.893030" lon="22.225770"><ele>22.0</ele><time>2026-07-14T22:57:22Z</time></trkpt>
			<trkpt lat="54.892810" lon="22.226360"><ele>22.4</ele><time>2026-07-14T22:57:33Z</time></trkpt>
			<trkpt lat="54.892610" lon="22.227070"><ele>22.9</ele><time>2026-07-14T22:57:44Z</time></trkpt>
			<trkpt lat="54.892400" lon="22.228010"><ele>22.2</ele><time>2026-07-14T22:57:55Z</time></trkpt>
			<trkpt lat="54.891560" lon="22.232460"><ele>23.9</ele><time>2026-07-14T22:58:06Z</time></trkpt>
			<trkpt lat="54.891540" lon="22.232570"><ele>24.0</ele><time>2026-07-14T22:58:17Z</time></trkpt>
			<trkpt lat="54.890750" lon="22.236640"><ele>25.8</ele><time>2026-07-14T22:58:29Z</time></trkpt>
			<trkpt lat="54.890140" lon="22.240120"><ele>24.9</ele><time>2026-07-14T22:58:40Z</time></trkpt>
			<trkpt lat="54.890010" lon="22.240820"><ele>24.1</ele><time>2026-07-14T22:58:51Z</time></trkpt>
			<trkpt lat="54.889180" lon="22.245170"><ele>23.2</ele><time>2026-07-14T22:59:02Z</time></trkpt>
			<trkpt lat="54.888940" lon="22.246330"><ele>23.3</ele><time>2026-07-14T22:59:13Z</time></trkpt>
			<trkpt lat="54.888850" lon="22.246610"><ele>23.0</ele><time>2026-07-14T22:59:24Z</time></trkpt>
			<trkpt lat="54.888720" lon="22.246950"><ele>22.6</ele><time>2026-07-14T22:59:35Z</time></trkpt>
			<trkpt lat="54.888400" lon="22.247440"><ele>21.5</ele><time>2026-07-14T22:59:46Z</time></trkpt>
			<trkpt lat="54.888150" lon="22.247760"><ele>21.3</ele><time>2026-07-14T22:59:57Z</time></trkpt>
			<trkpt lat="54.887740" lon="22.248340"><ele>22.5</ele><time>2026-07-14T23:00:08Z</time></trkpt>
			<trkpt lat="54.883370" lon="22.254440"><ele>29.6</ele><time>2026-07-14T23:00:19Z</time></trkpt>
			<trkpt lat="54.873230" lon="22.268640"><ele>34.8</ele><time>2026-07-14T23:00:30Z</time></trkpt>
			<trkpt lat="54.873230" lon="22.268640"><ele>34.8</ele><time>2026-07-14T23:00:37Z</time></trkpt>
			<trkpt lat="54.868630" lon="22.275320"><ele>33.3</ele><time>2026-07-14T23:00:45Z</time></trkpt>
			<trkpt lat="54.866600" lon="22.278310"><ele>32.7</ele><time>2026-07-14T23:00:52Z</time></trkpt>
			<trkpt lat="54.865140" lon="22.280340"><ele>32.1</ele><time>2026-07-14T23:00:59Z</time></trkpt>
			<trkpt lat="54.864620" lon="22.280950"><ele>31.9</ele><time>2026-07-14T23:01:06Z</time></trkpt>
			<trkpt lat="54.864550" lon="22.281020"><ele>31.9</ele><time>2026-07-14T23:01:13Z</time></trkpt>
			<trkpt lat="54.864290" lon="22.281270"><ele>32.0</ele><time>2026-07-14T23:01:20Z</time></trkpt>
			<trkpt lat="54.864000" lon="22.281500"><ele>32.2</ele><time>2026-07-14T23:01:27Z</time></trkpt>
			<trkpt lat="54.862930" lon="22.282230"><ele>33.4</ele><time>2026-07-14T23:01:34Z</time></trkpt>
			<trkpt lat="54.862430" lon="22.282600"><ele>34.1</ele><time>2026-07-14T23:01:41Z</time></trkpt>
			<trkpt lat="54.861780" lon="22.283040"><ele>34.3</ele><time>2026-07-14T23:01:48Z</time></trkpt>
			<trkpt lat="54.861460" lon="22.283250"><ele>34.1</ele><time>2026-07-14T23:01:55Z</time></trkpt>
			<trkpt lat="54.861130" lon="22.283480"><ele>34.0</ele><time>2026-07-14T23:02:03Z</time></trkpt>
			<trkpt lat="54.860870" lon="22.283640"><ele>34.1</ele><time>2026-07-14T23:02:10Z</time></trkpt>
			<trkpt lat="54.859150" lon="22.284930"><ele>35.1</ele><time>2026-07-14T23:02:17Z</time></trkpt>
			<trkpt lat="54.855530" lon="22.287330"><ele>36.6</ele><time>2026-07-14T23:02:24Z</time></trkpt>
			<trkpt lat="54.854870" lon="22.287770"><ele>36.0</ele><time>2026-07-14T23:02:31Z</time></trkpt>
			<trkpt lat="54.850840" lon="22.290450"><ele>34.2</ele><time>2026-07-14T23:02:38Z</time></trkpt>
			<trkpt lat="54.845130" lon="22.294400"><ele>34.7</ele><time>2026-07-14T23:02:45Z</time></trkpt>
			<trkpt lat="54.843990" lon="22.295140"><ele>35.5</ele><time>2026-07-14T23:02:52Z</time></trkpt>
			<trkpt lat="54.842060" lon="22.296440"><ele>35.3</ele><time>2026-07-14T23:02:59Z</time></trkpt>
			<trkpt lat="54.834890" lon="22.301240"><ele>39.5</ele><time>2026-07-14T23:03:06Z</time></trkpt>
			<trkpt lat="54.825200" lon="22.307780"><ele>40.4</ele><time>2026-07-14T23:03:13Z</time></trkpt>
			<trkpt lat="54.819590" lon="22.311610"><ele>39.0</ele><time>2026-07-14T23:03:20Z</time></trkpt>
			<trkpt lat="54.817550" lon="22.313090"><ele>39.0</ele><time>2026-07-14T23:03:28Z</time></trkpt>
			<trkpt lat="54.815840" lon="22.314370"><ele>40.7</ele><time>2026-07-14T23:03:35Z</time></trkpt>
			<trkpt lat="54.815500" lon="22.314670"><ele>40.6</ele><time>2026-07-14T23:03:42Z</time></trkpt>
			<trkpt lat="54.815020" lon="22.315410"><ele>40.5</ele><time>2026-07-14T23:03:49Z</time></trkpt>
			<trkpt lat="54.814850" lon="22.315710"><ele>40.2</ele><time>2026-07-14T23:03:56Z</time></trkpt>
			<trkpt lat="54.814620" lon="22.315900"><ele>40.0</ele><time>2026-07-14T23:04:03Z</time></trkpt>
			<trkpt lat="54.814220" lon="22.316060"><ele>39.8</ele><time>2026-07-14T23:04:10Z</time></trkpt>
			<trkpt lat="54.807490" lon="22.319210"><ele>44.9</ele><time>2026-07-14T23:04:17Z</time></trkpt>
			<trkpt lat="54.801620" lon="22.322050"><ele>44.6</ele><time>2026-07-14T23:04:24Z</time></trkpt>
			<trkpt lat="54.797520" lon="22.323970"><ele>49.8</ele><time>2026-07-14T23:04:31Z</time></trkpt>
			<trkpt lat="54.796850" lon="22.324280"><ele>49.2</ele><time>2026-07-14T23:04:38Z</time></trkpt>
			<trkpt lat="54.787990" lon="22.328580"><ele>52.1</ele><time>2026-07-14T23:04:45Z</time></trkpt>
			<trkpt lat="54.787340" lon="22.328800"><ele>53.7</ele><time>2026-07-14T23:04:53Z</time></trkpt>
			<trkpt lat="54.787130" lon="22.328840"><ele>54.1</ele><time>2026-07-14T23:05:00Z</time></trkpt>
			<trkpt lat="54.786560" lon="22.328880"><ele>55.3</ele><time>2026-07-14T23:05:07Z</time></trkpt>
			<trkpt lat="54.786340" lon="22.328940"><ele>56.0</ele><time>2026-07-14T23:05:14Z</time></trkpt>
			<trkpt lat="54.786140" lon="22.329070"><ele>56.8</ele><time>2026-07-14T23:05:21Z</time></trkpt>
			<trkpt lat="54.785860" lon="22.329290"><ele>58.0</ele><time>2026-07-14T23:05:28Z</time></trkpt>
			<trkpt lat="54.785490" lon="22.329490"><ele>59.8</ele><time>2026-07-14T23:05:35Z</time></trkpt>
			<trkpt lat="54.785120" lon="22.329620"><ele>61.5</ele><time>2026-07-14T23:05:42Z</time></trkpt>
			<trkpt lat="54.784640" lon="22.329750"><ele>63.3</ele><time>2026-07-14T23:05:49Z</time></trkpt>
			<trkpt lat="54.783550" lon="22.330260"><ele>64.9</ele><time>2026-07-14T23:05:56Z</time></trkpt>
			<trkpt lat="54.782360" lon="22.330850"><ele>65.0</ele><time>2026-07-14T23:06:03Z</time></trkpt>
			<trkpt lat="54.780980" lon="22.331510"><ele>64.9</ele><time>2026-07-14T23:06:11Z</time></trkpt>
			<trkpt lat="54.779310" lon="22.332290"><ele>62.5</ele><time>2026-07-14T23:06:18Z</time></trkpt>
			<trkpt lat="54.779070" lon="22.332420"><ele>62.0</ele><time>2026-07-14T23:06:25Z</time></trkpt>
			<trkpt lat="54.774030" lon="22.334850"><ele>61.9</ele><time>2026-07-14T23:06:32Z</time></trkpt>
			<trkpt lat="54.769250" lon="22.337080"><ele>56.8</ele><time>2026-07-14T23:06:39Z</time></trkpt>
			<trkpt lat="54.762310" lon="22.340360"><ele>59.8</ele><time>2026-07-14T23:06:46Z</time></trkpt>
			<trkpt lat="54.761030" lon="22.340960"><ele>59.8</ele><time>2026-07-14T23:06:53Z</time></trkpt>
			<trkpt lat="54.760890" lon="22.341080"><ele>59.8</ele><time>2026-07-14T23:07:00Z</time></trkpt>
			<trkpt lat="54.760200" lon="22.342540"><ele>60.5</ele><time>2026-07-14T23:07:07Z</time></trkpt>
			<trkpt lat="54.759950" lon="22.343010"><ele>60.5</ele><time>2026-07-14T23:07:14Z</time></trkpt>
			<trkpt lat="54.759820" lon="22.343220"><ele>60.6</ele><time>2026-07-14T23:07:21Z</time></trkpt>
			<trkpt lat="54.759680" lon="22.343450"><ele>60.9</ele><time>2026-07-14T23:07:28Z</time></trkpt>
			<trkpt lat="54.758760" lon="22.344620"><ele>61.1</ele><time>2026-07-14T23:07:36Z</time></trkpt>
			<trkpt lat="54.758600" lon="22.344780"><ele>60.6</ele><time>2026-07-14T23:07:43Z</time></trkpt>
			<trkpt lat="54.758410" lon="22.344980"><ele>60.4</ele><time>2026-07-14T23:07:50Z</time></trkpt>
			<trkpt lat="54.758050" lon="22.345370"><ele>60.2</ele><time>2026-07-14T23:07:57Z</time></trkpt>
			<trkpt lat="54.757260" lon="22.346480"><ele>59.5</ele><time>2026-07-14T23:08:04Z</time></trkpt>
			<trkpt lat="54.756890" lon="22.346750"><ele>59.1</ele><time>2026-07-14T23:08:11Z</time></trkpt>
			<trkpt lat="54.756600" lon="22.347100"><ele>59.0</ele><time>2026-07-14T23:08:18Z</time></trkpt>
			<trkpt lat="54.756480" lon="22.346900"><ele>59.1</ele><time>2026-07-14T23:08:25Z</time></trkpt>
			<trkpt lat="54.756260" lon="22.346510"><ele>60.1</ele><time>2026-07-14T23:08:32Z</time></trkpt>
			<trkpt lat="54.756060" lon="22.346080"><ele>61.0</ele><time>2026-07-14T23:08:39Z</time></trkpt>
			<trkpt lat="54.755880" lon="22.345840"><ele>61.8</ele><time>2026-07-14T23:08:46Z</time></trkpt>
			<trkpt lat="54.754440" lon="22.344740"><ele>62.6</ele><time>2026-07-14T23:08:54Z</time></trkpt>
			<trkpt lat="54.753910" lon="22.344180"><ele>62.3</ele><time>2026-07-14T23:09:01Z</time></trkpt>
			<trkpt lat="54.753710" lon="22.343940"><ele>62.4</ele><time>2026-07-14T23:09:08Z</time></trkpt>
			<trkpt lat="54.752800" lon="22.342900"><ele>62.3</ele><time>2026-07-14T23:09:15Z</time></trkpt>
			<trkpt lat="54.752700" lon="22.342780"><ele>62.2</ele><time>2026-07-14T23:09:22Z</time></trkpt>
			<trkpt lat="54.752100" lon="22.342060"><ele>61.7</ele><time>2026-07-14T23:09:29Z</time></trkpt>
			<trkpt lat="54.751800" lon="22.341660"><ele>61.6</ele><time>2026-07-14T23:09:36Z</time></trkpt>
			<trkpt lat="54.751420" lon="22.341210"><ele>61.1</ele><time>2026-07-14T23:09:43Z</time></trkpt>
			<trkpt lat="54.750310" lon="22.339890"><ele>59.4</ele><time>2026-07-14T23:09:50Z</time></trkpt>
			<trkpt lat="54.748720" lon="22.337950"><ele>58.0</ele><time>2026-07-14T23:09:57Z</time></trkpt>
			<trkpt lat="54.748290" lon="22.337400"><ele>57.9</ele><time>2026-07-14T23:10:04Z</time></trkpt>
			<trkpt lat="54.748000" lon="22.337160"><ele>57.8</ele><time>2026-07-14T23:10:11Z</time></trkpt>
			<trkpt lat="54.747550" lon="22.336880"><ele>57.8</ele><time>2026-07-14T23:10:19Z</time></trkpt>
			<trkpt lat="54.746910" lon="22.336630"><ele>57.3</ele><time>2026-07-14T23:10:26Z</time></trkpt>
			<trkpt lat="54.745180" lon="22.336190"><ele>57.8</ele><time>2026-07-14T23:10:33Z</time></trkpt>
			<trkpt lat="54.742110" lon="22.335630"><ele>59.9</ele><time>2026-07-14T23:10:40Z</time></trkpt>
			<trkpt lat="54.741500" lon="22.335550"><ele>59.0</ele><time>2026-07-14T23:10:47Z</time></trkpt>
			<trkpt lat="54.740920" lon="22.335510"><ele>58.9</ele><time>2026-07-14T23:10:54Z</time></trkpt>
			<trkpt lat="54.739390" lon="22.335510"><ele>57.2</ele><time>2026-07-14T23:11:01Z</time></trkpt>
			<trkpt lat="54.738520" lon="22.335530"><ele>57.5</ele><time>2026-07-14T23:11:08Z</time></trkpt>
			<trkpt lat="54.737560" lon="22.335510"><ele>57.6</ele><time>2026-07-14T23:11:15Z</time></trkpt>
			<trkpt lat="54.736880" lon="22.335390"><ele>57.1</ele><time>2026-07-14T23:11:22Z</time></trkpt>
			<trkpt lat="54.736170" lon="22.335160"><ele>57.7</ele><time>2026-07-14T23:11:29Z</time></trkpt>
			<trkpt lat="54.735230" lon="22.334710"><ele>58.0</ele><time>2026-07-14T23:11:37Z</time></trkpt>
			<trkpt lat="54.734070" lon="22.334050"><ele>60.4</ele><time>2026-07-14T23:11:44Z</time></trkpt>
			<trkpt lat="54.731090" lon="22.332420"><ele>60.1</ele><time>2026-07-14T23:11:51Z</time></trkpt>
			<trkpt lat="54.730750" lon="22.332170"><ele>59.1</ele><time>2026-07-14T23:11:58Z</time></trkpt>
			<trkpt lat="54.730460" lon="22.331830"><ele>57.9</ele><time>2026-07-14T23:12:05Z</time></trkpt>
			<trkpt lat="54.730200" lon="22.331350"><ele>56.5</ele><time>2026-07-14T23:12:12Z</time></trkpt>
			<trkpt lat="54.729530" lon="22.329820"><ele>55.8</ele><time>2026-07-14T23:12:19Z</time></trkpt>
			<trkpt lat="54.728770" lon="22.328120"><ele>58.9</ele><time>2026-07-14T23:12:26Z</time></trkpt>
			<trkpt lat="54.728570" lon="22.327850"><ele>58.9</ele><time>2026-07-14T23:12:33Z</time></trkpt>
			<trkpt lat="54.728240" lon="22.327610"><ele>58.8</ele><time>2026-07-14T23:12:40Z</time></trkpt>
			<trkpt lat="54.727560" lon="22.327160"><ele>59.3</ele><time>2026-07-14T23:12:47Z</time></trkpt>
			<trkpt lat="54.726800" lon="22.326690"><ele>59.3</ele><time>2026-07-14T23:12:54Z</time></trkpt>
			<trkpt lat="54.726510" lon="22.326390"><ele>59.0</ele><time>2026-07-14T23:13:02Z</time></trkpt>
			<trkpt lat="54.726220" lon="22.326010"><ele>58.7</ele><time>2026-07-14T23:13:09Z</time></trkpt>
			<trkpt lat="54.725980" lon="22.325630"><ele>59.1</ele><time>2026-07-14T23:13:16Z</time></trkpt>
			<trkpt lat="54.725680" lon="22.325090"><ele>59.9</ele><time>2026-07-14T23:13:23Z</time></trkpt>
			<trkpt lat="54.725390" lon="22.324410"><ele>59.6</ele><time>2026-07-14T23:13:30Z</time></trkpt>
			<trkpt lat="54.725100" lon="22.323800"><ele>59.3</ele><time>2026-07-14T23:13:37Z</time></trkpt>
			<trkpt lat="54.724650" lon="22.323050"><ele>58.5</ele><time>2026-07-14T23:13:44Z</time></trkpt>
			<trkpt lat="54.714130" lon="22.309510"><ele>50.8</ele><time>2026-07-14T23:13:51Z</time></trkpt>
			<trkpt lat="54.713850" lon="22.309240"><ele>50.2</ele><time>2026-07-14T23:13:58Z</time></trkpt>
			<trkpt lat="54.713670" lon="22.309100"><ele>49.8</ele><time>2026-07-14T23:14:05Z</time></trkpt>
			<trkpt lat="54.713410" lon="22.309040"><ele>49.2</ele><time>2026-07-14T23:14:12Z</time></trkpt>
			<trkpt lat="54.713220" lon="22.309060"><ele>49.3</ele><time>2026-07-14T23:14:20Z</time></trkpt>
			<trkpt lat="54.712410" lon="22.309310"><ele>49.5</ele><time>2026-07-14T23:14:27Z</time></trkpt>
			<trkpt lat="54.709420" lon="22.310170"><ele>49.3</ele><time>2026-07-14T23:14:34Z</time></trkpt>
			<trkpt lat="54.708570" lon="22.310480"><ele>50.4</ele><time>2026-07-14T23:14:41Z</time></trkpt>
			<trkpt lat="54.706520" lon="22.311370"><ele>55.3</ele><time>2026-07-14T23:14:48Z</time></trkpt>
			<trkpt lat="54.706000" lon="22.311560"><ele>56.5</ele><time>2026-07-14T23:14:55Z</time></trkpt>
			<trkpt lat="54.703910" lon="22.312000"><ele>57.4</ele><time>2026-07-14T23:15:02Z</time></trkpt>
			<trkpt lat="54.702420" lon="22.312370"><ele>58.3</ele><time>2026-07-14T23:15:09Z</time></trkpt>
			<trkpt lat="54.701990" lon="22.312440"><ele>56.4</ele><time>2026-07-14T23:15:16Z</time></trkpt>
			<trkpt lat="54.701690" lon="22.312440"><ele>55.2</ele><time>2026-07-14T23:15:23Z</time></trkpt>
			<trkpt lat="54.701300" lon="22.312340"><ele>54.4</ele><time>2026-07-14T23:15:30Z</time></trkpt>
			<trkpt lat="54.699880" lon="22.311860"><ele>54.2</ele><time>2026-07-14T23:15:37Z</time></trkpt>
			<trkpt lat="54.698040" lon="22.311290"><ele>53.9</ele><time>2026-07-14T23:15:45Z</time></trkpt>
			<trkpt lat="54.697320" lon="22.311060"><ele>54.6</ele><time>2026-07-14T23:15:52Z</time></trkpt>
			<trkpt lat="54.696850" lon="22.310860"><ele>54.2</ele><time>2026-07-14T23:15:59Z</time></trkpt>
			<trkpt lat="54.696630" lon="22.310710"><ele>54.2</ele><time>2026-07-14T23:16:06Z</time></trkpt>
			<trkpt lat="54.696470" lon="22.310500"><ele>54.3</ele><time>2026-07-14T23:16:13Z</time></trkpt>
			<trkpt lat="54.696330" lon="22.310170"><ele>54.7</ele><time>2026-07-14T23:16:20Z</time></trkpt>
			<trkpt lat="54.695710" lon="22.308310"><ele>56.8</ele><time>2026-07-14T23:16:27Z</time></trkpt>
			<trkpt lat="54.695460" lon="22.307740"><ele>56.2</ele><time>2026-07-14T23:16:34Z</time></trkpt>
			<trkpt lat="54.695170" lon="22.307280"><ele>56.0</ele><time>2026-07-14T23:16:41Z</time></trkpt>
			<trkpt lat="54.694720" lon="22.306640"><ele>56.0</ele><time>2026-07-14T23:16:48Z</time></trkpt>
			<trkpt lat="54.694470" lon="22.306350"><ele>55.9</ele><time>2026-07-14T23:16:55Z</time></trkpt>
			<trkpt lat="54.694180" lon="22.306110"><ele>56.0</ele><time>2026-07-14T23:17:02Z</time></trkpt>
			<trkpt lat="54.693750" lon="22.305930"><ele>56.0</ele><time>2026-07-14T23:17:10Z</time></trkpt>
			<trkpt lat="54.689960" lon="22.304470"><ele>62.0</ele><time>2026-07-14T23:17:17Z</time></trkpt>
			<trkpt lat="54.686140" lon="22.303020"><ele>63.5</ele><time>2026-07-14T23:17:24Z</time></trkpt>
			<trkpt lat="54.683340" lon="22.301900"><ele>64.2</ele><time>2026-07-14T23:17:31Z</time></trkpt>
			<trkpt lat="54.683120" lon="22.301840"><ele>64.2</ele><time>2026-07-14T23:17:38Z</time></trkpt>
			<trkpt lat="54.682980" lon="22.301820"><ele>64.1</ele><time>2026-07-14T23:17:45Z</time></trkpt>
			<trkpt lat="54.682880" lon="22.301830"><ele>64.1</ele><time>2026-07-14T23:17:52Z</time></trkpt>
			<trkpt lat="54.682800" lon="22.301860"><ele>64.1</ele><time>2026-07-14T23:17:59Z</time></trkpt>
			<trkpt lat="54.682550" lon="22.301980"><ele>64.0</ele><time>2026-07-14T23:18:06Z</time></trkpt>
			<trkpt lat="54.682330" lon="22.302150"><ele>63.5</ele><time>2026-07-14T23:18:13Z</time></trkpt>
			<trkpt lat="54.681900" lon="22.302560"><ele>62.6</ele><time>2026-07-14T23:18:20Z</time></trkpt>
			<trkpt lat="54.680960" lon="22.303430"><ele>64.0</ele><time>2026-07-14T23:18:28Z</time></trkpt>
			<trkpt lat="54.680020" lon="22.304280"><ele>66.6</ele><time>2026-07-14T23:18:35Z</time></trkpt>
			<trkpt lat="54.679510" lon="22.304740"><ele>65.4</ele><time>2026-07-14T23:18:42Z</time></trkpt>
			<trkpt lat="54.679220" lon="22.304930"><ele>65.2</ele><time>2026-07-14T23:18:49Z</time></trkpt>
			<trkpt lat="54.679030" lon="22.305020"><ele>65.4</ele><time>2026-07-14T23:18:56Z</time></trkpt>
			<trkpt lat="54.678830" lon="22.305090"><ele>65.8</ele><time>2026-07-14T23:19:03Z</time></trkpt>
			<trkpt lat="54.678560" lon="22.305140"><ele>66.4</ele><time>2026-07-14T23:19:10Z</time></trkpt>
			<trkpt lat="54.678030" lon="22.305150"><ele>67.0</ele><time>2026-07-14T23:19:17Z</time></trkpt>
			<trkpt lat="54.677730" lon="22.305130"><ele>67.0</ele><time>2026-07-14T23:19:24Z</time></trkpt>
			<trkpt lat="54.676860" lon="22.304980"><ele>67.0</ele><time>2026-07-14T23:19:31Z</time></trkpt>
			<trkpt lat="54.676290" lon="22.304860"><ele>67.1</ele><time>2026-07-14T23:19:38Z</time></trkpt>
			<trkpt lat="54.675690" lon="22.304700"><ele>67.2</ele><time>2026-07-14T23:19:45Z</time></trkpt>
			<trkpt lat="54.672220" lon="22.302950"><ele>68.5</ele><time>2026-07-14T23:19:53Z</time></trkpt>
			<trkpt lat="54.671740" lon="22.302710"><ele>67.9</ele><time>2026-07-14T23:20:00Z</time></trkpt>
			<trkpt lat="54.669030" lon="22.301380"><ele>70.0</ele><time>2026-07-14T23:20:07Z</time></trkpt>
			<trkpt lat="54.666020" lon="22.299860"><ele>71.5</ele><time>2026-07-14T23:20:14Z</time></trkpt>
			<trkpt lat="54.662530" lon="22.298100"><ele>73.8</ele><time>2026-07-14T23:20:21Z</time></trkpt>
			<trkpt lat="54.658560" lon="22.295540"><ele>71.2</ele><time>2026-07-14T23:20:28Z</time></trkpt>
			<trkpt lat="54.658080" lon="22.295210"><ele>70.9</ele><time>2026-07-14T23:20:35Z</time></trkpt>
			<trkpt lat="54.657730" lon="22.294840"><ele>71.2</ele><time>2026-07-14T23:20:42Z</time></trkpt>
			<trkpt lat="54.657260" lon="22.294200"><ele>71.2</ele><time>2026-07-14T23:20:49Z</time></trkpt>
			<trkpt lat="54.656310" lon="22.292940"><ele>70.8</ele><time>2026-07-14T23:20:56Z</time></trkpt>
			<trkpt lat="54.653960" lon="22.289850"><ele>69.0</ele><time>2026-07-14T23:21:03Z</time></trkpt>
			<trkpt lat="54.653550" lon="22.289310"><ele>67.3</ele><time>2026-07-14T23:21:11Z</time></trkpt>
			<trkpt lat="54.651330" lon="22.286410"><ele>67.4</ele><time>2026-07-14T23:21:18Z</time></trkpt>
			<trkpt lat="54.648310" lon="22.282450"><ele>66.8</ele><time>2026-07-14T23:21:25Z</time></trkpt>
			<trkpt lat="54.648120" lon="22.282120"><ele>66.5</ele><time>2026-07-14T23:21:32Z</time></trkpt>
			<trkpt lat="54.647860" lon="22.281480"><ele>66.0</ele><time>2026-07-14T23:21:39Z</time></trkpt>
			<trkpt lat="54.647420" lon="22.280240"><ele>67.0</ele><time>2026-07-14T23:21:46Z</time></trkpt>
			<trkpt lat="54.647270" lon="22.279900"><ele>66.6</ele><time>2026-07-14T23:21:53Z</time></trkpt>
			<trkpt lat="54.647240" lon="22.279840"><ele>66.5</ele><time>2026-07-14T23:22:00Z</time></trkpt>
			<trkpt lat="54.647110" lon="22.279710"><ele>66.1</ele><time>2026-07-14T23:22:07Z</time></trkpt>
			<trkpt lat="54.646950" lon="22.279650"><ele>65.3</ele><time>2026-07-14T23:22:14Z</time></trkpt>
			<trkpt lat="54.646070" lon="22.279460"><ele>61.4</ele><time>2026-07-14T23:22:21Z</time></trkpt>
			<trkpt lat="54.645210" lon="22.279240"><ele>60.0</ele><time>2026-07-14T23:22:28Z</time></trkpt>
			<trkpt lat="54.645030" lon="22.279090"><ele>59.9</ele><time>2026-07-14T23:22:36Z</time></trkpt>
			<trkpt lat="54.644140" lon="22.278130"><ele>61.1</ele><time>2026-07-14T23:22:43Z</time></trkpt>
			<trkpt lat="54.643990" lon="22.277920"><ele>60.5</ele><time>2026-07-14T23:22:50Z</time></trkpt>
			<trkpt lat="54.643840" lon="22.277620"><ele>59.7</ele><time>2026-07-14T23:22:57Z</time></trkpt>
			<trkpt lat="54.642670" lon="22.274470"><ele>57.3</ele><time>2026-07-14T23:23:04Z</time></trkpt>
			<trkpt lat="54.642560" lon="22.274200"><ele>57.7</ele><time>2026-07-14T23:23:11Z</time></trkpt>
			<trkpt lat="54.641390" lon="22.271140"><ele>58.9</ele><time>2026-07-14T23:23:18Z</time></trkpt>
			<trkpt lat="54.641200" lon="22.270620"><ele>59.3</ele><time>2026-07-14T23:23:25Z</time></trkpt>
			<trkpt lat="54.641010" lon="22.270240"><ele>59.7</ele><time>2026-07-14T23:23:32Z</time></trkpt>
			<trkpt lat="54.640460" lon="22.269450"><ele>59.4</ele><time>2026-07-14T23:23:39Z</time></trkpt>
			<trkpt lat="54.639740" lon="22.268520"><ele>59.4</ele><time>2026-07-14T23:23:46Z</time></trkpt>
			<trkpt lat="54.635470" lon="22.262760"><ele>55.9</ele><time>2026-07-14T23:23:54Z</time></trkpt>
			<trkpt lat="54.631980" lon="22.258160"><ele>54.3</ele><time>2026-07-14T23:24:01Z</time></trkpt>
			<trkpt lat="54.630060" lon="22.255580"><ele>53.6</ele><time>2026-07-14T23:24:08Z</time></trkpt>
			<trkpt lat="54.627000" lon="22.251530"><ele>54.0</ele><time>2026-07-14T23:24:15Z</time></trkpt>
			<trkpt lat="54.626480" lon="22.250840"><ele>54.0</ele><time>2026-07-14T23:24:22Z</time></trkpt>
			<trkpt lat="54.623960" lon="22.247480"><ele>56.0</ele><time>2026-07-14T23:24:29Z</time></trkpt>
			<trkpt lat="54.622830" lon="22.245980"><ele>55.0</ele><time>2026-07-14T23:24:36Z</time></trkpt>
			<trkpt lat="54.621280" lon="22.243860"><ele>53.8</ele><time>2026-07-14T23:24:43Z</time></trkpt>
			<trkpt lat="54.620880" lon="22.243330"><ele>53.9</ele><time>2026-07-14T23:24:50Z</time></trkpt>
			<trkpt lat="54.620510" lon="22.242850"><ele>53.4</ele><time>2026-07-14T23:24:57Z</time></trkpt>
			<trkpt lat="54.620200" lon="22.242490"><ele>53.1</ele><time>2026-07-14T23:25:04Z</time></trkpt>
			<trkpt lat="54.619860" lon="22.242400"><ele>53.0</ele><time>2026-07-14T23:25:11Z</time></trkpt>
			<trkpt lat="54.616040" lon="22.242030"><ele>52.4</ele><time>2026-07-14T23:25:19Z</time></trkpt>
			<trkpt lat="54.613150" lon="22.241710"><ele>51.0</ele><time>2026-07-14T23:25:26Z</time></trkpt>
			<trkpt lat="54.612840" lon="22.241670"><ele>51.0</ele><time>2026-07-14T23:25:33Z</time></trkpt>
			<trkpt lat="54.612370" lon="22.241620"><ele>50.9</ele><time>2026-07-14T23:25:40Z</time></trkpt>
			<trkpt lat="54.612220" lon="22.241560"><ele>50.9</ele><time>2026-07-14T23:25:47Z</time></trkpt>
			<trkpt lat="54.612020" lon="22.241440"><ele>50.7</ele><time>2026-07-14T23:25:54Z</time></trkpt>
			<trkpt lat="54.611900" lon="22.241320"><ele>50.6</ele><time>2026-07-14T23:26:01Z</time></trkpt>
			<trkpt lat="54.611700" lon="22.241110"><ele>50.5</ele><time>2026-07-14T23:26:08Z</time></trkpt>
			<trkpt lat="54.609190" lon="22.237300"><ele>51.3</ele><time>2026-07-14T23:26:15Z</time></trkpt>
			<trkpt lat="54.608970" lon="22.236950"><ele>50.9</ele><time>2026-07-14T23:26:22Z</time></trkpt>
			<trkpt lat="54.608760" lon="22.236650"><ele>50.4</ele><time>2026-07-14T23:26:29Z</time></trkpt>
			<trkpt lat="54.606950" lon="22.233900"><ele>52.2</ele><time>2026-07-14T23:26:36Z</time></trkpt>
			<trkpt lat="54.606410" lon="22.233100"><ele>52.9</ele><time>2026-07-14T23:26:44Z</time></trkpt>
			<trkpt lat="54.605640" lon="22.231870"><ele>55.2</ele><time>2026-07-14T23:26:51Z</time></trkpt>
			<trkpt lat="54.605450" lon="22.231570"><ele>55.7</ele><time>2026-07-14T23:26:58Z</time></trkpt>
			<trkpt lat="54.605260" lon="22.231250"><ele>56.0</ele><time>2026-07-14T23:27:05Z</time></trkpt>
			<trkpt lat="54.604920" lon="22.230730"><ele>56.1</ele><time>2026-07-14T23:27:12Z</time></trkpt>
			<trkpt lat="54.603910" lon="22.229230"><ele>57.2</ele><time>2026-07-14T23:27:19Z</time></trkpt>
			<trkpt lat="54.602930" lon="22.227730"><ele>59.2</ele><time>2026-07-14T23:27:26Z</time></trkpt>
			<trkpt lat="54.602080" lon="22.226520"><ele>58.5</ele><time>2026-07-14T23:27:33Z</time></trkpt>
			<trkpt lat="54.601060" lon="22.224900"><ele>57.4</ele><time>2026-07-14T23:27:40Z</time></trkpt>
			<trkpt lat="54.599840" lon="22.223110"><ele>59.6</ele><time>2026-07-14T23:27:47Z</time></trkpt>
			<trkpt lat="54.599520" lon="22.222640"><ele>61.0</ele><time>2026-07-14T23:27:54Z</time></trkpt>
			<trkpt lat="54.598220" lon="22.220580"><ele>60.9</ele><time>2026-07-14T23:28:02Z</time></trkpt>
			<trkpt lat="54.597780" lon="22.219940"><ele>60.1</ele><time>2026-07-14T23:28:09Z</time></trkpt>
			<trkpt lat="54.596240" lon="22.217590"><ele>60.5</ele><time>2026-07-14T23:28:16Z</time></trkpt>
			<trkpt lat="54.595750" lon="22.216840"><ele>59.4</ele><time>2026-07-14T23:28:23Z</time></trkpt>
			<trkpt lat="54.595600" lon="22.216610"><ele>59.3</ele><time>2026-07-14T23:28:30Z</time></trkpt>
			<trkpt lat="54.595390" lon="22.216360"><ele>59.5</ele><time>2026-07-14T23:28:37Z</time></trkpt>
			<trkpt lat="54.595280" lon="22.216240"><ele>59.7</ele><time>2026-07-14T23:28:44Z</time></trkpt>
			<trkpt lat="54.595090" lon="22.216060"><ele>59.8</ele><time>2026-07-14T23:28:51Z</time></trkpt>
			<trkpt lat="54.593530" lon="22.214940"><ele>54.6</ele><time>2026-07-14T23:28:58Z</time></trkpt>
			<trkpt lat="54.593000" lon="22.214540"><ele>51.7</ele><time>2026-07-14T23:29:05Z</time></trkpt>
			<trkpt lat="54.592940" lon="22.214520"><ele>51.4</ele><time>2026-07-14T23:29:12Z</time></trkpt>
			<trkpt lat="54.592870" lon="22.214520"><ele>51.1</ele><time>2026-07-14T23:29:19Z</time></trkpt>
			<trkpt lat="54.592810" lon="22.214540"><ele>50.9</ele><time>2026-07-14T23:29:27Z</time></trkpt>
			<trkpt lat="54.592630" lon="22.213610"><ele>48.6</ele><time>2026-07-14T23:29:34Z</time></trkpt>
			<trkpt lat="54.592620" lon="22.213520"><ele>48.4</ele><time>2026-07-14T23:29:41Z</time></trkpt>
			<trkpt lat="54.592190" lon="22.211870"><ele>46.0</ele><time>2026-07-14T23:29:48Z</time></trkpt>
			<trkpt lat="54.591950" lon="22.210900"><ele>45.0</ele><time>2026-07-14T23:29:55Z</time></trkpt>
			<trkpt lat="54.591870" lon="22.210640"><ele>45.0</ele><time>2026-07-14T23:30:02Z</time></trkpt>
			<trkpt lat="54.591820" lon="22.210400"><ele>45.0</ele><time>2026-07-14T23:30:09Z</time></trkpt>
			<trkpt lat="54.591780" lon="22.210130"><ele>45.1</ele><time>2026-07-14T23:30:16Z</time></trkpt>
			<trkpt lat="54.591720" lon="22.209770"><ele>45.4</ele><time>2026-07-14T23:30:23Z</time></trkpt>
			<trkpt lat="54.591690" lon="22.209430"><ele>45.7</ele><time>2026-07-14T23:30:30Z</time></trkpt>
			<trkpt lat="54.591610" lon="22.208490"><ele>46.7</ele><time>2026-07-14T23:30:37Z</time></trkpt>
			<trkpt lat="54.591510" lon="22.207490"><ele>48.1</ele><time>2026-07-14T23:30:45Z</time></trkpt>
			<trkpt lat="54.591510" lon="22.207440"><ele>48.1</ele><time>2026-07-14T23:30:52Z</time></trkpt>
			<trkpt lat="54.591330" lon="22.205320"><ele>44.7</ele><time>2026-07-14T23:30:59Z</time></trkpt>
			<trkpt lat="54.591190" lon="22.203690"><ele>45.3</ele><time>2026-07-14T23:31:06Z</time></trkpt>
			<trkpt lat="54.591190" lon="22.203520"><ele>45.6</ele><time>2026-07-14T23:31:13Z</time></trkpt>
			<trkpt lat="54.591200" lon="22.203360"><ele>45.7</ele><time>2026-07-14T23:31:20Z</time></trkpt>
			<trkpt lat="54.591230" lon="22.203220"><ele>45.9</ele><time>2026-07-14T23:31:27Z</time></trkpt>
			<trkpt lat="54.591310" lon="22.202960"><ele>46.1</ele><time>2026-07-14T23:31:34Z</time></trkpt>
			<trkpt lat="54.591400" lon="22.202690"><ele>46.3</ele><time>2026-07-14T23:31:41Z</time></trkpt>
			<trkpt lat="54.591600" lon="22.202010"><ele>46.8</ele><time>2026-07-14T23:31:48Z</time></trkpt>
			<trkpt lat="54.591760" lon="22.201730"><ele>46.8</ele><time>2026-07-14T23:31:55Z</time></trkpt>
			<trkpt lat="54.591810" lon="22.201580"><ele>46.6</ele><time>2026-07-14T23:32:02Z</time></trkpt>
			<trkpt lat="54.592080" lon="22.201840"><ele>46.0</ele><time>2026-07-14T23:32:10Z</time></trkpt>
			<trkpt lat="54.592150" lon="22.201880"><ele>45.8</ele><time>2026-07-14T23:32:17Z</time></trkpt>
			<trkpt lat="54.592220" lon="22.201920"><ele>45.7</ele><time>2026-07-14T23:32:24Z</time></trkpt>
			<trkpt lat="54.592290" lon="22.201910"><ele>45.5</ele><time>2026-07-14T23:32:31Z</time></trkpt>
			<trkpt lat="54.592370" lon="22.201870"><ele>45.4</ele><time>2026-07-14T23:32:38Z</time></trkpt>
			<trkpt lat="54.592450" lon="22.201640"><ele>45.2</ele><time>2026-07-14T23:32:45Z</time></trkpt>
			<trkpt lat="54.592480" lon="22.201470"><ele>45.1</ele><time>2026-07-14T23:32:52Z</time></trkpt>
			<trkpt lat="54.592480" lon="22.201350"><ele>45.0</ele><time>2026-07-14T23:32:59Z</time></trkpt>
			<trkpt lat="54.592450" lon="22.201240"><ele>45.1</ele><time>2026-07-14T23:33:06Z</time></trkpt>
			<trkpt lat="54.592390" lon="22.201170"><ele>45.1</ele><time>2026-07-14T23:33:13Z</time></trkpt>
			<trkpt lat="54.592080" lon="22.200860"><ele>45.1</ele><time>2026-07-14T23:33:20Z</time></trkpt>
			<trkpt lat="54.591950" lon="22.200760"><ele>45.0</ele><time>2026-07-14T23:33:28Z</time></trkpt>
			<trkpt lat="54.591890" lon="22.200770"><ele>45.0</ele><time>2026-07-14T23:33:35Z</time></trkpt>
			<trkpt lat="54.591830" lon="22.200830"><ele>44.9</ele><time>2026-07-14T23:33:42Z</time></trkpt>
			<trkpt lat="54.591640" lon="22.200850"><ele>44.7</ele><time>2026-07-14T23:33:49Z</time></trkpt>
			<trkpt lat="54.591490" lon="22.200790"><ele>44.4</ele><time>2026-07-14T23:33:56Z</time></trkpt>
			<trkpt lat="54.591200" lon="22.200510"><ele>43.6</ele><time>2026-07-14T23:34:03Z</time></trkpt>
			<trkpt lat="54.590990" lon="22.200340"><ele>43.1</ele><time>2026-07-14T23:34:10Z</time></trkpt>
			<trkpt lat="54.590940" lon="22.200300"><ele>43.0</ele><time>2026-07-14T23:34:17Z</time></trkpt>
			<trkpt lat="54.590570" lon="22.199950"><ele>44.0</ele><time>2026-07-14T23:34:24Z</time></trkpt>
			<trkpt lat="54.590380" lon="22.199730"><ele>44.7</ele><time>2026-07-14T23:34:31Z</time></trkpt>
			<trkpt lat="54.590310" lon="22.199660"><ele>45.0</ele><time>2026-07-14T23:34:38Z</time></trkpt>
			<trkpt lat="54.590368" lon="22.199473"><ele>44.9</ele><time>2026-07-14T23:34:45Z</time></trkpt>
			<trkpt lat="54.591117" lon="22.196949"><ele>43.1</ele><time>2026-07-14T23:38:33Z</time></trkpt>
			<trkpt lat="54.590784" lon="22.196595"><ele>43.0</ele><time>2026-07-14T23:39:27Z</time></trkpt>
			<trkpt lat="54.590903" lon="22.196229"><ele>43.0</ele><time>2026-07-14T23:40:01Z</time></trkpt>
			<trkpt lat="54.590829" lon="22.196569"><ele>43.0</ele><time>2026-07-14T23:40:30Z</time></trkpt>
			<trkpt lat="54.591134" lon="22.196900"><ele>43.1</ele><time>2026-07-14T23:41:20Z</time></trkpt>
			<trkpt lat="54.590337" lon="22.199656"><ele>44.7</ele><time>2026-07-14T23:45:28Z</time></trkpt>
			<trkpt lat="54.590330" lon="22.199680"><ele>44.7</ele><time>2026-07-14T23:45:29Z</time></trkpt>
			<trkpt lat="54.590530" lon="22.199900"><ele>44.1</ele><time>2026-07-14T23:45:30Z</time></trkpt>
			<trkpt lat="54.590570" lon="22.199950"><ele>44.0</ele><time>2026-07-14T23:45:31Z</time></trkpt>
			<trkpt lat="54.590940" lon="22.200300"><ele>43.0</ele><time>2026-07-14T23:45:32Z</time></trkpt>
			<trkpt lat="54.590990" lon="22.200340"><ele>43.1</ele><time>2026-07-14T23:45:33Z</time></trkpt>
			<trkpt lat="54.591200" lon="22.200510"><ele>43.5</ele><time>2026-07-14T23:45:34Z</time></trkpt>
			<trkpt lat="54.591490" lon="22.200790"><ele>44.4</ele><time>2026-07-14T23:45:34Z</time></trkpt>
			<trkpt lat="54.591530" lon="22.200850"><ele>44.6</ele><time>2026-07-14T23:45:35Z</time></trkpt>
			<trkpt lat="54.591600" lon="22.200980"><ele>45.0</ele><time>2026-07-14T23:45:36Z</time></trkpt>
			<trkpt lat="54.591660" lon="22.201100"><ele>45.5</ele><time>2026-07-14T23:45:37Z</time></trkpt>
			<trkpt lat="54.591700" lon="22.201250"><ele>45.9</ele><time>2026-07-14T23:45:38Z</time></trkpt>
			<trkpt lat="54.591720" lon="22.201470"><ele>46.2</ele><time>2026-07-14T23:45:39Z</time></trkpt>
			<trkpt lat="54.591810" lon="22.201580"><ele>46.2</ele><time>2026-07-14T23:45:40Z</time></trkpt>
			<trkpt lat="54.591870" lon="22.201630"><ele>46.3</ele><time>2026-07-14T23:45:40Z</time></trkpt>
			<trkpt lat="54.592080" lon="22.201840"><ele>46.0</ele><time>2026-07-14T23:45:41Z</time></trkpt>
			<trkpt lat="54.592220" lon="22.201920"><ele>45.7</ele><time>2026-07-14T23:45:42Z</time></trkpt>
			<trkpt lat="54.592290" lon="22.201910"><ele>45.5</ele><time>2026-07-14T23:45:43Z</time></trkpt>
			<trkpt lat="54.592370" lon="22.201870"><ele>45.4</ele><time>2026-07-14T23:45:44Z</time></trkpt>
			<trkpt lat="54.592430" lon="22.201830"><ele>45.4</ele><time>2026-07-14T23:45:45Z</time></trkpt>
			<trkpt lat="54.592470" lon="22.201820"><ele>45.4</ele><time>2026-07-14T23:45:45Z</time></trkpt>
			<trkpt lat="54.592580" lon="22.201860"><ele>45.2</ele><time>2026-07-14T23:45:46Z</time></trkpt>
			<trkpt lat="54.592580" lon="22.201860"><ele>45.2</ele><time>2026-07-14T23:45:54Z</time></trkpt>
			<trkpt lat="54.592670" lon="22.201890"><ele>45.3</ele><time>2026-07-14T23:46:01Z</time></trkpt>
			<trkpt lat="54.593010" lon="22.202190"><ele>46.0</ele><time>2026-07-14T23:46:08Z</time></trkpt>
			<trkpt lat="54.594190" lon="22.203350"><ele>47.0</ele><time>2026-07-14T23:46:16Z</time></trkpt>
			<trkpt lat="54.594710" lon="22.203900"><ele>47.7</ele><time>2026-07-14T23:46:23Z</time></trkpt>
			<trkpt lat="54.594790" lon="22.203990"><ele>47.8</ele><time>2026-07-14T23:46:30Z</time></trkpt>
			<trkpt lat="54.594800" lon="22.204000"><ele>47.8</ele><time>2026-07-14T23:46:38Z</time></trkpt>
			<trkpt lat="54.595200" lon="22.204380"><ele>47.8</ele><time>2026-07-14T23:46:45Z</time></trkpt>
			<trkpt lat="54.595590" lon="22.204750"><ele>47.8</ele><time>2026-07-14T23:46:52Z</time></trkpt>
			<trkpt lat="54.596060" lon="22.205200"><ele>48.2</ele><time>2026-07-14T23:47:00Z</time></trkpt>
			<trkpt lat="54.596300" lon="22.205430"><ele>48.5</ele><time>2026-07-14T23:47:07Z</time></trkpt>
			<trkpt lat="54.596730" lon="22.205850"><ele>48.9</ele><time>2026-07-14T23:47:14Z</time></trkpt>
			<trkpt lat="54.597260" lon="22.206370"><ele>49.2</ele><time>2026-07-14T23:47:22Z</time></trkpt>
			<trkpt lat="54.598620" lon="22.207680"><ele>51.9</ele><time>2026-07-14T23:47:29Z</time></trkpt>
			<trkpt lat="54.599000" lon="22.208040"><ele>53.2</ele><time>2026-07-14T23:47:37Z</time></trkpt>
			<trkpt lat="54.599860" lon="22.208880"><ele>53.7</ele><time>2026-07-14T23:47:44Z</time></trkpt>
			<trkpt lat="54.600440" lon="22.209470"><ele>54.4</ele><time>2026-07-14T23:47:51Z</time></trkpt>
			<trkpt lat="54.600490" lon="22.209530"><ele>54.5</ele><time>2026-07-14T23:47:59Z</time></trkpt>
			<trkpt lat="54.600590" lon="22.209640"><ele>54.8</ele><time>2026-07-14T23:48:06Z</time></trkpt>
			<trkpt lat="54.600660" lon="22.209710"><ele>55.0</ele><time>2026-07-14T23:48:13Z</time></trkpt>
			<trkpt lat="54.601580" lon="22.210580"><ele>54.0</ele><time>2026-07-14T23:48:21Z</time></trkpt>
			<trkpt lat="54.601620" lon="22.210610"><ele>53.9</ele><time>2026-07-14T23:48:28Z</time></trkpt>
			<trkpt lat="54.602040" lon="22.210910"><ele>52.5</ele><time>2026-07-14T23:48:35Z</time></trkpt>
			<trkpt lat="54.602530" lon="22.211210"><ele>50.5</ele><time>2026-07-14T23:48:43Z</time></trkpt>
			<trkpt lat="54.603000" lon="22.211400"><ele>48.9</ele><time>2026-07-14T23:48:50Z</time></trkpt>
			<trkpt lat="54.603100" lon="22.211430"><ele>48.6</ele><time>2026-07-14T23:48:57Z</time></trkpt>
			<trkpt lat="54.603460" lon="22.211490"><ele>47.7</ele><time>2026-07-14T23:49:05Z</time></trkpt>
			<trkpt lat="54.603820" lon="22.211510"><ele>46.9</ele><time>2026-07-14T23:49:12Z</time></trkpt>
			<trkpt lat="54.604190" lon="22.211500"><ele>46.2</ele><time>2026-07-14T23:49:19Z</time></trkpt>
			<trkpt lat="54.604800" lon="22.211390"><ele>47.3</ele><time>2026-07-14T23:49:27Z</time></trkpt>
			<trkpt lat="54.605600" lon="22.211200"><ele>46.7</ele><time>2026-07-14T23:49:34Z</time></trkpt>
			<trkpt lat="54.606550" lon="22.210940"><ele>46.0</ele><time>2026-07-14T23:49:41Z</time></trkpt>
			<trkpt lat="54.607070" lon="22.210800"><ele>44.5</ele><time>2026-07-14T23:49:49Z</time></trkpt>
			<trkpt lat="54.607570" lon="22.210690"><ele>42.8</ele><time>2026-07-14T23:49:56Z</time></trkpt>
			<trkpt lat="54.608150" lon="22.210530"><ele>41.7</ele><time>2026-07-14T23:50:03Z</time></trkpt>
			<trkpt lat="54.608230" lon="22.210510"><ele>41.7</ele><time>2026-07-14T23:50:11Z</time></trkpt>
			<trkpt lat="54.609630" lon="22.210190"><ele>43.3</ele><time>2026-07-14T23:50:18Z</time></trkpt>
			<trkpt lat="54.610810" lon="22.209880"><ele>43.2</ele><time>2026-07-14T23:50:26Z</time></trkpt>
			<trkpt lat="54.611010" lon="22.209830"><ele>43.3</ele><time>2026-07-14T23:50:33Z</time></trkpt>
			<trkpt lat="54.611140" lon="22.209800"><ele>43.3</ele><time>2026-07-14T23:50:40Z</time></trkpt>
			<trkpt lat="54.615400" lon="22.208760"><ele>48.0</ele><time>2026-07-14T23:50:48Z</time></trkpt>
			<trkpt lat="54.615690" lon="22.208760"><ele>48.6</ele><time>2026-07-14T23:50:55Z</time></trkpt>
			<trkpt lat="54.616310" lon="22.208570"><ele>49.4</ele><time>2026-07-14T23:51:02Z</time></trkpt>
			<trkpt lat="54.616850" lon="22.208430"><ele>50.7</ele><time>2026-07-14T23:51:10Z</time></trkpt>
			<trkpt lat="54.616910" lon="22.208410"><ele>50.9</ele><time>2026-07-14T23:51:17Z</time></trkpt>
			<trkpt lat="54.617170" lon="22.208340"><ele>51.8</ele><time>2026-07-14T23:51:24Z</time></trkpt>
			<trkpt lat="54.618250" lon="22.208070"><ele>54.2</ele><time>2026-07-14T23:51:32Z</time></trkpt>
			<trkpt lat="54.621830" lon="22.207170"><ele>53.1</ele><time>2026-07-14T23:51:39Z</time></trkpt>
			<trkpt lat="54.622100" lon="22.207100"><ele>53.3</ele><time>2026-07-14T23:51:46Z</time></trkpt>
			<trkpt lat="54.623270" lon="22.206790"><ele>54.5</ele><time>2026-07-14T23:51:54Z</time></trkpt>
			<trkpt lat="54.624600" lon="22.206450"><ele>56.3</ele><time>2026-07-14T23:52:01Z</time></trkpt>
			<trkpt lat="54.625930" lon="22.206170"><ele>56.8</ele><time>2026-07-14T23:52:08Z</time></trkpt>
			<trkpt lat="54.626270" lon="22.206080"><ele>57.1</ele><time>2026-07-14T23:52:16Z</time></trkpt>
			<trkpt lat="54.627040" lon="22.205870"><ele>58.9</ele><time>2026-07-14T23:52:23Z</time></trkpt>
			<trkpt lat="54.629040" lon="22.205400"><ele>53.5</ele><time>2026-07-14T23:52:30Z</time></trkpt>
			<trkpt lat="54.630050" lon="22.205160"><ele>52.2</ele><time>2026-07-14T23:52:38Z</time></trkpt>
			<trkpt lat="54.630610" lon="22.205030"><ele>52.8</ele><time>2026-07-14T23:52:45Z</time></trkpt>
			<trkpt lat="54.630940" lon="22.204970"><ele>53.1</ele><time>2026-07-14T23:52:53Z</time></trkpt>
			<trkpt lat="54.632540" lon="22.204850"><ele>54.0</ele><time>2026-07-14T23:53:00Z</time></trkpt>
			<trkpt lat="54.633880" lon="22.204710"><ele>55.1</ele><time>2026-07-14T23:53:07Z</time></trkpt>
			<trkpt lat="54.635700" lon="22.204570"><ele>54.0</ele><time>2026-07-14T23:53:15Z</time></trkpt>
			<trkpt lat="54.636290" lon="22.204500"><ele>53.6</ele><time>2026-07-14T23:53:22Z</time></trkpt>
			<trkpt lat="54.637170" lon="22.204500"><ele>54.0</ele><time>2026-07-14T23:53:29Z</time></trkpt>
			<trkpt lat="54.637540" lon="22.204480"><ele>54.6</ele><time>2026-07-14T23:53:37Z</time></trkpt>
			<trkpt lat="54.637710" lon="22.204490"><ele>55.0</ele><time>2026-07-14T23:53:44Z</time></trkpt>
			<trkpt lat="54.638360" lon="22.204590"><ele>57.0</ele><time>2026-07-14T23:53:51Z</time></trkpt>
			<trkpt lat="54.639240" lon="22.204830"><ele>59.2</ele><time>2026-07-14T23:53:59Z</time></trkpt>
			<trkpt lat="54.641360" lon="22.205390"><ele>63.5</ele><time>2026-07-14T23:54:06Z</time></trkpt>
			<trkpt lat="54.643500" lon="22.205980"><ele>63.8</ele><time>2026-07-14T23:54:13Z</time></trkpt>
			<trkpt lat="54.646810" lon="22.206850"><ele>66.0</ele><time>2026-07-14T23:54:21Z</time></trkpt>
			<trkpt lat="54.648580" lon="22.207340"><ele>67.2</ele><time>2026-07-14T23:54:28Z</time></trkpt>
			<trkpt lat="54.651930" lon="22.208220"><ele>62.9</ele><time>2026-07-14T23:54:35Z</time></trkpt>
			<trkpt lat="54.654390" lon="22.208880"><ele>62.3</ele><time>2026-07-14T23:54:43Z</time></trkpt>
			<trkpt lat="54.654610" lon="22.208910"><ele>62.4</ele><time>2026-07-14T23:54:50Z</time></trkpt>
			<trkpt lat="54.654770" lon="22.208900"><ele>62.4</ele><time>2026-07-14T23:54:57Z</time></trkpt>
			<trkpt lat="54.655350" lon="22.208850"><ele>61.0</ele><time>2026-07-14T23:55:05Z</time></trkpt>
			<trkpt lat="54.659720" lon="22.207950"><ele>57.9</ele><time>2026-07-14T23:55:12Z</time></trkpt>
			<trkpt lat="54.661790" lon="22.207510"><ele>59.8</ele><time>2026-07-14T23:55:19Z</time></trkpt>
			<trkpt lat="54.664410" lon="22.206870"><ele>54.1</ele><time>2026-07-14T23:55:27Z</time></trkpt>
			<trkpt lat="54.666860" lon="22.206330"><ele>50.8</ele><time>2026-07-14T23:55:34Z</time></trkpt>
			<trkpt lat="54.669840" lon="22.205610"><ele>50.4</ele><time>2026-07-14T23:55:42Z</time></trkpt>
			<trkpt lat="54.670850" lon="22.205430"><ele>51.5</ele><time>2026-07-14T23:55:49Z</time></trkpt>
			<trkpt lat="54.673180" lon="22.205210"><ele>51.7</ele><time>2026-07-14T23:55:56Z</time></trkpt>
			<trkpt lat="54.674660" lon="22.205090"><ele>51.9</ele><time>2026-07-14T23:56:04Z</time></trkpt>
			<trkpt lat="54.676210" lon="22.204910"><ele>51.5</ele><time>2026-07-14T23:56:11Z</time></trkpt>
			<trkpt lat="54.677380" lon="22.204840"><ele>52.5</ele><time>2026-07-14T23:56:18Z</time></trkpt>
			<trkpt lat="54.677760" lon="22.204910"><ele>52.6</ele><time>2026-07-14T23:56:26Z</time></trkpt>
			<trkpt lat="54.678130" lon="22.205030"><ele>52.1</ele><time>2026-07-14T23:56:33Z</time></trkpt>
			<trkpt lat="54.678940" lon="22.205380"><ele>49.9</ele><time>2026-07-14T23:56:40Z</time></trkpt>
			<trkpt lat="54.679020" lon="22.205430"><ele>49.7</ele><time>2026-07-14T23:56:48Z</time></trkpt>
			<trkpt lat="54.680130" lon="22.205900"><ele>49.0</ele><time>2026-07-14T23:56:55Z</time></trkpt>
			<trkpt lat="54.681300" lon="22.206510"><ele>49.3</ele><time>2026-07-14T23:57:02Z</time></trkpt>
			<trkpt lat="54.681880" lon="22.206830"><ele>49.3</ele><time>2026-07-14T23:57:10Z</time></trkpt>
			<trkpt lat="54.682550" lon="22.207320"><ele>50.2</ele><time>2026-07-14T23:57:17Z</time></trkpt>
			<trkpt lat="54.687210" lon="22.210040"><ele>54.7</ele><time>2026-07-14T23:57:24Z</time></trkpt>
			<trkpt lat="54.693820" lon="22.213990"><ele>52.2</ele><time>2026-07-14T23:57:32Z</time></trkpt>
			<trkpt lat="54.705310" lon="22.220870"><ele>51.3</ele><time>2026-07-14T23:57:39Z</time></trkpt>
			<trkpt lat="54.707200" lon="22.222060"><ele>51.3</ele><time>2026-07-14T23:57:46Z</time></trkpt>
			<trkpt lat="54.707260" lon="22.222100"><ele>51.4</ele><time>2026-07-14T23:57:54Z</time></trkpt>
			<trkpt lat="54.707790" lon="22.222430"><ele>51.9</ele><time>2026-07-14T23:58:01Z</time></trkpt>
			<trkpt lat="54.709000" lon="22.223160"><ele>54.5</ele><time>2026-07-14T23:58:08Z</time></trkpt>
			<trkpt lat="54.709510" lon="22.223310"><ele>55.8</ele><time>2026-07-14T23:58:16Z</time></trkpt>
			<trkpt lat="54.711120" lon="22.223580"><ele>58.4</ele><time>2026-07-14T23:58:23Z</time></trkpt>
			<trkpt lat="54.713380" lon="22.223890"><ele>58.9</ele><time>2026-07-14T23:58:31Z</time></trkpt>
			<trkpt lat="54.713790" lon="22.224030"><ele>58.0</ele><time>2026-07-14T23:58:38Z</time></trkpt>
			<trkpt lat="54.714030" lon="22.224140"><ele>57.3</ele><time>2026-07-14T23:58:45Z</time></trkpt>
			<trkpt lat="54.714250" lon="22.224280"><ele>57.1</ele><time>2026-07-14T23:58:53Z</time></trkpt>
			<trkpt lat="54.714470" lon="22.224490"><ele>57.0</ele><time>2026-07-14T23:59:00Z</time></trkpt>
			<trkpt lat="54.716370" lon="22.226670"><ele>55.9</ele><time>2026-07-14T23:59:07Z</time></trkpt>
			<trkpt lat="54.718610" lon="22.229260"><ele>56.1</ele><time>2026-07-14T23:59:15Z</time></trkpt>
			<trkpt lat="54.720780" lon="22.231760"><ele>61.8</ele><time>2026-07-14T23:59:22Z</time></trkpt>
			<trkpt lat="54.720980" lon="22.231960"><ele>61.9</ele><time>2026-07-14T23:59:29Z</time></trkpt>
			<trkpt lat="54.721150" lon="22.232080"><ele>61.6</ele><time>2026-07-14T23:59:37Z</time></trkpt>
			<trkpt lat="54.721290" lon="22.232130"><ele>61.4</ele><time>2026-07-14T23:59:44Z</time></trkpt>
			<trkpt lat="54.721450" lon="22.232110"><ele>61.3</ele><time>2026-07-14T23:59:51Z</time></trkpt>
			<trkpt lat="54.721630" lon="22.232000"><ele>61.2</ele><time>2026-07-14T23:59:59Z</time></trkpt>
			<trkpt lat="54.721950" lon="22.231720"><ele>60.5</ele><time>2026-07-15T00:00:06Z</time></trkpt>
			<trkpt lat="54.722030" lon="22.231650"><ele>60.2</ele><time>2026-07-15T00:00:13Z</time></trkpt>
			<trkpt lat="54.722580" lon="22.231310"><ele>58.8</ele><time>2026-07-15T00:00:21Z</time></trkpt>
			<trkpt lat="54.722930" lon="22.231060"><ele>58.6</ele><time>2026-07-15T00:00:28Z</time></trkpt>
			<trkpt lat="54.723260" lon="22.230780"><ele>58.1</ele><time>2026-07-15T00:00:35Z</time></trkpt>
			<trkpt lat="54.723540" lon="22.230590"><ele>58.1</ele><time>2026-07-15T00:00:43Z</time></trkpt>
			<trkpt lat="54.723970" lon="22.230390"><ele>58.4</ele><time>2026-07-15T00:00:50Z</time></trkpt>
			<trkpt lat="54.724420" lon="22.230200"><ele>58.4</ele><time>2026-07-15T00:00:57Z</time></trkpt>
			<trkpt lat="54.725830" lon="22.229900"><ele>59.9</ele><time>2026-07-15T00:01:05Z</time></trkpt>
			<trkpt lat="54.726200" lon="22.229740"><ele>60.3</ele><time>2026-07-15T00:01:12Z</time></trkpt>
			<trkpt lat="54.726630" lon="22.229430"><ele>61.1</ele><time>2026-07-15T00:01:20Z</time></trkpt>
			<trkpt lat="54.727250" lon="22.229000"><ele>61.5</ele><time>2026-07-15T00:01:27Z</time></trkpt>
			<trkpt lat="54.727630" lon="22.228710"><ele>61.1</ele><time>2026-07-15T00:01:34Z</time></trkpt>
			<trkpt lat="54.727970" lon="22.228360"><ele>60.8</ele><time>2026-07-15T00:01:42Z</time></trkpt>
			<trkpt lat="54.728770" lon="22.227470"><ele>59.9</ele><time>2026-07-15T00:01:49Z</time></trkpt>
			<trkpt lat="54.729040" lon="22.227170"><ele>59.3</ele><time>2026-07-15T00:01:56Z</time></trkpt>
			<trkpt lat="54.729100" lon="22.227090"><ele>59.3</ele><time>2026-07-15T00:02:04Z</time></trkpt>
			<trkpt lat="54.729310" lon="22.226800"><ele>59.3</ele><time>2026-07-15T00:02:11Z</time></trkpt>
			<trkpt lat="54.729600" lon="22.226270"><ele>59.7</ele><time>2026-07-15T00:02:18Z</time></trkpt>
			<trkpt lat="54.729840" lon="22.225800"><ele>59.9</ele><time>2026-07-15T00:02:26Z</time></trkpt>
			<trkpt lat="54.730010" lon="22.225510"><ele>59.6</ele><time>2026-07-15T00:02:33Z</time></trkpt>
			<trkpt lat="54.730180" lon="22.225270"><ele>59.2</ele><time>2026-07-15T00:02:40Z</time></trkpt>
			<trkpt lat="54.730390" lon="22.225070"><ele>59.0</ele><time>2026-07-15T00:02:48Z</time></trkpt>
			<trkpt lat="54.730580" lon="22.224950"><ele>59.1</ele><time>2026-07-15T00:02:55Z</time></trkpt>
			<trkpt lat="54.731590" lon="22.224520"><ele>57.4</ele><time>2026-07-15T00:03:02Z</time></trkpt>
			<trkpt lat="54.734110" lon="22.223410"><ele>51.9</ele><time>2026-07-15T00:03:10Z</time></trkpt>
			<trkpt lat="54.734390" lon="22.223230"><ele>51.6</ele><time>2026-07-15T00:03:17Z</time></trkpt>
			<trkpt lat="54.734660" lon="22.222970"><ele>51.6</ele><time>2026-07-15T00:03:24Z</time></trkpt>
			<trkpt lat="54.735010" lon="22.222550"><ele>51.7</ele><time>2026-07-15T00:03:32Z</time></trkpt>
			<trkpt lat="54.735520" lon="22.221950"><ele>50.6</ele><time>2026-07-15T00:03:39Z</time></trkpt>
			<trkpt lat="54.741220" lon="22.215020"><ele>48.0</ele><time>2026-07-15T00:03:46Z</time></trkpt>
			<trkpt lat="54.745180" lon="22.210170"><ele>49.1</ele><time>2026-07-15T00:03:54Z</time></trkpt>
			<trkpt lat="54.745890" lon="22.209390"><ele>47.7</ele><time>2026-07-15T00:04:01Z</time></trkpt>
			<trkpt lat="54.748750" lon="22.207070"><ele>46.3</ele><time>2026-07-15T00:04:09Z</time></trkpt>
			<trkpt lat="54.765080" lon="22.194030"><ele>41.1</ele><time>2026-07-15T00:04:16Z</time></trkpt>
			<trkpt lat="54.765180" lon="22.193960"><ele>41.1</ele><time>2026-07-15T00:04:23Z</time></trkpt>
			<trkpt lat="54.772050" lon="22.188480"><ele>42.5</ele><time>2026-07-15T00:04:31Z</time></trkpt>
			<trkpt lat="54.775340" lon="22.185970"><ele>42.0</ele><time>2026-07-15T00:04:38Z</time></trkpt>
			<trkpt lat="54.779050" lon="22.183220"><ele>43.0</ele><time>2026-07-15T00:04:45Z</time></trkpt>
			<trkpt lat="54.779800" lon="22.182600"><ele>43.2</ele><time>2026-07-15T00:04:53Z</time></trkpt>
			<trkpt lat="54.780350" lon="22.182010"><ele>43.2</ele><time>2026-07-15T00:05:00Z</time></trkpt>
			<trkpt lat="54.780820" lon="22.181450"><ele>42.8</ele><time>2026-07-15T00:05:07Z</time></trkpt>
			<trkpt lat="54.781530" lon="22.180580"><ele>42.8</ele><time>2026-07-15T00:05:15Z</time></trkpt>
			<trkpt lat="54.785270" lon="22.175810"><ele>40.7</ele><time>2026-07-15T00:05:22Z</time></trkpt>
			<trkpt lat="54.787210" lon="22.173350"><ele>35.8</ele><time>2026-07-15T00:05:29Z</time></trkpt>
			<trkpt lat="54.787510" lon="22.172990"><ele>35.2</ele><time>2026-07-15T00:05:37Z</time></trkpt>
			<trkpt lat="54.787810" lon="22.172690"><ele>34.6</ele><time>2026-07-15T00:05:44Z</time></trkpt>
			<trkpt lat="54.788470" lon="22.172200"><ele>33.3</ele><time>2026-07-15T00:05:51Z</time></trkpt>
			<trkpt lat="54.788980" lon="22.171870"><ele>31.3</ele><time>2026-07-15T00:05:59Z</time></trkpt>
			<trkpt lat="54.789160" lon="22.171760"><ele>30.6</ele><time>2026-07-15T00:06:06Z</time></trkpt>
			<trkpt lat="54.789640" lon="22.171430"><ele>31.0</ele><time>2026-07-15T00:06:13Z</time></trkpt>
			<trkpt lat="54.790020" lon="22.171270"><ele>31.7</ele><time>2026-07-15T00:06:21Z</time></trkpt>
			<trkpt lat="54.790310" lon="22.171180"><ele>32.7</ele><time>2026-07-15T00:06:28Z</time></trkpt>
			<trkpt lat="54.790840" lon="22.171070"><ele>34.8</ele><time>2026-07-15T00:06:35Z</time></trkpt>
			<trkpt lat="54.792080" lon="22.170770"><ele>39.3</ele><time>2026-07-15T00:06:43Z</time></trkpt>
			<trkpt lat="54.795260" lon="22.169970"><ele>42.0</ele><time>2026-07-15T00:06:50Z</time></trkpt>
			<trkpt lat="54.795720" lon="22.169850"><ele>42.0</ele><time>2026-07-15T00:06:58Z</time></trkpt>
			<trkpt lat="54.796040" lon="22.169600"><ele>42.0</ele><time>2026-07-15T00:07:05Z</time></trkpt>
			<trkpt lat="54.796210" lon="22.169330"><ele>42.0</ele><time>2026-07-15T00:07:12Z</time></trkpt>
			<trkpt lat="54.796310" lon="22.169090"><ele>41.9</ele><time>2026-07-15T00:07:20Z</time></trkpt>
			<trkpt lat="54.797000" lon="22.166840"><ele>40.9</ele><time>2026-07-15T00:07:27Z</time></trkpt>
			<trkpt lat="54.798310" lon="22.162730"><ele>40.0</ele><time>2026-07-15T00:07:34Z</time></trkpt>
			<trkpt lat="54.798340" lon="22.162650"><ele>40.0</ele><time>2026-07-15T00:07:42Z</time></trkpt>
			<trkpt lat="54.800460" lon="22.155850"><ele>45.8</ele><time>2026-07-15T00:07:49Z</time></trkpt>
			<trkpt lat="54.800530" lon="22.155540"><ele>45.5</ele><time>2026-07-15T00:07:56Z</time></trkpt>
			<trkpt lat="54.800570" lon="22.155270"><ele>45.1</ele><time>2026-07-15T00:08:04Z</time></trkpt>
			<trkpt lat="54.800600" lon="22.154930"><ele>44.6</ele><time>2026-07-15T00:08:11Z</time></trkpt>
			<trkpt lat="54.800870" lon="22.149360"><ele>40.0</ele><time>2026-07-15T00:08:18Z</time></trkpt>
			<trkpt lat="54.800930" lon="22.148420"><ele>39.7</ele><time>2026-07-15T00:08:26Z</time></trkpt>
			<trkpt lat="54.801100" lon="22.146350"><ele>39.1</ele><time>2026-07-15T00:08:33Z</time></trkpt>
			<trkpt lat="54.801140" lon="22.146040"><ele>39.0</ele><time>2026-07-15T00:08:40Z</time></trkpt>
			<trkpt lat="54.801200" lon="22.145360"><ele>38.4</ele><time>2026-07-15T00:08:48Z</time></trkpt>
			<trkpt lat="54.801240" lon="22.145130"><ele>38.2</ele><time>2026-07-15T00:08:55Z</time></trkpt>
			<trkpt lat="54.801290" lon="22.144930"><ele>38.1</ele><time>2026-07-15T00:09:02Z</time></trkpt>
			<trkpt lat="54.801480" lon="22.144280"><ele>38.2</ele><time>2026-07-15T00:09:10Z</time></trkpt>
			<trkpt lat="54.801710" lon="22.143520"><ele>37.2</ele><time>2026-07-15T00:09:17Z</time></trkpt>
			<trkpt lat="54.801840" lon="22.143010"><ele>36.6</ele><time>2026-07-15T00:09:24Z</time></trkpt>
			<trkpt lat="54.801920" lon="22.142580"><ele>36.3</ele><time>2026-07-15T00:09:32Z</time></trkpt>
			<trkpt lat="54.802050" lon="22.142110"><ele>35.9</ele><time>2026-07-15T00:09:39Z</time></trkpt>
			<trkpt lat="54.802120" lon="22.141950"><ele>35.8</ele><time>2026-07-15T00:09:47Z</time></trkpt>
			<trkpt lat="54.802240" lon="22.141760"><ele>35.7</ele><time>2026-07-15T00:09:54Z</time></trkpt>
			<trkpt lat="54.802380" lon="22.141510"><ele>36.1</ele><time>2026-07-15T00:10:01Z</time></trkpt>
			<trkpt lat="54.802510" lon="22.141250"><ele>36.5</ele><time>2026-07-15T00:10:09Z</time></trkpt>
			<trkpt lat="54.802730" lon="22.140720"><ele>36.9</ele><time>2026-07-15T00:10:16Z</time></trkpt>
			<trkpt lat="54.803490" lon="22.139250"><ele>36.8</ele><time>2026-07-15T00:10:23Z</time></trkpt>
			<trkpt lat="54.804070" lon="22.138080"><ele>37.0</ele><time>2026-07-15T00:10:31Z</time></trkpt>
			<trkpt lat="54.809270" lon="22.127930"><ele>32.5</ele><time>2026-07-15T00:10:38Z</time></trkpt>
			<trkpt lat="54.811470" lon="22.123740"><ele>30.2</ele><time>2026-07-15T00:10:45Z</time></trkpt>
			<trkpt lat="54.814520" lon="22.118520"><ele>26.1</ele><time>2026-07-15T00:10:53Z</time></trkpt>
			<trkpt lat="54.817170" lon="22.113890"><ele>23.6</ele><time>2026-07-15T00:11:00Z</time></trkpt>
			<trkpt lat="54.817980" lon="22.112590"><ele>19.8</ele><time>2026-07-15T00:11:07Z</time></trkpt>
			<trkpt lat="54.818490" lon="22.111670"><ele>15.6</ele><time>2026-07-15T00:11:15Z</time></trkpt>
			<trkpt lat="54.824500" lon="22.101340"><ele>14.6</ele><time>2026-07-15T00:11:22Z</time></trkpt>
			<trkpt lat="54.824570" lon="22.101220"><ele>14.5</ele><time>2026-07-15T00:11:29Z</time></trkpt>
			<trkpt lat="54.825950" lon="22.098830"><ele>14.1</ele><time>2026-07-15T00:11:37Z</time></trkpt>
			<trkpt lat="54.826140" lon="22.098510"><ele>14.4</ele><time>2026-07-15T00:11:44Z</time></trkpt>
			<trkpt lat="54.826660" lon="22.097600"><ele>15.9</ele><time>2026-07-15T00:11:51Z</time></trkpt>
			<trkpt lat="54.826760" lon="22.097380"><ele>16.7</ele><time>2026-07-15T00:11:59Z</time></trkpt>
			<trkpt lat="54.826820" lon="22.097140"><ele>17.4</ele><time>2026-07-15T00:12:06Z</time></trkpt>
			<trkpt lat="54.826840" lon="22.096960"><ele>17.8</ele><time>2026-07-15T00:12:13Z</time></trkpt>
			<trkpt lat="54.826850" lon="22.096770"><ele>18.0</ele><time>2026-07-15T00:12:21Z</time></trkpt>
			<trkpt lat="54.826830" lon="22.096530"><ele>18.3</ele><time>2026-07-15T00:12:28Z</time></trkpt>
			<trkpt lat="54.826820" lon="22.096440"><ele>18.4</ele><time>2026-07-15T00:12:36Z</time></trkpt>
			<trkpt lat="54.826770" lon="22.096140"><ele>17.8</ele><time>2026-07-15T00:12:43Z</time></trkpt>
			<trkpt lat="54.826280" lon="22.093800"><ele>17.6</ele><time>2026-07-15T00:12:50Z</time></trkpt>
			<trkpt lat="54.826230" lon="22.093380"><ele>17.4</ele><time>2026-07-15T00:12:58Z</time></trkpt>
			<trkpt lat="54.826220" lon="22.093020"><ele>17.4</ele><time>2026-07-15T00:13:05Z</time></trkpt>
			<trkpt lat="54.826280" lon="22.090200"><ele>20.9</ele><time>2026-07-15T00:13:12Z</time></trkpt>
			<trkpt lat="54.826300" lon="22.089790"><ele>21.6</ele><time>2026-07-15T00:13:20Z</time></trkpt>
			<trkpt lat="54.826320" lon="22.089430"><ele>22.1</ele><time>2026-07-15T00:13:27Z</time></trkpt>
			<trkpt lat="54.826380" lon="22.089080"><ele>22.7</ele><time>2026-07-15T00:13:34Z</time></trkpt>
			<trkpt lat="54.826400" lon="22.089020"><ele>22.9</ele><time>2026-07-15T00:13:42Z</time></trkpt>
			<trkpt lat="54.826400" lon="22.089020"><ele>22.9</ele><time>2026-07-15T00:13:54Z</time></trkpt>
			<trkpt lat="54.826480" lon="22.088830"><ele>23.6</ele><time>2026-07-15T00:14:07Z</time></trkpt>
			<trkpt lat="54.826610" lon="22.088580"><ele>24.6</ele><time>2026-07-15T00:14:19Z</time></trkpt>
			<trkpt lat="54.826730" lon="22.088430"><ele>25.5</ele><time>2026-07-15T00:14:32Z</time></trkpt>
			<trkpt lat="54.826870" lon="22.088300"><ele>26.5</ele><time>2026-07-15T00:14:45Z</time></trkpt>
			<trkpt lat="54.827230" lon="22.088030"><ele>29.0</ele><time>2026-07-15T00:14:57Z</time></trkpt>
			<trkpt lat="54.827800" lon="22.087620"><ele>31.7</ele><time>2026-07-15T00:15:10Z</time></trkpt>
			<trkpt lat="54.829170" lon="22.086620"><ele>35.0</ele><time>2026-07-15T00:15:22Z</time></trkpt>
			<trkpt lat="54.830070" lon="22.086010"><ele>38.7</ele><time>2026-07-15T00:15:35Z</time></trkpt>
			<trkpt lat="54.831690" lon="22.085130"><ele>41.0</ele><time>2026-07-15T00:15:48Z</time></trkpt>
			<trkpt lat="54.831790" lon="22.085070"><ele>41.2</ele><time>2026-07-15T00:16:00Z</time></trkpt>
			<trkpt lat="54.831830" lon="22.085060"><ele>41.3</ele><time>2026-07-15T00:16:13Z</time></trkpt>
			<trkpt lat="54.832030" lon="22.084960"><ele>41.9</ele><time>2026-07-15T00:16:25Z</time></trkpt>
			<trkpt lat="54.834440" lon="22.083670"><ele>45.2</ele><time>2026-07-15T00:16:38Z</time></trkpt>
			<trkpt lat="54.836100" lon="22.082720"><ele>39.6</ele><time>2026-07-15T00:16:51Z</time></trkpt>
			<trkpt lat="54.846010" lon="22.077330"><ele>39.0</ele><time>2026-07-15T00:17:03Z</time></trkpt>
			<trkpt lat="54.846390" lon="22.077150"><ele>39.3</ele><time>2026-07-15T00:17:16Z</time></trkpt>
			<trkpt lat="54.846800" lon="22.077060"><ele>39.5</ele><time>2026-07-15T00:17:28Z</time></trkpt>
			<trkpt lat="54.848220" lon="22.077380"><ele>39.0</ele><time>2026-07-15T00:17:41Z</time></trkpt>
			<trkpt lat="54.856100" lon="22.079200"><ele>24.1</ele><time>2026-07-15T00:17:54Z</time></trkpt>
			<trkpt lat="54.856210" lon="22.079230"><ele>24.2</ele><time>2026-07-15T00:18:06Z</time></trkpt>
			<trkpt lat="54.859770" lon="22.080050"><ele>33.3</ele><time>2026-07-15T00:18:19Z</time></trkpt>
			<trkpt lat="54.864750" lon="22.081240"><ele>35.8</ele><time>2026-07-15T00:18:31Z</time></trkpt>
			<trkpt lat="54.868370" lon="22.082060"><ele>38.0</ele><time>2026-07-15T00:18:44Z</time></trkpt>
			<trkpt lat="54.872110" lon="22.082870"><ele>41.3</ele><time>2026-07-15T00:18:57Z</time></trkpt>
			<trkpt lat="54.882110" lon="22.090240"><ele>49.8</ele><time>2026-07-15T00:19:09Z</time></trkpt>
			<trkpt lat="54.884630" lon="22.092190"><ele>51.2</ele><time>2026-07-15T00:19:22Z</time></trkpt>
			<trkpt lat="54.885320" lon="22.092640"><ele>56.4</ele><time>2026-07-15T00:19:34Z</time></trkpt>
			<trkpt lat="54.886250" lon="22.093050"><ele>60.2</ele><time>2026-07-15T00:19:47Z</time></trkpt>
			<trkpt lat="54.887700" lon="22.093620"><ele>53.4</ele><time>2026-07-15T00:20:00Z</time></trkpt>
			<trkpt lat="54.889110" lon="22.094190"><ele>51.0</ele><time>2026-07-15T00:20:12Z</time></trkpt>
			<trkpt lat="54.890890" lon="22.094780"><ele>51.1</ele><time>2026-07-15T00:20:25Z</time></trkpt>
			<trkpt lat="54.891190" lon="22.094830"><ele>49.9</ele><time>2026-07-15T00:20:37Z</time></trkpt>
			<trkpt lat="54.891490" lon="22.094850"><ele>48.8</ele><time>2026-07-15T00:20:50Z</time></trkpt>
			<trkpt lat="54.892180" lon="22.094810"><ele>47.3</ele><time>2026-07-15T00:21:03Z</time></trkpt>
			<trkpt lat="54.893530" lon="22.094660"><ele>46.4</ele><time>2026-07-15T00:21:15Z</time></trkpt>
			<trkpt lat="54.901730" lon="22.094050"><ele>51.9</ele><time>2026-07-15T00:21:28Z</time></trkpt>
			<trkpt lat="54.902340" lon="22.093890"><ele>52.5</ele><time>2026-07-15T00:21:40Z</time></trkpt>
			<trkpt lat="54.902850" lon="22.093710"><ele>51.9</ele><time>2026-07-15T00:21:53Z</time></trkpt>
			<trkpt lat="54.910340" lon="22.090970"><ele>51.9</ele><time>2026-07-15T00:22:06Z</time></trkpt>
			<trkpt lat="54.913200" lon="22.089950"><ele>52.1</ele><time>2026-07-15T00:22:18Z</time></trkpt>
			<trkpt lat="54.913420" lon="22.089830"><ele>52.7</ele><time>2026-07-15T00:22:31Z</time></trkpt>
			<trkpt lat="54.913580" lon="22.089720"><ele>53.2</ele><time>2026-07-15T00:22:43Z</time></trkpt>
			<trkpt lat="54.913820" lon="22.089500"><ele>54.0</ele><time>2026-07-15T00:22:56Z</time></trkpt>
			<trkpt lat="54.916060" lon="22.087030"><ele>58.4</ele><time>2026-07-15T00:23:09Z</time></trkpt>
			<trkpt lat="54.918760" lon="22.084100"><ele>61.0</ele><time>2026-07-15T00:23:21Z</time></trkpt>
			<trkpt lat="54.920480" lon="22.082420"><ele>63.2</ele><time>2026-07-15T00:23:34Z</time></trkpt>
			<trkpt lat="54.920700" lon="22.082260"><ele>63.6</ele><time>2026-07-15T00:23:46Z</time></trkpt>
			<trkpt lat="54.920500" lon="22.080630"><ele>66.7</ele><time>2026-07-15T00:23:59Z</time></trkpt>
			<trkpt lat="54.920410" lon="22.080040"><ele>67.5</ele><time>2026-07-15T00:24:12Z</time></trkpt>
			<trkpt lat="54.920320" lon="22.079540"><ele>67.3</ele><time>2026-07-15T00:24:24Z</time></trkpt>
			<trkpt lat="54.920000" lon="22.078210"><ele>66.5</ele><time>2026-07-15T00:24:37Z</time></trkpt>
			<trkpt lat="54.919870" lon="22.077820"><ele>66.9</ele><time>2026-07-15T00:24:49Z</time></trkpt>
			<trkpt lat="54.919770" lon="22.077460"><ele>67.1</ele><time>2026-07-15T00:25:02Z</time></trkpt>
			<trkpt lat="54.919700" lon="22.077150"><ele>66.7</ele><time>2026-07-15T00:25:14Z</time></trkpt>
			<trkpt lat="54.919490" lon="22.075660"><ele>64.5</ele><time>2026-07-15T00:25:27Z</time></trkpt>
			<trkpt lat="54.918790" lon="22.070900"><ele>62.6</ele><time>2026-07-15T00:25:40Z</time></trkpt>
			<trkpt lat="54.918740" lon="22.070570"><ele>61.8</ele><time>2026-07-15T00:25:52Z</time></trkpt>
			<trkpt lat="54.917480" lon="22.062040"><ele>57.1</ele><time>2026-07-15T00:26:05Z</time></trkpt>
			<trkpt lat="54.917330" lon="22.061040"><ele>56.7</ele><time>2026-07-15T00:26:17Z</time></trkpt>
			<trkpt lat="54.916870" lon="22.058140"><ele>55.5</ele><time>2026-07-15T00:26:30Z</time></trkpt>
			<trkpt lat="54.916010" lon="22.053080"><ele>49.0</ele><time>2026-07-15T00:26:43Z</time></trkpt>
			<trkpt lat="54.915490" lon="22.050020"><ele>42.9</ele><time>2026-07-15T00:26:55Z</time></trkpt>
			<trkpt lat="54.915490" lon="22.050020"><ele>42.9</ele><time>2026-07-15T00:27:12Z</time></trkpt>
			<trkpt lat="54.915180" lon="22.048200"><ele>39.4</ele><time>2026-07-15T00:27:29Z</time></trkpt>
			<trkpt lat="54.913310" lon="22.037040"><ele>29.6</ele><time>2026-07-15T00:27:45Z</time></trkpt>
			<trkpt lat="54.913130" lon="22.036070"><ele>31.7</ele><time>2026-07-15T00:28:02Z</time></trkpt>
			<trkpt lat="54.912890" lon="22.034330"><ele>30.7</ele><time>2026-07-15T00:28:19Z</time></trkpt>
			<trkpt lat="54.911160" lon="22.020250"><ele>24.1</ele><time>2026-07-15T00:28:35Z</time></trkpt>
			<trkpt lat="54.911660" lon="21.991780"><ele>24.2</ele><time>2026-07-15T00:28:52Z</time></trkpt>
			<trkpt lat="54.911720" lon="21.988260"><ele>25.8</ele><time>2026-07-15T00:29:09Z</time></trkpt>
			<trkpt lat="54.911690" lon="21.987110"><ele>26.0</ele><time>2026-07-15T00:29:25Z</time></trkpt>
			<trkpt lat="54.911580" lon="21.985990"><ele>25.0</ele><time>2026-07-15T00:29:42Z</time></trkpt>
			<trkpt lat="54.911380" lon="21.984470"><ele>23.0</ele><time>2026-07-15T00:29:59Z</time></trkpt>
			<trkpt lat="54.911340" lon="21.984070"><ele>23.2</ele><time>2026-07-15T00:30:15Z</time></trkpt>
			<trkpt lat="54.910130" lon="21.975080"><ele>24.5</ele><time>2026-07-15T00:30:32Z</time></trkpt>
			<trkpt lat="54.910050" lon="21.974050"><ele>23.8</ele><time>2026-07-15T00:30:49Z</time></trkpt>
			<trkpt lat="54.909990" lon="21.972760"><ele>23.0</ele><time>2026-07-15T00:31:05Z</time></trkpt>
			<trkpt lat="54.909840" lon="21.969160"><ele>24.4</ele><time>2026-07-15T00:31:22Z</time></trkpt>
			<trkpt lat="54.909430" lon="21.958720"><ele>29.2</ele><time>2026-07-15T00:31:39Z</time></trkpt>
			<trkpt lat="54.909370" lon="21.957970"><ele>29.0</ele><time>2026-07-15T00:31:55Z</time></trkpt>
			<trkpt lat="54.908470" lon="21.952980"><ele>27.9</ele><time>2026-07-15T00:32:12Z</time></trkpt>
			<trkpt lat="54.907760" lon="21.949140"><ele>26.8</ele><time>2026-07-15T00:32:29Z</time></trkpt>
			<trkpt lat="54.905680" lon="21.937800"><ele>29.4</ele><time>2026-07-15T00:32:45Z</time></trkpt>
			<trkpt lat="54.904900" lon="21.933540"><ele>29.5</ele><time>2026-07-15T00:33:02Z</time></trkpt>
			<trkpt lat="54.904880" lon="21.933450"><ele>29.6</ele><time>2026-07-15T00:33:19Z</time></trkpt>
			<trkpt lat="54.904520" lon="21.931560"><ele>32.4</ele><time>2026-07-15T00:33:35Z</time></trkpt>
			<trkpt lat="54.904410" lon="21.931040"><ele>33.9</ele><time>2026-07-15T00:33:52Z</time></trkpt>
			<trkpt lat="54.904050" lon="21.929760"><ele>34.8</ele><time>2026-07-15T00:34:09Z</time></trkpt>
			<trkpt lat="54.903840" lon="21.929360"><ele>33.1</ele><time>2026-07-15T00:34:25Z</time></trkpt>
			<trkpt lat="54.903220" lon="21.928600"><ele>29.3</ele><time>2026-07-15T00:34:42Z</time></trkpt>
			<trkpt lat="54.903010" lon="21.928110"><ele>28.2</ele><time>2026-07-15T00:34:59Z</time></trkpt>
			<trkpt lat="54.902880" lon="21.927650"><ele>28.0</ele><time>2026-07-15T00:35:15Z</time></trkpt>
			<trkpt lat="54.902870" lon="21.927360"><ele>27.9</ele><time>2026-07-15T00:35:32Z</time></trkpt>
			<trkpt lat="54.902940" lon="21.927300"><ele>27.9</ele><time>2026-07-15T00:35:49Z</time></trkpt>
			<trkpt lat="54.902990" lon="21.927210"><ele>27.9</ele><time>2026-07-15T00:36:05Z</time></trkpt>
			<trkpt lat="54.903130" lon="21.926900"><ele>27.9</ele><time>2026-07-15T00:36:22Z</time></trkpt>
			<trkpt lat="54.903230" lon="21.926640"><ele>27.9</ele><time>2026-07-15T00:36:39Z</time></trkpt>
			<trkpt lat="54.903590" lon="21.924910"><ele>27.3</ele><time>2026-07-15T00:36:55Z</time></trkpt>
			<trkpt lat="54.903840" lon="21.923890"><ele>26.4</ele><time>2026-07-15T00:37:12Z</time></trkpt>
			<trkpt lat="54.903840" lon="21.923890"><ele>26.4</ele><time>2026-07-15T00:37:14Z</time></trkpt>
			<trkpt lat="54.903890" lon="21.923700"><ele>26.3</ele><time>2026-07-15T00:37:16Z</time></trkpt>
			<trkpt lat="54.903920" lon="21.923510"><ele>26.3</ele><time>2026-07-15T00:37:19Z</time></trkpt>
			<trkpt lat="54.904120" lon="21.922720"><ele>26.0</ele><time>2026-07-15T00:37:21Z</time></trkpt>
			<trkpt lat="54.904200" lon="21.922460"><ele>26.0</ele><time>2026-07-15T00:37:23Z</time></trkpt>
			<trkpt lat="54.904450" lon="21.921740"><ele>26.0</ele><time>2026-07-15T00:37:25Z</time></trkpt>
			<trkpt lat="54.904720" lon="21.921030"><ele>25.7</ele><time>2026-07-15T00:37:28Z</time></trkpt>
			<trkpt lat="54.904880" lon="21.921080"><ele>25.8</ele><time>2026-07-15T00:37:30Z</time></trkpt>
			<trkpt lat="54.906590" lon="21.921300"><ele>29.4</ele><time>2026-07-15T00:37:32Z</time></trkpt>
			<trkpt lat="54.907060" lon="21.921390"><ele>30.2</ele><time>2026-07-15T00:37:34Z</time></trkpt>
			<trkpt lat="54.907170" lon="21.921420"><ele>30.4</ele><time>2026-07-15T00:37:37Z</time></trkpt>
			<trkpt lat="54.907250" lon="21.921500"><ele>30.5</ele><time>2026-07-15T00:37:39Z</time></trkpt>
			<trkpt lat="54.907510" lon="21.922200"><ele>31.5</ele><time>2026-07-15T00:37:41Z</time></trkpt>
			<trkpt lat="54.907510" lon="21.922200"><ele>31.5</ele><time>2026-07-15T00:37:48Z</time></trkpt>
			<trkpt lat="54.907790" lon="21.922970"><ele>31.4</ele><time>2026-07-15T00:37:55Z</time></trkpt>
			<trkpt lat="54.907830" lon="21.923090"><ele>31.3</ele><time>2026-07-15T00:38:01Z</time></trkpt>
			<trkpt lat="54.908220" lon="21.924170"><ele>29.4</ele><time>2026-07-15T00:38:08Z</time></trkpt>
			<trkpt lat="54.908940" lon="21.926070"><ele>27.3</ele><time>2026-07-15T00:38:15Z</time></trkpt>
			<trkpt lat="54.909450" lon="21.927450"><ele>30.7</ele><time>2026-07-15T00:38:22Z</time></trkpt>
			<trkpt lat="54.910030" lon="21.928970"><ele>37.2</ele><time>2026-07-15T00:38:28Z</time></trkpt>
			<trkpt lat="54.910120" lon="21.929220"><ele>37.3</ele><time>2026-07-15T00:38:35Z</time></trkpt>
			<trkpt lat="54.910220" lon="21.929510"><ele>37.2</ele><time>2026-07-15T00:38:42Z</time></trkpt>
			<trkpt lat="54.910530" lon="21.930290"><ele>35.6</ele><time>2026-07-15T00:38:49Z</time></trkpt>
			<trkpt lat="54.910840" lon="21.930880"><ele>32.9</ele><time>2026-07-15T00:38:55Z</time></trkpt>
			<trkpt lat="54.911230" lon="21.931350"><ele>29.5</ele><time>2026-07-15T00:39:02Z</time></trkpt>
			<trkpt lat="54.912010" lon="21.932060"><ele>27.4</ele><time>2026-07-15T00:39:09Z</time></trkpt>
			<trkpt lat="54.914070" lon="21.933880"><ele>24.9</ele><time>2026-07-15T00:39:16Z</time></trkpt>
			<trkpt lat="54.920530" lon="21.939580"><ele>29.0</ele><time>2026-07-15T00:39:22Z</time></trkpt>
			<trkpt lat="54.920770" lon="21.939760"><ele>29.4</ele><time>2026-07-15T00:39:29Z</time></trkpt>
			<trkpt lat="54.924710" lon="21.943400"><ele>26.0</ele><time>2026-07-15T00:39:36Z</time></trkpt>
			<trkpt lat="54.927050" lon="21.945430"><ele>26.2</ele><time>2026-07-15T00:39:43Z</time></trkpt>
			<trkpt lat="54.929320" lon="21.947510"><ele>24.3</ele><time>2026-07-15T00:39:49Z</time></trkpt>
			<trkpt lat="54.931870" lon="21.949770"><ele>26.2</ele><time>2026-07-15T00:39:56Z</time></trkpt>
			<trkpt lat="54.932830" lon="21.950590"><ele>27.7</ele><time>2026-07-15T00:40:03Z</time></trkpt>
			<trkpt lat="54.933690" lon="21.951050"><ele>27.4</ele><time>2026-07-15T00:40:10Z</time></trkpt>
			<trkpt lat="54.935320" lon="21.951820"><ele>25.9</ele><time>2026-07-15T00:40:16Z</time></trkpt>
			<trkpt lat="54.939630" lon="21.953970"><ele>25.8</ele><time>2026-07-15T00:40:23Z</time></trkpt>
			<trkpt lat="54.943700" lon="21.956590"><ele>21.3</ele><time>2026-07-15T00:40:30Z</time></trkpt>
			<trkpt lat="54.945400" lon="21.957710"><ele>22.8</ele><time>2026-07-15T00:40:37Z</time></trkpt>
			<trkpt lat="54.945930" lon="21.957960"><ele>22.3</ele><time>2026-07-15T00:40:43Z</time></trkpt>
			<trkpt lat="54.946370" lon="21.958100"><ele>21.7</ele><time>2026-07-15T00:40:50Z</time></trkpt>
			<trkpt lat="54.946810" lon="21.958180"><ele>21.6</ele><time>2026-07-15T00:40:57Z</time></trkpt>
			<trkpt lat="54.947200" lon="21.958220"><ele>22.3</ele><time>2026-07-15T00:41:04Z</time></trkpt>
			<trkpt lat="54.951730" lon="21.958260"><ele>26.8</ele><time>2026-07-15T00:41:10Z</time></trkpt>
			<trkpt lat="54.955920" lon="21.958350"><ele>24.2</ele><time>2026-07-15T00:41:17Z</time></trkpt>
			<trkpt lat="54.956260" lon="21.958370"><ele>24.5</ele><time>2026-07-15T00:41:24Z</time></trkpt>
			<trkpt lat="54.958940" lon="21.958360"><ele>24.7</ele><time>2026-07-15T00:41:31Z</time></trkpt>
			<trkpt lat="54.961640" lon="21.958390"><ele>25.3</ele><time>2026-07-15T00:41:37Z</time></trkpt>
			<trkpt lat="54.962620" lon="21.958420"><ele>26.0</ele><time>2026-07-15T00:41:44Z</time></trkpt>
			<trkpt lat="54.967910" lon="21.958530"><ele>28.0</ele><time>2026-07-15T00:41:51Z</time></trkpt>
			<trkpt lat="54.970880" lon="21.958590"><ele>27.2</ele><time>2026-07-15T00:41:58Z</time></trkpt>
			<trkpt lat="54.971170" lon="21.958630"><ele>26.8</ele><time>2026-07-15T00:42:04Z</time></trkpt>
			<trkpt lat="54.971390" lon="21.958700"><ele>26.4</ele><time>2026-07-15T00:42:11Z</time></trkpt>
			<trkpt lat="54.971660" lon="21.958840"><ele>25.7</ele><time>2026-07-15T00:42:18Z</time></trkpt>
			<trkpt lat="54.972050" lon="21.959170"><ele>24.5</ele><time>2026-07-15T00:42:24Z</time></trkpt>
			<trkpt lat="54.972430" lon="21.959590"><ele>23.6</ele><time>2026-07-15T00:42:31Z</time></trkpt>
			<trkpt lat="54.973790" lon="21.961130"><ele>21.5</ele><time>2026-07-15T00:42:38Z</time></trkpt>
			<trkpt lat="54.974570" lon="21.962090"><ele>18.8</ele><time>2026-07-15T00:42:45Z</time></trkpt>
			<trkpt lat="54.975770" lon="21.963380"><ele>17.0</ele><time>2026-07-15T00:42:51Z</time></trkpt>
			<trkpt lat="54.976190" lon="21.963860"><ele>17.2</ele><time>2026-07-15T00:42:58Z</time></trkpt>
			<trkpt lat="54.976660" lon="21.964380"><ele>18.5</ele><time>2026-07-15T00:43:05Z</time></trkpt>
			<trkpt lat="54.976880" lon="21.964580"><ele>19.5</ele><time>2026-07-15T00:43:12Z</time></trkpt>
			<trkpt lat="54.977400" lon="21.964990"><ele>21.7</ele><time>2026-07-15T00:43:18Z</time></trkpt>
			<trkpt lat="54.977500" lon="21.965090"><ele>22.1</ele><time>2026-07-15T00:43:25Z</time></trkpt>
			<trkpt lat="54.977700" lon="21.965440"><ele>22.6</ele><time>2026-07-15T00:43:32Z</time></trkpt>
			<trkpt lat="54.977790" lon="21.965570"><ele>22.8</ele><time>2026-07-15T00:43:39Z</time></trkpt>
			<trkpt lat="54.978700" lon="21.966670"><ele>20.3</ele><time>2026-07-15T00:43:45Z</time></trkpt>
			<trkpt lat="54.979130" lon="21.967140"><ele>17.9</ele><time>2026-07-15T00:43:52Z</time></trkpt>
			<trkpt lat="54.981320" lon="21.969620"><ele>16.3</ele><time>2026-07-15T00:43:59Z</time></trkpt>
			<trkpt lat="54.981610" lon="21.969870"><ele>16.6</ele><time>2026-07-15T00:44:06Z</time></trkpt>
			<trkpt lat="54.982410" lon="21.970620"><ele>15.9</ele><time>2026-07-15T00:44:12Z</time></trkpt>
			<trkpt lat="54.983940" lon="21.971980"><ele>15.5</ele><time>2026-07-15T00:44:19Z</time></trkpt>
			<trkpt lat="54.988180" lon="21.975790"><ele>19.7</ele><time>2026-07-15T00:44:26Z</time></trkpt>
			<trkpt lat="54.989490" lon="21.976900"><ele>21.7</ele><time>2026-07-15T00:44:33Z</time></trkpt>
			<trkpt lat="54.990840" lon="21.978210"><ele>22.7</ele><time>2026-07-15T00:44:39Z</time></trkpt>
			<trkpt lat="54.993990" lon="21.980980"><ele>26.7</ele><time>2026-07-15T00:44:46Z</time></trkpt>
			<trkpt lat="54.995510" lon="21.982400"><ele>25.4</ele><time>2026-07-15T00:44:53Z</time></trkpt>
			<trkpt lat="55.000050" lon="21.986420"><ele>18.6</ele><time>2026-07-15T00:45:00Z</time></trkpt>
			<trkpt lat="55.000220" lon="21.986580"><ele>18.6</ele><time>2026-07-15T00:45:06Z</time></trkpt>
			<trkpt lat="55.000640" lon="21.986960"><ele>18.8</ele><time>2026-07-15T00:45:13Z</time></trkpt>
			<trkpt lat="55.002340" lon="21.988380"><ele>17.5</ele><time>2026-07-15T00:45:20Z</time></trkpt>
			<trkpt lat="55.003460" lon="21.989380"><ele>16.0</ele><time>2026-07-15T00:45:27Z</time></trkpt>
			<trkpt lat="55.003580" lon="21.989480"><ele>16.2</ele><time>2026-07-15T00:45:33Z</time></trkpt>
			<trkpt lat="55.004090" lon="21.989990"><ele>17.8</ele><time>2026-07-15T00:45:40Z</time></trkpt>
			<trkpt lat="55.004270" lon="21.990200"><ele>18.2</ele><time>2026-07-15T00:45:47Z</time></trkpt>
			<trkpt lat="55.004720" lon="21.990800"><ele>19.0</ele><time>2026-07-15T00:45:54Z</time></trkpt>
			<trkpt lat="55.005330" lon="21.991810"><ele>20.5</ele><time>2026-07-15T00:46:00Z</time></trkpt>
			<trkpt lat="55.005460" lon="21.992060"><ele>20.7</ele><time>2026-07-15T00:46:07Z</time></trkpt>
			<trkpt lat="55.006220" lon="21.993360"><ele>21.0</ele><time>2026-07-15T00:46:14Z</time></trkpt>
			<trkpt lat="55.010290" lon="22.000660"><ele>18.2</ele><time>2026-07-15T00:46:21Z</time></trkpt>
			<trkpt lat="55.010480" lon="22.001000"><ele>17.8</ele><time>2026-07-15T00:46:27Z</time></trkpt>
			<trkpt lat="55.012010" lon="22.003730"><ele>18.6</ele><time>2026-07-15T00:46:34Z</time></trkpt>
			<trkpt lat="55.013740" lon="22.006890"><ele>20.5</ele><time>2026-07-15T00:46:41Z</time></trkpt>
			<trkpt lat="55.013790" lon="22.006980"><ele>20.5</ele><time>2026-07-15T00:46:48Z</time></trkpt>
			<trkpt lat="55.015010" lon="22.009110"><ele>21.8</ele><time>2026-07-15T00:46:54Z</time></trkpt>
			<trkpt lat="55.015430" lon="22.009850"><ele>22.4</ele><time>2026-07-15T00:47:01Z</time></trkpt>
			<trkpt lat="55.015800" lon="22.010500"><ele>24.1</ele><time>2026-07-15T00:47:08Z</time></trkpt>
			<trkpt lat="55.016170" lon="22.011140"><ele>25.6</ele><time>2026-07-15T00:47:15Z</time></trkpt>
			<trkpt lat="55.016860" lon="22.012350"><ele>27.2</ele><time>2026-07-15T00:47:21Z</time></trkpt>
			<trkpt lat="55.019390" lon="22.016840"><ele>31.2</ele><time>2026-07-15T00:47:28Z</time></trkpt>
			<trkpt lat="55.021440" lon="22.020340"><ele>29.9</ele><time>2026-07-15T00:47:35Z</time></trkpt>
			<trkpt lat="55.022060" lon="22.021150"><ele>29.8</ele><time>2026-07-15T00:47:42Z</time></trkpt>
			<trkpt lat="55.022670" lon="22.021680"><ele>30.0</ele><time>2026-07-15T00:47:48Z</time></trkpt>
			<trkpt lat="55.022920" lon="22.021840"><ele>29.8</ele><time>2026-07-15T00:47:55Z</time></trkpt>
			<trkpt lat="55.024230" lon="22.022700"><ele>29.0</ele><time>2026-07-15T00:48:02Z</time></trkpt>
			<trkpt lat="55.024570" lon="22.022890"><ele>29.2</ele><time>2026-07-15T00:48:09Z</time></trkpt>
			<trkpt lat="55.024980" lon="22.023150"><ele>29.8</ele><time>2026-07-15T00:48:15Z</time></trkpt>
			<trkpt lat="55.025380" lon="22.023370"><ele>30.0</ele><time>2026-07-15T00:48:22Z</time></trkpt>
			<trkpt lat="55.025510" lon="22.023420"><ele>30.0</ele><time>2026-07-15T00:48:29Z</time></trkpt>
			<trkpt lat="55.025880" lon="22.023470"><ele>30.2</ele><time>2026-07-15T00:48:35Z</time></trkpt>
			<trkpt lat="55.026050" lon="22.023480"><ele>30.3</ele><time>2026-07-15T00:48:42Z</time></trkpt>
			<trkpt lat="55.026250" lon="22.023440"><ele>30.6</ele><time>2026-07-15T00:48:49Z</time></trkpt>
			<trkpt lat="55.026820" lon="22.023300"><ele>31.1</ele><time>2026-07-15T00:48:56Z</time></trkpt>
			<trkpt lat="55.027110" lon="22.023260"><ele>31.3</ele><time>2026-07-15T00:49:02Z</time></trkpt>
			<trkpt lat="55.027390" lon="22.023270"><ele>31.6</ele><time>2026-07-15T00:49:09Z</time></trkpt>
			<trkpt lat="55.027970" lon="22.023240"><ele>31.2</ele><time>2026-07-15T00:49:16Z</time></trkpt>
			<trkpt lat="55.028380" lon="22.023190"><ele>30.9</ele><time>2026-07-15T00:49:23Z</time></trkpt>
			<trkpt lat="55.028780" lon="22.023160"><ele>30.9</ele><time>2026-07-15T00:49:29Z</time></trkpt>
			<trkpt lat="55.029040" lon="22.023220"><ele>31.1</ele><time>2026-07-15T00:49:36Z</time></trkpt>
			<trkpt lat="55.029300" lon="22.023280"><ele>31.3</ele><time>2026-07-15T00:49:43Z</time></trkpt>
			<trkpt lat="55.029830" lon="22.023290"><ele>32.7</ele><time>2026-07-15T00:49:50Z</time></trkpt>
			<trkpt lat="55.030210" lon="22.023290"><ele>32.8</ele><time>2026-07-15T00:49:56Z</time></trkpt>
			<trkpt lat="55.030600" lon="22.023270"><ele>32.3</ele><time>2026-07-15T00:50:03Z</time></trkpt>
			<trkpt lat="55.031250" lon="22.023530"><ele>32.2</ele><time>2026-07-15T00:50:10Z</time></trkpt>
			<trkpt lat="55.031450" lon="22.023570"><ele>32.3</ele><time>2026-07-15T00:50:17Z</time></trkpt>
			<trkpt lat="55.031800" lon="22.023590"><ele>32.4</ele><time>2026-07-15T00:50:23Z</time></trkpt>
			<trkpt lat="55.032030" lon="22.023620"><ele>32.0</ele><time>2026-07-15T00:50:30Z</time></trkpt>
			<trkpt lat="55.032310" lon="22.023720"><ele>31.4</ele><time>2026-07-15T00:50:37Z</time></trkpt>
			<trkpt lat="55.032990" lon="22.024030"><ele>30.4</ele><time>2026-07-15T00:50:44Z</time></trkpt>
			<trkpt lat="55.033110" lon="22.024090"><ele>30.3</ele><time>2026-07-15T00:50:50Z</time></trkpt>
			<trkpt lat="55.033520" lon="22.024220"><ele>30.1</ele><time>2026-07-15T00:50:57Z</time></trkpt>
			<trkpt lat="55.033810" lon="22.024230"><ele>30.4</ele><time>2026-07-15T00:51:04Z</time></trkpt>
			<trkpt lat="55.033880" lon="22.024240"><ele>30.5</ele><time>2026-07-15T00:51:11Z</time></trkpt>
			<trkpt lat="55.034220" lon="22.024160"><ele>31.0</ele><time>2026-07-15T00:51:17Z</time></trkpt>
			<trkpt lat="55.034350" lon="22.024120"><ele>31.0</ele><time>2026-07-15T00:51:24Z</time></trkpt>
			<trkpt lat="55.035030" lon="22.024070"><ele>30.9</ele><time>2026-07-15T00:51:31Z</time></trkpt>
			<trkpt lat="55.035060" lon="22.024070"><ele>30.9</ele><time>2026-07-15T00:51:38Z</time></trkpt>
			<trkpt lat="55.035320" lon="22.025150"><ele>30.8</ele><time>2026-07-15T00:51:44Z</time></trkpt>
			<trkpt lat="55.035520" lon="22.025870"><ele>30.0</ele><time>2026-07-15T00:51:51Z</time></trkpt>
			<trkpt lat="55.035600" lon="22.026140"><ele>29.6</ele><time>2026-07-15T00:51:58Z</time></trkpt>
			<trkpt lat="55.035950" lon="22.027380"><ele>28.0</ele><time>2026-07-15T00:52:05Z</time></trkpt>
			<trkpt lat="55.036140" lon="22.027940"><ele>25.7</ele><time>2026-07-15T00:52:11Z</time></trkpt>
			<trkpt lat="55.036650" lon="22.029420"><ele>20.8</ele><time>2026-07-15T00:52:18Z</time></trkpt>
			<trkpt lat="55.036700" lon="22.029550"><ele>20.7</ele><time>2026-07-15T00:52:25Z</time></trkpt>
			<trkpt lat="55.037040" lon="22.030230"><ele>20.6</ele><time>2026-07-15T00:52:32Z</time></trkpt>
			<trkpt lat="55.037200" lon="22.030560"><ele>20.2</ele><time>2026-07-15T00:52:38Z</time></trkpt>
			<trkpt lat="55.037640" lon="22.030200"><ele>19.9</ele><time>2026-07-15T00:52:45Z</time></trkpt>
			<trkpt lat="55.037990" lon="22.029870"><ele>20.8</ele><time>2026-07-15T00:52:52Z</time></trkpt>
			<trkpt lat="55.038330" lon="22.029450"><ele>22.6</ele><time>2026-07-15T00:52:59Z</time></trkpt>
			<trkpt lat="55.038380" lon="22.029330"><ele>22.7</ele><time>2026-07-15T00:53:05Z</time></trkpt>
			<trkpt lat="55.038830" lon="22.028240"><ele>21.1</ele><time>2026-07-15T00:53:12Z</time></trkpt>
			<trkpt lat="55.038880" lon="22.028130"><ele>21.0</ele><time>2026-07-15T00:53:19Z</time></trkpt>
			<trkpt lat="55.039310" lon="22.027160"><ele>20.4</ele><time>2026-07-15T00:53:26Z</time></trkpt>
			<trkpt lat="55.039430" lon="22.026900"><ele>19.8</ele><time>2026-07-15T00:53:32Z</time></trkpt>
			<trkpt lat="55.039510" lon="22.026660"><ele>19.2</ele><time>2026-07-15T00:53:39Z</time></trkpt>
			<trkpt lat="55.039530" lon="22.026550"><ele>18.9</ele><time>2026-07-15T00:53:46Z</time></trkpt>
			<trkpt lat="55.039580" lon="22.026340"><ele>18.4</ele><time>2026-07-15T00:53:53Z</time></trkpt>
			<trkpt lat="55.039700" lon="22.025450"><ele>16.4</ele><time>2026-07-15T00:53:59Z</time></trkpt>
			<trkpt lat="55.039820" lon="22.024670"><ele>15.7</ele><time>2026-07-15T00:54:06Z</time></trkpt>
			<trkpt lat="55.039880" lon="22.024350"><ele>15.9</ele><time>2026-07-15T00:54:13Z</time></trkpt>
			<trkpt lat="55.040010" lon="22.023910"><ele>16.3</ele><time>2026-07-15T00:54:20Z</time></trkpt>
			<trkpt lat="55.040150" lon="22.023750"><ele>16.9</ele><time>2026-07-15T00:54:26Z</time></trkpt>
			<trkpt lat="55.040350" lon="22.023630"><ele>17.6</ele><time>2026-07-15T00:54:33Z</time></trkpt>
			<trkpt lat="55.040970" lon="22.023410"><ele>20.1</ele><time>2026-07-15T00:54:40Z</time></trkpt>
			<trkpt lat="55.041330" lon="22.023260"><ele>21.2</ele><time>2026-07-15T00:54:46Z</time></trkpt>
			<trkpt lat="55.041490" lon="22.023180"><ele>21.8</ele><time>2026-07-15T00:54:53Z</time></trkpt>
			<trkpt lat="55.041600" lon="22.023070"><ele>22.2</ele><time>2026-07-15T00:55:00Z</time></trkpt>
			<trkpt lat="55.041750" lon="22.022810"><ele>22.7</ele><time>2026-07-15T00:55:07Z</time></trkpt>
			<trkpt lat="55.041820" lon="22.022660"><ele>22.9</ele><time>2026-07-15T00:55:13Z</time></trkpt>
			<trkpt lat="55.041820" lon="22.022660"><ele>22.9</ele><time>2026-07-15T00:55:17Z</time></trkpt>
			<trkpt lat="55.042030" lon="22.022210"><ele>22.9</ele><time>2026-07-15T00:55:21Z</time></trkpt>
			<trkpt lat="55.042950" lon="22.020320"><ele>20.8</ele><time>2026-07-15T00:55:25Z</time></trkpt>
			<trkpt lat="55.043050" lon="22.020120"><ele>20.7</ele><time>2026-07-15T00:55:28Z</time></trkpt>
			<trkpt lat="55.043130" lon="22.019950"><ele>20.6</ele><time>2026-07-15T00:55:32Z</time></trkpt>
			<trkpt lat="55.043190" lon="22.019820"><ele>20.6</ele><time>2026-07-15T00:55:36Z</time></trkpt>
			<trkpt lat="55.043240" lon="22.019730"><ele>20.5</ele><time>2026-07-15T00:55:40Z</time></trkpt>
			<trkpt lat="55.043300" lon="22.019590"><ele>20.5</ele><time>2026-07-15T00:55:43Z</time></trkpt>
			<trkpt lat="55.043400" lon="22.019330"><ele>20.4</ele><time>2026-07-15T00:55:47Z</time></trkpt>
			<trkpt lat="55.043670" lon="22.018340"><ele>21.9</ele><time>2026-07-15T00:55:51Z</time></trkpt>
			<trkpt lat="55.043790" lon="22.017720"><ele>23.5</ele><time>2026-07-15T00:55:54Z</time></trkpt>
			<trkpt lat="55.044360" lon="22.014410"><ele>25.5</ele><time>2026-07-15T00:55:58Z</time></trkpt>
			<trkpt lat="55.044680" lon="22.012570"><ele>25.6</ele><time>2026-07-15T00:56:02Z</time></trkpt>
			<trkpt lat="55.045100" lon="22.010210"><ele>28.2</ele><time>2026-07-15T00:56:06Z</time></trkpt>
			<trkpt lat="55.045260" lon="22.009160"><ele>28.8</ele><time>2026-07-15T00:56:09Z</time></trkpt>
			<trkpt lat="55.045300" lon="22.008580"><ele>29.1</ele><time>2026-07-15T00:56:13Z</time></trkpt>
			<trkpt lat="55.045300" lon="22.008060"><ele>30.0</ele><time>2026-07-15T00:56:17Z</time></trkpt>
			<trkpt lat="55.045270" lon="22.005400"><ele>30.8</ele><time>2026-07-15T00:56:21Z</time></trkpt>
			<trkpt lat="55.045260" lon="22.005240"><ele>31.0</ele><time>2026-07-15T00:56:24Z</time></trkpt>
			<trkpt lat="55.045250" lon="22.003610"><ele>32.2</ele><time>2026-07-15T00:56:28Z</time></trkpt>
			<trkpt lat="55.045230" lon="22.002350"><ele>34.0</ele><time>2026-07-15T00:56:32Z</time></trkpt>
			<trkpt lat="55.045150" lon="21.998100"><ele>33.2</ele><time>2026-07-15T00:56:35Z</time></trkpt>
			<trkpt lat="55.045080" lon="21.996910"><ele>33.8</ele><time>2026-07-15T00:56:39Z</time></trkpt>
			<trkpt lat="55.044670" lon="21.993220"><ele>30.1</ele><time>2026-07-15T00:56:43Z</time></trkpt>
			<trkpt lat="55.044600" lon="21.992600"><ele>29.6</ele><time>2026-07-15T00:56:47Z</time></trkpt>
			<trkpt lat="55.044600" lon="21.992120"><ele>29.5</ele><time>2026-07-15T00:56:50Z</time></trkpt>
			<trkpt lat="55.044730" lon="21.990680"><ele>31.1</ele><time>2026-07-15T00:56:54Z</time></trkpt>
			<trkpt lat="55.044830" lon="21.989820"><ele>31.8</ele><time>2026-07-15T00:56:58Z</time></trkpt>
			<trkpt lat="55.044930" lon="21.989280"><ele>32.6</ele><time>2026-07-15T00:57:02Z</time></trkpt>
			<trkpt lat="55.045120" lon="21.988570"><ele>33.7</ele><time>2026-07-15T00:57:05Z</time></trkpt>
			<trkpt lat="55.045710" lon="21.986610"><ele>37.5</ele><time>2026-07-15T00:57:09Z</time></trkpt>
			<trkpt lat="55.045990" lon="21.985520"><ele>38.5</ele><time>2026-07-15T00:57:13Z</time></trkpt>
			<trkpt lat="55.046110" lon="21.985130"><ele>38.9</ele><time>2026-07-15T00:57:16Z</time></trkpt>
			<trkpt lat="55.046980" lon="21.982680"><ele>41.5</ele><time>2026-07-15T00:57:20Z</time></trkpt>
			<trkpt lat="55.048030" lon="21.979400"><ele>46.2</ele><time>2026-07-15T00:57:24Z</time></trkpt>
			<trkpt lat="55.048250" lon="21.978730"><ele>48.0</ele><time>2026-07-15T00:57:28Z</time></trkpt>
			<trkpt lat="55.048570" lon="21.978000"><ele>47.1</ele><time>2026-07-15T00:57:31Z</time></trkpt>
			<trkpt lat="55.050980" lon="21.973150"><ele>42.1</ele><time>2026-07-15T00:57:35Z</time></trkpt>
			<trkpt lat="55.051470" lon="21.972130"><ele>38.6</ele><time>2026-07-15T00:57:39Z</time></trkpt>
			<trkpt lat="55.051890" lon="21.971120"><ele>36.2</ele><time>2026-07-15T00:57:43Z</time></trkpt>
			<trkpt lat="55.053080" lon="21.968000"><ele>29.7</ele><time>2026-07-15T00:57:46Z</time></trkpt>
			<trkpt lat="55.053230" lon="21.967530"><ele>29.3</ele><time>2026-07-15T00:57:50Z</time></trkpt>
			<trkpt lat="55.053340" lon="21.967140"><ele>29.5</ele><time>2026-07-15T00:57:54Z</time></trkpt>
			<trkpt lat="55.053380" lon="21.966940"><ele>29.6</ele><time>2026-07-15T00:57:57Z</time></trkpt>
			<trkpt lat="55.053410" lon="21.966730"><ele>29.7</ele><time>2026-07-15T00:58:01Z</time></trkpt>
			<trkpt lat="55.053450" lon="21.966080"><ele>29.3</ele><time>2026-07-15T00:58:05Z</time></trkpt>
			<trkpt lat="55.053470" lon="21.965310"><ele>29.5</ele><time>2026-07-15T00:58:09Z</time></trkpt>
			<trkpt lat="55.053470" lon="21.965070"><ele>29.6</ele><time>2026-07-15T00:58:12Z</time></trkpt>
			<trkpt lat="55.053490" lon="21.964470"><ele>29.2</ele><time>2026-07-15T00:58:16Z</time></trkpt>
			<trkpt lat="55.053480" lon="21.964250"><ele>29.0</ele><time>2026-07-15T00:58:20Z</time></trkpt>
			<trkpt lat="55.053520" lon="21.963660"><ele>28.0</ele><time>2026-07-15T00:58:24Z</time></trkpt>
			<trkpt lat="55.053610" lon="21.963130"><ele>27.2</ele><time>2026-07-15T00:58:27Z</time></trkpt>
			<trkpt lat="55.053890" lon="21.961800"><ele>26.3</ele><time>2026-07-15T00:58:31Z</time></trkpt>
			<trkpt lat="55.054190" lon="21.960700"><ele>26.9</ele><time>2026-07-15T00:58:35Z</time></trkpt>
			<trkpt lat="55.054710" lon="21.958900"><ele>26.8</ele><time>2026-07-15T00:58:38Z</time></trkpt>
			<trkpt lat="55.055090" lon="21.957560"><ele>26.0</ele><time>2026-07-15T00:58:42Z</time></trkpt>
			<trkpt lat="55.055300" lon="21.956790"><ele>25.3</ele><time>2026-07-15T00:58:46Z</time></trkpt>
			<trkpt lat="55.055460" lon="21.956300"><ele>25.6</ele><time>2026-07-15T00:58:50Z</time></trkpt>
			<trkpt lat="55.055630" lon="21.955900"><ele>26.3</ele><time>2026-07-15T00:58:53Z</time></trkpt>
			<trkpt lat="55.055690" lon="21.955790"><ele>26.5</ele><time>2026-07-15T00:58:57Z</time></trkpt>
			<trkpt lat="55.056260" lon="21.955100"><ele>25.9</ele><time>2026-07-15T00:59:01Z</time></trkpt>
			<trkpt lat="55.056910" lon="21.954230"><ele>24.4</ele><time>2026-07-15T00:59:05Z</time></trkpt>
			<trkpt lat="55.057500" lon="21.953250"><ele>24.7</ele><time>2026-07-15T00:59:08Z</time></trkpt>
			<trkpt lat="55.057800" lon="21.952690"><ele>23.3</ele><time>2026-07-15T00:59:12Z</time></trkpt>
			<trkpt lat="55.058430" lon="21.951500"><ele>21.8</ele><time>2026-07-15T00:59:16Z</time></trkpt>
			<trkpt lat="55.058850" lon="21.950690"><ele>20.2</ele><time>2026-07-15T00:59:19Z</time></trkpt>
			<trkpt lat="55.059240" lon="21.950020"><ele>19.0</ele><time>2026-07-15T00:59:23Z</time></trkpt>
			<trkpt lat="55.059740" lon="21.949410"><ele>18.3</ele><time>2026-07-15T00:59:27Z</time></trkpt>
			<trkpt lat="55.060530" lon="21.948490"><ele>18.3</ele><time>2026-07-15T00:59:31Z</time></trkpt>
			<trkpt lat="55.060830" lon="21.948210"><ele>17.9</ele><time>2026-07-15T00:59:34Z</time></trkpt>
			<trkpt lat="55.061590" lon="21.947580"><ele>17.0</ele><time>2026-07-15T00:59:38Z</time></trkpt>
			<trkpt lat="55.061860" lon="21.947410"><ele>16.4</ele><time>2026-07-15T00:59:42Z</time></trkpt>
			<trkpt lat="55.062230" lon="21.947200"><ele>15.0</ele><time>2026-07-15T00:59:46Z</time></trkpt>
			<trkpt lat="55.063210" lon="21.946510"><ele>17.3</ele><time>2026-07-15T00:59:49Z</time></trkpt>
			<trkpt lat="55.063700" lon="21.946050"><ele>19.7</ele><time>2026-07-15T00:59:53Z</time></trkpt>
			<trkpt lat="55.064930" lon="21.944590"><ele>27.3</ele><time>2026-07-15T00:59:57Z</time></trkpt>
			<trkpt lat="55.065650" lon="21.943790"><ele>28.0</ele><time>2026-07-15T01:00:00Z</time></trkpt>
			<trkpt lat="55.065770" lon="21.943610"><ele>28.2</ele><time>2026-07-15T01:00:04Z</time></trkpt>
			<trkpt lat="55.065920" lon="21.943350"><ele>28.6</ele><time>2026-07-15T01:00:08Z</time></trkpt>
			<trkpt lat="55.066060" lon="21.943050"><ele>29.1</ele><time>2026-07-15T01:00:12Z</time></trkpt>
			<trkpt lat="55.066330" lon="21.942360"><ele>30.0</ele><time>2026-07-15T01:00:15Z</time></trkpt>
			<trkpt lat="55.066950" lon="21.940970"><ele>30.2</ele><time>2026-07-15T01:00:19Z</time></trkpt>
			<trkpt lat="55.068000" lon="21.938510"><ele>32.5</ele><time>2026-07-15T01:00:23Z</time></trkpt>
			<trkpt lat="55.068140" lon="21.938220"><ele>33.4</ele><time>2026-07-15T01:00:27Z</time></trkpt>
			<trkpt lat="55.068520" lon="21.937280"><ele>35.4</ele><time>2026-07-15T01:00:30Z</time></trkpt>
			<trkpt lat="55.068710" lon="21.936890"><ele>36.2</ele><time>2026-07-15T01:00:34Z</time></trkpt>
			<trkpt lat="55.068860" lon="21.936660"><ele>36.9</ele><time>2026-07-15T01:00:38Z</time></trkpt>
			<trkpt lat="55.069700" lon="21.935830"><ele>37.6</ele><time>2026-07-15T01:00:41Z</time></trkpt>
			<trkpt lat="55.070550" lon="21.935040"><ele>34.9</ele><time>2026-07-15T01:00:45Z</time></trkpt>
			<trkpt lat="55.070660" lon="21.934950"><ele>34.5</ele><time>2026-07-15T01:00:49Z</time></trkpt>
			<trkpt lat="55.070830" lon="21.934690"><ele>33.8</ele><time>2026-07-15T01:00:53Z</time></trkpt>
			<trkpt lat="55.071370" lon="21.933810"><ele>33.5</ele><time>2026-07-15T01:00:56Z</time></trkpt>
			<trkpt lat="55.071590" lon="21.933460"><ele>33.7</ele><time>2026-07-15T01:01:00Z</time></trkpt>
			<trkpt lat="55.072380" lon="21.932250"><ele>32.5</ele><time>2026-07-15T01:01:04Z</time></trkpt>
			<trkpt lat="55.072420" lon="21.932210"><ele>32.5</ele><time>2026-07-15T01:01:08Z</time></trkpt>
			<trkpt lat="55.072930" lon="21.931420"><ele>31.9</ele><time>2026-07-15T01:01:11Z</time></trkpt>
			<trkpt lat="55.073370" lon="21.930730"><ele>32.1</ele><time>2026-07-15T01:01:15Z</time></trkpt>
			<trkpt lat="55.073540" lon="21.930430"><ele>32.3</ele><time>2026-07-15T01:01:19Z</time></trkpt>
			<trkpt lat="55.073690" lon="21.930120"><ele>32.4</ele><time>2026-07-15T01:01:22Z</time></trkpt>
			<trkpt lat="55.073940" lon="21.929560"><ele>32.7</ele><time>2026-07-15T01:01:26Z</time></trkpt>
			<trkpt lat="55.074370" lon="21.928660"><ele>33.1</ele><time>2026-07-15T01:01:30Z</time></trkpt>
			<trkpt lat="55.074700" lon="21.927920"><ele>32.7</ele><time>2026-07-15T01:01:34Z</time></trkpt>
			<trkpt lat="55.075210" lon="21.926560"><ele>30.7</ele><time>2026-07-15T01:01:37Z</time></trkpt>
			<trkpt lat="55.075220" lon="21.926510"><ele>30.7</ele><time>2026-07-15T01:01:41Z</time></trkpt>
			<trkpt lat="55.075320" lon="21.926200"><ele>30.5</ele><time>2026-07-15T01:01:45Z</time></trkpt>
			<trkpt lat="55.075490" lon="21.925530"><ele>30.1</ele><time>2026-07-15T01:01:49Z</time></trkpt>
			<trkpt lat="55.075680" lon="21.924640"><ele>29.0</ele><time>2026-07-15T01:01:52Z</time></trkpt>
			<trkpt lat="55.075770" lon="21.924190"><ele>27.9</ele><time>2026-07-15T01:01:56Z</time></trkpt>
			<trkpt lat="55.076050" lon="21.922960"><ele>25.6</ele><time>2026-07-15T01:02:00Z</time></trkpt>
			<trkpt lat="55.076120" lon="21.922630"><ele>25.6</ele><time>2026-07-15T01:02:03Z</time></trkpt>
			<trkpt lat="55.076270" lon="21.922170"><ele>24.9</ele><time>2026-07-15T01:02:07Z</time></trkpt>
			<trkpt lat="55.076370" lon="21.921890"><ele>24.3</ele><time>2026-07-15T01:02:11Z</time></trkpt>
			<trkpt lat="55.076570" lon="21.921380"><ele>23.3</ele><time>2026-07-15T01:02:15Z</time></trkpt>
			<trkpt lat="55.076860" lon="21.920660"><ele>21.4</ele><time>2026-07-15T01:02:18Z</time></trkpt>
			<trkpt lat="55.076900" lon="21.920590"><ele>21.2</ele><time>2026-07-15T01:02:22Z</time></trkpt>
			<trkpt lat="55.077300" lon="21.919600"><ele>18.9</ele><time>2026-07-15T01:02:26Z</time></trkpt>
			<trkpt lat="55.077440" lon="21.919280"><ele>18.3</ele><time>2026-07-15T01:02:30Z</time></trkpt>
			<trkpt lat="55.077820" lon="21.918380"><ele>17.2</ele><time>2026-07-15T01:02:33Z</time></trkpt>
			<trkpt lat="55.078030" lon="21.917780"><ele>16.2</ele><time>2026-07-15T01:02:37Z</time></trkpt>
			<trkpt lat="55.078070" lon="21.917640"><ele>16.0</ele><time>2026-07-15T01:02:41Z</time></trkpt>
			<trkpt lat="55.078100" lon="21.917490"><ele>15.8</ele><time>2026-07-15T01:02:44Z</time></trkpt>
			<trkpt lat="55.078110" lon="21.917070"><ele>15.6</ele><time>2026-07-15T01:02:48Z</time></trkpt>
			<trkpt lat="55.078110" lon="21.916530"><ele>15.6</ele><time>2026-07-15T01:02:52Z</time></trkpt>
			<trkpt lat="55.078140" lon="21.915460"><ele>15.7</ele><time>2026-07-15T01:02:56Z</time></trkpt>
			<trkpt lat="55.078180" lon="21.915090"><ele>15.3</ele><time>2026-07-15T01:02:59Z</time></trkpt>
			<trkpt lat="55.078230" lon="21.914770"><ele>15.1</ele><time>2026-07-15T01:03:03Z</time></trkpt>
			<trkpt lat="55.078280" lon="21.914510"><ele>15.0</ele><time>2026-07-15T01:03:07Z</time></trkpt>
			<trkpt lat="55.078310" lon="21.914320"><ele>15.0</ele><time>2026-07-15T01:03:11Z</time></trkpt>
			<trkpt lat="55.078710" lon="21.912410"><ele>13.3</ele><time>2026-07-15T01:03:14Z</time></trkpt>
			<trkpt lat="55.078920" lon="21.911450"><ele>12.8</ele><time>2026-07-15T01:03:18Z</time></trkpt>
			<trkpt lat="55.078930" lon="21.911380"><ele>12.8</ele><time>2026-07-15T01:03:22Z</time></trkpt>
			<trkpt lat="55.079470" lon="21.908920"><ele>7.4</ele><time>2026-07-15T01:03:25Z</time></trkpt>
			<trkpt lat="55.079580" lon="21.908440"><ele>7.4</ele><time>2026-07-15T01:03:29Z</time></trkpt>
			<trkpt lat="55.079760" lon="21.907910"><ele>7.5</ele><time>2026-07-15T01:03:33Z</time></trkpt>
			<trkpt lat="55.079790" lon="21.907810"><ele>7.5</ele><time>2026-07-15T01:03:37Z</time></trkpt>
			<trkpt lat="55.079820" lon="21.907700"><ele>7.6</ele><time>2026-07-15T01:03:40Z</time></trkpt>
			<trkpt lat="55.080080" lon="21.907060"><ele>7.5</ele><time>2026-07-15T01:03:44Z</time></trkpt>
			<trkpt lat="55.080220" lon="21.906720"><ele>7.2</ele><time>2026-07-15T01:03:48Z</time></trkpt>
			<trkpt lat="55.080500" lon="21.906050"><ele>7.7</ele><time>2026-07-15T01:03:52Z</time></trkpt>
			<trkpt lat="55.080500" lon="21.906050"><ele>7.7</ele><time>2026-07-15T01:03:53Z</time></trkpt>
			<trkpt lat="55.080570" lon="21.905860"><ele>7.9</ele><time>2026-07-15T01:03:55Z</time></trkpt>
			<trkpt lat="55.080950" lon="21.905160"><ele>8.5</ele><time>2026-07-15T01:03:57Z</time></trkpt>
			<trkpt lat="55.081070" lon="21.905010"><ele>8.4</ele><time>2026-07-15T01:03:58Z</time></trkpt>
			<trkpt lat="55.081120" lon="21.904940"><ele>8.4</ele><time>2026-07-15T01:04:00Z</time></trkpt>
			<trkpt lat="55.081310" lon="21.904680"><ele>7.9</ele><time>2026-07-15T01:04:02Z</time></trkpt>
			<trkpt lat="55.081620" lon="21.904290"><ele>6.5</ele><time>2026-07-15T01:04:04Z</time></trkpt>
			<trkpt lat="55.082180" lon="21.903690"><ele>6.5</ele><time>2026-07-15T01:04:05Z</time></trkpt>
			<trkpt lat="55.081990" lon="21.903270"><ele>7.1</ele><time>2026-07-15T01:04:07Z</time></trkpt>
			<trkpt lat="55.081950" lon="21.903140"><ele>7.3</ele><time>2026-07-15T01:04:09Z</time></trkpt>
			<trkpt lat="55.081890" lon="21.903070"><ele>7.4</ele><time>2026-07-15T01:04:11Z</time></trkpt>
			<trkpt lat="55.081870" lon="21.902790"><ele>7.9</ele><time>2026-07-15T01:04:12Z</time></trkpt>
			<trkpt lat="55.081870" lon="21.902790"><ele>7.9</ele><time>2026-07-15T01:04:18Z</time></trkpt>
			<trkpt lat="55.081850" lon="21.902410"><ele>8.5</ele><time>2026-07-15T01:04:24Z</time></trkpt>
			<trkpt lat="55.081710" lon="21.900640"><ele>11.3</ele><time>2026-07-15T01:04:29Z</time></trkpt>
			<trkpt lat="55.081670" lon="21.900130"><ele>12.0</ele><time>2026-07-15T01:04:35Z</time></trkpt>
			<trkpt lat="55.081640" lon="21.899820"><ele>12.5</ele><time>2026-07-15T01:04:41Z</time></trkpt>
			<trkpt lat="55.081630" lon="21.899230"><ele>13.8</ele><time>2026-07-15T01:04:47Z</time></trkpt>
			<trkpt lat="55.081620" lon="21.898810"><ele>14.3</ele><time>2026-07-15T01:04:52Z</time></trkpt>
			<trkpt lat="55.081630" lon="21.897962"><ele>14.5</ele><time>2026-07-15T01:04:58Z</time></trkpt>
			<trkpt lat="55.081653" lon="21.896321"><ele>14.8</ele><time>2026-07-15T01:07:09Z</time></trkpt>
			<trkpt lat="55.081650" lon="21.895670"><ele>15.7</ele><time>2026-07-15T01:08:01Z</time></trkpt>
			<trkpt lat="55.081650" lon="21.895670"><ele>15.7</ele><time>2026-07-15T01:08:12Z</time></trkpt>
			<trkpt lat="55.081570" lon="21.893340"><ele>10.6</ele><time>2026-07-15T01:08:23Z</time></trkpt>
			<trkpt lat="55.081540" lon="21.893180"><ele>10.5</ele><time>2026-07-15T01:08:34Z</time></trkpt>
			<trkpt lat="55.081140" lon="21.889820"><ele>12.4</ele><time>2026-07-15T01:08:44Z</time></trkpt>
			<trkpt lat="55.081070" lon="21.889010"><ele>12.0</ele><time>2026-07-15T01:08:55Z</time></trkpt>
			<trkpt lat="55.081070" lon="21.888950"><ele>11.9</ele><time>2026-07-15T01:09:06Z</time></trkpt>
			<trkpt lat="55.080890" lon="21.888900"><ele>11.6</ele><time>2026-07-15T01:09:17Z</time></trkpt>
			<trkpt lat="55.080380" lon="21.888380"><ele>11.8</ele><time>2026-07-15T01:09:28Z</time></trkpt>
			<trkpt lat="55.080230" lon="21.888350"><ele>12.0</ele><time>2026-07-15T01:09:39Z</time></trkpt>
			<trkpt lat="55.079520" lon="21.887400"><ele>13.3</ele><time>2026-07-15T01:09:50Z</time></trkpt>
			<trkpt lat="55.079230" lon="21.887010"><ele>12.9</ele><time>2026-07-15T01:10:00Z</time></trkpt>
			<trkpt lat="55.079210" lon="21.886980"><ele>12.9</ele><time>2026-07-15T01:10:11Z</time></trkpt>
			<trkpt lat="55.079010" lon="21.886740"><ele>12.5</ele><time>2026-07-15T01:10:22Z</time></trkpt>
			<trkpt lat="55.078650" lon="21.886250"><ele>11.1</ele><time>2026-07-15T01:10:33Z</time></trkpt>
			<trkpt lat="55.078650" lon="21.886250"><ele>11.1</ele><time>2026-07-15T01:10:44Z</time></trkpt>
			<trkpt lat="55.078650" lon="21.886250"><ele>11.1</ele><time>2026-07-15T01:10:48Z</time></trkpt>
			<trkpt lat="55.078650" lon="21.886250"><ele>11.1</ele><time>2026-07-15T01:10:53Z</time></trkpt>
			<trkpt lat="55.078410" lon="21.885880"><ele>10.5</ele><time>2026-07-15T01:10:58Z</time></trkpt>
			<trkpt lat="55.078130" lon="21.885610"><ele>10.4</ele><time>2026-07-15T01:11:02Z</time></trkpt>
			<trkpt lat="55.078130" lon="21.885610"><ele>10.4</ele><time>2026-07-15T01:11:06Z</time></trkpt>
			<trkpt lat="55.077920" lon="21.885400"><ele>10.5</ele><time>2026-07-15T01:11:10Z</time></trkpt>
			<trkpt lat="55.077780" lon="21.885300"><ele>10.4</ele><time>2026-07-15T01:11:14Z</time></trkpt>
			<trkpt lat="55.077700" lon="21.885250"><ele>10.3</ele><time>2026-07-15T01:11:17Z</time></trkpt>
			<trkpt lat="55.077510" lon="21.885160"><ele>10.2</ele><time>2026-07-15T01:11:21Z</time></trkpt>
			<trkpt lat="55.077510" lon="21.885172"><ele>10.2</ele><time>2026-07-15T01:11:28Z</time></trkpt>
			<trkpt lat="55.077250" lon="21.885060"><ele>10.3</ele><time>2026-07-15T01:11:34Z</time></trkpt>
			<trkpt lat="55.076860" lon="21.884900"><ele>10.7</ele><time>2026-07-15T01:11:41Z</time></trkpt>
			<trkpt lat="55.075470" lon="21.884300"><ele>11.9</ele><time>2026-07-15T01:11:47Z</time></trkpt>
			<trkpt lat="55.074870" lon="21.884070"><ele>12.2</ele><time>2026-07-15T01:11:54Z</time></trkpt>
			<trkpt lat="55.074790" lon="21.884050"><ele>12.3</ele><time>2026-07-15T01:12:00Z</time></trkpt>
			<trkpt lat="55.074650" lon="21.883980"><ele>12.5</ele><time>2026-07-15T01:12:07Z</time></trkpt>
			<trkpt lat="55.073400" lon="21.883410"><ele>17.7</ele><time>2026-07-15T01:12:13Z</time></trkpt>
			<trkpt lat="55.073140" lon="21.883260"><ele>18.0</ele><time>2026-07-15T01:12:20Z</time></trkpt>
			<trkpt lat="55.072860" lon="21.883050"><ele>18.0</ele><time>2026-07-15T01:12:26Z</time></trkpt>
			<trkpt lat="55.072640" lon="21.882780"><ele>18.0</ele><time>2026-07-15T01:12:32Z</time></trkpt>
			<trkpt lat="55.071950" lon="21.881940"><ele>17.8</ele><time>2026-07-15T01:12:39Z</time></trkpt>
			<trkpt lat="55.071300" lon="21.881170"><ele>17.0</ele><time>2026-07-15T01:12:45Z</time></trkpt>
			<trkpt lat="55.071230" lon="21.881080"><ele>16.8</ele><time>2026-07-15T01:12:52Z</time></trkpt>
			<trkpt lat="55.070790" lon="21.880550"><ele>15.4</ele><time>2026-07-15T01:12:58Z</time></trkpt>
			<trkpt lat="55.070160" lon="21.879770"><ele>13.4</ele><time>2026-07-15T01:13:05Z</time></trkpt>
			<trkpt lat="55.069360" lon="21.878780"><ele>13.1</ele><time>2026-07-15T01:13:11Z</time></trkpt>
			<trkpt lat="55.068360" lon="21.877610"><ele>12.1</ele><time>2026-07-15T01:13:18Z</time></trkpt>
			<trkpt lat="55.066860" lon="21.876330"><ele>11.0</ele><time>2026-07-15T01:13:24Z</time></trkpt>
			<trkpt lat="55.065260" lon="21.874920"><ele>10.3</ele><time>2026-07-15T01:13:31Z</time></trkpt>
			<trkpt lat="55.064390" lon="21.874190"><ele>11.4</ele><time>2026-07-15T01:13:37Z</time></trkpt>
			<trkpt lat="55.063870" lon="21.873780"><ele>11.4</ele><time>2026-07-15T01:13:44Z</time></trkpt>
			<trkpt lat="55.063840" lon="21.873750"><ele>11.3</ele><time>2026-07-15T01:13:50Z</time></trkpt>
			<trkpt lat="55.063370" lon="21.873380"><ele>11.1</ele><time>2026-07-15T01:13:57Z</time></trkpt>
			<trkpt lat="55.061570" lon="21.871780"><ele>14.1</ele><time>2026-07-15T01:14:03Z</time></trkpt>
			<trkpt lat="55.060350" lon="21.870740"><ele>17.1</ele><time>2026-07-15T01:14:10Z</time></trkpt>
			<trkpt lat="55.059630" lon="21.870120"><ele>18.3</ele><time>2026-07-15T01:14:16Z</time></trkpt>
			<trkpt lat="55.058770" lon="21.869420"><ele>16.7</ele><time>2026-07-15T01:14:23Z</time></trkpt>
			<trkpt lat="55.055730" lon="21.866840"><ele>13.0</ele><time>2026-07-15T01:14:29Z</time></trkpt>
			<trkpt lat="55.055420" lon="21.866570"><ele>12.9</ele><time>2026-07-15T01:14:35Z</time></trkpt>
			<trkpt lat="55.054840" lon="21.866070"><ele>12.7</ele><time>2026-07-15T01:14:42Z</time></trkpt>
			<trkpt lat="55.054490" lon="21.865760"><ele>13.3</ele><time>2026-07-15T01:14:48Z</time></trkpt>
			<trkpt lat="55.054060" lon="21.865380"><ele>14.0</ele><time>2026-07-15T01:14:55Z</time></trkpt>
			<trkpt lat="55.052670" lon="21.864220"><ele>15.6</ele><time>2026-07-15T01:15:01Z</time></trkpt>
			<trkpt lat="55.052260" lon="21.863860"><ele>14.7</ele><time>2026-07-15T01:15:08Z</time></trkpt>
			<trkpt lat="55.051940" lon="21.863540"><ele>13.6</ele><time>2026-07-15T01:15:14Z</time></trkpt>
			<trkpt lat="55.050130" lon="21.861730"><ele>11.4</ele><time>2026-07-15T01:15:21Z</time></trkpt>
			<trkpt lat="55.049960" lon="21.861550"><ele>11.0</ele><time>2026-07-15T01:15:27Z</time></trkpt>
			<trkpt lat="55.048050" lon="21.859540"><ele>8.5</ele><time>2026-07-15T01:15:34Z</time></trkpt>
			<trkpt lat="55.047270" lon="21.858740"><ele>9.6</ele><time>2026-07-15T01:15:40Z</time></trkpt>
			<trkpt lat="55.046790" lon="21.858240"><ele>11.2</ele><time>2026-07-15T01:15:47Z</time></trkpt>
			<trkpt lat="55.046790" lon="21.858240"><ele>11.2</ele><time>2026-07-15T01:15:54Z</time></trkpt>
			<trkpt lat="55.046310" lon="21.857760"><ele>10.5</ele><time>2026-07-15T01:16:02Z</time></trkpt>
			<trkpt lat="55.046000" lon="21.857460"><ele>10.0</ele><time>2026-07-15T01:16:09Z</time></trkpt>
			<trkpt lat="55.045510" lon="21.856920"><ele>10.0</ele><time>2026-07-15T01:16:17Z</time></trkpt>
			<trkpt lat="55.043470" lon="21.854820"><ele>11.0</ele><time>2026-07-15T01:16:24Z</time></trkpt>
			<trkpt lat="55.041850" lon="21.853120"><ele>12.8</ele><time>2026-07-15T01:16:32Z</time></trkpt>
			<trkpt lat="55.040150" lon="21.851370"><ele>15.2</ele><time>2026-07-15T01:16:39Z</time></trkpt>
			<trkpt lat="55.036800" lon="21.847860"><ele>22.8</ele><time>2026-07-15T01:16:47Z</time></trkpt>
			<trkpt lat="55.032870" lon="21.843760"><ele>29.8</ele><time>2026-07-15T01:16:55Z</time></trkpt>
			<trkpt lat="55.032570" lon="21.843450"><ele>29.8</ele><time>2026-07-15T01:17:02Z</time></trkpt>
			<trkpt lat="55.032240" lon="21.843110"><ele>29.6</ele><time>2026-07-15T01:17:10Z</time></trkpt>
			<trkpt lat="55.030900" lon="21.841730"><ele>29.3</ele><time>2026-07-15T01:17:17Z</time></trkpt>
			<trkpt lat="55.029610" lon="21.840080"><ele>29.7</ele><time>2026-07-15T01:17:25Z</time></trkpt>
			<trkpt lat="55.028570" lon="21.838720"><ele>32.9</ele><time>2026-07-15T01:17:32Z</time></trkpt>
			<trkpt lat="55.027320" lon="21.837130"><ele>31.3</ele><time>2026-07-15T01:17:40Z</time></trkpt>
			<trkpt lat="55.026260" lon="21.835780"><ele>27.0</ele><time>2026-07-15T01:17:47Z</time></trkpt>
			<trkpt lat="55.026230" lon="21.835740"><ele>27.0</ele><time>2026-07-15T01:17:55Z</time></trkpt>
			<trkpt lat="55.025930" lon="21.835340"><ele>26.7</ele><time>2026-07-15T01:18:02Z</time></trkpt>
			<trkpt lat="55.023670" lon="21.832390"><ele>17.8</ele><time>2026-07-15T01:18:10Z</time></trkpt>
			<trkpt lat="55.020770" lon="21.828280"><ele>17.0</ele><time>2026-07-15T01:18:17Z</time></trkpt>
			<trkpt lat="55.020560" lon="21.827970"><ele>16.9</ele><time>2026-07-15T01:18:25Z</time></trkpt>
			<trkpt lat="55.020390" lon="21.827740"><ele>16.9</ele><time>2026-07-15T01:18:33Z</time></trkpt>
			<trkpt lat="55.020300" lon="21.827650"><ele>16.9</ele><time>2026-07-15T01:18:40Z</time></trkpt>
			<trkpt lat="55.020220" lon="21.827620"><ele>16.9</ele><time>2026-07-15T01:18:48Z</time></trkpt>
			<trkpt lat="55.020140" lon="21.827600"><ele>16.9</ele><time>2026-07-15T01:18:55Z</time></trkpt>
			<trkpt lat="55.020050" lon="21.827600"><ele>17.0</ele><time>2026-07-15T01:19:03Z</time></trkpt>
			<trkpt lat="55.019880" lon="21.827590"><ele>17.2</ele><time>2026-07-15T01:19:10Z</time></trkpt>
			<trkpt lat="55.019780" lon="21.827560"><ele>17.4</ele><time>2026-07-15T01:19:18Z</time></trkpt>
			<trkpt lat="55.019690" lon="21.827470"><ele>17.5</ele><time>2026-07-15T01:19:25Z</time></trkpt>
			<trkpt lat="55.019640" lon="21.827380"><ele>17.7</ele><time>2026-07-15T01:19:33Z</time></trkpt>
			<trkpt lat="55.019450" lon="21.827010"><ele>18.2</ele><time>2026-07-15T01:19:40Z</time></trkpt>
			<trkpt lat="55.018820" lon="21.825720"><ele>16.9</ele><time>2026-07-15T01:19:48Z</time></trkpt>
			<trkpt lat="55.018460" lon="21.825130"><ele>16.3</ele><time>2026-07-15T01:19:55Z</time></trkpt>
			<trkpt lat="55.018070" lon="21.824560"><ele>16.0</ele><time>2026-07-15T01:20:03Z</time></trkpt>
			<trkpt lat="55.017510" lon="21.823750"><ele>16.0</ele><time>2026-07-15T01:20:10Z</time></trkpt>
			<trkpt lat="55.016460" lon="21.822220"><ele>15.5</ele><time>2026-07-15T01:20:18Z</time></trkpt>
			<trkpt lat="55.013090" lon="21.817530"><ele>17.0</ele><time>2026-07-15T01:20:26Z</time></trkpt>
			<trkpt lat="55.007330" lon="21.809530"><ele>14.4</ele><time>2026-07-15T01:20:33Z</time></trkpt>
			<trkpt lat="55.003780" lon="21.804570"><ele>14.7</ele><time>2026-07-15T01:20:41Z</time></trkpt>
			<trkpt lat="55.003210" lon="21.803800"><ele>16.0</ele><time>2026-07-15T01:20:48Z</time></trkpt>
			<trkpt lat="55.002720" lon="21.803130"><ele>16.1</ele><time>2026-07-15T01:20:56Z</time></trkpt>
			<trkpt lat="55.002410" lon="21.802660"><ele>15.7</ele><time>2026-07-15T01:21:03Z</time></trkpt>
			<trkpt lat="55.002270" lon="21.802410"><ele>15.3</ele><time>2026-07-15T01:21:11Z</time></trkpt>
			<trkpt lat="55.001950" lon="21.801810"><ele>14.4</ele><time>2026-07-15T01:21:18Z</time></trkpt>
			<trkpt lat="55.001690" lon="21.801230"><ele>13.8</ele><time>2026-07-15T01:21:26Z</time></trkpt>
			<trkpt lat="55.001630" lon="21.801080"><ele>13.6</ele><time>2026-07-15T01:21:33Z</time></trkpt>
			<trkpt lat="55.001090" lon="21.799910"><ele>10.9</ele><time>2026-07-15T01:21:41Z</time></trkpt>
			<trkpt lat="55.000530" lon="21.798670"><ele>9.2</ele><time>2026-07-15T01:21:48Z</time></trkpt>
			<trkpt lat="55.000210" lon="21.797960"><ele>8.1</ele><time>2026-07-15T01:21:56Z</time></trkpt>
			<trkpt lat="55.000030" lon="21.797570"><ele>8.1</ele><time>2026-07-15T01:22:04Z</time></trkpt>
			<trkpt lat="54.999760" lon="21.796980"><ele>9.3</ele><time>2026-07-15T01:22:11Z</time></trkpt>
			<trkpt lat="54.997910" lon="21.792960"><ele>14.3</ele><time>2026-07-15T01:22:19Z</time></trkpt>
			<trkpt lat="54.996270" lon="21.789470"><ele>22.1</ele><time>2026-07-15T01:22:26Z</time></trkpt>
			<trkpt lat="54.995600" lon="21.787880"><ele>23.1</ele><time>2026-07-15T01:22:34Z</time></trkpt>
			<trkpt lat="54.995320" lon="21.787280"><ele>22.7</ele><time>2026-07-15T01:22:41Z</time></trkpt>
			<trkpt lat="54.995220" lon="21.787060"><ele>23.1</ele><time>2026-07-15T01:22:49Z</time></trkpt>
			<trkpt lat="54.993440" lon="21.783080"><ele>24.5</ele><time>2026-07-15T01:22:56Z</time></trkpt>
			<trkpt lat="54.992710" lon="21.781460"><ele>23.8</ele><time>2026-07-15T01:23:04Z</time></trkpt>
			<trkpt lat="54.992500" lon="21.781040"><ele>23.9</ele><time>2026-07-15T01:23:11Z</time></trkpt>
			<trkpt lat="54.992260" lon="21.780710"><ele>23.5</ele><time>2026-07-15T01:23:19Z</time></trkpt>
			<trkpt lat="54.987840" lon="21.775960"><ele>17.4</ele><time>2026-07-15T01:23:26Z</time></trkpt>
			<trkpt lat="54.986560" lon="21.774560"><ele>16.5</ele><time>2026-07-15T01:23:34Z</time></trkpt>
			<trkpt lat="54.985860" lon="21.773750"><ele>16.4</ele><time>2026-07-15T01:23:42Z</time></trkpt>
			<trkpt lat="54.986140" lon="21.772970"><ele>16.4</ele><time>2026-07-15T01:23:49Z</time></trkpt>
			<trkpt lat="54.986420" lon="21.772370"><ele>17.0</ele><time>2026-07-15T01:23:57Z</time></trkpt>
			<trkpt lat="54.986810" lon="21.771720"><ele>16.8</ele><time>2026-07-15T01:24:04Z</time></trkpt>
			<trkpt lat="54.987700" lon="21.770210"><ele>16.9</ele><time>2026-07-15T01:24:12Z</time></trkpt>
			<trkpt lat="54.988920" lon="21.768330"><ele>17.2</ele><time>2026-07-15T01:24:19Z</time></trkpt>
			<trkpt lat="54.991380" lon="21.764750"><ele>16.9</ele><time>2026-07-15T01:24:27Z</time></trkpt>
			<trkpt lat="54.997260" lon="21.756040"><ele>12.1</ele><time>2026-07-15T01:24:34Z</time></trkpt>
			<trkpt lat="54.998050" lon="21.754950"><ele>11.3</ele><time>2026-07-15T01:24:42Z</time></trkpt>
			<trkpt lat="54.999990" lon="21.752140"><ele>10.0</ele><time>2026-07-15T01:24:49Z</time></trkpt>
			<trkpt lat="55.000070" lon="21.752040"><ele>10.0</ele><time>2026-07-15T01:24:57Z</time></trkpt>
			<trkpt lat="55.000280" lon="21.751790"><ele>10.0</ele><time>2026-07-15T01:25:04Z</time></trkpt>
			<trkpt lat="55.000530" lon="21.751530"><ele>9.6</ele><time>2026-07-15T01:25:12Z</time></trkpt>
			<trkpt lat="55.002090" lon="21.750020"><ele>7.9</ele><time>2026-07-15T01:25:19Z</time></trkpt>
			<trkpt lat="55.002940" lon="21.749170"><ele>6.9</ele><time>2026-07-15T01:25:27Z</time></trkpt>
			<trkpt lat="55.004300" lon="21.747830"><ele>5.8</ele><time>2026-07-15T01:25:35Z</time></trkpt>
			<trkpt lat="55.007460" lon="21.744730"><ele>5.1</ele><time>2026-07-15T01:25:42Z</time></trkpt>
			<trkpt lat="55.008350" lon="21.740800"><ele>2.0</ele><time>2026-07-15T01:25:50Z</time></trkpt>
			<trkpt lat="55.008460" lon="21.740320"><ele>1.8</ele><time>2026-07-15T01:25:57Z</time></trkpt>
			<trkpt lat="55.008550" lon="21.739900"><ele>1.9</ele><time>2026-07-15T01:26:05Z</time></trkpt>
			<trkpt lat="55.008980" lon="21.738050"><ele>1.5</ele><time>2026-07-15T01:26:12Z</time></trkpt>
			<trkpt lat="55.010170" lon="21.733530"><ele>1.8</ele><time>2026-07-15T01:26:20Z</time></trkpt>
			<trkpt lat="55.010410" lon="21.732610"><ele>2.4</ele><time>2026-07-15T01:26:27Z</time></trkpt>
			<trkpt lat="55.010630" lon="21.731920"><ele>2.6</ele><time>2026-07-15T01:26:35Z</time></trkpt>
			<trkpt lat="55.011420" lon="21.730470"><ele>2.6</ele><time>2026-07-15T01:26:42Z</time></trkpt>
			<trkpt lat="55.013310" lon="21.727040"><ele>2.4</ele><time>2026-07-15T01:26:50Z</time></trkpt>
			<trkpt lat="55.013590" lon="21.726540"><ele>1.6</ele><time>2026-07-15T01:26:57Z</time></trkpt>
			<trkpt lat="55.013860" lon="21.726120"><ele>1.1</ele><time>2026-07-15T01:27:05Z</time></trkpt>
			<trkpt lat="55.016110" lon="21.723320"><ele>2.6</ele><time>2026-07-15T01:27:13Z</time></trkpt>
			<trkpt lat="55.016270" lon="21.723120"><ele>2.7</ele><time>2026-07-15T01:27:20Z</time></trkpt>
			<trkpt lat="55.016360" lon="21.722980"><ele>2.7</ele><time>2026-07-15T01:27:28Z</time></trkpt>
			<trkpt lat="55.016410" lon="21.722870"><ele>2.7</ele><time>2026-07-15T01:27:35Z</time></trkpt>
			<trkpt lat="55.016450" lon="21.722750"><ele>2.8</ele><time>2026-07-15T01:27:43Z</time></trkpt>
			<trkpt lat="55.016480" lon="21.722570"><ele>2.9</ele><time>2026-07-15T01:27:50Z</time></trkpt>
			<trkpt lat="55.016520" lon="21.722310"><ele>3.0</ele><time>2026-07-15T01:27:58Z</time></trkpt>
			<trkpt lat="55.016630" lon="21.721330"><ele>3.3</ele><time>2026-07-15T01:28:05Z</time></trkpt>
			<trkpt lat="55.016690" lon="21.721110"><ele>3.5</ele><time>2026-07-15T01:28:13Z</time></trkpt>
			<trkpt lat="55.016810" lon="21.720680"><ele>3.3</ele><time>2026-07-15T01:28:20Z</time></trkpt>
			<trkpt lat="55.017330" lon="21.719210"><ele>2.4</ele><time>2026-07-15T01:28:28Z</time></trkpt>
			<trkpt lat="55.019140" lon="21.714040"><ele>2.8</ele><time>2026-07-15T01:28:35Z</time></trkpt>
			<trkpt lat="55.019440" lon="21.713200"><ele>1.4</ele><time>2026-07-15T01:28:43Z</time></trkpt>
			<trkpt lat="55.019540" lon="21.712980"><ele>1.1</ele><time>2026-07-15T01:28:50Z</time></trkpt>
			<trkpt lat="55.019680" lon="21.712740"><ele>1.0</ele><time>2026-07-15T01:28:58Z</time></trkpt>
			<trkpt lat="55.019820" lon="21.712560"><ele>1.0</ele><time>2026-07-15T01:29:06Z</time></trkpt>
			<trkpt lat="55.019990" lon="21.712400"><ele>0.7</ele><time>2026-07-15T01:29:13Z</time></trkpt>
			<trkpt lat="55.020160" lon="21.712270"><ele>0.5</ele><time>2026-07-15T01:29:21Z</time></trkpt>
			<trkpt lat="55.020860" lon="21.711830"><ele>0.2</ele><time>2026-07-15T01:29:28Z</time></trkpt>
			<trkpt lat="55.021200" lon="21.711580"><ele>0.4</ele><time>2026-07-15T01:29:36Z</time></trkpt>
			<trkpt lat="55.023410" lon="21.709840"><ele>2.3</ele><time>2026-07-15T01:29:43Z</time></trkpt>
			<trkpt lat="55.024620" lon="21.708880"><ele>3.9</ele><time>2026-07-15T01:29:51Z</time></trkpt>
			<trkpt lat="55.024980" lon="21.708580"><ele>5.0</ele><time>2026-07-15T01:29:58Z</time></trkpt>
			<trkpt lat="55.025080" lon="21.708500"><ele>5.3</ele><time>2026-07-15T01:30:06Z</time></trkpt>
			<trkpt lat="55.028330" lon="21.705690"><ele>5.0</ele><time>2026-07-15T01:30:13Z</time></trkpt>
			<trkpt lat="55.031940" lon="21.702740"><ele>-0.7</ele><time>2026-07-15T01:30:21Z</time></trkpt>
			<trkpt lat="55.032150" lon="21.702550"><ele>-0.4</ele><time>2026-07-15T01:30:28Z</time></trkpt>
			<trkpt lat="55.032270" lon="21.702420"><ele>-0.3</ele><time>2026-07-15T01:30:36Z</time></trkpt>
			<trkpt lat="55.032410" lon="21.702240"><ele>-0.1</ele><time>2026-07-15T01:30:44Z</time></trkpt>
			<trkpt lat="55.032630" lon="21.701830"><ele>-0.2</ele><time>2026-07-15T01:30:51Z</time></trkpt>
			<trkpt lat="55.034030" lon="21.698880"><ele>-0.2</ele><time>2026-07-15T01:30:59Z</time></trkpt>
			<trkpt lat="55.034860" lon="21.697130"><ele>-1.1</ele><time>2026-07-15T01:31:06Z</time></trkpt>
			<trkpt lat="55.035960" lon="21.694490"><ele>-1.3</ele><time>2026-07-15T01:31:14Z</time></trkpt>
			<trkpt lat="55.036540" lon="21.693140"><ele>-2.0</ele><time>2026-07-15T01:31:21Z</time></trkpt>
			<trkpt lat="55.036650" lon="21.692900"><ele>-2.1</ele><time>2026-07-15T01:31:29Z</time></trkpt>
			<trkpt lat="55.036950" lon="21.692370"><ele>-2.3</ele><time>2026-07-15T01:31:36Z</time></trkpt>
			<trkpt lat="55.037130" lon="21.692110"><ele>-2.3</ele><time>2026-07-15T01:31:44Z</time></trkpt>
			<trkpt lat="55.038230" lon="21.690490"><ele>-0.7</ele><time>2026-07-15T01:31:51Z</time></trkpt>
			<trkpt lat="55.038640" lon="21.689900"><ele>-0.8</ele><time>2026-07-15T01:31:59Z</time></trkpt>
			<trkpt lat="55.039070" lon="21.689330"><ele>-1.8</ele><time>2026-07-15T01:32:06Z</time></trkpt>
			<trkpt lat="55.039210" lon="21.689160"><ele>-1.9</ele><time>2026-07-15T01:32:14Z</time></trkpt>
			<trkpt lat="55.040400" lon="21.687690"><ele>0.3</ele><time>2026-07-15T01:32:22Z</time></trkpt>
			<trkpt lat="55.040700" lon="21.687330"><ele>1.5</ele><time>2026-07-15T01:32:29Z</time></trkpt>
			<trkpt lat="55.040800" lon="21.687190"><ele>1.7</ele><time>2026-07-15T01:32:37Z</time></trkpt>
			<trkpt lat="55.041240" lon="21.686710"><ele>2.0</ele><time>2026-07-15T01:32:44Z</time></trkpt>
			<trkpt lat="55.042010" lon="21.686090"><ele>3.0</ele><time>2026-07-15T01:32:52Z</time></trkpt>
			<trkpt lat="55.042450" lon="21.685750"><ele>3.9</ele><time>2026-07-15T01:32:59Z</time></trkpt>
			<trkpt lat="55.043120" lon="21.685240"><ele>3.4</ele><time>2026-07-15T01:33:07Z</time></trkpt>
			<trkpt lat="55.044090" lon="21.684490"><ele>4.2</ele><time>2026-07-15T01:33:14Z</time></trkpt>
			<trkpt lat="55.045110" lon="21.683660"><ele>4.0</ele><time>2026-07-15T01:33:22Z</time></trkpt>
			<trkpt lat="55.045100" lon="21.683650"><ele>4.0</ele><time>2026-07-15T01:33:29Z</time></trkpt>
			<trkpt lat="55.042433" lon="21.676035"><ele>2.0</ele><time>2026-07-15T01:45:20Z</time></trkpt>
			<trkpt lat="55.040439" lon="21.669906"><ele>0.9</ele><time>2026-07-15T01:54:41Z</time></trkpt>
			<trkpt lat="55.040439" lon="21.669906"><ele>0.9</ele><time>2026-07-15T01:55:14Z</time></trkpt>
			<trkpt lat="55.040320" lon="21.669500"><ele>0.8</ele><time>2026-07-15T01:55:46Z</time></trkpt>
			<trkpt lat="55.040250" lon="21.669280"><ele>0.7</ele><time>2026-07-15T01:56:18Z</time></trkpt>
			<trkpt lat="55.040140" lon="21.668700"><ele>0.7</ele><time>2026-07-15T01:56:50Z</time></trkpt>
			<trkpt lat="55.040120" lon="21.668440"><ele>0.7</ele><time>2026-07-15T01:57:22Z</time></trkpt>
			<trkpt lat="55.040110" lon="21.667980"><ele>0.8</ele><time>2026-07-15T01:57:55Z</time></trkpt>
			<trkpt lat="55.040120" lon="21.667100"><ele>0.9</ele><time>2026-07-15T01:58:27Z</time></trkpt>
			<trkpt lat="55.040130" lon="21.666100"><ele>0.7</ele><time>2026-07-15T01:58:59Z</time></trkpt>
			<trkpt lat="55.040140" lon="21.665400"><ele>0.6</ele><time>2026-07-15T01:59:31Z</time></trkpt>
			<trkpt lat="55.040140" lon="21.663840"><ele>0.3</ele><time>2026-07-15T02:00:04Z</time></trkpt>
			<trkpt lat="55.040140" lon="21.663490"><ele>0.1</ele><time>2026-07-15T02:00:36Z</time></trkpt>
			<trkpt lat="55.040130" lon="21.662610"><ele>-0.7</ele><time>2026-07-15T02:01:08Z</time></trkpt>
			<trkpt lat="55.040100" lon="21.662040"><ele>-1.0</ele><time>2026-07-15T02:01:40Z</time></trkpt>
			<trkpt lat="55.040060" lon="21.660830"><ele>-1.1</ele><time>2026-07-15T02:02:12Z</time></trkpt>
			<trkpt lat="55.040050" lon="21.660500"><ele>-1.1</ele><time>2026-07-15T02:02:45Z</time></trkpt>
			<trkpt lat="55.040000" lon="21.659840"><ele>-1.0</ele><time>2026-07-15T02:03:17Z</time></trkpt>
			<trkpt lat="55.039920" lon="21.659460"><ele>-1.1</ele><time>2026-07-15T02:03:49Z</time></trkpt>
			<trkpt lat="55.039800" lon="21.659030"><ele>-1.4</ele><time>2026-07-15T02:04:21Z</time></trkpt>
			<trkpt lat="55.039390" lon="21.657620"><ele>-2.3</ele><time>2026-07-15T02:04:54Z</time></trkpt>
			<trkpt lat="55.039385" lon="21.657630"><ele>-2.3</ele><time>2026-07-15T02:04:59Z</time></trkpt>
			<trkpt lat="55.038890" lon="21.656020"><ele>-1.1</ele><time>2026-07-15T02:05:05Z</time></trkpt>
			<trkpt lat="55.036880" lon="21.649300"><ele>-2.5</ele><time>2026-07-15T02:05:11Z</time></trkpt>
			<trkpt lat="55.036760" lon="21.648920"><ele>-2.5</ele><time>2026-07-15T02:05:17Z</time></trkpt>
			<trkpt lat="55.036490" lon="21.648190"><ele>-2.9</ele><time>2026-07-15T02:05:22Z</time></trkpt>
			<trkpt lat="55.036220" lon="21.647600"><ele>-2.6</ele><time>2026-07-15T02:05:28Z</time></trkpt>
			<trkpt lat="55.035130" lon="21.645250"><ele>-1.3</ele><time>2026-07-15T02:05:34Z</time></trkpt>
			<trkpt lat="55.035040" lon="21.645060"><ele>-1.2</ele><time>2026-07-15T02:05:40Z</time></trkpt>
			<trkpt lat="55.033740" lon="21.642090"><ele>-0.3</ele><time>2026-07-15T02:05:45Z</time></trkpt>
			<trkpt lat="55.033430" lon="21.641340"><ele>-0.4</ele><time>2026-07-15T02:05:51Z</time></trkpt>
			<trkpt lat="55.033300" lon="21.641050"><ele>-0.4</ele><time>2026-07-15T02:05:57Z</time></trkpt>
			<trkpt lat="55.033130" lon="21.640690"><ele>0.0</ele><time>2026-07-15T02:06:03Z</time></trkpt>
			<trkpt lat="55.032620" lon="21.639830"><ele>0.8</ele><time>2026-07-15T02:06:08Z</time></trkpt>
			<trkpt lat="55.032440" lon="21.639490"><ele>0.7</ele><time>2026-07-15T02:06:14Z</time></trkpt>
			<trkpt lat="55.032310" lon="21.639210"><ele>0.9</ele><time>2026-07-15T02:06:20Z</time></trkpt>
			<trkpt lat="55.032120" lon="21.638740"><ele>2.2</ele><time>2026-07-15T02:06:26Z</time></trkpt>
			<trkpt lat="55.031870" lon="21.638130"><ele>3.8</ele><time>2026-07-15T02:06:31Z</time></trkpt>
			<trkpt lat="55.031320" lon="21.636740"><ele>4.0</ele><time>2026-07-15T02:06:37Z</time></trkpt>
			<trkpt lat="55.030980" lon="21.635810"><ele>1.3</ele><time>2026-07-15T02:06:43Z</time></trkpt>
			<trkpt lat="55.030250" lon="21.633930"><ele>0.4</ele><time>2026-07-15T02:06:49Z</time></trkpt>
			<trkpt lat="55.029600" lon="21.632330"><ele>0.6</ele><time>2026-07-15T02:06:54Z</time></trkpt>
			<trkpt lat="55.028670" lon="21.630280"><ele>2.5</ele><time>2026-07-15T02:07:00Z</time></trkpt>
			<trkpt lat="55.028370" lon="21.629620"><ele>2.0</ele><time>2026-07-15T02:07:06Z</time></trkpt>
			<trkpt lat="55.028080" lon="21.629060"><ele>2.6</ele><time>2026-07-15T02:07:12Z</time></trkpt>
			<trkpt lat="55.027910" lon="21.628820"><ele>3.3</ele><time>2026-07-15T02:07:17Z</time></trkpt>
			<trkpt lat="55.027490" lon="21.628320"><ele>4.8</ele><time>2026-07-15T02:07:23Z</time></trkpt>
			<trkpt lat="55.026920" lon="21.627620"><ele>6.6</ele><time>2026-07-15T02:07:29Z</time></trkpt>
			<trkpt lat="55.026270" lon="21.626750"><ele>9.4</ele><time>2026-07-15T02:07:35Z</time></trkpt>
			<trkpt lat="55.025780" lon="21.626260"><ele>10.0</ele><time>2026-07-15T02:07:40Z</time></trkpt>
			<trkpt lat="55.025440" lon="21.626140"><ele>9.7</ele><time>2026-07-15T02:07:46Z</time></trkpt>
			<trkpt lat="55.024790" lon="21.626030"><ele>9.0</ele><time>2026-07-15T02:07:52Z</time></trkpt>
			<trkpt lat="55.023880" lon="21.625840"><ele>11.3</ele><time>2026-07-15T02:07:58Z</time></trkpt>
			<trkpt lat="55.023550" lon="21.625760"><ele>13.0</ele><time>2026-07-15T02:08:03Z</time></trkpt>
			<trkpt lat="55.022580" lon="21.625510"><ele>16.6</ele><time>2026-07-15T02:08:09Z</time></trkpt>
			<trkpt lat="55.022280" lon="21.625500"><ele>17.1</ele><time>2026-07-15T02:08:15Z</time></trkpt>
			<trkpt lat="55.021710" lon="21.625430"><ele>17.1</ele><time>2026-07-15T02:08:21Z</time></trkpt>
			<trkpt lat="55.021400" lon="21.625330"><ele>16.6</ele><time>2026-07-15T02:08:26Z</time></trkpt>
			<trkpt lat="55.021100" lon="21.625070"><ele>15.2</ele><time>2026-07-15T02:08:32Z</time></trkpt>
			<trkpt lat="55.020770" lon="21.624580"><ele>12.4</ele><time>2026-07-15T02:08:38Z</time></trkpt>
			<trkpt lat="55.019580" lon="21.622780"><ele>13.1</ele><time>2026-07-15T02:08:44Z</time></trkpt>
			<trkpt lat="55.019040" lon="21.621900"><ele>11.9</ele><time>2026-07-15T02:08:49Z</time></trkpt>
			<trkpt lat="55.018290" lon="21.620600"><ele>8.5</ele><time>2026-07-15T02:08:55Z</time></trkpt>
			<trkpt lat="55.017970" lon="21.619980"><ele>7.9</ele><time>2026-07-15T02:09:01Z</time></trkpt>
			<trkpt lat="55.017640" lon="21.619350"><ele>8.8</ele><time>2026-07-15T02:09:07Z</time></trkpt>
			<trkpt lat="55.016590" lon="21.617450"><ele>17.3</ele><time>2026-07-15T02:09:12Z</time></trkpt>
			<trkpt lat="55.015760" lon="21.615880"><ele>19.1</ele><time>2026-07-15T02:09:18Z</time></trkpt>
			<trkpt lat="55.015020" lon="21.614260"><ele>19.1</ele><time>2026-07-15T02:09:24Z</time></trkpt>
			<trkpt lat="55.014290" lon="21.612820"><ele>17.3</ele><time>2026-07-15T02:09:30Z</time></trkpt>
			<trkpt lat="55.014160" lon="21.612410"><ele>16.9</ele><time>2026-07-15T02:09:35Z</time></trkpt>
			<trkpt lat="55.014140" lon="21.612200"><ele>16.7</ele><time>2026-07-15T02:09:41Z</time></trkpt>
			<trkpt lat="55.014050" lon="21.611310"><ele>16.2</ele><time>2026-07-15T02:09:47Z</time></trkpt>
			<trkpt lat="55.013740" lon="21.607530"><ele>8.8</ele><time>2026-07-15T02:09:53Z</time></trkpt>
			<trkpt lat="55.013470" lon="21.605310"><ele>4.4</ele><time>2026-07-15T02:09:58Z</time></trkpt>
			<trkpt lat="55.013190" lon="21.603010"><ele>2.0</ele><time>2026-07-15T02:10:04Z</time></trkpt>
			<trkpt lat="55.013070" lon="21.600750"><ele>-2.0</ele><time>2026-07-15T02:10:10Z</time></trkpt>
			<trkpt lat="55.013050" lon="21.600160"><ele>-2.0</ele><time>2026-07-15T02:10:16Z</time></trkpt>
			<trkpt lat="55.013060" lon="21.599570"><ele>-2.2</ele><time>2026-07-15T02:10:21Z</time></trkpt>
			<trkpt lat="55.013120" lon="21.598130"><ele>-1.9</ele><time>2026-07-15T02:10:27Z</time></trkpt>
			<trkpt lat="55.013110" lon="21.597860"><ele>-1.8</ele><time>2026-07-15T02:10:33Z</time></trkpt>
			<trkpt lat="55.013090" lon="21.597590"><ele>-1.5</ele><time>2026-07-15T02:10:39Z</time></trkpt>
			<trkpt lat="55.013000" lon="21.596660"><ele>-1.9</ele><time>2026-07-15T02:10:44Z</time></trkpt>
			<trkpt lat="55.012930" lon="21.595940"><ele>-1.6</ele><time>2026-07-15T02:10:50Z</time></trkpt>
			<trkpt lat="55.012940" lon="21.594750"><ele>-1.1</ele><time>2026-07-15T02:10:56Z</time></trkpt>
			<trkpt lat="55.012930" lon="21.594140"><ele>-1.0</ele><time>2026-07-15T02:11:02Z</time></trkpt>
			<trkpt lat="55.012820" lon="21.586540"><ele>-3.0</ele><time>2026-07-15T02:11:07Z</time></trkpt>
			<trkpt lat="55.012710" lon="21.582940"><ele>-3.0</ele><time>2026-07-15T02:11:13Z</time></trkpt>
			<trkpt lat="55.012640" lon="21.581580"><ele>-2.1</ele><time>2026-07-15T02:11:19Z</time></trkpt>
			<trkpt lat="55.012580" lon="21.580980"><ele>-1.9</ele><time>2026-07-15T02:11:25Z</time></trkpt>
			<trkpt lat="55.012530" lon="21.580230"><ele>-1.4</ele><time>2026-07-15T02:11:30Z</time></trkpt>
			<trkpt lat="55.012480" lon="21.579440"><ele>-1.0</ele><time>2026-07-15T02:11:36Z</time></trkpt>
			<trkpt lat="55.012500" lon="21.578680"><ele>-1.6</ele><time>2026-07-15T02:11:42Z</time></trkpt>
			<trkpt lat="55.012630" lon="21.576910"><ele>-1.4</ele><time>2026-07-15T02:11:48Z</time></trkpt>
			<trkpt lat="55.012750" lon="21.575100"><ele>-1.9</ele><time>2026-07-15T02:11:53Z</time></trkpt>
			<trkpt lat="55.012960" lon="21.571350"><ele>-1.4</ele><time>2026-07-15T02:11:59Z</time></trkpt>
			<trkpt lat="55.013030" lon="21.570350"><ele>-1.2</ele><time>2026-07-15T02:12:05Z</time></trkpt>
			<trkpt lat="55.013060" lon="21.569510"><ele>-0.8</ele><time>2026-07-15T02:12:11Z</time></trkpt>
			<trkpt lat="55.013080" lon="21.568280"><ele>-1.5</ele><time>2026-07-15T02:12:16Z</time></trkpt>
			<trkpt lat="55.013080" lon="21.567580"><ele>-1.6</ele><time>2026-07-15T02:12:22Z</time></trkpt>
			<trkpt lat="55.013030" lon="21.566880"><ele>-1.2</ele><time>2026-07-15T02:12:28Z</time></trkpt>
			<trkpt lat="55.013010" lon="21.566440"><ele>-0.9</ele><time>2026-07-15T02:12:34Z</time></trkpt>
			<trkpt lat="55.013000" lon="21.566400"><ele>-0.9</ele><time>2026-07-15T02:12:39Z</time></trkpt>
			<trkpt lat="55.012980" lon="21.566010"><ele>-0.7</ele><time>2026-07-15T02:12:45Z</time></trkpt>
			<trkpt lat="55.012950" lon="21.565680"><ele>-0.6</ele><time>2026-07-15T02:12:51Z</time></trkpt>
			<trkpt lat="55.012900" lon="21.565310"><ele>-0.5</ele><time>2026-07-15T02:12:57Z</time></trkpt>
			<trkpt lat="55.012860" lon="21.565140"><ele>-0.4</ele><time>2026-07-15T02:13:02Z</time></trkpt>
			<trkpt lat="55.012760" lon="21.564710"><ele>-0.1</ele><time>2026-07-15T02:13:08Z</time></trkpt>
			<trkpt lat="55.012000" lon="21.561680"><ele>-0.2</ele><time>2026-07-15T02:13:14Z</time></trkpt>
			<trkpt lat="55.011940" lon="21.561380"><ele>0.2</ele><time>2026-07-15T02:13:20Z</time></trkpt>
			<trkpt lat="55.011390" lon="21.561880"><ele>0.3</ele><time>2026-07-15T02:13:25Z</time></trkpt>
			<trkpt lat="55.011300" lon="21.562040"><ele>0.1</ele><time>2026-07-15T02:13:31Z</time></trkpt>
			<trkpt lat="55.009940" lon="21.563370"><ele>0.3</ele><time>2026-07-15T02:13:37Z</time></trkpt>
			<trkpt lat="55.008740" lon="21.564620"><ele>-1.5</ele><time>2026-07-15T02:13:43Z</time></trkpt>
			<trkpt lat="55.008420" lon="21.564960"><ele>-2.0</ele><time>2026-07-15T02:13:48Z</time></trkpt>
			<trkpt lat="55.008220" lon="21.565150"><ele>-2.2</ele><time>2026-07-15T02:13:54Z</time></trkpt>
			<trkpt lat="55.003890" lon="21.569350"><ele>-3.4</ele><time>2026-07-15T02:14:00Z</time></trkpt>
			<trkpt lat="55.003810" lon="21.569430"><ele>-3.4</ele><time>2026-07-15T02:14:06Z</time></trkpt>
			<trkpt lat="54.999790" lon="21.573440"><ele>-2.4</ele><time>2026-07-15T02:14:11Z</time></trkpt>
			<trkpt lat="54.999790" lon="21.573450"><ele>-2.4</ele><time>2026-07-15T02:14:22Z</time></trkpt>
			<trkpt lat="54.998150" lon="21.575080"><ele>-3.1</ele><time>2026-07-15T02:14:33Z</time></trkpt>
			<trkpt lat="54.997960" lon="21.575240"><ele>-3.1</ele><time>2026-07-15T02:14:43Z</time></trkpt>
			<trkpt lat="54.997860" lon="21.575280"><ele>-3.1</ele><time>2026-07-15T02:14:54Z</time></trkpt>
			<trkpt lat="54.997750" lon="21.575310"><ele>-3.1</ele><time>2026-07-15T02:15:05Z</time></trkpt>
			<trkpt lat="54.997460" lon="21.575260"><ele>-2.8</ele><time>2026-07-15T02:15:15Z</time></trkpt>
			<trkpt lat="54.989420" lon="21.573130"><ele>-1.9</ele><time>2026-07-15T02:15:26Z</time></trkpt>
			<trkpt lat="54.988710" lon="21.572950"><ele>-1.6</ele><time>2026-07-15T02:15:37Z</time></trkpt>
			<trkpt lat="54.988250" lon="21.572910"><ele>-0.9</ele><time>2026-07-15T02:15:47Z</time></trkpt>
			<trkpt lat="54.987500" lon="21.573070"><ele>-0.5</ele><time>2026-07-15T02:15:58Z</time></trkpt>
			<trkpt lat="54.984590" lon="21.573570"><ele>-3.0</ele><time>2026-07-15T02:16:09Z</time></trkpt>
			<trkpt lat="54.984210" lon="21.573710"><ele>-3.0</ele><time>2026-07-15T02:16:19Z</time></trkpt>
			<trkpt lat="54.983760" lon="21.574120"><ele>-2.5</ele><time>2026-07-15T02:16:30Z</time></trkpt>
			<trkpt lat="54.979250" lon="21.578780"><ele>-1.1</ele><time>2026-07-15T02:16:41Z</time></trkpt>
			<trkpt lat="54.976930" lon="21.581190"><ele>-2.4</ele><time>2026-07-15T02:16:51Z</time></trkpt>
			<trkpt lat="54.973600" lon="21.582820"><ele>-1.4</ele><time>2026-07-15T02:17:02Z</time></trkpt>
			<trkpt lat="54.973250" lon="21.583000"><ele>-1.3</ele><time>2026-07-15T02:17:13Z</time></trkpt>
			<trkpt lat="54.972800" lon="21.583240"><ele>-1.7</ele><time>2026-07-15T02:17:23Z</time></trkpt>
			<trkpt lat="54.971200" lon="21.584060"><ele>-1.5</ele><time>2026-07-15T02:17:34Z</time></trkpt>
			<trkpt lat="54.965230" lon="21.587060"><ele>-0.9</ele><time>2026-07-15T02:17:45Z</time></trkpt>
			<trkpt lat="54.964190" lon="21.587580"><ele>-0.1</ele><time>2026-07-15T02:17:55Z</time></trkpt>
			<trkpt lat="54.963650" lon="21.587880"><ele>-0.3</ele><time>2026-07-15T02:18:06Z</time></trkpt>
			<trkpt lat="54.963370" lon="21.588110"><ele>-0.3</ele><time>2026-07-15T02:18:17Z</time></trkpt>
			<trkpt lat="54.960490" lon="21.590820"><ele>0.3</ele><time>2026-07-15T02:18:27Z</time></trkpt>
			<trkpt lat="54.957180" lon="21.593810"><ele>2.5</ele><time>2026-07-15T02:18:38Z</time></trkpt>
			<trkpt lat="54.954340" lon="21.596370"><ele>4.5</ele><time>2026-07-15T02:18:49Z</time></trkpt>
			<trkpt lat="54.951930" lon="21.598560"><ele>13.2</ele><time>2026-07-15T02:18:59Z</time></trkpt>
			<trkpt lat="54.948040" lon="21.602110"><ele>5.5</ele><time>2026-07-15T02:19:10Z</time></trkpt>
			<trkpt lat="54.946200" lon="21.603790"><ele>9.7</ele><time>2026-07-15T02:19:21Z</time></trkpt>
			<trkpt lat="54.942050" lon="21.607580"><ele>4.2</ele><time>2026-07-15T02:19:31Z</time></trkpt>
			<trkpt lat="54.941680" lon="21.607830"><ele>1.5</ele><time>2026-07-15T02:19:42Z</time></trkpt>
			<trkpt lat="54.941310" lon="21.607950"><ele>0.3</ele><time>2026-07-15T02:19:53Z</time></trkpt>
			<trkpt lat="54.937850" lon="21.608240"><ele>-0.6</ele><time>2026-07-15T02:20:03Z</time></trkpt>
			<trkpt lat="54.930680" lon="21.608830"><ele>0.7</ele><time>2026-07-15T02:20:14Z</time></trkpt>
			<trkpt lat="54.923520" lon="21.609380"><ele>1.5</ele><time>2026-07-15T02:20:25Z</time></trkpt>
			<trkpt lat="54.922500" lon="21.609480"><ele>1.2</ele><time>2026-07-15T02:20:35Z</time></trkpt>
			<trkpt lat="54.922100" lon="21.609770"><ele>1.8</ele><time>2026-07-15T02:20:46Z</time></trkpt>
			<trkpt lat="54.920730" lon="21.611140"><ele>3.9</ele><time>2026-07-15T02:20:57Z</time></trkpt>
			<trkpt lat="54.919790" lon="21.612030"><ele>4.2</ele><time>2026-07-15T02:21:07Z</time></trkpt>
			<trkpt lat="54.919360" lon="21.612550"><ele>4.0</ele><time>2026-07-15T02:21:18Z</time></trkpt>
			<trkpt lat="54.918220" lon="21.614220"><ele>2.0</ele><time>2026-07-15T02:21:29Z</time></trkpt>
			<trkpt lat="54.917650" lon="21.615100"><ele>1.3</ele><time>2026-07-15T02:21:39Z</time></trkpt>
			<trkpt lat="54.917270" lon="21.615590"><ele>1.5</ele><time>2026-07-15T02:21:50Z</time></trkpt>
			<trkpt lat="54.916940" lon="21.615930"><ele>1.4</ele><time>2026-07-15T02:22:01Z</time></trkpt>
			<trkpt lat="54.915980" lon="21.616850"><ele>1.8</ele><time>2026-07-15T02:22:11Z</time></trkpt>
			<trkpt lat="54.915210" lon="21.617670"><ele>1.0</ele><time>2026-07-15T02:22:22Z</time></trkpt>
			<trkpt lat="54.914180" lon="21.618850"><ele>0.9</ele><time>2026-07-15T02:22:33Z</time></trkpt>
			<trkpt lat="54.908400" lon="21.625740"><ele>0.9</ele><time>2026-07-15T02:22:43Z</time></trkpt>
			<trkpt lat="54.905840" lon="21.628970"><ele>2.3</ele><time>2026-07-15T02:22:54Z</time></trkpt>
			<trkpt lat="54.904630" lon="21.630500"><ele>1.7</ele><time>2026-07-15T02:23:05Z</time></trkpt>
			<trkpt lat="54.901690" lon="21.633750"><ele>4.3</ele><time>2026-07-15T02:23:15Z</time></trkpt>
			<trkpt lat="54.900130" lon="21.636020"><ele>6.3</ele><time>2026-07-15T02:23:26Z</time></trkpt>
			<trkpt lat="54.897310" lon="21.640090"><ele>5.8</ele><time>2026-07-15T02:23:37Z</time></trkpt>
			<trkpt lat="54.896260" lon="21.641530"><ele>5.9</ele><time>2026-07-15T02:23:47Z</time></trkpt>
			<trkpt lat="54.893540" lon="21.644450"><ele>5.7</ele><time>2026-07-15T02:23:58Z</time></trkpt>
			<trkpt lat="54.891040" lon="21.647160"><ele>7.6</ele><time>2026-07-15T02:24:09Z</time></trkpt>
			<trkpt lat="54.890090" lon="21.648150"><ele>8.6</ele><time>2026-07-15T02:24:19Z</time></trkpt>
			<trkpt lat="54.889770" lon="21.648470"><ele>8.9</ele><time>2026-07-15T02:24:30Z</time></trkpt>
			<trkpt lat="54.889370" lon="21.648730"><ele>8.7</ele><time>2026-07-15T02:24:41Z</time></trkpt>
			<trkpt lat="54.889250" lon="21.648780"><ele>8.6</ele><time>2026-07-15T02:24:51Z</time></trkpt>
			<trkpt lat="54.888870" lon="21.648790"><ele>8.7</ele><time>2026-07-15T02:25:02Z</time></trkpt>
			<trkpt lat="54.888780" lon="21.648790"><ele>8.7</ele><time>2026-07-15T02:25:13Z</time></trkpt>
			<trkpt lat="54.888200" lon="21.648670"><ele>8.5</ele><time>2026-07-15T02:25:23Z</time></trkpt>
			<trkpt lat="54.887410" lon="21.648590"><ele>6.8</ele><time>2026-07-15T02:25:34Z</time></trkpt>
			<trkpt lat="54.884860" lon="21.648850"><ele>3.4</ele><time>2026-07-15T02:25:44Z</time></trkpt>
			<trkpt lat="54.884770" lon="21.648860"><ele>3.4</ele><time>2026-07-15T02:25:55Z</time></trkpt>
			<trkpt lat="54.884400" lon="21.648900"><ele>3.3</ele><time>2026-07-15T02:26:06Z</time></trkpt>
			<trkpt lat="54.883650" lon="21.648960"><ele>3.9</ele><time>2026-07-15T02:26:16Z</time></trkpt>
			<trkpt lat="54.882700" lon="21.649080"><ele>5.5</ele><time>2026-07-15T02:26:27Z</time></trkpt>
			<trkpt lat="54.881780" lon="21.649170"><ele>6.0</ele><time>2026-07-15T02:26:38Z</time></trkpt>
			<trkpt lat="54.879680" lon="21.649710"><ele>7.6</ele><time>2026-07-15T02:26:48Z</time></trkpt>
			<trkpt lat="54.878190" lon="21.650040"><ele>11.6</ele><time>2026-07-15T02:26:59Z</time></trkpt>
			<trkpt lat="54.877390" lon="21.650220"><ele>14.5</ele><time>2026-07-15T02:27:10Z</time></trkpt>
			<trkpt lat="54.876300" lon="21.650180"><ele>14.2</ele><time>2026-07-15T02:27:20Z</time></trkpt>
			<trkpt lat="54.876180" lon="21.650830"><ele>13.4</ele><time>2026-07-15T02:27:31Z</time></trkpt>
			<trkpt lat="54.876090" lon="21.651460"><ele>13.6</ele><time>2026-07-15T02:27:42Z</time></trkpt>
			<trkpt lat="54.876000" lon="21.652760"><ele>11.6</ele><time>2026-07-15T02:27:52Z</time></trkpt>
			<trkpt lat="54.875930" lon="21.653060"><ele>11.8</ele><time>2026-07-15T02:28:03Z</time></trkpt>
			<trkpt lat="54.875880" lon="21.653090"><ele>11.9</ele><time>2026-07-15T02:28:14Z</time></trkpt>
			<trkpt lat="54.875850" lon="21.653160"><ele>11.9</ele><time>2026-07-15T02:28:24Z</time></trkpt>
			<trkpt lat="54.875840" lon="21.653250"><ele>12.0</ele><time>2026-07-15T02:28:35Z</time></trkpt>
			<trkpt lat="54.875750" lon="21.653330"><ele>12.0</ele><time>2026-07-15T02:28:46Z</time></trkpt>
			<trkpt lat="54.875670" lon="21.653530"><ele>12.0</ele><time>2026-07-15T02:28:56Z</time></trkpt>
			<trkpt lat="54.874610" lon="21.656680"><ele>8.5</ele><time>2026-07-15T02:29:07Z</time></trkpt>
			<trkpt lat="54.874090" lon="21.658310"><ele>7.5</ele><time>2026-07-15T02:29:18Z</time></trkpt>
			<trkpt lat="54.874020" lon="21.658470"><ele>7.2</ele><time>2026-07-15T02:29:28Z</time></trkpt>
			<trkpt lat="54.873840" lon="21.658890"><ele>6.6</ele><time>2026-07-15T02:29:39Z</time></trkpt>
			<trkpt lat="54.870240" lon="21.665770"><ele>7.0</ele><time>2026-07-15T02:29:50Z</time></trkpt>
			<trkpt lat="54.870010" lon="21.666320"><ele>7.1</ele><time>2026-07-15T02:30:00Z</time></trkpt>
			<trkpt lat="54.869840" lon="21.666830"><ele>6.6</ele><time>2026-07-15T02:30:11Z</time></trkpt>
			<trkpt lat="54.868590" lon="21.670940"><ele>5.7</ele><time>2026-07-15T02:30:22Z</time></trkpt>
			<trkpt lat="54.868390" lon="21.671470"><ele>5.9</ele><time>2026-07-15T02:30:32Z</time></trkpt>
			<trkpt lat="54.868180" lon="21.671890"><ele>6.4</ele><time>2026-07-15T02:30:43Z</time></trkpt>
			<trkpt lat="54.865220" lon="21.676970"><ele>6.2</ele><time>2026-07-15T02:30:54Z</time></trkpt>
			<trkpt lat="54.862260" lon="21.682070"><ele>9.3</ele><time>2026-07-15T02:31:04Z</time></trkpt>
			<trkpt lat="54.859850" lon="21.686770"><ele>8.7</ele><time>2026-07-15T02:31:15Z</time></trkpt>
			<trkpt lat="54.858090" lon="21.690130"><ele>10.4</ele><time>2026-07-15T02:31:26Z</time></trkpt>
			<trkpt lat="54.857530" lon="21.691290"><ele>12.2</ele><time>2026-07-15T02:31:36Z</time></trkpt>
			<trkpt lat="54.854190" lon="21.698470"><ele>12.5</ele><time>2026-07-15T02:31:47Z</time></trkpt>
			<trkpt lat="54.853180" lon="21.700710"><ele>12.0</ele><time>2026-07-15T02:31:58Z</time></trkpt>
			<trkpt lat="54.852290" lon="21.702660"><ele>12.3</ele><time>2026-07-15T02:32:08Z</time></trkpt>
			<trkpt lat="54.851620" lon="21.704200"><ele>13.9</ele><time>2026-07-15T02:32:19Z</time></trkpt>
			<trkpt lat="54.850950" lon="21.705660"><ele>13.9</ele><time>2026-07-15T02:32:30Z</time></trkpt>
			<trkpt lat="54.849940" lon="21.707870"><ele>21.7</ele><time>2026-07-15T02:32:40Z</time></trkpt>
			<trkpt lat="54.849900" lon="21.707950"><ele>22.0</ele><time>2026-07-15T02:32:51Z</time></trkpt>
			<trkpt lat="54.848120" lon="21.712170"><ele>23.5</ele><time>2026-07-15T02:33:02Z</time></trkpt>
			<trkpt lat="54.847720" lon="21.713130"><ele>23.7</ele><time>2026-07-15T02:33:12Z</time></trkpt>
			<trkpt lat="54.846220" lon="21.716620"><ele>20.6</ele><time>2026-07-15T02:33:23Z</time></trkpt>
			<trkpt lat="54.845720" lon="21.717820"><ele>19.7</ele><time>2026-07-15T02:33:34Z</time></trkpt>
			<trkpt lat="54.844800" lon="21.720060"><ele>20.6</ele><time>2026-07-15T02:33:44Z</time></trkpt>
			<trkpt lat="54.844600" lon="21.720510"><ele>20.3</ele><time>2026-07-15T02:33:55Z</time></trkpt>
			<trkpt lat="54.844360" lon="21.720950"><ele>20.4</ele><time>2026-07-15T02:34:06Z</time></trkpt>
			<trkpt lat="54.843970" lon="21.721590"><ele>20.8</ele><time>2026-07-15T02:34:16Z</time></trkpt>
			<trkpt lat="54.838540" lon="21.729710"><ele>26.2</ele><time>2026-07-15T02:34:27Z</time></trkpt>
			<trkpt lat="54.837950" lon="21.730770"><ele>26.1</ele><time>2026-07-15T02:34:38Z</time></trkpt>
			<trkpt lat="54.836950" lon="21.732990"><ele>26.0</ele><time>2026-07-15T02:34:48Z</time></trkpt>
			<trkpt lat="54.834250" lon="21.738980"><ele>26.9</ele><time>2026-07-15T02:34:59Z</time></trkpt>
			<trkpt lat="54.831010" lon="21.745920"><ele>31.5</ele><time>2026-07-15T02:35:10Z</time></trkpt>
			<trkpt lat="54.830530" lon="21.746530"><ele>31.1</ele><time>2026-07-15T02:35:20Z</time></trkpt>
			<trkpt lat="54.828310" lon="21.749450"><ele>28.3</ele><time>2026-07-15T02:35:31Z</time></trkpt>
			<trkpt lat="54.828280" lon="21.749490"><ele>28.4</ele><time>2026-07-15T02:35:42Z</time></trkpt>
			<trkpt lat="54.826400" lon="21.752080"><ele>27.8</ele><time>2026-07-15T02:35:52Z</time></trkpt>
			<trkpt lat="54.821290" lon="21.758630"><ele>28.3</ele><time>2026-07-15T02:36:03Z</time></trkpt>
			<trkpt lat="54.817690" lon="21.763000"><ele>29.4</ele><time>2026-07-15T02:36:14Z</time></trkpt>
			<trkpt lat="54.815970" lon="21.764200"><ele>29.4</ele><time>2026-07-15T02:36:24Z</time></trkpt>
			<trkpt lat="54.813680" lon="21.765720"><ele>30.7</ele><time>2026-07-15T02:36:35Z</time></trkpt>
			<trkpt lat="54.812950" lon="21.766240"><ele>28.8</ele><time>2026-07-15T02:36:46Z</time></trkpt>
			<trkpt lat="54.812690" lon="21.766540"><ele>28.8</ele><time>2026-07-15T02:36:56Z</time></trkpt>
			<trkpt lat="54.811050" lon="21.768580"><ele>31.9</ele><time>2026-07-15T02:37:07Z</time></trkpt>
			<trkpt lat="54.809260" lon="21.770900"><ele>34.0</ele><time>2026-07-15T02:37:18Z</time></trkpt>
			<trkpt lat="54.808150" lon="21.772300"><ele>33.1</ele><time>2026-07-15T02:37:28Z</time></trkpt>
			<trkpt lat="54.806980" lon="21.773750"><ele>33.5</ele><time>2026-07-15T02:37:39Z</time></trkpt>
			<trkpt lat="54.806360" lon="21.774580"><ele>34.6</ele><time>2026-07-15T02:37:50Z</time></trkpt>
			<trkpt lat="54.806150" lon="21.774930"><ele>35.2</ele><time>2026-07-15T02:38:00Z</time></trkpt>
			<trkpt lat="54.805270" lon="21.776550"><ele>38.8</ele><time>2026-07-15T02:38:11Z</time></trkpt>
			<trkpt lat="54.804910" lon="21.777170"><ele>38.3</ele><time>2026-07-15T02:38:22Z</time></trkpt>
			<trkpt lat="54.804660" lon="21.777530"><ele>36.2</ele><time>2026-07-15T02:38:32Z</time></trkpt>
			<trkpt lat="54.804430" lon="21.777820"><ele>34.4</ele><time>2026-07-15T02:38:43Z</time></trkpt>
			<trkpt lat="54.803650" lon="21.778660"><ele>31.8</ele><time>2026-07-15T02:38:54Z</time></trkpt>
			<trkpt lat="54.803540" lon="21.778760"><ele>31.7</ele><time>2026-07-15T02:39:04Z</time></trkpt>
			<trkpt lat="54.803040" lon="21.779270"><ele>32.8</ele><time>2026-07-15T02:39:15Z</time></trkpt>
			<trkpt lat="54.802770" lon="21.779570"><ele>33.7</ele><time>2026-07-15T02:39:26Z</time></trkpt>
			<trkpt lat="54.801820" lon="21.780550"><ele>35.3</ele><time>2026-07-15T02:39:36Z</time></trkpt>
			<trkpt lat="54.801550" lon="21.780740"><ele>35.8</ele><time>2026-07-15T02:39:47Z</time></trkpt>
			<trkpt lat="54.801090" lon="21.781040"><ele>35.5</ele><time>2026-07-15T02:39:58Z</time></trkpt>
			<trkpt lat="54.800610" lon="21.781190"><ele>35.0</ele><time>2026-07-15T02:40:08Z</time></trkpt>
			<trkpt lat="54.799110" lon="21.781460"><ele>33.1</ele><time>2026-07-15T02:40:19Z</time></trkpt>
			<trkpt lat="54.796480" lon="21.781950"><ele>28.7</ele><time>2026-07-15T02:40:30Z</time></trkpt>
			<trkpt lat="54.796000" lon="21.782120"><ele>28.9</ele><time>2026-07-15T02:40:40Z</time></trkpt>
			<trkpt lat="54.789100" lon="21.785240"><ele>31.9</ele><time>2026-07-15T02:40:51Z</time></trkpt>
			<trkpt lat="54.786930" lon="21.786160"><ele>31.4</ele><time>2026-07-15T02:41:02Z</time></trkpt>
			<trkpt lat="54.786840" lon="21.786210"><ele>31.3</ele><time>2026-07-15T02:41:12Z</time></trkpt>
			<trkpt lat="54.784750" lon="21.787160"><ele>31.5</ele><time>2026-07-15T02:41:23Z</time></trkpt>
			<trkpt lat="54.779890" lon="21.789330"><ele>35.5</ele><time>2026-07-15T02:41:34Z</time></trkpt>
			<trkpt lat="54.776520" lon="21.790820"><ele>37.9</ele><time>2026-07-15T02:41:44Z</time></trkpt>
			<trkpt lat="54.774870" lon="21.791570"><ele>38.7</ele><time>2026-07-15T02:41:55Z</time></trkpt>
			<trkpt lat="54.774870" lon="21.791570"><ele>38.7</ele><time>2026-07-15T02:42:03Z</time></trkpt>
			<trkpt lat="54.773040" lon="21.792400"><ele>41.5</ele><time>2026-07-15T02:42:11Z</time></trkpt>
			<trkpt lat="54.767380" lon="21.794920"><ele>39.7</ele><time>2026-07-15T02:42:19Z</time></trkpt>
			<trkpt lat="54.766690" lon="21.795070"><ele>38.8</ele><time>2026-07-15T02:42:27Z</time></trkpt>
			<trkpt lat="54.766310" lon="21.795180"><ele>37.8</ele><time>2026-07-15T02:42:36Z</time></trkpt>
			<trkpt lat="54.765880" lon="21.795260"><ele>36.8</ele><time>2026-07-15T02:42:44Z</time></trkpt>
			<trkpt lat="54.765570" lon="21.795180"><ele>36.2</ele><time>2026-07-15T02:42:52Z</time></trkpt>
			<trkpt lat="54.764830" lon="21.794840"><ele>35.2</ele><time>2026-07-15T02:43:00Z</time></trkpt>
			<trkpt lat="54.764500" lon="21.794690"><ele>35.6</ele><time>2026-07-15T02:43:08Z</time></trkpt>
			<trkpt lat="54.764010" lon="21.794410"><ele>36.6</ele><time>2026-07-15T02:43:16Z</time></trkpt>
			<trkpt lat="54.762930" lon="21.793580"><ele>38.6</ele><time>2026-07-15T02:43:24Z</time></trkpt>
			<trkpt lat="54.761140" lon="21.792650"><ele>40.3</ele><time>2026-07-15T02:43:32Z</time></trkpt>
			<trkpt lat="54.758230" lon="21.790970"><ele>40.3</ele><time>2026-07-15T02:43:41Z</time></trkpt>
			<trkpt lat="54.756170" lon="21.789870"><ele>39.3</ele><time>2026-07-15T02:43:49Z</time></trkpt>
			<trkpt lat="54.755530" lon="21.789610"><ele>38.7</ele><time>2026-07-15T02:43:57Z</time></trkpt>
			<trkpt lat="54.755060" lon="21.789420"><ele>38.2</ele><time>2026-07-15T02:44:05Z</time></trkpt>
			<trkpt lat="54.753910" lon="21.789180"><ele>41.0</ele><time>2026-07-15T02:44:13Z</time></trkpt>
			<trkpt lat="54.753370" lon="21.789030"><ele>40.7</ele><time>2026-07-15T02:44:21Z</time></trkpt>
			<trkpt lat="54.752250" lon="21.788710"><ele>38.7</ele><time>2026-07-15T02:44:29Z</time></trkpt>
			<trkpt lat="54.751340" lon="21.788440"><ele>36.9</ele><time>2026-07-15T02:44:37Z</time></trkpt>
			<trkpt lat="54.751110" lon="21.788370"><ele>36.9</ele><time>2026-07-15T02:44:45Z</time></trkpt>
			<trkpt lat="54.750580" lon="21.788330"><ele>36.4</ele><time>2026-07-15T02:44:54Z</time></trkpt>
			<trkpt lat="54.749950" lon="21.788430"><ele>35.1</ele><time>2026-07-15T02:45:02Z</time></trkpt>
			<trkpt lat="54.749690" lon="21.788470"><ele>34.9</ele><time>2026-07-15T02:45:10Z</time></trkpt>
			<trkpt lat="54.748500" lon="21.788630"><ele>33.4</ele><time>2026-07-15T02:45:18Z</time></trkpt>
			<trkpt lat="54.747920" lon="21.788720"><ele>33.4</ele><time>2026-07-15T02:45:26Z</time></trkpt>
			<trkpt lat="54.742920" lon="21.789610"><ele>35.5</ele><time>2026-07-15T02:45:34Z</time></trkpt>
			<trkpt lat="54.740740" lon="21.789850"><ele>35.0</ele><time>2026-07-15T02:45:42Z</time></trkpt>
			<trkpt lat="54.736300" lon="21.790350"><ele>36.9</ele><time>2026-07-15T02:45:50Z</time></trkpt>
			<trkpt lat="54.733460" lon="21.790320"><ele>37.1</ele><time>2026-07-15T02:45:59Z</time></trkpt>
			<trkpt lat="54.729570" lon="21.789820"><ele>36.8</ele><time>2026-07-15T02:46:07Z</time></trkpt>
			<trkpt lat="54.728600" lon="21.789530"><ele>36.4</ele><time>2026-07-15T02:46:15Z</time></trkpt>
			<trkpt lat="54.725150" lon="21.787560"><ele>34.4</ele><time>2026-07-15T02:46:23Z</time></trkpt>
			<trkpt lat="54.722900" lon="21.785820"><ele>35.4</ele><time>2026-07-15T02:46:31Z</time></trkpt>
			<trkpt lat="54.722400" lon="21.785550"><ele>35.1</ele><time>2026-07-15T02:46:39Z</time></trkpt>
			<trkpt lat="54.721680" lon="21.785680"><ele>35.4</ele><time>2026-07-15T02:46:47Z</time></trkpt>
			<trkpt lat="54.715440" lon="21.788350"><ele>35.5</ele><time>2026-07-15T02:46:55Z</time></trkpt>
			<trkpt lat="54.706980" lon="21.792250"><ele>31.9</ele><time>2026-07-15T02:47:04Z</time></trkpt>
			<trkpt lat="54.706420" lon="21.792320"><ele>32.3</ele><time>2026-07-15T02:47:12Z</time></trkpt>
			<trkpt lat="54.698410" lon="21.790340"><ele>32.1</ele><time>2026-07-15T02:47:20Z</time></trkpt>
			<trkpt lat="54.693300" lon="21.789170"><ele>31.1</ele><time>2026-07-15T02:47:28Z</time></trkpt>
			<trkpt lat="54.693000" lon="21.789300"><ele>30.9</ele><time>2026-07-15T02:47:36Z</time></trkpt>
			<trkpt lat="54.689970" lon="21.792760"><ele>28.4</ele><time>2026-07-15T02:47:44Z</time></trkpt>
			<trkpt lat="54.688520" lon="21.794270"><ele>30.8</ele><time>2026-07-15T02:47:52Z</time></trkpt>
			<trkpt lat="54.686260" lon="21.796590"><ele>32.3</ele><time>2026-07-15T02:48:00Z</time></trkpt>
			<trkpt lat="54.686040" lon="21.796830"><ele>32.2</ele><time>2026-07-15T02:48:09Z</time></trkpt>
			<trkpt lat="54.682520" lon="21.796730"><ele>28.2</ele><time>2026-07-15T02:48:17Z</time></trkpt>
			<trkpt lat="54.677940" lon="21.799190"><ele>25.4</ele><time>2026-07-15T02:48:25Z</time></trkpt>
			<trkpt lat="54.670710" lon="21.802950"><ele>21.4</ele><time>2026-07-15T02:48:33Z</time></trkpt>
			<trkpt lat="54.668600" lon="21.804000"><ele>25.3</ele><time>2026-07-15T02:48:41Z</time></trkpt>
			<trkpt lat="54.668170" lon="21.804130"><ele>26.4</ele><time>2026-07-15T02:48:49Z</time></trkpt>
			<trkpt lat="54.666880" lon="21.803820"><ele>29.6</ele><time>2026-07-15T02:48:57Z</time></trkpt>
			<trkpt lat="54.664430" lon="21.803280"><ele>28.6</ele><time>2026-07-15T02:49:05Z</time></trkpt>
			<trkpt lat="54.663150" lon="21.802990"><ele>30.7</ele><time>2026-07-15T02:49:13Z</time></trkpt>
			<trkpt lat="54.662920" lon="21.802940"><ele>30.5</ele><time>2026-07-15T02:49:22Z</time></trkpt>
			<trkpt lat="54.662500" lon="21.802840"><ele>30.2</ele><time>2026-07-15T02:49:30Z</time></trkpt>
			<trkpt lat="54.661940" lon="21.802820"><ele>30.7</ele><time>2026-07-15T02:49:38Z</time></trkpt>
			<trkpt lat="54.661730" lon="21.802990"><ele>30.7</ele><time>2026-07-15T02:49:46Z</time></trkpt>
			<trkpt lat="54.661500" lon="21.803180"><ele>30.2</ele><time>2026-07-15T02:49:54Z</time></trkpt>
			<trkpt lat="54.660620" lon="21.805130"><ele>26.1</ele><time>2026-07-15T02:50:02Z</time></trkpt>
			<trkpt lat="54.660530" lon="21.805320"><ele>25.7</ele><time>2026-07-15T02:50:10Z</time></trkpt>
			<trkpt lat="54.660290" lon="21.805920"><ele>22.9</ele><time>2026-07-15T02:50:18Z</time></trkpt>
			<trkpt lat="54.660230" lon="21.806300"><ele>20.7</ele><time>2026-07-15T02:50:27Z</time></trkpt>
			<trkpt lat="54.660180" lon="21.806690"><ele>19.2</ele><time>2026-07-15T02:50:35Z</time></trkpt>
			<trkpt lat="54.659930" lon="21.806390"><ele>18.3</ele><time>2026-07-15T02:50:43Z</time></trkpt>
			<trkpt lat="54.659420" lon="21.805860"><ele>18.0</ele><time>2026-07-15T02:50:51Z</time></trkpt>
			<trkpt lat="54.659140" lon="21.805510"><ele>18.1</ele><time>2026-07-15T02:50:59Z</time></trkpt>
			<trkpt lat="54.658850" lon="21.805040"><ele>18.0</ele><time>2026-07-15T02:51:07Z</time></trkpt>
			<trkpt lat="54.658490" lon="21.804420"><ele>17.5</ele><time>2026-07-15T02:51:15Z</time></trkpt>
			<trkpt lat="54.658320" lon="21.804110"><ele>17.5</ele><time>2026-07-15T02:51:23Z</time></trkpt>
			<trkpt lat="54.658170" lon="21.803780"><ele>18.3</ele><time>2026-07-15T02:51:32Z</time></trkpt>
			<trkpt lat="54.657960" lon="21.803280"><ele>19.2</ele><time>2026-07-15T02:51:40Z</time></trkpt>
			<trkpt lat="54.657420" lon="21.801770"><ele>21.7</ele><time>2026-07-15T02:51:48Z</time></trkpt>
			<trkpt lat="54.657240" lon="21.801280"><ele>21.5</ele><time>2026-07-15T02:51:56Z</time></trkpt>
			<trkpt lat="54.657120" lon="21.801030"><ele>21.1</ele><time>2026-07-15T02:52:04Z</time></trkpt>
			<trkpt lat="54.656420" lon="21.799710"><ele>20.2</ele><time>2026-07-15T02:52:12Z</time></trkpt>
			<trkpt lat="54.656200" lon="21.799270"><ele>18.7</ele><time>2026-07-15T02:52:20Z</time></trkpt>
			<trkpt lat="54.656040" lon="21.798870"><ele>18.6</ele><time>2026-07-15T02:52:28Z</time></trkpt>
			<trkpt lat="54.655930" lon="21.798460"><ele>19.1</ele><time>2026-07-15T02:52:36Z</time></trkpt>
			<trkpt lat="54.655390" lon="21.796140"><ele>13.4</ele><time>2026-07-15T02:52:45Z</time></trkpt>
			<trkpt lat="54.655290" lon="21.795700"><ele>13.0</ele><time>2026-07-15T02:52:53Z</time></trkpt>
			<trkpt lat="54.654860" lon="21.793890"><ele>13.4</ele><time>2026-07-15T02:53:01Z</time></trkpt>
			<trkpt lat="54.654780" lon="21.793710"><ele>13.7</ele><time>2026-07-15T02:53:09Z</time></trkpt>
			<trkpt lat="54.654350" lon="21.792670"><ele>14.2</ele><time>2026-07-15T02:53:17Z</time></trkpt>
			<trkpt lat="54.653900" lon="21.791690"><ele>12.9</ele><time>2026-07-15T02:53:25Z</time></trkpt>
			<trkpt lat="54.652830" lon="21.789360"><ele>12.4</ele><time>2026-07-15T02:53:33Z</time></trkpt>
			<trkpt lat="54.652050" lon="21.787700"><ele>14.8</ele><time>2026-07-15T02:53:41Z</time></trkpt>
			<trkpt lat="54.651740" lon="21.787040"><ele>14.0</ele><time>2026-07-15T02:53:50Z</time></trkpt>
			<trkpt lat="54.651340" lon="21.786390"><ele>13.5</ele><time>2026-07-15T02:53:58Z</time></trkpt>
			<trkpt lat="54.650340" lon="21.782450"><ele>13.5</ele><time>2026-07-15T02:54:06Z</time></trkpt>
			<trkpt lat="54.649660" lon="21.779610"><ele>13.8</ele><time>2026-07-15T02:54:14Z</time></trkpt>
			<trkpt lat="54.649250" lon="21.776770"><ele>19.4</ele><time>2026-07-15T02:54:22Z</time></trkpt>
			<trkpt lat="54.649070" lon="21.775810"><ele>19.3</ele><time>2026-07-15T02:54:30Z</time></trkpt>
			<trkpt lat="54.648970" lon="21.775160"><ele>19.8</ele><time>2026-07-15T02:54:38Z</time></trkpt>
			<trkpt lat="54.648740" lon="21.773530"><ele>16.8</ele><time>2026-07-15T02:54:46Z</time></trkpt>
			<trkpt lat="54.648730" lon="21.773380"><ele>16.3</ele><time>2026-07-15T02:54:55Z</time></trkpt>
			<trkpt lat="54.648610" lon="21.768040"><ele>16.6</ele><time>2026-07-15T02:55:03Z</time></trkpt>
			<trkpt lat="54.648540" lon="21.765430"><ele>15.0</ele><time>2026-07-15T02:55:11Z</time></trkpt>
			<trkpt lat="54.648450" lon="21.764070"><ele>14.6</ele><time>2026-07-15T02:55:19Z</time></trkpt>
			<trkpt lat="54.648430" lon="21.763380"><ele>15.4</ele><time>2026-07-15T02:55:27Z</time></trkpt>
			<trkpt lat="54.648420" lon="21.762700"><ele>15.2</ele><time>2026-07-15T02:55:35Z</time></trkpt>
			<trkpt lat="54.648490" lon="21.760640"><ele>13.3</ele><time>2026-07-15T02:55:43Z</time></trkpt>
			<trkpt lat="54.648530" lon="21.759660"><ele>13.0</ele><time>2026-07-15T02:55:51Z</time></trkpt>
			<trkpt lat="54.648610" lon="21.758700"><ele>12.5</ele><time>2026-07-15T02:55:59Z</time></trkpt>
			<trkpt lat="54.648830" lon="21.757380"><ele>11.2</ele><time>2026-07-15T02:56:08Z</time></trkpt>
			<trkpt lat="54.649210" lon="21.754790"><ele>10.9</ele><time>2026-07-15T02:56:16Z</time></trkpt>
			<trkpt lat="54.649620" lon="21.752220"><ele>12.2</ele><time>2026-07-15T02:56:24Z</time></trkpt>
			<trkpt lat="54.649810" lon="21.750830"><ele>12.3</ele><time>2026-07-15T02:56:32Z</time></trkpt>
			<trkpt lat="54.650170" lon="21.748380"><ele>13.2</ele><time>2026-07-15T02:56:40Z</time></trkpt>
			<trkpt lat="54.650320" lon="21.747480"><ele>14.0</ele><time>2026-07-15T02:56:48Z</time></trkpt>
			<trkpt lat="54.650690" lon="21.746170"><ele>15.5</ele><time>2026-07-15T02:56:56Z</time></trkpt>
			<trkpt lat="54.650800" lon="21.745350"><ele>15.2</ele><time>2026-07-15T02:57:04Z</time></trkpt>
			<trkpt lat="54.650910" lon="21.744100"><ele>13.9</ele><time>2026-07-15T02:57:13Z</time></trkpt>
			<trkpt lat="54.650990" lon="21.742860"><ele>13.1</ele><time>2026-07-15T02:57:21Z</time></trkpt>
			<trkpt lat="54.651120" lon="21.740590"><ele>13.1</ele><time>2026-07-15T02:57:29Z</time></trkpt>
			<trkpt lat="54.651170" lon="21.739860"><ele>12.7</ele><time>2026-07-15T02:57:37Z</time></trkpt>
			<trkpt lat="54.651510" lon="21.736260"><ele>13.8</ele><time>2026-07-15T02:57:45Z</time></trkpt>
			<trkpt lat="54.651590" lon="21.735210"><ele>14.4</ele><time>2026-07-15T02:57:53Z</time></trkpt>
			<trkpt lat="54.651660" lon="21.733870"><ele>12.6</ele><time>2026-07-15T02:58:01Z</time></trkpt>
			<trkpt lat="54.651890" lon="21.729340"><ele>12.1</ele><time>2026-07-15T02:58:09Z</time></trkpt>
			<trkpt lat="54.651930" lon="21.728600"><ele>12.2</ele><time>2026-07-15T02:58:18Z</time></trkpt>
			<trkpt lat="54.651950" lon="21.728050"><ele>12.6</ele><time>2026-07-15T02:58:26Z</time></trkpt>
			<trkpt lat="54.651940" lon="21.727460"><ele>13.0</ele><time>2026-07-15T02:58:34Z</time></trkpt>
			<trkpt lat="54.651910" lon="21.726770"><ele>12.9</ele><time>2026-07-15T02:58:42Z</time></trkpt>
			<trkpt lat="54.651890" lon="21.726390"><ele>12.8</ele><time>2026-07-15T02:58:50Z</time></trkpt>
			<trkpt lat="54.651860" lon="21.725810"><ele>12.5</ele><time>2026-07-15T02:58:58Z</time></trkpt>
			<trkpt lat="54.651750" lon="21.723370"><ele>12.8</ele><time>2026-07-15T02:59:06Z</time></trkpt>
			<trkpt lat="54.651740" lon="21.723170"><ele>13.0</ele><time>2026-07-15T02:59:14Z</time></trkpt>
			<trkpt lat="54.651620" lon="21.721730"><ele>13.8</ele><time>2026-07-15T02:59:22Z</time></trkpt>
			<trkpt lat="54.651550" lon="21.720740"><ele>15.1</ele><time>2026-07-15T02:59:31Z</time></trkpt>
			<trkpt lat="54.651540" lon="21.720290"><ele>15.2</ele><time>2026-07-15T02:59:39Z</time></trkpt>
			<trkpt lat="54.651530" lon="21.719510"><ele>14.6</ele><time>2026-07-15T02:59:47Z</time></trkpt>
			<trkpt lat="54.651620" lon="21.715290"><ele>13.7</ele><time>2026-07-15T02:59:55Z</time></trkpt>
			<trkpt lat="54.651700" lon="21.712260"><ele>10.8</ele><time>2026-07-15T03:00:03Z</time></trkpt>
			<trkpt lat="54.651480" lon="21.709840"><ele>11.3</ele><time>2026-07-15T03:00:11Z</time></trkpt>
			<trkpt lat="54.651010" lon="21.706030"><ele>11.4</ele><time>2026-07-15T03:00:19Z</time></trkpt>
			<trkpt lat="54.650830" lon="21.702240"><ele>12.2</ele><time>2026-07-15T03:00:27Z</time></trkpt>
			<trkpt lat="54.650900" lon="21.700760"><ele>12.8</ele><time>2026-07-15T03:00:36Z</time></trkpt>
			<trkpt lat="54.650970" lon="21.699440"><ele>12.9</ele><time>2026-07-15T03:00:44Z</time></trkpt>
			<trkpt lat="54.651020" lon="21.698150"><ele>13.9</ele><time>2026-07-15T03:00:52Z</time></trkpt>
			<trkpt lat="54.650950" lon="21.697650"><ele>14.5</ele><time>2026-07-15T03:01:00Z</time></trkpt>
			<trkpt lat="54.650430" lon="21.695920"><ele>15.1</ele><time>2026-07-15T03:01:08Z</time></trkpt>
			<trkpt lat="54.650270" lon="21.695320"><ele>15.9</ele><time>2026-07-15T03:01:16Z</time></trkpt>
			<trkpt lat="54.650130" lon="21.694510"><ele>16.6</ele><time>2026-07-15T03:01:24Z</time></trkpt>
			<trkpt lat="54.649680" lon="21.690150"><ele>14.7</ele><time>2026-07-15T03:01:32Z</time></trkpt>
			<trkpt lat="54.649250" lon="21.685870"><ele>15.5</ele><time>2026-07-15T03:01:41Z</time></trkpt>
			<trkpt lat="54.649040" lon="21.684030"><ele>15.1</ele><time>2026-07-15T03:01:49Z</time></trkpt>
			<trkpt lat="54.648830" lon="21.683310"><ele>13.8</ele><time>2026-07-15T03:01:57Z</time></trkpt>
			<trkpt lat="54.648740" lon="21.682680"><ele>13.2</ele><time>2026-07-15T03:02:05Z</time></trkpt>
			<trkpt lat="54.648780" lon="21.682070"><ele>12.9</ele><time>2026-07-15T03:02:13Z</time></trkpt>
			<trkpt lat="54.648840" lon="21.681550"><ele>12.7</ele><time>2026-07-15T03:02:21Z</time></trkpt>
			<trkpt lat="54.648880" lon="21.681220"><ele>12.6</ele><time>2026-07-15T03:02:29Z</time></trkpt>
			<trkpt lat="54.648940" lon="21.680420"><ele>11.3</ele><time>2026-07-15T03:02:37Z</time></trkpt>
			<trkpt lat="54.649030" lon="21.679520"><ele>8.9</ele><time>2026-07-15T03:02:45Z</time></trkpt>
			<trkpt lat="54.649060" lon="21.679220"><ele>8.2</ele><time>2026-07-15T03:02:54Z</time></trkpt>
			<trkpt lat="54.649070" lon="21.678700"><ele>8.9</ele><time>2026-07-15T03:03:02Z</time></trkpt>
			<trkpt lat="54.648970" lon="21.676730"><ele>14.8</ele><time>2026-07-15T03:03:10Z</time></trkpt>
			<trkpt lat="54.648960" lon="21.676410"><ele>15.2</ele><time>2026-07-15T03:03:18Z</time></trkpt>
			<trkpt lat="54.648950" lon="21.676110"><ele>15.4</ele><time>2026-07-15T03:03:26Z</time></trkpt>
			<trkpt lat="54.648840" lon="21.675030"><ele>14.3</ele><time>2026-07-15T03:03:34Z</time></trkpt>
			<trkpt lat="54.648560" lon="21.672300"><ele>14.2</ele><time>2026-07-15T03:03:42Z</time></trkpt>
			<trkpt lat="54.648030" lon="21.667120"><ele>15.9</ele><time>2026-07-15T03:03:50Z</time></trkpt>
			<trkpt lat="54.648000" lon="21.666830"><ele>15.8</ele><time>2026-07-15T03:03:59Z</time></trkpt>
			<trkpt lat="54.647910" lon="21.666400"><ele>16.2</ele><time>2026-07-15T03:04:07Z</time></trkpt>
			<trkpt lat="54.647770" lon="21.665790"><ele>16.8</ele><time>2026-07-15T03:04:15Z</time></trkpt>
			<trkpt lat="54.645230" lon="21.656130"><ele>9.8</ele><time>2026-07-15T03:04:23Z</time></trkpt>
			<trkpt lat="54.644710" lon="21.654160"><ele>9.1</ele><time>2026-07-15T03:04:31Z</time></trkpt>
			<trkpt lat="54.643880" lon="21.650870"><ele>7.4</ele><time>2026-07-15T03:04:39Z</time></trkpt>
			<trkpt lat="54.643770" lon="21.650350"><ele>7.3</ele><time>2026-07-15T03:04:47Z</time></trkpt>
			<trkpt lat="54.643710" lon="21.649920"><ele>7.4</ele><time>2026-07-15T03:04:55Z</time></trkpt>
			<trkpt lat="54.643690" lon="21.649670"><ele>7.5</ele><time>2026-07-15T03:05:04Z</time></trkpt>
			<trkpt lat="54.643690" lon="21.649330"><ele>7.6</ele><time>2026-07-15T03:05:12Z</time></trkpt>
			<trkpt lat="54.643750" lon="21.646460"><ele>7.3</ele><time>2026-07-15T03:05:20Z</time></trkpt>
			<trkpt lat="54.643660" lon="21.644180"><ele>7.6</ele><time>2026-07-15T03:05:28Z</time></trkpt>
			<trkpt lat="54.643570" lon="21.642410"><ele>7.1</ele><time>2026-07-15T03:05:36Z</time></trkpt>
			<trkpt lat="54.643560" lon="21.641550"><ele>7.5</ele><time>2026-07-15T03:05:44Z</time></trkpt>
			<trkpt lat="54.643650" lon="21.640990"><ele>8.1</ele><time>2026-07-15T03:05:52Z</time></trkpt>
			<trkpt lat="54.643750" lon="21.640460"><ele>8.7</ele><time>2026-07-15T03:06:00Z</time></trkpt>
			<trkpt lat="54.643840" lon="21.639860"><ele>8.9</ele><time>2026-07-15T03:06:09Z</time></trkpt>
			<trkpt lat="54.643890" lon="21.639080"><ele>8.5</ele><time>2026-07-15T03:06:17Z</time></trkpt>
			<trkpt lat="54.643930" lon="21.637960"><ele>7.9</ele><time>2026-07-15T03:06:25Z</time></trkpt>
			<trkpt lat="54.643950" lon="21.636880"><ele>8.0</ele><time>2026-07-15T03:06:33Z</time></trkpt>
			<trkpt lat="54.644000" lon="21.636310"><ele>8.2</ele><time>2026-07-15T03:06:41Z</time></trkpt>
			<trkpt lat="54.644140" lon="21.635650"><ele>8.9</ele><time>2026-07-15T03:06:49Z</time></trkpt>
			<trkpt lat="54.644440" lon="21.634430"><ele>10.1</ele><time>2026-07-15T03:06:57Z</time></trkpt>
			<trkpt lat="54.645700" lon="21.629560"><ele>10.7</ele><time>2026-07-15T03:07:05Z</time></trkpt>
			<trkpt lat="54.647060" lon="21.624270"><ele>21.9</ele><time>2026-07-15T03:07:13Z</time></trkpt>
			<trkpt lat="54.647270" lon="21.623540"><ele>21.5</ele><time>2026-07-15T03:07:22Z</time></trkpt>
			<trkpt lat="54.647380" lon="21.622880"><ele>20.9</ele><time>2026-07-15T03:07:30Z</time></trkpt>
			<trkpt lat="54.647390" lon="21.622280"><ele>20.1</ele><time>2026-07-15T03:07:38Z</time></trkpt>
			<trkpt lat="54.647330" lon="21.619980"><ele>19.2</ele><time>2026-07-15T03:07:46Z</time></trkpt>
			<trkpt lat="54.647120" lon="21.614060"><ele>16.7</ele><time>2026-07-15T03:07:54Z</time></trkpt>
			<trkpt lat="54.647100" lon="21.613110"><ele>17.7</ele><time>2026-07-15T03:08:02Z</time></trkpt>
			<trkpt lat="54.647120" lon="21.612420"><ele>16.9</ele><time>2026-07-15T03:08:10Z</time></trkpt>
			<trkpt lat="54.647130" lon="21.612330"><ele>16.7</ele><time>2026-07-15T03:08:18Z</time></trkpt>
			<trkpt lat="54.647350" lon="21.611100"><ele>16.3</ele><time>2026-07-15T03:08:27Z</time></trkpt>
			<trkpt lat="54.647430" lon="21.610650"><ele>16.6</ele><time>2026-07-15T03:08:35Z</time></trkpt>
			<trkpt lat="54.647510" lon="21.610010"><ele>16.1</ele><time>2026-07-15T03:08:43Z</time></trkpt>
			<trkpt lat="54.647740" lon="21.606750"><ele>17.1</ele><time>2026-07-15T03:08:51Z</time></trkpt>
			<trkpt lat="54.647880" lon="21.605520"><ele>17.4</ele><time>2026-07-15T03:08:59Z</time></trkpt>
			<trkpt lat="54.648020" lon="21.604870"><ele>18.1</ele><time>2026-07-15T03:09:07Z</time></trkpt>
			<trkpt lat="54.648290" lon="21.604080"><ele>18.9</ele><time>2026-07-15T03:09:15Z</time></trkpt>
			<trkpt lat="54.648360" lon="21.603830"><ele>18.5</ele><time>2026-07-15T03:09:23Z</time></trkpt>
			<trkpt lat="54.648450" lon="21.603440"><ele>18.1</ele><time>2026-07-15T03:09:32Z</time></trkpt>
			<trkpt lat="54.648600" lon="21.602260"><ele>18.0</ele><time>2026-07-15T03:09:40Z</time></trkpt>
			<trkpt lat="54.648640" lon="21.601880"><ele>18.0</ele><time>2026-07-15T03:09:48Z</time></trkpt>
			<trkpt lat="54.648630" lon="21.601360"><ele>17.9</ele><time>2026-07-15T03:09:56Z</time></trkpt>
			<trkpt lat="54.648520" lon="21.600690"><ele>18.0</ele><time>2026-07-15T03:10:04Z</time></trkpt>
			<trkpt lat="54.648470" lon="21.600280"><ele>18.2</ele><time>2026-07-15T03:10:12Z</time></trkpt>
			<trkpt lat="54.648450" lon="21.599940"><ele>18.5</ele><time>2026-07-15T03:10:20Z</time></trkpt>
			<trkpt lat="54.648330" lon="21.598290"><ele>16.5</ele><time>2026-07-15T03:10:28Z</time></trkpt>
			<trkpt lat="54.648200" lon="21.595690"><ele>15.1</ele><time>2026-07-15T03:10:36Z</time></trkpt>
			<trkpt lat="54.648080" lon="21.591050"><ele>15.8</ele><time>2026-07-15T03:10:45Z</time></trkpt>
			<trkpt lat="54.647860" lon="21.581350"><ele>19.1</ele><time>2026-07-15T03:10:53Z</time></trkpt>
			<trkpt lat="54.647870" lon="21.580530"><ele>17.9</ele><time>2026-07-15T03:11:01Z</time></trkpt>
			<trkpt lat="54.648250" lon="21.576150"><ele>19.1</ele><time>2026-07-15T03:11:09Z</time></trkpt>
			<trkpt lat="54.648290" lon="21.575600"><ele>19.5</ele><time>2026-07-15T03:11:17Z</time></trkpt>
			<trkpt lat="54.648600" lon="21.571400"><ele>13.0</ele><time>2026-07-15T03:11:25Z</time></trkpt>
			<trkpt lat="54.648750" lon="21.569580"><ele>11.5</ele><time>2026-07-15T03:11:33Z</time></trkpt>
			<trkpt lat="54.648830" lon="21.569000"><ele>11.5</ele><time>2026-07-15T03:11:41Z</time></trkpt>
			<trkpt lat="54.648930" lon="21.568570"><ele>10.9</ele><time>2026-07-15T03:11:50Z</time></trkpt>
			<trkpt lat="54.649050" lon="21.568140"><ele>10.6</ele><time>2026-07-15T03:11:58Z</time></trkpt>
			<trkpt lat="54.649220" lon="21.567770"><ele>10.5</ele><time>2026-07-15T03:12:06Z</time></trkpt>
			<trkpt lat="54.649500" lon="21.567230"><ele>10.4</ele><time>2026-07-15T03:12:14Z</time></trkpt>
			<trkpt lat="54.650210" lon="21.565760"><ele>9.6</ele><time>2026-07-15T03:12:22Z</time></trkpt>
			<trkpt lat="54.651240" lon="21.563570"><ele>10.4</ele><time>2026-07-15T03:12:30Z</time></trkpt>
			<trkpt lat="54.651770" lon="21.562360"><ele>9.2</ele><time>2026-07-15T03:12:38Z</time></trkpt>
			<trkpt lat="54.652030" lon="21.561890"><ele>8.7</ele><time>2026-07-15T03:12:46Z</time></trkpt>
			<trkpt lat="54.652260" lon="21.561250"><ele>8.6</ele><time>2026-07-15T03:12:55Z</time></trkpt>
			<trkpt lat="54.652750" lon="21.559850"><ele>8.8</ele><time>2026-07-15T03:13:03Z</time></trkpt>
			<trkpt lat="54.652930" lon="21.559320"><ele>9.5</ele><time>2026-07-15T03:13:11Z</time></trkpt>
			<trkpt lat="54.653380" lon="21.557880"><ele>8.3</ele><time>2026-07-15T03:13:19Z</time></trkpt>
			<trkpt lat="54.653510" lon="21.557450"><ele>8.7</ele><time>2026-07-15T03:13:27Z</time></trkpt>
			<trkpt lat="54.653750" lon="21.556640"><ele>9.8</ele><time>2026-07-15T03:13:35Z</time></trkpt>
			<trkpt lat="54.654090" lon="21.555480"><ele>10.5</ele><time>2026-07-15T03:13:43Z</time></trkpt>
			<trkpt lat="54.654350" lon="21.554180"><ele>11.6</ele><time>2026-07-15T03:13:51Z</time></trkpt>
			<trkpt lat="54.654420" lon="21.553920"><ele>11.9</ele><time>2026-07-15T03:13:59Z</time></trkpt>
			<trkpt lat="54.654530" lon="21.553600"><ele>12.2</ele><time>2026-07-15T03:14:08Z</time></trkpt>
			<trkpt lat="54.654640" lon="21.553410"><ele>12.5</ele><time>2026-07-15T03:14:16Z</time></trkpt>
			<trkpt lat="54.654810" lon="21.553240"><ele>13.2</ele><time>2026-07-15T03:14:24Z</time></trkpt>
			<trkpt lat="54.655100" lon="21.553010"><ele>13.8</ele><time>2026-07-15T03:14:32Z</time></trkpt>
			<trkpt lat="54.655250" lon="21.552820"><ele>13.9</ele><time>2026-07-15T03:14:40Z</time></trkpt>
			<trkpt lat="54.655310" lon="21.552640"><ele>13.5</ele><time>2026-07-15T03:14:48Z</time></trkpt>
			<trkpt lat="54.655340" lon="21.552430"><ele>13.1</ele><time>2026-07-15T03:14:56Z</time></trkpt>
			<trkpt lat="54.655310" lon="21.552140"><ele>12.6</ele><time>2026-07-15T03:15:04Z</time></trkpt>
			<trkpt lat="54.655250" lon="21.550700"><ele>13.9</ele><time>2026-07-15T03:15:13Z</time></trkpt>
			<trkpt lat="54.655260" lon="21.549790"><ele>15.6</ele><time>2026-07-15T03:15:21Z</time></trkpt>
			<trkpt lat="54.655350" lon="21.548670"><ele>16.5</ele><time>2026-07-15T03:15:29Z</time></trkpt>
			<trkpt lat="54.655390" lon="21.548460"><ele>16.8</ele><time>2026-07-15T03:15:37Z</time></trkpt>
			<trkpt lat="54.655450" lon="21.548220"><ele>17.2</ele><time>2026-07-15T03:15:45Z</time></trkpt>
			<trkpt lat="54.655410" lon="21.548030"><ele>17.5</ele><time>2026-07-15T03:15:53Z</time></trkpt>
			<trkpt lat="54.655350" lon="21.547840"><ele>17.7</ele><time>2026-07-15T03:16:01Z</time></trkpt>
			<trkpt lat="54.655190" lon="21.547510"><ele>18.1</ele><time>2026-07-15T03:16:09Z</time></trkpt>
			<trkpt lat="54.654250" lon="21.546700"><ele>12.5</ele><time>2026-07-15T03:16:18Z</time></trkpt>
			<trkpt lat="54.652870" lon="21.546350"><ele>4.8</ele><time>2026-07-15T03:16:26Z</time></trkpt>
			<trkpt lat="54.651650" lon="21.545890"><ele>6.0</ele><time>2026-07-15T03:16:34Z</time></trkpt>
			<trkpt lat="54.651270" lon="21.545670"><ele>6.3</ele><time>2026-07-15T03:16:42Z</time></trkpt>
			<trkpt lat="54.648670" lon="21.543190"><ele>7.0</ele><time>2026-07-15T03:16:50Z</time></trkpt>
			<trkpt lat="54.647990" lon="21.542530"><ele>8.5</ele><time>2026-07-15T03:16:58Z</time></trkpt>
			<trkpt lat="54.647060" lon="21.540590"><ele>14.5</ele><time>2026-07-15T03:17:06Z</time></trkpt>
			<trkpt lat="54.645330" lon="21.536980"><ele>16.2</ele><time>2026-07-15T03:17:14Z</time></trkpt>
			<trkpt lat="54.643530" lon="21.533460"><ele>15.8</ele><time>2026-07-15T03:17:22Z</time></trkpt>
			<trkpt lat="54.642630" lon="21.532390"><ele>16.3</ele><time>2026-07-15T03:17:31Z</time></trkpt>
			<trkpt lat="54.640480" lon="21.530120"><ele>16.9</ele><time>2026-07-15T03:17:39Z</time></trkpt>
			<trkpt lat="54.640160" lon="21.529850"><ele>17.0</ele><time>2026-07-15T03:17:47Z</time></trkpt>
			<trkpt lat="54.639970" lon="21.529750"><ele>17.1</ele><time>2026-07-15T03:17:55Z</time></trkpt>
			<trkpt lat="54.639770" lon="21.529650"><ele>17.2</ele><time>2026-07-15T03:18:03Z</time></trkpt>
			<trkpt lat="54.639170" lon="21.529590"><ele>17.2</ele><time>2026-07-15T03:18:11Z</time></trkpt>
			<trkpt lat="54.638610" lon="21.529580"><ele>15.8</ele><time>2026-07-15T03:18:19Z</time></trkpt>
			<trkpt lat="54.636410" lon="21.529610"><ele>13.2</ele><time>2026-07-15T03:18:27Z</time></trkpt>
			<trkpt lat="54.635280" lon="21.529600"><ele>10.8</ele><time>2026-07-15T03:18:36Z</time></trkpt>
			<trkpt lat="54.635420" lon="21.526320"><ele>6.0</ele><time>2026-07-15T03:18:44Z</time></trkpt>
			<trkpt lat="54.635430" lon="21.526320"><ele>6.0</ele><time>2026-07-15T03:18:51Z</time></trkpt>
			<trkpt lat="54.635460" lon="21.525550"><ele>6.2</ele><time>2026-07-15T03:18:58Z</time></trkpt>
			<trkpt lat="54.635550" lon="21.524360"><ele>6.3</ele><time>2026-07-15T03:19:05Z</time></trkpt>
			<trkpt lat="54.635600" lon="21.522740"><ele>5.3</ele><time>2026-07-15T03:19:12Z</time></trkpt>
			<trkpt lat="54.635650" lon="21.522240"><ele>5.2</ele><time>2026-07-15T03:19:19Z</time></trkpt>
			<trkpt lat="54.637490" lon="21.516740"><ele>3.2</ele><time>2026-07-15T03:19:26Z</time></trkpt>
			<trkpt lat="54.637810" lon="21.515510"><ele>4.3</ele><time>2026-07-15T03:19:33Z</time></trkpt>
			<trkpt lat="54.639420" lon="21.508520"><ele>3.7</ele><time>2026-07-15T03:19:40Z</time></trkpt>
			<trkpt lat="54.640160" lon="21.505100"><ele>4.6</ele><time>2026-07-15T03:19:47Z</time></trkpt>
			<trkpt lat="54.641710" lon="21.497540"><ele>5.2</ele><time>2026-07-15T03:19:54Z</time></trkpt>
			<trkpt lat="54.641890" lon="21.496950"><ele>6.2</ele><time>2026-07-15T03:20:01Z</time></trkpt>
			<trkpt lat="54.642230" lon="21.496320"><ele>6.3</ele><time>2026-07-15T03:20:08Z</time></trkpt>
			<trkpt lat="54.642330" lon="21.496030"><ele>6.2</ele><time>2026-07-15T03:20:15Z</time></trkpt>
			<trkpt lat="54.642350" lon="21.495810"><ele>6.2</ele><time>2026-07-15T03:20:22Z</time></trkpt>
			<trkpt lat="54.642320" lon="21.495060"><ele>5.4</ele><time>2026-07-15T03:20:29Z</time></trkpt>
			<trkpt lat="54.642350" lon="21.494600"><ele>5.0</ele><time>2026-07-15T03:20:36Z</time></trkpt>
			<trkpt lat="54.642420" lon="21.494170"><ele>5.1</ele><time>2026-07-15T03:20:43Z</time></trkpt>
			<trkpt lat="54.642560" lon="21.493780"><ele>5.1</ele><time>2026-07-15T03:20:50Z</time></trkpt>
			<trkpt lat="54.643010" lon="21.492920"><ele>4.3</ele><time>2026-07-15T03:20:57Z</time></trkpt>
			<trkpt lat="54.643150" lon="21.492610"><ele>4.2</ele><time>2026-07-15T03:21:04Z</time></trkpt>
			<trkpt lat="54.643331" lon="21.492203"><ele>4.1</ele><time>2026-07-15T03:21:44Z</time></trkpt>
			<trkpt lat="54.643340" lon="21.492140"><ele>4.0</ele><time>2026-07-15T03:21:50Z</time></trkpt>
			<trkpt lat="54.643360" lon="21.492020"><ele>4.0</ele><time>2026-07-15T03:21:57Z</time></trkpt>
			<trkpt lat="54.643320" lon="21.490550"><ele>4.0</ele><time>2026-07-15T03:22:04Z</time></trkpt>
			<trkpt lat="54.643330" lon="21.490250"><ele>4.0</ele><time>2026-07-15T03:22:11Z</time></trkpt>
			<trkpt lat="54.643380" lon="21.489900"><ele>4.0</ele><time>2026-07-15T03:22:17Z</time></trkpt>
			<trkpt lat="54.643470" lon="21.489570"><ele>4.1</ele><time>2026-07-15T03:22:24Z</time></trkpt>
			<trkpt lat="54.643630" lon="21.489060"><ele>5.1</ele><time>2026-07-15T03:22:31Z</time></trkpt>
			<trkpt lat="54.643980" lon="21.487560"><ele>10.8</ele><time>2026-07-15T03:22:38Z</time></trkpt>
			<trkpt lat="54.646980" lon="21.474110"><ele>19.2</ele><time>2026-07-15T03:22:44Z</time></trkpt>
			<trkpt lat="54.647380" lon="21.472320"><ele>15.5</ele><time>2026-07-15T03:22:51Z</time></trkpt>
			<trkpt lat="54.647510" lon="21.471900"><ele>14.0</ele><time>2026-07-15T03:22:58Z</time></trkpt>
			<trkpt lat="54.648020" lon="21.470210"><ele>7.8</ele><time>2026-07-15T03:23:04Z</time></trkpt>
			<trkpt lat="54.648690" lon="21.468170"><ele>7.3</ele><time>2026-07-15T03:23:11Z</time></trkpt>
			<trkpt lat="54.650450" lon="21.464280"><ele>6.0</ele><time>2026-07-15T03:23:18Z</time></trkpt>
			<trkpt lat="54.651360" lon="21.462240"><ele>4.4</ele><time>2026-07-15T03:23:25Z</time></trkpt>
			<trkpt lat="54.651550" lon="21.461800"><ele>5.3</ele><time>2026-07-15T03:23:31Z</time></trkpt>
			<trkpt lat="54.651720" lon="21.461270"><ele>6.0</ele><time>2026-07-15T03:23:38Z</time></trkpt>
			<trkpt lat="54.652040" lon="21.460100"><ele>5.7</ele><time>2026-07-15T03:23:45Z</time></trkpt>
			<trkpt lat="54.652900" lon="21.456640"><ele>6.3</ele><time>2026-07-15T03:23:52Z</time></trkpt>
			<trkpt lat="54.654860" lon="21.449430"><ele>9.8</ele><time>2026-07-15T03:23:58Z</time></trkpt>
			<trkpt lat="54.656680" lon="21.444780"><ele>11.8</ele><time>2026-07-15T03:24:05Z</time></trkpt>
			<trkpt lat="54.657770" lon="21.440440"><ele>12.8</ele><time>2026-07-15T03:24:12Z</time></trkpt>
			<trkpt lat="54.658070" lon="21.438570"><ele>13.6</ele><time>2026-07-15T03:24:19Z</time></trkpt>
			<trkpt lat="54.658130" lon="21.436760"><ele>12.6</ele><time>2026-07-15T03:24:25Z</time></trkpt>
			<trkpt lat="54.658160" lon="21.434140"><ele>11.1</ele><time>2026-07-15T03:24:32Z</time></trkpt>
			<trkpt lat="54.658100" lon="21.429990"><ele>10.7</ele><time>2026-07-15T03:24:39Z</time></trkpt>
			<trkpt lat="54.658100" lon="21.429040"><ele>10.1</ele><time>2026-07-15T03:24:46Z</time></trkpt>
			<trkpt lat="54.658110" lon="21.428850"><ele>10.2</ele><time>2026-07-15T03:24:52Z</time></trkpt>
			<trkpt lat="54.658190" lon="21.427550"><ele>10.8</ele><time>2026-07-15T03:24:59Z</time></trkpt>
			<trkpt lat="54.658180" lon="21.426700"><ele>9.8</ele><time>2026-07-15T03:25:06Z</time></trkpt>
			<trkpt lat="54.658280" lon="21.425770"><ele>8.0</ele><time>2026-07-15T03:25:12Z</time></trkpt>
			<trkpt lat="54.658360" lon="21.425210"><ele>7.3</ele><time>2026-07-15T03:25:19Z</time></trkpt>
			<trkpt lat="54.658420" lon="21.424140"><ele>8.5</ele><time>2026-07-15T03:25:26Z</time></trkpt>
			<trkpt lat="54.658590" lon="21.422590"><ele>10.6</ele><time>2026-07-15T03:25:33Z</time></trkpt>
			<trkpt lat="54.658640" lon="21.422460"><ele>10.6</ele><time>2026-07-15T03:25:39Z</time></trkpt>
			<trkpt lat="54.658680" lon="21.422360"><ele>10.6</ele><time>2026-07-15T03:25:46Z</time></trkpt>
			<trkpt lat="54.658820" lon="21.422280"><ele>10.5</ele><time>2026-07-15T03:25:53Z</time></trkpt>
			<trkpt lat="54.659060" lon="21.422360"><ele>10.5</ele><time>2026-07-15T03:26:00Z</time></trkpt>
			<trkpt lat="54.659370" lon="21.422130"><ele>10.8</ele><time>2026-07-15T03:26:06Z</time></trkpt>
			<trkpt lat="54.659620" lon="21.421930"><ele>11.4</ele><time>2026-07-15T03:26:13Z</time></trkpt>
			<trkpt lat="54.660080" lon="21.421320"><ele>13.3</ele><time>2026-07-15T03:26:20Z</time></trkpt>
			<trkpt lat="54.661280" lon="21.418840"><ele>16.7</ele><time>2026-07-15T03:26:27Z</time></trkpt>
			<trkpt lat="54.661940" lon="21.416210"><ele>15.1</ele><time>2026-07-15T03:26:33Z</time></trkpt>
			<trkpt lat="54.662020" lon="21.415380"><ele>14.6</ele><time>2026-07-15T03:26:40Z</time></trkpt>
			<trkpt lat="54.662000" lon="21.414560"><ele>14.2</ele><time>2026-07-15T03:26:47Z</time></trkpt>
			<trkpt lat="54.661940" lon="21.413960"><ele>14.0</ele><time>2026-07-15T03:26:53Z</time></trkpt>
			<trkpt lat="54.661670" lon="21.413220"><ele>13.4</ele><time>2026-07-15T03:27:00Z</time></trkpt>
			<trkpt lat="54.660490" lon="21.410430"><ele>12.5</ele><time>2026-07-15T03:27:07Z</time></trkpt>
			<trkpt lat="54.659940" lon="21.408880"><ele>11.9</ele><time>2026-07-15T03:27:14Z</time></trkpt>
			<trkpt lat="54.659780" lon="21.407950"><ele>11.7</ele><time>2026-07-15T03:27:20Z</time></trkpt>
			<trkpt lat="54.659250" lon="21.405220"><ele>13.0</ele><time>2026-07-15T03:27:27Z</time></trkpt>
			<trkpt lat="54.659530" lon="21.402960"><ele>12.1</ele><time>2026-07-15T03:27:34Z</time></trkpt>
			<trkpt lat="54.659930" lon="21.400330"><ele>14.2</ele><time>2026-07-15T03:27:41Z</time></trkpt>
			<trkpt lat="54.660730" lon="21.395830"><ele>13.0</ele><time>2026-07-15T03:27:47Z</time></trkpt>
			<trkpt lat="54.661200" lon="21.392430"><ele>8.5</ele><time>2026-07-15T03:27:54Z</time></trkpt>
			<trkpt lat="54.661550" lon="21.391040"><ele>6.9</ele><time>2026-07-15T03:28:01Z</time></trkpt>
			<trkpt lat="54.661500" lon="21.390400"><ele>5.3</ele><time>2026-07-15T03:28:08Z</time></trkpt>
			<trkpt lat="54.661080" lon="21.388120"><ele>11.5</ele><time>2026-07-15T03:28:14Z</time></trkpt>
			<trkpt lat="54.660700" lon="21.385570"><ele>14.0</ele><time>2026-07-15T03:28:21Z</time></trkpt>
			<trkpt lat="54.660620" lon="21.384640"><ele>15.5</ele><time>2026-07-15T03:28:28Z</time></trkpt>
			<trkpt lat="54.661090" lon="21.381240"><ele>17.1</ele><time>2026-07-15T03:28:34Z</time></trkpt>
			<trkpt lat="54.661070" lon="21.381070"><ele>16.9</ele><time>2026-07-15T03:28:41Z</time></trkpt>
			<trkpt lat="54.660980" lon="21.380320"><ele>16.2</ele><time>2026-07-15T03:28:48Z</time></trkpt>
			<trkpt lat="54.660810" lon="21.379640"><ele>15.5</ele><time>2026-07-15T03:28:55Z</time></trkpt>
			<trkpt lat="54.660600" lon="21.379160"><ele>14.7</ele><time>2026-07-15T03:29:01Z</time></trkpt>
			<trkpt lat="54.659910" lon="21.378360"><ele>14.5</ele><time>2026-07-15T03:29:08Z</time></trkpt>
			<trkpt lat="54.659450" lon="21.377760"><ele>13.8</ele><time>2026-07-15T03:29:15Z</time></trkpt>
			<trkpt lat="54.659090" lon="21.376920"><ele>14.8</ele><time>2026-07-15T03:29:22Z</time></trkpt>
			<trkpt lat="54.659040" lon="21.376230"><ele>15.0</ele><time>2026-07-15T03:29:28Z</time></trkpt>
			<trkpt lat="54.659000" lon="21.375280"><ele>15.7</ele><time>2026-07-15T03:29:35Z</time></trkpt>
			<trkpt lat="54.659120" lon="21.373570"><ele>15.8</ele><time>2026-07-15T03:29:42Z</time></trkpt>
			<trkpt lat="54.659560" lon="21.372180"><ele>15.0</ele><time>2026-07-15T03:29:49Z</time></trkpt>
			<trkpt lat="54.659870" lon="21.370940"><ele>16.1</ele><time>2026-07-15T03:29:55Z</time></trkpt>
			<trkpt lat="54.659880" lon="21.370260"><ele>15.6</ele><time>2026-07-15T03:30:02Z</time></trkpt>
			<trkpt lat="54.659630" lon="21.369290"><ele>15.2</ele><time>2026-07-15T03:30:09Z</time></trkpt>
			<trkpt lat="54.659630" lon="21.368780"><ele>15.8</ele><time>2026-07-15T03:30:15Z</time></trkpt>
			<trkpt lat="54.659720" lon="21.368030"><ele>16.4</ele><time>2026-07-15T03:30:22Z</time></trkpt>
			<trkpt lat="54.659840" lon="21.366710"><ele>16.4</ele><time>2026-07-15T03:30:29Z</time></trkpt>
			<trkpt lat="54.659650" lon="21.364850"><ele>15.3</ele><time>2026-07-15T03:30:36Z</time></trkpt>
			<trkpt lat="54.659370" lon="21.363245"><ele>14.5</ele><time>2026-07-15T03:30:42Z</time></trkpt>
			<trkpt lat="54.659370" lon="21.363240"><ele>14.5</ele><time>2026-07-15T03:31:31Z</time></trkpt>
			<trkpt lat="54.659240" lon="21.362500"><ele>15.5</ele><time>2026-07-15T03:32:20Z</time></trkpt>
			<trkpt lat="54.659230" lon="21.362340"><ele>15.7</ele><time>2026-07-15T03:33:09Z</time></trkpt>
			<trkpt lat="54.659230" lon="21.362170"><ele>16.1</ele><time>2026-07-15T03:33:58Z</time></trkpt>
			<trkpt lat="54.659260" lon="21.361840"><ele>17.1</ele><time>2026-07-15T03:34:47Z</time></trkpt>
			<trkpt lat="54.659470" lon="21.360750"><ele>18.6</ele><time>2026-07-15T03:35:35Z</time></trkpt>
			<trkpt lat="54.658080" lon="21.359130"><ele>13.8</ele><time>2026-07-15T03:36:24Z</time></trkpt>
			<trkpt lat="54.657630" lon="21.358560"><ele>13.8</ele><time>2026-07-15T03:37:13Z</time></trkpt>
			<trkpt lat="54.657460" lon="21.358300"><ele>13.4</ele><time>2026-07-15T03:38:02Z</time></trkpt>
			<trkpt lat="54.657350" lon="21.358100"><ele>12.9</ele><time>2026-07-15T03:38:51Z</time></trkpt>
			<trkpt lat="54.656490" lon="21.357110"><ele>9.9</ele><time>2026-07-15T03:39:40Z</time></trkpt>
			<trkpt lat="54.655870" lon="21.356350"><ele>9.0</ele><time>2026-07-15T03:40:29Z</time></trkpt>
			<trkpt lat="54.655530" lon="21.355840"><ele>8.6</ele><time>2026-07-15T03:41:17Z</time></trkpt>
			<trkpt lat="54.655230" lon="21.355290"><ele>8.2</ele><time>2026-07-15T03:42:06Z</time></trkpt>
			<trkpt lat="54.654720" lon="21.354230"><ele>4.9</ele><time>2026-07-15T03:42:55Z</time></trkpt>
			<trkpt lat="54.654400" lon="21.353560"><ele>4.2</ele><time>2026-07-15T03:43:44Z</time></trkpt>
			<trkpt lat="54.654020" lon="21.352780"><ele>4.3</ele><time>2026-07-15T03:44:33Z</time></trkpt>
			<trkpt lat="54.652840" lon="21.350130"><ele>2.4</ele><time>2026-07-15T03:45:22Z</time></trkpt>
			<trkpt lat="54.652710" lon="21.349870"><ele>2.4</ele><time>2026-07-15T03:46:10Z</time></trkpt>
			<trkpt lat="54.652217" lon="21.348839"><ele>2.1</ele><time>2026-07-15T03:46:59Z</time></trkpt>
			<trkpt lat="54.652220" lon="21.348840"><ele>2.1</ele><time>2026-07-15T03:47:03Z</time></trkpt>
			<trkpt lat="54.652180" lon="21.348760"><ele>2.1</ele><time>2026-07-15T03:47:07Z</time></trkpt>
			<trkpt lat="54.651120" lon="21.346460"><ele>3.1</ele><time>2026-07-15T03:47:11Z</time></trkpt>
			<trkpt lat="54.651050" lon="21.346310"><ele>3.4</ele><time>2026-07-15T03:47:14Z</time></trkpt>
			<trkpt lat="54.650710" lon="21.345570"><ele>5.2</ele><time>2026-07-15T03:47:18Z</time></trkpt>
			<trkpt lat="54.650490" lon="21.345180"><ele>5.4</ele><time>2026-07-15T03:47:22Z</time></trkpt>
			<trkpt lat="54.650180" lon="21.344630"><ele>5.4</ele><time>2026-07-15T03:47:26Z</time></trkpt>
			<trkpt lat="54.650250" lon="21.344150"><ele>5.9</ele><time>2026-07-15T03:47:29Z</time></trkpt>
			<trkpt lat="54.650560" lon="21.341870"><ele>7.8</ele><time>2026-07-15T03:47:33Z</time></trkpt>
			<trkpt lat="54.650620" lon="21.341420"><ele>8.1</ele><time>2026-07-15T03:47:37Z</time></trkpt>
			<trkpt lat="54.650620" lon="21.341420"><ele>8.1</ele><time>2026-07-15T03:47:41Z</time></trkpt>
			<trkpt lat="54.650560" lon="21.341870"><ele>7.9</ele><time>2026-07-15T03:47:45Z</time></trkpt>
			<trkpt lat="54.650250" lon="21.344150"><ele>5.9</ele><time>2026-07-15T03:47:49Z</time></trkpt>
			<trkpt lat="54.650180" lon="21.344630"><ele>5.2</ele><time>2026-07-15T03:47:53Z</time></trkpt>
			<trkpt lat="54.650490" lon="21.345180"><ele>5.4</ele><time>2026-07-15T03:47:57Z</time></trkpt>
			<trkpt lat="54.650710" lon="21.345570"><ele>5.2</ele><time>2026-07-15T03:48:01Z</time></trkpt>
			<trkpt lat="54.651050" lon="21.346310"><ele>3.4</ele><time>2026-07-15T03:48:05Z</time></trkpt>
			<trkpt lat="54.651120" lon="21.346460"><ele>3.0</ele><time>2026-07-15T03:48:09Z</time></trkpt>
			<trkpt lat="54.652180" lon="21.348760"><ele>2.1</ele><time>2026-07-15T03:48:13Z</time></trkpt>
			<trkpt lat="54.652710" lon="21.349870"><ele>2.5</ele><time>2026-07-15T03:48:17Z</time></trkpt>
			<trkpt lat="54.652840" lon="21.350130"><ele>2.5</ele><time>2026-07-15T03:48:21Z</time></trkpt>
			<trkpt lat="54.654020" lon="21.352780"><ele>4.2</ele><time>2026-07-15T03:48:25Z</time></trkpt>
			<trkpt lat="54.654400" lon="21.353560"><ele>4.3</ele><time>2026-07-15T03:48:29Z</time></trkpt>
			<trkpt lat="54.654720" lon="21.354230"><ele>4.8</ele><time>2026-07-15T03:48:33Z</time></trkpt>
			<trkpt lat="54.655230" lon="21.355290"><ele>8.3</ele><time>2026-07-15T03:48:37Z</time></trkpt>
			<trkpt lat="54.655530" lon="21.355840"><ele>8.6</ele><time>2026-07-15T03:48:41Z</time></trkpt>
			<trkpt lat="54.655870" lon="21.356350"><ele>8.9</ele><time>2026-07-15T03:48:44Z</time></trkpt>
			<trkpt lat="54.656490" lon="21.357110"><ele>9.9</ele><time>2026-07-15T03:48:48Z</time></trkpt>
			<trkpt lat="54.657350" lon="21.358100"><ele>13.0</ele><time>2026-07-15T03:48:52Z</time></trkpt>
			<trkpt lat="54.657460" lon="21.358300"><ele>13.4</ele><time>2026-07-15T03:48:56Z</time></trkpt>
			<trkpt lat="54.657630" lon="21.358560"><ele>13.7</ele><time>2026-07-15T03:49:00Z</time></trkpt>
			<trkpt lat="54.658080" lon="21.359130"><ele>13.8</ele><time>2026-07-15T03:49:04Z</time></trkpt>
			<trkpt lat="54.659470" lon="21.360750"><ele>19.1</ele><time>2026-07-15T03:49:08Z</time></trkpt>
			<trkpt lat="54.660210" lon="21.361610"><ele>20.1</ele><time>2026-07-15T03:49:12Z</time></trkpt>
			<trkpt lat="54.661020" lon="21.362540"><ele>16.5</ele><time>2026-07-15T03:49:16Z</time></trkpt>
			<trkpt lat="54.661280" lon="21.362800"><ele>15.8</ele><time>2026-07-15T03:49:20Z</time></trkpt>
			<trkpt lat="54.661600" lon="21.363080"><ele>15.1</ele><time>2026-07-15T03:49:24Z</time></trkpt>
			<trkpt lat="54.662450" lon="21.364080"><ele>15.9</ele><time>2026-07-15T03:49:28Z</time></trkpt>
			<trkpt lat="54.663090" lon="21.364830"><ele>16.0</ele><time>2026-07-15T03:49:32Z</time></trkpt>
			<trkpt lat="54.664000" lon="21.365910"><ele>17.4</ele><time>2026-07-15T03:49:36Z</time></trkpt>
			<trkpt lat="54.664120" lon="21.366040"><ele>17.6</ele><time>2026-07-15T03:49:40Z</time></trkpt>
			<trkpt lat="54.664120" lon="21.366040"><ele>17.6</ele><time>2026-07-15T03:49:48Z</time></trkpt>
			<trkpt lat="54.665290" lon="21.367430"><ele>18.8</ele><time>2026-07-15T03:49:56Z</time></trkpt>
			<trkpt lat="54.665380" lon="21.367280"><ele>18.8</ele><time>2026-07-15T03:50:04Z</time></trkpt>
			<trkpt lat="54.668420" lon="21.361930"><ele>16.0</ele><time>2026-07-15T03:50:12Z</time></trkpt>
			<trkpt lat="54.671690" lon="21.356030"><ele>16.2</ele><time>2026-07-15T03:50:20Z</time></trkpt>
			<trkpt lat="54.672100" lon="21.355630"><ele>14.9</ele><time>2026-07-15T03:50:28Z</time></trkpt>
			<trkpt lat="54.672950" lon="21.355230"><ele>13.6</ele><time>2026-07-15T03:50:36Z</time></trkpt>
			<trkpt lat="54.679930" lon="21.352210"><ele>7.1</ele><time>2026-07-15T03:50:43Z</time></trkpt>
			<trkpt lat="54.683300" lon="21.350750"><ele>11.7</ele><time>2026-07-15T03:50:51Z</time></trkpt>
			<trkpt lat="54.684650" lon="21.350140"><ele>11.8</ele><time>2026-07-15T03:50:59Z</time></trkpt>
			<trkpt lat="54.685060" lon="21.349960"><ele>11.8</ele><time>2026-07-15T03:51:07Z</time></trkpt>
			<trkpt lat="54.685260" lon="21.349830"><ele>11.5</ele><time>2026-07-15T03:51:15Z</time></trkpt>
			<trkpt lat="54.685600" lon="21.348930"><ele>8.9</ele><time>2026-07-15T03:51:23Z</time></trkpt>
			<trkpt lat="54.685810" lon="21.348670"><ele>7.8</ele><time>2026-07-15T03:51:31Z</time></trkpt>
			<trkpt lat="54.686100" lon="21.348510"><ele>6.7</ele><time>2026-07-15T03:51:39Z</time></trkpt>
			<trkpt lat="54.686200" lon="21.348490"><ele>6.4</ele><time>2026-07-15T03:51:47Z</time></trkpt>
			<trkpt lat="54.686570" lon="21.348730"><ele>6.2</ele><time>2026-07-15T03:51:55Z</time></trkpt>
			<trkpt lat="54.686670" lon="21.348790"><ele>6.2</ele><time>2026-07-15T03:52:03Z</time></trkpt>
			<trkpt lat="54.686820" lon="21.348840"><ele>6.5</ele><time>2026-07-15T03:52:11Z</time></trkpt>
			<trkpt lat="54.687440" lon="21.348780"><ele>7.5</ele><time>2026-07-15T03:52:19Z</time></trkpt>
			<trkpt lat="54.694010" lon="21.347310"><ele>11.5</ele><time>2026-07-15T03:52:27Z</time></trkpt>
			<trkpt lat="54.694260" lon="21.347190"><ele>11.7</ele><time>2026-07-15T03:52:34Z</time></trkpt>
			<trkpt lat="54.697810" lon="21.344580"><ele>16.6</ele><time>2026-07-15T03:52:42Z</time></trkpt>
			<trkpt lat="54.704420" lon="21.339690"><ele>16.1</ele><time>2026-07-15T03:52:50Z</time></trkpt>
			<trkpt lat="54.708660" lon="21.336570"><ele>16.9</ele><time>2026-07-15T03:52:58Z</time></trkpt>
			<trkpt lat="54.712900" lon="21.333410"><ele>18.5</ele><time>2026-07-15T03:53:06Z</time></trkpt>
			<trkpt lat="54.714090" lon="21.332540"><ele>14.2</ele><time>2026-07-15T03:53:14Z</time></trkpt>
			<trkpt lat="54.715250" lon="21.331730"><ele>12.1</ele><time>2026-07-15T03:53:22Z</time></trkpt>
			<trkpt lat="54.715590" lon="21.331410"><ele>11.7</ele><time>2026-07-15T03:53:30Z</time></trkpt>
			<trkpt lat="54.716340" lon="21.330330"><ele>11.9</ele><time>2026-07-15T03:53:38Z</time></trkpt>
			<trkpt lat="54.716470" lon="21.329860"><ele>11.4</ele><time>2026-07-15T03:53:46Z</time></trkpt>
			<trkpt lat="54.716490" lon="21.329650"><ele>10.6</ele><time>2026-07-15T03:53:54Z</time></trkpt>
			<trkpt lat="54.716510" lon="21.329460"><ele>9.9</ele><time>2026-07-15T03:54:02Z</time></trkpt>
			<trkpt lat="54.716520" lon="21.329120"><ele>8.6</ele><time>2026-07-15T03:54:10Z</time></trkpt>
			<trkpt lat="54.716510" lon="21.328480"><ele>6.4</ele><time>2026-07-15T03:54:18Z</time></trkpt>
			<trkpt lat="54.716550" lon="21.327910"><ele>5.3</ele><time>2026-07-15T03:54:25Z</time></trkpt>
			<trkpt lat="54.716750" lon="21.327350"><ele>4.9</ele><time>2026-07-15T03:54:33Z</time></trkpt>
			<trkpt lat="54.717560" lon="21.325480"><ele>5.8</ele><time>2026-07-15T03:54:41Z</time></trkpt>
			<trkpt lat="54.718280" lon="21.323530"><ele>7.0</ele><time>2026-07-15T03:54:49Z</time></trkpt>
			<trkpt lat="54.718730" lon="21.322040"><ele>8.4</ele><time>2026-07-15T03:54:57Z</time></trkpt>
			<trkpt lat="54.718900" lon="21.321610"><ele>8.7</ele><time>2026-07-15T03:55:05Z</time></trkpt>
			<trkpt lat="54.718990" lon="21.321370"><ele>9.0</ele><time>2026-07-15T03:55:13Z</time></trkpt>
			<trkpt lat="54.719600" lon="21.320110"><ele>9.7</ele><time>2026-07-15T03:55:21Z</time></trkpt>
			<trkpt lat="54.719840" lon="21.319500"><ele>8.8</ele><time>2026-07-15T03:55:29Z</time></trkpt>
			<trkpt lat="54.720140" lon="21.318820"><ele>8.3</ele><time>2026-07-15T03:55:37Z</time></trkpt>
			<trkpt lat="54.720480" lon="21.318210"><ele>8.6</ele><time>2026-07-15T03:55:45Z</time></trkpt>
			<trkpt lat="54.720750" lon="21.317870"><ele>8.7</ele><time>2026-07-15T03:55:53Z</time></trkpt>
			<trkpt lat="54.721050" lon="21.317610"><ele>8.9</ele><time>2026-07-15T03:56:01Z</time></trkpt>
			<trkpt lat="54.721450" lon="21.317440"><ele>9.5</ele><time>2026-07-15T03:56:09Z</time></trkpt>
			<trkpt lat="54.722300" lon="21.317250"><ele>9.9</ele><time>2026-07-15T03:56:16Z</time></trkpt>
			<trkpt lat="54.722820" lon="21.317200"><ele>10.3</ele><time>2026-07-15T03:56:24Z</time></trkpt>
			<trkpt lat="54.725060" lon="21.317370"><ele>9.7</ele><time>2026-07-15T03:56:32Z</time></trkpt>
			<trkpt lat="54.727370" lon="21.317490"><ele>11.8</ele><time>2026-07-15T03:56:40Z</time></trkpt>
			<trkpt lat="54.730320" lon="21.317560"><ele>11.6</ele><time>2026-07-15T03:56:48Z</time></trkpt>
			<trkpt lat="54.732670" lon="21.317420"><ele>11.0</ele><time>2026-07-15T03:56:56Z</time></trkpt>
			<trkpt lat="54.732880" lon="21.317340"><ele>11.3</ele><time>2026-07-15T03:57:04Z</time></trkpt>
			<trkpt lat="54.733190" lon="21.317080"><ele>11.8</ele><time>2026-07-15T03:57:12Z</time></trkpt>
			<trkpt lat="54.733910" lon="21.316320"><ele>11.8</ele><time>2026-07-15T03:57:20Z</time></trkpt>
			<trkpt lat="54.734300" lon="21.315870"><ele>11.6</ele><time>2026-07-15T03:57:28Z</time></trkpt>
			<trkpt lat="54.734460" lon="21.315790"><ele>11.3</ele><time>2026-07-15T03:57:36Z</time></trkpt>
			<trkpt lat="54.734580" lon="21.315800"><ele>11.0</ele><time>2026-07-15T03:57:44Z</time></trkpt>
			<trkpt lat="54.734710" lon="21.315900"><ele>10.7</ele><time>2026-07-15T03:57:52Z</time></trkpt>
			<trkpt lat="54.734830" lon="21.316050"><ele>10.4</ele><time>2026-07-15T03:58:00Z</time></trkpt>
			<trkpt lat="54.734980" lon="21.316130"><ele>10.1</ele><time>2026-07-15T03:58:07Z</time></trkpt>
			<trkpt lat="54.735110" lon="21.316160"><ele>10.0</ele><time>2026-07-15T03:58:15Z</time></trkpt>
			<trkpt lat="54.735350" lon="21.316040"><ele>10.0</ele><time>2026-07-15T03:58:23Z</time></trkpt>
			<trkpt lat="54.735760" lon="21.315780"><ele>10.0</ele><time>2026-07-15T03:58:31Z</time></trkpt>
			<trkpt lat="54.736110" lon="21.315530"><ele>9.8</ele><time>2026-07-15T03:58:39Z</time></trkpt>
			<trkpt lat="54.736290" lon="21.315350"><ele>9.8</ele><time>2026-07-15T03:58:47Z</time></trkpt>
			<trkpt lat="54.736400" lon="21.315140"><ele>9.9</ele><time>2026-07-15T03:58:55Z</time></trkpt>
			<trkpt lat="54.736500" lon="21.314850"><ele>10.0</ele><time>2026-07-15T03:59:03Z</time></trkpt>
			<trkpt lat="54.736580" lon="21.314130"><ele>10.0</ele><time>2026-07-15T03:59:11Z</time></trkpt>
			<trkpt lat="54.736680" lon="21.313100"><ele>10.3</ele><time>2026-07-15T03:59:19Z</time></trkpt>
			<trkpt lat="54.736780" lon="21.312590"><ele>10.2</ele><time>2026-07-15T03:59:27Z</time></trkpt>
			<trkpt lat="54.736960" lon="21.312140"><ele>8.8</ele><time>2026-07-15T03:59:35Z</time></trkpt>
			<trkpt lat="54.737380" lon="21.311350"><ele>6.3</ele><time>2026-07-15T03:59:43Z</time></trkpt>
			<trkpt lat="54.737600" lon="21.311010"><ele>6.2</ele><time>2026-07-15T03:59:51Z</time></trkpt>
			<trkpt lat="54.738090" lon="21.310460"><ele>7.8</ele><time>2026-07-15T03:59:58Z</time></trkpt>
			<trkpt lat="54.742680" lon="21.305870"><ele>8.4</ele><time>2026-07-15T04:00:06Z</time></trkpt>
			<trkpt lat="54.742960" lon="21.305450"><ele>9.2</ele><time>2026-07-15T04:00:14Z</time></trkpt>
			<trkpt lat="54.744530" lon="21.302830"><ele>11.0</ele><time>2026-07-15T04:00:22Z</time></trkpt>
			<trkpt lat="54.746740" lon="21.299010"><ele>12.0</ele><time>2026-07-15T04:00:30Z</time></trkpt>
			<trkpt lat="54.746880" lon="21.298680"><ele>12.2</ele><time>2026-07-15T04:00:38Z</time></trkpt>
			<trkpt lat="54.747000" lon="21.298250"><ele>12.5</ele><time>2026-07-15T04:00:46Z</time></trkpt>
			<trkpt lat="54.747220" lon="21.297620"><ele>13.6</ele><time>2026-07-15T04:00:54Z</time></trkpt>
			<trkpt lat="54.747360" lon="21.297100"><ele>14.1</ele><time>2026-07-15T04:01:02Z</time></trkpt>
			<trkpt lat="54.747620" lon="21.295880"><ele>13.3</ele><time>2026-07-15T04:01:10Z</time></trkpt>
			<trkpt lat="54.747700" lon="21.295380"><ele>13.1</ele><time>2026-07-15T04:01:18Z</time></trkpt>
			<trkpt lat="54.747860" lon="21.294830"><ele>13.2</ele><time>2026-07-15T04:01:26Z</time></trkpt>
			<trkpt lat="54.748710" lon="21.292920"><ele>13.5</ele><time>2026-07-15T04:01:34Z</time></trkpt>
			<trkpt lat="54.749040" lon="21.292260"><ele>14.3</ele><time>2026-07-15T04:01:42Z</time></trkpt>
			<trkpt lat="54.749410" lon="21.291600"><ele>14.0</ele><time>2026-07-15T04:01:49Z</time></trkpt>
			<trkpt lat="54.750230" lon="21.290280"><ele>13.8</ele><time>2026-07-15T04:01:57Z</time></trkpt>
			<trkpt lat="54.751970" lon="21.287380"><ele>13.8</ele><time>2026-07-15T04:02:05Z</time></trkpt>
			<trkpt lat="54.755930" lon="21.280640"><ele>10.0</ele><time>2026-07-15T04:02:13Z</time></trkpt>
			<trkpt lat="54.757530" lon="21.277830"><ele>9.4</ele><time>2026-07-15T04:02:21Z</time></trkpt>
			<trkpt lat="54.757580" lon="21.277750"><ele>9.3</ele><time>2026-07-15T04:02:29Z</time></trkpt>
			<trkpt lat="54.758010" lon="21.276990"><ele>9.0</ele><time>2026-07-15T04:02:37Z</time></trkpt>
			<trkpt lat="54.758400" lon="21.276300"><ele>8.5</ele><time>2026-07-15T04:02:45Z</time></trkpt>
			<trkpt lat="54.759470" lon="21.274800"><ele>8.1</ele><time>2026-07-15T04:02:53Z</time></trkpt>
			<trkpt lat="54.765810" lon="21.265860"><ele>9.0</ele><time>2026-07-15T04:03:01Z</time></trkpt>
			<trkpt lat="54.768470" lon="21.261990"><ele>6.8</ele><time>2026-07-15T04:03:09Z</time></trkpt>
			<trkpt lat="54.768920" lon="21.261350"><ele>6.5</ele><time>2026-07-15T04:03:17Z</time></trkpt>
			<trkpt lat="54.770160" lon="21.259570"><ele>11.5</ele><time>2026-07-15T04:03:25Z</time></trkpt>
			<trkpt lat="54.770470" lon="21.259160"><ele>13.6</ele><time>2026-07-15T04:03:33Z</time></trkpt>
			<trkpt lat="54.771030" lon="21.258510"><ele>14.5</ele><time>2026-07-15T04:03:40Z</time></trkpt>
			<trkpt lat="54.773980" lon="21.255490"><ele>13.7</ele><time>2026-07-15T04:03:48Z</time></trkpt>
			<trkpt lat="54.776160" lon="21.253150"><ele>16.7</ele><time>2026-07-15T04:03:56Z</time></trkpt>
			<trkpt lat="54.778340" lon="21.250840"><ele>14.8</ele><time>2026-07-15T04:04:04Z</time></trkpt>
			<trkpt lat="54.780210" lon="21.248890"><ele>12.4</ele><time>2026-07-15T04:04:12Z</time></trkpt>
			<trkpt lat="54.781180" lon="21.247850"><ele>13.9</ele><time>2026-07-15T04:04:20Z</time></trkpt>
			<trkpt lat="54.781560" lon="21.247490"><ele>12.3</ele><time>2026-07-15T04:04:28Z</time></trkpt>
			<trkpt lat="54.781950" lon="21.247190"><ele>10.2</ele><time>2026-07-15T04:04:36Z</time></trkpt>
			<trkpt lat="54.784150" lon="21.245840"><ele>8.6</ele><time>2026-07-15T04:04:44Z</time></trkpt>
			<trkpt lat="54.785500" lon="21.244990"><ele>9.7</ele><time>2026-07-15T04:04:52Z</time></trkpt>
			<trkpt lat="54.786360" lon="21.244420"><ele>12.1</ele><time>2026-07-15T04:05:00Z</time></trkpt>
			<trkpt lat="54.791000" lon="21.241210"><ele>9.6</ele><time>2026-07-15T04:05:08Z</time></trkpt>
			<trkpt lat="54.791870" lon="21.240770"><ele>8.2</ele><time>2026-07-15T04:05:16Z</time></trkpt>
			<trkpt lat="54.792210" lon="21.240700"><ele>8.5</ele><time>2026-07-15T04:05:24Z</time></trkpt>
			<trkpt lat="54.792710" lon="21.240550"><ele>8.3</ele><time>2026-07-15T04:05:31Z</time></trkpt>
			<trkpt lat="54.792980" lon="21.241130"><ele>7.9</ele><time>2026-07-15T04:05:39Z</time></trkpt>
			<trkpt lat="54.793310" lon="21.241670"><ele>7.8</ele><time>2026-07-15T04:05:47Z</time></trkpt>
			<trkpt lat="54.793740" lon="21.241930"><ele>7.4</ele><time>2026-07-15T04:05:55Z</time></trkpt>
			<trkpt lat="54.794390" lon="21.242100"><ele>6.9</ele><time>2026-07-15T04:06:03Z</time></trkpt>
			<trkpt lat="54.794540" lon="21.242060"><ele>6.8</ele><time>2026-07-15T04:06:11Z</time></trkpt>
			<trkpt lat="54.795140" lon="21.241890"><ele>6.6</ele><time>2026-07-15T04:06:19Z</time></trkpt>
			<trkpt lat="54.797830" lon="21.240830"><ele>7.6</ele><time>2026-07-15T04:06:27Z</time></trkpt>
			<trkpt lat="54.798900" lon="21.240190"><ele>6.3</ele><time>2026-07-15T04:06:35Z</time></trkpt>
			<trkpt lat="54.801560" lon="21.238300"><ele>4.7</ele><time>2026-07-15T04:06:43Z</time></trkpt>
			<trkpt lat="54.804630" lon="21.236080"><ele>7.6</ele><time>2026-07-15T04:06:51Z</time></trkpt>
			<trkpt lat="54.806280" lon="21.235230"><ele>5.6</ele><time>2026-07-15T04:06:59Z</time></trkpt>
			<trkpt lat="54.810910" lon="21.232940"><ele>3.2</ele><time>2026-07-15T04:07:07Z</time></trkpt>
			<trkpt lat="54.815370" lon="21.230630"><ele>7.2</ele><time>2026-07-15T04:07:15Z</time></trkpt>
			<trkpt lat="54.816450" lon="21.231100"><ele>7.4</ele><time>2026-07-15T04:07:22Z</time></trkpt>
			<trkpt lat="54.821680" lon="21.233640"><ele>6.0</ele><time>2026-07-15T04:07:30Z</time></trkpt>
			<trkpt lat="54.823270" lon="21.234340"><ele>6.0</ele><time>2026-07-15T04:07:38Z</time></trkpt>
			<trkpt lat="54.824460" lon="21.234780"><ele>5.8</ele><time>2026-07-15T04:07:46Z</time></trkpt>
			<trkpt lat="54.825370" lon="21.234820"><ele>6.3</ele><time>2026-07-15T04:07:54Z</time></trkpt>
			<trkpt lat="54.826860" lon="21.234730"><ele>5.5</ele><time>2026-07-15T04:08:02Z</time></trkpt>
			<trkpt lat="54.828010" lon="21.234800"><ele>4.7</ele><time>2026-07-15T04:08:10Z</time></trkpt>
			<trkpt lat="54.828440" lon="21.234930"><ele>5.0</ele><time>2026-07-15T04:08:18Z</time></trkpt>
			<trkpt lat="54.829570" lon="21.235230"><ele>5.7</ele><time>2026-07-15T04:08:26Z</time></trkpt>
			<trkpt lat="54.829840" lon="21.235350"><ele>5.0</ele><time>2026-07-15T04:08:34Z</time></trkpt>
			<trkpt lat="54.829970" lon="21.235440"><ele>4.6</ele><time>2026-07-15T04:08:42Z</time></trkpt>
			<trkpt lat="54.830110" lon="21.235570"><ele>4.1</ele><time>2026-07-15T04:08:50Z</time></trkpt>
			<trkpt lat="54.830340" lon="21.235820"><ele>3.1</ele><time>2026-07-15T04:08:58Z</time></trkpt>
			<trkpt lat="54.831390" lon="21.237170"><ele>0.7</ele><time>2026-07-15T04:09:06Z</time></trkpt>
			<trkpt lat="54.831630" lon="21.237520"><ele>1.0</ele><time>2026-07-15T04:09:14Z</time></trkpt>
			<trkpt lat="54.832050" lon="21.238220"><ele>2.2</ele><time>2026-07-15T04:09:21Z</time></trkpt>
			<trkpt lat="54.832310" lon="21.238580"><ele>2.5</ele><time>2026-07-15T04:09:29Z</time></trkpt>
			<trkpt lat="54.832400" lon="21.238700"><ele>2.5</ele><time>2026-07-15T04:09:37Z</time></trkpt>
			<trkpt lat="54.832650" lon="21.238950"><ele>2.4</ele><time>2026-07-15T04:09:45Z</time></trkpt>
			<trkpt lat="54.833050" lon="21.239270"><ele>2.8</ele><time>2026-07-15T04:09:53Z</time></trkpt>
			<trkpt lat="54.833470" lon="21.239530"><ele>3.3</ele><time>2026-07-15T04:10:01Z</time></trkpt>
			<trkpt lat="54.834830" lon="21.235080"><ele>0.2</ele><time>2026-07-15T04:10:09Z</time></trkpt>
			<trkpt lat="54.836140" lon="21.230790"><ele>0.2</ele><time>2026-07-15T04:10:17Z</time></trkpt>
			<trkpt lat="54.836140" lon="21.230790"><ele>0.2</ele><time>2026-07-15T04:10:22Z</time></trkpt>
			<trkpt lat="54.836680" lon="21.229030"><ele>0.0</ele><time>2026-07-15T04:10:26Z</time></trkpt>
			<trkpt lat="54.837130" lon="21.227560"><ele>-0.5</ele><time>2026-07-15T04:10:31Z</time></trkpt>
			<trkpt lat="54.838100" lon="21.224820"><ele>-1.4</ele><time>2026-07-15T04:10:36Z</time></trkpt>
			<trkpt lat="54.838400" lon="21.224030"><ele>-1.7</ele><time>2026-07-15T04:10:40Z</time></trkpt>
			<trkpt lat="54.842100" lon="21.214000"><ele>1.0</ele><time>2026-07-15T04:10:45Z</time></trkpt>
			<trkpt lat="54.842500" lon="21.212580"><ele>0.1</ele><time>2026-07-15T04:10:50Z</time></trkpt>
			<trkpt lat="54.842830" lon="21.211340"><ele>-0.8</ele><time>2026-07-15T04:10:54Z</time></trkpt>
			<trkpt lat="54.843010" lon="21.210300"><ele>-0.4</ele><time>2026-07-15T04:10:59Z</time></trkpt>
			<trkpt lat="54.843270" lon="21.208700"><ele>0.3</ele><time>2026-07-15T04:11:04Z</time></trkpt>
			<trkpt lat="54.843420" lon="21.207810"><ele>-0.3</ele><time>2026-07-15T04:11:09Z</time></trkpt>
			<trkpt lat="54.843670" lon="21.205840"><ele>-0.5</ele><time>2026-07-15T04:11:13Z</time></trkpt>
			<trkpt lat="54.843850" lon="21.204190"><ele>-1.2</ele><time>2026-07-15T04:11:18Z</time></trkpt>
			<trkpt lat="54.843890" lon="21.203450"><ele>-2.2</ele><time>2026-07-15T04:11:23Z</time></trkpt>
			<trkpt lat="54.843950" lon="21.202190"><ele>-2.6</ele><time>2026-07-15T04:11:27Z</time></trkpt>
			<trkpt lat="54.843860" lon="21.195830"><ele>-1.5</ele><time>2026-07-15T04:11:32Z</time></trkpt>
			<trkpt lat="54.843880" lon="21.195590"><ele>-1.1</ele><time>2026-07-15T04:11:37Z</time></trkpt>
			<trkpt lat="54.843900" lon="21.195400"><ele>-0.8</ele><time>2026-07-15T04:11:41Z</time></trkpt>
			<trkpt lat="54.843930" lon="21.195210"><ele>-0.5</ele><time>2026-07-15T04:11:46Z</time></trkpt>
			<trkpt lat="54.843990" lon="21.195010"><ele>-0.1</ele><time>2026-07-15T04:11:51Z</time></trkpt>
			<trkpt lat="54.844050" lon="21.194860"><ele>0.2</ele><time>2026-07-15T04:11:55Z</time></trkpt>
			<trkpt lat="54.844140" lon="21.194690"><ele>0.2</ele><time>2026-07-15T04:12:00Z</time></trkpt>
			<trkpt lat="54.844750" lon="21.193740"><ele>-0.4</ele><time>2026-07-15T04:12:05Z</time></trkpt>
			<trkpt lat="54.844890" lon="21.193530"><ele>-0.4</ele><time>2026-07-15T04:12:10Z</time></trkpt>
			<trkpt lat="54.845110" lon="21.193200"><ele>0.0</ele><time>2026-07-15T04:12:14Z</time></trkpt>
			<trkpt lat="54.845220" lon="21.193040"><ele>-0.0</ele><time>2026-07-15T04:12:19Z</time></trkpt>
			<trkpt lat="54.845380" lon="21.192850"><ele>-0.1</ele><time>2026-07-15T04:12:24Z</time></trkpt>
			<trkpt lat="54.845550" lon="21.192700"><ele>-0.4</ele><time>2026-07-15T04:12:28Z</time></trkpt>
			<trkpt lat="54.845700" lon="21.192610"><ele>-0.7</ele><time>2026-07-15T04:12:33Z</time></trkpt>
			<trkpt lat="54.845830" lon="21.192570"><ele>-0.7</ele><time>2026-07-15T04:12:38Z</time></trkpt>
			<trkpt lat="54.846100" lon="21.192520"><ele>-0.4</ele><time>2026-07-15T04:12:42Z</time></trkpt>
			<trkpt lat="54.846890" lon="21.192460"><ele>0.4</ele><time>2026-07-15T04:12:47Z</time></trkpt>
			<trkpt lat="54.847420" lon="21.192400"><ele>-0.8</ele><time>2026-07-15T04:12:52Z</time></trkpt>
			<trkpt lat="54.847850" lon="21.192220"><ele>-0.9</ele><time>2026-07-15T04:12:56Z</time></trkpt>
			<trkpt lat="54.848280" lon="21.191910"><ele>-0.4</ele><time>2026-07-15T04:13:01Z</time></trkpt>
			<trkpt lat="54.848800" lon="21.191420"><ele>-0.0</ele><time>2026-07-15T04:13:06Z</time></trkpt>
			<trkpt lat="54.849620" lon="21.190530"><ele>0.1</ele><time>2026-07-15T04:13:11Z</time></trkpt>
			<trkpt lat="54.852120" lon="21.187950"><ele>-0.4</ele><time>2026-07-15T04:13:15Z</time></trkpt>
			<trkpt lat="54.855380" lon="21.184590"><ele>1.5</ele><time>2026-07-15T04:13:20Z</time></trkpt>
			<trkpt lat="54.855610" lon="21.184330"><ele>1.7</ele><time>2026-07-15T04:13:25Z</time></trkpt>
			<trkpt lat="54.855970" lon="21.183940"><ele>2.7</ele><time>2026-07-15T04:13:29Z</time></trkpt>
			<trkpt lat="54.856640" lon="21.183140"><ele>5.9</ele><time>2026-07-15T04:13:34Z</time></trkpt>
			<trkpt lat="54.857400" lon="21.182100"><ele>3.4</ele><time>2026-07-15T04:13:39Z</time></trkpt>
			<trkpt lat="54.857990" lon="21.181270"><ele>1.5</ele><time>2026-07-15T04:13:43Z</time></trkpt>
			<trkpt lat="54.858480" lon="21.180500"><ele>0.9</ele><time>2026-07-15T04:13:48Z</time></trkpt>
			<trkpt lat="54.859030" lon="21.179520"><ele>2.2</ele><time>2026-07-15T04:13:53Z</time></trkpt>
			<trkpt lat="54.859360" lon="21.178680"><ele>2.9</ele><time>2026-07-15T04:13:58Z</time></trkpt>
			<trkpt lat="54.859590" lon="21.177930"><ele>2.5</ele><time>2026-07-15T04:14:02Z</time></trkpt>
			<trkpt lat="54.859830" lon="21.176760"><ele>2.7</ele><time>2026-07-15T04:14:07Z</time></trkpt>
			<trkpt lat="54.860310" lon="21.174110"><ele>-0.4</ele><time>2026-07-15T04:14:12Z</time></trkpt>
			<trkpt lat="54.860390" lon="21.173530"><ele>-0.9</ele><time>2026-07-15T04:14:16Z</time></trkpt>
			<trkpt lat="54.860470" lon="21.172680"><ele>-1.2</ele><time>2026-07-15T04:14:21Z</time></trkpt>
			<trkpt lat="54.860570" lon="21.172180"><ele>-1.3</ele><time>2026-07-15T04:14:26Z</time></trkpt>
			<trkpt lat="54.860890" lon="21.170760"><ele>-0.9</ele><time>2026-07-15T04:14:30Z</time></trkpt>
			<trkpt lat="54.861360" lon="21.168520"><ele>-0.6</ele><time>2026-07-15T04:14:35Z</time></trkpt>
			<trkpt lat="54.862090" lon="21.164560"><ele>-0.7</ele><time>2026-07-15T04:14:40Z</time></trkpt>
			<trkpt lat="54.862270" lon="21.163740"><ele>-0.4</ele><time>2026-07-15T04:14:44Z</time></trkpt>
			<trkpt lat="54.862430" lon="21.163270"><ele>-0.2</ele><time>2026-07-15T04:14:49Z</time></trkpt>
			<trkpt lat="54.862960" lon="21.162070"><ele>-0.7</ele><time>2026-07-15T04:14:54Z</time></trkpt>
			<trkpt lat="54.863170" lon="21.161390"><ele>-0.6</ele><time>2026-07-15T04:14:59Z</time></trkpt>
			<trkpt lat="54.863320" lon="21.160550"><ele>-0.4</ele><time>2026-07-15T04:15:03Z</time></trkpt>
			<trkpt lat="54.863380" lon="21.160060"><ele>-0.9</ele><time>2026-07-15T04:15:08Z</time></trkpt>
			<trkpt lat="54.863610" lon="21.157990"><ele>-1.5</ele><time>2026-07-15T04:15:13Z</time></trkpt>
			<trkpt lat="54.863970" lon="21.154180"><ele>-3.1</ele><time>2026-07-15T04:15:17Z</time></trkpt>
			<trkpt lat="54.864190" lon="21.152030"><ele>-1.5</ele><time>2026-07-15T04:15:22Z</time></trkpt>
			<trkpt lat="54.864210" lon="21.151340"><ele>-1.5</ele><time>2026-07-15T04:15:27Z</time></trkpt>
			<trkpt lat="54.864190" lon="21.150880"><ele>-1.7</ele><time>2026-07-15T04:15:31Z</time></trkpt>
			<trkpt lat="54.864060" lon="21.149470"><ele>-0.4</ele><time>2026-07-15T04:15:36Z</time></trkpt>
			<trkpt lat="54.863890" lon="21.147550"><ele>-0.4</ele><time>2026-07-15T04:15:41Z</time></trkpt>
			<trkpt lat="54.863850" lon="21.146920"><ele>-2.0</ele><time>2026-07-15T04:15:45Z</time></trkpt>
			<trkpt lat="54.863830" lon="21.145560"><ele>-3.1</ele><time>2026-07-15T04:15:50Z</time></trkpt>
			<trkpt lat="54.863820" lon="21.142990"><ele>-1.8</ele><time>2026-07-15T04:15:55Z</time></trkpt>
			<trkpt lat="54.863840" lon="21.142370"><ele>-1.5</ele><time>2026-07-15T04:16:00Z</time></trkpt>
			<trkpt lat="54.863890" lon="21.141910"><ele>-1.6</ele><time>2026-07-15T04:16:04Z</time></trkpt>
			<trkpt lat="54.863990" lon="21.141130"><ele>-1.9</ele><time>2026-07-15T04:16:09Z</time></trkpt>
			<trkpt lat="54.864150" lon="21.140210"><ele>-2.0</ele><time>2026-07-15T04:16:14Z</time></trkpt>
			<trkpt lat="54.865120" lon="21.134220"><ele>-1.4</ele><time>2026-07-15T04:16:18Z</time></trkpt>
			<trkpt lat="54.865170" lon="21.133880"><ele>-1.5</ele><time>2026-07-15T04:16:23Z</time></trkpt>
			<trkpt lat="54.866080" lon="21.129100"><ele>-1.6</ele><time>2026-07-15T04:16:28Z</time></trkpt>
			<trkpt lat="54.866560" lon="21.125860"><ele>-2.1</ele><time>2026-07-15T04:16:32Z</time></trkpt>
			<trkpt lat="54.866650" lon="21.125280"><ele>-1.4</ele><time>2026-07-15T04:16:37Z</time></trkpt>
			<trkpt lat="54.866690" lon="21.124980"><ele>-1.0</ele><time>2026-07-15T04:16:42Z</time></trkpt>
			<trkpt lat="54.866720" lon="21.124610"><ele>-0.5</ele><time>2026-07-15T04:16:46Z</time></trkpt>
			<trkpt lat="54.866770" lon="21.124130"><ele>-0.2</ele><time>2026-07-15T04:16:51Z</time></trkpt>
			<trkpt lat="54.866750" lon="21.123160"><ele>-0.1</ele><time>2026-07-15T04:16:56Z</time></trkpt>
			<trkpt lat="54.866640" lon="21.122470"><ele>-0.2</ele><time>2026-07-15T04:17:01Z</time></trkpt>
			<trkpt lat="54.866530" lon="21.121860"><ele>-0.7</ele><time>2026-07-15T04:17:05Z</time></trkpt>
			<trkpt lat="54.866360" lon="21.121000"><ele>0.1</ele><time>2026-07-15T04:17:10Z</time></trkpt>
			<trkpt lat="54.866230" lon="21.120500"><ele>0.8</ele><time>2026-07-15T04:17:15Z</time></trkpt>
			<trkpt lat="54.865790" lon="21.119300"><ele>2.1</ele><time>2026-07-15T04:17:19Z</time></trkpt>
			<trkpt lat="54.865380" lon="21.118100"><ele>-0.4</ele><time>2026-07-15T04:17:24Z</time></trkpt>
			<trkpt lat="54.865280" lon="21.117820"><ele>-0.2</ele><time>2026-07-15T04:17:29Z</time></trkpt>
			<trkpt lat="54.865090" lon="21.117340"><ele>-0.3</ele><time>2026-07-15T04:17:33Z</time></trkpt>
			<trkpt lat="54.864920" lon="21.116900"><ele>-0.1</ele><time>2026-07-15T04:17:38Z</time></trkpt>
			<trkpt lat="54.864700" lon="21.116370"><ele>0.3</ele><time>2026-07-15T04:17:43Z</time></trkpt>
			<trkpt lat="54.864520" lon="21.115890"><ele>-0.2</ele><time>2026-07-15T04:17:47Z</time></trkpt>
			<trkpt lat="54.864280" lon="21.115140"><ele>-3.4</ele><time>2026-07-15T04:17:52Z</time></trkpt>
			<trkpt lat="54.863930" lon="21.114080"><ele>-3.6</ele><time>2026-07-15T04:17:57Z</time></trkpt>
			<trkpt lat="54.863870" lon="21.113890"><ele>-3.1</ele><time>2026-07-15T04:18:02Z</time></trkpt>
			<trkpt lat="54.863810" lon="21.113660"><ele>-2.3</ele><time>2026-07-15T04:18:06Z</time></trkpt>
			<trkpt lat="54.863360" lon="21.112240"><ele>-1.1</ele><time>2026-07-15T04:18:11Z</time></trkpt>
			<trkpt lat="54.863220" lon="21.111810"><ele>-0.9</ele><time>2026-07-15T04:18:16Z</time></trkpt>
			<trkpt lat="54.862950" lon="21.110950"><ele>0.9</ele><time>2026-07-15T04:18:20Z</time></trkpt>
			<trkpt lat="54.862920" lon="21.110850"><ele>1.1</ele><time>2026-07-15T04:18:25Z</time></trkpt>
			<trkpt lat="54.862860" lon="21.110670"><ele>1.5</ele><time>2026-07-15T04:18:30Z</time></trkpt>
			<trkpt lat="54.862770" lon="21.110510"><ele>1.8</ele><time>2026-07-15T04:18:34Z</time></trkpt>
			<trkpt lat="54.862550" lon="21.110360"><ele>2.2</ele><time>2026-07-15T04:18:39Z</time></trkpt>
			<trkpt lat="54.862430" lon="21.110290"><ele>2.3</ele><time>2026-07-15T04:18:44Z</time></trkpt>
			<trkpt lat="54.862280" lon="21.110190"><ele>2.3</ele><time>2026-07-15T04:18:48Z</time></trkpt>
			<trkpt lat="54.861540" lon="21.109670"><ele>2.8</ele><time>2026-07-15T04:18:53Z</time></trkpt>
			<trkpt lat="54.860940" lon="21.109310"><ele>3.1</ele><time>2026-07-15T04:18:58Z</time></trkpt>
			<trkpt lat="54.860830" lon="21.109220"><ele>2.9</ele><time>2026-07-15T04:19:03Z</time></trkpt>
			<trkpt lat="54.860770" lon="21.109160"><ele>2.7</ele><time>2026-07-15T04:19:07Z</time></trkpt>
			<trkpt lat="54.860630" lon="21.109020"><ele>2.4</ele><time>2026-07-15T04:19:12Z</time></trkpt>
			<trkpt lat="54.860550" lon="21.108890"><ele>2.1</ele><time>2026-07-15T04:19:17Z</time></trkpt>
			<trkpt lat="54.860550" lon="21.108890"><ele>2.1</ele><time>2026-07-15T04:19:23Z</time></trkpt>
			<trkpt lat="54.860460" lon="21.108760"><ele>1.8</ele><time>2026-07-15T04:19:29Z</time></trkpt>
			<trkpt lat="54.860410" lon="21.108660"><ele>1.6</ele><time>2026-07-15T04:19:35Z</time></trkpt>
			<trkpt lat="54.860360" lon="21.108570"><ele>1.4</ele><time>2026-07-15T04:19:41Z</time></trkpt>
			<trkpt lat="54.860010" lon="21.107630"><ele>1.0</ele><time>2026-07-15T04:19:47Z</time></trkpt>
			<trkpt lat="54.859830" lon="21.107120"><ele>0.9</ele><time>2026-07-15T04:19:53Z</time></trkpt>
			<trkpt lat="54.859820" lon="21.107090"><ele>0.9</ele><time>2026-07-15T04:19:59Z</time></trkpt>
			<trkpt lat="54.859480" lon="21.106120"><ele>2.1</ele><time>2026-07-15T04:20:05Z</time></trkpt>
			<trkpt lat="54.859430" lon="21.105960"><ele>2.5</ele><time>2026-07-15T04:20:12Z</time></trkpt>
			<trkpt lat="54.859310" lon="21.105630"><ele>2.6</ele><time>2026-07-15T04:20:18Z</time></trkpt>
			<trkpt lat="54.859200" lon="21.105330"><ele>2.4</ele><time>2026-07-15T04:20:24Z</time></trkpt>
			<trkpt lat="54.858930" lon="21.104690"><ele>2.1</ele><time>2026-07-15T04:20:30Z</time></trkpt>
			<trkpt lat="54.858690" lon="21.104200"><ele>2.4</ele><time>2026-07-15T04:20:36Z</time></trkpt>
			<trkpt lat="54.858400" lon="21.103610"><ele>2.2</ele><time>2026-07-15T04:20:42Z</time></trkpt>
			<trkpt lat="54.858340" lon="21.103480"><ele>2.1</ele><time>2026-07-15T04:20:48Z</time></trkpt>
			<trkpt lat="54.858170" lon="21.103120"><ele>2.1</ele><time>2026-07-15T04:20:54Z</time></trkpt>
			<trkpt lat="54.857960" lon="21.102670"><ele>2.1</ele><time>2026-07-15T04:21:00Z</time></trkpt>
			<trkpt lat="54.857920" lon="21.102580"><ele>2.1</ele><time>2026-07-15T04:21:07Z</time></trkpt>
			<trkpt lat="54.857810" lon="21.102290"><ele>2.2</ele><time>2026-07-15T04:21:13Z</time></trkpt>
			<trkpt lat="54.857380" lon="21.101080"><ele>3.1</ele><time>2026-07-15T04:21:19Z</time></trkpt>
			<trkpt lat="54.857150" lon="21.100490"><ele>3.8</ele><time>2026-07-15T04:21:25Z</time></trkpt>
			<trkpt lat="54.857060" lon="21.100270"><ele>4.2</ele><time>2026-07-15T04:21:31Z</time></trkpt>
			<trkpt lat="54.856350" lon="21.098390"><ele>2.3</ele><time>2026-07-15T04:21:37Z</time></trkpt>
			<trkpt lat="54.856250" lon="21.098150"><ele>1.8</ele><time>2026-07-15T04:21:43Z</time></trkpt>
			<trkpt lat="54.856070" lon="21.097630"><ele>1.1</ele><time>2026-07-15T04:21:49Z</time></trkpt>
			<trkpt lat="54.855920" lon="21.097220"><ele>1.0</ele><time>2026-07-15T04:21:55Z</time></trkpt>
			<trkpt lat="54.855770" lon="21.096830"><ele>1.1</ele><time>2026-07-15T04:22:02Z</time></trkpt>
			<trkpt lat="54.855610" lon="21.096400"><ele>1.3</ele><time>2026-07-15T04:22:08Z</time></trkpt>
			<trkpt lat="54.854990" lon="21.094830"><ele>1.9</ele><time>2026-07-15T04:22:14Z</time></trkpt>
			<trkpt lat="54.854690" lon="21.094060"><ele>2.4</ele><time>2026-07-15T04:22:20Z</time></trkpt>
			<trkpt lat="54.854450" lon="21.093430"><ele>2.6</ele><time>2026-07-15T04:22:26Z</time></trkpt>
			<trkpt lat="54.854420" lon="21.093340"><ele>2.7</ele><time>2026-07-15T04:22:32Z</time></trkpt>
			<trkpt lat="54.854280" lon="21.092990"><ele>2.8</ele><time>2026-07-15T04:22:38Z</time></trkpt>
			<trkpt lat="54.854200" lon="21.092780"><ele>2.9</ele><time>2026-07-15T04:22:44Z</time></trkpt>
			<trkpt lat="54.854150" lon="21.092650"><ele>2.9</ele><time>2026-07-15T04:22:50Z</time></trkpt>
			<trkpt lat="54.853800" lon="21.091760"><ele>3.3</ele><time>2026-07-15T04:22:57Z</time></trkpt>
			<trkpt lat="54.853760" lon="21.091670"><ele>3.4</ele><time>2026-07-15T04:23:03Z</time></trkpt>
			<trkpt lat="54.853630" lon="21.091340"><ele>3.4</ele><time>2026-07-15T04:23:09Z</time></trkpt>
			<trkpt lat="54.853360" lon="21.090630"><ele>3.0</ele><time>2026-07-15T04:23:15Z</time></trkpt>
			<trkpt lat="54.853150" lon="21.090050"><ele>2.7</ele><time>2026-07-15T04:23:21Z</time></trkpt>
			<trkpt lat="54.852120" lon="21.087320"><ele>3.5</ele><time>2026-07-15T04:23:27Z</time></trkpt>
			<trkpt lat="54.851910" lon="21.086780"><ele>3.7</ele><time>2026-07-15T04:23:33Z</time></trkpt>
			<trkpt lat="54.851740" lon="21.086330"><ele>3.9</ele><time>2026-07-15T04:23:39Z</time></trkpt>
			<trkpt lat="54.850870" lon="21.084070"><ele>3.0</ele><time>2026-07-15T04:23:45Z</time></trkpt>
			<trkpt lat="54.850640" lon="21.083460"><ele>3.9</ele><time>2026-07-15T04:23:52Z</time></trkpt>
			<trkpt lat="54.850350" lon="21.082710"><ele>4.9</ele><time>2026-07-15T04:23:58Z</time></trkpt>
			<trkpt lat="54.850130" lon="21.082140"><ele>4.3</ele><time>2026-07-15T04:24:04Z</time></trkpt>
			<trkpt lat="54.849880" lon="21.081500"><ele>2.7</ele><time>2026-07-15T04:24:10Z</time></trkpt>
			<trkpt lat="54.849470" lon="21.080490"><ele>2.3</ele><time>2026-07-15T04:24:16Z</time></trkpt>
			<trkpt lat="54.849230" lon="21.079890"><ele>2.8</ele><time>2026-07-15T04:24:22Z</time></trkpt>
			<trkpt lat="54.848380" lon="21.077720"><ele>6.2</ele><time>2026-07-15T04:24:28Z</time></trkpt>
			<trkpt lat="54.847980" lon="21.076700"><ele>6.0</ele><time>2026-07-15T04:24:34Z</time></trkpt>
			<trkpt lat="54.844990" lon="21.069100"><ele>7.9</ele><time>2026-07-15T04:24:40Z</time></trkpt>
			<trkpt lat="54.843840" lon="21.066190"><ele>5.6</ele><time>2026-07-15T04:24:46Z</time></trkpt>
			<trkpt lat="54.843550" lon="21.065460"><ele>5.4</ele><time>2026-07-15T04:24:53Z</time></trkpt>
			<trkpt lat="54.842770" lon="21.063420"><ele>6.6</ele><time>2026-07-15T04:24:59Z</time></trkpt>
			<trkpt lat="54.842440" lon="21.062570"><ele>7.8</ele><time>2026-07-15T04:25:05Z</time></trkpt>
			<trkpt lat="54.842390" lon="21.062450"><ele>7.9</ele><time>2026-07-15T04:25:11Z</time></trkpt>
			<trkpt lat="54.842230" lon="21.061720"><ele>8.5</ele><time>2026-07-15T04:25:17Z</time></trkpt>
			<trkpt lat="54.842150" lon="21.061120"><ele>8.9</ele><time>2026-07-15T04:25:23Z</time></trkpt>
			<trkpt lat="54.841850" lon="21.058700"><ele>8.9</ele><time>2026-07-15T04:25:29Z</time></trkpt>
			<trkpt lat="54.841770" lon="21.058060"><ele>8.2</ele><time>2026-07-15T04:25:35Z</time></trkpt>
			<trkpt lat="54.841730" lon="21.057500"><ele>8.0</ele><time>2026-07-15T04:25:41Z</time></trkpt>
			<trkpt lat="54.841730" lon="21.056930"><ele>7.9</ele><time>2026-07-15T04:25:48Z</time></trkpt>
			<trkpt lat="54.841760" lon="21.056490"><ele>7.5</ele><time>2026-07-15T04:25:54Z</time></trkpt>
			<trkpt lat="54.842520" lon="21.048250"><ele>4.9</ele><time>2026-07-15T04:26:00Z</time></trkpt>
			<trkpt lat="54.843640" lon="21.036060"><ele>4.8</ele><time>2026-07-15T04:26:06Z</time></trkpt>
			<trkpt lat="54.843780" lon="21.034490"><ele>4.7</ele><time>2026-07-15T04:26:12Z</time></trkpt>
			<trkpt lat="54.843870" lon="21.033470"><ele>4.9</ele><time>2026-07-15T04:26:18Z</time></trkpt>
			<trkpt lat="54.844000" lon="21.031840"><ele>5.8</ele><time>2026-07-15T04:26:24Z</time></trkpt>
			<trkpt lat="54.844000" lon="21.031550"><ele>6.0</ele><time>2026-07-15T04:26:30Z</time></trkpt>
			<trkpt lat="54.844010" lon="21.030940"><ele>6.1</ele><time>2026-07-15T04:26:36Z</time></trkpt>
			<trkpt lat="54.844040" lon="21.030500"><ele>6.1</ele><time>2026-07-15T04:26:43Z</time></trkpt>
			<trkpt lat="54.844080" lon="21.030200"><ele>6.0</ele><time>2026-07-15T04:26:49Z</time></trkpt>
			<trkpt lat="54.844170" lon="21.029610"><ele>6.0</ele><time>2026-07-15T04:26:55Z</time></trkpt>
			<trkpt lat="54.844200" lon="21.029100"><ele>5.9</ele><time>2026-07-15T04:27:01Z</time></trkpt>
			<trkpt lat="54.844190" lon="21.025740"><ele>6.5</ele><time>2026-07-15T04:27:07Z</time></trkpt>
			<trkpt lat="54.844090" lon="21.024660"><ele>8.8</ele><time>2026-07-15T04:27:13Z</time></trkpt>
			<trkpt lat="54.843830" lon="21.023320"><ele>8.6</ele><time>2026-07-15T04:27:19Z</time></trkpt>
			<trkpt lat="54.843770" lon="21.022960"><ele>8.2</ele><time>2026-07-15T04:27:25Z</time></trkpt>
			<trkpt lat="54.843730" lon="21.022550"><ele>7.7</ele><time>2026-07-15T04:27:31Z</time></trkpt>
			<trkpt lat="54.843720" lon="21.022000"><ele>7.0</ele><time>2026-07-15T04:27:38Z</time></trkpt>
			<trkpt lat="54.843730" lon="21.021820"><ele>6.8</ele><time>2026-07-15T04:27:44Z</time></trkpt>
			<trkpt lat="54.843760" lon="21.021210"><ele>6.5</ele><time>2026-07-15T04:27:50Z</time></trkpt>
			<trkpt lat="54.843800" lon="21.019910"><ele>5.9</ele><time>2026-07-15T04:27:56Z</time></trkpt>
			<trkpt lat="54.843900" lon="21.016590"><ele>4.5</ele><time>2026-07-15T04:28:02Z</time></trkpt>
			<trkpt lat="54.843940" lon="21.014960"><ele>4.0</ele><time>2026-07-15T04:28:08Z</time></trkpt>
			<trkpt lat="54.843400" lon="21.009500"><ele>5.3</ele><time>2026-07-15T04:28:14Z</time></trkpt>
			<trkpt lat="54.843280" lon="21.008310"><ele>5.0</ele><time>2026-07-15T04:28:20Z</time></trkpt>
			<trkpt lat="54.843100" lon="21.007310"><ele>3.8</ele><time>2026-07-15T04:28:26Z</time></trkpt>
			<trkpt lat="54.842640" lon="21.005020"><ele>3.8</ele><time>2026-07-15T04:28:33Z</time></trkpt>
			<trkpt lat="54.841970" lon="21.001790"><ele>2.0</ele><time>2026-07-15T04:28:39Z</time></trkpt>
			<trkpt lat="54.841810" lon="21.000880"><ele>2.0</ele><time>2026-07-15T04:28:45Z</time></trkpt>
			<trkpt lat="54.841620" lon="20.999500"><ele>2.5</ele><time>2026-07-15T04:28:51Z</time></trkpt>
			<trkpt lat="54.840600" lon="20.991800"><ele>1.7</ele><time>2026-07-15T04:28:57Z</time></trkpt>
			<trkpt lat="54.840570" lon="20.991550"><ele>1.6</ele><time>2026-07-15T04:29:03Z</time></trkpt>
			<trkpt lat="54.839820" lon="20.984880"><ele>6.5</ele><time>2026-07-15T04:29:09Z</time></trkpt>
			<trkpt lat="54.839740" lon="20.984360"><ele>6.2</ele><time>2026-07-15T04:29:15Z</time></trkpt>
			<trkpt lat="54.839680" lon="20.984000"><ele>6.1</ele><time>2026-07-15T04:29:21Z</time></trkpt>
			<trkpt lat="54.839620" lon="20.983700"><ele>6.3</ele><time>2026-07-15T04:29:27Z</time></trkpt>
			<trkpt lat="54.839580" lon="20.983510"><ele>6.4</ele><time>2026-07-15T04:29:34Z</time></trkpt>
			<trkpt lat="54.839410" lon="20.982680"><ele>7.1</ele><time>2026-07-15T04:29:40Z</time></trkpt>
			<trkpt lat="54.838440" lon="20.978300"><ele>8.1</ele><time>2026-07-15T04:29:46Z</time></trkpt>
			<trkpt lat="54.838090" lon="20.976710"><ele>7.9</ele><time>2026-07-15T04:29:52Z</time></trkpt>
			<trkpt lat="54.838070" lon="20.976630"><ele>7.9</ele><time>2026-07-15T04:29:58Z</time></trkpt>
			<trkpt lat="54.837800" lon="20.975390"><ele>7.3</ele><time>2026-07-15T04:30:04Z</time></trkpt>
			<trkpt lat="54.837050" lon="20.972100"><ele>10.5</ele><time>2026-07-15T04:30:10Z</time></trkpt>
			<trkpt lat="54.836920" lon="20.971500"><ele>11.4</ele><time>2026-07-15T04:30:16Z</time></trkpt>
			<trkpt lat="54.836680" lon="20.970430"><ele>10.1</ele><time>2026-07-15T04:30:22Z</time></trkpt>
			<trkpt lat="54.836180" lon="20.968210"><ele>4.1</ele><time>2026-07-15T04:30:29Z</time></trkpt>
			<trkpt lat="54.835510" lon="20.965020"><ele>3.9</ele><time>2026-07-15T04:30:35Z</time></trkpt>
			<trkpt lat="54.835270" lon="20.963860"><ele>3.6</ele><time>2026-07-15T04:30:41Z</time></trkpt>
			<trkpt lat="54.834840" lon="20.961740"><ele>4.7</ele><time>2026-07-15T04:30:47Z</time></trkpt>
			<trkpt lat="54.834610" lon="20.960570"><ele>4.7</ele><time>2026-07-15T04:30:53Z</time></trkpt>
			<trkpt lat="54.834310" lon="20.959440"><ele>-0.3</ele><time>2026-07-15T04:30:59Z</time></trkpt>
			<trkpt lat="54.834220" lon="20.959210"><ele>-1.1</ele><time>2026-07-15T04:31:05Z</time></trkpt>
			<trkpt lat="54.834020" lon="20.958720"><ele>-1.8</ele><time>2026-07-15T04:31:11Z</time></trkpt>
			<trkpt lat="54.833590" lon="20.957930"><ele>-0.8</ele><time>2026-07-15T04:31:17Z</time></trkpt>
			<trkpt lat="54.833520" lon="20.957800"><ele>-0.6</ele><time>2026-07-15T04:31:24Z</time></trkpt>
			<trkpt lat="54.833070" lon="20.956830"><ele>1.3</ele><time>2026-07-15T04:31:30Z</time></trkpt>
			<trkpt lat="54.832880" lon="20.956440"><ele>1.6</ele><time>2026-07-15T04:31:36Z</time></trkpt>
			<trkpt lat="54.832630" lon="20.955960"><ele>1.9</ele><time>2026-07-15T04:31:42Z</time></trkpt>
			<trkpt lat="54.832130" lon="20.955030"><ele>3.0</ele><time>2026-07-15T04:31:48Z</time></trkpt>
			<trkpt lat="54.831700" lon="20.954300"><ele>3.7</ele><time>2026-07-15T04:31:54Z</time></trkpt>
			<trkpt lat="54.831310" lon="20.953740"><ele>3.1</ele><time>2026-07-15T04:32:00Z</time></trkpt>
			<trkpt lat="54.830660" lon="20.952810"><ele>2.0</ele><time>2026-07-15T04:32:06Z</time></trkpt>
			<trkpt lat="54.827890" lon="20.948800"><ele>5.1</ele><time>2026-07-15T04:32:12Z</time></trkpt>
			<trkpt lat="54.827550" lon="20.948250"><ele>4.9</ele><time>2026-07-15T04:32:19Z</time></trkpt>
			<trkpt lat="54.826990" lon="20.947480"><ele>5.0</ele><time>2026-07-15T04:32:25Z</time></trkpt>
			<trkpt lat="54.823530" lon="20.942490"><ele>3.9</ele><time>2026-07-15T04:32:31Z</time></trkpt>
			<trkpt lat="54.818320" lon="20.934950"><ele>2.4</ele><time>2026-07-15T04:32:37Z</time></trkpt>
			<trkpt lat="54.817110" lon="20.933180"><ele>4.8</ele><time>2026-07-15T04:32:43Z</time></trkpt>
			<trkpt lat="54.816960" lon="20.932980"><ele>4.6</ele><time>2026-07-15T04:32:49Z</time></trkpt>
			<trkpt lat="54.815660" lon="20.931180"><ele>3.9</ele><time>2026-07-15T04:32:55Z</time></trkpt>
			<trkpt lat="54.815190" lon="20.930530"><ele>3.9</ele><time>2026-07-15T04:33:01Z</time></trkpt>
			<trkpt lat="54.814850" lon="20.929920"><ele>4.1</ele><time>2026-07-15T04:33:07Z</time></trkpt>
			<trkpt lat="54.811610" lon="20.925360"><ele>2.9</ele><time>2026-07-15T04:33:14Z</time></trkpt>
			<trkpt lat="54.811230" lon="20.924930"><ele>2.5</ele><time>2026-07-15T04:33:20Z</time></trkpt>
			<trkpt lat="54.807600" lon="20.922280"><ele>-0.1</ele><time>2026-07-15T04:33:26Z</time></trkpt>
			<trkpt lat="54.807400" lon="20.922150"><ele>-0.1</ele><time>2026-07-15T04:33:32Z</time></trkpt>
			<trkpt lat="54.806030" lon="20.921150"><ele>3.0</ele><time>2026-07-15T04:33:38Z</time></trkpt>
			<trkpt lat="54.805510" lon="20.920490"><ele>3.6</ele><time>2026-07-15T04:33:44Z</time></trkpt>
			<trkpt lat="54.804940" lon="20.919500"><ele>3.4</ele><time>2026-07-15T04:33:50Z</time></trkpt>
			<trkpt lat="54.804320" lon="20.919060"><ele>2.7</ele><time>2026-07-15T04:33:56Z</time></trkpt>
			<trkpt lat="54.804240" lon="20.919000"><ele>2.6</ele><time>2026-07-15T04:34:02Z</time></trkpt>
			<trkpt lat="54.801190" lon="20.917490"><ele>2.4</ele><time>2026-07-15T04:34:08Z</time></trkpt>
			<trkpt lat="54.796380" lon="20.914930"><ele>0.2</ele><time>2026-07-15T04:34:15Z</time></trkpt>
			<trkpt lat="54.795570" lon="20.914450"><ele>0.3</ele><time>2026-07-15T04:34:21Z</time></trkpt>
			<trkpt lat="54.794370" lon="20.913310"><ele>-0.2</ele><time>2026-07-15T04:34:27Z</time></trkpt>
			<trkpt lat="54.793160" lon="20.912120"><ele>0.1</ele><time>2026-07-15T04:34:33Z</time></trkpt>
			<trkpt lat="54.791180" lon="20.910320"><ele>1.4</ele><time>2026-07-15T04:34:39Z</time></trkpt>
			<trkpt lat="54.790980" lon="20.910030"><ele>0.5</ele><time>2026-07-15T04:34:45Z</time></trkpt>
			<trkpt lat="54.790840" lon="20.909690"><ele>-0.3</ele><time>2026-07-15T04:34:51Z</time></trkpt>
			<trkpt lat="54.789880" lon="20.904930"><ele>0.5</ele><time>2026-07-15T04:34:57Z</time></trkpt>
			<trkpt lat="54.789830" lon="20.904690"><ele>0.1</ele><time>2026-07-15T04:35:03Z</time></trkpt>
			<trkpt lat="54.788850" lon="20.900010"><ele>1.5</ele><time>2026-07-15T04:35:10Z</time></trkpt>
			<trkpt lat="54.788470" lon="20.898370"><ele>2.0</ele><time>2026-07-15T04:35:16Z</time></trkpt>
			<trkpt lat="54.787600" lon="20.895170"><ele>4.4</ele><time>2026-07-15T04:35:22Z</time></trkpt>
			<trkpt lat="54.787020" lon="20.893460"><ele>4.8</ele><time>2026-07-15T04:35:28Z</time></trkpt>
			<trkpt lat="54.786320" lon="20.891870"><ele>5.7</ele><time>2026-07-15T04:35:34Z</time></trkpt>
			<trkpt lat="54.786240" lon="20.891550"><ele>6.1</ele><time>2026-07-15T04:35:40Z</time></trkpt>
			<trkpt lat="54.786210" lon="20.891390"><ele>6.4</ele><time>2026-07-15T04:35:46Z</time></trkpt>
			<trkpt lat="54.786200" lon="20.891220"><ele>6.7</ele><time>2026-07-15T04:35:52Z</time></trkpt>
			<trkpt lat="54.786220" lon="20.890090"><ele>7.4</ele><time>2026-07-15T04:35:58Z</time></trkpt>
			<trkpt lat="54.786470" lon="20.888140"><ele>6.8</ele><time>2026-07-15T04:36:05Z</time></trkpt>
			<trkpt lat="54.786580" lon="20.887220"><ele>7.3</ele><time>2026-07-15T04:36:11Z</time></trkpt>
			<trkpt lat="54.786630" lon="20.886860"><ele>7.7</ele><time>2026-07-15T04:36:17Z</time></trkpt>
			<trkpt lat="54.786720" lon="20.886470"><ele>8.2</ele><time>2026-07-15T04:36:23Z</time></trkpt>
			<trkpt lat="54.786530" lon="20.886190"><ele>8.4</ele><time>2026-07-15T04:36:29Z</time></trkpt>
			<trkpt lat="54.786200" lon="20.886450"><ele>8.1</ele><time>2026-07-15T04:36:35Z</time></trkpt>
			<trkpt lat="54.786060" lon="20.886550"><ele>8.1</ele><time>2026-07-15T04:36:41Z</time></trkpt>
			<trkpt lat="54.785730" lon="20.886680"><ele>7.8</ele><time>2026-07-15T04:36:47Z</time></trkpt>
			<trkpt lat="54.785580" lon="20.886780"><ele>7.6</ele><time>2026-07-15T04:36:53Z</time></trkpt>
			<trkpt lat="54.785440" lon="20.886920"><ele>7.6</ele><time>2026-07-15T04:37:00Z</time></trkpt>
			<trkpt lat="54.785230" lon="20.887250"><ele>8.0</ele><time>2026-07-15T04:37:06Z</time></trkpt>
			<trkpt lat="54.785010" lon="20.887520"><ele>9.0</ele><time>2026-07-15T04:37:12Z</time></trkpt>
			<trkpt lat="54.784730" lon="20.887660"><ele>9.3</ele><time>2026-07-15T04:37:18Z</time></trkpt>
			<trkpt lat="54.782920" lon="20.888760"><ele>8.5</ele><time>2026-07-15T04:37:24Z</time></trkpt>
			<trkpt lat="54.782730" lon="20.888840"><ele>8.3</ele><time>2026-07-15T04:37:30Z</time></trkpt>
			<trkpt lat="54.782640" lon="20.888850"><ele>8.2</ele><time>2026-07-15T04:37:36Z</time></trkpt>
			<trkpt lat="54.782540" lon="20.888850"><ele>8.2</ele><time>2026-07-15T04:37:42Z</time></trkpt>
			<trkpt lat="54.780340" lon="20.887960"><ele>8.6</ele><time>2026-07-15T04:37:48Z</time></trkpt>
			<trkpt lat="54.780160" lon="20.887970"><ele>8.8</ele><time>2026-07-15T04:37:55Z</time></trkpt>
			<trkpt lat="54.779800" lon="20.888230"><ele>9.5</ele><time>2026-07-15T04:38:01Z</time></trkpt>
			<trkpt lat="54.776300" lon="20.890850"><ele>10.0</ele><time>2026-07-15T04:38:07Z</time></trkpt>
			<trkpt lat="54.775220" lon="20.891620"><ele>10.0</ele><time>2026-07-15T04:38:13Z</time></trkpt>
			<trkpt lat="54.774210" lon="20.892380"><ele>10.0</ele><time>2026-07-15T04:38:19Z</time></trkpt>
			<trkpt lat="54.774210" lon="20.892380"><ele>10.0</ele><time>2026-07-15T04:38:29Z</time></trkpt>
			<trkpt lat="54.773610" lon="20.892830"><ele>9.5</ele><time>2026-07-15T04:38:40Z</time></trkpt>
			<trkpt lat="54.772090" lon="20.893930"><ele>9.0</ele><time>2026-07-15T04:38:50Z</time></trkpt>
			<trkpt lat="54.770620" lon="20.895040"><ele>8.7</ele><time>2026-07-15T04:39:01Z</time></trkpt>
			<trkpt lat="54.768210" lon="20.896790"><ele>8.0</ele><time>2026-07-15T04:39:11Z</time></trkpt>
			<trkpt lat="54.767110" lon="20.897550"><ele>8.1</ele><time>2026-07-15T04:39:22Z</time></trkpt>
			<trkpt lat="54.767070" lon="20.897590"><ele>8.0</ele><time>2026-07-15T04:39:32Z</time></trkpt>
			<trkpt lat="54.766900" lon="20.897830"><ele>7.5</ele><time>2026-07-15T04:39:43Z</time></trkpt>
			<trkpt lat="54.766810" lon="20.898080"><ele>7.3</ele><time>2026-07-15T04:39:53Z</time></trkpt>
			<trkpt lat="54.766650" lon="20.898440"><ele>7.0</ele><time>2026-07-15T04:40:04Z</time></trkpt>
			<trkpt lat="54.766600" lon="20.898790"><ele>7.0</ele><time>2026-07-15T04:40:14Z</time></trkpt>
			<trkpt lat="54.766600" lon="20.899220"><ele>7.2</ele><time>2026-07-15T04:40:25Z</time></trkpt>
			<trkpt lat="54.766630" lon="20.899430"><ele>7.4</ele><time>2026-07-15T04:40:35Z</time></trkpt>
			<trkpt lat="54.766670" lon="20.899620"><ele>7.5</ele><time>2026-07-15T04:40:45Z</time></trkpt>
			<trkpt lat="54.766750" lon="20.899920"><ele>7.8</ele><time>2026-07-15T04:40:56Z</time></trkpt>
			<trkpt lat="54.766940" lon="20.900610"><ele>8.4</ele><time>2026-07-15T04:41:06Z</time></trkpt>
			<trkpt lat="54.767160" lon="20.901500"><ele>8.8</ele><time>2026-07-15T04:41:17Z</time></trkpt>
			<trkpt lat="54.767160" lon="20.901530"><ele>8.8</ele><time>2026-07-15T04:41:27Z</time></trkpt>
			<trkpt lat="54.767180" lon="20.901870"><ele>8.8</ele><time>2026-07-15T04:41:38Z</time></trkpt>
			<trkpt lat="54.767100" lon="20.902160"><ele>8.4</ele><time>2026-07-15T04:41:48Z</time></trkpt>
			<trkpt lat="54.766980" lon="20.902410"><ele>8.1</ele><time>2026-07-15T04:41:59Z</time></trkpt>
			<trkpt lat="54.766710" lon="20.902850"><ele>7.6</ele><time>2026-07-15T04:42:09Z</time></trkpt>
			<trkpt lat="54.766280" lon="20.903520"><ele>6.9</ele><time>2026-07-15T04:42:20Z</time></trkpt>
			<trkpt lat="54.765090" lon="20.905500"><ele>7.3</ele><time>2026-07-15T04:42:30Z</time></trkpt>
			<trkpt lat="54.763720" lon="20.907710"><ele>7.2</ele><time>2026-07-15T04:42:41Z</time></trkpt>
			<trkpt lat="54.763160" lon="20.908620"><ele>6.6</ele><time>2026-07-15T04:42:51Z</time></trkpt>
			<trkpt lat="54.759460" lon="20.914680"><ele>7.2</ele><time>2026-07-15T04:43:02Z</time></trkpt>
			<trkpt lat="54.758230" lon="20.916710"><ele>8.0</ele><time>2026-07-15T04:43:12Z</time></trkpt>
			<trkpt lat="54.758070" lon="20.917040"><ele>8.1</ele><time>2026-07-15T04:43:23Z</time></trkpt>
			<trkpt lat="54.757970" lon="20.917260"><ele>8.1</ele><time>2026-07-15T04:43:33Z</time></trkpt>
			<trkpt lat="54.757570" lon="20.918680"><ele>7.6</ele><time>2026-07-15T04:43:43Z</time></trkpt>
			<trkpt lat="54.756150" lon="20.924200"><ele>7.2</ele><time>2026-07-15T04:43:54Z</time></trkpt>
			<trkpt lat="54.756020" lon="20.924580"><ele>10.7</ele><time>2026-07-15T04:44:04Z</time></trkpt>
			<trkpt lat="54.754770" lon="20.928990"><ele>16.0</ele><time>2026-07-15T04:44:15Z</time></trkpt>
			<trkpt lat="54.751450" lon="20.940820"><ele>12.2</ele><time>2026-07-15T04:44:25Z</time></trkpt>
			<trkpt lat="54.750770" lon="20.943260"><ele>16.2</ele><time>2026-07-15T04:44:36Z</time></trkpt>
			<trkpt lat="54.750230" lon="20.946490"><ele>16.9</ele><time>2026-07-15T04:44:46Z</time></trkpt>
			<trkpt lat="54.749560" lon="20.951480"><ele>18.0</ele><time>2026-07-15T04:44:57Z</time></trkpt>
			<trkpt lat="54.749320" lon="20.952030"><ele>18.2</ele><time>2026-07-15T04:45:07Z</time></trkpt>
			<trkpt lat="54.748270" lon="20.953870"><ele>17.8</ele><time>2026-07-15T04:45:18Z</time></trkpt>
			<trkpt lat="54.747300" lon="20.955440"><ele>17.4</ele><time>2026-07-15T04:45:28Z</time></trkpt>
			<trkpt lat="54.741850" lon="20.964510"><ele>18.2</ele><time>2026-07-15T04:45:39Z</time></trkpt>
			<trkpt lat="54.738030" lon="20.971080"><ele>19.8</ele><time>2026-07-15T04:45:49Z</time></trkpt>
			<trkpt lat="54.737730" lon="20.971670"><ele>17.3</ele><time>2026-07-15T04:46:00Z</time></trkpt>
			<trkpt lat="54.735110" lon="20.978200"><ele>12.0</ele><time>2026-07-15T04:46:10Z</time></trkpt>
			<trkpt lat="54.734430" lon="20.979820"><ele>13.6</ele><time>2026-07-15T04:46:20Z</time></trkpt>
			<trkpt lat="54.734350" lon="20.980010"><ele>13.8</ele><time>2026-07-15T04:46:31Z</time></trkpt>
			<trkpt lat="54.734250" lon="20.979860"><ele>13.9</ele><time>2026-07-15T04:46:41Z</time></trkpt>
			<trkpt lat="54.733370" lon="20.978330"><ele>13.0</ele><time>2026-07-15T04:46:52Z</time></trkpt>
			<trkpt lat="54.732960" lon="20.977480"><ele>13.5</ele><time>2026-07-15T04:47:02Z</time></trkpt>
			<trkpt lat="54.732570" lon="20.976880"><ele>13.8</ele><time>2026-07-15T04:47:13Z</time></trkpt>
			<trkpt lat="54.731610" lon="20.976310"><ele>13.0</ele><time>2026-07-15T04:47:23Z</time></trkpt>
			<trkpt lat="54.731430" lon="20.976200"><ele>12.9</ele><time>2026-07-15T04:47:34Z</time></trkpt>
			<trkpt lat="54.730750" lon="20.975150"><ele>12.1</ele><time>2026-07-15T04:47:44Z</time></trkpt>
			<trkpt lat="54.729420" lon="20.972620"><ele>10.4</ele><time>2026-07-15T04:47:55Z</time></trkpt>
			<trkpt lat="54.728870" lon="20.971900"><ele>11.0</ele><time>2026-07-15T04:48:05Z</time></trkpt>
			<trkpt lat="54.725450" lon="20.968060"><ele>11.1</ele><time>2026-07-15T04:48:16Z</time></trkpt>
			<trkpt lat="54.720460" lon="20.962010"><ele>15.7</ele><time>2026-07-15T04:48:26Z</time></trkpt>
			<trkpt lat="54.718840" lon="20.959750"><ele>13.1</ele><time>2026-07-15T04:48:37Z</time></trkpt>
			<trkpt lat="54.714340" lon="20.953770"><ele>12.8</ele><time>2026-07-15T04:48:47Z</time></trkpt>
			<trkpt lat="54.714010" lon="20.953380"><ele>14.2</ele><time>2026-07-15T04:48:57Z</time></trkpt>
			<trkpt lat="54.713260" lon="20.952800"><ele>15.8</ele><time>2026-07-15T04:49:08Z</time></trkpt>
			<trkpt lat="54.711310" lon="20.951650"><ele>15.3</ele><time>2026-07-15T04:49:18Z</time></trkpt>
			<trkpt lat="54.709830" lon="20.950830"><ele>13.0</ele><time>2026-07-15T04:49:29Z</time></trkpt>
			<trkpt lat="54.706250" lon="20.950050"><ele>13.0</ele><time>2026-07-15T04:49:39Z</time></trkpt>
			<trkpt lat="54.706340" lon="20.949510"><ele>13.0</ele><time>2026-07-15T04:49:50Z</time></trkpt>
			<trkpt lat="54.706420" lon="20.948600"><ele>13.5</ele><time>2026-07-15T04:50:00Z</time></trkpt>
			<trkpt lat="54.707150" lon="20.940070"><ele>10.9</ele><time>2026-07-15T04:50:11Z</time></trkpt>
			<trkpt lat="54.707110" lon="20.939450"><ele>11.2</ele><time>2026-07-15T04:50:21Z</time></trkpt>
			<trkpt lat="54.706990" lon="20.938880"><ele>11.8</ele><time>2026-07-15T04:50:32Z</time></trkpt>
			<trkpt lat="54.706470" lon="20.936890"><ele>12.2</ele><time>2026-07-15T04:50:42Z</time></trkpt>
			<trkpt lat="54.705810" lon="20.934330"><ele>14.0</ele><time>2026-07-15T04:50:53Z</time></trkpt>
			<trkpt lat="54.704540" lon="20.930800"><ele>12.4</ele><time>2026-07-15T04:51:03Z</time></trkpt>
			<trkpt lat="54.704320" lon="20.930100"><ele>11.2</ele><time>2026-07-15T04:51:14Z</time></trkpt>
			<trkpt lat="54.704210" lon="20.929570"><ele>10.5</ele><time>2026-07-15T04:51:24Z</time></trkpt>
			<trkpt lat="54.704150" lon="20.928520"><ele>10.7</ele><time>2026-07-15T04:51:35Z</time></trkpt>
			<trkpt lat="54.703930" lon="20.926100"><ele>9.1</ele><time>2026-07-15T04:51:45Z</time></trkpt>
			<trkpt lat="54.703920" lon="20.925580"><ele>8.9</ele><time>2026-07-15T04:51:55Z</time></trkpt>
			<trkpt lat="54.703970" lon="20.924840"><ele>8.9</ele><time>2026-07-15T04:52:06Z</time></trkpt>
			<trkpt lat="54.704250" lon="20.921490"><ele>7.3</ele><time>2026-07-15T04:52:16Z</time></trkpt>
			<trkpt lat="54.704360" lon="20.920030"><ele>9.2</ele><time>2026-07-15T04:52:27Z</time></trkpt>
			<trkpt lat="54.704440" lon="20.918990"><ele>10.9</ele><time>2026-07-15T04:52:37Z</time></trkpt>
			<trkpt lat="54.704530" lon="20.918340"><ele>11.8</ele><time>2026-07-15T04:52:48Z</time></trkpt>
			<trkpt lat="54.704600" lon="20.917780"><ele>11.7</ele><time>2026-07-15T04:52:58Z</time></trkpt>
			<trkpt lat="54.704600" lon="20.916800"><ele>11.9</ele><time>2026-07-15T04:53:09Z</time></trkpt>
			<trkpt lat="54.704360" lon="20.913070"><ele>10.3</ele><time>2026-07-15T04:53:19Z</time></trkpt>
			<trkpt lat="54.704310" lon="20.911340"><ele>9.9</ele><time>2026-07-15T04:53:30Z</time></trkpt>
			<trkpt lat="54.704380" lon="20.910510"><ele>9.7</ele><time>2026-07-15T04:53:40Z</time></trkpt>
			<trkpt lat="54.704840" lon="20.907720"><ele>6.9</ele><time>2026-07-15T04:53:51Z</time></trkpt>
			<trkpt lat="54.704980" lon="20.906160"><ele>10.2</ele><time>2026-07-15T04:54:01Z</time></trkpt>
			<trkpt lat="54.705110" lon="20.904660"><ele>12.0</ele><time>2026-07-15T04:54:12Z</time></trkpt>
			<trkpt lat="54.703530" lon="20.904430"><ele>11.7</ele><time>2026-07-15T04:54:22Z</time></trkpt>
			<trkpt lat="54.701650" lon="20.904100"><ele>11.9</ele><time>2026-07-15T04:54:32Z</time></trkpt>
			<trkpt lat="54.700590" lon="20.903880"><ele>11.5</ele><time>2026-07-15T04:54:43Z</time></trkpt>
			<trkpt lat="54.699800" lon="20.903690"><ele>10.4</ele><time>2026-07-15T04:54:53Z</time></trkpt>
			<trkpt lat="54.696790" lon="20.902700"><ele>7.8</ele><time>2026-07-15T04:55:04Z</time></trkpt>
			<trkpt lat="54.696670" lon="20.902640"><ele>7.8</ele><time>2026-07-15T04:55:14Z</time></trkpt>
			<trkpt lat="54.696550" lon="20.902520"><ele>7.5</ele><time>2026-07-15T04:55:25Z</time></trkpt>
			<trkpt lat="54.696360" lon="20.902210"><ele>7.1</ele><time>2026-07-15T04:55:35Z</time></trkpt>
			<trkpt lat="54.696240" lon="20.901890"><ele>6.6</ele><time>2026-07-15T04:55:46Z</time></trkpt>
			<trkpt lat="54.696120" lon="20.901540"><ele>6.5</ele><time>2026-07-15T04:55:56Z</time></trkpt>
			<trkpt lat="54.695920" lon="20.899550"><ele>7.2</ele><time>2026-07-15T04:56:07Z</time></trkpt>
			<trkpt lat="54.695770" lon="20.898300"><ele>8.7</ele><time>2026-07-15T04:56:17Z</time></trkpt>
			<trkpt lat="54.695720" lon="20.897920"><ele>8.7</ele><time>2026-07-15T04:56:28Z</time></trkpt>
			<trkpt lat="54.695660" lon="20.897490"><ele>8.6</ele><time>2026-07-15T04:56:38Z</time></trkpt>
			<trkpt lat="54.695570" lon="20.897180"><ele>8.1</ele><time>2026-07-15T04:56:49Z</time></trkpt>
			<trkpt lat="54.695530" lon="20.897090"><ele>8.0</ele><time>2026-07-15T04:56:59Z</time></trkpt>
			<trkpt lat="54.695510" lon="20.897030"><ele>7.9</ele><time>2026-07-15T04:57:09Z</time></trkpt>
			<trkpt lat="54.695240" lon="20.896810"><ele>7.4</ele><time>2026-07-15T04:57:20Z</time></trkpt>
			<trkpt lat="54.688390" lon="20.890270"><ele>3.0</ele><time>2026-07-15T04:57:30Z</time></trkpt>
			<trkpt lat="54.688390" lon="20.890270"><ele>3.0</ele><time>2026-07-15T04:57:35Z</time></trkpt>
			<trkpt lat="54.685810" lon="20.887810"><ele>0.4</ele><time>2026-07-15T04:57:40Z</time></trkpt>
			<trkpt lat="54.685680" lon="20.887770"><ele>0.2</ele><time>2026-07-15T04:57:45Z</time></trkpt>
			<trkpt lat="54.685190" lon="20.887910"><ele>-0.3</ele><time>2026-07-15T04:57:50Z</time></trkpt>
			<trkpt lat="54.683310" lon="20.888630"><ele>-0.7</ele><time>2026-07-15T04:57:55Z</time></trkpt>
			<trkpt lat="54.683190" lon="20.888680"><ele>-0.6</ele><time>2026-07-15T04:58:00Z</time></trkpt>
			<trkpt lat="54.682920" lon="20.888770"><ele>-0.5</ele><time>2026-07-15T04:58:05Z</time></trkpt>
			<trkpt lat="54.682740" lon="20.888750"><ele>-0.6</ele><time>2026-07-15T04:58:10Z</time></trkpt>
			<trkpt lat="54.682660" lon="20.888690"><ele>-0.7</ele><time>2026-07-15T04:58:15Z</time></trkpt>
			<trkpt lat="54.682590" lon="20.888600"><ele>-0.7</ele><time>2026-07-15T04:58:20Z</time></trkpt>
			<trkpt lat="54.682540" lon="20.888450"><ele>-0.8</ele><time>2026-07-15T04:58:25Z</time></trkpt>
			<trkpt lat="54.682510" lon="20.888260"><ele>-0.9</ele><time>2026-07-15T04:58:30Z</time></trkpt>
			<trkpt lat="54.682610" lon="20.887290"><ele>-1.1</ele><time>2026-07-15T04:58:35Z</time></trkpt>
			<trkpt lat="54.682810" lon="20.886280"><ele>-1.2</ele><time>2026-07-15T04:58:40Z</time></trkpt>
			<trkpt lat="54.682870" lon="20.885960"><ele>-1.1</ele><time>2026-07-15T04:58:45Z</time></trkpt>
			<trkpt lat="54.683000" lon="20.885230"><ele>-1.0</ele><time>2026-07-15T04:58:50Z</time></trkpt>
			<trkpt lat="54.683190" lon="20.884190"><ele>-0.5</ele><time>2026-07-15T04:58:55Z</time></trkpt>
			<trkpt lat="54.683310" lon="20.883320"><ele>-0.1</ele><time>2026-07-15T04:59:00Z</time></trkpt>
			<trkpt lat="54.683490" lon="20.881940"><ele>-0.7</ele><time>2026-07-15T04:59:05Z</time></trkpt>
			<trkpt lat="54.683610" lon="20.880550"><ele>-1.1</ele><time>2026-07-15T04:59:10Z</time></trkpt>
			<trkpt lat="54.683670" lon="20.879300"><ele>-1.5</ele><time>2026-07-15T04:59:15Z</time></trkpt>
			<trkpt lat="54.683730" lon="20.878690"><ele>-1.5</ele><time>2026-07-15T04:59:20Z</time></trkpt>
			<trkpt lat="54.683770" lon="20.878500"><ele>-1.4</ele><time>2026-07-15T04:59:25Z</time></trkpt>
			<trkpt lat="54.683830" lon="20.878350"><ele>-1.4</ele><time>2026-07-15T04:59:30Z</time></trkpt>
			<trkpt lat="54.683910" lon="20.878240"><ele>-1.2</ele><time>2026-07-15T04:59:35Z</time></trkpt>
			<trkpt lat="54.683990" lon="20.878170"><ele>-1.1</ele><time>2026-07-15T04:59:40Z</time></trkpt>
			<trkpt lat="54.684070" lon="20.878130"><ele>-1.0</ele><time>2026-07-15T04:59:45Z</time></trkpt>
			<trkpt lat="54.684120" lon="20.878140"><ele>-0.9</ele><time>2026-07-15T04:59:50Z</time></trkpt>
			<trkpt lat="54.684200" lon="20.878100"><ele>-0.7</ele><time>2026-07-15T04:59:55Z</time></trkpt>
			<trkpt lat="54.684290" lon="20.877990"><ele>-0.6</ele><time>2026-07-15T05:00:00Z</time></trkpt>
			<trkpt lat="54.684350" lon="20.877870"><ele>-0.6</ele><time>2026-07-15T05:00:05Z</time></trkpt>
			<trkpt lat="54.684400" lon="20.877680"><ele>-0.5</ele><time>2026-07-15T05:00:10Z</time></trkpt>
			<trkpt lat="54.684450" lon="20.877330"><ele>-0.8</ele><time>2026-07-15T05:00:15Z</time></trkpt>
			<trkpt lat="54.684470" lon="20.877000"><ele>-1.1</ele><time>2026-07-15T05:00:20Z</time></trkpt>
			<trkpt lat="54.684500" lon="20.876360"><ele>-1.3</ele><time>2026-07-15T05:00:25Z</time></trkpt>
			<trkpt lat="54.684440" lon="20.875210"><ele>-0.3</ele><time>2026-07-15T05:00:30Z</time></trkpt>
			<trkpt lat="54.684320" lon="20.873580"><ele>0.9</ele><time>2026-07-15T05:00:35Z</time></trkpt>
			<trkpt lat="54.684300" lon="20.872780"><ele>2.0</ele><time>2026-07-15T05:00:40Z</time></trkpt>
			<trkpt lat="54.684430" lon="20.869880"><ele>-1.5</ele><time>2026-07-15T05:00:45Z</time></trkpt>
			<trkpt lat="54.684440" lon="20.869700"><ele>-1.5</ele><time>2026-07-15T05:00:50Z</time></trkpt>
			<trkpt lat="54.684450" lon="20.869530"><ele>-1.5</ele><time>2026-07-15T05:00:55Z</time></trkpt>
			<trkpt lat="54.684510" lon="20.868740"><ele>-1.0</ele><time>2026-07-15T05:01:00Z</time></trkpt>
			<trkpt lat="54.684520" lon="20.868510"><ele>-0.7</ele><time>2026-07-15T05:01:05Z</time></trkpt>
			<trkpt lat="54.684640" lon="20.867600"><ele>2.0</ele><time>2026-07-15T05:01:10Z</time></trkpt>
			<trkpt lat="54.684760" lon="20.866730"><ele>3.5</ele><time>2026-07-15T05:01:15Z</time></trkpt>
			<trkpt lat="54.685160" lon="20.864150"><ele>5.0</ele><time>2026-07-15T05:01:20Z</time></trkpt>
			<trkpt lat="54.685190" lon="20.863910"><ele>5.3</ele><time>2026-07-15T05:01:25Z</time></trkpt>
			<trkpt lat="54.685270" lon="20.863380"><ele>5.8</ele><time>2026-07-15T05:01:30Z</time></trkpt>
			<trkpt lat="54.685340" lon="20.862880"><ele>6.0</ele><time>2026-07-15T05:01:35Z</time></trkpt>
			<trkpt lat="54.685630" lon="20.861000"><ele>6.8</ele><time>2026-07-15T05:01:40Z</time></trkpt>
			<trkpt lat="54.685810" lon="20.859760"><ele>6.9</ele><time>2026-07-15T05:01:45Z</time></trkpt>
			<trkpt lat="54.687050" lon="20.851460"><ele>14.3</ele><time>2026-07-15T05:01:50Z</time></trkpt>
			<trkpt lat="54.687440" lon="20.850130"><ele>14.7</ele><time>2026-07-15T05:01:54Z</time></trkpt>
			<trkpt lat="54.687690" lon="20.849440"><ele>14.0</ele><time>2026-07-15T05:01:59Z</time></trkpt>
			<trkpt lat="54.689650" lon="20.844030"><ele>9.8</ele><time>2026-07-15T05:02:04Z</time></trkpt>
			<trkpt lat="54.691770" lon="20.838030"><ele>8.8</ele><time>2026-07-15T05:02:09Z</time></trkpt>
			<trkpt lat="54.693400" lon="20.833550"><ele>7.8</ele><time>2026-07-15T05:02:14Z</time></trkpt>
			<trkpt lat="54.693860" lon="20.832630"><ele>6.4</ele><time>2026-07-15T05:02:19Z</time></trkpt>
			<trkpt lat="54.695030" lon="20.830710"><ele>3.0</ele><time>2026-07-15T05:02:24Z</time></trkpt>
			<trkpt lat="54.695030" lon="20.830710"><ele>3.0</ele><time>2026-07-15T05:02:32Z</time></trkpt>
			<trkpt lat="54.695850" lon="20.829370"><ele>2.9</ele><time>2026-07-15T05:02:40Z</time></trkpt>
			<trkpt lat="54.697490" lon="20.826660"><ele>4.2</ele><time>2026-07-15T05:02:47Z</time></trkpt>
			<trkpt lat="54.697510" lon="20.826630"><ele>4.2</ele><time>2026-07-15T05:02:55Z</time></trkpt>
			<trkpt lat="54.697890" lon="20.825980"><ele>5.0</ele><time>2026-07-15T05:03:03Z</time></trkpt>
			<trkpt lat="54.698150" lon="20.825440"><ele>5.1</ele><time>2026-07-15T05:03:10Z</time></trkpt>
			<trkpt lat="54.698250" lon="20.825170"><ele>5.1</ele><time>2026-07-15T05:03:18Z</time></trkpt>
			<trkpt lat="54.698360" lon="20.824840"><ele>4.3</ele><time>2026-07-15T05:03:26Z</time></trkpt>
			<trkpt lat="54.698440" lon="20.824590"><ele>3.7</ele><time>2026-07-15T05:03:33Z</time></trkpt>
			<trkpt lat="54.698520" lon="20.824220"><ele>2.7</ele><time>2026-07-15T05:03:41Z</time></trkpt>
			<trkpt lat="54.698590" lon="20.823550"><ele>1.6</ele><time>2026-07-15T05:03:49Z</time></trkpt>
			<trkpt lat="54.698690" lon="20.822880"><ele>1.4</ele><time>2026-07-15T05:03:56Z</time></trkpt>
			<trkpt lat="54.698740" lon="20.822620"><ele>1.4</ele><time>2026-07-15T05:04:04Z</time></trkpt>
			<trkpt lat="54.699400" lon="20.820600"><ele>4.3</ele><time>2026-07-15T05:04:11Z</time></trkpt>
			<trkpt lat="54.699520" lon="20.819990"><ele>5.0</ele><time>2026-07-15T05:04:19Z</time></trkpt>
			<trkpt lat="54.699570" lon="20.819500"><ele>6.2</ele><time>2026-07-15T05:04:27Z</time></trkpt>
			<trkpt lat="54.699780" lon="20.816470"><ele>7.7</ele><time>2026-07-15T05:04:34Z</time></trkpt>
			<trkpt lat="54.700500" lon="20.808240"><ele>13.1</ele><time>2026-07-15T05:04:42Z</time></trkpt>
			<trkpt lat="54.700640" lon="20.806650"><ele>11.4</ele><time>2026-07-15T05:04:50Z</time></trkpt>
			<trkpt lat="54.700760" lon="20.805400"><ele>12.3</ele><time>2026-07-15T05:04:57Z</time></trkpt>
			<trkpt lat="54.700850" lon="20.804530"><ele>12.5</ele><time>2026-07-15T05:05:05Z</time></trkpt>
			<trkpt lat="54.700950" lon="20.803150"><ele>12.7</ele><time>2026-07-15T05:05:13Z</time></trkpt>
			<trkpt lat="54.701050" lon="20.801940"><ele>14.6</ele><time>2026-07-15T05:05:20Z</time></trkpt>
			<trkpt lat="54.701070" lon="20.800810"><ele>14.1</ele><time>2026-07-15T05:05:28Z</time></trkpt>
			<trkpt lat="54.701060" lon="20.800190"><ele>12.2</ele><time>2026-07-15T05:05:36Z</time></trkpt>
			<trkpt lat="54.700810" lon="20.792270"><ele>9.6</ele><time>2026-07-15T05:05:43Z</time></trkpt>
			<trkpt lat="54.700780" lon="20.791310"><ele>9.3</ele><time>2026-07-15T05:05:51Z</time></trkpt>
			<trkpt lat="54.700750" lon="20.790420"><ele>9.7</ele><time>2026-07-15T05:05:59Z</time></trkpt>
			<trkpt lat="54.700640" lon="20.786010"><ele>10.1</ele><time>2026-07-15T05:06:06Z</time></trkpt>
			<trkpt lat="54.700610" lon="20.783930"><ele>11.9</ele><time>2026-07-15T05:06:14Z</time></trkpt>
			<trkpt lat="54.700530" lon="20.783200"><ele>12.9</ele><time>2026-07-15T05:06:21Z</time></trkpt>
			<trkpt lat="54.700460" lon="20.782760"><ele>13.3</ele><time>2026-07-15T05:06:29Z</time></trkpt>
			<trkpt lat="54.698330" lon="20.770840"><ele>7.9</ele><time>2026-07-15T05:06:37Z</time></trkpt>
			<trkpt lat="54.697720" lon="20.767490"><ele>6.8</ele><time>2026-07-15T05:06:44Z</time></trkpt>
			<trkpt lat="54.697610" lon="20.766910"><ele>6.7</ele><time>2026-07-15T05:06:52Z</time></trkpt>
			<trkpt lat="54.697580" lon="20.766250"><ele>6.6</ele><time>2026-07-15T05:07:00Z</time></trkpt>
			<trkpt lat="54.697630" lon="20.765490"><ele>6.5</ele><time>2026-07-15T05:07:07Z</time></trkpt>
			<trkpt lat="54.698180" lon="20.758590"><ele>4.2</ele><time>2026-07-15T05:07:15Z</time></trkpt>
			<trkpt lat="54.698260" lon="20.758080"><ele>4.4</ele><time>2026-07-15T05:07:23Z</time></trkpt>
			<trkpt lat="54.699630" lon="20.754000"><ele>3.5</ele><time>2026-07-15T05:07:30Z</time></trkpt>
			<trkpt lat="54.700020" lon="20.752550"><ele>3.8</ele><time>2026-07-15T05:07:38Z</time></trkpt>
			<trkpt lat="54.700410" lon="20.750840"><ele>5.3</ele><time>2026-07-15T05:07:46Z</time></trkpt>
			<trkpt lat="54.700620" lon="20.750250"><ele>5.6</ele><time>2026-07-15T05:07:53Z</time></trkpt>
			<trkpt lat="54.701340" lon="20.748660"><ele>4.8</ele><time>2026-07-15T05:08:01Z</time></trkpt>
			<trkpt lat="54.701390" lon="20.748550"><ele>4.7</ele><time>2026-07-15T05:08:09Z</time></trkpt>
			<trkpt lat="54.701550" lon="20.748040"><ele>5.1</ele><time>2026-07-15T05:08:16Z</time></trkpt>
			<trkpt lat="54.701610" lon="20.747710"><ele>5.6</ele><time>2026-07-15T05:08:24Z</time></trkpt>
			<trkpt lat="54.701650" lon="20.747200"><ele>6.7</ele><time>2026-07-15T05:08:31Z</time></trkpt>
			<trkpt lat="54.701670" lon="20.746900"><ele>7.4</ele><time>2026-07-15T05:08:39Z</time></trkpt>
			<trkpt lat="54.701850" lon="20.744020"><ele>4.4</ele><time>2026-07-15T05:08:47Z</time></trkpt>
			<trkpt lat="54.701860" lon="20.743430"><ele>3.7</ele><time>2026-07-15T05:08:54Z</time></trkpt>
			<trkpt lat="54.701870" lon="20.743160"><ele>3.9</ele><time>2026-07-15T05:09:02Z</time></trkpt>
			<trkpt lat="54.701880" lon="20.742320"><ele>5.1</ele><time>2026-07-15T05:09:10Z</time></trkpt>
			<trkpt lat="54.701860" lon="20.740930"><ele>10.7</ele><time>2026-07-15T05:09:17Z</time></trkpt>
			<trkpt lat="54.701860" lon="20.739940"><ele>13.3</ele><time>2026-07-15T05:09:25Z</time></trkpt>
			<trkpt lat="54.701850" lon="20.737860"><ele>13.5</ele><time>2026-07-15T05:09:33Z</time></trkpt>
			<trkpt lat="54.702060" lon="20.737870"><ele>14.4</ele><time>2026-07-15T05:09:40Z</time></trkpt>
			<trkpt lat="54.703000" lon="20.738000"><ele>17.9</ele><time>2026-07-15T05:09:48Z</time></trkpt>
			<trkpt lat="54.703670" lon="20.738120"><ele>17.5</ele><time>2026-07-15T05:09:56Z</time></trkpt>
			<trkpt lat="54.704190" lon="20.738260"><ele>16.0</ele><time>2026-07-15T05:10:03Z</time></trkpt>
			<trkpt lat="54.704970" lon="20.738450"><ele>13.9</ele><time>2026-07-15T05:10:11Z</time></trkpt>
			<trkpt lat="54.705240" lon="20.738610"><ele>12.9</ele><time>2026-07-15T05:10:19Z</time></trkpt>
			<trkpt lat="54.705340" lon="20.738680"><ele>12.5</ele><time>2026-07-15T05:10:26Z</time></trkpt>
			<trkpt lat="54.705420" lon="20.738760"><ele>12.3</ele><time>2026-07-15T05:10:34Z</time></trkpt>
			<trkpt lat="54.705670" lon="20.739080"><ele>11.4</ele><time>2026-07-15T05:10:41Z</time></trkpt>
			<trkpt lat="54.706220" lon="20.739800"><ele>8.9</ele><time>2026-07-15T05:10:49Z</time></trkpt>
			<trkpt lat="54.706860" lon="20.740450"><ele>5.7</ele><time>2026-07-15T05:10:57Z</time></trkpt>
			<trkpt lat="54.707580" lon="20.740870"><ele>4.0</ele><time>2026-07-15T05:11:04Z</time></trkpt>
			<trkpt lat="54.708750" lon="20.741330"><ele>5.4</ele><time>2026-07-15T05:11:12Z</time></trkpt>
			<trkpt lat="54.709550" lon="20.741460"><ele>6.5</ele><time>2026-07-15T05:11:20Z</time></trkpt>
			<trkpt lat="54.710500" lon="20.741430"><ele>6.6</ele><time>2026-07-15T05:11:27Z</time></trkpt>
			<trkpt lat="54.711680" lon="20.741450"><ele>7.9</ele><time>2026-07-15T05:11:35Z</time></trkpt>
			<trkpt lat="54.712660" lon="20.741450"><ele>8.4</ele><time>2026-07-15T05:11:43Z</time></trkpt>
			<trkpt lat="54.713190" lon="20.741360"><ele>9.8</ele><time>2026-07-15T05:11:50Z</time></trkpt>
			<trkpt lat="54.713860" lon="20.741240"><ele>9.6</ele><time>2026-07-15T05:11:58Z</time></trkpt>
			<trkpt lat="54.714190" lon="20.741090"><ele>9.3</ele><time>2026-07-15T05:12:06Z</time></trkpt>
			<trkpt lat="54.714510" lon="20.740850"><ele>9.2</ele><time>2026-07-15T05:12:13Z</time></trkpt>
			<trkpt lat="54.715440" lon="20.739820"><ele>8.8</ele><time>2026-07-15T05:12:21Z</time></trkpt>
			<trkpt lat="54.716250" lon="20.738900"><ele>10.2</ele><time>2026-07-15T05:12:29Z</time></trkpt>
			<trkpt lat="54.716950" lon="20.738020"><ele>13.4</ele><time>2026-07-15T05:12:36Z</time></trkpt>
			<trkpt lat="54.717240" lon="20.737650"><ele>14.7</ele><time>2026-07-15T05:12:44Z</time></trkpt>
			<trkpt lat="54.717730" lon="20.736500"><ele>13.3</ele><time>2026-07-15T05:12:51Z</time></trkpt>
			<trkpt lat="54.717950" lon="20.736290"><ele>13.2</ele><time>2026-07-15T05:12:59Z</time></trkpt>
			<trkpt lat="54.718080" lon="20.736260"><ele>13.3</ele><time>2026-07-15T05:13:07Z</time></trkpt>
			<trkpt lat="54.718410" lon="20.736350"><ele>13.8</ele><time>2026-07-15T05:13:14Z</time></trkpt>
			<trkpt lat="54.721030" lon="20.738170"><ele>12.8</ele><time>2026-07-15T05:13:22Z</time></trkpt>
			<trkpt lat="54.723970" lon="20.740220"><ele>11.8</ele><time>2026-07-15T05:13:30Z</time></trkpt>
			<trkpt lat="54.724080" lon="20.740240"><ele>11.8</ele><time>2026-07-15T05:13:37Z</time></trkpt>
			<trkpt lat="54.724470" lon="20.740230"><ele>11.8</ele><time>2026-07-15T05:13:45Z</time></trkpt>
			<trkpt lat="54.725250" lon="20.739980"><ele>12.0</ele><time>2026-07-15T05:13:53Z</time></trkpt>
			<trkpt lat="54.725850" lon="20.739660"><ele>12.5</ele><time>2026-07-15T05:14:00Z</time></trkpt>
			<trkpt lat="54.727190" lon="20.738540"><ele>12.6</ele><time>2026-07-15T05:14:08Z</time></trkpt>
			<trkpt lat="54.727630" lon="20.738110"><ele>11.9</ele><time>2026-07-15T05:14:16Z</time></trkpt>
			<trkpt lat="54.727730" lon="20.738020"><ele>11.8</ele><time>2026-07-15T05:14:23Z</time></trkpt>
			<trkpt lat="54.728630" lon="20.737190"><ele>10.7</ele><time>2026-07-15T05:14:31Z</time></trkpt>
			<trkpt lat="54.731090" lon="20.734270"><ele>11.0</ele><time>2026-07-15T05:14:39Z</time></trkpt>
			<trkpt lat="54.731790" lon="20.733730"><ele>11.3</ele><time>2026-07-15T05:14:46Z</time></trkpt>
			<trkpt lat="54.732030" lon="20.733670"><ele>11.9</ele><time>2026-07-15T05:14:54Z</time></trkpt>
			<trkpt lat="54.732320" lon="20.733690"><ele>12.6</ele><time>2026-07-15T05:15:01Z</time></trkpt>
			<trkpt lat="54.732780" lon="20.733830"><ele>13.2</ele><time>2026-07-15T05:15:09Z</time></trkpt>
			<trkpt lat="54.737430" lon="20.735720"><ele>15.6</ele><time>2026-07-15T05:15:17Z</time></trkpt>
			<trkpt lat="54.738540" lon="20.736170"><ele>17.0</ele><time>2026-07-15T05:15:24Z</time></trkpt>
			<trkpt lat="54.739210" lon="20.736200"><ele>16.7</ele><time>2026-07-15T05:15:32Z</time></trkpt>
			<trkpt lat="54.740400" lon="20.736070"><ele>14.0</ele><time>2026-07-15T05:15:40Z</time></trkpt>
			<trkpt lat="54.740910" lon="20.735940"><ele>13.0</ele><time>2026-07-15T05:15:47Z</time></trkpt>
			<trkpt lat="54.741600" lon="20.735760"><ele>13.0</ele><time>2026-07-15T05:15:55Z</time></trkpt>
			<trkpt lat="54.744670" lon="20.734960"><ele>16.3</ele><time>2026-07-15T05:16:03Z</time></trkpt>
			<trkpt lat="54.744910" lon="20.734890"><ele>16.9</ele><time>2026-07-15T05:16:10Z</time></trkpt>
			<trkpt lat="54.745310" lon="20.734620"><ele>16.4</ele><time>2026-07-15T05:16:18Z</time></trkpt>
			<trkpt lat="54.749410" lon="20.730470"><ele>15.9</ele><time>2026-07-15T05:16:26Z</time></trkpt>
			<trkpt lat="54.750050" lon="20.729800"><ele>16.7</ele><time>2026-07-15T05:16:33Z</time></trkpt>
			<trkpt lat="54.750600" lon="20.729320"><ele>17.7</ele><time>2026-07-15T05:16:41Z</time></trkpt>
			<trkpt lat="54.750870" lon="20.729200"><ele>17.7</ele><time>2026-07-15T05:16:49Z</time></trkpt>
			<trkpt lat="54.751000" lon="20.729140"><ele>17.5</ele><time>2026-07-15T05:16:56Z</time></trkpt>
			<trkpt lat="54.751370" lon="20.729000"><ele>16.8</ele><time>2026-07-15T05:17:04Z</time></trkpt>
			<trkpt lat="54.751780" lon="20.728950"><ele>16.4</ele><time>2026-07-15T05:17:12Z</time></trkpt>
			<trkpt lat="54.752960" lon="20.728960"><ele>17.4</ele><time>2026-07-15T05:17:19Z</time></trkpt>
			<trkpt lat="54.753490" lon="20.728890"><ele>17.7</ele><time>2026-07-15T05:17:27Z</time></trkpt>
			<trkpt lat="54.762570" lon="20.726720"><ele>22.9</ele><time>2026-07-15T05:17:34Z</time></trkpt>
			<trkpt lat="54.762970" lon="20.726710"><ele>22.9</ele><time>2026-07-15T05:17:42Z</time></trkpt>
			<trkpt lat="54.763290" lon="20.726740"><ele>22.9</ele><time>2026-07-15T05:17:50Z</time></trkpt>
			<trkpt lat="54.765820" lon="20.727350"><ele>22.0</ele><time>2026-07-15T05:17:57Z</time></trkpt>
			<trkpt lat="54.766190" lon="20.727390"><ele>22.6</ele><time>2026-07-15T05:18:05Z</time></trkpt>
			<trkpt lat="54.766570" lon="20.727300"><ele>23.1</ele><time>2026-07-15T05:18:13Z</time></trkpt>
			<trkpt lat="54.766920" lon="20.727080"><ele>22.8</ele><time>2026-07-15T05:18:20Z</time></trkpt>
			<trkpt lat="54.767230" lon="20.726810"><ele>22.3</ele><time>2026-07-15T05:18:28Z</time></trkpt>
			<trkpt lat="54.767490" lon="20.726490"><ele>22.2</ele><time>2026-07-15T05:18:36Z</time></trkpt>
			<trkpt lat="54.768250" lon="20.725450"><ele>23.8</ele><time>2026-07-15T05:18:43Z</time></trkpt>
			<trkpt lat="54.770560" lon="20.722310"><ele>27.8</ele><time>2026-07-15T05:18:51Z</time></trkpt>
			<trkpt lat="54.773660" lon="20.718220"><ele>24.8</ele><time>2026-07-15T05:18:59Z</time></trkpt>
			<trkpt lat="54.774550" lon="20.716950"><ele>23.6</ele><time>2026-07-15T05:19:06Z</time></trkpt>
			<trkpt lat="54.775460" lon="20.715550"><ele>24.4</ele><time>2026-07-15T05:19:14Z</time></trkpt>
			<trkpt lat="54.776070" lon="20.714630"><ele>23.9</ele><time>2026-07-15T05:19:22Z</time></trkpt>
			<trkpt lat="54.776520" lon="20.714140"><ele>24.0</ele><time>2026-07-15T05:19:29Z</time></trkpt>
			<trkpt lat="54.776890" lon="20.713910"><ele>24.5</ele><time>2026-07-15T05:19:37Z</time></trkpt>
			<trkpt lat="54.777280" lon="20.713730"><ele>24.9</ele><time>2026-07-15T05:19:44Z</time></trkpt>
			<trkpt lat="54.777800" lon="20.713610"><ele>25.7</ele><time>2026-07-15T05:19:52Z</time></trkpt>
			<trkpt lat="54.778750" lon="20.713540"><ele>28.1</ele><time>2026-07-15T05:20:00Z</time></trkpt>
			<trkpt lat="54.788090" lon="20.712630"><ele>22.8</ele><time>2026-07-15T05:20:07Z</time></trkpt>
			<trkpt lat="54.789380" lon="20.712500"><ele>23.3</ele><time>2026-07-15T05:20:15Z</time></trkpt>
			<trkpt lat="54.789380" lon="20.712500"><ele>23.3</ele><time>2026-07-15T05:20:22Z</time></trkpt>
			<trkpt lat="54.798500" lon="20.711610"><ele>19.7</ele><time>2026-07-15T05:20:29Z</time></trkpt>
			<trkpt lat="54.798690" lon="20.716860"><ele>17.1</ele><time>2026-07-15T05:20:36Z</time></trkpt>
			<trkpt lat="54.798770" lon="20.719160"><ele>16.3</ele><time>2026-07-15T05:20:43Z</time></trkpt>
			<trkpt lat="54.799060" lon="20.726480"><ele>14.9</ele><time>2026-07-15T05:20:51Z</time></trkpt>
			<trkpt lat="54.799130" lon="20.727350"><ele>15.0</ele><time>2026-07-15T05:20:58Z</time></trkpt>
			<trkpt lat="54.799230" lon="20.728120"><ele>15.5</ele><time>2026-07-15T05:21:05Z</time></trkpt>
			<trkpt lat="54.799440" lon="20.729210"><ele>14.1</ele><time>2026-07-15T05:21:12Z</time></trkpt>
			<trkpt lat="54.799650" lon="20.730060"><ele>13.6</ele><time>2026-07-15T05:21:19Z</time></trkpt>
			<trkpt lat="54.799880" lon="20.730770"><ele>14.9</ele><time>2026-07-15T05:21:26Z</time></trkpt>
			<trkpt lat="54.800030" lon="20.731120"><ele>16.0</ele><time>2026-07-15T05:21:33Z</time></trkpt>
			<trkpt lat="54.800230" lon="20.731610"><ele>17.6</ele><time>2026-07-15T05:21:40Z</time></trkpt>
			<trkpt lat="54.800560" lon="20.732270"><ele>17.9</ele><time>2026-07-15T05:21:47Z</time></trkpt>
			<trkpt lat="54.800700" lon="20.732530"><ele>17.4</ele><time>2026-07-15T05:21:54Z</time></trkpt>
			<trkpt lat="54.800970" lon="20.732980"><ele>16.2</ele><time>2026-07-15T05:22:02Z</time></trkpt>
			<trkpt lat="54.801710" lon="20.734120"><ele>13.9</ele><time>2026-07-15T05:22:09Z</time></trkpt>
			<trkpt lat="54.802300" lon="20.734920"><ele>12.0</ele><time>2026-07-15T05:22:16Z</time></trkpt>
			<trkpt lat="54.802400" lon="20.735040"><ele>11.9</ele><time>2026-07-15T05:22:23Z</time></trkpt>
			<trkpt lat="54.802560" lon="20.735250"><ele>11.7</ele><time>2026-07-15T05:22:30Z</time></trkpt>
			<trkpt lat="54.803010" lon="20.735720"><ele>10.6</ele><time>2026-07-15T05:22:37Z</time></trkpt>
			<trkpt lat="54.803510" lon="20.736130"><ele>9.8</ele><time>2026-07-15T05:22:44Z</time></trkpt>
			<trkpt lat="54.804130" lon="20.736510"><ele>9.0</ele><time>2026-07-15T05:22:51Z</time></trkpt>
			<trkpt lat="54.804270" lon="20.736590"><ele>9.1</ele><time>2026-07-15T05:22:58Z</time></trkpt>
			<trkpt lat="54.804560" lon="20.736770"><ele>9.5</ele><time>2026-07-15T05:23:05Z</time></trkpt>
			<trkpt lat="54.805070" lon="20.737120"><ele>10.4</ele><time>2026-07-15T05:23:13Z</time></trkpt>
			<trkpt lat="54.805420" lon="20.737320"><ele>10.8</ele><time>2026-07-15T05:23:20Z</time></trkpt>
			<trkpt lat="54.805690" lon="20.737510"><ele>11.1</ele><time>2026-07-15T05:23:27Z</time></trkpt>
			<trkpt lat="54.806190" lon="20.738130"><ele>12.6</ele><time>2026-07-15T05:23:34Z</time></trkpt>
			<trkpt lat="54.806600" lon="20.738750"><ele>13.8</ele><time>2026-07-15T05:23:41Z</time></trkpt>
			<trkpt lat="54.807080" lon="20.739410"><ele>13.3</ele><time>2026-07-15T05:23:48Z</time></trkpt>
			<trkpt lat="54.807450" lon="20.740100"><ele>12.9</ele><time>2026-07-15T05:23:55Z</time></trkpt>
			<trkpt lat="54.807510" lon="20.740390"><ele>13.0</ele><time>2026-07-15T05:24:02Z</time></trkpt>
			<trkpt lat="54.807560" lon="20.740860"><ele>13.0</ele><time>2026-07-15T05:24:09Z</time></trkpt>
			<trkpt lat="54.807640" lon="20.742110"><ele>13.5</ele><time>2026-07-15T05:24:16Z</time></trkpt>
			<trkpt lat="54.807660" lon="20.742450"><ele>13.9</ele><time>2026-07-15T05:24:23Z</time></trkpt>
			<trkpt lat="54.807860" lon="20.745890"><ele>11.6</ele><time>2026-07-15T05:24:31Z</time></trkpt>
			<trkpt lat="54.807880" lon="20.746230"><ele>11.3</ele><time>2026-07-15T05:24:38Z</time></trkpt>
			<trkpt lat="54.808060" lon="20.749350"><ele>11.1</ele><time>2026-07-15T05:24:45Z</time></trkpt>
			<trkpt lat="54.808580" lon="20.758400"><ele>12.3</ele><time>2026-07-15T05:24:52Z</time></trkpt>
			<trkpt lat="54.809010" lon="20.765950"><ele>12.2</ele><time>2026-07-15T05:24:59Z</time></trkpt>
			<trkpt lat="54.809420" lon="20.765470"><ele>12.3</ele><time>2026-07-15T05:25:06Z</time></trkpt>
			<trkpt lat="54.809470" lon="20.765410"><ele>12.4</ele><time>2026-07-15T05:25:13Z</time></trkpt>
			<trkpt lat="54.809830" lon="20.764860"><ele>12.8</ele><time>2026-07-15T05:25:20Z</time></trkpt>
			<trkpt lat="54.809930" lon="20.764790"><ele>12.8</ele><time>2026-07-15T05:25:27Z</time></trkpt>
			<trkpt lat="54.810040" lon="20.764790"><ele>12.8</ele><time>2026-07-15T05:25:34Z</time></trkpt>
			<trkpt lat="54.811730" lon="20.764940"><ele>13.2</ele><time>2026-07-15T05:25:42Z</time></trkpt>
			<trkpt lat="54.812190" lon="20.764940"><ele>13.6</ele><time>2026-07-15T05:25:49Z</time></trkpt>
			<trkpt lat="54.812890" lon="20.764840"><ele>13.5</ele><time>2026-07-15T05:25:56Z</time></trkpt>
			<trkpt lat="54.816280" lon="20.764480"><ele>12.2</ele><time>2026-07-15T05:26:03Z</time></trkpt>
			<trkpt lat="54.821860" lon="20.763860"><ele>11.9</ele><time>2026-07-15T05:26:10Z</time></trkpt>
			<trkpt lat="54.822020" lon="20.763860"><ele>12.1</ele><time>2026-07-15T05:26:17Z</time></trkpt>
			<trkpt lat="54.822230" lon="20.763920"><ele>12.4</ele><time>2026-07-15T05:26:24Z</time></trkpt>
			<trkpt lat="54.822390" lon="20.764040"><ele>12.6</ele><time>2026-07-15T05:26:31Z</time></trkpt>
			<trkpt lat="54.822470" lon="20.764280"><ele>12.8</ele><time>2026-07-15T05:26:38Z</time></trkpt>
			<trkpt lat="54.822890" lon="20.764090"><ele>13.0</ele><time>2026-07-15T05:26:45Z</time></trkpt>
			<trkpt lat="54.823090" lon="20.763930"><ele>12.9</ele><time>2026-07-15T05:26:53Z</time></trkpt>
			<trkpt lat="54.823240" lon="20.763730"><ele>12.9</ele><time>2026-07-15T05:27:00Z</time></trkpt>
			<trkpt lat="54.823390" lon="20.763470"><ele>12.9</ele><time>2026-07-15T05:27:07Z</time></trkpt>
			<trkpt lat="54.823460" lon="20.763380"><ele>12.8</ele><time>2026-07-15T05:27:14Z</time></trkpt>
			<trkpt lat="54.823540" lon="20.763300"><ele>12.7</ele><time>2026-07-15T05:27:21Z</time></trkpt>
			<trkpt lat="54.825100" lon="20.763330"><ele>11.1</ele><time>2026-07-15T05:27:28Z</time></trkpt>
			<trkpt lat="54.826560" lon="20.763330"><ele>11.0</ele><time>2026-07-15T05:27:35Z</time></trkpt>
			<trkpt lat="54.826890" lon="20.763460"><ele>10.7</ele><time>2026-07-15T05:27:42Z</time></trkpt>
			<trkpt lat="54.827350" lon="20.764030"><ele>10.2</ele><time>2026-07-15T05:27:49Z</time></trkpt>
			<trkpt lat="54.828290" lon="20.765450"><ele>10.0</ele><time>2026-07-15T05:27:56Z</time></trkpt>
			<trkpt lat="54.828460" lon="20.765630"><ele>10.1</ele><time>2026-07-15T05:28:04Z</time></trkpt>
			<trkpt lat="54.828690" lon="20.765780"><ele>10.4</ele><time>2026-07-15T05:28:11Z</time></trkpt>
			<trkpt lat="54.829180" lon="20.765980"><ele>11.0</ele><time>2026-07-15T05:28:18Z</time></trkpt>
			<trkpt lat="54.829420" lon="20.766000"><ele>11.2</ele><time>2026-07-15T05:28:25Z</time></trkpt>
			<trkpt lat="54.831390" lon="20.764980"><ele>12.3</ele><time>2026-07-15T05:28:32Z</time></trkpt>
			<trkpt lat="54.833430" lon="20.763900"><ele>11.5</ele><time>2026-07-15T05:28:39Z</time></trkpt>
			<trkpt lat="54.835350" lon="20.762530"><ele>10.0</ele><time>2026-07-15T05:28:46Z</time></trkpt>
			<trkpt lat="54.835350" lon="20.762530"><ele>10.0</ele><time>2026-07-15T05:28:55Z</time></trkpt>
			<trkpt lat="54.836270" lon="20.761840"><ele>9.6</ele><time>2026-07-15T05:29:03Z</time></trkpt>
			<trkpt lat="54.836570" lon="20.761640"><ele>9.8</ele><time>2026-07-15T05:29:12Z</time></trkpt>
			<trkpt lat="54.837030" lon="20.761290"><ele>10.0</ele><time>2026-07-15T05:29:21Z</time></trkpt>
			<trkpt lat="54.837370" lon="20.761010"><ele>10.0</ele><time>2026-07-15T05:29:29Z</time></trkpt>
			<trkpt lat="54.837600" lon="20.760730"><ele>9.9</ele><time>2026-07-15T05:29:38Z</time></trkpt>
			<trkpt lat="54.839300" lon="20.758580"><ele>11.0</ele><time>2026-07-15T05:29:46Z</time></trkpt>
			<trkpt lat="54.840330" lon="20.757190"><ele>12.6</ele><time>2026-07-15T05:29:55Z</time></trkpt>
			<trkpt lat="54.840880" lon="20.756210"><ele>12.3</ele><time>2026-07-15T05:30:04Z</time></trkpt>
			<trkpt lat="54.841130" lon="20.755890"><ele>11.3</ele><time>2026-07-15T05:30:12Z</time></trkpt>
			<trkpt lat="54.841270" lon="20.755620"><ele>11.0</ele><time>2026-07-15T05:30:21Z</time></trkpt>
			<trkpt lat="54.841830" lon="20.753750"><ele>10.6</ele><time>2026-07-15T05:30:29Z</time></trkpt>
			<trkpt lat="54.842010" lon="20.753070"><ele>10.3</ele><time>2026-07-15T05:30:38Z</time></trkpt>
			<trkpt lat="54.842150" lon="20.752370"><ele>9.9</ele><time>2026-07-15T05:30:46Z</time></trkpt>
			<trkpt lat="54.842260" lon="20.751640"><ele>9.3</ele><time>2026-07-15T05:30:55Z</time></trkpt>
			<trkpt lat="54.842290" lon="20.751280"><ele>9.0</ele><time>2026-07-15T05:31:04Z</time></trkpt>
			<trkpt lat="54.842290" lon="20.750810"><ele>8.7</ele><time>2026-07-15T05:31:12Z</time></trkpt>
			<trkpt lat="54.842290" lon="20.750070"><ele>8.7</ele><time>2026-07-15T05:31:21Z</time></trkpt>
			<trkpt lat="54.842270" lon="20.749490"><ele>9.3</ele><time>2026-07-15T05:31:29Z</time></trkpt>
			<trkpt lat="54.842280" lon="20.749150"><ele>9.4</ele><time>2026-07-15T05:31:38Z</time></trkpt>
			<trkpt lat="54.842320" lon="20.748490"><ele>9.2</ele><time>2026-07-15T05:31:47Z</time></trkpt>
			<trkpt lat="54.842350" lon="20.748190"><ele>9.0</ele><time>2026-07-15T05:31:55Z</time></trkpt>
			<trkpt lat="54.842390" lon="20.747910"><ele>9.0</ele><time>2026-07-15T05:32:04Z</time></trkpt>
			<trkpt lat="54.842500" lon="20.747010"><ele>9.6</ele><time>2026-07-15T05:32:12Z</time></trkpt>
			<trkpt lat="54.842520" lon="20.746760"><ele>9.6</ele><time>2026-07-15T05:32:21Z</time></trkpt>
			<trkpt lat="54.842520" lon="20.746540"><ele>9.6</ele><time>2026-07-15T05:32:30Z</time></trkpt>
			<trkpt lat="54.842500" lon="20.746320"><ele>9.6</ele><time>2026-07-15T05:32:38Z</time></trkpt>
			<trkpt lat="54.842460" lon="20.745960"><ele>9.2</ele><time>2026-07-15T05:32:47Z</time></trkpt>
			<trkpt lat="54.842380" lon="20.745340"><ele>9.3</ele><time>2026-07-15T05:32:55Z</time></trkpt>
			<trkpt lat="54.841820" lon="20.744020"><ele>10.1</ele><time>2026-07-15T05:33:04Z</time></trkpt>
			<trkpt lat="54.840880" lon="20.741980"><ele>11.1</ele><time>2026-07-15T05:33:13Z</time></trkpt>
			<trkpt lat="54.840000" lon="20.739940"><ele>11.6</ele><time>2026-07-15T05:33:21Z</time></trkpt>
			<trkpt lat="54.839850" lon="20.739330"><ele>11.4</ele><time>2026-07-15T05:33:30Z</time></trkpt>
			<trkpt lat="54.839730" lon="20.738700"><ele>11.3</ele><time>2026-07-15T05:33:38Z</time></trkpt>
			<trkpt lat="54.838880" lon="20.733530"><ele>11.6</ele><time>2026-07-15T05:33:47Z</time></trkpt>
			<trkpt lat="54.837590" lon="20.725770"><ele>14.1</ele><time>2026-07-15T05:33:56Z</time></trkpt>
			<trkpt lat="54.837750" lon="20.722220"><ele>14.1</ele><time>2026-07-15T05:34:04Z</time></trkpt>
			<trkpt lat="54.838030" lon="20.719910"><ele>11.1</ele><time>2026-07-15T05:34:13Z</time></trkpt>
			<trkpt lat="54.838470" lon="20.716400"><ele>10.8</ele><time>2026-07-15T05:34:21Z</time></trkpt>
			<trkpt lat="54.839730" lon="20.706480"><ele>12.5</ele><time>2026-07-15T05:34:30Z</time></trkpt>
			<trkpt lat="54.839730" lon="20.705910"><ele>12.5</ele><time>2026-07-15T05:34:39Z</time></trkpt>
			<trkpt lat="54.839660" lon="20.705290"><ele>12.7</ele><time>2026-07-15T05:34:47Z</time></trkpt>
			<trkpt lat="54.837070" lon="20.694710"><ele>14.0</ele><time>2026-07-15T05:34:56Z</time></trkpt>
			<trkpt lat="54.833740" lon="20.681280"><ele>20.3</ele><time>2026-07-15T05:35:04Z</time></trkpt>
			<trkpt lat="54.830950" lon="20.670020"><ele>25.4</ele><time>2026-07-15T05:35:13Z</time></trkpt>
			<trkpt lat="54.828540" lon="20.663420"><ele>21.3</ele><time>2026-07-15T05:35:22Z</time></trkpt>
			<trkpt lat="54.828080" lon="20.662360"><ele>20.1</ele><time>2026-07-15T05:35:30Z</time></trkpt>
			<trkpt lat="54.827820" lon="20.661770"><ele>18.9</ele><time>2026-07-15T05:35:39Z</time></trkpt>
			<trkpt lat="54.827610" lon="20.661410"><ele>18.5</ele><time>2026-07-15T05:35:47Z</time></trkpt>
			<trkpt lat="54.827330" lon="20.661120"><ele>18.5</ele><time>2026-07-15T05:35:56Z</time></trkpt>
			<trkpt lat="54.825690" lon="20.659410"><ele>18.8</ele><time>2026-07-15T05:36:05Z</time></trkpt>
			<trkpt lat="54.825300" lon="20.659000"><ele>17.8</ele><time>2026-07-15T05:36:13Z</time></trkpt>
			<trkpt lat="54.824980" lon="20.658660"><ele>17.7</ele><time>2026-07-15T05:36:22Z</time></trkpt>
			<trkpt lat="54.824560" lon="20.658160"><ele>18.5</ele><time>2026-07-15T05:36:30Z</time></trkpt>
			<trkpt lat="54.824430" lon="20.657970"><ele>18.7</ele><time>2026-07-15T05:36:39Z</time></trkpt>
			<trkpt lat="54.824320" lon="20.657710"><ele>18.8</ele><time>2026-07-15T05:36:47Z</time></trkpt>
			<trkpt lat="54.824230" lon="20.657300"><ele>18.7</ele><time>2026-07-15T05:36:56Z</time></trkpt>
			<trkpt lat="54.824080" lon="20.656560"><ele>18.3</ele><time>2026-07-15T05:37:05Z</time></trkpt>
			<trkpt lat="54.824060" lon="20.655350"><ele>18.9</ele><time>2026-07-15T05:37:13Z</time></trkpt>
			<trkpt lat="54.823910" lon="20.646430"><ele>27.6</ele><time>2026-07-15T05:37:22Z</time></trkpt>
			<trkpt lat="54.823550" lon="20.643400"><ele>30.8</ele><time>2026-07-15T05:37:30Z</time></trkpt>
			<trkpt lat="54.823540" lon="20.643320"><ele>30.9</ele><time>2026-07-15T05:37:39Z</time></trkpt>
			<trkpt lat="54.822840" lon="20.637370"><ele>27.9</ele><time>2026-07-15T05:37:48Z</time></trkpt>
			<trkpt lat="54.822810" lon="20.637120"><ele>27.7</ele><time>2026-07-15T05:37:56Z</time></trkpt>
			<trkpt lat="54.824360" lon="20.636780"><ele>26.9</ele><time>2026-07-15T05:38:05Z</time></trkpt>
			<trkpt lat="54.824520" lon="20.636700"><ele>27.0</ele><time>2026-07-15T05:38:13Z</time></trkpt>
			<trkpt lat="54.824680" lon="20.636590"><ele>27.0</ele><time>2026-07-15T05:38:22Z</time></trkpt>
			<trkpt lat="54.825280" lon="20.636090"><ele>27.2</ele><time>2026-07-15T05:38:31Z</time></trkpt>
			<trkpt lat="54.826470" lon="20.635030"><ele>27.8</ele><time>2026-07-15T05:38:39Z</time></trkpt>
			<trkpt lat="54.827930" lon="20.633810"><ele>25.6</ele><time>2026-07-15T05:38:48Z</time></trkpt>
			<trkpt lat="54.828890" lon="20.633010"><ele>25.3</ele><time>2026-07-15T05:38:56Z</time></trkpt>
			<trkpt lat="54.829890" lon="20.632160"><ele>26.0</ele><time>2026-07-15T05:39:05Z</time></trkpt>
			<trkpt lat="54.830300" lon="20.631800"><ele>26.8</ele><time>2026-07-15T05:39:14Z</time></trkpt>
			<trkpt lat="54.831260" lon="20.630940"><ele>23.4</ele><time>2026-07-15T05:39:22Z</time></trkpt>
			<trkpt lat="54.831530" lon="20.630780"><ele>22.1</ele><time>2026-07-15T05:39:31Z</time></trkpt>
			<trkpt lat="54.831760" lon="20.630680"><ele>21.5</ele><time>2026-07-15T05:39:39Z</time></trkpt>
			<trkpt lat="54.832010" lon="20.630610"><ele>22.0</ele><time>2026-07-15T05:39:48Z</time></trkpt>
			<trkpt lat="54.832240" lon="20.630590"><ele>22.4</ele><time>2026-07-15T05:39:57Z</time></trkpt>
			<trkpt lat="54.832430" lon="20.630610"><ele>22.7</ele><time>2026-07-15T05:40:05Z</time></trkpt>
			<trkpt lat="54.832580" lon="20.630640"><ele>22.8</ele><time>2026-07-15T05:40:14Z</time></trkpt>
			<trkpt lat="54.832730" lon="20.630690"><ele>22.9</ele><time>2026-07-15T05:40:22Z</time></trkpt>
			<trkpt lat="54.832930" lon="20.630800"><ele>23.0</ele><time>2026-07-15T05:40:31Z</time></trkpt>
			<trkpt lat="54.833380" lon="20.631150"><ele>23.5</ele><time>2026-07-15T05:40:40Z</time></trkpt>
			<trkpt lat="54.834190" lon="20.631780"><ele>26.0</ele><time>2026-07-15T05:40:48Z</time></trkpt>
			<trkpt lat="54.834760" lon="20.632200"><ele>23.7</ele><time>2026-07-15T05:40:57Z</time></trkpt>
			<trkpt lat="54.835490" lon="20.632730"><ele>21.5</ele><time>2026-07-15T05:41:05Z</time></trkpt>
			<trkpt lat="54.837420" lon="20.634060"><ele>20.8</ele><time>2026-07-15T05:41:14Z</time></trkpt>
			<trkpt lat="54.837600" lon="20.634130"><ele>21.2</ele><time>2026-07-15T05:41:23Z</time></trkpt>
			<trkpt lat="54.837810" lon="20.634130"><ele>21.6</ele><time>2026-07-15T05:41:31Z</time></trkpt>
			<trkpt lat="54.838070" lon="20.634050"><ele>22.0</ele><time>2026-07-15T05:41:40Z</time></trkpt>
			<trkpt lat="54.838070" lon="20.634050"><ele>22.0</ele><time>2026-07-15T05:41:47Z</time></trkpt>
			<trkpt lat="54.840370" lon="20.633380"><ele>23.0</ele><time>2026-07-15T05:41:55Z</time></trkpt>
			<trkpt lat="54.841160" lon="20.633130"><ele>21.6</ele><time>2026-07-15T05:42:02Z</time></trkpt>
			<trkpt lat="54.841940" lon="20.633030"><ele>19.3</ele><time>2026-07-15T05:42:10Z</time></trkpt>
			<trkpt lat="54.844050" lon="20.632680"><ele>23.1</ele><time>2026-07-15T05:42:18Z</time></trkpt>
			<trkpt lat="54.844740" lon="20.632690"><ele>22.4</ele><time>2026-07-15T05:42:25Z</time></trkpt>
			<trkpt lat="54.845090" lon="20.632770"><ele>21.7</ele><time>2026-07-15T05:42:33Z</time></trkpt>
			<trkpt lat="54.845520" lon="20.633170"><ele>20.5</ele><time>2026-07-15T05:42:40Z</time></trkpt>
			<trkpt lat="54.845660" lon="20.633300"><ele>20.1</ele><time>2026-07-15T05:42:48Z</time></trkpt>
			<trkpt lat="54.845990" lon="20.633520"><ele>19.3</ele><time>2026-07-15T05:42:55Z</time></trkpt>
			<trkpt lat="54.846320" lon="20.633610"><ele>19.4</ele><time>2026-07-15T05:43:03Z</time></trkpt>
			<trkpt lat="54.846520" lon="20.633600"><ele>19.4</ele><time>2026-07-15T05:43:11Z</time></trkpt>
			<trkpt lat="54.848260" lon="20.633370"><ele>20.8</ele><time>2026-07-15T05:43:18Z</time></trkpt>
			<trkpt lat="54.848390" lon="20.633380"><ele>21.1</ele><time>2026-07-15T05:43:26Z</time></trkpt>
			<trkpt lat="54.848500" lon="20.633400"><ele>21.4</ele><time>2026-07-15T05:43:33Z</time></trkpt>
			<trkpt lat="54.848600" lon="20.633440"><ele>21.6</ele><time>2026-07-15T05:43:41Z</time></trkpt>
			<trkpt lat="54.848680" lon="20.633510"><ele>21.8</ele><time>2026-07-15T05:43:49Z</time></trkpt>
			<trkpt lat="54.848800" lon="20.633660"><ele>22.1</ele><time>2026-07-15T05:43:56Z</time></trkpt>
			<trkpt lat="54.850720" lon="20.636210"><ele>17.5</ele><time>2026-07-15T05:44:04Z</time></trkpt>
			<trkpt lat="54.865500" lon="20.656030"><ele>11.2</ele><time>2026-07-15T05:44:11Z</time></trkpt>
			<trkpt lat="54.867650" lon="20.658870"><ele>9.6</ele><time>2026-07-15T05:44:19Z</time></trkpt>
			<trkpt lat="54.871020" lon="20.663330"><ele>8.9</ele><time>2026-07-15T05:44:26Z</time></trkpt>
			<trkpt lat="54.872160" lon="20.664440"><ele>7.2</ele><time>2026-07-15T05:44:34Z</time></trkpt>
			<trkpt lat="54.872330" lon="20.664600"><ele>7.0</ele><time>2026-07-15T05:44:42Z</time></trkpt>
			<trkpt lat="54.872360" lon="20.664630"><ele>7.0</ele><time>2026-07-15T05:44:49Z</time></trkpt>
			<trkpt lat="54.883370" lon="20.675320"><ele>5.4</ele><time>2026-07-15T05:44:57Z</time></trkpt>
			<trkpt lat="54.886020" lon="20.677830"><ele>5.7</ele><time>2026-07-15T05:45:04Z</time></trkpt>
			<trkpt lat="54.890250" lon="20.681940"><ele>4.7</ele><time>2026-07-15T05:45:12Z</time></trkpt>
			<trkpt lat="54.892730" lon="20.684310"><ele>5.4</ele><time>2026-07-15T05:45:19Z</time></trkpt>
			<trkpt lat="54.892900" lon="20.684510"><ele>5.4</ele><time>2026-07-15T05:45:27Z</time></trkpt>
			<trkpt lat="54.893150" lon="20.684760"><ele>5.9</ele><time>2026-07-15T05:45:35Z</time></trkpt>
			<trkpt lat="54.893440" lon="20.684990"><ele>6.7</ele><time>2026-07-15T05:45:42Z</time></trkpt>
			<trkpt lat="54.894050" lon="20.685530"><ele>8.2</ele><time>2026-07-15T05:45:50Z</time></trkpt>
			<trkpt lat="54.894640" lon="20.686000"><ele>9.2</ele><time>2026-07-15T05:45:57Z</time></trkpt>
			<trkpt lat="54.894880" lon="20.686090"><ele>8.9</ele><time>2026-07-15T05:46:05Z</time></trkpt>
			<trkpt lat="54.896130" lon="20.686300"><ele>5.7</ele><time>2026-07-15T05:46:12Z</time></trkpt>
			<trkpt lat="54.896310" lon="20.685870"><ele>4.8</ele><time>2026-07-15T05:46:20Z</time></trkpt>
			<trkpt lat="54.896600" lon="20.685340"><ele>3.7</ele><time>2026-07-15T05:46:28Z</time></trkpt>
			<trkpt lat="54.898660" lon="20.682000"><ele>4.5</ele><time>2026-07-15T05:46:35Z</time></trkpt>
			<trkpt lat="54.899010" lon="20.681380"><ele>4.2</ele><time>2026-07-15T05:46:43Z</time></trkpt>
			<trkpt lat="54.899810" lon="20.680010"><ele>3.7</ele><time>2026-07-15T05:46:50Z</time></trkpt>
			<trkpt lat="54.900280" lon="20.679200"><ele>4.1</ele><time>2026-07-15T05:46:58Z</time></trkpt>
			<trkpt lat="54.901370" lon="20.677320"><ele>5.1</ele><time>2026-07-15T05:47:05Z</time></trkpt>
			<trkpt lat="54.901450" lon="20.677190"><ele>4.9</ele><time>2026-07-15T05:47:13Z</time></trkpt>
			<trkpt lat="54.901650" lon="20.676850"><ele>4.3</ele><time>2026-07-15T05:47:21Z</time></trkpt>
			<trkpt lat="54.901880" lon="20.676400"><ele>4.4</ele><time>2026-07-15T05:47:28Z</time></trkpt>
			<trkpt lat="54.902080" lon="20.675940"><ele>4.9</ele><time>2026-07-15T05:47:36Z</time></trkpt>
			<trkpt lat="54.902340" lon="20.675370"><ele>5.6</ele><time>2026-07-15T05:47:43Z</time></trkpt>
			<trkpt lat="54.902500" lon="20.675050"><ele>5.7</ele><time>2026-07-15T05:47:51Z</time></trkpt>
			<trkpt lat="54.902620" lon="20.674900"><ele>5.7</ele><time>2026-07-15T05:47:58Z</time></trkpt>
			<trkpt lat="54.902730" lon="20.674750"><ele>5.4</ele><time>2026-07-15T05:48:06Z</time></trkpt>
			<trkpt lat="54.903330" lon="20.674130"><ele>4.1</ele><time>2026-07-15T05:48:14Z</time></trkpt>
			<trkpt lat="54.903580" lon="20.673780"><ele>3.7</ele><time>2026-07-15T05:48:21Z</time></trkpt>
			<trkpt lat="54.903730" lon="20.673480"><ele>3.5</ele><time>2026-07-15T05:48:29Z</time></trkpt>
			<trkpt lat="54.903850" lon="20.673210"><ele>3.5</ele><time>2026-07-15T05:48:36Z</time></trkpt>
			<trkpt lat="54.904220" lon="20.672180"><ele>3.6</ele><time>2026-07-15T05:48:44Z</time></trkpt>
			<trkpt lat="54.904410" lon="20.671730"><ele>3.1</ele><time>2026-07-15T05:48:51Z</time></trkpt>
			<trkpt lat="54.904700" lon="20.671150"><ele>3.0</ele><time>2026-07-15T05:48:59Z</time></trkpt>
			<trkpt lat="54.904910" lon="20.670710"><ele>3.0</ele><time>2026-07-15T05:49:07Z</time></trkpt>
			<trkpt lat="54.905090" lon="20.670420"><ele>3.1</ele><time>2026-07-15T05:49:14Z</time></trkpt>
			<trkpt lat="54.905270" lon="20.670250"><ele>3.3</ele><time>2026-07-15T05:49:22Z</time></trkpt>
			<trkpt lat="54.905420" lon="20.670160"><ele>3.4</ele><time>2026-07-15T05:49:29Z</time></trkpt>
			<trkpt lat="54.905590" lon="20.670110"><ele>3.6</ele><time>2026-07-15T05:49:37Z</time></trkpt>
			<trkpt lat="54.905880" lon="20.670080"><ele>3.7</ele><time>2026-07-15T05:49:45Z</time></trkpt>
			<trkpt lat="54.906020" lon="20.670040"><ele>3.5</ele><time>2026-07-15T05:49:52Z</time></trkpt>
			<trkpt lat="54.906120" lon="20.669970"><ele>3.4</ele><time>2026-07-15T05:50:00Z</time></trkpt>
			<trkpt lat="54.906240" lon="20.669860"><ele>3.4</ele><time>2026-07-15T05:50:07Z</time></trkpt>
			<trkpt lat="54.906360" lon="20.669700"><ele>3.4</ele><time>2026-07-15T05:50:15Z</time></trkpt>
			<trkpt lat="54.906630" lon="20.669260"><ele>3.8</ele><time>2026-07-15T05:50:22Z</time></trkpt>
			<trkpt lat="54.906820" lon="20.668860"><ele>3.8</ele><time>2026-07-15T05:50:30Z</time></trkpt>
			<trkpt lat="54.907020" lon="20.668320"><ele>3.5</ele><time>2026-07-15T05:50:38Z</time></trkpt>
			<trkpt lat="54.907070" lon="20.668160"><ele>3.3</ele><time>2026-07-15T05:50:45Z</time></trkpt>
			<trkpt lat="54.907120" lon="20.667910"><ele>2.9</ele><time>2026-07-15T05:50:53Z</time></trkpt>
			<trkpt lat="54.907140" lon="20.667710"><ele>2.6</ele><time>2026-07-15T05:51:00Z</time></trkpt>
			<trkpt lat="54.907140" lon="20.667540"><ele>2.4</ele><time>2026-07-15T05:51:08Z</time></trkpt>
			<trkpt lat="54.907110" lon="20.667040"><ele>2.2</ele><time>2026-07-15T05:51:15Z</time></trkpt>
			<trkpt lat="54.907030" lon="20.665870"><ele>2.6</ele><time>2026-07-15T05:51:23Z</time></trkpt>
			<trkpt lat="54.906690" lon="20.661600"><ele>4.6</ele><time>2026-07-15T05:51:31Z</time></trkpt>
			<trkpt lat="54.906280" lon="20.655960"><ele>3.3</ele><time>2026-07-15T05:51:38Z</time></trkpt>
			<trkpt lat="54.906270" lon="20.655680"><ele>3.4</ele><time>2026-07-15T05:51:46Z</time></trkpt>
			<trkpt lat="54.906290" lon="20.655290"><ele>3.4</ele><time>2026-07-15T05:51:53Z</time></trkpt>
			<trkpt lat="54.906310" lon="20.655100"><ele>3.4</ele><time>2026-07-15T05:52:01Z</time></trkpt>
			<trkpt lat="54.906450" lon="20.654350"><ele>2.5</ele><time>2026-07-15T05:52:08Z</time></trkpt>
			<trkpt lat="54.907280" lon="20.650660"><ele>4.4</ele><time>2026-07-15T05:52:16Z</time></trkpt>
			<trkpt lat="54.907680" lon="20.648930"><ele>4.6</ele><time>2026-07-15T05:52:24Z</time></trkpt>
			<trkpt lat="54.908060" lon="20.647200"><ele>4.1</ele><time>2026-07-15T05:52:31Z</time></trkpt>
			<trkpt lat="54.908140" lon="20.646780"><ele>4.3</ele><time>2026-07-15T05:52:39Z</time></trkpt>
			<trkpt lat="54.908330" lon="20.645270"><ele>6.6</ele><time>2026-07-15T05:52:46Z</time></trkpt>
			<trkpt lat="54.908500" lon="20.643800"><ele>4.4</ele><time>2026-07-15T05:52:54Z</time></trkpt>
			<trkpt lat="54.908520" lon="20.643490"><ele>4.1</ele><time>2026-07-15T05:53:01Z</time></trkpt>
			<trkpt lat="54.908530" lon="20.643050"><ele>4.1</ele><time>2026-07-15T05:53:09Z</time></trkpt>
			<trkpt lat="54.908510" lon="20.642810"><ele>4.3</ele><time>2026-07-15T05:53:17Z</time></trkpt>
			<trkpt lat="54.908440" lon="20.642420"><ele>4.5</ele><time>2026-07-15T05:53:24Z</time></trkpt>
			<trkpt lat="54.907550" lon="20.638610"><ele>3.9</ele><time>2026-07-15T05:53:32Z</time></trkpt>
			<trkpt lat="54.907190" lon="20.637010"><ele>4.2</ele><time>2026-07-15T05:53:39Z</time></trkpt>
			<trkpt lat="54.907190" lon="20.637010"><ele>4.2</ele><time>2026-07-15T05:53:44Z</time></trkpt>
			<trkpt lat="54.906620" lon="20.634490"><ele>4.3</ele><time>2026-07-15T05:53:50Z</time></trkpt>
			<trkpt lat="54.906550" lon="20.634070"><ele>3.8</ele><time>2026-07-15T05:53:55Z</time></trkpt>
			<trkpt lat="54.906400" lon="20.632780"><ele>4.2</ele><time>2026-07-15T05:54:00Z</time></trkpt>
			<trkpt lat="54.906050" lon="20.629840"><ele>5.7</ele><time>2026-07-15T05:54:05Z</time></trkpt>
			<trkpt lat="54.906000" lon="20.629200"><ele>5.6</ele><time>2026-07-15T05:54:10Z</time></trkpt>
			<trkpt lat="54.906010" lon="20.628810"><ele>5.4</ele><time>2026-07-15T05:54:15Z</time></trkpt>
			<trkpt lat="54.906040" lon="20.628480"><ele>4.9</ele><time>2026-07-15T05:54:21Z</time></trkpt>
			<trkpt lat="54.906040" lon="20.628080"><ele>4.8</ele><time>2026-07-15T05:54:26Z</time></trkpt>
			<trkpt lat="54.906030" lon="20.627830"><ele>4.8</ele><time>2026-07-15T05:54:31Z</time></trkpt>
			<trkpt lat="54.905990" lon="20.627490"><ele>4.8</ele><time>2026-07-15T05:54:36Z</time></trkpt>
			<trkpt lat="54.905940" lon="20.627180"><ele>4.9</ele><time>2026-07-15T05:54:41Z</time></trkpt>
			<trkpt lat="54.905860" lon="20.626950"><ele>4.9</ele><time>2026-07-15T05:54:46Z</time></trkpt>
			<trkpt lat="54.905350" lon="20.625630"><ele>4.8</ele><time>2026-07-15T05:54:52Z</time></trkpt>
			<trkpt lat="54.905220" lon="20.625330"><ele>4.5</ele><time>2026-07-15T05:54:57Z</time></trkpt>
			<trkpt lat="54.905020" lon="20.624810"><ele>3.9</ele><time>2026-07-15T05:55:02Z</time></trkpt>
			<trkpt lat="54.903690" lon="20.621470"><ele>5.0</ele><time>2026-07-15T05:55:07Z</time></trkpt>
			<trkpt lat="54.903540" lon="20.621040"><ele>4.9</ele><time>2026-07-15T05:55:12Z</time></trkpt>
			<trkpt lat="54.903460" lon="20.620670"><ele>5.1</ele><time>2026-07-15T05:55:17Z</time></trkpt>
			<trkpt lat="54.903390" lon="20.620130"><ele>5.6</ele><time>2026-07-15T05:55:23Z</time></trkpt>
			<trkpt lat="54.903260" lon="20.617610"><ele>7.8</ele><time>2026-07-15T05:55:28Z</time></trkpt>
			<trkpt lat="54.903100" lon="20.614980"><ele>5.7</ele><time>2026-07-15T05:55:33Z</time></trkpt>
			<trkpt lat="54.903040" lon="20.614190"><ele>4.8</ele><time>2026-07-15T05:55:38Z</time></trkpt>
			<trkpt lat="54.902930" lon="20.613140"><ele>4.4</ele><time>2026-07-15T05:55:43Z</time></trkpt>
			<trkpt lat="54.902750" lon="20.610870"><ele>4.4</ele><time>2026-07-15T05:55:48Z</time></trkpt>
			<trkpt lat="54.902560" lon="20.609140"><ele>5.9</ele><time>2026-07-15T05:55:54Z</time></trkpt>
			<trkpt lat="54.902050" lon="20.605220"><ele>5.9</ele><time>2026-07-15T05:55:59Z</time></trkpt>
			<trkpt lat="54.901830" lon="20.603550"><ele>7.4</ele><time>2026-07-15T05:56:04Z</time></trkpt>
			<trkpt lat="54.901820" lon="20.603460"><ele>7.4</ele><time>2026-07-15T05:56:09Z</time></trkpt>
			<trkpt lat="54.901580" lon="20.601520"><ele>6.2</ele><time>2026-07-15T05:56:14Z</time></trkpt>
			<trkpt lat="54.901430" lon="20.600510"><ele>6.4</ele><time>2026-07-15T05:56:19Z</time></trkpt>
			<trkpt lat="54.901270" lon="20.599580"><ele>6.4</ele><time>2026-07-15T05:56:25Z</time></trkpt>
			<trkpt lat="54.900990" lon="20.598300"><ele>6.0</ele><time>2026-07-15T05:56:30Z</time></trkpt>
			<trkpt lat="54.900810" lon="20.597590"><ele>6.1</ele><time>2026-07-15T05:56:35Z</time></trkpt>
			<trkpt lat="54.900720" lon="20.597260"><ele>6.3</ele><time>2026-07-15T05:56:40Z</time></trkpt>
			<trkpt lat="54.900610" lon="20.596900"><ele>6.8</ele><time>2026-07-15T05:56:45Z</time></trkpt>
			<trkpt lat="54.900490" lon="20.596620"><ele>7.2</ele><time>2026-07-15T05:56:50Z</time></trkpt>
			<trkpt lat="54.900410" lon="20.596380"><ele>7.5</ele><time>2026-07-15T05:56:56Z</time></trkpt>
			<trkpt lat="54.899510" lon="20.594230"><ele>7.4</ele><time>2026-07-15T05:57:01Z</time></trkpt>
			<trkpt lat="54.899240" lon="20.593630"><ele>8.4</ele><time>2026-07-15T05:57:06Z</time></trkpt>
			<trkpt lat="54.898990" lon="20.592880"><ele>9.5</ele><time>2026-07-15T05:57:11Z</time></trkpt>
			<trkpt lat="54.898730" lon="20.591990"><ele>9.2</ele><time>2026-07-15T05:57:16Z</time></trkpt>
			<trkpt lat="54.898360" lon="20.590510"><ele>8.5</ele><time>2026-07-15T05:57:21Z</time></trkpt>
			<trkpt lat="54.897510" lon="20.587380"><ele>8.0</ele><time>2026-07-15T05:57:27Z</time></trkpt>
			<trkpt lat="54.896760" lon="20.584720"><ele>8.7</ele><time>2026-07-15T05:57:32Z</time></trkpt>
			<trkpt lat="54.896380" lon="20.583490"><ele>9.8</ele><time>2026-07-15T05:57:37Z</time></trkpt>
			<trkpt lat="54.896300" lon="20.583210"><ele>9.3</ele><time>2026-07-15T05:57:42Z</time></trkpt>
			<trkpt lat="54.896150" lon="20.582650"><ele>8.5</ele><time>2026-07-15T05:57:47Z</time></trkpt>
			<trkpt lat="54.895660" lon="20.580970"><ele>9.4</ele><time>2026-07-15T05:57:52Z</time></trkpt>
			<trkpt lat="54.895140" lon="20.579190"><ele>8.9</ele><time>2026-07-15T05:57:58Z</time></trkpt>
			<trkpt lat="54.894850" lon="20.578300"><ele>7.7</ele><time>2026-07-15T05:58:03Z</time></trkpt>
			<trkpt lat="54.894630" lon="20.577630"><ele>7.1</ele><time>2026-07-15T05:58:08Z</time></trkpt>
			<trkpt lat="54.894380" lon="20.576930"><ele>7.0</ele><time>2026-07-15T05:58:13Z</time></trkpt>
			<trkpt lat="54.893930" lon="20.575730"><ele>7.1</ele><time>2026-07-15T05:58:18Z</time></trkpt>
			<trkpt lat="54.893470" lon="20.574560"><ele>7.7</ele><time>2026-07-15T05:58:23Z</time></trkpt>
			<trkpt lat="54.893160" lon="20.573820"><ele>7.5</ele><time>2026-07-15T05:58:29Z</time></trkpt>
			<trkpt lat="54.892870" lon="20.573170"><ele>7.4</ele><time>2026-07-15T05:58:34Z</time></trkpt>
			<trkpt lat="54.892590" lon="20.572530"><ele>8.7</ele><time>2026-07-15T05:58:39Z</time></trkpt>
			<trkpt lat="54.892300" lon="20.571920"><ele>9.0</ele><time>2026-07-15T05:58:44Z</time></trkpt>
			<trkpt lat="54.892010" lon="20.571350"><ele>9.0</ele><time>2026-07-15T05:58:49Z</time></trkpt>
			<trkpt lat="54.890770" lon="20.568910"><ele>9.6</ele><time>2026-07-15T05:58:54Z</time></trkpt>
			<trkpt lat="54.890260" lon="20.567920"><ele>11.6</ele><time>2026-07-15T05:59:00Z</time></trkpt>
			<trkpt lat="54.890130" lon="20.567690"><ele>11.9</ele><time>2026-07-15T05:59:05Z</time></trkpt>
			<trkpt lat="54.890080" lon="20.567600"><ele>12.0</ele><time>2026-07-15T05:59:10Z</time></trkpt>
			<trkpt lat="54.889950" lon="20.567380"><ele>11.9</ele><time>2026-07-15T05:59:15Z</time></trkpt>
			<trkpt lat="54.889790" lon="20.567120"><ele>11.7</ele><time>2026-07-15T05:59:20Z</time></trkpt>
			<trkpt lat="54.889610" lon="20.566860"><ele>11.0</ele><time>2026-07-15T05:59:25Z</time></trkpt>
			<trkpt lat="54.889410" lon="20.566610"><ele>10.2</ele><time>2026-07-15T05:59:31Z</time></trkpt>
			<trkpt lat="54.889060" lon="20.566220"><ele>9.1</ele><time>2026-07-15T05:59:36Z</time></trkpt>
			<trkpt lat="54.888900" lon="20.566050"><ele>9.0</ele><time>2026-07-15T05:59:41Z</time></trkpt>
			<trkpt lat="54.888520" lon="20.565710"><ele>9.1</ele><time>2026-07-15T05:59:46Z</time></trkpt>
			<trkpt lat="54.888220" lon="20.565500"><ele>9.3</ele><time>2026-07-15T05:59:51Z</time></trkpt>
			<trkpt lat="54.888010" lon="20.565360"><ele>9.2</ele><time>2026-07-15T05:59:56Z</time></trkpt>
			<trkpt lat="54.887580" lon="20.565150"><ele>8.9</ele><time>2026-07-15T06:00:01Z</time></trkpt>
			<trkpt lat="54.887260" lon="20.565020"><ele>9.0</ele><time>2026-07-15T06:00:07Z</time></trkpt>
			<trkpt lat="54.886860" lon="20.564930"><ele>9.0</ele><time>2026-07-15T06:00:12Z</time></trkpt>
			<trkpt lat="54.886520" lon="20.564880"><ele>9.0</ele><time>2026-07-15T06:00:17Z</time></trkpt>
			<trkpt lat="54.886160" lon="20.564870"><ele>9.0</ele><time>2026-07-15T06:00:22Z</time></trkpt>
			<trkpt lat="54.884400" lon="20.564940"><ele>10.7</ele><time>2026-07-15T06:00:27Z</time></trkpt>
			<trkpt lat="54.882630" lon="20.565050"><ele>8.2</ele><time>2026-07-15T06:00:32Z</time></trkpt>
			<trkpt lat="54.871970" lon="20.565530"><ele>17.2</ele><time>2026-07-15T06:00:38Z</time></trkpt>
			<trkpt lat="54.870080" lon="20.565590"><ele>17.0</ele><time>2026-07-15T06:00:43Z</time></trkpt>
			<trkpt lat="54.869640" lon="20.565620"><ele>17.0</ele><time>2026-07-15T06:00:48Z</time></trkpt>
			<trkpt lat="54.869450" lon="20.565610"><ele>17.0</ele><time>2026-07-15T06:00:53Z</time></trkpt>
			<trkpt lat="54.869300" lon="20.565560"><ele>17.0</ele><time>2026-07-15T06:00:58Z</time></trkpt>
			<trkpt lat="54.868870" lon="20.565310"><ele>16.6</ele><time>2026-07-15T06:01:03Z</time></trkpt>
			<trkpt lat="54.868870" lon="20.565310"><ele>16.6</ele><time>2026-07-15T06:01:10Z</time></trkpt>
			<trkpt lat="54.868700" lon="20.565210"><ele>16.5</ele><time>2026-07-15T06:01:16Z</time></trkpt>
			<trkpt lat="54.868850" lon="20.564720"><ele>16.5</ele><time>2026-07-15T06:01:23Z</time></trkpt>
			<trkpt lat="54.869000" lon="20.564000"><ele>16.6</ele><time>2026-07-15T06:01:29Z</time></trkpt>
			<trkpt lat="54.869220" lon="20.562790"><ele>17.0</ele><time>2026-07-15T06:01:36Z</time></trkpt>
			<trkpt lat="54.869290" lon="20.562430"><ele>16.8</ele><time>2026-07-15T06:01:42Z</time></trkpt>
			<trkpt lat="54.869320" lon="20.562110"><ele>16.5</ele><time>2026-07-15T06:01:48Z</time></trkpt>
			<trkpt lat="54.869350" lon="20.561870"><ele>16.2</ele><time>2026-07-15T06:01:55Z</time></trkpt>
			<trkpt lat="54.869340" lon="20.561690"><ele>16.0</ele><time>2026-07-15T06:02:01Z</time></trkpt>
			<trkpt lat="54.868880" lon="20.558990"><ele>15.2</ele><time>2026-07-15T06:02:08Z</time></trkpt>
			<trkpt lat="54.868620" lon="20.557350"><ele>14.8</ele><time>2026-07-15T06:02:14Z</time></trkpt>
			<trkpt lat="54.868300" lon="20.555190"><ele>15.0</ele><time>2026-07-15T06:02:20Z</time></trkpt>
			<trkpt lat="54.868337" lon="20.555033"><ele>15.0</ele><time>2026-07-15T06:02:27Z</time></trkpt>
			<trkpt lat="54.868472" lon="20.554800"><ele>15.0</ele><time>2026-07-15T06:02:53Z</time></trkpt>
			<trkpt lat="54.868847" lon="20.554779"><ele>15.0</ele><time>2026-07-15T06:03:45Z</time></trkpt>
			<trkpt lat="54.869379" lon="20.552112"><ele>12.7</ele><time>2026-07-15T06:07:31Z</time></trkpt>
			<trkpt lat="54.869565" lon="20.550498"><ele>13.0</ele><time>2026-07-15T06:09:43Z</time></trkpt>
			<trkpt lat="54.869393" lon="20.552161"><ele>12.7</ele><time>2026-07-15T06:11:58Z</time></trkpt>
			<trkpt lat="54.868855" lon="20.554832"><ele>15.0</ele><time>2026-07-15T06:15:44Z</time></trkpt>
			<trkpt lat="54.868485" lon="20.554789"><ele>15.0</ele><time>2026-07-15T06:16:36Z</time></trkpt>
			<trkpt lat="54.868480" lon="20.554790"><ele>15.0</ele><time>2026-07-15T06:16:40Z</time></trkpt>
			<trkpt lat="54.868400" lon="20.554850"><ele>15.0</ele><time>2026-07-15T06:16:45Z</time></trkpt>
			<trkpt lat="54.868350" lon="20.554980"><ele>15.0</ele><time>2026-07-15T06:16:50Z</time></trkpt>
			<trkpt lat="54.868300" lon="20.555190"><ele>15.0</ele><time>2026-07-15T06:16:54Z</time></trkpt>
			<trkpt lat="54.868620" lon="20.557350"><ele>14.8</ele><time>2026-07-15T06:16:59Z</time></trkpt>
			<trkpt lat="54.868710" lon="20.557950"><ele>15.5</ele><time>2026-07-15T06:17:03Z</time></trkpt>
			<trkpt lat="54.868710" lon="20.557950"><ele>15.5</ele><time>2026-07-15T06:17:10Z</time></trkpt>
			<trkpt lat="54.868880" lon="20.558990"><ele>15.2</ele><time>2026-07-15T06:17:16Z</time></trkpt>
			<trkpt lat="54.869340" lon="20.561690"><ele>16.0</ele><time>2026-07-15T06:17:22Z</time></trkpt>
			<trkpt lat="54.869350" lon="20.561870"><ele>16.2</ele><time>2026-07-15T06:17:28Z</time></trkpt>
			<trkpt lat="54.869320" lon="20.562110"><ele>16.5</ele><time>2026-07-15T06:17:34Z</time></trkpt>
			<trkpt lat="54.869290" lon="20.562430"><ele>16.8</ele><time>2026-07-15T06:17:40Z</time></trkpt>
			<trkpt lat="54.869220" lon="20.562790"><ele>17.0</ele><time>2026-07-15T06:17:46Z</time></trkpt>
			<trkpt lat="54.869000" lon="20.564000"><ele>16.5</ele><time>2026-07-15T06:17:52Z</time></trkpt>
			<trkpt lat="54.868850" lon="20.564720"><ele>16.5</ele><time>2026-07-15T06:17:58Z</time></trkpt>
			<trkpt lat="54.868700" lon="20.565210"><ele>16.4</ele><time>2026-07-15T06:18:04Z</time></trkpt>
			<trkpt lat="54.867560" lon="20.564530"><ele>15.1</ele><time>2026-07-15T06:18:11Z</time></trkpt>
			<trkpt lat="54.867560" lon="20.564530"><ele>15.1</ele><time>2026-07-15T06:18:17Z</time></trkpt>
			<trkpt lat="54.866340" lon="20.563810"><ele>13.8</ele><time>2026-07-15T06:18:23Z</time></trkpt>
			<trkpt lat="54.865780" lon="20.563510"><ele>15.1</ele><time>2026-07-15T06:18:29Z</time></trkpt>
			<trkpt lat="54.864410" lon="20.562830"><ele>16.8</ele><time>2026-07-15T06:18:35Z</time></trkpt>
			<trkpt lat="54.864350" lon="20.562800"><ele>16.9</ele><time>2026-07-15T06:18:41Z</time></trkpt>
			<trkpt lat="54.863780" lon="20.562510"><ele>17.5</ele><time>2026-07-15T06:18:47Z</time></trkpt>
			<trkpt lat="54.859610" lon="20.560540"><ele>17.1</ele><time>2026-07-15T06:18:54Z</time></trkpt>
			<trkpt lat="54.856130" lon="20.558830"><ele>18.7</ele><time>2026-07-15T06:19:00Z</time></trkpt>
			<trkpt lat="54.855380" lon="20.558440"><ele>19.2</ele><time>2026-07-15T06:19:06Z</time></trkpt>
			<trkpt lat="54.854900" lon="20.558140"><ele>19.8</ele><time>2026-07-15T06:19:12Z</time></trkpt>
			<trkpt lat="54.854580" lon="20.557900"><ele>19.5</ele><time>2026-07-15T06:19:18Z</time></trkpt>
			<trkpt lat="54.854310" lon="20.557660"><ele>19.2</ele><time>2026-07-15T06:19:24Z</time></trkpt>
			<trkpt lat="54.854010" lon="20.557380"><ele>19.0</ele><time>2026-07-15T06:19:31Z</time></trkpt>
			<trkpt lat="54.853460" lon="20.556840"><ele>19.0</ele><time>2026-07-15T06:19:37Z</time></trkpt>
			<trkpt lat="54.851120" lon="20.554400"><ele>20.7</ele><time>2026-07-15T06:19:43Z</time></trkpt>
			<trkpt lat="54.848940" lon="20.552110"><ele>21.2</ele><time>2026-07-15T06:19:49Z</time></trkpt>
			<trkpt lat="54.847550" lon="20.550720"><ele>22.5</ele><time>2026-07-15T06:19:55Z</time></trkpt>
			<trkpt lat="54.844810" lon="20.547740"><ele>19.9</ele><time>2026-07-15T06:20:01Z</time></trkpt>
			<trkpt lat="54.844210" lon="20.547220"><ele>20.2</ele><time>2026-07-15T06:20:07Z</time></trkpt>
			<trkpt lat="54.843480" lon="20.546590"><ele>19.7</ele><time>2026-07-15T06:20:14Z</time></trkpt>
			<trkpt lat="54.842470" lon="20.545830"><ele>19.0</ele><time>2026-07-15T06:20:20Z</time></trkpt>
			<trkpt lat="54.842270" lon="20.545670"><ele>18.7</ele><time>2026-07-15T06:20:26Z</time></trkpt>
			<trkpt lat="54.842030" lon="20.545450"><ele>18.4</ele><time>2026-07-15T06:20:32Z</time></trkpt>
			<trkpt lat="54.841860" lon="20.545250"><ele>18.2</ele><time>2026-07-15T06:20:38Z</time></trkpt>
			<trkpt lat="54.841740" lon="20.544990"><ele>18.3</ele><time>2026-07-15T06:20:44Z</time></trkpt>
			<trkpt lat="54.841620" lon="20.544680"><ele>18.5</ele><time>2026-07-15T06:20:51Z</time></trkpt>
			<trkpt lat="54.841500" lon="20.544300"><ele>19.0</ele><time>2026-07-15T06:20:57Z</time></trkpt>
			<trkpt lat="54.841390" lon="20.543920"><ele>19.5</ele><time>2026-07-15T06:21:03Z</time></trkpt>
			<trkpt lat="54.839140" lon="20.535530"><ele>19.4</ele><time>2026-07-15T06:21:09Z</time></trkpt>
			<trkpt lat="54.839070" lon="20.535260"><ele>19.7</ele><time>2026-07-15T06:21:15Z</time></trkpt>
			<trkpt lat="54.838750" lon="20.534210"><ele>20.4</ele><time>2026-07-15T06:21:21Z</time></trkpt>
			<trkpt lat="54.838620" lon="20.533740"><ele>20.2</ele><time>2026-07-15T06:21:27Z</time></trkpt>
			<trkpt lat="54.838190" lon="20.533800"><ele>19.7</ele><time>2026-07-15T06:21:34Z</time></trkpt>
			<trkpt lat="54.837290" lon="20.533920"><ele>20.7</ele><time>2026-07-15T06:21:40Z</time></trkpt>
			<trkpt lat="54.835880" lon="20.534100"><ele>24.6</ele><time>2026-07-15T06:21:46Z</time></trkpt>
			<trkpt lat="54.835710" lon="20.534110"><ele>24.5</ele><time>2026-07-15T06:21:52Z</time></trkpt>
			<trkpt lat="54.835530" lon="20.534090"><ele>24.3</ele><time>2026-07-15T06:21:58Z</time></trkpt>
			<trkpt lat="54.835360" lon="20.533990"><ele>24.1</ele><time>2026-07-15T06:22:04Z</time></trkpt>
			<trkpt lat="54.835180" lon="20.533840"><ele>24.1</ele><time>2026-07-15T06:22:10Z</time></trkpt>
			<trkpt lat="54.834850" lon="20.533500"><ele>24.6</ele><time>2026-07-15T06:22:17Z</time></trkpt>
			<trkpt lat="54.834530" lon="20.533190"><ele>25.2</ele><time>2026-07-15T06:22:23Z</time></trkpt>
			<trkpt lat="54.833790" lon="20.532390"><ele>26.6</ele><time>2026-07-15T06:22:29Z</time></trkpt>
			<trkpt lat="54.830570" lon="20.528950"><ele>27.6</ele><time>2026-07-15T06:22:35Z</time></trkpt>
			<trkpt lat="54.830160" lon="20.528500"><ele>29.2</ele><time>2026-07-15T06:22:41Z</time></trkpt>
			<trkpt lat="54.830040" lon="20.528390"><ele>29.7</ele><time>2026-07-15T06:22:47Z</time></trkpt>
			<trkpt lat="54.829850" lon="20.528310"><ele>29.3</ele><time>2026-07-15T06:22:54Z</time></trkpt>
			<trkpt lat="54.829530" lon="20.528250"><ele>28.2</ele><time>2026-07-15T06:23:00Z</time></trkpt>
			<trkpt lat="54.828070" lon="20.528150"><ele>26.0</ele><time>2026-07-15T06:23:06Z</time></trkpt>
			<trkpt lat="54.826580" lon="20.528120"><ele>26.7</ele><time>2026-07-15T06:23:12Z</time></trkpt>
			<trkpt lat="54.826100" lon="20.528100"><ele>26.3</ele><time>2026-07-15T06:23:18Z</time></trkpt>
			<trkpt lat="54.823630" lon="20.527980"><ele>27.0</ele><time>2026-07-15T06:23:24Z</time></trkpt>
			<trkpt lat="54.823440" lon="20.527920"><ele>27.3</ele><time>2026-07-15T06:23:30Z</time></trkpt>
			<trkpt lat="54.823050" lon="20.527740"><ele>28.1</ele><time>2026-07-15T06:23:37Z</time></trkpt>
			<trkpt lat="54.821530" lon="20.526610"><ele>31.0</ele><time>2026-07-15T06:23:43Z</time></trkpt>
			<trkpt lat="54.821330" lon="20.526480"><ele>31.2</ele><time>2026-07-15T06:23:49Z</time></trkpt>
			<trkpt lat="54.820710" lon="20.526010"><ele>31.8</ele><time>2026-07-15T06:23:55Z</time></trkpt>
			<trkpt lat="54.818810" lon="20.524550"><ele>34.3</ele><time>2026-07-15T06:24:01Z</time></trkpt>
			<trkpt lat="54.818150" lon="20.524090"><ele>33.1</ele><time>2026-07-15T06:24:07Z</time></trkpt>
			<trkpt lat="54.817780" lon="20.523890"><ele>31.4</ele><time>2026-07-15T06:24:13Z</time></trkpt>
			<trkpt lat="54.816810" lon="20.523490"><ele>26.7</ele><time>2026-07-15T06:24:20Z</time></trkpt>
			<trkpt lat="54.816460" lon="20.523370"><ele>25.7</ele><time>2026-07-15T06:24:26Z</time></trkpt>
			<trkpt lat="54.816090" lon="20.523300"><ele>25.3</ele><time>2026-07-15T06:24:32Z</time></trkpt>
			<trkpt lat="54.815850" lon="20.523340"><ele>25.1</ele><time>2026-07-15T06:24:38Z</time></trkpt>
			<trkpt lat="54.815560" lon="20.523560"><ele>25.4</ele><time>2026-07-15T06:24:44Z</time></trkpt>
			<trkpt lat="54.815300" lon="20.523870"><ele>26.2</ele><time>2026-07-15T06:24:50Z</time></trkpt>
			<trkpt lat="54.814530" lon="20.525050"><ele>26.5</ele><time>2026-07-15T06:24:57Z</time></trkpt>
			<trkpt lat="54.813940" lon="20.525990"><ele>24.3</ele><time>2026-07-15T06:25:03Z</time></trkpt>
			<trkpt lat="54.812880" lon="20.528250"><ele>24.4</ele><time>2026-07-15T06:25:09Z</time></trkpt>
			<trkpt lat="54.811170" lon="20.531950"><ele>21.8</ele><time>2026-07-15T06:25:15Z</time></trkpt>
			<trkpt lat="54.810680" lon="20.533050"><ele>21.0</ele><time>2026-07-15T06:25:21Z</time></trkpt>
			<trkpt lat="54.810420" lon="20.533860"><ele>21.3</ele><time>2026-07-15T06:25:27Z</time></trkpt>
			<trkpt lat="54.809800" lon="20.535900"><ele>22.4</ele><time>2026-07-15T06:25:33Z</time></trkpt>
			<trkpt lat="54.809740" lon="20.536040"><ele>22.2</ele><time>2026-07-15T06:25:40Z</time></trkpt>
			<trkpt lat="54.809740" lon="20.536040"><ele>22.2</ele><time>2026-07-15T06:25:43Z</time></trkpt>
			<trkpt lat="54.809660" lon="20.536240"><ele>21.8</ele><time>2026-07-15T06:25:47Z</time></trkpt>
			<trkpt lat="54.809490" lon="20.536560"><ele>21.2</ele><time>2026-07-15T06:25:50Z</time></trkpt>
			<trkpt lat="54.809330" lon="20.536840"><ele>21.0</ele><time>2026-07-15T06:25:53Z</time></trkpt>
			<trkpt lat="54.808580" lon="20.537950"><ele>22.9</ele><time>2026-07-15T06:25:57Z</time></trkpt>
			<trkpt lat="54.807970" lon="20.538830"><ele>22.5</ele><time>2026-07-15T06:26:00Z</time></trkpt>
			<trkpt lat="54.806650" lon="20.541000"><ele>28.2</ele><time>2026-07-15T06:26:04Z</time></trkpt>
			<trkpt lat="54.806200" lon="20.541430"><ele>30.1</ele><time>2026-07-15T06:26:07Z</time></trkpt>
			<trkpt lat="54.805870" lon="20.541640"><ele>31.5</ele><time>2026-07-15T06:26:11Z</time></trkpt>
			<trkpt lat="54.805540" lon="20.541790"><ele>31.9</ele><time>2026-07-15T06:26:14Z</time></trkpt>
			<trkpt lat="54.805260" lon="20.541870"><ele>31.9</ele><time>2026-07-15T06:26:18Z</time></trkpt>
			<trkpt lat="54.804810" lon="20.541890"><ele>29.5</ele><time>2026-07-15T06:26:21Z</time></trkpt>
			<trkpt lat="54.804430" lon="20.541810"><ele>24.9</ele><time>2026-07-15T06:26:25Z</time></trkpt>
			<trkpt lat="54.804070" lon="20.541640"><ele>21.0</ele><time>2026-07-15T06:26:28Z</time></trkpt>
			<trkpt lat="54.803740" lon="20.541400"><ele>19.7</ele><time>2026-07-15T06:26:32Z</time></trkpt>
			<trkpt lat="54.803240" lon="20.540890"><ele>20.2</ele><time>2026-07-15T06:26:35Z</time></trkpt>
			<trkpt lat="54.802380" lon="20.539760"><ele>23.6</ele><time>2026-07-15T06:26:39Z</time></trkpt>
			<trkpt lat="54.801660" lon="20.538840"><ele>24.6</ele><time>2026-07-15T06:26:42Z</time></trkpt>
			<trkpt lat="54.800880" lon="20.537840"><ele>23.7</ele><time>2026-07-15T06:26:46Z</time></trkpt>
			<trkpt lat="54.799530" lon="20.536050"><ele>18.7</ele><time>2026-07-15T06:26:49Z</time></trkpt>
			<trkpt lat="54.798730" lon="20.535220"><ele>21.1</ele><time>2026-07-15T06:26:53Z</time></trkpt>
			<trkpt lat="54.798220" lon="20.534720"><ele>21.9</ele><time>2026-07-15T06:26:56Z</time></trkpt>
			<trkpt lat="54.798070" lon="20.534620"><ele>21.9</ele><time>2026-07-15T06:27:00Z</time></trkpt>
			<trkpt lat="54.797650" lon="20.534400"><ele>21.6</ele><time>2026-07-15T06:27:03Z</time></trkpt>
			<trkpt lat="54.797370" lon="20.534300"><ele>21.8</ele><time>2026-07-15T06:27:06Z</time></trkpt>
			<trkpt lat="54.796840" lon="20.534300"><ele>24.2</ele><time>2026-07-15T06:27:10Z</time></trkpt>
			<trkpt lat="54.795260" lon="20.534300"><ele>23.6</ele><time>2026-07-15T06:27:13Z</time></trkpt>
			<trkpt lat="54.793400" lon="20.534320"><ele>23.0</ele><time>2026-07-15T06:27:17Z</time></trkpt>
			<trkpt lat="54.792940" lon="20.534320"><ele>22.0</ele><time>2026-07-15T06:27:20Z</time></trkpt>
			<trkpt lat="54.792610" lon="20.534380"><ele>21.5</ele><time>2026-07-15T06:27:24Z</time></trkpt>
			<trkpt lat="54.792290" lon="20.534500"><ele>21.6</ele><time>2026-07-15T06:27:27Z</time></trkpt>
			<trkpt lat="54.792000" lon="20.534700"><ele>22.4</ele><time>2026-07-15T06:27:31Z</time></trkpt>
			<trkpt lat="54.791680" lon="20.534970"><ele>23.0</ele><time>2026-07-15T06:27:34Z</time></trkpt>
			<trkpt lat="54.791610" lon="20.535040"><ele>23.1</ele><time>2026-07-15T06:27:38Z</time></trkpt>
			<trkpt lat="54.791220" lon="20.535510"><ele>23.5</ele><time>2026-07-15T06:27:41Z</time></trkpt>
			<trkpt lat="54.790740" lon="20.536070"><ele>24.9</ele><time>2026-07-15T06:27:45Z</time></trkpt>
			<trkpt lat="54.789920" lon="20.537010"><ele>28.0</ele><time>2026-07-15T06:27:48Z</time></trkpt>
			<trkpt lat="54.789360" lon="20.537620"><ele>29.8</ele><time>2026-07-15T06:27:52Z</time></trkpt>
			<trkpt lat="54.789150" lon="20.537770"><ele>29.8</ele><time>2026-07-15T06:27:55Z</time></trkpt>
			<trkpt lat="54.788950" lon="20.537900"><ele>29.6</ele><time>2026-07-15T06:27:59Z</time></trkpt>
			<trkpt lat="54.788540" lon="20.538060"><ele>28.8</ele><time>2026-07-15T06:28:02Z</time></trkpt>
			<trkpt lat="54.785710" lon="20.538890"><ele>26.7</ele><time>2026-07-15T06:28:06Z</time></trkpt>
			<trkpt lat="54.784830" lon="20.539130"><ele>27.2</ele><time>2026-07-15T06:28:09Z</time></trkpt>
			<trkpt lat="54.784400" lon="20.539270"><ele>27.6</ele><time>2026-07-15T06:28:13Z</time></trkpt>
			<trkpt lat="54.783960" lon="20.539500"><ele>27.5</ele><time>2026-07-15T06:28:16Z</time></trkpt>
			<trkpt lat="54.783580" lon="20.539720"><ele>27.1</ele><time>2026-07-15T06:28:19Z</time></trkpt>
			<trkpt lat="54.782780" lon="20.540210"><ele>27.7</ele><time>2026-07-15T06:28:23Z</time></trkpt>
			<trkpt lat="54.781870" lon="20.540730"><ele>28.0</ele><time>2026-07-15T06:28:26Z</time></trkpt>
			<trkpt lat="54.779610" lon="20.542060"><ele>29.5</ele><time>2026-07-15T06:28:30Z</time></trkpt>
			<trkpt lat="54.778700" lon="20.542580"><ele>29.3</ele><time>2026-07-15T06:28:33Z</time></trkpt>
			<trkpt lat="54.778350" lon="20.542730"><ele>28.9</ele><time>2026-07-15T06:28:37Z</time></trkpt>
			<trkpt lat="54.777980" lon="20.542820"><ele>28.9</ele><time>2026-07-15T06:28:40Z</time></trkpt>
			<trkpt lat="54.777710" lon="20.542850"><ele>29.0</ele><time>2026-07-15T06:28:44Z</time></trkpt>
			<trkpt lat="54.777040" lon="20.542820"><ele>29.1</ele><time>2026-07-15T06:28:47Z</time></trkpt>
			<trkpt lat="54.776620" lon="20.542830"><ele>29.0</ele><time>2026-07-15T06:28:51Z</time></trkpt>
			<trkpt lat="54.776110" lon="20.542830"><ele>29.0</ele><time>2026-07-15T06:28:54Z</time></trkpt>
			<trkpt lat="54.775500" lon="20.542870"><ele>29.4</ele><time>2026-07-15T06:28:58Z</time></trkpt>
			<trkpt lat="54.774870" lon="20.542950"><ele>30.0</ele><time>2026-07-15T06:29:01Z</time></trkpt>
			<trkpt lat="54.772820" lon="20.543340"><ele>30.0</ele><time>2026-07-15T06:29:05Z</time></trkpt>
			<trkpt lat="54.771890" lon="20.543510"><ele>31.5</ele><time>2026-07-15T06:29:08Z</time></trkpt>
			<trkpt lat="54.771720" lon="20.543450"><ele>31.9</ele><time>2026-07-15T06:29:12Z</time></trkpt>
			<trkpt lat="54.771500" lon="20.543450"><ele>32.2</ele><time>2026-07-15T06:29:15Z</time></trkpt>
			<trkpt lat="54.771390" lon="20.543420"><ele>32.4</ele><time>2026-07-15T06:29:19Z</time></trkpt>
			<trkpt lat="54.771280" lon="20.543380"><ele>32.4</ele><time>2026-07-15T06:29:22Z</time></trkpt>
			<trkpt lat="54.771150" lon="20.543310"><ele>32.5</ele><time>2026-07-15T06:29:26Z</time></trkpt>
			<trkpt lat="54.771020" lon="20.543210"><ele>32.5</ele><time>2026-07-15T06:29:29Z</time></trkpt>
			<trkpt lat="54.770910" lon="20.543110"><ele>32.3</ele><time>2026-07-15T06:29:32Z</time></trkpt>
			<trkpt lat="54.770800" lon="20.542990"><ele>32.1</ele><time>2026-07-15T06:29:36Z</time></trkpt>
			<trkpt lat="54.770400" lon="20.542480"><ele>31.0</ele><time>2026-07-15T06:29:39Z</time></trkpt>
			<trkpt lat="54.769510" lon="20.541220"><ele>31.3</ele><time>2026-07-15T06:29:43Z</time></trkpt>
			<trkpt lat="54.769050" lon="20.540570"><ele>29.6</ele><time>2026-07-15T06:29:46Z</time></trkpt>
			<trkpt lat="54.768680" lon="20.540050"><ele>27.5</ele><time>2026-07-15T06:29:50Z</time></trkpt>
			<trkpt lat="54.768580" lon="20.539880"><ele>27.1</ele><time>2026-07-15T06:29:53Z</time></trkpt>
			<trkpt lat="54.768470" lon="20.539680"><ele>26.9</ele><time>2026-07-15T06:29:57Z</time></trkpt>
			<trkpt lat="54.768380" lon="20.539500"><ele>27.0</ele><time>2026-07-15T06:30:00Z</time></trkpt>
			<trkpt lat="54.768300" lon="20.539260"><ele>27.1</ele><time>2026-07-15T06:30:04Z</time></trkpt>
			<trkpt lat="54.768220" lon="20.538990"><ele>27.0</ele><time>2026-07-15T06:30:07Z</time></trkpt>
			<trkpt lat="54.768160" lon="20.538640"><ele>26.8</ele><time>2026-07-15T06:30:11Z</time></trkpt>
			<trkpt lat="54.768110" lon="20.538100"><ele>26.2</ele><time>2026-07-15T06:30:14Z</time></trkpt>
			<trkpt lat="54.768160" lon="20.536310"><ele>24.3</ele><time>2026-07-15T06:30:18Z</time></trkpt>
			<trkpt lat="54.768140" lon="20.535550"><ele>24.5</ele><time>2026-07-15T06:30:21Z</time></trkpt>
			<trkpt lat="54.768170" lon="20.535140"><ele>24.5</ele><time>2026-07-15T06:30:25Z</time></trkpt>
			<trkpt lat="54.768270" lon="20.534270"><ele>25.6</ele><time>2026-07-15T06:30:28Z</time></trkpt>
			<trkpt lat="54.768360" lon="20.533620"><ele>25.3</ele><time>2026-07-15T06:30:32Z</time></trkpt>
			<trkpt lat="54.768590" lon="20.532120"><ele>24.3</ele><time>2026-07-15T06:30:35Z</time></trkpt>
			<trkpt lat="54.768590" lon="20.532120"><ele>24.3</ele><time>2026-07-15T06:30:38Z</time></trkpt>
			<trkpt lat="54.768740" lon="20.531120"><ele>24.5</ele><time>2026-07-15T06:30:41Z</time></trkpt>
			<trkpt lat="54.768820" lon="20.530470"><ele>24.4</ele><time>2026-07-15T06:30:45Z</time></trkpt>
			<trkpt lat="54.770400" lon="20.520390"><ele>26.4</ele><time>2026-07-15T06:30:48Z</time></trkpt>
			<trkpt lat="54.770610" lon="20.518960"><ele>25.6</ele><time>2026-07-15T06:30:51Z</time></trkpt>
			<trkpt lat="54.770780" lon="20.517990"><ele>25.1</ele><time>2026-07-15T06:30:54Z</time></trkpt>
			<trkpt lat="54.771280" lon="20.514540"><ele>27.2</ele><time>2026-07-15T06:30:57Z</time></trkpt>
			<trkpt lat="54.771580" lon="20.512640"><ele>28.0</ele><time>2026-07-15T06:31:00Z</time></trkpt>
			<trkpt lat="54.771660" lon="20.512000"><ele>28.0</ele><time>2026-07-15T06:31:03Z</time></trkpt>
			<trkpt lat="54.771740" lon="20.511340"><ele>27.5</ele><time>2026-07-15T06:31:07Z</time></trkpt>
			<trkpt lat="54.771810" lon="20.510500"><ele>27.2</ele><time>2026-07-15T06:31:10Z</time></trkpt>
			<trkpt lat="54.771840" lon="20.510050"><ele>27.4</ele><time>2026-07-15T06:31:13Z</time></trkpt>
			<trkpt lat="54.771860" lon="20.509220"><ele>27.1</ele><time>2026-07-15T06:31:16Z</time></trkpt>
			<trkpt lat="54.771850" lon="20.508550"><ele>26.9</ele><time>2026-07-15T06:31:19Z</time></trkpt>
			<trkpt lat="54.771820" lon="20.507760"><ele>26.9</ele><time>2026-07-15T06:31:22Z</time></trkpt>
			<trkpt lat="54.771790" lon="20.507330"><ele>27.0</ele><time>2026-07-15T06:31:25Z</time></trkpt>
			<trkpt lat="54.771680" lon="20.506240"><ele>27.0</ele><time>2026-07-15T06:31:29Z</time></trkpt>
			<trkpt lat="54.771600" lon="20.505630"><ele>26.9</ele><time>2026-07-15T06:31:32Z</time></trkpt>
			<trkpt lat="54.771500" lon="20.505110"><ele>26.7</ele><time>2026-07-15T06:31:35Z</time></trkpt>
			<trkpt lat="54.771340" lon="20.504260"><ele>27.6</ele><time>2026-07-15T06:31:38Z</time></trkpt>
			<trkpt lat="54.771140" lon="20.503430"><ele>28.0</ele><time>2026-07-15T06:31:41Z</time></trkpt>
			<trkpt lat="54.770970" lon="20.502860"><ele>27.4</ele><time>2026-07-15T06:31:44Z</time></trkpt>
			<trkpt lat="54.770790" lon="20.502290"><ele>27.1</ele><time>2026-07-15T06:31:47Z</time></trkpt>
			<trkpt lat="54.770580" lon="20.501770"><ele>27.3</ele><time>2026-07-15T06:31:51Z</time></trkpt>
			<trkpt lat="54.770410" lon="20.501260"><ele>27.7</ele><time>2026-07-15T06:31:54Z</time></trkpt>
			<trkpt lat="54.770060" lon="20.500430"><ele>28.5</ele><time>2026-07-15T06:31:57Z</time></trkpt>
			<trkpt lat="54.769800" lon="20.499750"><ele>29.0</ele><time>2026-07-15T06:32:00Z</time></trkpt>
			<trkpt lat="54.768750" lon="20.496980"><ele>27.8</ele><time>2026-07-15T06:32:03Z</time></trkpt>
			<trkpt lat="54.768690" lon="20.496820"><ele>27.9</ele><time>2026-07-15T06:32:06Z</time></trkpt>
			<trkpt lat="54.768410" lon="20.495920"><ele>27.1</ele><time>2026-07-15T06:32:10Z</time></trkpt>
			<trkpt lat="54.768100" lon="20.494840"><ele>26.7</ele><time>2026-07-15T06:32:13Z</time></trkpt>
			<trkpt lat="54.767800" lon="20.493640"><ele>27.2</ele><time>2026-07-15T06:32:16Z</time></trkpt>
			<trkpt lat="54.767650" lon="20.493030"><ele>26.6</ele><time>2026-07-15T06:32:19Z</time></trkpt>
			<trkpt lat="54.767640" lon="20.492950"><ele>26.5</ele><time>2026-07-15T06:32:22Z</time></trkpt>
			<trkpt lat="54.767190" lon="20.490520"><ele>27.6</ele><time>2026-07-15T06:32:25Z</time></trkpt>
			<trkpt lat="54.766990" lon="20.489430"><ele>27.7</ele><time>2026-07-15T06:32:28Z</time></trkpt>
			<trkpt lat="54.766880" lon="20.488660"><ele>27.6</ele><time>2026-07-15T06:32:32Z</time></trkpt>
			<trkpt lat="54.766780" lon="20.487860"><ele>27.2</ele><time>2026-07-15T06:32:35Z</time></trkpt>
			<trkpt lat="54.766650" lon="20.486620"><ele>27.0</ele><time>2026-07-15T06:32:38Z</time></trkpt>
			<trkpt lat="54.766590" lon="20.485860"><ele>27.2</ele><time>2026-07-15T06:32:41Z</time></trkpt>
			<trkpt lat="54.766410" lon="20.483400"><ele>27.3</ele><time>2026-07-15T06:32:44Z</time></trkpt>
			<trkpt lat="54.766320" lon="20.482500"><ele>27.3</ele><time>2026-07-15T06:32:47Z</time></trkpt>
			<trkpt lat="54.766250" lon="20.481920"><ele>28.4</ele><time>2026-07-15T06:32:50Z</time></trkpt>
			<trkpt lat="54.766170" lon="20.481410"><ele>29.3</ele><time>2026-07-15T06:32:54Z</time></trkpt>
			<trkpt lat="54.766000" lon="20.480520"><ele>30.4</ele><time>2026-07-15T06:32:57Z</time></trkpt>
			<trkpt lat="54.765810" lon="20.479660"><ele>31.8</ele><time>2026-07-15T06:33:00Z</time></trkpt>
			<trkpt lat="54.764770" lon="20.475280"><ele>32.2</ele><time>2026-07-15T06:33:03Z</time></trkpt>
			<trkpt lat="54.763880" lon="20.471430"><ele>31.8</ele><time>2026-07-15T06:33:06Z</time></trkpt>
			<trkpt lat="54.763620" lon="20.470360"><ele>30.5</ele><time>2026-07-15T06:33:09Z</time></trkpt>
			<trkpt lat="54.762690" lon="20.466370"><ele>31.5</ele><time>2026-07-15T06:33:13Z</time></trkpt>
			<trkpt lat="54.762320" lon="20.464750"><ele>30.2</ele><time>2026-07-15T06:33:16Z</time></trkpt>
			<trkpt lat="54.762170" lon="20.464050"><ele>30.5</ele><time>2026-07-15T06:33:19Z</time></trkpt>
			<trkpt lat="54.761910" lon="20.462770"><ele>29.8</ele><time>2026-07-15T06:33:22Z</time></trkpt>
			<trkpt lat="54.761770" lon="20.461970"><ele>28.7</ele><time>2026-07-15T06:33:25Z</time></trkpt>
			<trkpt lat="54.761540" lon="20.460610"><ele>26.8</ele><time>2026-07-15T06:33:28Z</time></trkpt>
			<trkpt lat="54.761380" lon="20.459540"><ele>26.4</ele><time>2026-07-15T06:33:31Z</time></trkpt>
			<trkpt lat="54.761160" lon="20.458020"><ele>28.8</ele><time>2026-07-15T06:33:35Z</time></trkpt>
			<trkpt lat="54.760990" lon="20.456840"><ele>28.0</ele><time>2026-07-15T06:33:38Z</time></trkpt>
			<trkpt lat="54.760760" lon="20.455460"><ele>27.5</ele><time>2026-07-15T06:33:41Z</time></trkpt>
			<trkpt lat="54.760570" lon="20.454440"><ele>27.9</ele><time>2026-07-15T06:33:44Z</time></trkpt>
			<trkpt lat="54.760340" lon="20.453380"><ele>27.6</ele><time>2026-07-15T06:33:47Z</time></trkpt>
			<trkpt lat="54.760170" lon="20.452630"><ele>27.1</ele><time>2026-07-15T06:33:50Z</time></trkpt>
			<trkpt lat="54.759760" lon="20.451090"><ele>27.8</ele><time>2026-07-15T06:33:53Z</time></trkpt>
			<trkpt lat="54.759580" lon="20.450220"><ele>28.7</ele><time>2026-07-15T06:33:57Z</time></trkpt>
			<trkpt lat="54.759490" lon="20.449570"><ele>29.0</ele><time>2026-07-15T06:34:00Z</time></trkpt>
			<trkpt lat="54.759440" lon="20.449060"><ele>29.0</ele><time>2026-07-15T06:34:03Z</time></trkpt>
			<trkpt lat="54.759460" lon="20.448650"><ele>29.0</ele><time>2026-07-15T06:34:06Z</time></trkpt>
			<trkpt lat="54.759530" lon="20.447830"><ele>29.3</ele><time>2026-07-15T06:34:09Z</time></trkpt>
			<trkpt lat="54.759530" lon="20.447830"><ele>29.3</ele><time>2026-07-15T06:34:15Z</time></trkpt>
			<trkpt lat="54.759820" lon="20.444960"><ele>33.5</ele><time>2026-07-15T06:34:21Z</time></trkpt>
			<trkpt lat="54.759880" lon="20.444530"><ele>34.1</ele><time>2026-07-15T06:34:26Z</time></trkpt>
			<trkpt lat="54.759980" lon="20.444070"><ele>34.3</ele><time>2026-07-15T06:34:32Z</time></trkpt>
			<trkpt lat="54.760110" lon="20.443750"><ele>33.2</ele><time>2026-07-15T06:34:38Z</time></trkpt>
			<trkpt lat="54.760190" lon="20.443570"><ele>32.5</ele><time>2026-07-15T06:34:43Z</time></trkpt>
			<trkpt lat="54.760280" lon="20.443410"><ele>32.1</ele><time>2026-07-15T06:34:49Z</time></trkpt>
			<trkpt lat="54.760490" lon="20.443080"><ele>31.3</ele><time>2026-07-15T06:34:55Z</time></trkpt>
			<trkpt lat="54.760640" lon="20.442890"><ele>31.0</ele><time>2026-07-15T06:35:01Z</time></trkpt>
			<trkpt lat="54.760830" lon="20.442710"><ele>30.6</ele><time>2026-07-15T06:35:06Z</time></trkpt>
			<trkpt lat="54.761080" lon="20.442420"><ele>30.0</ele><time>2026-07-15T06:35:12Z</time></trkpt>
			<trkpt lat="54.761900" lon="20.441440"><ele>28.7</ele><time>2026-07-15T06:35:18Z</time></trkpt>
			<trkpt lat="54.762230" lon="20.441060"><ele>28.3</ele><time>2026-07-15T06:35:23Z</time></trkpt>
			<trkpt lat="54.763190" lon="20.440030"><ele>27.9</ele><time>2026-07-15T06:35:29Z</time></trkpt>
			<trkpt lat="54.763640" lon="20.439560"><ele>29.0</ele><time>2026-07-15T06:35:35Z</time></trkpt>
			<trkpt lat="54.764020" lon="20.439160"><ele>29.8</ele><time>2026-07-15T06:35:40Z</time></trkpt>
			<trkpt lat="54.764410" lon="20.438690"><ele>29.8</ele><time>2026-07-15T06:35:46Z</time></trkpt>
			<trkpt lat="54.764440" lon="20.438660"><ele>29.8</ele><time>2026-07-15T06:35:52Z</time></trkpt>
			<trkpt lat="54.764660" lon="20.438430"><ele>29.5</ele><time>2026-07-15T06:35:58Z</time></trkpt>
			<trkpt lat="54.764990" lon="20.438150"><ele>29.1</ele><time>2026-07-15T06:36:03Z</time></trkpt>
			<trkpt lat="54.765180" lon="20.437960"><ele>29.2</ele><time>2026-07-15T06:36:09Z</time></trkpt>
			<trkpt lat="54.765460" lon="20.437600"><ele>29.4</ele><time>2026-07-15T06:36:15Z</time></trkpt>
			<trkpt lat="54.765600" lon="20.437370"><ele>29.4</ele><time>2026-07-15T06:36:20Z</time></trkpt>
			<trkpt lat="54.765730" lon="20.437090"><ele>28.9</ele><time>2026-07-15T06:36:26Z</time></trkpt>
			<trkpt lat="54.765860" lon="20.436650"><ele>28.4</ele><time>2026-07-15T06:36:32Z</time></trkpt>
			<trkpt lat="54.765940" lon="20.436290"><ele>28.3</ele><time>2026-07-15T06:36:37Z</time></trkpt>
			<trkpt lat="54.766090" lon="20.435550"><ele>28.7</ele><time>2026-07-15T06:36:43Z</time></trkpt>
			<trkpt lat="54.766550" lon="20.433510"><ele>29.8</ele><time>2026-07-15T06:36:49Z</time></trkpt>
			<trkpt lat="54.766650" lon="20.433070"><ele>29.9</ele><time>2026-07-15T06:36:55Z</time></trkpt>
			<trkpt lat="54.766760" lon="20.432710"><ele>30.0</ele><time>2026-07-15T06:37:00Z</time></trkpt>
			<trkpt lat="54.766880" lon="20.432340"><ele>30.1</ele><time>2026-07-15T06:37:06Z</time></trkpt>
			<trkpt lat="54.767030" lon="20.431940"><ele>30.3</ele><time>2026-07-15T06:37:12Z</time></trkpt>
			<trkpt lat="54.767830" lon="20.430070"><ele>31.5</ele><time>2026-07-15T06:37:17Z</time></trkpt>
			<trkpt lat="54.768960" lon="20.427530"><ele>31.5</ele><time>2026-07-15T06:37:23Z</time></trkpt>
			<trkpt lat="54.769260" lon="20.426840"><ele>33.3</ele><time>2026-07-15T06:37:29Z</time></trkpt>
			<trkpt lat="54.769940" lon="20.425430"><ele>32.6</ele><time>2026-07-15T06:37:34Z</time></trkpt>
			<trkpt lat="54.770570" lon="20.424450"><ele>32.0</ele><time>2026-07-15T06:37:40Z</time></trkpt>
			<trkpt lat="54.771380" lon="20.423350"><ele>33.6</ele><time>2026-07-15T06:37:46Z</time></trkpt>
			<trkpt lat="54.771930" lon="20.422660"><ele>33.4</ele><time>2026-07-15T06:37:52Z</time></trkpt>
			<trkpt lat="54.772490" lon="20.422000"><ele>33.4</ele><time>2026-07-15T06:37:57Z</time></trkpt>
			<trkpt lat="54.772990" lon="20.421470"><ele>33.3</ele><time>2026-07-15T06:38:03Z</time></trkpt>
			<trkpt lat="54.774010" lon="20.420420"><ele>32.5</ele><time>2026-07-15T06:38:09Z</time></trkpt>
			<trkpt lat="54.775280" lon="20.419260"><ele>32.2</ele><time>2026-07-15T06:38:14Z</time></trkpt>
			<trkpt lat="54.775700" lon="20.418870"><ele>31.6</ele><time>2026-07-15T06:38:20Z</time></trkpt>
			<trkpt lat="54.776390" lon="20.418230"><ele>32.2</ele><time>2026-07-15T06:38:26Z</time></trkpt>
			<trkpt lat="54.778910" lon="20.416260"><ele>32.7</ele><time>2026-07-15T06:38:31Z</time></trkpt>
			<trkpt lat="54.779520" lon="20.415810"><ele>33.0</ele><time>2026-07-15T06:38:37Z</time></trkpt>
			<trkpt lat="54.780260" lon="20.415260"><ele>32.8</ele><time>2026-07-15T06:38:43Z</time></trkpt>
			<trkpt lat="54.780450" lon="20.415130"><ele>32.5</ele><time>2026-07-15T06:38:49Z</time></trkpt>
			<trkpt lat="54.780630" lon="20.414980"><ele>32.2</ele><time>2026-07-15T06:38:54Z</time></trkpt>
			<trkpt lat="54.781460" lon="20.414400"><ele>31.8</ele><time>2026-07-15T06:39:00Z</time></trkpt>
			<trkpt lat="54.782170" lon="20.413960"><ele>32.5</ele><time>2026-07-15T06:39:06Z</time></trkpt>
			<trkpt lat="54.782380" lon="20.413810"><ele>32.8</ele><time>2026-07-15T06:39:11Z</time></trkpt>
			<trkpt lat="54.782600" lon="20.413620"><ele>33.1</ele><time>2026-07-15T06:39:17Z</time></trkpt>
			<trkpt lat="54.782740" lon="20.413460"><ele>33.2</ele><time>2026-07-15T06:39:23Z</time></trkpt>
			<trkpt lat="54.782880" lon="20.413280"><ele>33.4</ele><time>2026-07-15T06:39:28Z</time></trkpt>
			<trkpt lat="54.783110" lon="20.412950"><ele>33.6</ele><time>2026-07-15T06:39:34Z</time></trkpt>
			<trkpt lat="54.783280" lon="20.412820"><ele>33.9</ele><time>2026-07-15T06:39:40Z</time></trkpt>
			<trkpt lat="54.783400" lon="20.412740"><ele>34.2</ele><time>2026-07-15T06:39:46Z</time></trkpt>
			<trkpt lat="54.783670" lon="20.412780"><ele>34.6</ele><time>2026-07-15T06:39:51Z</time></trkpt>
			<trkpt lat="54.783890" lon="20.412980"><ele>34.9</ele><time>2026-07-15T06:39:57Z</time></trkpt>
			<trkpt lat="54.784280" lon="20.413310"><ele>35.0</ele><time>2026-07-15T06:40:03Z</time></trkpt>
			<trkpt lat="54.784870" lon="20.413730"><ele>34.1</ele><time>2026-07-15T06:40:08Z</time></trkpt>
			<trkpt lat="54.785800" lon="20.414430"><ele>36.5</ele><time>2026-07-15T06:40:14Z</time></trkpt>
			<trkpt lat="54.786120" lon="20.414650"><ele>38.0</ele><time>2026-07-15T06:40:20Z</time></trkpt>
			<trkpt lat="54.787110" lon="20.415360"><ele>43.1</ele><time>2026-07-15T06:40:25Z</time></trkpt>
			<trkpt lat="54.788090" lon="20.416100"><ele>44.7</ele><time>2026-07-15T06:40:31Z</time></trkpt>
			<trkpt lat="54.788460" lon="20.416380"><ele>44.5</ele><time>2026-07-15T06:40:37Z</time></trkpt>
			<trkpt lat="54.788510" lon="20.416420"><ele>44.4</ele><time>2026-07-15T06:40:43Z</time></trkpt>
			<trkpt lat="54.788640" lon="20.416510"><ele>44.1</ele><time>2026-07-15T06:40:48Z</time></trkpt>
			<trkpt lat="54.789540" lon="20.417110"><ele>42.8</ele><time>2026-07-15T06:40:54Z</time></trkpt>
			<trkpt lat="54.789880" lon="20.417200"><ele>42.4</ele><time>2026-07-15T06:41:00Z</time></trkpt>
			<trkpt lat="54.790580" lon="20.417180"><ele>42.4</ele><time>2026-07-15T06:41:05Z</time></trkpt>
			<trkpt lat="54.791470" lon="20.417010"><ele>41.8</ele><time>2026-07-15T06:41:11Z</time></trkpt>
			<trkpt lat="54.792220" lon="20.416940"><ele>41.7</ele><time>2026-07-15T06:41:17Z</time></trkpt>
			<trkpt lat="54.793780" lon="20.416660"><ele>38.4</ele><time>2026-07-15T06:41:22Z</time></trkpt>
			<trkpt lat="54.795860" lon="20.416310"><ele>34.1</ele><time>2026-07-15T06:41:28Z</time></trkpt>
			<trkpt lat="54.797160" lon="20.416140"><ele>35.1</ele><time>2026-07-15T06:41:34Z</time></trkpt>
			<trkpt lat="54.798130" lon="20.415960"><ele>35.9</ele><time>2026-07-15T06:41:40Z</time></trkpt>
			<trkpt lat="54.798950" lon="20.415840"><ele>36.7</ele><time>2026-07-15T06:41:45Z</time></trkpt>
			<trkpt lat="54.799870" lon="20.415700"><ele>39.7</ele><time>2026-07-15T06:41:51Z</time></trkpt>
			<trkpt lat="54.800450" lon="20.415610"><ele>39.7</ele><time>2026-07-15T06:41:57Z</time></trkpt>
			<trkpt lat="54.800880" lon="20.415540"><ele>39.3</ele><time>2026-07-15T06:42:02Z</time></trkpt>
			<trkpt lat="54.802150" lon="20.415340"><ele>37.8</ele><time>2026-07-15T06:42:08Z</time></trkpt>
			<trkpt lat="54.802480" lon="20.415290"><ele>37.6</ele><time>2026-07-15T06:42:14Z</time></trkpt>
			<trkpt lat="54.803070" lon="20.415160"><ele>37.1</ele><time>2026-07-15T06:42:19Z</time></trkpt>
			<trkpt lat="54.804040" lon="20.415000"><ele>37.8</ele><time>2026-07-15T06:42:25Z</time></trkpt>
			<trkpt lat="54.804170" lon="20.414980"><ele>38.0</ele><time>2026-07-15T06:42:31Z</time></trkpt>
			<trkpt lat="54.804770" lon="20.414880"><ele>38.0</ele><time>2026-07-15T06:42:37Z</time></trkpt>
			<trkpt lat="54.805460" lon="20.414740"><ele>37.4</ele><time>2026-07-15T06:42:42Z</time></trkpt>
			<trkpt lat="54.805850" lon="20.414820"><ele>36.9</ele><time>2026-07-15T06:42:48Z</time></trkpt>
			<trkpt lat="54.806750" lon="20.415050"><ele>35.0</ele><time>2026-07-15T06:42:54Z</time></trkpt>
			<trkpt lat="54.807920" lon="20.415430"><ele>34.0</ele><time>2026-07-15T06:42:59Z</time></trkpt>
			<trkpt lat="54.808220" lon="20.415520"><ele>34.0</ele><time>2026-07-15T06:43:05Z</time></trkpt>
			<trkpt lat="54.809010" lon="20.415680"><ele>34.7</ele><time>2026-07-15T06:43:11Z</time></trkpt>
			<trkpt lat="54.811720" lon="20.416510"><ele>35.9</ele><time>2026-07-15T06:43:17Z</time></trkpt>
			<trkpt lat="54.812840" lon="20.416810"><ele>38.4</ele><time>2026-07-15T06:43:22Z</time></trkpt>
			<trkpt lat="54.813890" lon="20.417100"><ele>41.2</ele><time>2026-07-15T06:43:28Z</time></trkpt>
			<trkpt lat="54.814530" lon="20.417310"><ele>41.8</ele><time>2026-07-15T06:43:34Z</time></trkpt>
			<trkpt lat="54.815950" lon="20.417680"><ele>43.4</ele><time>2026-07-15T06:43:39Z</time></trkpt>
			<trkpt lat="54.816460" lon="20.417770"><ele>43.7</ele><time>2026-07-15T06:43:45Z</time></trkpt>
			<trkpt lat="54.816750" lon="20.417770"><ele>43.5</ele><time>2026-07-15T06:43:51Z</time></trkpt>
			<trkpt lat="54.817230" lon="20.417690"><ele>43.1</ele><time>2026-07-15T06:43:56Z</time></trkpt>
			<trkpt lat="54.817580" lon="20.417660"><ele>42.5</ele><time>2026-07-15T06:44:02Z</time></trkpt>
			<trkpt lat="54.817750" lon="20.417680"><ele>42.1</ele><time>2026-07-15T06:44:08Z</time></trkpt>
			<trkpt lat="54.817960" lon="20.417860"><ele>41.4</ele><time>2026-07-15T06:44:14Z</time></trkpt>
			<trkpt lat="54.818130" lon="20.418040"><ele>41.2</ele><time>2026-07-15T06:44:19Z</time></trkpt>
			<trkpt lat="54.818310" lon="20.418340"><ele>41.0</ele><time>2026-07-15T06:44:25Z</time></trkpt>
			<trkpt lat="54.818660" lon="20.419040"><ele>40.1</ele><time>2026-07-15T06:44:31Z</time></trkpt>
			<trkpt lat="54.818730" lon="20.419180"><ele>40.0</ele><time>2026-07-15T06:44:36Z</time></trkpt>
			<trkpt lat="54.818890" lon="20.419410"><ele>39.5</ele><time>2026-07-15T06:44:42Z</time></trkpt>
			<trkpt lat="54.819480" lon="20.420110"><ele>37.1</ele><time>2026-07-15T06:44:48Z</time></trkpt>
			<trkpt lat="54.819660" lon="20.420340"><ele>35.7</ele><time>2026-07-15T06:44:53Z</time></trkpt>
			<trkpt lat="54.819820" lon="20.420650"><ele>34.7</ele><time>2026-07-15T06:44:59Z</time></trkpt>
			<trkpt lat="54.819990" lon="20.421080"><ele>34.0</ele><time>2026-07-15T06:45:05Z</time></trkpt>
			<trkpt lat="54.820820" lon="20.422860"><ele>35.7</ele><time>2026-07-15T06:45:11Z</time></trkpt>
			<trkpt lat="54.821170" lon="20.423460"><ele>37.6</ele><time>2026-07-15T06:45:16Z</time></trkpt>
			<trkpt lat="54.822400" lon="20.424840"><ele>37.8</ele><time>2026-07-15T06:45:22Z</time></trkpt>
			<trkpt lat="54.823210" lon="20.425850"><ele>38.6</ele><time>2026-07-15T06:45:28Z</time></trkpt>
			<trkpt lat="54.824530" lon="20.427380"><ele>40.3</ele><time>2026-07-15T06:45:33Z</time></trkpt>
			<trkpt lat="54.825240" lon="20.428200"><ele>42.3</ele><time>2026-07-15T06:45:39Z</time></trkpt>
			<trkpt lat="54.826410" lon="20.429540"><ele>40.9</ele><time>2026-07-15T06:45:45Z</time></trkpt>
			<trkpt lat="54.827320" lon="20.430540"><ele>46.0</ele><time>2026-07-15T06:45:50Z</time></trkpt>
			<trkpt lat="54.827470" lon="20.430640"><ele>47.1</ele><time>2026-07-15T06:45:56Z</time></trkpt>
			<trkpt lat="54.827700" lon="20.430720"><ele>48.7</ele><time>2026-07-15T06:46:02Z</time></trkpt>
			<trkpt lat="54.829950" lon="20.431260"><ele>57.7</ele><time>2026-07-15T06:46:08Z</time></trkpt>
			<trkpt lat="54.830730" lon="20.431420"><ele>59.7</ele><time>2026-07-15T06:46:13Z</time></trkpt>
			<trkpt lat="54.834030" lon="20.432200"><ele>48.5</ele><time>2026-07-15T06:46:19Z</time></trkpt>
			<trkpt lat="54.836010" lon="20.432620"><ele>45.7</ele><time>2026-07-15T06:46:25Z</time></trkpt>
			<trkpt lat="54.836620" lon="20.432780"><ele>44.1</ele><time>2026-07-15T06:46:30Z</time></trkpt>
			<trkpt lat="54.837070" lon="20.432810"><ele>42.5</ele><time>2026-07-15T06:46:36Z</time></trkpt>
			<trkpt lat="54.837330" lon="20.432800"><ele>41.7</ele><time>2026-07-15T06:46:42Z</time></trkpt>
			<trkpt lat="54.837630" lon="20.432700"><ele>41.0</ele><time>2026-07-15T06:46:47Z</time></trkpt>
			<trkpt lat="54.838070" lon="20.432330"><ele>39.1</ele><time>2026-07-15T06:46:53Z</time></trkpt>
			<trkpt lat="54.838310" lon="20.432100"><ele>38.3</ele><time>2026-07-15T06:46:59Z</time></trkpt>
			<trkpt lat="54.839240" lon="20.431120"><ele>35.1</ele><time>2026-07-15T06:47:05Z</time></trkpt>
			<trkpt lat="54.841750" lon="20.428210"><ele>35.6</ele><time>2026-07-15T06:47:10Z</time></trkpt>
			<trkpt lat="54.843660" lon="20.426010"><ele>27.7</ele><time>2026-07-15T06:47:16Z</time></trkpt>
			<trkpt lat="54.844020" lon="20.425430"><ele>26.4</ele><time>2026-07-15T06:47:22Z</time></trkpt>
			<trkpt lat="54.844760" lon="20.423910"><ele>22.9</ele><time>2026-07-15T06:47:27Z</time></trkpt>
			<trkpt lat="54.845910" lon="20.421670"><ele>21.0</ele><time>2026-07-15T06:47:33Z</time></trkpt>
			<trkpt lat="54.846230" lon="20.421340"><ele>21.1</ele><time>2026-07-15T06:47:39Z</time></trkpt>
			<trkpt lat="54.846500" lon="20.421200"><ele>21.2</ele><time>2026-07-15T06:47:44Z</time></trkpt>
			<trkpt lat="54.847250" lon="20.420960"><ele>21.7</ele><time>2026-07-15T06:47:50Z</time></trkpt>
			<trkpt lat="54.849230" lon="20.420450"><ele>22.4</ele><time>2026-07-15T06:47:56Z</time></trkpt>
			<trkpt lat="54.851330" lon="20.419900"><ele>28.0</ele><time>2026-07-15T06:48:02Z</time></trkpt>
			<trkpt lat="54.853090" lon="20.419390"><ele>29.1</ele><time>2026-07-15T06:48:07Z</time></trkpt>
			<trkpt lat="54.854120" lon="20.419130"><ele>29.8</ele><time>2026-07-15T06:48:13Z</time></trkpt>
			<trkpt lat="54.857280" lon="20.418260"><ele>30.2</ele><time>2026-07-15T06:48:19Z</time></trkpt>
			<trkpt lat="54.859440" lon="20.417630"><ele>31.0</ele><time>2026-07-15T06:48:24Z</time></trkpt>
			<trkpt lat="54.859470" lon="20.417630"><ele>31.1</ele><time>2026-07-15T06:48:30Z</time></trkpt>
			<trkpt lat="54.860940" lon="20.417220"><ele>29.2</ele><time>2026-07-15T06:48:36Z</time></trkpt>
			<trkpt lat="54.863460" lon="20.416570"><ele>34.2</ele><time>2026-07-15T06:48:41Z</time></trkpt>
			<trkpt lat="54.863930" lon="20.416430"><ele>33.3</ele><time>2026-07-15T06:48:47Z</time></trkpt>
			<trkpt lat="54.864390" lon="20.416240"><ele>32.5</ele><time>2026-07-15T06:48:53Z</time></trkpt>
			<trkpt lat="54.864710" lon="20.416040"><ele>32.1</ele><time>2026-07-15T06:48:59Z</time></trkpt>
			<trkpt lat="54.865040" lon="20.415800"><ele>31.5</ele><time>2026-07-15T06:49:04Z</time></trkpt>
			<trkpt lat="54.866320" lon="20.414730"><ele>29.5</ele><time>2026-07-15T06:49:10Z</time></trkpt>
			<trkpt lat="54.868730" lon="20.412660"><ele>32.4</ele><time>2026-07-15T06:49:16Z</time></trkpt>
			<trkpt lat="54.870560" lon="20.411070"><ele>26.1</ele><time>2026-07-15T06:49:21Z</time></trkpt>
			<trkpt lat="54.873360" lon="20.408620"><ele>30.0</ele><time>2026-07-15T06:49:27Z</time></trkpt>
			<trkpt lat="54.873900" lon="20.408300"><ele>31.2</ele><time>2026-07-15T06:49:33Z</time></trkpt>
			<trkpt lat="54.877150" lon="20.406740"><ele>28.3</ele><time>2026-07-15T06:49:38Z</time></trkpt>
			<trkpt lat="54.878950" lon="20.405840"><ele>27.1</ele><time>2026-07-15T06:49:44Z</time></trkpt>
			<trkpt lat="54.879710" lon="20.405470"><ele>25.2</ele><time>2026-07-15T06:49:50Z</time></trkpt>
			<trkpt lat="54.879170" lon="20.411680"><ele>24.9</ele><time>2026-07-15T06:49:56Z</time></trkpt>
			<trkpt lat="54.879170" lon="20.411680"><ele>24.9</ele><time>2026-07-15T06:50:01Z</time></trkpt>
			<trkpt lat="54.877870" lon="20.426420"><ele>27.5</ele><time>2026-07-15T06:50:06Z</time></trkpt>
			<trkpt lat="54.877780" lon="20.427190"><ele>27.2</ele><time>2026-07-15T06:50:11Z</time></trkpt>
			<trkpt lat="54.877320" lon="20.430170"><ele>28.6</ele><time>2026-07-15T06:50:16Z</time></trkpt>
			<trkpt lat="54.876770" lon="20.433910"><ele>28.3</ele><time>2026-07-15T06:50:21Z</time></trkpt>
			<trkpt lat="54.876600" lon="20.435100"><ele>27.8</ele><time>2026-07-15T06:50:26Z</time></trkpt>
			<trkpt lat="54.876540" lon="20.435640"><ele>27.2</ele><time>2026-07-15T06:50:31Z</time></trkpt>
			<trkpt lat="54.876330" lon="20.438030"><ele>23.4</ele><time>2026-07-15T06:50:36Z</time></trkpt>
			<trkpt lat="54.875710" lon="20.445100"><ele>18.1</ele><time>2026-07-15T06:50:41Z</time></trkpt>
			<trkpt lat="54.875370" lon="20.449060"><ele>18.9</ele><time>2026-07-15T06:50:47Z</time></trkpt>
			<trkpt lat="54.875250" lon="20.450280"><ele>18.6</ele><time>2026-07-15T06:50:52Z</time></trkpt>
			<trkpt lat="54.875210" lon="20.450590"><ele>18.6</ele><time>2026-07-15T06:50:57Z</time></trkpt>
			<trkpt lat="54.875150" lon="20.450860"><ele>19.0</ele><time>2026-07-15T06:51:02Z</time></trkpt>
			<trkpt lat="54.874290" lon="20.454000"><ele>17.1</ele><time>2026-07-15T06:51:07Z</time></trkpt>
			<trkpt lat="54.873960" lon="20.455210"><ele>14.2</ele><time>2026-07-15T06:51:12Z</time></trkpt>
			<trkpt lat="54.873910" lon="20.455420"><ele>13.7</ele><time>2026-07-15T06:51:17Z</time></trkpt>
			<trkpt lat="54.873890" lon="20.455600"><ele>13.4</ele><time>2026-07-15T06:51:22Z</time></trkpt>
			<trkpt lat="54.873900" lon="20.455730"><ele>13.1</ele><time>2026-07-15T06:51:27Z</time></trkpt>
			<trkpt lat="54.873950" lon="20.455860"><ele>13.0</ele><time>2026-07-15T06:51:32Z</time></trkpt>
			<trkpt lat="54.874130" lon="20.456190"><ele>13.1</ele><time>2026-07-15T06:51:38Z</time></trkpt>
			<trkpt lat="54.874370" lon="20.456870"><ele>14.2</ele><time>2026-07-15T06:51:43Z</time></trkpt>
			<trkpt lat="54.874410" lon="20.457050"><ele>14.8</ele><time>2026-07-15T06:51:48Z</time></trkpt>
			<trkpt lat="54.874410" lon="20.457220"><ele>15.4</ele><time>2026-07-15T06:51:53Z</time></trkpt>
			<trkpt lat="54.874380" lon="20.457440"><ele>16.1</ele><time>2026-07-15T06:51:58Z</time></trkpt>
			<trkpt lat="54.874300" lon="20.457660"><ele>16.7</ele><time>2026-07-15T06:52:03Z</time></trkpt>
			<trkpt lat="54.874270" lon="20.457810"><ele>17.1</ele><time>2026-07-15T06:52:08Z</time></trkpt>
			<trkpt lat="54.873820" lon="20.458560"><ele>18.4</ele><time>2026-07-15T06:52:13Z</time></trkpt>
			<trkpt lat="54.872540" lon="20.460770"><ele>20.8</ele><time>2026-07-15T06:52:18Z</time></trkpt>
			<trkpt lat="54.872460" lon="20.460860"><ele>20.8</ele><time>2026-07-15T06:52:23Z</time></trkpt>
			<trkpt lat="54.872490" lon="20.460970"><ele>20.8</ele><time>2026-07-15T06:52:29Z</time></trkpt>
			<trkpt lat="54.872750" lon="20.461600"><ele>19.1</ele><time>2026-07-15T06:52:34Z</time></trkpt>
			<trkpt lat="54.872930" lon="20.461790"><ele>18.3</ele><time>2026-07-15T06:52:39Z</time></trkpt>
			<trkpt lat="54.873560" lon="20.462320"><ele>16.2</ele><time>2026-07-15T06:52:44Z</time></trkpt>
			<trkpt lat="54.874100" lon="20.462900"><ele>14.2</ele><time>2026-07-15T06:52:49Z</time></trkpt>
			<trkpt lat="54.874340" lon="20.463240"><ele>13.5</ele><time>2026-07-15T06:52:54Z</time></trkpt>
			<trkpt lat="54.874510" lon="20.463700"><ele>13.0</ele><time>2026-07-15T06:52:59Z</time></trkpt>
			<trkpt lat="54.874610" lon="20.464230"><ele>13.2</ele><time>2026-07-15T06:53:04Z</time></trkpt>
			<trkpt lat="54.874630" lon="20.464960"><ele>14.7</ele><time>2026-07-15T06:53:09Z</time></trkpt>
			<trkpt lat="54.874710" lon="20.466880"><ele>16.2</ele><time>2026-07-15T06:53:14Z</time></trkpt>
			<trkpt lat="54.874710" lon="20.466960"><ele>16.3</ele><time>2026-07-15T06:53:20Z</time></trkpt>
			<trkpt lat="54.874740" lon="20.467650"><ele>16.8</ele><time>2026-07-15T06:53:25Z</time></trkpt>
			<trkpt lat="54.874770" lon="20.468430"><ele>16.7</ele><time>2026-07-15T06:53:30Z</time></trkpt>
			<trkpt lat="54.874760" lon="20.468480"><ele>16.6</ele><time>2026-07-15T06:53:35Z</time></trkpt>
			<trkpt lat="54.874670" lon="20.469350"><ele>16.5</ele><time>2026-07-15T06:53:40Z</time></trkpt>
			<trkpt lat="54.874530" lon="20.470160"><ele>17.3</ele><time>2026-07-15T06:53:45Z</time></trkpt>
			<trkpt lat="54.874190" lon="20.472200"><ele>18.0</ele><time>2026-07-15T06:53:50Z</time></trkpt>
			<trkpt lat="54.873800" lon="20.474410"><ele>16.3</ele><time>2026-07-15T06:53:55Z</time></trkpt>
			<trkpt lat="54.873700" lon="20.475070"><ele>16.4</ele><time>2026-07-15T06:54:00Z</time></trkpt>
			<trkpt lat="54.873340" lon="20.476550"><ele>19.7</ele><time>2026-07-15T06:54:05Z</time></trkpt>
			<trkpt lat="54.873030" lon="20.477850"><ele>20.1</ele><time>2026-07-15T06:54:11Z</time></trkpt>
			<trkpt lat="54.872490" lon="20.480180"><ele>19.9</ele><time>2026-07-15T06:54:16Z</time></trkpt>
			<trkpt lat="54.871250" lon="20.484920"><ele>14.9</ele><time>2026-07-15T06:54:21Z</time></trkpt>
			<trkpt lat="54.870770" lon="20.486740"><ele>16.7</ele><time>2026-07-15T06:54:26Z</time></trkpt>
			<trkpt lat="54.870520" lon="20.487730"><ele>15.7</ele><time>2026-07-15T06:54:31Z</time></trkpt>
			<trkpt lat="54.870350" lon="20.488460"><ele>15.1</ele><time>2026-07-15T06:54:36Z</time></trkpt>
			<trkpt lat="54.870200" lon="20.489170"><ele>15.2</ele><time>2026-07-15T06:54:41Z</time></trkpt>
			<trkpt lat="54.870110" lon="20.489640"><ele>15.1</ele><time>2026-07-15T06:54:46Z</time></trkpt>
			<trkpt lat="54.870020" lon="20.490280"><ele>14.6</ele><time>2026-07-15T06:54:51Z</time></trkpt>
			<trkpt lat="54.869820" lon="20.491940"><ele>14.1</ele><time>2026-07-15T06:54:56Z</time></trkpt>
			<trkpt lat="54.869760" lon="20.492470"><ele>14.3</ele><time>2026-07-15T06:55:02Z</time></trkpt>
			<trkpt lat="54.869690" lon="20.492940"><ele>15.2</ele><time>2026-07-15T06:55:07Z</time></trkpt>
			<trkpt lat="54.869450" lon="20.494790"><ele>19.8</ele><time>2026-07-15T06:55:12Z</time></trkpt>
			<trkpt lat="54.869370" lon="20.495670"><ele>21.7</ele><time>2026-07-15T06:55:17Z</time></trkpt>
			<trkpt lat="54.869340" lon="20.495970"><ele>22.3</ele><time>2026-07-15T06:55:22Z</time></trkpt>
			<trkpt lat="54.869350" lon="20.496190"><ele>22.7</ele><time>2026-07-15T06:55:27Z</time></trkpt>
			<trkpt lat="54.869560" lon="20.496000"><ele>21.5</ele><time>2026-07-15T06:55:32Z</time></trkpt>
			<trkpt lat="54.869760" lon="20.495900"><ele>20.4</ele><time>2026-07-15T06:55:37Z</time></trkpt>
			<trkpt lat="54.869970" lon="20.495860"><ele>19.2</ele><time>2026-07-15T06:55:42Z</time></trkpt>
			<trkpt lat="54.870190" lon="20.495850"><ele>18.0</ele><time>2026-07-15T06:55:47Z</time></trkpt>
			<trkpt lat="54.870420" lon="20.495890"><ele>16.6</ele><time>2026-07-15T06:55:52Z</time></trkpt>
			<trkpt lat="54.872090" lon="20.496290"><ele>13.8</ele><time>2026-07-15T06:55:58Z</time></trkpt>
			<trkpt lat="54.872610" lon="20.496440"><ele>13.7</ele><time>2026-07-15T06:56:03Z</time></trkpt>
			<trkpt lat="54.872610" lon="20.496440"><ele>13.7</ele><time>2026-07-15T06:56:08Z</time></trkpt>
			<trkpt lat="54.873510" lon="20.496710"><ele>13.5</ele><time>2026-07-15T06:56:13Z</time></trkpt>
			<trkpt lat="54.875260" lon="20.497080"><ele>10.0</ele><time>2026-07-15T06:56:19Z</time></trkpt>
			<trkpt lat="54.875400" lon="20.497110"><ele>10.0</ele><time>2026-07-15T06:56:24Z</time></trkpt>
			<trkpt lat="54.876570" lon="20.497400"><ele>10.7</ele><time>2026-07-15T06:56:29Z</time></trkpt>
			<trkpt lat="54.876860" lon="20.497430"><ele>11.1</ele><time>2026-07-15T06:56:35Z</time></trkpt>
			<trkpt lat="54.877090" lon="20.497390"><ele>11.4</ele><time>2026-07-15T06:56:40Z</time></trkpt>
			<trkpt lat="54.877470" lon="20.497200"><ele>12.0</ele><time>2026-07-15T06:56:45Z</time></trkpt>
			<trkpt lat="54.878890" lon="20.496340"><ele>13.2</ele><time>2026-07-15T06:56:51Z</time></trkpt>
			<trkpt lat="54.879860" lon="20.495770"><ele>9.6</ele><time>2026-07-15T06:56:56Z</time></trkpt>
			<trkpt lat="54.881810" lon="20.494590"><ele>12.2</ele><time>2026-07-15T06:57:01Z</time></trkpt>
			<trkpt lat="54.886670" lon="20.491710"><ele>16.8</ele><time>2026-07-15T06:57:07Z</time></trkpt>
			<trkpt lat="54.886930" lon="20.491580"><ele>16.8</ele><time>2026-07-15T06:57:12Z</time></trkpt>
			<trkpt lat="54.887180" lon="20.491480"><ele>16.6</ele><time>2026-07-15T06:57:17Z</time></trkpt>
			<trkpt lat="54.887680" lon="20.491490"><ele>15.9</ele><time>2026-07-15T06:57:23Z</time></trkpt>
			<trkpt lat="54.893070" lon="20.492650"><ele>17.1</ele><time>2026-07-15T06:57:28Z</time></trkpt>
			<trkpt lat="54.893470" lon="20.492730"><ele>17.9</ele><time>2026-07-15T06:57:33Z</time></trkpt>
			<trkpt lat="54.894690" lon="20.492970"><ele>21.6</ele><time>2026-07-15T06:57:39Z</time></trkpt>
			<trkpt lat="54.895120" lon="20.493080"><ele>23.6</ele><time>2026-07-15T06:57:44Z</time></trkpt>
			<trkpt lat="54.895290" lon="20.493090"><ele>24.2</ele><time>2026-07-15T06:57:49Z</time></trkpt>
			<trkpt lat="54.895910" lon="20.493250"><ele>25.6</ele><time>2026-07-15T06:57:55Z</time></trkpt>
			<trkpt lat="54.897590" lon="20.493680"><ele>19.9</ele><time>2026-07-15T06:58:00Z</time></trkpt>
			<trkpt lat="54.898860" lon="20.494030"><ele>16.9</ele><time>2026-07-15T06:58:05Z</time></trkpt>
			<trkpt lat="54.902240" lon="20.494780"><ele>11.1</ele><time>2026-07-15T06:58:11Z</time></trkpt>
			<trkpt lat="54.904580" lon="20.495330"><ele>6.8</ele><time>2026-07-15T06:58:16Z</time></trkpt>
			<trkpt lat="54.904960" lon="20.495570"><ele>6.0</ele><time>2026-07-15T06:58:21Z</time></trkpt>
			<trkpt lat="54.905990" lon="20.495970"><ele>3.5</ele><time>2026-07-15T06:58:27Z</time></trkpt>
			<trkpt lat="54.906260" lon="20.496090"><ele>3.0</ele><time>2026-07-15T06:58:32Z</time></trkpt>
			<trkpt lat="54.907280" lon="20.496690"><ele>2.0</ele><time>2026-07-15T06:58:37Z</time></trkpt>
			<trkpt lat="54.907940" lon="20.497120"><ele>1.0</ele><time>2026-07-15T06:58:43Z</time></trkpt>
			<trkpt lat="54.908030" lon="20.497200"><ele>0.9</ele><time>2026-07-15T06:58:48Z</time></trkpt>
			<trkpt lat="54.908360" lon="20.497480"><ele>1.0</ele><time>2026-07-15T06:58:53Z</time></trkpt>
			<trkpt lat="54.908630" lon="20.497670"><ele>1.2</ele><time>2026-07-15T06:58:59Z</time></trkpt>
			<trkpt lat="54.909140" lon="20.498080"><ele>2.4</ele><time>2026-07-15T06:59:04Z</time></trkpt>
			<trkpt lat="54.910040" lon="20.498890"><ele>4.7</ele><time>2026-07-15T06:59:09Z</time></trkpt>
			<trkpt lat="54.912190" lon="20.500760"><ele>8.8</ele><time>2026-07-15T06:59:15Z</time></trkpt>
			<trkpt lat="54.912250" lon="20.500800"><ele>8.8</ele><time>2026-07-15T06:59:20Z</time></trkpt>
			<trkpt lat="54.913840" lon="20.502170"><ele>6.6</ele><time>2026-07-15T06:59:25Z</time></trkpt>
			<trkpt lat="54.914140" lon="20.502430"><ele>6.1</ele><time>2026-07-15T06:59:31Z</time></trkpt>
			<trkpt lat="54.915530" lon="20.503660"><ele>2.9</ele><time>2026-07-15T06:59:36Z</time></trkpt>
			<trkpt lat="54.916210" lon="20.504230"><ele>1.5</ele><time>2026-07-15T06:59:41Z</time></trkpt>
			<trkpt lat="54.916420" lon="20.504400"><ele>1.2</ele><time>2026-07-15T06:59:47Z</time></trkpt>
			<trkpt lat="54.918810" lon="20.506490"><ele>1.9</ele><time>2026-07-15T06:59:52Z</time></trkpt>
			<trkpt lat="54.919400" lon="20.507000"><ele>2.6</ele><time>2026-07-15T06:59:57Z</time></trkpt>
			<trkpt lat="54.919980" lon="20.507420"><ele>5.3</ele><time>2026-07-15T07:00:03Z</time></trkpt>
			<trkpt lat="54.921260" lon="20.508110"><ele>6.2</ele><time>2026-07-15T07:00:08Z</time></trkpt>
			<trkpt lat="54.921820" lon="20.508320"><ele>6.9</ele><time>2026-07-15T07:00:13Z</time></trkpt>
			<trkpt lat="54.922530" lon="20.508510"><ele>7.3</ele><time>2026-07-15T07:00:19Z</time></trkpt>
			<trkpt lat="54.923040" lon="20.508620"><ele>8.0</ele><time>2026-07-15T07:00:24Z</time></trkpt>
			<trkpt lat="54.925140" lon="20.508990"><ele>6.3</ele><time>2026-07-15T07:00:29Z</time></trkpt>
			<trkpt lat="54.929500" lon="20.509740"><ele>1.8</ele><time>2026-07-15T07:00:35Z</time></trkpt>
			<trkpt lat="54.931480" lon="20.510080"><ele>1.9</ele><time>2026-07-15T07:00:40Z</time></trkpt>
			<trkpt lat="54.934390" lon="20.510590"><ele>5.6</ele><time>2026-07-15T07:00:45Z</time></trkpt>
			<trkpt lat="54.935660" lon="20.510800"><ele>3.5</ele><time>2026-07-15T07:00:51Z</time></trkpt>
			<trkpt lat="54.936420" lon="20.510930"><ele>2.2</ele><time>2026-07-15T07:00:56Z</time></trkpt>
			<trkpt lat="54.937660" lon="20.511110"><ele>0.3</ele><time>2026-07-15T07:01:01Z</time></trkpt>
			<trkpt lat="54.937880" lon="20.511130"><ele>0.2</ele><time>2026-07-15T07:01:07Z</time></trkpt>
			<trkpt lat="54.938290" lon="20.511100"><ele>-0.0</ele><time>2026-07-15T07:01:12Z</time></trkpt>
			<trkpt lat="54.938590" lon="20.510950"><ele>-0.3</ele><time>2026-07-15T07:01:17Z</time></trkpt>
			<trkpt lat="54.938790" lon="20.510820"><ele>-0.5</ele><time>2026-07-15T07:01:23Z</time></trkpt>
			<trkpt lat="54.939000" lon="20.510630"><ele>-0.5</ele><time>2026-07-15T07:01:28Z</time></trkpt>
			<trkpt lat="54.940350" lon="20.509250"><ele>-1.8</ele><time>2026-07-15T07:01:33Z</time></trkpt>
			<trkpt lat="54.940910" lon="20.508670"><ele>-2.5</ele><time>2026-07-15T07:01:39Z</time></trkpt>
			<trkpt lat="54.941230" lon="20.508340"><ele>-1.6</ele><time>2026-07-15T07:01:44Z</time></trkpt>
			<trkpt lat="54.941850" lon="20.507730"><ele>-1.5</ele><time>2026-07-15T07:01:49Z</time></trkpt>
			<trkpt lat="54.942340" lon="20.507240"><ele>-1.3</ele><time>2026-07-15T07:01:55Z</time></trkpt>
			<trkpt lat="54.942700" lon="20.506830"><ele>-1.6</ele><time>2026-07-15T07:02:00Z</time></trkpt>
			<trkpt lat="54.945470" lon="20.503930"><ele>-0.3</ele><time>2026-07-15T07:02:05Z</time></trkpt>
			<trkpt lat="54.946690" lon="20.502700"><ele>-1.9</ele><time>2026-07-15T07:02:10Z</time></trkpt>
			<trkpt lat="54.946990" lon="20.502340"><ele>-2.1</ele><time>2026-07-15T07:02:16Z</time></trkpt>
			<trkpt lat="54.947170" lon="20.502070"><ele>-2.2</ele><time>2026-07-15T07:02:21Z</time></trkpt>
			<trkpt lat="54.947350" lon="20.501750"><ele>-2.2</ele><time>2026-07-15T07:02:26Z</time></trkpt>
			<trkpt lat="54.947490" lon="20.501430"><ele>-2.1</ele><time>2026-07-15T07:02:32Z</time></trkpt>
			<trkpt lat="54.947690" lon="20.500810"><ele>-1.9</ele><time>2026-07-15T07:02:37Z</time></trkpt>
			<trkpt lat="54.947770" lon="20.500550"><ele>-1.8</ele><time>2026-07-15T07:02:42Z</time></trkpt>
			<trkpt lat="54.948180" lon="20.499120"><ele>-1.8</ele><time>2026-07-15T07:02:48Z</time></trkpt>
			<trkpt lat="54.948350" lon="20.498550"><ele>-2.0</ele><time>2026-07-15T07:02:53Z</time></trkpt>
			<trkpt lat="54.949580" lon="20.494260"><ele>-0.9</ele><time>2026-07-15T07:02:58Z</time></trkpt>
			<trkpt lat="54.950340" lon="20.491670"><ele>1.0</ele><time>2026-07-15T07:03:04Z</time></trkpt>
			<trkpt lat="54.950660" lon="20.490540"><ele>1.0</ele><time>2026-07-15T07:03:09Z</time></trkpt>
			<trkpt lat="54.950980" lon="20.489550"><ele>0.3</ele><time>2026-07-15T07:03:14Z</time></trkpt>
			<trkpt lat="54.951200" lon="20.488900"><ele>0.3</ele><time>2026-07-15T07:03:20Z</time></trkpt>
			<trkpt lat="54.951390" lon="20.488320"><ele>0.6</ele><time>2026-07-15T07:03:25Z</time></trkpt>
			<trkpt lat="54.951600" lon="20.487630"><ele>0.1</ele><time>2026-07-15T07:03:30Z</time></trkpt>
			<trkpt lat="54.951930" lon="20.486470"><ele>-0.7</ele><time>2026-07-15T07:03:36Z</time></trkpt>
			<trkpt lat="54.952150" lon="20.485660"><ele>0.2</ele><time>2026-07-15T07:03:41Z</time></trkpt>
			<trkpt lat="54.952210" lon="20.485410"><ele>0.5</ele><time>2026-07-15T07:03:46Z</time></trkpt>
			<trkpt lat="54.952310" lon="20.485110"><ele>0.9</ele><time>2026-07-15T07:03:52Z</time></trkpt>
			<trkpt lat="54.952420" lon="20.484830"><ele>1.1</ele><time>2026-07-15T07:03:57Z</time></trkpt>
			<trkpt lat="54.952610" lon="20.484440"><ele>1.3</ele><time>2026-07-15T07:04:02Z</time></trkpt>
			<trkpt lat="54.952700" lon="20.484290"><ele>1.3</ele><time>2026-07-15T07:04:08Z</time></trkpt>
			<trkpt lat="54.953260" lon="20.483340"><ele>1.0</ele><time>2026-07-15T07:04:13Z</time></trkpt>
			<trkpt lat="54.953650" lon="20.482670"><ele>0.5</ele><time>2026-07-15T07:04:18Z</time></trkpt>
			<trkpt lat="54.954110" lon="20.481880"><ele>-0.7</ele><time>2026-07-15T07:04:24Z</time></trkpt>
			<trkpt lat="54.954240" lon="20.481620"><ele>-1.1</ele><time>2026-07-15T07:04:29Z</time></trkpt>
			<trkpt lat="54.954360" lon="20.481460"><ele>-1.4</ele><time>2026-07-15T07:04:34Z</time></trkpt>
			<trkpt lat="54.954510" lon="20.481380"><ele>-1.4</ele><time>2026-07-15T07:04:40Z</time></trkpt>
			<trkpt lat="54.954580" lon="20.481410"><ele>-1.5</ele><time>2026-07-15T07:04:45Z</time></trkpt>
			<trkpt lat="54.954650" lon="20.481400"><ele>-1.5</ele><time>2026-07-15T07:04:50Z</time></trkpt>
			<trkpt lat="54.954710" lon="20.481360"><ele>-1.5</ele><time>2026-07-15T07:04:56Z</time></trkpt>
			<trkpt lat="54.954760" lon="20.481300"><ele>-1.5</ele><time>2026-07-15T07:05:01Z</time></trkpt>
			<trkpt lat="54.954800" lon="20.481220"><ele>-1.4</ele><time>2026-07-15T07:05:06Z</time></trkpt>
			<trkpt lat="54.954840" lon="20.481110"><ele>-1.3</ele><time>2026-07-15T07:05:12Z</time></trkpt>
			<trkpt lat="54.954850" lon="20.480990"><ele>-1.3</ele><time>2026-07-15T07:05:17Z</time></trkpt>
			<trkpt lat="54.954850" lon="20.480870"><ele>-1.2</ele><time>2026-07-15T07:05:22Z</time></trkpt>
			<trkpt lat="54.954860" lon="20.480710"><ele>-1.1</ele><time>2026-07-15T07:05:28Z</time></trkpt>
			<trkpt lat="54.954880" lon="20.480580"><ele>-1.1</ele><time>2026-07-15T07:05:33Z</time></trkpt>
			<trkpt lat="54.954960" lon="20.480370"><ele>-1.0</ele><time>2026-07-15T07:05:38Z</time></trkpt>
			<trkpt lat="54.955230" lon="20.479890"><ele>-1.3</ele><time>2026-07-15T07:05:44Z</time></trkpt>
			<trkpt lat="54.955580" lon="20.479280"><ele>-1.2</ele><time>2026-07-15T07:05:49Z</time></trkpt>
			<trkpt lat="54.955940" lon="20.478670"><ele>0.3</ele><time>2026-07-15T07:05:54Z</time></trkpt>
			<trkpt lat="54.956100" lon="20.478390"><ele>1.1</ele><time>2026-07-15T07:06:00Z</time></trkpt>
			<trkpt lat="54.956430" lon="20.477830"><ele>2.0</ele><time>2026-07-15T07:06:05Z</time></trkpt>
			<trkpt lat="54.956710" lon="20.477340"><ele>2.1</ele><time>2026-07-15T07:06:10Z</time></trkpt>
			<trkpt lat="54.956970" lon="20.476990"><ele>2.1</ele><time>2026-07-15T07:06:16Z</time></trkpt>
			<trkpt lat="54.957050" lon="20.476900"><ele>2.1</ele><time>2026-07-15T07:06:21Z</time></trkpt>
			<trkpt lat="54.957210" lon="20.476740"><ele>2.2</ele><time>2026-07-15T07:06:26Z</time></trkpt>
			<trkpt lat="54.957340" lon="20.476630"><ele>2.3</ele><time>2026-07-15T07:06:32Z</time></trkpt>
			<trkpt lat="54.957720" lon="20.476390"><ele>2.6</ele><time>2026-07-15T07:06:37Z</time></trkpt>
			<trkpt lat="54.958160" lon="20.476120"><ele>2.8</ele><time>2026-07-15T07:06:42Z</time></trkpt>
			<trkpt lat="54.958530" lon="20.475890"><ele>2.9</ele><time>2026-07-15T07:06:48Z</time></trkpt>
			<trkpt lat="54.958760" lon="20.475750"><ele>3.0</ele><time>2026-07-15T07:06:53Z</time></trkpt>
			<trkpt lat="54.959050" lon="20.475580"><ele>3.0</ele><time>2026-07-15T07:06:58Z</time></trkpt>
			<trkpt lat="54.959320" lon="20.475420"><ele>3.2</ele><time>2026-07-15T07:07:04Z</time></trkpt>
			<trkpt lat="54.959610" lon="20.475240"><ele>3.5</ele><time>2026-07-15T07:07:09Z</time></trkpt>
			<trkpt lat="54.959610" lon="20.475240"><ele>3.5</ele><time>2026-07-15T07:07:13Z</time></trkpt>
			<trkpt lat="54.959860" lon="20.475080"><ele>3.8</ele><time>2026-07-15T07:07:17Z</time></trkpt>
			<trkpt lat="54.959880" lon="20.475020"><ele>3.8</ele><time>2026-07-15T07:07:22Z</time></trkpt>
			<trkpt lat="54.959870" lon="20.474970"><ele>3.8</ele><time>2026-07-15T07:07:26Z</time></trkpt>
			<trkpt lat="54.959630" lon="20.473810"><ele>4.2</ele><time>2026-07-15T07:07:30Z</time></trkpt>
			<trkpt lat="54.959570" lon="20.473630"><ele>4.4</ele><time>2026-07-15T07:07:34Z</time></trkpt>
			<trkpt lat="54.959490" lon="20.473460"><ele>4.7</ele><time>2026-07-15T07:07:39Z</time></trkpt>
			<trkpt lat="54.959390" lon="20.473260"><ele>4.8</ele><time>2026-07-15T07:07:43Z</time></trkpt>
			<trkpt lat="54.959310" lon="20.473150"><ele>4.9</ele><time>2026-07-15T07:07:47Z</time></trkpt>
			<trkpt lat="54.959120" lon="20.472850"><ele>5.0</ele><time>2026-07-15T07:07:51Z</time></trkpt>
			<trkpt lat="54.958980" lon="20.472620"><ele>5.0</ele><time>2026-07-15T07:07:55Z</time></trkpt>
			<trkpt lat="54.958890" lon="20.472480"><ele>4.9</ele><time>2026-07-15T07:08:00Z</time></trkpt>
			<trkpt lat="54.958760" lon="20.472310"><ele>4.8</ele><time>2026-07-15T07:08:04Z</time></trkpt>
			<trkpt lat="54.958710" lon="20.472220"><ele>4.7</ele><time>2026-07-15T07:08:08Z</time></trkpt>
			<trkpt lat="54.958570" lon="20.471950"><ele>4.7</ele><time>2026-07-15T07:08:12Z</time></trkpt>
			<trkpt lat="54.958510" lon="20.471850"><ele>4.7</ele><time>2026-07-15T07:08:16Z</time></trkpt>
			<trkpt lat="54.958440" lon="20.471770"><ele>4.8</ele><time>2026-07-15T07:08:21Z</time></trkpt>
			<trkpt lat="54.958270" lon="20.471660"><ele>5.0</ele><time>2026-07-15T07:08:25Z</time></trkpt>
			<trkpt lat="54.958100" lon="20.471600"><ele>5.3</ele><time>2026-07-15T07:08:29Z</time></trkpt>
			<trkpt lat="54.957850" lon="20.471560"><ele>5.7</ele><time>2026-07-15T07:08:33Z</time></trkpt>
			<trkpt lat="54.956960" lon="20.471390"><ele>6.1</ele><time>2026-07-15T07:08:38Z</time></trkpt>
			<trkpt lat="54.955950" lon="20.471200"><ele>3.9</ele><time>2026-07-15T07:08:42Z</time></trkpt>
			<trkpt lat="54.955530" lon="20.471110"><ele>3.6</ele><time>2026-07-15T07:08:46Z</time></trkpt>
			<trkpt lat="54.954300" lon="20.470860"><ele>3.1</ele><time>2026-07-15T07:08:50Z</time></trkpt>
			<trkpt lat="54.953480" lon="20.470700"><ele>1.5</ele><time>2026-07-15T07:08:54Z</time></trkpt>
			<trkpt lat="54.953260" lon="20.470660"><ele>1.0</ele><time>2026-07-15T07:08:59Z</time></trkpt>
			<trkpt lat="54.952720" lon="20.470560"><ele>-0.1</ele><time>2026-07-15T07:09:03Z</time></trkpt>
			<trkpt lat="54.952040" lon="20.470430"><ele>-1.1</ele><time>2026-07-15T07:09:07Z</time></trkpt>
			<trkpt lat="54.951470" lon="20.470310"><ele>-1.3</ele><time>2026-07-15T07:09:11Z</time></trkpt>
			<trkpt lat="54.950600" lon="20.470150"><ele>-1.0</ele><time>2026-07-15T07:09:16Z</time></trkpt>
			<trkpt lat="54.949880" lon="20.470010"><ele>-0.9</ele><time>2026-07-15T07:09:20Z</time></trkpt>
			<trkpt lat="54.949440" lon="20.469940"><ele>-0.4</ele><time>2026-07-15T07:09:24Z</time></trkpt>
			<trkpt lat="54.949160" lon="20.469880"><ele>-0.2</ele><time>2026-07-15T07:09:28Z</time></trkpt>
			<trkpt lat="54.948940" lon="20.469770"><ele>-0.7</ele><time>2026-07-15T07:09:32Z</time></trkpt>
			<trkpt lat="54.948700" lon="20.469600"><ele>-1.3</ele><time>2026-07-15T07:09:37Z</time></trkpt>
			<trkpt lat="54.948310" lon="20.469340"><ele>-1.9</ele><time>2026-07-15T07:09:41Z</time></trkpt>
			<trkpt lat="54.948200" lon="20.469270"><ele>-2.0</ele><time>2026-07-15T07:09:45Z</time></trkpt>
			<trkpt lat="54.946360" lon="20.468030"><ele>0.2</ele><time>2026-07-15T07:09:49Z</time></trkpt>
			<trkpt lat="54.945590" lon="20.467550"><ele>-0.2</ele><time>2026-07-15T07:09:53Z</time></trkpt>
			<trkpt lat="54.944650" lon="20.466950"><ele>-1.1</ele><time>2026-07-15T07:09:58Z</time></trkpt>
			<trkpt lat="54.944450" lon="20.466760"><ele>-1.1</ele><time>2026-07-15T07:10:02Z</time></trkpt>
			<trkpt lat="54.944330" lon="20.466600"><ele>-1.2</ele><time>2026-07-15T07:10:06Z</time></trkpt>
			<trkpt lat="54.944050" lon="20.466110"><ele>-1.6</ele><time>2026-07-15T07:10:10Z</time></trkpt>
			<trkpt lat="54.943960" lon="20.465840"><ele>-1.7</ele><time>2026-07-15T07:10:15Z</time></trkpt>
			<trkpt lat="54.943470" lon="20.464340"><ele>0.8</ele><time>2026-07-15T07:10:19Z</time></trkpt>
			<trkpt lat="54.943320" lon="20.463910"><ele>1.2</ele><time>2026-07-15T07:10:23Z</time></trkpt>
			<trkpt lat="54.942720" lon="20.462240"><ele>1.9</ele><time>2026-07-15T07:10:27Z</time></trkpt>
			<trkpt lat="54.942010" lon="20.460170"><ele>0.2</ele><time>2026-07-15T07:10:31Z</time></trkpt>
			<trkpt lat="54.940830" lon="20.456720"><ele>3.9</ele><time>2026-07-15T07:10:36Z</time></trkpt>
			<trkpt lat="54.940690" lon="20.456320"><ele>5.1</ele><time>2026-07-15T07:10:40Z</time></trkpt>
			<trkpt lat="54.940240" lon="20.455020"><ele>7.7</ele><time>2026-07-15T07:10:44Z</time></trkpt>
			<trkpt lat="54.940050" lon="20.454480"><ele>7.7</ele><time>2026-07-15T07:10:48Z</time></trkpt>
			<trkpt lat="54.938850" lon="20.451010"><ele>4.3</ele><time>2026-07-15T07:10:53Z</time></trkpt>
			<trkpt lat="54.937910" lon="20.448280"><ele>2.5</ele><time>2026-07-15T07:10:57Z</time></trkpt>
			<trkpt lat="54.937430" lon="20.446890"><ele>2.7</ele><time>2026-07-15T07:11:01Z</time></trkpt>
			<trkpt lat="54.936830" lon="20.445130"><ele>3.7</ele><time>2026-07-15T07:11:05Z</time></trkpt>
			<trkpt lat="54.936060" lon="20.442900"><ele>4.7</ele><time>2026-07-15T07:11:09Z</time></trkpt>
			<trkpt lat="54.935290" lon="20.440670"><ele>3.2</ele><time>2026-07-15T07:11:14Z</time></trkpt>
			<trkpt lat="54.934530" lon="20.438440"><ele>0.6</ele><time>2026-07-15T07:11:18Z</time></trkpt>
			<trkpt lat="54.934160" lon="20.437360"><ele>-1.0</ele><time>2026-07-15T07:11:22Z</time></trkpt>
			<trkpt lat="54.934120" lon="20.437250"><ele>-1.0</ele><time>2026-07-15T07:11:26Z</time></trkpt>
			<trkpt lat="54.933570" lon="20.435760"><ele>-1.3</ele><time>2026-07-15T07:11:30Z</time></trkpt>
			<trkpt lat="54.932390" lon="20.432330"><ele>-0.0</ele><time>2026-07-15T07:11:35Z</time></trkpt>
			<trkpt lat="54.931260" lon="20.429070"><ele>-1.0</ele><time>2026-07-15T07:11:39Z</time></trkpt>
			<trkpt lat="54.929410" lon="20.423760"><ele>0.9</ele><time>2026-07-15T07:11:43Z</time></trkpt>
			<trkpt lat="54.929140" lon="20.422940"><ele>0.6</ele><time>2026-07-15T07:11:47Z</time></trkpt>
			<trkpt lat="54.929050" lon="20.422570"><ele>0.3</ele><time>2026-07-15T07:11:52Z</time></trkpt>
			<trkpt lat="54.928990" lon="20.422240"><ele>0.1</ele><time>2026-07-15T07:11:56Z</time></trkpt>
			<trkpt lat="54.928960" lon="20.421970"><ele>0.1</ele><time>2026-07-15T07:12:00Z</time></trkpt>
			<trkpt lat="54.928940" lon="20.421710"><ele>0.0</ele><time>2026-07-15T07:12:04Z</time></trkpt>
			<trkpt lat="54.928950" lon="20.421410"><ele>0.2</ele><time>2026-07-15T07:12:08Z</time></trkpt>
			<trkpt lat="54.928960" lon="20.421150"><ele>0.3</ele><time>2026-07-15T07:12:13Z</time></trkpt>
			<trkpt lat="54.928960" lon="20.421070"><ele>0.4</ele><time>2026-07-15T07:12:17Z</time></trkpt>
			<trkpt lat="54.928960" lon="20.420850"><ele>0.6</ele><time>2026-07-15T07:12:21Z</time></trkpt>
			<trkpt lat="54.928980" lon="20.419060"><ele>2.4</ele><time>2026-07-15T07:12:25Z</time></trkpt>
			<trkpt lat="54.929010" lon="20.418240"><ele>1.9</ele><time>2026-07-15T07:12:29Z</time></trkpt>
			<trkpt lat="54.929020" lon="20.418130"><ele>1.9</ele><time>2026-07-15T07:12:34Z</time></trkpt>
			<trkpt lat="54.929040" lon="20.417730"><ele>1.8</ele><time>2026-07-15T07:12:38Z</time></trkpt>
			<trkpt lat="54.929100" lon="20.415420"><ele>1.0</ele><time>2026-07-15T07:12:42Z</time></trkpt>
			<trkpt lat="54.929150" lon="20.413620"><ele>0.0</ele><time>2026-07-15T07:12:46Z</time></trkpt>
			<trkpt lat="54.929150" lon="20.413370"><ele>0.0</ele><time>2026-07-15T07:12:51Z</time></trkpt>
			<trkpt lat="54.929190" lon="20.411880"><ele>-0.7</ele><time>2026-07-15T07:12:55Z</time></trkpt>
			<trkpt lat="54.929200" lon="20.411710"><ele>-0.8</ele><time>2026-07-15T07:12:59Z</time></trkpt>
			<trkpt lat="54.929300" lon="20.408300"><ele>1.0</ele><time>2026-07-15T07:13:03Z</time></trkpt>
			<trkpt lat="54.929360" lon="20.406080"><ele>-0.2</ele><time>2026-07-15T07:13:07Z</time></trkpt>
			<trkpt lat="54.929350" lon="20.405720"><ele>-0.0</ele><time>2026-07-15T07:13:12Z</time></trkpt>
			<trkpt lat="54.929280" lon="20.405100"><ele>0.8</ele><time>2026-07-15T07:13:16Z</time></trkpt>
			<trkpt lat="54.928790" lon="20.402180"><ele>1.2</ele><time>2026-07-15T07:13:20Z</time></trkpt>
			<trkpt lat="54.928740" lon="20.401930"><ele>1.4</ele><time>2026-07-15T07:13:24Z</time></trkpt>
			<trkpt lat="54.928680" lon="20.401720"><ele>1.4</ele><time>2026-07-15T07:13:29Z</time></trkpt>
			<trkpt lat="54.928570" lon="20.401260"><ele>1.4</ele><time>2026-07-15T07:13:33Z</time></trkpt>
			<trkpt lat="54.928330" lon="20.400580"><ele>0.7</ele><time>2026-07-15T07:13:37Z</time></trkpt>
			<trkpt lat="54.928070" lon="20.400010"><ele>0.1</ele><time>2026-07-15T07:13:41Z</time></trkpt>
			<trkpt lat="54.927880" lon="20.399660"><ele>0.0</ele><time>2026-07-15T07:13:45Z</time></trkpt>
			<trkpt lat="54.927640" lon="20.399290"><ele>0.1</ele><time>2026-07-15T07:13:50Z</time></trkpt>
			<trkpt lat="54.927470" lon="20.399050"><ele>0.4</ele><time>2026-07-15T07:13:54Z</time></trkpt>
			<trkpt lat="54.927130" lon="20.398680"><ele>1.1</ele><time>2026-07-15T07:13:58Z</time></trkpt>
			<trkpt lat="54.926780" lon="20.398390"><ele>1.1</ele><time>2026-07-15T07:14:02Z</time></trkpt>
			<trkpt lat="54.926460" lon="20.398160"><ele>1.0</ele><time>2026-07-15T07:14:06Z</time></trkpt>
			<trkpt lat="54.925900" lon="20.397950"><ele>0.5</ele><time>2026-07-15T07:14:11Z</time></trkpt>
			<trkpt lat="54.925720" lon="20.397940"><ele>0.3</ele><time>2026-07-15T07:14:15Z</time></trkpt>
			<trkpt lat="54.925340" lon="20.397890"><ele>-0.4</ele><time>2026-07-15T07:14:19Z</time></trkpt>
			<trkpt lat="54.925120" lon="20.397920"><ele>-0.8</ele><time>2026-07-15T07:14:23Z</time></trkpt>
			<trkpt lat="54.924580" lon="20.398030"><ele>-1.0</ele><time>2026-07-15T07:14:28Z</time></trkpt>
			<trkpt lat="54.924350" lon="20.398080"><ele>-1.0</ele><time>2026-07-15T07:14:32Z</time></trkpt>
			<trkpt lat="54.924290" lon="20.398100"><ele>-1.0</ele><time>2026-07-15T07:14:36Z</time></trkpt>
			<trkpt lat="54.923910" lon="20.398190"><ele>-1.0</ele><time>2026-07-15T07:14:40Z</time></trkpt>
			<trkpt lat="54.923960" lon="20.398850"><ele>-1.0</ele><time>2026-07-15T07:14:44Z</time></trkpt>
			<trkpt lat="54.924250" lon="20.403480"><ele>-0.8</ele><time>2026-07-15T07:14:49Z</time></trkpt>
			<trkpt lat="54.924270" lon="20.403920"><ele>-0.9</ele><time>2026-07-15T07:14:53Z</time></trkpt>
			<trkpt lat="54.924260" lon="20.404270"><ele>-0.9</ele><time>2026-07-15T07:14:57Z</time></trkpt>
			<trkpt lat="54.924210" lon="20.404680"><ele>-0.9</ele><time>2026-07-15T07:15:01Z</time></trkpt>
			<trkpt lat="54.924150" lon="20.404890"><ele>-1.0</ele><time>2026-07-15T07:15:06Z</time></trkpt>
			<trkpt lat="54.924090" lon="20.405070"><ele>-0.9</ele><time>2026-07-15T07:15:10Z</time></trkpt>
			<trkpt lat="54.924000" lon="20.405250"><ele>-0.8</ele><time>2026-07-15T07:15:14Z</time></trkpt>
			<trkpt lat="54.923870" lon="20.405440"><ele>-0.6</ele><time>2026-07-15T07:15:18Z</time></trkpt>
			<trkpt lat="54.923660" lon="20.405630"><ele>-0.4</ele><time>2026-07-15T07:15:22Z</time></trkpt>
			<trkpt lat="54.923520" lon="20.405700"><ele>-0.2</ele><time>2026-07-15T07:15:27Z</time></trkpt>
			<trkpt lat="54.923290" lon="20.405720"><ele>-0.0</ele><time>2026-07-15T07:15:31Z</time></trkpt>
			<trkpt lat="54.923020" lon="20.405640"><ele>0.1</ele><time>2026-07-15T07:15:35Z</time></trkpt>
			<trkpt lat="54.922510" lon="20.405310"><ele>0.6</ele><time>2026-07-15T07:15:39Z</time></trkpt>
			<trkpt lat="54.922390" lon="20.405180"><ele>0.6</ele><time>2026-07-15T07:15:43Z</time></trkpt>
			<trkpt lat="54.922330" lon="20.405020"><ele>0.6</ele><time>2026-07-15T07:15:48Z</time></trkpt>
			<trkpt lat="54.922310" lon="20.404890"><ele>0.7</ele><time>2026-07-15T07:15:52Z</time></trkpt>
			<trkpt lat="54.922320" lon="20.404540"><ele>0.4</ele><time>2026-07-15T07:15:56Z</time></trkpt>
			<trkpt lat="54.922440" lon="20.403780"><ele>0.0</ele><time>2026-07-15T07:16:00Z</time></trkpt>
			<trkpt lat="54.922800" lon="20.401310"><ele>0.1</ele><time>2026-07-15T07:16:05Z</time></trkpt>
			<trkpt lat="54.923100" lon="20.398770"><ele>-0.7</ele><time>2026-07-15T07:16:09Z</time></trkpt>
			<trkpt lat="54.923170" lon="20.398020"><ele>-1.1</ele><time>2026-07-15T07:16:13Z</time></trkpt>
			<trkpt lat="54.923270" lon="20.396970"><ele>-1.3</ele><time>2026-07-15T07:16:17Z</time></trkpt>
			<trkpt lat="54.923370" lon="20.395580"><ele>-0.7</ele><time>2026-07-15T07:16:21Z</time></trkpt>
			<trkpt lat="54.923460" lon="20.393750"><ele>0.0</ele><time>2026-07-15T07:16:26Z</time></trkpt>
			<trkpt lat="54.923500" lon="20.392500"><ele>0.4</ele><time>2026-07-15T07:16:30Z</time></trkpt>
			<trkpt lat="54.923530" lon="20.389970"><ele>0.9</ele><time>2026-07-15T07:16:34Z</time></trkpt>
			<trkpt lat="54.923500" lon="20.388070"><ele>-0.8</ele><time>2026-07-15T07:16:38Z</time></trkpt>
			<trkpt lat="54.923460" lon="20.386940"><ele>-0.8</ele><time>2026-07-15T07:16:42Z</time></trkpt>
			<trkpt lat="54.923400" lon="20.385750"><ele>-1.0</ele><time>2026-07-15T07:16:47Z</time></trkpt>
			<trkpt lat="54.923340" lon="20.384530"><ele>-0.4</ele><time>2026-07-15T07:16:51Z</time></trkpt>
			<trkpt lat="54.923280" lon="20.383670"><ele>-0.1</ele><time>2026-07-15T07:16:55Z</time></trkpt>
			<trkpt lat="54.923140" lon="20.382210"><ele>-0.6</ele><time>2026-07-15T07:16:59Z</time></trkpt>
			<trkpt lat="54.923000" lon="20.380850"><ele>0.0</ele><time>2026-07-15T07:17:04Z</time></trkpt>
			<trkpt lat="54.922860" lon="20.379730"><ele>0.0</ele><time>2026-07-15T07:17:08Z</time></trkpt>
			<trkpt lat="54.922610" lon="20.377890"><ele>-1.5</ele><time>2026-07-15T07:17:12Z</time></trkpt>
			<trkpt lat="54.922450" lon="20.376890"><ele>-1.2</ele><time>2026-07-15T07:17:16Z</time></trkpt>
			<trkpt lat="54.922280" lon="20.375930"><ele>0.2</ele><time>2026-07-15T07:17:20Z</time></trkpt>
			<trkpt lat="54.922190" lon="20.375370"><ele>0.7</ele><time>2026-07-15T07:17:25Z</time></trkpt>
			<trkpt lat="54.921640" lon="20.372660"><ele>0.3</ele><time>2026-07-15T07:17:29Z</time></trkpt>
			<trkpt lat="54.921300" lon="20.370820"><ele>0.1</ele><time>2026-07-15T07:17:33Z</time></trkpt>
			<trkpt lat="54.921160" lon="20.369930"><ele>0.6</ele><time>2026-07-15T07:17:37Z</time></trkpt>
			<trkpt lat="54.920970" lon="20.368670"><ele>-0.0</ele><time>2026-07-15T07:17:42Z</time></trkpt>
			<trkpt lat="54.920700" lon="20.366660"><ele>-0.8</ele><time>2026-07-15T07:17:46Z</time></trkpt>
			<trkpt lat="54.920590" lon="20.365630"><ele>-0.7</ele><time>2026-07-15T07:17:50Z</time></trkpt>
			<trkpt lat="54.920470" lon="20.364480"><ele>-0.2</ele><time>2026-07-15T07:17:54Z</time></trkpt>
			<trkpt lat="54.920400" lon="20.363640"><ele>0.0</ele><time>2026-07-15T07:17:58Z</time></trkpt>
			<trkpt lat="54.920300" lon="20.362290"><ele>0.2</ele><time>2026-07-15T07:18:03Z</time></trkpt>
			<trkpt lat="54.920220" lon="20.361020"><ele>0.1</ele><time>2026-07-15T07:18:07Z</time></trkpt>
			<trkpt lat="54.920160" lon="20.359600"><ele>0.4</ele><time>2026-07-15T07:18:11Z</time></trkpt>
			<trkpt lat="54.920140" lon="20.357970"><ele>1.0</ele><time>2026-07-15T07:18:15Z</time></trkpt>
			<trkpt lat="54.920140" lon="20.357050"><ele>0.5</ele><time>2026-07-15T07:18:19Z</time></trkpt>
			<trkpt lat="54.920140" lon="20.356310"><ele>0.5</ele><time>2026-07-15T07:18:24Z</time></trkpt>
			<trkpt lat="54.920160" lon="20.355000"><ele>3.0</ele><time>2026-07-15T07:18:28Z</time></trkpt>
			<trkpt lat="54.920200" lon="20.353740"><ele>5.3</ele><time>2026-07-15T07:18:32Z</time></trkpt>
			<trkpt lat="54.920270" lon="20.352260"><ele>6.8</ele><time>2026-07-15T07:18:36Z</time></trkpt>
			<trkpt lat="54.920520" lon="20.348080"><ele>6.9</ele><time>2026-07-15T07:18:41Z</time></trkpt>
			<trkpt lat="54.920890" lon="20.342240"><ele>4.5</ele><time>2026-07-15T07:18:45Z</time></trkpt>
			<trkpt lat="54.921050" lon="20.339740"><ele>6.7</ele><time>2026-07-15T07:18:49Z</time></trkpt>
			<trkpt lat="54.921250" lon="20.336020"><ele>14.6</ele><time>2026-07-15T07:18:53Z</time></trkpt>
			<trkpt lat="54.921440" lon="20.331800"><ele>18.6</ele><time>2026-07-15T07:18:57Z</time></trkpt>
			<trkpt lat="54.921540" lon="20.328870"><ele>18.1</ele><time>2026-07-15T07:19:02Z</time></trkpt>
			<trkpt lat="54.921550" lon="20.327870"><ele>17.5</ele><time>2026-07-15T07:19:06Z</time></trkpt>
			<trkpt lat="54.921620" lon="20.324990"><ele>17.2</ele><time>2026-07-15T07:19:10Z</time></trkpt>
			<trkpt lat="54.921640" lon="20.323940"><ele>18.0</ele><time>2026-07-15T07:19:14Z</time></trkpt>
			<trkpt lat="54.921700" lon="20.319480"><ele>16.4</ele><time>2026-07-15T07:19:19Z</time></trkpt>
			<trkpt lat="54.921710" lon="20.316300"><ele>17.7</ele><time>2026-07-15T07:19:23Z</time></trkpt>
			<trkpt lat="54.921700" lon="20.312030"><ele>19.4</ele><time>2026-07-15T07:19:27Z</time></trkpt>
			<trkpt lat="54.921610" lon="20.306970"><ele>17.4</ele><time>2026-07-15T07:19:31Z</time></trkpt>
			<trkpt lat="54.921540" lon="20.304210"><ele>20.8</ele><time>2026-07-15T07:19:35Z</time></trkpt>
			<trkpt lat="54.921500" lon="20.302910"><ele>21.2</ele><time>2026-07-15T07:19:40Z</time></trkpt>
			<trkpt lat="54.921290" lon="20.297910"><ele>15.1</ele><time>2026-07-15T07:19:44Z</time></trkpt>
			<trkpt lat="54.921240" lon="20.296550"><ele>13.8</ele><time>2026-07-15T07:19:48Z</time></trkpt>
			<trkpt lat="54.920930" lon="20.288370"><ele>22.9</ele><time>2026-07-15T07:19:52Z</time></trkpt>
			<trkpt lat="54.920930" lon="20.288370"><ele>22.9</ele><time>2026-07-15T07:19:57Z</time></trkpt>
			<trkpt lat="54.920450" lon="20.276250"><ele>29.3</ele><time>2026-07-15T07:20:01Z</time></trkpt>
			<trkpt lat="54.920330" lon="20.273120"><ele>29.9</ele><time>2026-07-15T07:20:05Z</time></trkpt>
			<trkpt lat="54.920300" lon="20.272120"><ele>30.8</ele><time>2026-07-15T07:20:10Z</time></trkpt>
			<trkpt lat="54.920300" lon="20.271200"><ele>31.4</ele><time>2026-07-15T07:20:14Z</time></trkpt>
			<trkpt lat="54.920330" lon="20.270730"><ele>31.8</ele><time>2026-07-15T07:20:19Z</time></trkpt>
			<trkpt lat="54.920380" lon="20.270480"><ele>32.1</ele><time>2026-07-15T07:20:23Z</time></trkpt>
			<trkpt lat="54.920480" lon="20.270290"><ele>32.4</ele><time>2026-07-15T07:20:28Z</time></trkpt>
			<trkpt lat="54.920870" lon="20.269790"><ele>33.7</ele><time>2026-07-15T07:20:32Z</time></trkpt>
			<trkpt lat="54.921150" lon="20.269440"><ele>35.2</ele><time>2026-07-15T07:20:36Z</time></trkpt>
			<trkpt lat="54.921300" lon="20.269230"><ele>35.8</ele><time>2026-07-15T07:20:41Z</time></trkpt>
			<trkpt lat="54.921510" lon="20.268890"><ele>35.9</ele><time>2026-07-15T07:20:45Z</time></trkpt>
			<trkpt lat="54.921720" lon="20.268330"><ele>35.2</ele><time>2026-07-15T07:20:50Z</time></trkpt>
			<trkpt lat="54.921820" lon="20.268010"><ele>34.7</ele><time>2026-07-15T07:20:54Z</time></trkpt>
			<trkpt lat="54.921940" lon="20.267430"><ele>33.7</ele><time>2026-07-15T07:20:58Z</time></trkpt>
			<trkpt lat="54.922050" lon="20.266020"><ele>33.0</ele><time>2026-07-15T07:21:03Z</time></trkpt>
			<trkpt lat="54.922090" lon="20.265280"><ele>32.7</ele><time>2026-07-15T07:21:07Z</time></trkpt>
			<trkpt lat="54.922110" lon="20.264640"><ele>32.4</ele><time>2026-07-15T07:21:12Z</time></trkpt>
			<trkpt lat="54.922210" lon="20.264110"><ele>32.1</ele><time>2026-07-15T07:21:16Z</time></trkpt>
			<trkpt lat="54.922290" lon="20.263930"><ele>32.0</ele><time>2026-07-15T07:21:20Z</time></trkpt>
			<trkpt lat="54.922920" lon="20.263490"><ele>30.2</ele><time>2026-07-15T07:21:25Z</time></trkpt>
			<trkpt lat="54.923510" lon="20.263180"><ele>28.9</ele><time>2026-07-15T07:21:29Z</time></trkpt>
			<trkpt lat="54.924970" lon="20.262360"><ele>27.0</ele><time>2026-07-15T07:21:34Z</time></trkpt>
			<trkpt lat="54.925300" lon="20.262140"><ele>27.1</ele><time>2026-07-15T07:21:38Z</time></trkpt>
			<trkpt lat="54.925820" lon="20.261760"><ele>28.0</ele><time>2026-07-15T07:21:42Z</time></trkpt>
			<trkpt lat="54.926060" lon="20.261550"><ele>28.7</ele><time>2026-07-15T07:21:47Z</time></trkpt>
			<trkpt lat="54.926800" lon="20.260780"><ele>29.2</ele><time>2026-07-15T07:21:51Z</time></trkpt>
			<trkpt lat="54.927170" lon="20.260280"><ele>29.1</ele><time>2026-07-15T07:21:56Z</time></trkpt>
			<trkpt lat="54.927710" lon="20.259420"><ele>28.6</ele><time>2026-07-15T07:22:00Z</time></trkpt>
			<trkpt lat="54.928190" lon="20.260120"><ele>29.4</ele><time>2026-07-15T07:22:05Z</time></trkpt>
			<trkpt lat="54.928430" lon="20.260410"><ele>29.9</ele><time>2026-07-15T07:22:09Z</time></trkpt>
			<trkpt lat="54.928630" lon="20.260580"><ele>30.1</ele><time>2026-07-15T07:22:13Z</time></trkpt>
			<trkpt lat="54.929110" lon="20.260760"><ele>29.9</ele><time>2026-07-15T07:22:18Z</time></trkpt>
			<trkpt lat="54.929910" lon="20.260770"><ele>28.3</ele><time>2026-07-15T07:22:22Z</time></trkpt>
			<trkpt lat="54.930520" lon="20.260770"><ele>28.0</ele><time>2026-07-15T07:22:27Z</time></trkpt>
			<trkpt lat="54.931240" lon="20.260760"><ele>27.0</ele><time>2026-07-15T07:22:31Z</time></trkpt>
			<trkpt lat="54.932010" lon="20.260750"><ele>25.6</ele><time>2026-07-15T07:22:35Z</time></trkpt>
			<trkpt lat="54.932290" lon="20.260740"><ele>25.3</ele><time>2026-07-15T07:22:40Z</time></trkpt>
			<trkpt lat="54.932570" lon="20.260740"><ele>25.2</ele><time>2026-07-15T07:22:44Z</time></trkpt>
			<trkpt lat="54.933190" lon="20.260730"><ele>26.5</ele><time>2026-07-15T07:22:49Z</time></trkpt>
			<trkpt lat="54.934230" lon="20.260720"><ele>25.4</ele><time>2026-07-15T07:22:53Z</time></trkpt>
			<trkpt lat="54.935050" lon="20.260720"><ele>26.0</ele><time>2026-07-15T07:22:57Z</time></trkpt>
			<trkpt lat="54.936500" lon="20.260720"><ele>27.0</ele><time>2026-07-15T07:23:02Z</time></trkpt>
			<trkpt lat="54.938240" lon="20.260510"><ele>25.5</ele><time>2026-07-15T07:23:06Z</time></trkpt>
			<trkpt lat="54.939950" lon="20.260150"><ele>23.4</ele><time>2026-07-15T07:23:11Z</time></trkpt>
			<trkpt lat="54.939950" lon="20.260150"><ele>23.4</ele><time>2026-07-15T07:23:14Z</time></trkpt>
			<trkpt lat="54.941210" lon="20.259880"><ele>22.9</ele><time>2026-07-15T07:23:17Z</time></trkpt>
			<trkpt lat="54.943740" lon="20.259300"><ele>18.2</ele><time>2026-07-15T07:23:20Z</time></trkpt>
			<trkpt lat="54.943840" lon="20.259280"><ele>17.9</ele><time>2026-07-15T07:23:24Z</time></trkpt>
			<trkpt lat="54.946090" lon="20.258790"><ele>17.4</ele><time>2026-07-15T07:23:27Z</time></trkpt>
			<trkpt lat="54.946750" lon="20.258650"><ele>16.6</ele><time>2026-07-15T07:23:30Z</time></trkpt>
			<trkpt lat="54.946860" lon="20.258630"><ele>16.4</ele><time>2026-07-15T07:23:33Z</time></trkpt>
			<trkpt lat="54.947550" lon="20.258360"><ele>14.9</ele><time>2026-07-15T07:23:37Z</time></trkpt>
			<trkpt lat="54.947880" lon="20.258240"><ele>14.0</ele><time>2026-07-15T07:23:40Z</time></trkpt>
			<trkpt lat="54.948270" lon="20.258090"><ele>12.9</ele><time>2026-07-15T07:23:43Z</time></trkpt>
			<trkpt lat="54.948380" lon="20.258050"><ele>12.4</ele><time>2026-07-15T07:23:46Z</time></trkpt>
			<trkpt lat="54.948850" lon="20.257880"><ele>9.7</ele><time>2026-07-15T07:23:50Z</time></trkpt>
			<trkpt lat="54.949800" lon="20.257490"><ele>5.8</ele><time>2026-07-15T07:23:53Z</time></trkpt>
			<trkpt lat="54.949900" lon="20.257400"><ele>5.5</ele><time>2026-07-15T07:23:56Z</time></trkpt>
			<trkpt lat="54.949980" lon="20.257360"><ele>5.3</ele><time>2026-07-15T07:23:59Z</time></trkpt>
			<trkpt lat="54.949960" lon="20.256880"><ele>5.1</ele><time>2026-07-15T07:24:03Z</time></trkpt>
			<trkpt lat="54.949890" lon="20.255630"><ele>5.8</ele><time>2026-07-15T07:24:06Z</time></trkpt>
			<trkpt lat="54.949880" lon="20.255270"><ele>6.4</ele><time>2026-07-15T07:24:09Z</time></trkpt>
			<trkpt lat="54.949900" lon="20.255140"><ele>6.6</ele><time>2026-07-15T07:24:12Z</time></trkpt>
			<trkpt lat="54.949940" lon="20.255020"><ele>6.8</ele><time>2026-07-15T07:24:16Z</time></trkpt>
			<trkpt lat="54.949980" lon="20.254950"><ele>6.9</ele><time>2026-07-15T07:24:19Z</time></trkpt>
			<trkpt lat="54.950030" lon="20.254900"><ele>7.0</ele><time>2026-07-15T07:24:22Z</time></trkpt>
			<trkpt lat="54.950140" lon="20.254840"><ele>7.1</ele><time>2026-07-15T07:24:25Z</time></trkpt>
			<trkpt lat="54.950540" lon="20.254720"><ele>7.1</ele><time>2026-07-15T07:24:29Z</time></trkpt>
			<trkpt lat="54.950600" lon="20.254680"><ele>7.1</ele><time>2026-07-15T07:24:32Z</time></trkpt>
			<trkpt lat="54.950640" lon="20.254640"><ele>7.1</ele><time>2026-07-15T07:24:35Z</time></trkpt>
			<trkpt lat="54.950670" lon="20.254570"><ele>7.1</ele><time>2026-07-15T07:24:38Z</time></trkpt>
			<trkpt lat="54.950710" lon="20.254410"><ele>7.1</ele><time>2026-07-15T07:24:42Z</time></trkpt>
			<trkpt lat="54.950710" lon="20.254160"><ele>7.2</ele><time>2026-07-15T07:24:45Z</time></trkpt>
			<trkpt lat="54.950670" lon="20.253290"><ele>7.5</ele><time>2026-07-15T07:24:48Z</time></trkpt>
			<trkpt lat="54.950640" lon="20.252640"><ele>8.3</ele><time>2026-07-15T07:24:51Z</time></trkpt>
			<trkpt lat="54.950580" lon="20.251800"><ele>10.5</ele><time>2026-07-15T07:24:55Z</time></trkpt>
			<trkpt lat="54.950530" lon="20.251180"><ele>11.6</ele><time>2026-07-15T07:24:58Z</time></trkpt>
			<trkpt lat="54.950530" lon="20.250670"><ele>12.2</ele><time>2026-07-15T07:25:01Z</time></trkpt>
			<trkpt lat="54.950550" lon="20.250170"><ele>12.8</ele><time>2026-07-15T07:25:04Z</time></trkpt>
			<trkpt lat="54.950610" lon="20.249730"><ele>13.6</ele><time>2026-07-15T07:25:08Z</time></trkpt>
			<trkpt lat="54.951800" lon="20.241000"><ele>17.1</ele><time>2026-07-15T07:25:11Z</time></trkpt>
			<trkpt lat="54.951960" lon="20.239830"><ele>17.8</ele><time>2026-07-15T07:25:14Z</time></trkpt>
			<trkpt lat="54.952000" lon="20.239620"><ele>17.9</ele><time>2026-07-15T07:25:17Z</time></trkpt>
			<trkpt lat="54.952010" lon="20.239500"><ele>17.9</ele><time>2026-07-15T07:25:21Z</time></trkpt>
			<trkpt lat="54.952040" lon="20.239300"><ele>17.9</ele><time>2026-07-15T07:25:24Z</time></trkpt>
			<trkpt lat="54.952210" lon="20.238080"><ele>16.6</ele><time>2026-07-15T07:25:27Z</time></trkpt>
			<trkpt lat="54.952240" lon="20.237860"><ele>16.4</ele><time>2026-07-15T07:25:30Z</time></trkpt>
			<trkpt lat="54.952360" lon="20.237010"><ele>16.2</ele><time>2026-07-15T07:25:34Z</time></trkpt>
			<trkpt lat="54.952410" lon="20.236790"><ele>16.2</ele><time>2026-07-15T07:25:37Z</time></trkpt>
			<trkpt lat="54.952420" lon="20.236740"><ele>16.2</ele><time>2026-07-15T07:25:40Z</time></trkpt>
			<trkpt lat="54.952580" lon="20.236290"><ele>16.1</ele><time>2026-07-15T07:25:43Z</time></trkpt>
			<trkpt lat="54.952720" lon="20.235890"><ele>16.3</ele><time>2026-07-15T07:25:47Z</time></trkpt>
			<trkpt lat="54.952950" lon="20.235230"><ele>16.8</ele><time>2026-07-15T07:25:50Z</time></trkpt>
			<trkpt lat="54.953010" lon="20.235030"><ele>17.1</ele><time>2026-07-15T07:25:53Z</time></trkpt>
			<trkpt lat="54.953050" lon="20.234910"><ele>17.3</ele><time>2026-07-15T07:25:56Z</time></trkpt>
			<trkpt lat="54.953130" lon="20.234600"><ele>17.9</ele><time>2026-07-15T07:26:00Z</time></trkpt>
			<trkpt lat="54.953240" lon="20.233990"><ele>19.3</ele><time>2026-07-15T07:26:03Z</time></trkpt>
			<trkpt lat="54.953250" lon="20.233920"><ele>19.5</ele><time>2026-07-15T07:26:06Z</time></trkpt>
			<trkpt lat="54.953340" lon="20.233430"><ele>20.8</ele><time>2026-07-15T07:26:09Z</time></trkpt>
			<trkpt lat="54.953410" lon="20.233050"><ele>21.3</ele><time>2026-07-15T07:26:12Z</time></trkpt>
			<trkpt lat="54.953420" lon="20.232940"><ele>21.5</ele><time>2026-07-15T07:26:16Z</time></trkpt>
			<trkpt lat="54.953430" lon="20.232820"><ele>21.6</ele><time>2026-07-15T07:26:19Z</time></trkpt>
			<trkpt lat="54.953440" lon="20.232590"><ele>21.7</ele><time>2026-07-15T07:26:22Z</time></trkpt>
			<trkpt lat="54.953450" lon="20.231880"><ele>22.0</ele><time>2026-07-15T07:26:25Z</time></trkpt>
			<trkpt lat="54.953460" lon="20.231260"><ele>22.1</ele><time>2026-07-15T07:26:29Z</time></trkpt>
			<trkpt lat="54.953470" lon="20.231000"><ele>22.1</ele><time>2026-07-15T07:26:32Z</time></trkpt>
			<trkpt lat="54.953470" lon="20.230900"><ele>22.1</ele><time>2026-07-15T07:26:35Z</time></trkpt>
			<trkpt lat="54.953480" lon="20.230160"><ele>22.8</ele><time>2026-07-15T07:26:38Z</time></trkpt>
			<trkpt lat="54.953500" lon="20.229830"><ele>22.8</ele><time>2026-07-15T07:26:42Z</time></trkpt>
			<trkpt lat="54.953510" lon="20.229720"><ele>22.8</ele><time>2026-07-15T07:26:45Z</time></trkpt>
			<trkpt lat="54.953530" lon="20.229610"><ele>22.8</ele><time>2026-07-15T07:26:48Z</time></trkpt>
			<trkpt lat="54.953580" lon="20.229320"><ele>22.4</ele><time>2026-07-15T07:26:51Z</time></trkpt>
			<trkpt lat="54.953610" lon="20.229130"><ele>22.1</ele><time>2026-07-15T07:26:55Z</time></trkpt>
			<trkpt lat="54.953680" lon="20.228720"><ele>21.1</ele><time>2026-07-15T07:26:58Z</time></trkpt>
			<trkpt lat="54.953690" lon="20.228410"><ele>20.3</ele><time>2026-07-15T07:27:01Z</time></trkpt>
			<trkpt lat="54.953680" lon="20.228290"><ele>20.1</ele><time>2026-07-15T07:27:04Z</time></trkpt>
			<trkpt lat="54.953640" lon="20.227630"><ele>19.2</ele><time>2026-07-15T07:27:08Z</time></trkpt>
			<trkpt lat="54.953610" lon="20.227310"><ele>19.0</ele><time>2026-07-15T07:27:11Z</time></trkpt>
			<trkpt lat="54.953620" lon="20.226890"><ele>18.7</ele><time>2026-07-15T07:27:14Z</time></trkpt>
			<trkpt lat="54.953700" lon="20.225810"><ele>17.6</ele><time>2026-07-15T07:27:17Z</time></trkpt>
			<trkpt lat="54.953700" lon="20.225640"><ele>17.3</ele><time>2026-07-15T07:27:21Z</time></trkpt>
			<trkpt lat="54.953680" lon="20.225280"><ele>16.7</ele><time>2026-07-15T07:27:24Z</time></trkpt>
			<trkpt lat="54.953650" lon="20.225170"><ele>16.2</ele><time>2026-07-15T07:27:27Z</time></trkpt>
			<trkpt lat="54.953770" lon="20.225040"><ele>15.2</ele><time>2026-07-15T07:27:30Z</time></trkpt>
			<trkpt lat="54.953890" lon="20.224800"><ele>13.8</ele><time>2026-07-15T07:27:34Z</time></trkpt>
			<trkpt lat="54.953970" lon="20.224580"><ele>12.5</ele><time>2026-07-15T07:27:37Z</time></trkpt>
			<trkpt lat="54.954010" lon="20.224360"><ele>11.4</ele><time>2026-07-15T07:27:40Z</time></trkpt>
			<trkpt lat="54.954040" lon="20.224110"><ele>10.4</ele><time>2026-07-15T07:27:43Z</time></trkpt>
			<trkpt lat="54.954150" lon="20.223190"><ele>7.2</ele><time>2026-07-15T07:27:47Z</time></trkpt>
			<trkpt lat="54.954210" lon="20.222720"><ele>6.0</ele><time>2026-07-15T07:27:50Z</time></trkpt>
			<trkpt lat="54.954210" lon="20.222720"><ele>6.0</ele><time>2026-07-15T07:27:52Z</time></trkpt>
			<trkpt lat="54.954260" lon="20.222360"><ele>5.4</ele><time>2026-07-15T07:27:55Z</time></trkpt>
			<trkpt lat="54.954250" lon="20.221940"><ele>5.3</ele><time>2026-07-15T07:27:57Z</time></trkpt>
			<trkpt lat="54.954270" lon="20.221560"><ele>5.0</ele><time>2026-07-15T07:28:00Z</time></trkpt>
			<trkpt lat="54.954300" lon="20.221460"><ele>4.9</ele><time>2026-07-15T07:28:02Z</time></trkpt>
			<trkpt lat="54.954310" lon="20.221340"><ele>4.7</ele><time>2026-07-15T07:28:05Z</time></trkpt>
			<trkpt lat="54.954310" lon="20.221230"><ele>4.6</ele><time>2026-07-15T07:28:07Z</time></trkpt>
			<trkpt lat="54.954290" lon="20.221120"><ele>4.8</ele><time>2026-07-15T07:28:10Z</time></trkpt>
			<trkpt lat="54.954250" lon="20.221020"><ele>5.0</ele><time>2026-07-15T07:28:12Z</time></trkpt>
			<trkpt lat="54.954210" lon="20.220940"><ele>5.2</ele><time>2026-07-15T07:28:14Z</time></trkpt>
			<trkpt lat="54.954080" lon="20.220840"><ele>5.8</ele><time>2026-07-15T07:28:17Z</time></trkpt>
			<trkpt lat="54.954010" lon="20.220840"><ele>6.1</ele><time>2026-07-15T07:28:19Z</time></trkpt>
			<trkpt lat="54.953940" lon="20.220670"><ele>6.8</ele><time>2026-07-15T07:28:22Z</time></trkpt>
			<trkpt lat="54.953840" lon="20.220110"><ele>8.7</ele><time>2026-07-15T07:28:24Z</time></trkpt>
			<trkpt lat="54.953770" lon="20.219350"><ele>11.7</ele><time>2026-07-15T07:28:27Z</time></trkpt>
			<trkpt lat="54.953690" lon="20.218710"><ele>14.5</ele><time>2026-07-15T07:28:29Z</time></trkpt>
			<trkpt lat="54.953610" lon="20.218370"><ele>16.2</ele><time>2026-07-15T07:28:32Z</time></trkpt>
			<trkpt lat="54.953550" lon="20.218170"><ele>17.3</ele><time>2026-07-15T07:28:34Z</time></trkpt>
			<trkpt lat="54.953490" lon="20.218040"><ele>18.1</ele><time>2026-07-15T07:28:37Z</time></trkpt>
			<trkpt lat="54.953310" lon="20.217730"><ele>19.1</ele><time>2026-07-15T07:28:39Z</time></trkpt>
			<trkpt lat="54.953260" lon="20.217660"><ele>19.3</ele><time>2026-07-15T07:28:41Z</time></trkpt>
			<trkpt lat="54.953140" lon="20.217520"><ele>19.6</ele><time>2026-07-15T07:28:44Z</time></trkpt>
			<trkpt lat="54.953090" lon="20.217440"><ele>19.5</ele><time>2026-07-15T07:28:46Z</time></trkpt>
			<trkpt lat="54.952640" lon="20.216870"><ele>19.0</ele><time>2026-07-15T07:28:49Z</time></trkpt>
			<trkpt lat="54.952470" lon="20.216630"><ele>19.1</ele><time>2026-07-15T07:28:51Z</time></trkpt>
			<trkpt lat="54.952350" lon="20.216440"><ele>19.2</ele><time>2026-07-15T07:28:54Z</time></trkpt>
			<trkpt lat="54.952230" lon="20.216220"><ele>19.5</ele><time>2026-07-15T07:28:56Z</time></trkpt>
			<trkpt lat="54.952130" lon="20.215960"><ele>19.8</ele><time>2026-07-15T07:28:59Z</time></trkpt>
			<trkpt lat="54.951990" lon="20.215520"><ele>20.6</ele><time>2026-07-15T07:29:01Z</time></trkpt>
			<trkpt lat="54.951900" lon="20.215210"><ele>21.1</ele><time>2026-07-15T07:29:04Z</time></trkpt>
			<trkpt lat="54.951850" lon="20.214880"><ele>21.4</ele><time>2026-07-15T07:29:06Z</time></trkpt>
			<trkpt lat="54.951850" lon="20.214440"><ele>21.3</ele><time>2026-07-15T07:29:08Z</time></trkpt>
			<trkpt lat="54.951860" lon="20.214250"><ele>21.1</ele><time>2026-07-15T07:29:11Z</time></trkpt>
			<trkpt lat="54.951890" lon="20.214140"><ele>21.0</ele><time>2026-07-15T07:29:13Z</time></trkpt>
			<trkpt lat="54.951900" lon="20.214050"><ele>21.0</ele><time>2026-07-15T07:29:16Z</time></trkpt>
			<trkpt lat="54.951970" lon="20.213860"><ele>21.0</ele><time>2026-07-15T07:29:18Z</time></trkpt>
			<trkpt lat="54.952070" lon="20.213640"><ele>21.0</ele><time>2026-07-15T07:29:21Z</time></trkpt>
			<trkpt lat="54.952280" lon="20.213200"><ele>21.0</ele><time>2026-07-15T07:29:23Z</time></trkpt>
			<trkpt lat="54.952460" lon="20.212640"><ele>21.0</ele><time>2026-07-15T07:29:26Z</time></trkpt>
			<trkpt lat="54.952560" lon="20.212010"><ele>21.6</ele><time>2026-07-15T07:29:28Z</time></trkpt>
			<trkpt lat="54.952800" lon="20.210720"><ele>22.2</ele><time>2026-07-15T07:29:31Z</time></trkpt>
			<trkpt lat="54.952860" lon="20.210320"><ele>22.9</ele><time>2026-07-15T07:29:33Z</time></trkpt>
			<trkpt lat="54.952880" lon="20.209750"><ele>23.6</ele><time>2026-07-15T07:29:36Z</time></trkpt>
			<trkpt lat="54.952880" lon="20.209150"><ele>24.2</ele><time>2026-07-15T07:29:38Z</time></trkpt>
			<trkpt lat="54.952840" lon="20.208540"><ele>25.2</ele><time>2026-07-15T07:29:40Z</time></trkpt>
			<trkpt lat="54.952840" lon="20.207770"><ele>26.3</ele><time>2026-07-15T07:29:43Z</time></trkpt>
			<trkpt lat="54.952850" lon="20.207020"><ele>26.8</ele><time>2026-07-15T07:29:45Z</time></trkpt>
			<trkpt lat="54.952850" lon="20.206650"><ele>27.0</ele><time>2026-07-15T07:29:48Z</time></trkpt>
			<trkpt lat="54.952830" lon="20.206470"><ele>27.1</ele><time>2026-07-15T07:29:50Z</time></trkpt>
			<trkpt lat="54.952790" lon="20.206220"><ele>27.4</ele><time>2026-07-15T07:29:53Z</time></trkpt>
			<trkpt lat="54.952710" lon="20.205890"><ele>27.7</ele><time>2026-07-15T07:29:55Z</time></trkpt>
			<trkpt lat="54.952580" lon="20.205560"><ele>28.6</ele><time>2026-07-15T07:29:58Z</time></trkpt>
			<trkpt lat="54.952210" lon="20.204740"><ele>30.8</ele><time>2026-07-15T07:30:00Z</time></trkpt>
			<trkpt lat="54.951950" lon="20.204070"><ele>31.9</ele><time>2026-07-15T07:30:03Z</time></trkpt>
			<trkpt lat="54.951920" lon="20.203990"><ele>31.9</ele><time>2026-07-15T07:30:05Z</time></trkpt>
			<trkpt lat="54.951890" lon="20.203890"><ele>32.0</ele><time>2026-07-15T07:30:07Z</time></trkpt>
			<trkpt lat="54.951770" lon="20.203470"><ele>32.1</ele><time>2026-07-15T07:30:10Z</time></trkpt>
			<trkpt lat="54.951640" lon="20.202850"><ele>32.6</ele><time>2026-07-15T07:30:12Z</time></trkpt>
			<trkpt lat="54.951450" lon="20.201920"><ele>33.0</ele><time>2026-07-15T07:30:15Z</time></trkpt>
			<trkpt lat="54.951270" lon="20.200500"><ele>32.8</ele><time>2026-07-15T07:30:17Z</time></trkpt>
			<trkpt lat="54.951100" lon="20.199880"><ele>32.3</ele><time>2026-07-15T07:30:20Z</time></trkpt>
			<trkpt lat="54.951100" lon="20.199850"><ele>32.2</ele><time>2026-07-15T07:30:22Z</time></trkpt>
			<trkpt lat="54.950860" lon="20.199320"><ele>32.0</ele><time>2026-07-15T07:30:25Z</time></trkpt>
			<trkpt lat="54.950550" lon="20.198580"><ele>32.7</ele><time>2026-07-15T07:30:27Z</time></trkpt>
			<trkpt lat="54.950460" lon="20.198250"><ele>33.2</ele><time>2026-07-15T07:30:30Z</time></trkpt>
			<trkpt lat="54.950410" lon="20.197960"><ele>33.7</ele><time>2026-07-15T07:30:32Z</time></trkpt>
			<trkpt lat="54.950380" lon="20.197660"><ele>34.2</ele><time>2026-07-15T07:30:34Z</time></trkpt>
			<trkpt lat="54.950400" lon="20.197230"><ele>34.3</ele><time>2026-07-15T07:30:37Z</time></trkpt>
			<trkpt lat="54.950610" lon="20.195850"><ele>33.4</ele><time>2026-07-15T07:30:39Z</time></trkpt>
			<trkpt lat="54.950630" lon="20.195390"><ele>32.7</ele><time>2026-07-15T07:30:42Z</time></trkpt>
			<trkpt lat="54.950540" lon="20.194400"><ele>30.8</ele><time>2026-07-15T07:30:44Z</time></trkpt>
			<trkpt lat="54.950550" lon="20.194210"><ele>30.4</ele><time>2026-07-15T07:30:47Z</time></trkpt>
			<trkpt lat="54.950540" lon="20.193450"><ele>28.6</ele><time>2026-07-15T07:30:49Z</time></trkpt>
			<trkpt lat="54.950550" lon="20.192550"><ele>26.5</ele><time>2026-07-15T07:30:52Z</time></trkpt>
			<trkpt lat="54.950560" lon="20.192380"><ele>26.2</ele><time>2026-07-15T07:30:54Z</time></trkpt>
			<trkpt lat="54.950570" lon="20.192190"><ele>25.9</ele><time>2026-07-15T07:30:57Z</time></trkpt>
			<trkpt lat="54.950600" lon="20.191860"><ele>25.4</ele><time>2026-07-15T07:30:59Z</time></trkpt>
			<trkpt lat="54.950630" lon="20.191620"><ele>25.2</ele><time>2026-07-15T07:31:01Z</time></trkpt>
			<trkpt lat="54.950710" lon="20.191130"><ele>24.8</ele><time>2026-07-15T07:31:04Z</time></trkpt>
			<trkpt lat="54.950740" lon="20.190780"><ele>24.7</ele><time>2026-07-15T07:31:06Z</time></trkpt>
			<trkpt lat="54.950750" lon="20.190660"><ele>24.5</ele><time>2026-07-15T07:31:09Z</time></trkpt>
			<trkpt lat="54.950720" lon="20.190480"><ele>24.1</ele><time>2026-07-15T07:31:11Z</time></trkpt>
			<trkpt lat="54.950650" lon="20.190200"><ele>23.4</ele><time>2026-07-15T07:31:14Z</time></trkpt>
			<trkpt lat="54.950510" lon="20.189730"><ele>22.1</ele><time>2026-07-15T07:31:16Z</time></trkpt>
			<trkpt lat="54.950340" lon="20.189230"><ele>20.9</ele><time>2026-07-15T07:31:19Z</time></trkpt>
			<trkpt lat="54.950290" lon="20.189020"><ele>20.4</ele><time>2026-07-15T07:31:21Z</time></trkpt>
			<trkpt lat="54.950310" lon="20.189010"><ele>20.4</ele><time>2026-07-15T07:31:24Z</time></trkpt>
			<trkpt lat="54.950340" lon="20.188940"><ele>20.3</ele><time>2026-07-15T07:31:26Z</time></trkpt>
			<trkpt lat="54.950360" lon="20.188860"><ele>20.2</ele><time>2026-07-15T07:31:28Z</time></trkpt>
			<trkpt lat="54.950370" lon="20.188770"><ele>20.1</ele><time>2026-07-15T07:31:31Z</time></trkpt>
			<trkpt lat="54.950370" lon="20.188740"><ele>20.0</ele><time>2026-07-15T07:31:33Z</time></trkpt>
			<trkpt lat="54.950360" lon="20.188680"><ele>19.9</ele><time>2026-07-15T07:31:36Z</time></trkpt>
			<trkpt lat="54.950330" lon="20.188610"><ele>19.8</ele><time>2026-07-15T07:31:38Z</time></trkpt>
			<trkpt lat="54.950290" lon="20.188550"><ele>19.7</ele><time>2026-07-15T07:31:41Z</time></trkpt>
			<trkpt lat="54.950240" lon="20.188520"><ele>19.7</ele><time>2026-07-15T07:31:43Z</time></trkpt>
			<trkpt lat="54.950190" lon="20.188520"><ele>19.7</ele><time>2026-07-15T07:31:46Z</time></trkpt>
			<trkpt lat="54.950150" lon="20.188550"><ele>19.7</ele><time>2026-07-15T07:31:48Z</time></trkpt>
			<trkpt lat="54.949780" lon="20.187120"><ele>20.7</ele><time>2026-07-15T07:31:51Z</time></trkpt>
			<trkpt lat="54.949450" lon="20.185920"><ele>21.6</ele><time>2026-07-15T07:31:53Z</time></trkpt>
			<trkpt lat="54.949050" lon="20.184480"><ele>23.0</ele><time>2026-07-15T07:31:55Z</time></trkpt>
			<trkpt lat="54.948760" lon="20.183420"><ele>21.5</ele><time>2026-07-15T07:31:58Z</time></trkpt>
			<trkpt lat="54.948670" lon="20.183170"><ele>21.1</ele><time>2026-07-15T07:32:00Z</time></trkpt>
			<trkpt lat="54.948570" lon="20.182980"><ele>20.6</ele><time>2026-07-15T07:32:03Z</time></trkpt>
			<trkpt lat="54.948460" lon="20.182830"><ele>20.2</ele><time>2026-07-15T07:32:05Z</time></trkpt>
			<trkpt lat="54.948320" lon="20.182710"><ele>19.9</ele><time>2026-07-15T07:32:08Z</time></trkpt>
			<trkpt lat="54.947270" lon="20.182100"><ele>21.9</ele><time>2026-07-15T07:32:10Z</time></trkpt>
			<trkpt lat="54.947280" lon="20.182050"><ele>21.9</ele><time>2026-07-15T07:32:13Z</time></trkpt>
			<trkpt lat="54.947290" lon="20.181990"><ele>21.9</ele><time>2026-07-15T07:32:15Z</time></trkpt>
			<trkpt lat="54.947280" lon="20.181930"><ele>21.9</ele><time>2026-07-15T07:32:18Z</time></trkpt>
			<trkpt lat="54.947260" lon="20.181870"><ele>21.8</ele><time>2026-07-15T07:32:20Z</time></trkpt>
			<trkpt lat="54.947230" lon="20.181820"><ele>21.8</ele><time>2026-07-15T07:32:23Z</time></trkpt>
			<trkpt lat="54.947200" lon="20.181800"><ele>21.8</ele><time>2026-07-15T07:32:25Z</time></trkpt>
			<trkpt lat="54.947160" lon="20.181800"><ele>21.8</ele><time>2026-07-15T07:32:27Z</time></trkpt>
			<trkpt lat="54.947180" lon="20.180900"><ele>19.5</ele><time>2026-07-15T07:32:30Z</time></trkpt>
			<trkpt lat="54.947210" lon="20.180580"><ele>18.9</ele><time>2026-07-15T07:32:32Z</time></trkpt>
			<trkpt lat="54.947250" lon="20.180230"><ele>18.6</ele><time>2026-07-15T07:32:35Z</time></trkpt>
			<trkpt lat="54.947330" lon="20.179830"><ele>18.5</ele><time>2026-07-15T07:32:37Z</time></trkpt>
			<trkpt lat="54.947430" lon="20.179540"><ele>18.9</ele><time>2026-07-15T07:32:40Z</time></trkpt>
			<trkpt lat="54.947330" lon="20.179450"><ele>19.1</ele><time>2026-07-15T07:32:42Z</time></trkpt>
			<trkpt lat="54.946880" lon="20.178900"><ele>19.1</ele><time>2026-07-15T07:32:45Z</time></trkpt>
			<trkpt lat="54.946190" lon="20.178000"><ele>20.6</ele><time>2026-07-15T07:32:47Z</time></trkpt>
			<trkpt lat="54.946130" lon="20.177920"><ele>20.7</ele><time>2026-07-15T07:32:50Z</time></trkpt>
			<trkpt lat="54.945990" lon="20.177600"><ele>21.1</ele><time>2026-07-15T07:32:52Z</time></trkpt>
			<trkpt lat="54.945800" lon="20.177090"><ele>21.8</ele><time>2026-07-15T07:32:54Z</time></trkpt>
			<trkpt lat="54.945390" lon="20.175940"><ele>22.0</ele><time>2026-07-15T07:32:57Z</time></trkpt>
			<trkpt lat="54.945130" lon="20.175210"><ele>22.1</ele><time>2026-07-15T07:32:59Z</time></trkpt>
			<trkpt lat="54.944570" lon="20.173720"><ele>22.5</ele><time>2026-07-15T07:33:02Z</time></trkpt>
			<trkpt lat="54.944300" lon="20.173010"><ele>21.6</ele><time>2026-07-15T07:33:04Z</time></trkpt>
			<trkpt lat="54.943960" lon="20.172120"><ele>18.4</ele><time>2026-07-15T07:33:07Z</time></trkpt>
			<trkpt lat="54.943480" lon="20.170860"><ele>16.3</ele><time>2026-07-15T07:33:09Z</time></trkpt>
			<trkpt lat="54.943460" lon="20.170800"><ele>16.3</ele><time>2026-07-15T07:33:12Z</time></trkpt>
			<trkpt lat="54.943300" lon="20.170460"><ele>16.0</ele><time>2026-07-15T07:33:14Z</time></trkpt>
			<trkpt lat="54.943280" lon="20.170370"><ele>15.8</ele><time>2026-07-15T07:33:17Z</time></trkpt>
			<trkpt lat="54.943270" lon="20.170220"><ele>15.6</ele><time>2026-07-15T07:33:19Z</time></trkpt>
			<trkpt lat="54.943290" lon="20.169990"><ele>15.5</ele><time>2026-07-15T07:33:21Z</time></trkpt>
			<trkpt lat="54.943340" lon="20.169720"><ele>15.9</ele><time>2026-07-15T07:33:24Z</time></trkpt>
			<trkpt lat="54.943340" lon="20.169470"><ele>16.3</ele><time>2026-07-15T07:33:26Z</time></trkpt>
			<trkpt lat="54.943340" lon="20.169470"><ele>16.3</ele><time>2026-07-15T07:33:36Z</time></trkpt>
			<trkpt lat="54.943350" lon="20.168910"><ele>17.8</ele><time>2026-07-15T07:33:45Z</time></trkpt>
			<trkpt lat="54.942850" lon="20.168090"><ele>21.2</ele><time>2026-07-15T07:33:54Z</time></trkpt>
			<trkpt lat="54.942840" lon="20.167790"><ele>23.7</ele><time>2026-07-15T07:34:04Z</time></trkpt>
			<trkpt lat="54.942690" lon="20.166750"><ele>35.6</ele><time>2026-07-15T07:34:13Z</time></trkpt>
			<trkpt lat="54.942680" lon="20.166390"><ele>38.2</ele><time>2026-07-15T07:34:23Z</time></trkpt>
			<trkpt lat="54.942970" lon="20.165210"><ele>42.1</ele><time>2026-07-15T07:34:32Z</time></trkpt>
			<trkpt lat="54.943100" lon="20.164730"><ele>42.5</ele><time>2026-07-15T07:34:41Z</time></trkpt>
			<trkpt lat="54.943130" lon="20.164590"><ele>42.7</ele><time>2026-07-15T07:34:51Z</time></trkpt>
			<trkpt lat="54.943130" lon="20.164590"><ele>42.7</ele><time>2026-07-15T07:34:56Z</time></trkpt>
			<trkpt lat="54.943380" lon="20.163520"><ele>44.6</ele><time>2026-07-15T07:35:01Z</time></trkpt>
			<trkpt lat="54.943520" lon="20.162970"><ele>45.6</ele><time>2026-07-15T07:35:06Z</time></trkpt>
			<trkpt lat="54.943600" lon="20.162510"><ele>46.1</ele><time>2026-07-15T07:35:11Z</time></trkpt>
			<trkpt lat="54.943630" lon="20.162290"><ele>46.1</ele><time>2026-07-15T07:35:16Z</time></trkpt>
			<trkpt lat="54.943670" lon="20.161860"><ele>45.9</ele><time>2026-07-15T07:35:21Z</time></trkpt>
			<trkpt lat="54.943690" lon="20.161770"><ele>45.9</ele><time>2026-07-15T07:35:26Z</time></trkpt>
			<trkpt lat="54.943830" lon="20.160820"><ele>45.6</ele><time>2026-07-15T07:35:31Z</time></trkpt>
			<trkpt lat="54.944010" lon="20.159820"><ele>45.4</ele><time>2026-07-15T07:35:36Z</time></trkpt>
			<trkpt lat="54.944030" lon="20.159730"><ele>45.5</ele><time>2026-07-15T07:35:41Z</time></trkpt>
			<trkpt lat="54.944080" lon="20.159440"><ele>45.6</ele><time>2026-07-15T07:35:46Z</time></trkpt>
			<trkpt lat="54.944140" lon="20.158910"><ele>45.8</ele><time>2026-07-15T07:35:51Z</time></trkpt>
			<trkpt lat="54.944120" lon="20.156430"><ele>44.7</ele><time>2026-07-15T07:35:56Z</time></trkpt>
			<trkpt lat="54.944090" lon="20.156000"><ele>44.1</ele><time>2026-07-15T07:36:01Z</time></trkpt>
			<trkpt lat="54.944090" lon="20.155830"><ele>44.0</ele><time>2026-07-15T07:36:06Z</time></trkpt>
			<trkpt lat="54.944060" lon="20.154570"><ele>43.2</ele><time>2026-07-15T07:36:11Z</time></trkpt>
			<trkpt lat="54.944060" lon="20.153280"><ele>41.9</ele><time>2026-07-15T07:36:16Z</time></trkpt>
			<trkpt lat="54.944060" lon="20.153150"><ele>42.0</ele><time>2026-07-15T07:36:21Z</time></trkpt>
			<trkpt lat="54.944070" lon="20.153010"><ele>42.1</ele><time>2026-07-15T07:36:26Z</time></trkpt>
			<trkpt lat="54.944080" lon="20.152720"><ele>42.4</ele><time>2026-07-15T07:36:31Z</time></trkpt>
			<trkpt lat="54.944140" lon="20.151470"><ele>42.7</ele><time>2026-07-15T07:36:36Z</time></trkpt>
			<trkpt lat="54.944150" lon="20.151130"><ele>42.3</ele><time>2026-07-15T07:36:41Z</time></trkpt>
			<trkpt lat="54.944150" lon="20.151130"><ele>42.3</ele><time>2026-07-15T07:36:54Z</time></trkpt>
			<trkpt lat="54.944160" lon="20.150890"><ele>42.1</ele><time>2026-07-15T07:37:07Z</time></trkpt>
			<trkpt lat="54.944200" lon="20.149630"><ele>44.2</ele><time>2026-07-15T07:37:20Z</time></trkpt>
			<trkpt lat="54.944190" lon="20.149180"><ele>44.8</ele><time>2026-07-15T07:37:33Z</time></trkpt>
			<trkpt lat="54.944080" lon="20.148400"><ele>44.9</ele><time>2026-07-15T07:37:46Z</time></trkpt>
			<trkpt lat="54.943970" lon="20.147450"><ele>43.7</ele><time>2026-07-15T07:37:59Z</time></trkpt>
			<trkpt lat="54.943720" lon="20.145580"><ele>42.7</ele><time>2026-07-15T07:38:12Z</time></trkpt>
			<trkpt lat="54.943380" lon="20.142750"><ele>41.5</ele><time>2026-07-15T07:38:25Z</time></trkpt>
			<trkpt lat="54.943280" lon="20.142160"><ele>41.1</ele><time>2026-07-15T07:38:38Z</time></trkpt>
			<trkpt lat="54.943090" lon="20.141260"><ele>40.2</ele><time>2026-07-15T07:38:51Z</time></trkpt>
			<trkpt lat="54.942140" lon="20.136920"><ele>36.8</ele><time>2026-07-15T07:39:03Z</time></trkpt>
			<trkpt lat="54.941910" lon="20.136060"><ele>37.3</ele><time>2026-07-15T07:39:16Z</time></trkpt>
			<trkpt lat="54.941760" lon="20.135590"><ele>37.6</ele><time>2026-07-15T07:39:29Z</time></trkpt>
			<trkpt lat="54.941780" lon="20.135420"><ele>37.7</ele><time>2026-07-15T07:39:42Z</time></trkpt>
			<trkpt lat="54.941810" lon="20.135240"><ele>37.7</ele><time>2026-07-15T07:39:55Z</time></trkpt>
			<trkpt lat="54.941870" lon="20.134910"><ele>37.5</ele><time>2026-07-15T07:40:08Z</time></trkpt>
			<trkpt lat="54.941870" lon="20.134800"><ele>37.5</ele><time>2026-07-15T07:40:21Z</time></trkpt>
			<trkpt lat="54.941870" lon="20.134800"><ele>37.5</ele><time>2026-07-15T07:40:26Z</time></trkpt>
			<trkpt lat="54.941870" lon="20.134600"><ele>37.5</ele><time>2026-07-15T07:40:31Z</time></trkpt>
			<trkpt lat="54.941860" lon="20.134410"><ele>37.5</ele><time>2026-07-15T07:40:36Z</time></trkpt>
			<trkpt lat="54.941750" lon="20.133920"><ele>38.0</ele><time>2026-07-15T07:40:41Z</time></trkpt>
			<trkpt lat="54.941220" lon="20.132070"><ele>39.2</ele><time>2026-07-15T07:40:46Z</time></trkpt>
			<trkpt lat="54.941140" lon="20.131790"><ele>39.3</ele><time>2026-07-15T07:40:51Z</time></trkpt>
			<trkpt lat="54.940750" lon="20.130420"><ele>42.1</ele><time>2026-07-15T07:40:56Z</time></trkpt>
			<trkpt lat="54.940430" lon="20.129230"><ele>43.4</ele><time>2026-07-15T07:41:01Z</time></trkpt>
			<trkpt lat="54.940300" lon="20.128700"><ele>43.2</ele><time>2026-07-15T07:41:06Z</time></trkpt>
			<trkpt lat="54.940230" lon="20.128440"><ele>43.0</ele><time>2026-07-15T07:41:11Z</time></trkpt>
			<trkpt lat="54.940160" lon="20.128090"><ele>43.0</ele><time>2026-07-15T07:41:15Z</time></trkpt>
			<trkpt lat="54.939980" lon="20.127290"><ele>43.9</ele><time>2026-07-15T07:41:20Z</time></trkpt>
			<trkpt lat="54.939930" lon="20.126950"><ele>45.4</ele><time>2026-07-15T07:41:25Z</time></trkpt>
			<trkpt lat="54.939820" lon="20.126170"><ele>49.5</ele><time>2026-07-15T07:41:30Z</time></trkpt>
			<trkpt lat="54.939720" lon="20.125380"><ele>53.0</ele><time>2026-07-15T07:41:35Z</time></trkpt>
			<trkpt lat="54.939540" lon="20.124800"><ele>54.9</ele><time>2026-07-15T07:41:40Z</time></trkpt>
			<trkpt lat="54.939220" lon="20.123800"><ele>55.6</ele><time>2026-07-15T07:41:45Z</time></trkpt>
			<trkpt lat="54.939100" lon="20.123090"><ele>55.4</ele><time>2026-07-15T07:41:50Z</time></trkpt>
			<trkpt lat="54.939030" lon="20.121850"><ele>55.4</ele><time>2026-07-15T07:41:55Z</time></trkpt>
			<trkpt lat="54.939070" lon="20.120820"><ele>54.8</ele><time>2026-07-15T07:42:00Z</time></trkpt>
			<trkpt lat="54.939310" lon="20.118770"><ele>50.1</ele><time>2026-07-15T07:42:05Z</time></trkpt>
			<trkpt lat="54.939460" lon="20.117830"><ele>47.2</ele><time>2026-07-15T07:42:10Z</time></trkpt>
			<trkpt lat="54.939700" lon="20.116930"><ele>43.5</ele><time>2026-07-15T07:42:15Z</time></trkpt>
			<trkpt lat="54.939760" lon="20.116810"><ele>42.9</ele><time>2026-07-15T07:42:20Z</time></trkpt>
			<trkpt lat="54.939850" lon="20.116610"><ele>41.8</ele><time>2026-07-15T07:42:25Z</time></trkpt>
			<trkpt lat="54.939920" lon="20.116400"><ele>41.3</ele><time>2026-07-15T07:42:30Z</time></trkpt>
			<trkpt lat="54.939950" lon="20.116200"><ele>40.8</ele><time>2026-07-15T07:42:35Z</time></trkpt>
			<trkpt lat="54.939970" lon="20.115480"><ele>41.4</ele><time>2026-07-15T07:42:39Z</time></trkpt>
			<trkpt lat="54.939990" lon="20.114850"><ele>43.1</ele><time>2026-07-15T07:42:44Z</time></trkpt>
			<trkpt lat="54.940010" lon="20.114520"><ele>43.5</ele><time>2026-07-15T07:42:49Z</time></trkpt>
			<trkpt lat="54.940100" lon="20.114190"><ele>44.0</ele><time>2026-07-15T07:42:54Z</time></trkpt>
			<trkpt lat="54.940310" lon="20.113500"><ele>45.6</ele><time>2026-07-15T07:42:59Z</time></trkpt>
			<trkpt lat="54.940490" lon="20.112840"><ele>47.0</ele><time>2026-07-15T07:43:04Z</time></trkpt>
			<trkpt lat="54.940620" lon="20.112440"><ele>47.2</ele><time>2026-07-15T07:43:09Z</time></trkpt>
			<trkpt lat="54.940660" lon="20.112120"><ele>46.4</ele><time>2026-07-15T07:43:14Z</time></trkpt>
			<trkpt lat="54.940700" lon="20.111670"><ele>45.4</ele><time>2026-07-15T07:43:19Z</time></trkpt>
			<trkpt lat="54.940760" lon="20.111140"><ele>44.6</ele><time>2026-07-15T07:43:24Z</time></trkpt>
			<trkpt lat="54.940800" lon="20.110720"><ele>44.3</ele><time>2026-07-15T07:43:29Z</time></trkpt>
			<trkpt lat="54.940860" lon="20.110080"><ele>44.9</ele><time>2026-07-15T07:43:34Z</time></trkpt>
			<trkpt lat="54.940890" lon="20.109850"><ele>45.3</ele><time>2026-07-15T07:43:39Z</time></trkpt>
			<trkpt lat="54.940980" lon="20.108860"><ele>47.1</ele><time>2026-07-15T07:43:44Z</time></trkpt>
			<trkpt lat="54.941060" lon="20.108010"><ele>48.4</ele><time>2026-07-15T07:43:49Z</time></trkpt>
			<trkpt lat="54.941110" lon="20.107390"><ele>49.2</ele><time>2026-07-15T07:43:54Z</time></trkpt>
			<trkpt lat="54.941150" lon="20.106880"><ele>49.9</ele><time>2026-07-15T07:43:59Z</time></trkpt>
			<trkpt lat="54.941220" lon="20.106050"><ele>50.1</ele><time>2026-07-15T07:44:03Z</time></trkpt>
			<trkpt lat="54.941230" lon="20.105940"><ele>50.1</ele><time>2026-07-15T07:44:08Z</time></trkpt>
			<trkpt lat="54.941340" lon="20.104640"><ele>50.5</ele><time>2026-07-15T07:44:13Z</time></trkpt>
			<trkpt lat="54.941380" lon="20.104150"><ele>50.9</ele><time>2026-07-15T07:44:18Z</time></trkpt>
			<trkpt lat="54.941490" lon="20.102710"><ele>51.2</ele><time>2026-07-15T07:44:23Z</time></trkpt>
			<trkpt lat="54.941600" lon="20.101280"><ele>50.6</ele><time>2026-07-15T07:44:28Z</time></trkpt>
			<trkpt lat="54.941610" lon="20.101150"><ele>50.8</ele><time>2026-07-15T07:44:33Z</time></trkpt>
			<trkpt lat="54.941780" lon="20.098440"><ele>55.8</ele><time>2026-07-15T07:44:38Z</time></trkpt>
			<trkpt lat="54.941790" lon="20.098170"><ele>56.0</ele><time>2026-07-15T07:44:43Z</time></trkpt>
			<trkpt lat="54.941780" lon="20.097870"><ele>56.0</ele><time>2026-07-15T07:44:48Z</time></trkpt>
			<trkpt lat="54.941780" lon="20.097730"><ele>56.0</ele><time>2026-07-15T07:44:53Z</time></trkpt>
			<trkpt lat="54.941740" lon="20.097140"><ele>56.0</ele><time>2026-07-15T07:44:58Z</time></trkpt>
			<trkpt lat="54.941630" lon="20.096550"><ele>56.0</ele><time>2026-07-15T07:45:03Z</time></trkpt>
			<trkpt lat="54.941330" lon="20.095170"><ele>56.3</ele><time>2026-07-15T07:45:08Z</time></trkpt>
			<trkpt lat="54.941070" lon="20.093960"><ele>58.2</ele><time>2026-07-15T07:45:13Z</time></trkpt>
			<trkpt lat="54.941000" lon="20.093650"><ele>58.5</ele><time>2026-07-15T07:45:18Z</time></trkpt>
			<trkpt lat="54.940910" lon="20.093390"><ele>58.6</ele><time>2026-07-15T07:45:23Z</time></trkpt>
			<trkpt lat="54.940270" lon="20.092120"><ele>57.9</ele><time>2026-07-15T07:45:27Z</time></trkpt>
			<trkpt lat="54.939940" lon="20.091450"><ele>57.9</ele><time>2026-07-15T07:45:32Z</time></trkpt>
			<trkpt lat="54.939820" lon="20.091030"><ele>57.8</ele><time>2026-07-15T07:45:37Z</time></trkpt>
			<trkpt lat="54.939710" lon="20.090470"><ele>57.7</ele><time>2026-07-15T07:45:42Z</time></trkpt>
			<trkpt lat="54.939630" lon="20.089810"><ele>57.3</ele><time>2026-07-15T07:45:47Z</time></trkpt>
			<trkpt lat="54.939610" lon="20.089300"><ele>57.0</ele><time>2026-07-15T07:45:52Z</time></trkpt>
			<trkpt lat="54.939620" lon="20.088930"><ele>57.1</ele><time>2026-07-15T07:45:57Z</time></trkpt>
			<trkpt lat="54.940080" lon="20.083960"><ele>54.6</ele><time>2026-07-15T07:46:02Z</time></trkpt>
			<trkpt lat="54.940090" lon="20.083850"><ele>54.6</ele><time>2026-07-15T07:46:07Z</time></trkpt>
			<trkpt lat="54.940140" lon="20.083630"><ele>54.4</ele><time>2026-07-15T07:46:12Z</time></trkpt>
			<trkpt lat="54.940210" lon="20.083460"><ele>54.2</ele><time>2026-07-15T07:46:17Z</time></trkpt>
			<trkpt lat="54.940290" lon="20.083330"><ele>54.1</ele><time>2026-07-15T07:46:22Z</time></trkpt>
			<trkpt lat="54.940690" lon="20.082760"><ele>53.9</ele><time>2026-07-15T07:46:27Z</time></trkpt>
			<trkpt lat="54.941120" lon="20.082200"><ele>53.1</ele><time>2026-07-15T07:46:32Z</time></trkpt>
			<trkpt lat="54.942180" lon="20.081340"><ele>51.9</ele><time>2026-07-15T07:46:37Z</time></trkpt>
			<trkpt lat="54.942730" lon="20.080920"><ele>51.6</ele><time>2026-07-15T07:46:42Z</time></trkpt>
			<trkpt lat="54.942800" lon="20.080860"><ele>51.6</ele><time>2026-07-15T07:46:47Z</time></trkpt>
			<trkpt lat="54.943240" lon="20.080480"><ele>51.4</ele><time>2026-07-15T07:46:51Z</time></trkpt>
			<trkpt lat="54.943600" lon="20.079970"><ele>50.6</ele><time>2026-07-15T07:46:56Z</time></trkpt>
			<trkpt lat="54.943810" lon="20.079590"><ele>49.8</ele><time>2026-07-15T07:47:01Z</time></trkpt>
			<trkpt lat="54.944040" lon="20.078830"><ele>48.9</ele><time>2026-07-15T07:47:06Z</time></trkpt>
			<trkpt lat="54.944070" lon="20.078290"><ele>48.9</ele><time>2026-07-15T07:47:11Z</time></trkpt>
			<trkpt lat="54.944100" lon="20.077820"><ele>49.0</ele><time>2026-07-15T07:47:16Z</time></trkpt>
			<trkpt lat="54.944090" lon="20.077280"><ele>49.3</ele><time>2026-07-15T07:47:21Z</time></trkpt>
			<trkpt lat="54.944090" lon="20.076960"><ele>49.7</ele><time>2026-07-15T07:47:26Z</time></trkpt>
			<trkpt lat="54.943990" lon="20.075550"><ele>50.4</ele><time>2026-07-15T07:47:31Z</time></trkpt>
			<trkpt lat="54.943580" lon="20.069350"><ele>51.0</ele><time>2026-07-15T07:47:36Z</time></trkpt>
			<trkpt lat="54.943520" lon="20.068180"><ele>52.5</ele><time>2026-07-15T07:47:41Z</time></trkpt>
			<trkpt lat="54.943420" lon="20.066280"><ele>53.4</ele><time>2026-07-15T07:47:46Z</time></trkpt>
			<trkpt lat="54.943420" lon="20.066110"><ele>53.5</ele><time>2026-07-15T07:47:51Z</time></trkpt>
			<trkpt lat="54.943280" lon="20.063720"><ele>52.4</ele><time>2026-07-15T07:47:56Z</time></trkpt>
			<trkpt lat="54.943180" lon="20.062040"><ele>52.8</ele><time>2026-07-15T07:48:01Z</time></trkpt>
			<trkpt lat="54.943040" lon="20.059420"><ele>51.0</ele><time>2026-07-15T07:48:06Z</time></trkpt>
			<trkpt lat="54.943000" lon="20.058660"><ele>51.6</ele><time>2026-07-15T07:48:11Z</time></trkpt>
			<trkpt lat="54.942820" lon="20.055480"><ele>48.6</ele><time>2026-07-15T07:48:15Z</time></trkpt>
			<trkpt lat="54.942560" lon="20.050970"><ele>46.0</ele><time>2026-07-15T07:48:20Z</time></trkpt>
			<trkpt lat="54.942530" lon="20.050450"><ele>46.0</ele><time>2026-07-15T07:48:25Z</time></trkpt>
			<trkpt lat="54.942440" lon="20.048920"><ele>45.2</ele><time>2026-07-15T07:48:30Z</time></trkpt>
			<trkpt lat="54.942370" lon="20.047680"><ele>45.2</ele><time>2026-07-15T07:48:35Z</time></trkpt>
			<trkpt lat="54.942300" lon="20.046400"><ele>46.1</ele><time>2026-07-15T07:48:40Z</time></trkpt>
			<trkpt lat="54.942150" lon="20.043790"><ele>46.9</ele><time>2026-07-15T07:48:45Z</time></trkpt>
			<trkpt lat="54.942100" lon="20.043030"><ele>47.3</ele><time>2026-07-15T07:48:50Z</time></trkpt>
			<trkpt lat="54.942060" lon="20.042450"><ele>47.0</ele><time>2026-07-15T07:48:55Z</time></trkpt>
			<trkpt lat="54.942000" lon="20.041150"><ele>46.6</ele><time>2026-07-15T07:49:00Z</time></trkpt>
			<trkpt lat="54.941950" lon="20.040200"><ele>47.2</ele><time>2026-07-15T07:49:05Z</time></trkpt>
			<trkpt lat="54.941940" lon="20.040020"><ele>47.3</ele><time>2026-07-15T07:49:10Z</time></trkpt>
			<trkpt lat="54.941890" lon="20.039330"><ele>48.0</ele><time>2026-07-15T07:49:15Z</time></trkpt>
			<trkpt lat="54.941760" lon="20.038680"><ele>48.1</ele><time>2026-07-15T07:49:20Z</time></trkpt>
			<trkpt lat="54.941460" lon="20.037330"><ele>47.1</ele><time>2026-07-15T07:49:25Z</time></trkpt>
			<trkpt lat="54.941210" lon="20.036080"><ele>47.2</ele><time>2026-07-15T07:49:30Z</time></trkpt>
			<trkpt lat="54.940660" lon="20.033640"><ele>47.8</ele><time>2026-07-15T07:49:35Z</time></trkpt>
			<trkpt lat="54.940390" lon="20.032260"><ele>48.3</ele><time>2026-07-15T07:49:39Z</time></trkpt>
			<trkpt lat="54.940130" lon="20.030930"><ele>48.6</ele><time>2026-07-15T07:49:44Z</time></trkpt>
			<trkpt lat="54.939960" lon="20.030430"><ele>48.5</ele><time>2026-07-15T07:49:49Z</time></trkpt>
			<trkpt lat="54.938990" lon="20.028300"><ele>46.9</ele><time>2026-07-15T07:49:54Z</time></trkpt>
			<trkpt lat="54.938790" lon="20.027870"><ele>47.1</ele><time>2026-07-15T07:49:59Z</time></trkpt>
			<trkpt lat="54.938110" lon="20.026420"><ele>46.3</ele><time>2026-07-15T07:50:04Z</time></trkpt>
			<trkpt lat="54.938200" lon="20.025790"><ele>45.4</ele><time>2026-07-15T07:50:09Z</time></trkpt>
			<trkpt lat="54.938270" lon="20.025400"><ele>45.1</ele><time>2026-07-15T07:50:14Z</time></trkpt>
			<trkpt lat="54.938270" lon="20.025400"><ele>45.1</ele><time>2026-07-15T07:50:18Z</time></trkpt>
			<trkpt lat="54.939920" lon="20.016080"><ele>42.9</ele><time>2026-07-15T07:50:22Z</time></trkpt>
			<trkpt lat="54.940570" lon="20.012480"><ele>37.4</ele><time>2026-07-15T07:50:26Z</time></trkpt>
			<trkpt lat="54.940700" lon="20.011900"><ele>37.2</ele><time>2026-07-15T07:50:30Z</time></trkpt>
			<trkpt lat="54.940820" lon="20.011480"><ele>37.3</ele><time>2026-07-15T07:50:34Z</time></trkpt>
			<trkpt lat="54.941090" lon="20.010830"><ele>37.2</ele><time>2026-07-15T07:50:38Z</time></trkpt>
			<trkpt lat="54.941450" lon="20.010200"><ele>35.7</ele><time>2026-07-15T07:50:42Z</time></trkpt>
			<trkpt lat="54.942160" lon="20.009400"><ele>31.7</ele><time>2026-07-15T07:50:47Z</time></trkpt>
			<trkpt lat="54.942360" lon="20.009110"><ele>31.2</ele><time>2026-07-15T07:50:51Z</time></trkpt>
			<trkpt lat="54.942470" lon="20.008850"><ele>31.5</ele><time>2026-07-15T07:50:55Z</time></trkpt>
			<trkpt lat="54.942530" lon="20.008560"><ele>32.0</ele><time>2026-07-15T07:50:59Z</time></trkpt>
			<trkpt lat="54.942610" lon="20.008010"><ele>32.9</ele><time>2026-07-15T07:51:03Z</time></trkpt>
			<trkpt lat="54.942620" lon="20.007960"><ele>32.9</ele><time>2026-07-15T07:51:07Z</time></trkpt>
			<trkpt lat="54.942640" lon="20.007940"><ele>32.9</ele><time>2026-07-15T07:51:11Z</time></trkpt>
			<trkpt lat="54.942670" lon="20.007910"><ele>32.8</ele><time>2026-07-15T07:51:15Z</time></trkpt>
			<trkpt lat="54.942730" lon="20.007930"><ele>32.8</ele><time>2026-07-15T07:51:19Z</time></trkpt>
			<trkpt lat="54.942780" lon="20.007990"><ele>32.8</ele><time>2026-07-15T07:51:23Z</time></trkpt>
			<trkpt lat="54.943070" lon="20.008440"><ele>32.0</ele><time>2026-07-15T07:51:27Z</time></trkpt>
			<trkpt lat="54.943320" lon="20.008790"><ele>30.9</ele><time>2026-07-15T07:51:31Z</time></trkpt>
			<trkpt lat="54.943480" lon="20.009030"><ele>30.2</ele><time>2026-07-15T07:51:35Z</time></trkpt>
			<trkpt lat="54.943640" lon="20.009170"><ele>29.7</ele><time>2026-07-15T07:51:39Z</time></trkpt>
			<trkpt lat="54.943840" lon="20.009170"><ele>29.4</ele><time>2026-07-15T07:51:43Z</time></trkpt>
			<trkpt lat="54.944070" lon="20.009140"><ele>29.2</ele><time>2026-07-15T07:51:48Z</time></trkpt>
			<trkpt lat="54.944360" lon="20.009270"><ele>29.4</ele><time>2026-07-15T07:51:52Z</time></trkpt>
			<trkpt lat="54.944500" lon="20.009380"><ele>29.6</ele><time>2026-07-15T07:51:56Z</time></trkpt>
			<trkpt lat="54.944770" lon="20.009230"><ele>29.8</ele><time>2026-07-15T07:52:00Z</time></trkpt>
			<trkpt lat="54.945040" lon="20.009050"><ele>30.1</ele><time>2026-07-15T07:52:04Z</time></trkpt>
			<trkpt lat="54.945480" lon="20.008640"><ele>31.0</ele><time>2026-07-15T07:52:08Z</time></trkpt>
			<trkpt lat="54.945800" lon="20.008070"><ele>31.4</ele><time>2026-07-15T07:52:12Z</time></trkpt>
			<trkpt lat="54.945970" lon="20.007050"><ele>31.9</ele><time>2026-07-15T07:52:16Z</time></trkpt>
			<trkpt lat="54.946210" lon="20.005560"><ele>33.5</ele><time>2026-07-15T07:52:20Z</time></trkpt>
			<trkpt lat="54.946610" lon="20.004380"><ele>31.6</ele><time>2026-07-15T07:52:24Z</time></trkpt>
			<trkpt lat="54.946650" lon="20.003700"><ele>31.6</ele><time>2026-07-15T07:52:28Z</time></trkpt>
			<trkpt lat="54.946740" lon="20.003240"><ele>32.0</ele><time>2026-07-15T07:52:32Z</time></trkpt>
			<trkpt lat="54.948020" lon="19.999450"><ele>36.1</ele><time>2026-07-15T07:52:36Z</time></trkpt>
			<trkpt lat="54.948230" lon="19.998840"><ele>37.3</ele><time>2026-07-15T07:52:40Z</time></trkpt>
			<trkpt lat="54.948480" lon="19.998080"><ele>39.4</ele><time>2026-07-15T07:52:44Z</time></trkpt>
			<trkpt lat="54.948660" lon="19.997460"><ele>40.2</ele><time>2026-07-15T07:52:48Z</time></trkpt>
			<trkpt lat="54.949070" lon="19.996000"><ele>39.4</ele><time>2026-07-15T07:52:53Z</time></trkpt>
			<trkpt lat="54.949390" lon="19.994940"><ele>38.0</ele><time>2026-07-15T07:52:57Z</time></trkpt>
			<trkpt lat="54.949460" lon="19.994750"><ele>38.0</ele><time>2026-07-15T07:53:01Z</time></trkpt>
			<trkpt lat="54.949990" lon="19.993380"><ele>38.9</ele><time>2026-07-15T07:53:05Z</time></trkpt>
			<trkpt lat="54.950110" lon="19.993070"><ele>39.1</ele><time>2026-07-15T07:53:09Z</time></trkpt>
			<trkpt lat="54.950180" lon="19.992730"><ele>39.3</ele><time>2026-07-15T07:53:13Z</time></trkpt>
			<trkpt lat="54.950150" lon="19.992450"><ele>39.3</ele><time>2026-07-15T07:53:17Z</time></trkpt>
			<trkpt lat="54.949700" lon="19.990610"><ele>38.6</ele><time>2026-07-15T07:53:21Z</time></trkpt>
			<trkpt lat="54.949280" lon="19.987900"><ele>37.7</ele><time>2026-07-15T07:53:25Z</time></trkpt>
			<trkpt lat="54.948510" lon="19.983180"><ele>41.0</ele><time>2026-07-15T07:53:29Z</time></trkpt>
			<trkpt lat="54.948510" lon="19.983180"><ele>41.0</ele><time>2026-07-15T07:53:34Z</time></trkpt>
			<trkpt lat="54.948450" lon="19.982770"><ele>40.9</ele><time>2026-07-15T07:53:39Z</time></trkpt>
			<trkpt lat="54.948350" lon="19.982370"><ele>40.9</ele><time>2026-07-15T07:53:44Z</time></trkpt>
			<trkpt lat="54.948160" lon="19.982210"><ele>40.9</ele><time>2026-07-15T07:53:49Z</time></trkpt>
			<trkpt lat="54.947810" lon="19.981970"><ele>41.4</ele><time>2026-07-15T07:53:54Z</time></trkpt>
			<trkpt lat="54.947340" lon="19.981650"><ele>42.0</ele><time>2026-07-15T07:53:59Z</time></trkpt>
			<trkpt lat="54.946200" lon="19.981020"><ele>43.0</ele><time>2026-07-15T07:54:04Z</time></trkpt>
			<trkpt lat="54.945690" lon="19.980860"><ele>43.8</ele><time>2026-07-15T07:54:09Z</time></trkpt>
			<trkpt lat="54.944380" lon="19.981080"><ele>41.5</ele><time>2026-07-15T07:54:13Z</time></trkpt>
			<trkpt lat="54.944130" lon="19.981080"><ele>41.0</ele><time>2026-07-15T07:54:18Z</time></trkpt>
			<trkpt lat="54.943930" lon="19.981040"><ele>40.7</ele><time>2026-07-15T07:54:23Z</time></trkpt>
			<trkpt lat="54.943450" lon="19.980720"><ele>40.3</ele><time>2026-07-15T07:54:28Z</time></trkpt>
			<trkpt lat="54.941250" lon="19.979270"><ele>39.0</ele><time>2026-07-15T07:54:33Z</time></trkpt>
			<trkpt lat="54.939300" lon="19.978000"><ele>38.5</ele><time>2026-07-15T07:54:38Z</time></trkpt>
			<trkpt lat="54.939140" lon="19.977730"><ele>38.2</ele><time>2026-07-15T07:54:43Z</time></trkpt>
			<trkpt lat="54.938950" lon="19.976700"><ele>37.3</ele><time>2026-07-15T07:54:48Z</time></trkpt>
			<trkpt lat="54.938630" lon="19.975070"><ele>36.5</ele><time>2026-07-15T07:54:53Z</time></trkpt>
			<trkpt lat="54.938550" lon="19.974710"><ele>35.9</ele><time>2026-07-15T07:54:58Z</time></trkpt>
			<trkpt lat="54.938530" lon="19.974580"><ele>35.7</ele><time>2026-07-15T07:55:03Z</time></trkpt>
			<trkpt lat="54.938440" lon="19.974130"><ele>35.2</ele><time>2026-07-15T07:55:08Z</time></trkpt>
			<trkpt lat="54.938250" lon="19.973120"><ele>35.3</ele><time>2026-07-15T07:55:13Z</time></trkpt>
			<trkpt lat="54.938180" lon="19.972650"><ele>35.9</ele><time>2026-07-15T07:55:17Z</time></trkpt>
			<trkpt lat="54.938110" lon="19.972060"><ele>36.9</ele><time>2026-07-15T07:55:22Z</time></trkpt>
			<trkpt lat="54.938110" lon="19.971450"><ele>37.9</ele><time>2026-07-15T07:55:27Z</time></trkpt>
			<trkpt lat="54.938120" lon="19.971240"><ele>38.2</ele><time>2026-07-15T07:55:32Z</time></trkpt>
			<trkpt lat="54.938340" lon="19.969450"><ele>39.0</ele><time>2026-07-15T07:55:37Z</time></trkpt>
			<trkpt lat="54.938420" lon="19.968860"><ele>39.1</ele><time>2026-07-15T07:55:42Z</time></trkpt>
			<trkpt lat="54.938430" lon="19.968770"><ele>39.1</ele><time>2026-07-15T07:55:47Z</time></trkpt>
			<trkpt lat="54.938440" lon="19.968740"><ele>39.1</ele><time>2026-07-15T07:55:52Z</time></trkpt>
			<trkpt lat="54.938470" lon="19.968470"><ele>39.2</ele><time>2026-07-15T07:55:57Z</time></trkpt>
			<trkpt lat="54.938800" lon="19.966200"><ele>40.2</ele><time>2026-07-15T07:56:02Z</time></trkpt>
			<trkpt lat="54.938840" lon="19.966030"><ele>40.9</ele><time>2026-07-15T07:56:07Z</time></trkpt>
			<trkpt lat="54.938620" lon="19.965890"><ele>40.8</ele><time>2026-07-15T07:56:12Z</time></trkpt>
			<trkpt lat="54.938360" lon="19.965740"><ele>40.2</ele><time>2026-07-15T07:56:17Z</time></trkpt>
			<trkpt lat="54.937670" lon="19.965320"><ele>38.2</ele><time>2026-07-15T07:56:22Z</time></trkpt>
			<trkpt lat="54.937370" lon="19.965530"><ele>37.5</ele><time>2026-07-15T07:56:26Z</time></trkpt>
			<trkpt lat="54.936980" lon="19.965850"><ele>37.7</ele><time>2026-07-15T07:56:31Z</time></trkpt>
			<trkpt lat="54.936630" lon="19.965870"><ele>37.8</ele><time>2026-07-15T07:56:36Z</time></trkpt>
			<trkpt lat="54.936190" lon="19.965660"><ele>37.4</ele><time>2026-07-15T07:56:41Z</time></trkpt>
			<trkpt lat="54.936030" lon="19.965680"><ele>37.2</ele><time>2026-07-15T07:56:46Z</time></trkpt>
			<trkpt lat="54.935820" lon="19.965610"><ele>37.0</ele><time>2026-07-15T07:56:51Z</time></trkpt>
			<trkpt lat="54.935050" lon="19.965320"><ele>36.6</ele><time>2026-07-15T07:56:56Z</time></trkpt>
			<trkpt lat="54.934580" lon="19.965060"><ele>36.9</ele><time>2026-07-15T07:57:01Z</time></trkpt>
			<trkpt lat="54.933870" lon="19.964580"><ele>35.2</ele><time>2026-07-15T07:57:06Z</time></trkpt>
			<trkpt lat="54.933560" lon="19.964550"><ele>34.2</ele><time>2026-07-15T07:57:11Z</time></trkpt>
			<trkpt lat="54.933380" lon="19.964540"><ele>33.7</ele><time>2026-07-15T07:57:16Z</time></trkpt>
			<trkpt lat="54.931510" lon="19.964390"><ele>32.6</ele><time>2026-07-15T07:57:21Z</time></trkpt>
			<trkpt lat="54.931340" lon="19.964390"><ele>32.1</ele><time>2026-07-15T07:57:26Z</time></trkpt>
			<trkpt lat="54.931180" lon="19.964360"><ele>31.7</ele><time>2026-07-15T07:57:31Z</time></trkpt>
			<trkpt lat="54.930080" lon="19.963950"><ele>30.4</ele><time>2026-07-15T07:57:35Z</time></trkpt>
			<trkpt lat="54.929570" lon="19.963750"><ele>30.5</ele><time>2026-07-15T07:57:40Z</time></trkpt>
			<trkpt lat="54.928980" lon="19.963540"><ele>30.8</ele><time>2026-07-15T07:57:45Z</time></trkpt>
			<trkpt lat="54.928390" lon="19.963330"><ele>31.0</ele><time>2026-07-15T07:57:50Z</time></trkpt>
			<trkpt lat="54.927960" lon="19.963170"><ele>31.9</ele><time>2026-07-15T07:57:55Z</time></trkpt>
			<trkpt lat="54.927790" lon="19.963100"><ele>32.3</ele><time>2026-07-15T07:58:00Z</time></trkpt>
			<trkpt lat="54.927430" lon="19.962960"><ele>33.0</ele><time>2026-07-15T07:58:05Z</time></trkpt>
			<trkpt lat="54.927210" lon="19.962860"><ele>33.3</ele><time>2026-07-15T07:58:10Z</time></trkpt>
			<trkpt lat="54.926720" lon="19.962670"><ele>33.9</ele><time>2026-07-15T07:58:15Z</time></trkpt>
			<trkpt lat="54.926620" lon="19.962640"><ele>34.0</ele><time>2026-07-15T07:58:20Z</time></trkpt>
			<trkpt lat="54.926440" lon="19.962650"><ele>34.0</ele><time>2026-07-15T07:58:25Z</time></trkpt>
			<trkpt lat="54.926080" lon="19.962790"><ele>34.0</ele><time>2026-07-15T07:58:30Z</time></trkpt>
			<trkpt lat="54.925950" lon="19.962870"><ele>34.0</ele><time>2026-07-15T07:58:35Z</time></trkpt>
			<trkpt lat="54.925640" lon="19.963020"><ele>34.0</ele><time>2026-07-15T07:58:39Z</time></trkpt>
			<trkpt lat="54.925240" lon="19.963230"><ele>34.0</ele><time>2026-07-15T07:58:44Z</time></trkpt>
			<trkpt lat="54.925030" lon="19.963330"><ele>34.0</ele><time>2026-07-15T07:58:49Z</time></trkpt>
			<trkpt lat="54.924540" lon="19.963550"><ele>34.1</ele><time>2026-07-15T07:58:54Z</time></trkpt>
			<trkpt lat="54.924080" lon="19.963730"><ele>34.2</ele><time>2026-07-15T07:58:59Z</time></trkpt>
			<trkpt lat="54.923830" lon="19.963720"><ele>34.6</ele><time>2026-07-15T07:59:04Z</time></trkpt>
			<trkpt lat="54.922190" lon="19.962840"><ele>38.1</ele><time>2026-07-15T07:59:09Z</time></trkpt>
			<trkpt lat="54.922190" lon="19.962840"><ele>38.1</ele><time>2026-07-15T07:59:15Z</time></trkpt>
			<trkpt lat="54.920900" lon="19.962140"><ele>39.3</ele><time>2026-07-15T07:59:20Z</time></trkpt>
			<trkpt lat="54.917300" lon="19.960240"><ele>42.2</ele><time>2026-07-15T07:59:26Z</time></trkpt>
			<trkpt lat="54.917010" lon="19.960190"><ele>42.6</ele><time>2026-07-15T07:59:31Z</time></trkpt>
			<trkpt lat="54.915600" lon="19.960640"><ele>42.4</ele><time>2026-07-15T07:59:37Z</time></trkpt>
			<trkpt lat="54.915230" lon="19.960680"><ele>41.9</ele><time>2026-07-15T07:59:42Z</time></trkpt>
			<trkpt lat="54.914470" lon="19.960450"><ele>41.4</ele><time>2026-07-15T07:59:48Z</time></trkpt>
			<trkpt lat="54.914280" lon="19.960380"><ele>41.4</ele><time>2026-07-15T07:59:53Z</time></trkpt>
			<trkpt lat="54.913750" lon="19.960210"><ele>41.1</ele><time>2026-07-15T07:59:59Z</time></trkpt>
			<trkpt lat="54.912850" lon="19.959970"><ele>40.4</ele><time>2026-07-15T08:00:04Z</time></trkpt>
			<trkpt lat="54.912730" lon="19.959940"><ele>40.2</ele><time>2026-07-15T08:00:10Z</time></trkpt>
			<trkpt lat="54.910390" lon="19.959970"><ele>39.0</ele><time>2026-07-15T08:00:15Z</time></trkpt>
			<trkpt lat="54.909920" lon="19.959960"><ele>39.8</ele><time>2026-07-15T08:00:21Z</time></trkpt>
			<trkpt lat="54.907560" lon="19.959670"><ele>43.4</ele><time>2026-07-15T08:00:26Z</time></trkpt>
			<trkpt lat="54.905970" lon="19.959370"><ele>45.4</ele><time>2026-07-15T08:00:32Z</time></trkpt>
			<trkpt lat="54.905610" lon="19.959220"><ele>44.8</ele><time>2026-07-15T08:00:37Z</time></trkpt>
			<trkpt lat="54.905010" lon="19.958850"><ele>43.3</ele><time>2026-07-15T08:00:43Z</time></trkpt>
			<trkpt lat="54.904650" lon="19.958540"><ele>42.3</ele><time>2026-07-15T08:00:48Z</time></trkpt>
			<trkpt lat="54.904120" lon="19.957900"><ele>41.8</ele><time>2026-07-15T08:00:54Z</time></trkpt>
			<trkpt lat="54.903700" lon="19.957340"><ele>41.0</ele><time>2026-07-15T08:01:00Z</time></trkpt>
			<trkpt lat="54.903590" lon="19.957210"><ele>40.9</ele><time>2026-07-15T08:01:05Z</time></trkpt>
			<trkpt lat="54.903300" lon="19.956530"><ele>40.8</ele><time>2026-07-15T08:01:11Z</time></trkpt>
			<trkpt lat="54.902300" lon="19.953520"><ele>37.6</ele><time>2026-07-15T08:01:16Z</time></trkpt>
			<trkpt lat="54.901850" lon="19.952260"><ele>36.5</ele><time>2026-07-15T08:01:22Z</time></trkpt>
			<trkpt lat="54.901220" lon="19.950930"><ele>34.6</ele><time>2026-07-15T08:01:27Z</time></trkpt>
			<trkpt lat="54.900880" lon="19.950390"><ele>33.6</ele><time>2026-07-15T08:01:33Z</time></trkpt>
			<trkpt lat="54.899960" lon="19.949480"><ele>32.4</ele><time>2026-07-15T08:01:38Z</time></trkpt>
			<trkpt lat="54.899360" lon="19.948950"><ele>31.4</ele><time>2026-07-15T08:01:44Z</time></trkpt>
			<trkpt lat="54.898940" lon="19.948590"><ele>30.3</ele><time>2026-07-15T08:01:49Z</time></trkpt>
			<trkpt lat="54.898010" lon="19.947990"><ele>28.4</ele><time>2026-07-15T08:01:55Z</time></trkpt>
			<trkpt lat="54.897610" lon="19.947850"><ele>28.0</ele><time>2026-07-15T08:02:00Z</time></trkpt>
			<trkpt lat="54.897100" lon="19.947710"><ele>27.2</ele><time>2026-07-15T08:02:06Z</time></trkpt>
			<trkpt lat="54.896130" lon="19.947620"><ele>26.9</ele><time>2026-07-15T08:02:11Z</time></trkpt>
			<trkpt lat="54.896020" lon="19.947590"><ele>27.0</ele><time>2026-07-15T08:02:17Z</time></trkpt>
			<trkpt lat="54.895800" lon="19.947440"><ele>27.2</ele><time>2026-07-15T08:02:22Z</time></trkpt>
			<trkpt lat="54.894940" lon="19.947300"><ele>28.7</ele><time>2026-07-15T08:02:28Z</time></trkpt>
			<trkpt lat="54.894830" lon="19.947150"><ele>28.6</ele><time>2026-07-15T08:02:33Z</time></trkpt>
			<trkpt lat="54.894820" lon="19.947010"><ele>28.4</ele><time>2026-07-15T08:02:39Z</time></trkpt>
			<trkpt lat="54.894830" lon="19.946830"><ele>28.2</ele><time>2026-07-15T08:02:44Z</time></trkpt>
			<trkpt lat="54.894850" lon="19.946740"><ele>28.1</ele><time>2026-07-15T08:02:50Z</time></trkpt>
			<trkpt lat="54.895010" lon="19.945910"><ele>27.2</ele><time>2026-07-15T08:02:56Z</time></trkpt>
			<trkpt lat="54.895040" lon="19.945780"><ele>27.1</ele><time>2026-07-15T08:03:01Z</time></trkpt>
			<trkpt lat="54.895090" lon="19.945500"><ele>26.9</ele><time>2026-07-15T08:03:07Z</time></trkpt>
			<trkpt lat="54.895090" lon="19.945500"><ele>26.9</ele><time>2026-07-15T08:03:11Z</time></trkpt>
			<trkpt lat="54.895120" lon="19.945350"><ele>26.8</ele><time>2026-07-15T08:03:16Z</time></trkpt>
			<trkpt lat="54.895320" lon="19.944690"><ele>26.8</ele><time>2026-07-15T08:03:21Z</time></trkpt>
			<trkpt lat="54.895780" lon="19.943120"><ele>28.9</ele><time>2026-07-15T08:03:26Z</time></trkpt>
			<trkpt lat="54.895780" lon="19.943090"><ele>28.9</ele><time>2026-07-15T08:03:31Z</time></trkpt>
			<trkpt lat="54.895860" lon="19.942440"><ele>28.7</ele><time>2026-07-15T08:03:35Z</time></trkpt>
			<trkpt lat="54.895900" lon="19.942030"><ele>28.3</ele><time>2026-07-15T08:03:40Z</time></trkpt>
			<trkpt lat="54.895920" lon="19.941660"><ele>27.7</ele><time>2026-07-15T08:03:45Z</time></trkpt>
			<trkpt lat="54.895850" lon="19.941310"><ele>27.1</ele><time>2026-07-15T08:03:50Z</time></trkpt>
			<trkpt lat="54.895810" lon="19.941170"><ele>26.8</ele><time>2026-07-15T08:03:55Z</time></trkpt>
			<trkpt lat="54.895740" lon="19.940950"><ele>26.4</ele><time>2026-07-15T08:03:59Z</time></trkpt>
			<trkpt lat="54.895350" lon="19.939700"><ele>25.9</ele><time>2026-07-15T08:04:04Z</time></trkpt>
			<trkpt lat="54.895220" lon="19.939580"><ele>26.2</ele><time>2026-07-15T08:04:09Z</time></trkpt>
			<trkpt lat="54.895110" lon="19.939510"><ele>26.4</ele><time>2026-07-15T08:04:14Z</time></trkpt>
			<trkpt lat="54.894030" lon="19.939470"><ele>28.1</ele><time>2026-07-15T08:04:19Z</time></trkpt>
			<trkpt lat="54.892250" lon="19.939390"><ele>28.4</ele><time>2026-07-15T08:04:23Z</time></trkpt>
			<trkpt lat="54.889560" lon="19.939180"><ele>33.0</ele><time>2026-07-15T08:04:28Z</time></trkpt>
			<trkpt lat="54.889430" lon="19.939120"><ele>33.0</ele><time>2026-07-15T08:04:33Z</time></trkpt>
			<trkpt lat="54.888440" lon="19.937690"><ele>30.0</ele><time>2026-07-15T08:04:38Z</time></trkpt>
			<trkpt lat="54.888350" lon="19.937630"><ele>29.9</ele><time>2026-07-15T08:04:43Z</time></trkpt>
			<trkpt lat="54.884280" lon="19.936900"><ele>23.6</ele><time>2026-07-15T08:04:47Z</time></trkpt>
			<trkpt lat="54.884210" lon="19.936890"><ele>23.6</ele><time>2026-07-15T08:04:52Z</time></trkpt>
			<trkpt lat="54.883850" lon="19.936820"><ele>23.7</ele><time>2026-07-15T08:04:57Z</time></trkpt>
			<trkpt lat="54.883740" lon="19.936800"><ele>23.6</ele><time>2026-07-15T08:05:02Z</time></trkpt>
			<trkpt lat="54.883430" lon="19.936040"><ele>20.7</ele><time>2026-07-15T08:05:07Z</time></trkpt>
			<trkpt lat="54.883280" lon="19.935730"><ele>19.2</ele><time>2026-07-15T08:05:12Z</time></trkpt>
			<trkpt lat="54.883130" lon="19.935570"><ele>18.4</ele><time>2026-07-15T08:05:16Z</time></trkpt>
			<trkpt lat="54.883010" lon="19.935490"><ele>18.7</ele><time>2026-07-15T08:05:21Z</time></trkpt>
			<trkpt lat="54.882500" lon="19.935590"><ele>21.4</ele><time>2026-07-15T08:05:26Z</time></trkpt>
			<trkpt lat="54.882300" lon="19.935590"><ele>21.5</ele><time>2026-07-15T08:05:31Z</time></trkpt>
			<trkpt lat="54.881650" lon="19.935630"><ele>21.0</ele><time>2026-07-15T08:05:36Z</time></trkpt>
			<trkpt lat="54.879280" lon="19.935780"><ele>20.9</ele><time>2026-07-15T08:05:40Z</time></trkpt>
			<trkpt lat="54.879240" lon="19.935790"><ele>20.9</ele><time>2026-07-15T08:05:45Z</time></trkpt>
			<trkpt lat="54.879140" lon="19.935980"><ele>21.2</ele><time>2026-07-15T08:05:50Z</time></trkpt>
			<trkpt lat="54.879070" lon="19.936160"><ele>21.4</ele><time>2026-07-15T08:05:55Z</time></trkpt>
			<trkpt lat="54.878980" lon="19.936380"><ele>21.7</ele><time>2026-07-15T08:06:00Z</time></trkpt>
			<trkpt lat="54.878790" lon="19.936810"><ele>21.7</ele><time>2026-07-15T08:06:04Z</time></trkpt>
			<trkpt lat="54.878610" lon="19.937120"><ele>21.4</ele><time>2026-07-15T08:06:09Z</time></trkpt>
			<trkpt lat="54.878440" lon="19.937360"><ele>20.9</ele><time>2026-07-15T08:06:14Z</time></trkpt>
			<trkpt lat="54.878300" lon="19.937520"><ele>20.4</ele><time>2026-07-15T08:06:19Z</time></trkpt>
			<trkpt lat="54.878180" lon="19.937550"><ele>19.9</ele><time>2026-07-15T08:06:24Z</time></trkpt>
			<trkpt lat="54.878010" lon="19.937520"><ele>18.6</ele><time>2026-07-15T08:06:28Z</time></trkpt>
			<trkpt lat="54.877930" lon="19.937500"><ele>18.1</ele><time>2026-07-15T08:06:33Z</time></trkpt>
			<trkpt lat="54.877870" lon="19.937490"><ele>17.6</ele><time>2026-07-15T08:06:38Z</time></trkpt>
			<trkpt lat="54.877660" lon="19.937490"><ele>16.1</ele><time>2026-07-15T08:06:43Z</time></trkpt>
			<trkpt lat="54.877390" lon="19.937520"><ele>14.9</ele><time>2026-07-15T08:06:48Z</time></trkpt>
			<trkpt lat="54.877290" lon="19.937560"><ele>14.8</ele><time>2026-07-15T08:06:52Z</time></trkpt>
			<trkpt lat="54.876940" lon="19.937800"><ele>14.9</ele><time>2026-07-15T08:06:57Z</time></trkpt>
			<trkpt lat="54.876800" lon="19.937830"><ele>15.0</ele><time>2026-07-15T08:07:02Z</time></trkpt>
			<trkpt lat="54.876690" lon="19.937820"><ele>15.0</ele><time>2026-07-15T08:07:07Z</time></trkpt>
			<trkpt lat="54.876590" lon="19.937750"><ele>14.9</ele><time>2026-07-15T08:07:12Z</time></trkpt>
			<trkpt lat="54.876110" lon="19.937410"><ele>15.4</ele><time>2026-07-15T08:07:16Z</time></trkpt>
			<trkpt lat="54.875980" lon="19.937350"><ele>15.7</ele><time>2026-07-15T08:07:21Z</time></trkpt>
			<trkpt lat="54.875780" lon="19.937240"><ele>16.4</ele><time>2026-07-15T08:07:26Z</time></trkpt>
			<trkpt lat="54.875680" lon="19.937200"><ele>16.8</ele><time>2026-07-15T08:07:31Z</time></trkpt>
			<trkpt lat="54.875450" lon="19.937210"><ele>17.8</ele><time>2026-07-15T08:07:36Z</time></trkpt>
			<trkpt lat="54.875070" lon="19.937280"><ele>19.8</ele><time>2026-07-15T08:07:40Z</time></trkpt>
			<trkpt lat="54.874170" lon="19.937440"><ele>21.7</ele><time>2026-07-15T08:07:45Z</time></trkpt>
			<trkpt lat="54.873870" lon="19.937510"><ele>21.6</ele><time>2026-07-15T08:07:50Z</time></trkpt>
			<trkpt lat="54.873780" lon="19.937540"><ele>21.5</ele><time>2026-07-15T08:07:55Z</time></trkpt>
			<trkpt lat="54.873310" lon="19.937650"><ele>21.0</ele><time>2026-07-15T08:08:00Z</time></trkpt>
			<trkpt lat="54.872770" lon="19.937780"><ele>20.6</ele><time>2026-07-15T08:08:05Z</time></trkpt>
			<trkpt lat="54.872680" lon="19.937800"><ele>20.5</ele><time>2026-07-15T08:08:09Z</time></trkpt>
			<trkpt lat="54.871520" lon="19.938070"><ele>21.9</ele><time>2026-07-15T08:08:14Z</time></trkpt>
			<trkpt lat="54.871480" lon="19.938080"><ele>21.9</ele><time>2026-07-15T08:08:19Z</time></trkpt>
			<trkpt lat="54.869680" lon="19.938530"><ele>24.6</ele><time>2026-07-15T08:08:24Z</time></trkpt>
			<trkpt lat="54.869070" lon="19.938660"><ele>26.7</ele><time>2026-07-15T08:08:29Z</time></trkpt>
			<trkpt lat="54.869260" lon="19.938930"><ele>27.5</ele><time>2026-07-15T08:08:33Z</time></trkpt>
			<trkpt lat="54.869260" lon="19.938930"><ele>27.5</ele><time>2026-07-15T08:08:39Z</time></trkpt>
			<trkpt lat="54.869530" lon="19.939310"><ele>27.7</ele><time>2026-07-15T08:08:45Z</time></trkpt>
			<trkpt lat="54.870430" lon="19.940630"><ele>26.3</ele><time>2026-07-15T08:08:51Z</time></trkpt>
			<trkpt lat="54.870680" lon="19.940990"><ele>26.8</ele><time>2026-07-15T08:08:57Z</time></trkpt>
			<trkpt lat="54.871020" lon="19.941480"><ele>28.0</ele><time>2026-07-15T08:09:03Z</time></trkpt>
			<trkpt lat="54.871210" lon="19.941760"><ele>28.2</ele><time>2026-07-15T08:09:09Z</time></trkpt>
			<trkpt lat="54.871900" lon="19.942840"><ele>29.0</ele><time>2026-07-15T08:09:15Z</time></trkpt>
			<trkpt lat="54.874240" lon="19.946280"><ele>34.6</ele><time>2026-07-15T08:09:21Z</time></trkpt>
			<trkpt lat="54.874410" lon="19.946590"><ele>33.9</ele><time>2026-07-15T08:09:26Z</time></trkpt>
			<trkpt lat="54.874420" lon="19.946750"><ele>33.6</ele><time>2026-07-15T08:09:32Z</time></trkpt>
			<trkpt lat="54.874410" lon="19.946940"><ele>33.4</ele><time>2026-07-15T08:09:38Z</time></trkpt>
			<trkpt lat="54.874360" lon="19.947330"><ele>33.9</ele><time>2026-07-15T08:09:44Z</time></trkpt>
			<trkpt lat="54.874320" lon="19.947560"><ele>34.2</ele><time>2026-07-15T08:09:50Z</time></trkpt>
			<trkpt lat="54.874310" lon="19.947800"><ele>34.6</ele><time>2026-07-15T08:09:56Z</time></trkpt>
			<trkpt lat="54.874320" lon="19.948160"><ele>35.2</ele><time>2026-07-15T08:10:02Z</time></trkpt>
			<trkpt lat="54.874380" lon="19.948500"><ele>35.5</ele><time>2026-07-15T08:10:08Z</time></trkpt>
			<trkpt lat="54.875090" lon="19.950020"><ele>35.2</ele><time>2026-07-15T08:10:14Z</time></trkpt>
			<trkpt lat="54.875260" lon="19.950400"><ele>34.4</ele><time>2026-07-15T08:10:20Z</time></trkpt>
			<trkpt lat="54.875420" lon="19.950890"><ele>34.1</ele><time>2026-07-15T08:10:26Z</time></trkpt>
			<trkpt lat="54.875700" lon="19.952100"><ele>34.6</ele><time>2026-07-15T08:10:31Z</time></trkpt>
			<trkpt lat="54.875940" lon="19.953220"><ele>35.9</ele><time>2026-07-15T08:10:37Z</time></trkpt>
			<trkpt lat="54.876910" lon="19.957640"><ele>36.8</ele><time>2026-07-15T08:10:43Z</time></trkpt>
			<trkpt lat="54.878330" lon="19.964140"><ele>37.0</ele><time>2026-07-15T08:10:49Z</time></trkpt>
			<trkpt lat="54.879210" lon="19.968460"><ele>38.1</ele><time>2026-07-15T08:10:55Z</time></trkpt>
			<trkpt lat="54.879350" lon="19.969040"><ele>38.2</ele><time>2026-07-15T08:11:01Z</time></trkpt>
			<trkpt lat="54.879430" lon="19.969250"><ele>38.0</ele><time>2026-07-15T08:11:07Z</time></trkpt>
			<trkpt lat="54.879520" lon="19.969440"><ele>37.8</ele><time>2026-07-15T08:11:13Z</time></trkpt>
			<trkpt lat="54.879580" lon="19.969530"><ele>37.7</ele><time>2026-07-15T08:11:19Z</time></trkpt>
			<trkpt lat="54.879770" lon="19.969770"><ele>37.1</ele><time>2026-07-15T08:11:25Z</time></trkpt>
			<trkpt lat="54.880160" lon="19.970070"><ele>36.6</ele><time>2026-07-15T08:11:30Z</time></trkpt>
			<trkpt lat="54.881880" lon="19.971430"><ele>36.5</ele><time>2026-07-15T08:11:36Z</time></trkpt>
			<trkpt lat="54.883460" lon="19.972840"><ele>34.9</ele><time>2026-07-15T08:11:42Z</time></trkpt>
			<trkpt lat="54.883930" lon="19.973230"><ele>34.4</ele><time>2026-07-15T08:11:48Z</time></trkpt>
			<trkpt lat="54.884010" lon="19.973310"><ele>34.3</ele><time>2026-07-15T08:11:54Z</time></trkpt>
			<trkpt lat="54.884150" lon="19.973530"><ele>34.3</ele><time>2026-07-15T08:12:00Z</time></trkpt>
			<trkpt lat="54.884900" lon="19.975590"><ele>34.2</ele><time>2026-07-15T08:12:06Z</time></trkpt>
			<trkpt lat="54.886990" lon="19.981910"><ele>36.2</ele><time>2026-07-15T08:12:12Z</time></trkpt>
			<trkpt lat="54.887450" lon="19.983260"><ele>37.2</ele><time>2026-07-15T08:12:18Z</time></trkpt>
			<trkpt lat="54.887620" lon="19.984010"><ele>37.8</ele><time>2026-07-15T08:12:24Z</time></trkpt>
			<trkpt lat="54.888150" lon="19.988300"><ele>41.2</ele><time>2026-07-15T08:12:30Z</time></trkpt>
			<trkpt lat="54.888490" lon="19.991210"><ele>43.5</ele><time>2026-07-15T08:12:35Z</time></trkpt>
			<trkpt lat="54.888540" lon="19.991520"><ele>43.6</ele><time>2026-07-15T08:12:41Z</time></trkpt>
			<trkpt lat="54.888660" lon="19.992140"><ele>43.8</ele><time>2026-07-15T08:12:47Z</time></trkpt>
			<trkpt lat="54.888780" lon="19.992630"><ele>44.1</ele><time>2026-07-15T08:12:53Z</time></trkpt>
			<trkpt lat="54.888950" lon="19.993150"><ele>44.7</ele><time>2026-07-15T08:12:59Z</time></trkpt>
			<trkpt lat="54.889270" lon="19.993980"><ele>45.3</ele><time>2026-07-15T08:13:05Z</time></trkpt>
			<trkpt lat="54.889630" lon="19.994870"><ele>46.4</ele><time>2026-07-15T08:13:11Z</time></trkpt>
			<trkpt lat="54.890090" lon="19.995950"><ele>46.0</ele><time>2026-07-15T08:13:17Z</time></trkpt>
			<trkpt lat="54.890210" lon="19.996240"><ele>45.8</ele><time>2026-07-15T08:13:23Z</time></trkpt>
			<trkpt lat="54.891590" lon="19.999220"><ele>47.1</ele><time>2026-07-15T08:13:29Z</time></trkpt>
			<trkpt lat="54.892500" lon="20.001290"><ele>51.1</ele><time>2026-07-15T08:13:34Z</time></trkpt>
			<trkpt lat="54.892750" lon="20.001860"><ele>52.2</ele><time>2026-07-15T08:13:40Z</time></trkpt>
			<trkpt lat="54.893780" lon="20.004250"><ele>53.6</ele><time>2026-07-15T08:13:46Z</time></trkpt>
			<trkpt lat="54.894330" lon="20.005530"><ele>54.6</ele><time>2026-07-15T08:13:52Z</time></trkpt>
			<trkpt lat="54.894580" lon="20.006220"><ele>54.7</ele><time>2026-07-15T08:13:58Z</time></trkpt>
			<trkpt lat="54.894690" lon="20.006620"><ele>54.4</ele><time>2026-07-15T08:14:04Z</time></trkpt>
			<trkpt lat="54.894790" lon="20.007170"><ele>53.5</ele><time>2026-07-15T08:14:10Z</time></trkpt>
			<trkpt lat="54.895020" lon="20.009230"><ele>55.0</ele><time>2026-07-15T08:14:16Z</time></trkpt>
			<trkpt lat="54.895790" lon="20.015990"><ele>60.1</ele><time>2026-07-15T08:14:22Z</time></trkpt>
			<trkpt lat="54.895920" lon="20.017220"><ele>61.6</ele><time>2026-07-15T08:14:28Z</time></trkpt>
			<trkpt lat="54.896000" lon="20.017680"><ele>61.9</ele><time>2026-07-15T08:14:33Z</time></trkpt>
			<trkpt lat="54.896120" lon="20.018430"><ele>61.5</ele><time>2026-07-15T08:14:39Z</time></trkpt>
			<trkpt lat="54.896190" lon="20.018740"><ele>61.0</ele><time>2026-07-15T08:14:45Z</time></trkpt>
			<trkpt lat="54.896140" lon="20.018840"><ele>60.8</ele><time>2026-07-15T08:14:51Z</time></trkpt>
			<trkpt lat="54.895910" lon="20.019360"><ele>60.6</ele><time>2026-07-15T08:14:57Z</time></trkpt>
			<trkpt lat="54.895870" lon="20.019440"><ele>60.5</ele><time>2026-07-15T08:15:03Z</time></trkpt>
			<trkpt lat="54.895690" lon="20.019940"><ele>59.5</ele><time>2026-07-15T08:15:09Z</time></trkpt>
			<trkpt lat="54.895620" lon="20.020140"><ele>58.7</ele><time>2026-07-15T08:15:15Z</time></trkpt>
			<trkpt lat="54.895490" lon="20.020450"><ele>57.4</ele><time>2026-07-15T08:15:21Z</time></trkpt>
			<trkpt lat="54.895390" lon="20.020630"><ele>56.7</ele><time>2026-07-15T08:15:27Z</time></trkpt>
			<trkpt lat="54.895490" lon="20.021140"><ele>55.6</ele><time>2026-07-15T08:15:33Z</time></trkpt>
			<trkpt lat="54.895660" lon="20.022030"><ele>54.0</ele><time>2026-07-15T08:15:38Z</time></trkpt>
			<trkpt lat="54.895770" lon="20.022590"><ele>53.1</ele><time>2026-07-15T08:15:44Z</time></trkpt>
			<trkpt lat="54.895800" lon="20.022810"><ele>52.9</ele><time>2026-07-15T08:15:50Z</time></trkpt>
			<trkpt lat="54.895130" lon="20.024270"><ele>51.2</ele><time>2026-07-15T08:15:56Z</time></trkpt>
			<trkpt lat="54.894890" lon="20.024840"><ele>50.2</ele><time>2026-07-15T08:16:02Z</time></trkpt>
			<trkpt lat="54.894770" lon="20.025130"><ele>50.0</ele><time>2026-07-15T08:16:08Z</time></trkpt>
			<trkpt lat="54.894590" lon="20.025850"><ele>50.0</ele><time>2026-07-15T08:16:14Z</time></trkpt>
			<trkpt lat="54.894130" lon="20.027600"><ele>47.8</ele><time>2026-07-15T08:16:20Z</time></trkpt>
			<trkpt lat="54.894000" lon="20.028160"><ele>47.1</ele><time>2026-07-15T08:16:26Z</time></trkpt>
			<trkpt lat="54.893700" lon="20.029630"><ele>48.0</ele><time>2026-07-15T08:16:32Z</time></trkpt>
			<trkpt lat="54.893640" lon="20.029860"><ele>48.6</ele><time>2026-07-15T08:16:37Z</time></trkpt>
			<trkpt lat="54.893210" lon="20.031750"><ele>51.2</ele><time>2026-07-15T08:16:43Z</time></trkpt>
			<trkpt lat="54.893190" lon="20.031840"><ele>51.3</ele><time>2026-07-15T08:16:49Z</time></trkpt>
			<trkpt lat="54.893190" lon="20.031840"><ele>51.3</ele><time>2026-07-15T08:16:55Z</time></trkpt>
			<trkpt lat="54.892710" lon="20.033980"><ele>52.0</ele><time>2026-07-15T08:17:01Z</time></trkpt>
			<trkpt lat="54.892350" lon="20.035550"><ele>50.8</ele><time>2026-07-15T08:17:07Z</time></trkpt>
			<trkpt lat="54.891990" lon="20.037200"><ele>52.6</ele><time>2026-07-15T08:17:13Z</time></trkpt>
			<trkpt lat="54.891890" lon="20.037650"><ele>52.9</ele><time>2026-07-15T08:17:19Z</time></trkpt>
			<trkpt lat="54.891400" lon="20.039840"><ele>53.2</ele><time>2026-07-15T08:17:24Z</time></trkpt>
			<trkpt lat="54.891250" lon="20.040470"><ele>52.9</ele><time>2026-07-15T08:17:30Z</time></trkpt>
			<trkpt lat="54.891090" lon="20.041300"><ele>53.3</ele><time>2026-07-15T08:17:36Z</time></trkpt>
			<trkpt lat="54.891000" lon="20.042010"><ele>53.3</ele><time>2026-07-15T08:17:42Z</time></trkpt>
			<trkpt lat="54.890900" lon="20.043180"><ele>53.3</ele><time>2026-07-15T08:17:48Z</time></trkpt>
			<trkpt lat="54.890790" lon="20.045120"><ele>55.1</ele><time>2026-07-15T08:17:54Z</time></trkpt>
			<trkpt lat="54.890770" lon="20.045540"><ele>56.9</ele><time>2026-07-15T08:18:00Z</time></trkpt>
			<trkpt lat="54.890770" lon="20.045660"><ele>57.4</ele><time>2026-07-15T08:18:05Z</time></trkpt>
			<trkpt lat="54.890850" lon="20.047160"><ele>59.9</ele><time>2026-07-15T08:18:11Z</time></trkpt>
			<trkpt lat="54.890940" lon="20.048100"><ele>59.0</ele><time>2026-07-15T08:18:17Z</time></trkpt>
			<trkpt lat="54.891010" lon="20.048890"><ele>58.0</ele><time>2026-07-15T08:18:23Z</time></trkpt>
			<trkpt lat="54.891730" lon="20.054820"><ele>59.3</ele><time>2026-07-15T08:18:29Z</time></trkpt>
			<trkpt lat="54.891910" lon="20.057290"><ele>60.4</ele><time>2026-07-15T08:18:35Z</time></trkpt>
			<trkpt lat="54.891930" lon="20.057640"><ele>60.1</ele><time>2026-07-15T08:18:41Z</time></trkpt>
			<trkpt lat="54.891940" lon="20.060820"><ele>59.4</ele><time>2026-07-15T08:18:46Z</time></trkpt>
			<trkpt lat="54.891660" lon="20.063510"><ele>60.3</ele><time>2026-07-15T08:18:52Z</time></trkpt>
			<trkpt lat="54.891530" lon="20.064670"><ele>61.3</ele><time>2026-07-15T08:18:58Z</time></trkpt>
			<trkpt lat="54.891180" lon="20.067380"><ele>66.7</ele><time>2026-07-15T08:19:04Z</time></trkpt>
			<trkpt lat="54.890910" lon="20.070300"><ele>61.4</ele><time>2026-07-15T08:19:10Z</time></trkpt>
			<trkpt lat="54.890910" lon="20.072070"><ele>59.7</ele><time>2026-07-15T08:19:16Z</time></trkpt>
			<trkpt lat="54.890930" lon="20.073720"><ele>56.5</ele><time>2026-07-15T08:19:22Z</time></trkpt>
			<trkpt lat="54.890940" lon="20.074240"><ele>54.8</ele><time>2026-07-15T08:19:27Z</time></trkpt>
			<trkpt lat="54.890960" lon="20.075100"><ele>51.8</ele><time>2026-07-15T08:19:33Z</time></trkpt>
			<trkpt lat="54.891180" lon="20.081940"><ele>48.5</ele><time>2026-07-15T08:19:39Z</time></trkpt>
			<trkpt lat="54.891200" lon="20.083430"><ele>48.7</ele><time>2026-07-15T08:19:45Z</time></trkpt>
			<trkpt lat="54.891200" lon="20.083620"><ele>48.9</ele><time>2026-07-15T08:19:51Z</time></trkpt>
			<trkpt lat="54.891180" lon="20.083940"><ele>48.8</ele><time>2026-07-15T08:19:57Z</time></trkpt>
			<trkpt lat="54.891050" lon="20.084700"><ele>48.5</ele><time>2026-07-15T08:20:03Z</time></trkpt>
			<trkpt lat="54.890850" lon="20.085890"><ele>49.8</ele><time>2026-07-15T08:20:08Z</time></trkpt>
			<trkpt lat="54.890650" lon="20.087280"><ele>47.7</ele><time>2026-07-15T08:20:14Z</time></trkpt>
			<trkpt lat="54.890430" lon="20.088710"><ele>45.1</ele><time>2026-07-15T08:20:20Z</time></trkpt>
			<trkpt lat="54.890330" lon="20.089420"><ele>43.5</ele><time>2026-07-15T08:20:26Z</time></trkpt>
			<trkpt lat="54.890150" lon="20.090790"><ele>41.8</ele><time>2026-07-15T08:20:32Z</time></trkpt>
			<trkpt lat="54.889970" lon="20.092230"><ele>43.8</ele><time>2026-07-15T08:20:38Z</time></trkpt>
			<trkpt lat="54.889750" lon="20.093740"><ele>46.0</ele><time>2026-07-15T08:20:44Z</time></trkpt>
			<trkpt lat="54.889420" lon="20.095590"><ele>45.1</ele><time>2026-07-15T08:20:49Z</time></trkpt>
			<trkpt lat="54.889220" lon="20.097200"><ele>43.1</ele><time>2026-07-15T08:20:55Z</time></trkpt>
			<trkpt lat="54.889130" lon="20.098010"><ele>44.1</ele><time>2026-07-15T08:21:01Z</time></trkpt>
			<trkpt lat="54.889070" lon="20.098670"><ele>45.7</ele><time>2026-07-15T08:21:07Z</time></trkpt>
			<trkpt lat="54.889070" lon="20.099070"><ele>46.5</ele><time>2026-07-15T08:21:13Z</time></trkpt>
			<trkpt lat="54.889190" lon="20.100080"><ele>48.1</ele><time>2026-07-15T08:21:19Z</time></trkpt>
			<trkpt lat="54.889430" lon="20.101550"><ele>49.5</ele><time>2026-07-15T08:21:25Z</time></trkpt>
			<trkpt lat="54.889650" lon="20.102750"><ele>49.7</ele><time>2026-07-15T08:21:30Z</time></trkpt>
			<trkpt lat="54.889820" lon="20.103720"><ele>50.5</ele><time>2026-07-15T08:21:36Z</time></trkpt>
			<trkpt lat="54.889970" lon="20.105250"><ele>52.0</ele><time>2026-07-15T08:21:42Z</time></trkpt>
			<trkpt lat="54.891870" lon="20.104990"><ele>54.0</ele><time>2026-07-15T08:21:48Z</time></trkpt>
			<trkpt lat="54.893780" lon="20.104720"><ele>56.0</ele><time>2026-07-15T08:21:54Z</time></trkpt>
			<trkpt lat="54.893840" lon="20.104990"><ele>56.3</ele><time>2026-07-15T08:22:00Z</time></trkpt>
			<trkpt lat="54.894810" lon="20.107500"><ele>61.1</ele><time>2026-07-15T08:22:06Z</time></trkpt>
			<trkpt lat="54.894840" lon="20.107580"><ele>61.3</ele><time>2026-07-15T08:22:11Z</time></trkpt>
			<trkpt lat="54.897210" lon="20.113690"><ele>57.7</ele><time>2026-07-15T08:22:17Z</time></trkpt>
			<trkpt lat="54.898520" lon="20.117040"><ele>56.2</ele><time>2026-07-15T08:22:23Z</time></trkpt>
			<trkpt lat="54.899590" lon="20.119820"><ele>59.4</ele><time>2026-07-15T08:22:29Z</time></trkpt>
			<trkpt lat="54.900160" lon="20.121410"><ele>60.8</ele><time>2026-07-15T08:22:35Z</time></trkpt>
			<trkpt lat="54.900280" lon="20.121840"><ele>61.2</ele><time>2026-07-15T08:22:41Z</time></trkpt>
			<trkpt lat="54.900420" lon="20.122600"><ele>61.1</ele><time>2026-07-15T08:22:47Z</time></trkpt>
			<trkpt lat="54.900550" lon="20.123200"><ele>60.0</ele><time>2026-07-15T08:22:52Z</time></trkpt>
			<trkpt lat="54.900910" lon="20.124200"><ele>58.9</ele><time>2026-07-15T08:22:58Z</time></trkpt>
			<trkpt lat="54.900950" lon="20.124370"><ele>58.8</ele><time>2026-07-15T08:23:04Z</time></trkpt>
			<trkpt lat="54.900980" lon="20.124510"><ele>58.7</ele><time>2026-07-15T08:23:10Z</time></trkpt>
			<trkpt lat="54.901010" lon="20.124710"><ele>58.6</ele><time>2026-07-15T08:23:16Z</time></trkpt>
			<trkpt lat="54.901090" lon="20.125440"><ele>58.7</ele><time>2026-07-15T08:23:22Z</time></trkpt>
			<trkpt lat="54.901120" lon="20.125700"><ele>58.8</ele><time>2026-07-15T08:23:28Z</time></trkpt>
			<trkpt lat="54.901220" lon="20.126420"><ele>58.9</ele><time>2026-07-15T08:23:33Z</time></trkpt>
			<trkpt lat="54.901290" lon="20.126730"><ele>59.0</ele><time>2026-07-15T08:23:39Z</time></trkpt>
			<trkpt lat="54.901550" lon="20.127370"><ele>59.1</ele><time>2026-07-15T08:23:45Z</time></trkpt>
			<trkpt lat="54.901680" lon="20.127670"><ele>59.2</ele><time>2026-07-15T08:23:51Z</time></trkpt>
			<trkpt lat="54.901840" lon="20.128040"><ele>59.5</ele><time>2026-07-15T08:23:57Z</time></trkpt>
			<trkpt lat="54.902710" lon="20.130120"><ele>59.6</ele><time>2026-07-15T08:24:03Z</time></trkpt>
			<trkpt lat="54.902840" lon="20.130430"><ele>59.4</ele><time>2026-07-15T08:24:09Z</time></trkpt>
			<trkpt lat="54.903710" lon="20.132440"><ele>60.3</ele><time>2026-07-15T08:24:15Z</time></trkpt>
			<trkpt lat="54.903960" lon="20.132950"><ele>60.7</ele><time>2026-07-15T08:24:20Z</time></trkpt>
			<trkpt lat="54.905230" lon="20.135160"><ele>62.5</ele><time>2026-07-15T08:24:26Z</time></trkpt>
			<trkpt lat="54.906470" lon="20.137330"><ele>61.2</ele><time>2026-07-15T08:24:32Z</time></trkpt>
			<trkpt lat="54.907540" lon="20.139230"><ele>60.0</ele><time>2026-07-15T08:24:38Z</time></trkpt>
			<trkpt lat="54.908210" lon="20.140400"><ele>61.7</ele><time>2026-07-15T08:24:44Z</time></trkpt>
			<trkpt lat="54.909010" lon="20.142560"><ele>61.2</ele><time>2026-07-15T08:24:50Z</time></trkpt>
			<trkpt lat="54.910560" lon="20.146870"><ele>66.6</ele><time>2026-07-15T08:24:56Z</time></trkpt>
			<trkpt lat="54.910700" lon="20.147250"><ele>68.5</ele><time>2026-07-15T08:25:01Z</time></trkpt>
			<trkpt lat="54.911830" lon="20.150330"><ele>61.5</ele><time>2026-07-15T08:25:07Z</time></trkpt>
			<trkpt lat="54.913910" lon="20.155880"><ele>50.7</ele><time>2026-07-15T08:25:13Z</time></trkpt>
			<trkpt lat="54.914460" lon="20.157340"><ele>50.0</ele><time>2026-07-15T08:25:19Z</time></trkpt>
			<trkpt lat="54.914640" lon="20.158140"><ele>49.1</ele><time>2026-07-15T08:25:25Z</time></trkpt>
			<trkpt lat="54.914920" lon="20.161280"><ele>51.3</ele><time>2026-07-15T08:25:31Z</time></trkpt>
			<trkpt lat="54.914920" lon="20.161310"><ele>51.3</ele><time>2026-07-15T08:25:37Z</time></trkpt>
			<trkpt lat="54.915450" lon="20.167130"><ele>60.8</ele><time>2026-07-15T08:25:42Z</time></trkpt>
			<trkpt lat="54.915520" lon="20.167910"><ele>61.3</ele><time>2026-07-15T08:25:48Z</time></trkpt>
			<trkpt lat="54.915550" lon="20.168220"><ele>61.6</ele><time>2026-07-15T08:25:54Z</time></trkpt>
			<trkpt lat="54.915580" lon="20.168520"><ele>61.9</ele><time>2026-07-15T08:26:00Z</time></trkpt>
			<trkpt lat="54.915710" lon="20.169060"><ele>62.6</ele><time>2026-07-15T08:26:06Z</time></trkpt>
			<trkpt lat="54.916030" lon="20.169910"><ele>63.4</ele><time>2026-07-15T08:26:12Z</time></trkpt>
			<trkpt lat="54.916090" lon="20.170230"><ele>63.3</ele><time>2026-07-15T08:26:18Z</time></trkpt>
			<trkpt lat="54.916310" lon="20.171390"><ele>62.0</ele><time>2026-07-15T08:26:23Z</time></trkpt>
			<trkpt lat="54.916360" lon="20.171670"><ele>61.8</ele><time>2026-07-15T08:26:29Z</time></trkpt>
			<trkpt lat="54.916590" lon="20.172860"><ele>61.6</ele><time>2026-07-15T08:26:35Z</time></trkpt>
			<trkpt lat="54.916670" lon="20.173140"><ele>61.8</ele><time>2026-07-15T08:26:41Z</time></trkpt>
			<trkpt lat="54.916860" lon="20.173500"><ele>61.9</ele><time>2026-07-15T08:26:47Z</time></trkpt>
			<trkpt lat="54.916950" lon="20.173570"><ele>61.9</ele><time>2026-07-15T08:26:53Z</time></trkpt>
			<trkpt lat="54.917010" lon="20.173560"><ele>61.9</ele><time>2026-07-15T08:26:59Z</time></trkpt>
			<trkpt lat="54.917170" lon="20.173570"><ele>61.8</ele><time>2026-07-15T08:27:04Z</time></trkpt>
			<trkpt lat="54.917270" lon="20.173610"><ele>61.7</ele><time>2026-07-15T08:27:10Z</time></trkpt>
			<trkpt lat="54.917360" lon="20.173670"><ele>61.6</ele><time>2026-07-15T08:27:16Z</time></trkpt>
			<trkpt lat="54.917480" lon="20.173870"><ele>61.2</ele><time>2026-07-15T08:27:22Z</time></trkpt>
			<trkpt lat="54.917650" lon="20.174400"><ele>60.0</ele><time>2026-07-15T08:27:28Z</time></trkpt>
			<trkpt lat="54.917710" lon="20.174500"><ele>59.7</ele><time>2026-07-15T08:27:34Z</time></trkpt>
			<trkpt lat="54.917910" lon="20.174620"><ele>58.8</ele><time>2026-07-15T08:27:40Z</time></trkpt>
			<trkpt lat="54.918000" lon="20.174690"><ele>58.4</ele><time>2026-07-15T08:27:45Z</time></trkpt>
			<trkpt lat="54.918820" lon="20.175490"><ele>53.7</ele><time>2026-07-15T08:27:51Z</time></trkpt>
			<trkpt lat="54.919060" lon="20.175760"><ele>52.5</ele><time>2026-07-15T08:27:57Z</time></trkpt>
			<trkpt lat="54.919730" lon="20.176580"><ele>51.3</ele><time>2026-07-15T08:28:03Z</time></trkpt>
			<trkpt lat="54.920260" lon="20.177300"><ele>50.8</ele><time>2026-07-15T08:28:09Z</time></trkpt>
			<trkpt lat="54.920530" lon="20.177610"><ele>51.1</ele><time>2026-07-15T08:28:15Z</time></trkpt>
			<trkpt lat="54.920740" lon="20.177820"><ele>51.4</ele><time>2026-07-15T08:28:21Z</time></trkpt>
			<trkpt lat="54.921760" lon="20.178820"><ele>50.8</ele><time>2026-07-15T08:28:26Z</time></trkpt>
			<trkpt lat="54.922030" lon="20.179110"><ele>50.2</ele><time>2026-07-15T08:28:32Z</time></trkpt>
			<trkpt lat="54.921460" lon="20.180250"><ele>49.7</ele><time>2026-07-15T08:28:38Z</time></trkpt>
			<trkpt lat="54.921460" lon="20.180250"><ele>49.7</ele><time>2026-07-15T08:28:44Z</time></trkpt>
			<trkpt lat="54.921270" lon="20.180680"><ele>49.4</ele><time>2026-07-15T08:28:49Z</time></trkpt>
			<trkpt lat="54.920800" lon="20.181840"><ele>48.8</ele><time>2026-07-15T08:28:54Z</time></trkpt>
			<trkpt lat="54.920160" lon="20.183560"><ele>45.1</ele><time>2026-07-15T08:29:00Z</time></trkpt>
			<trkpt lat="54.919680" lon="20.184640"><ele>43.5</ele><time>2026-07-15T08:29:05Z</time></trkpt>
			<trkpt lat="54.918640" lon="20.187060"><ele>40.2</ele><time>2026-07-15T08:29:11Z</time></trkpt>
			<trkpt lat="54.918110" lon="20.188140"><ele>39.5</ele><time>2026-07-15T08:29:16Z</time></trkpt>
			<trkpt lat="54.917640" lon="20.189370"><ele>40.6</ele><time>2026-07-15T08:29:22Z</time></trkpt>
			<trkpt lat="54.916930" lon="20.191430"><ele>40.9</ele><time>2026-07-15T08:29:27Z</time></trkpt>
			<trkpt lat="54.916380" lon="20.193040"><ele>39.0</ele><time>2026-07-15T08:29:33Z</time></trkpt>
			<trkpt lat="54.915890" lon="20.194430"><ele>39.0</ele><time>2026-07-15T08:29:38Z</time></trkpt>
			<trkpt lat="54.915260" lon="20.196230"><ele>39.5</ele><time>2026-07-15T08:29:43Z</time></trkpt>
			<trkpt lat="54.914740" lon="20.197670"><ele>40.1</ele><time>2026-07-15T08:29:49Z</time></trkpt>
			<trkpt lat="54.914410" lon="20.198470"><ele>40.7</ele><time>2026-07-15T08:29:54Z</time></trkpt>
			<trkpt lat="54.914180" lon="20.198940"><ele>41.5</ele><time>2026-07-15T08:30:00Z</time></trkpt>
			<trkpt lat="54.913920" lon="20.199330"><ele>42.4</ele><time>2026-07-15T08:30:05Z</time></trkpt>
			<trkpt lat="54.913760" lon="20.199510"><ele>42.8</ele><time>2026-07-15T08:30:11Z</time></trkpt>
			<trkpt lat="54.913400" lon="20.199850"><ele>43.6</ele><time>2026-07-15T08:30:16Z</time></trkpt>
			<trkpt lat="54.913050" lon="20.200100"><ele>44.1</ele><time>2026-07-15T08:30:22Z</time></trkpt>
			<trkpt lat="54.912860" lon="20.200170"><ele>44.2</ele><time>2026-07-15T08:30:27Z</time></trkpt>
			<trkpt lat="54.912690" lon="20.200220"><ele>44.2</ele><time>2026-07-15T08:30:33Z</time></trkpt>
			<trkpt lat="54.912490" lon="20.200240"><ele>44.2</ele><time>2026-07-15T08:30:38Z</time></trkpt>
			<trkpt lat="54.911830" lon="20.200160"><ele>43.5</ele><time>2026-07-15T08:30:43Z</time></trkpt>
			<trkpt lat="54.910920" lon="20.199990"><ele>42.9</ele><time>2026-07-15T08:30:49Z</time></trkpt>
			<trkpt lat="54.908230" lon="20.199420"><ele>40.3</ele><time>2026-07-15T08:30:54Z</time></trkpt>
			<trkpt lat="54.908040" lon="20.199380"><ele>40.6</ele><time>2026-07-15T08:31:00Z</time></trkpt>
			<trkpt lat="54.907680" lon="20.199310"><ele>41.4</ele><time>2026-07-15T08:31:05Z</time></trkpt>
			<trkpt lat="54.907240" lon="20.199220"><ele>41.6</ele><time>2026-07-15T08:31:11Z</time></trkpt>
			<trkpt lat="54.905990" lon="20.198980"><ele>41.2</ele><time>2026-07-15T08:31:16Z</time></trkpt>
			<trkpt lat="54.904880" lon="20.198780"><ele>43.4</ele><time>2026-07-15T08:31:22Z</time></trkpt>
			<trkpt lat="54.904420" lon="20.198700"><ele>44.6</ele><time>2026-07-15T08:31:27Z</time></trkpt>
			<trkpt lat="54.904130" lon="20.198670"><ele>45.2</ele><time>2026-07-15T08:31:32Z</time></trkpt>
			<trkpt lat="54.903870" lon="20.198650"><ele>45.2</ele><time>2026-07-15T08:31:38Z</time></trkpt>
			<trkpt lat="54.903230" lon="20.198710"><ele>45.7</ele><time>2026-07-15T08:31:43Z</time></trkpt>
			<trkpt lat="54.902940" lon="20.198760"><ele>46.5</ele><time>2026-07-15T08:31:49Z</time></trkpt>
			<trkpt lat="54.902700" lon="20.198830"><ele>47.3</ele><time>2026-07-15T08:31:54Z</time></trkpt>
			<trkpt lat="54.902320" lon="20.198940"><ele>47.9</ele><time>2026-07-15T08:32:00Z</time></trkpt>
			<trkpt lat="54.901610" lon="20.199320"><ele>47.4</ele><time>2026-07-15T08:32:05Z</time></trkpt>
			<trkpt lat="54.901210" lon="20.199620"><ele>47.6</ele><time>2026-07-15T08:32:11Z</time></trkpt>
			<trkpt lat="54.900780" lon="20.200000"><ele>48.0</ele><time>2026-07-15T08:32:16Z</time></trkpt>
			<trkpt lat="54.900430" lon="20.200440"><ele>48.3</ele><time>2026-07-15T08:32:21Z</time></trkpt>
			<trkpt lat="54.900370" lon="20.200540"><ele>48.3</ele><time>2026-07-15T08:32:27Z</time></trkpt>
			<trkpt lat="54.899870" lon="20.201690"><ele>48.3</ele><time>2026-07-15T08:32:32Z</time></trkpt>
			<trkpt lat="54.898870" lon="20.203460"><ele>49.9</ele><time>2026-07-15T08:32:38Z</time></trkpt>
			<trkpt lat="54.898480" lon="20.204180"><ele>50.8</ele><time>2026-07-15T08:32:43Z</time></trkpt>
			<trkpt lat="54.896280" lon="20.208310"><ele>54.5</ele><time>2026-07-15T08:32:49Z</time></trkpt>
			<trkpt lat="54.896090" lon="20.208700"><ele>54.6</ele><time>2026-07-15T08:32:54Z</time></trkpt>
			<trkpt lat="54.895850" lon="20.209230"><ele>55.0</ele><time>2026-07-15T08:33:00Z</time></trkpt>
			<trkpt lat="54.893850" lon="20.213920"><ele>52.4</ele><time>2026-07-15T08:33:05Z</time></trkpt>
			<trkpt lat="54.892550" lon="20.216960"><ele>53.1</ele><time>2026-07-15T08:33:10Z</time></trkpt>
			<trkpt lat="54.891240" lon="20.220090"><ele>51.7</ele><time>2026-07-15T08:33:16Z</time></trkpt>
			<trkpt lat="54.891010" lon="20.220640"><ele>50.3</ele><time>2026-07-15T08:33:21Z</time></trkpt>
			<trkpt lat="54.890740" lon="20.221280"><ele>49.7</ele><time>2026-07-15T08:33:27Z</time></trkpt>
			<trkpt lat="54.890260" lon="20.222380"><ele>52.6</ele><time>2026-07-15T08:33:32Z</time></trkpt>
			<trkpt lat="54.888910" lon="20.225580"><ele>56.1</ele><time>2026-07-15T08:33:38Z</time></trkpt>
			<trkpt lat="54.887540" lon="20.228740"><ele>57.3</ele><time>2026-07-15T08:33:43Z</time></trkpt>
			<trkpt lat="54.886970" lon="20.227960"><ele>57.3</ele><time>2026-07-15T08:33:49Z</time></trkpt>
			<trkpt lat="54.886970" lon="20.227960"><ele>57.3</ele><time>2026-07-15T08:33:56Z</time></trkpt>
			<trkpt lat="54.886890" lon="20.227860"><ele>57.4</ele><time>2026-07-15T08:34:03Z</time></trkpt>
			<trkpt lat="54.886630" lon="20.227500"><ele>58.0</ele><time>2026-07-15T08:34:11Z</time></trkpt>
			<trkpt lat="54.886540" lon="20.227300"><ele>58.1</ele><time>2026-07-15T08:34:18Z</time></trkpt>
			<trkpt lat="54.886250" lon="20.225630"><ele>58.0</ele><time>2026-07-15T08:34:25Z</time></trkpt>
			<trkpt lat="54.886150" lon="20.225020"><ele>58.0</ele><time>2026-07-15T08:34:33Z</time></trkpt>
			<trkpt lat="54.886100" lon="20.224420"><ele>57.8</ele><time>2026-07-15T08:34:40Z</time></trkpt>
			<trkpt lat="54.886040" lon="20.223480"><ele>57.8</ele><time>2026-07-15T08:34:48Z</time></trkpt>
			<trkpt lat="54.885980" lon="20.222380"><ele>58.5</ele><time>2026-07-15T08:34:55Z</time></trkpt>
			<trkpt lat="54.885970" lon="20.221870"><ele>58.6</ele><time>2026-07-15T08:35:02Z</time></trkpt>
			<trkpt lat="54.885950" lon="20.220160"><ele>57.6</ele><time>2026-07-15T08:35:10Z</time></trkpt>
			<trkpt lat="54.885990" lon="20.218670"><ele>51.0</ele><time>2026-07-15T08:35:17Z</time></trkpt>
			<trkpt lat="54.885990" lon="20.217850"><ele>47.7</ele><time>2026-07-15T08:35:24Z</time></trkpt>
			<trkpt lat="54.886000" lon="20.217540"><ele>47.3</ele><time>2026-07-15T08:35:32Z</time></trkpt>
			<trkpt lat="54.886040" lon="20.216760"><ele>48.4</ele><time>2026-07-15T08:35:39Z</time></trkpt>
			<trkpt lat="54.886170" lon="20.216340"><ele>49.4</ele><time>2026-07-15T08:35:46Z</time></trkpt>
			<trkpt lat="54.886470" lon="20.215100"><ele>53.4</ele><time>2026-07-15T08:35:54Z</time></trkpt>
			<trkpt lat="54.886480" lon="20.214800"><ele>54.4</ele><time>2026-07-15T08:36:01Z</time></trkpt>
			<trkpt lat="54.886570" lon="20.213460"><ele>55.9</ele><time>2026-07-15T08:36:09Z</time></trkpt>
			<trkpt lat="54.886600" lon="20.212880"><ele>55.4</ele><time>2026-07-15T08:36:16Z</time></trkpt>
			<trkpt lat="54.886520" lon="20.211400"><ele>54.4</ele><time>2026-07-15T08:36:23Z</time></trkpt>
			<trkpt lat="54.886400" lon="20.208960"><ele>54.7</ele><time>2026-07-15T08:36:31Z</time></trkpt>
			<trkpt lat="54.886350" lon="20.207840"><ele>54.3</ele><time>2026-07-15T08:36:38Z</time></trkpt>
			<trkpt lat="54.886370" lon="20.207660"><ele>54.2</ele><time>2026-07-15T08:36:45Z</time></trkpt>
			<trkpt lat="54.886530" lon="20.206450"><ele>54.8</ele><time>2026-07-15T08:36:53Z</time></trkpt>
			<trkpt lat="54.886560" lon="20.206120"><ele>54.9</ele><time>2026-07-15T08:37:00Z</time></trkpt>
			<trkpt lat="54.886910" lon="20.202950"><ele>57.3</ele><time>2026-07-15T08:37:07Z</time></trkpt>
			<trkpt lat="54.886980" lon="20.201840"><ele>57.3</ele><time>2026-07-15T08:37:15Z</time></trkpt>
			<trkpt lat="54.886950" lon="20.201600"><ele>57.3</ele><time>2026-07-15T08:37:22Z</time></trkpt>
			<trkpt lat="54.886930" lon="20.201460"><ele>57.3</ele><time>2026-07-15T08:37:30Z</time></trkpt>
			<trkpt lat="54.886870" lon="20.201210"><ele>57.2</ele><time>2026-07-15T08:37:37Z</time></trkpt>
			<trkpt lat="54.885860" lon="20.197880"><ele>54.5</ele><time>2026-07-15T08:37:44Z</time></trkpt>
			<trkpt lat="54.885210" lon="20.195680"><ele>53.7</ele><time>2026-07-15T08:37:52Z</time></trkpt>
			<trkpt lat="54.885020" lon="20.195160"><ele>53.9</ele><time>2026-07-15T08:37:59Z</time></trkpt>
			<trkpt lat="54.880840" lon="20.187510"><ele>57.0</ele><time>2026-07-15T08:38:06Z</time></trkpt>
			<trkpt lat="54.880460" lon="20.186850"><ele>58.1</ele><time>2026-07-15T08:38:14Z</time></trkpt>
			<trkpt lat="54.879470" lon="20.185610"><ele>60.0</ele><time>2026-07-15T08:38:21Z</time></trkpt>
			<trkpt lat="54.878320" lon="20.184230"><ele>63.8</ele><time>2026-07-15T08:38:29Z</time></trkpt>
			<trkpt lat="54.876070" lon="20.181360"><ele>61.2</ele><time>2026-07-15T08:38:36Z</time></trkpt>
			<trkpt lat="54.875380" lon="20.180500"><ele>60.1</ele><time>2026-07-15T08:38:43Z</time></trkpt>
			<trkpt lat="54.874400" lon="20.179290"><ele>58.9</ele><time>2026-07-15T08:38:51Z</time></trkpt>
			<trkpt lat="54.874290" lon="20.179140"><ele>58.6</ele><time>2026-07-15T08:38:58Z</time></trkpt>
			<trkpt lat="54.872440" lon="20.176900"><ele>58.3</ele><time>2026-07-15T08:39:05Z</time></trkpt>
			<trkpt lat="54.871860" lon="20.176180"><ele>59.3</ele><time>2026-07-15T08:39:13Z</time></trkpt>
			<trkpt lat="54.868000" lon="20.171500"><ele>59.0</ele><time>2026-07-15T08:39:20Z</time></trkpt>
			<trkpt lat="54.866370" lon="20.169360"><ele>54.9</ele><time>2026-07-15T08:39:27Z</time></trkpt>
			<trkpt lat="54.863150" lon="20.165340"><ele>49.3</ele><time>2026-07-15T08:39:35Z</time></trkpt>
			<trkpt lat="54.860810" lon="20.162030"><ele>48.4</ele><time>2026-07-15T08:39:42Z</time></trkpt>
			<trkpt lat="54.857380" lon="20.157400"><ele>43.2</ele><time>2026-07-15T08:39:50Z</time></trkpt>
			<trkpt lat="54.856780" lon="20.156590"><ele>44.6</ele><time>2026-07-15T08:39:57Z</time></trkpt>
			<trkpt lat="54.854670" lon="20.153700"><ele>43.6</ele><time>2026-07-15T08:40:04Z</time></trkpt>
			<trkpt lat="54.853990" lon="20.152820"><ele>43.3</ele><time>2026-07-15T08:40:12Z</time></trkpt>
			<trkpt lat="54.853620" lon="20.152510"><ele>43.0</ele><time>2026-07-15T08:40:19Z</time></trkpt>
			<trkpt lat="54.853530" lon="20.152470"><ele>43.0</ele><time>2026-07-15T08:40:26Z</time></trkpt>
			<trkpt lat="54.852050" lon="20.151810"><ele>45.9</ele><time>2026-07-15T08:40:34Z</time></trkpt>
			<trkpt lat="54.851370" lon="20.151390"><ele>47.2</ele><time>2026-07-15T08:40:41Z</time></trkpt>
			<trkpt lat="54.851210" lon="20.151210"><ele>47.3</ele><time>2026-07-15T08:40:49Z</time></trkpt>
			<trkpt lat="54.850590" lon="20.149940"><ele>46.4</ele><time>2026-07-15T08:40:56Z</time></trkpt>
			<trkpt lat="54.849050" lon="20.147210"><ele>44.2</ele><time>2026-07-15T08:41:03Z</time></trkpt>
			<trkpt lat="54.847590" lon="20.144660"><ele>38.9</ele><time>2026-07-15T08:41:11Z</time></trkpt>
			<trkpt lat="54.847140" lon="20.143880"><ele>35.8</ele><time>2026-07-15T08:41:18Z</time></trkpt>
			<trkpt lat="54.846810" lon="20.143170"><ele>35.0</ele><time>2026-07-15T08:41:25Z</time></trkpt>
			<trkpt lat="54.846610" lon="20.142930"><ele>35.1</ele><time>2026-07-15T08:41:33Z</time></trkpt>
			<trkpt lat="54.845310" lon="20.140580"><ele>40.2</ele><time>2026-07-15T08:41:40Z</time></trkpt>
			<trkpt lat="54.843120" lon="20.136620"><ele>40.7</ele><time>2026-07-15T08:41:47Z</time></trkpt>
			<trkpt lat="54.842240" lon="20.133790"><ele>37.4</ele><time>2026-07-15T08:41:55Z</time></trkpt>
			<trkpt lat="54.840870" lon="20.129580"><ele>40.9</ele><time>2026-07-15T08:42:02Z</time></trkpt>
			<trkpt lat="54.840770" lon="20.129270"><ele>41.7</ele><time>2026-07-15T08:42:10Z</time></trkpt>
			<trkpt lat="54.841710" lon="20.128310"><ele>43.6</ele><time>2026-07-15T08:42:17Z</time></trkpt>
			<trkpt lat="54.841710" lon="20.128310"><ele>43.6</ele><time>2026-07-15T08:42:41Z</time></trkpt>
			<trkpt lat="54.847920" lon="20.121990"><ele>42.2</ele><time>2026-07-15T08:43:05Z</time></trkpt>
			<trkpt lat="54.853800" lon="20.115990"><ele>39.7</ele><time>2026-07-15T08:43:28Z</time></trkpt>
			<trkpt lat="54.859600" lon="20.110080"><ele>39.4</ele><time>2026-07-15T08:43:52Z</time></trkpt>
			<trkpt lat="54.870920" lon="20.098500"><ele>42.6</ele><time>2026-07-15T08:44:16Z</time></trkpt>
			<trkpt lat="54.871570" lon="20.097850"><ele>42.7</ele><time>2026-07-15T08:44:40Z</time></trkpt>
			<trkpt lat="54.871830" lon="20.097770"><ele>42.7</ele><time>2026-07-15T08:45:04Z</time></trkpt>
			<trkpt lat="54.872180" lon="20.097780"><ele>42.7</ele><time>2026-07-15T08:45:27Z</time></trkpt>
			<trkpt lat="54.872400" lon="20.097830"><ele>42.4</ele><time>2026-07-15T08:45:51Z</time></trkpt>
			<trkpt lat="54.872330" lon="20.096280"><ele>39.3</ele><time>2026-07-15T08:46:15Z</time></trkpt>
			<trkpt lat="54.872320" lon="20.095940"><ele>39.0</ele><time>2026-07-15T08:46:39Z</time></trkpt>
			<trkpt lat="54.872260" lon="20.094960"><ele>38.7</ele><time>2026-07-15T08:47:03Z</time></trkpt>
			<trkpt lat="54.872260" lon="20.094960"><ele>38.7</ele><time>2026-07-15T08:47:08Z</time></trkpt>
			<trkpt lat="54.872230" lon="20.094580"><ele>38.7</ele><time>2026-07-15T08:47:14Z</time></trkpt>
			<trkpt lat="54.872210" lon="20.094400"><ele>38.6</ele><time>2026-07-15T08:47:20Z</time></trkpt>
			<trkpt lat="54.872120" lon="20.094020"><ele>38.8</ele><time>2026-07-15T08:47:25Z</time></trkpt>
			<trkpt lat="54.871940" lon="20.093630"><ele>38.9</ele><time>2026-07-15T08:47:31Z</time></trkpt>
			<trkpt lat="54.865900" lon="20.084350"><ele>44.8</ele><time>2026-07-15T08:47:36Z</time></trkpt>
			<trkpt lat="54.865410" lon="20.083870"><ele>45.1</ele><time>2026-07-15T08:47:42Z</time></trkpt>
			<trkpt lat="54.864920" lon="20.083500"><ele>44.9</ele><time>2026-07-15T08:47:48Z</time></trkpt>
			<trkpt lat="54.864480" lon="20.083220"><ele>44.4</ele><time>2026-07-15T08:47:53Z</time></trkpt>
			<trkpt lat="54.863570" lon="20.082640"><ele>44.1</ele><time>2026-07-15T08:47:59Z</time></trkpt>
			<trkpt lat="54.863250" lon="20.082380"><ele>44.0</ele><time>2026-07-15T08:48:04Z</time></trkpt>
			<trkpt lat="54.862980" lon="20.082060"><ele>43.7</ele><time>2026-07-15T08:48:10Z</time></trkpt>
			<trkpt lat="54.862690" lon="20.081730"><ele>43.3</ele><time>2026-07-15T08:48:16Z</time></trkpt>
			<trkpt lat="54.862050" lon="20.080990"><ele>42.9</ele><time>2026-07-15T08:48:21Z</time></trkpt>
			<trkpt lat="54.860690" lon="20.079400"><ele>43.2</ele><time>2026-07-15T08:48:27Z</time></trkpt>
			<trkpt lat="54.857070" lon="20.075180"><ele>45.7</ele><time>2026-07-15T08:48:32Z</time></trkpt>
			<trkpt lat="54.857040" lon="20.075140"><ele>45.7</ele><time>2026-07-15T08:48:38Z</time></trkpt>
			<trkpt lat="54.856000" lon="20.073860"><ele>48.1</ele><time>2026-07-15T08:48:44Z</time></trkpt>
			<trkpt lat="54.855940" lon="20.073750"><ele>48.1</ele><time>2026-07-15T08:48:49Z</time></trkpt>
			<trkpt lat="54.855860" lon="20.073560"><ele>48.1</ele><time>2026-07-15T08:48:55Z</time></trkpt>
			<trkpt lat="54.855380" lon="20.071870"><ele>44.6</ele><time>2026-07-15T08:49:00Z</time></trkpt>
			<trkpt lat="54.854760" lon="20.069800"><ele>44.1</ele><time>2026-07-15T08:49:06Z</time></trkpt>
			<trkpt lat="54.852620" lon="20.062630"><ele>42.9</ele><time>2026-07-15T08:49:11Z</time></trkpt>
			<trkpt lat="54.850830" lon="20.056630"><ele>47.0</ele><time>2026-07-15T08:49:17Z</time></trkpt>
			<trkpt lat="54.850600" lon="20.055850"><ele>47.4</ele><time>2026-07-15T08:49:23Z</time></trkpt>
			<trkpt lat="54.850300" lon="20.054200"><ele>47.1</ele><time>2026-07-15T08:49:28Z</time></trkpt>
			<trkpt lat="54.849030" lon="20.046860"><ele>44.6</ele><time>2026-07-15T08:49:34Z</time></trkpt>
			<trkpt lat="54.848840" lon="20.045680"><ele>44.6</ele><time>2026-07-15T08:49:39Z</time></trkpt>
			<trkpt lat="54.848730" lon="20.045350"><ele>44.6</ele><time>2026-07-15T08:49:45Z</time></trkpt>
			<trkpt lat="54.848580" lon="20.045030"><ele>44.7</ele><time>2026-07-15T08:49:51Z</time></trkpt>
			<trkpt lat="54.848380" lon="20.044800"><ele>45.3</ele><time>2026-07-15T08:49:56Z</time></trkpt>
			<trkpt lat="54.848020" lon="20.044350"><ele>47.2</ele><time>2026-07-15T08:50:02Z</time></trkpt>
			<trkpt lat="54.847780" lon="20.044100"><ele>48.7</ele><time>2026-07-15T08:50:07Z</time></trkpt>
			<trkpt lat="54.847490" lon="20.043710"><ele>50.2</ele><time>2026-07-15T08:50:13Z</time></trkpt>
			<trkpt lat="54.847430" lon="20.043550"><ele>50.6</ele><time>2026-07-15T08:50:19Z</time></trkpt>
			<trkpt lat="54.847390" lon="20.043360"><ele>50.8</ele><time>2026-07-15T08:50:24Z</time></trkpt>
			<trkpt lat="54.847380" lon="20.043130"><ele>50.8</ele><time>2026-07-15T08:50:30Z</time></trkpt>
			<trkpt lat="54.847330" lon="20.041900"><ele>48.4</ele><time>2026-07-15T08:50:35Z</time></trkpt>
			<trkpt lat="54.847030" lon="20.041160"><ele>46.6</ele><time>2026-07-15T08:50:41Z</time></trkpt>
			<trkpt lat="54.846910" lon="20.040600"><ele>46.3</ele><time>2026-07-15T08:50:47Z</time></trkpt>
			<trkpt lat="54.846940" lon="20.040240"><ele>46.3</ele><time>2026-07-15T08:50:52Z</time></trkpt>
			<trkpt lat="54.847030" lon="20.039880"><ele>46.3</ele><time>2026-07-15T08:50:58Z</time></trkpt>
			<trkpt lat="54.847300" lon="20.039370"><ele>45.8</ele><time>2026-07-15T08:51:03Z</time></trkpt>
			<trkpt lat="54.847470" lon="20.039120"><ele>45.7</ele><time>2026-07-15T08:51:09Z</time></trkpt>
			<trkpt lat="54.847500" lon="20.038900"><ele>45.3</ele><time>2026-07-15T08:51:15Z</time></trkpt>
			<trkpt lat="54.847480" lon="20.038620"><ele>44.6</ele><time>2026-07-15T08:51:20Z</time></trkpt>
			<trkpt lat="54.847450" lon="20.038350"><ele>44.0</ele><time>2026-07-15T08:51:26Z</time></trkpt>
			<trkpt lat="54.845080" lon="20.028630"><ele>36.2</ele><time>2026-07-15T08:51:31Z</time></trkpt>
			<trkpt lat="54.842980" lon="20.019970"><ele>34.9</ele><time>2026-07-15T08:51:37Z</time></trkpt>
			<trkpt lat="54.842970" lon="20.019920"><ele>35.0</ele><time>2026-07-15T08:51:43Z</time></trkpt>
			<trkpt lat="54.842700" lon="20.018800"><ele>35.1</ele><time>2026-07-15T08:51:48Z</time></trkpt>
			<trkpt lat="54.842630" lon="20.018590"><ele>34.7</ele><time>2026-07-15T08:51:54Z</time></trkpt>
			<trkpt lat="54.842530" lon="20.018360"><ele>34.1</ele><time>2026-07-15T08:51:59Z</time></trkpt>
			<trkpt lat="54.842120" lon="20.017790"><ele>31.7</ele><time>2026-07-15T08:52:05Z</time></trkpt>
			<trkpt lat="54.841630" lon="20.017130"><ele>30.0</ele><time>2026-07-15T08:52:11Z</time></trkpt>
			<trkpt lat="54.841540" lon="20.017010"><ele>30.1</ele><time>2026-07-15T08:52:16Z</time></trkpt>
			<trkpt lat="54.841080" lon="20.016370"><ele>30.9</ele><time>2026-07-15T08:52:22Z</time></trkpt>
			<trkpt lat="54.841010" lon="20.016220"><ele>31.1</ele><time>2026-07-15T08:52:27Z</time></trkpt>
			<trkpt lat="54.840970" lon="20.016110"><ele>31.3</ele><time>2026-07-15T08:52:33Z</time></trkpt>
			<trkpt lat="54.840940" lon="20.015970"><ele>31.5</ele><time>2026-07-15T08:52:39Z</time></trkpt>
			<trkpt lat="54.840940" lon="20.015870"><ele>31.6</ele><time>2026-07-15T08:52:44Z</time></trkpt>
			<trkpt lat="54.841450" lon="20.014330"><ele>33.8</ele><time>2026-07-15T08:52:50Z</time></trkpt>
			<trkpt lat="54.841540" lon="20.013660"><ele>36.6</ele><time>2026-07-15T08:52:55Z</time></trkpt>
			<trkpt lat="54.841670" lon="20.012940"><ele>38.4</ele><time>2026-07-15T08:53:01Z</time></trkpt>
			<trkpt lat="54.841880" lon="20.012120"><ele>37.8</ele><time>2026-07-15T08:53:07Z</time></trkpt>
			<trkpt lat="54.841990" lon="20.011600"><ele>37.3</ele><time>2026-07-15T08:53:12Z</time></trkpt>
			<trkpt lat="54.842020" lon="20.011120"><ele>37.1</ele><time>2026-07-15T08:53:18Z</time></trkpt>
			<trkpt lat="54.842060" lon="20.010680"><ele>37.0</ele><time>2026-07-15T08:53:23Z</time></trkpt>
			<trkpt lat="54.842010" lon="20.010470"><ele>37.1</ele><time>2026-07-15T08:53:29Z</time></trkpt>
			<trkpt lat="54.841970" lon="20.010220"><ele>37.2</ele><time>2026-07-15T08:53:35Z</time></trkpt>
			<trkpt lat="54.841920" lon="20.009510"><ele>37.5</ele><time>2026-07-15T08:53:40Z</time></trkpt>
			<trkpt lat="54.841820" lon="20.008800"><ele>37.7</ele><time>2026-07-15T08:53:46Z</time></trkpt>
			<trkpt lat="54.841700" lon="20.008360"><ele>37.8</ele><time>2026-07-15T08:53:51Z</time></trkpt>
			<trkpt lat="54.841700" lon="20.008360"><ele>37.8</ele><time>2026-07-15T08:53:57Z</time></trkpt>
			<trkpt lat="54.841660" lon="20.008220"><ele>37.8</ele><time>2026-07-15T08:54:03Z</time></trkpt>
			<trkpt lat="54.841490" lon="20.007900"><ele>37.1</ele><time>2026-07-15T08:54:08Z</time></trkpt>
			<trkpt lat="54.841000" lon="20.007220"><ele>34.8</ele><time>2026-07-15T08:54:14Z</time></trkpt>
			<trkpt lat="54.840910" lon="20.007120"><ele>34.3</ele><time>2026-07-15T08:54:20Z</time></trkpt>
			<trkpt lat="54.840500" lon="20.006720"><ele>31.5</ele><time>2026-07-15T08:54:25Z</time></trkpt>
			<trkpt lat="54.840070" lon="20.006210"><ele>29.3</ele><time>2026-07-15T08:54:31Z</time></trkpt>
			<trkpt lat="54.839960" lon="20.006160"><ele>28.9</ele><time>2026-07-15T08:54:36Z</time></trkpt>
			<trkpt lat="54.839750" lon="20.006150"><ele>28.3</ele><time>2026-07-15T08:54:42Z</time></trkpt>
			<trkpt lat="54.839590" lon="20.006260"><ele>27.8</ele><time>2026-07-15T08:54:48Z</time></trkpt>
			<trkpt lat="54.835740" lon="20.009200"><ele>23.8</ele><time>2026-07-15T08:54:53Z</time></trkpt>
			<trkpt lat="54.835430" lon="20.009450"><ele>23.6</ele><time>2026-07-15T08:54:59Z</time></trkpt>
			<trkpt lat="54.834820" lon="20.009720"><ele>23.4</ele><time>2026-07-15T08:55:05Z</time></trkpt>
			<trkpt lat="54.834580" lon="20.009830"><ele>23.5</ele><time>2026-07-15T08:55:10Z</time></trkpt>
			<trkpt lat="54.833930" lon="20.010070"><ele>25.2</ele><time>2026-07-15T08:55:16Z</time></trkpt>
			<trkpt lat="54.833840" lon="20.010110"><ele>25.6</ele><time>2026-07-15T08:55:22Z</time></trkpt>
			<trkpt lat="54.833620" lon="20.010190"><ele>26.6</ele><time>2026-07-15T08:55:27Z</time></trkpt>
			<trkpt lat="54.832930" lon="20.010340"><ele>26.9</ele><time>2026-07-15T08:55:33Z</time></trkpt>
			<trkpt lat="54.832440" lon="20.010360"><ele>26.0</ele><time>2026-07-15T08:55:39Z</time></trkpt>
			<trkpt lat="54.831670" lon="20.010430"><ele>24.8</ele><time>2026-07-15T08:55:44Z</time></trkpt>
			<trkpt lat="54.829960" lon="20.010550"><ele>31.1</ele><time>2026-07-15T08:55:50Z</time></trkpt>
			<trkpt lat="54.829680" lon="20.010630"><ele>31.8</ele><time>2026-07-15T08:55:55Z</time></trkpt>
			<trkpt lat="54.829400" lon="20.010740"><ele>32.4</ele><time>2026-07-15T08:56:01Z</time></trkpt>
			<trkpt lat="54.829240" lon="20.010890"><ele>32.7</ele><time>2026-07-15T08:56:07Z</time></trkpt>
			<trkpt lat="54.829210" lon="20.010920"><ele>32.6</ele><time>2026-07-15T08:56:12Z</time></trkpt>
			<trkpt lat="54.829150" lon="20.010970"><ele>32.5</ele><time>2026-07-15T08:56:18Z</time></trkpt>
			<trkpt lat="54.828540" lon="20.012130"><ele>30.9</ele><time>2026-07-15T08:56:24Z</time></trkpt>
			<trkpt lat="54.827690" lon="20.013730"><ele>30.0</ele><time>2026-07-15T08:56:29Z</time></trkpt>
			<trkpt lat="54.826070" lon="20.016810"><ele>22.4</ele><time>2026-07-15T08:56:35Z</time></trkpt>
			<trkpt lat="54.825590" lon="20.017750"><ele>21.0</ele><time>2026-07-15T08:56:41Z</time></trkpt>
			<trkpt lat="54.825050" lon="20.018960"><ele>22.5</ele><time>2026-07-15T08:56:46Z</time></trkpt>
			<trkpt lat="54.824740" lon="20.019840"><ele>24.3</ele><time>2026-07-15T08:56:52Z</time></trkpt>
			<trkpt lat="54.824460" lon="20.020690"><ele>26.5</ele><time>2026-07-15T08:56:58Z</time></trkpt>
			<trkpt lat="54.824210" lon="20.021630"><ele>26.8</ele><time>2026-07-15T08:57:03Z</time></trkpt>
			<trkpt lat="54.823600" lon="20.023730"><ele>24.9</ele><time>2026-07-15T08:57:09Z</time></trkpt>
			<trkpt lat="54.823430" lon="20.024310"><ele>24.7</ele><time>2026-07-15T08:57:14Z</time></trkpt>
			<trkpt lat="54.823030" lon="20.025420"><ele>24.4</ele><time>2026-07-15T08:57:20Z</time></trkpt>
			<trkpt lat="54.820910" lon="20.029700"><ele>29.2</ele><time>2026-07-15T08:57:26Z</time></trkpt>
			<trkpt lat="54.820780" lon="20.029960"><ele>29.6</ele><time>2026-07-15T08:57:31Z</time></trkpt>
			<trkpt lat="54.820260" lon="20.030800"><ele>28.0</ele><time>2026-07-15T08:57:37Z</time></trkpt>
			<trkpt lat="54.819130" lon="20.032460"><ele>28.7</ele><time>2026-07-15T08:57:43Z</time></trkpt>
			<trkpt lat="54.818350" lon="20.033540"><ele>27.5</ele><time>2026-07-15T08:57:48Z</time></trkpt>
			<trkpt lat="54.817270" lon="20.034790"><ele>28.4</ele><time>2026-07-15T08:57:54Z</time></trkpt>
			<trkpt lat="54.815760" lon="20.037010"><ele>28.7</ele><time>2026-07-15T08:58:00Z</time></trkpt>
			<trkpt lat="54.812160" lon="20.042310"><ele>30.8</ele><time>2026-07-15T08:58:05Z</time></trkpt>
			<trkpt lat="54.810110" lon="20.045690"><ele>30.8</ele><time>2026-07-15T08:58:11Z</time></trkpt>
			<trkpt lat="54.809690" lon="20.046400"><ele>30.7</ele><time>2026-07-15T08:58:17Z</time></trkpt>
			<trkpt lat="54.808100" lon="20.049040"><ele>34.6</ele><time>2026-07-15T08:58:22Z</time></trkpt>
			<trkpt lat="54.805660" lon="20.052290"><ele>40.3</ele><time>2026-07-15T08:58:28Z</time></trkpt>
			<trkpt lat="54.804730" lon="20.053530"><ele>34.4</ele><time>2026-07-15T08:58:33Z</time></trkpt>
			<trkpt lat="54.804300" lon="20.054070"><ele>32.6</ele><time>2026-07-15T08:58:39Z</time></trkpt>
			<trkpt lat="54.803690" lon="20.054700"><ele>28.6</ele><time>2026-07-15T08:58:45Z</time></trkpt>
			<trkpt lat="54.802620" lon="20.055750"><ele>26.3</ele><time>2026-07-15T08:58:50Z</time></trkpt>
			<trkpt lat="54.802970" lon="20.057750"><ele>34.6</ele><time>2026-07-15T08:58:56Z</time></trkpt>
			<trkpt lat="54.802970" lon="20.057750"><ele>34.6</ele><time>2026-07-15T08:59:08Z</time></trkpt>
			<trkpt lat="54.803050" lon="20.058010"><ele>35.0</ele><time>2026-07-15T08:59:20Z</time></trkpt>
			<trkpt lat="54.803640" lon="20.058840"><ele>35.4</ele><time>2026-07-15T08:59:32Z</time></trkpt>
			<trkpt lat="54.804240" lon="20.059700"><ele>34.2</ele><time>2026-07-15T08:59:45Z</time></trkpt>
			<trkpt lat="54.804620" lon="20.060230"><ele>32.4</ele><time>2026-07-15T08:59:57Z</time></trkpt>
			<trkpt lat="54.805660" lon="20.061730"><ele>26.4</ele><time>2026-07-15T09:00:09Z</time></trkpt>
			<trkpt lat="54.808730" lon="20.066070"><ele>28.7</ele><time>2026-07-15T09:00:21Z</time></trkpt>
			<trkpt lat="54.808910" lon="20.066400"><ele>28.2</ele><time>2026-07-15T09:00:33Z</time></trkpt>
			<trkpt lat="54.809060" lon="20.066910"><ele>27.1</ele><time>2026-07-15T09:00:45Z</time></trkpt>
			<trkpt lat="54.809200" lon="20.067540"><ele>25.5</ele><time>2026-07-15T09:00:57Z</time></trkpt>
			<trkpt lat="54.811360" lon="20.079530"><ele>35.5</ele><time>2026-07-15T09:01:10Z</time></trkpt>
			<trkpt lat="54.812790" lon="20.087280"><ele>39.8</ele><time>2026-07-15T09:01:22Z</time></trkpt>
			<trkpt lat="54.813750" lon="20.092440"><ele>37.4</ele><time>2026-07-15T09:01:34Z</time></trkpt>
			<trkpt lat="54.813840" lon="20.092940"><ele>36.6</ele><time>2026-07-15T09:01:46Z</time></trkpt>
			<trkpt lat="54.813770" lon="20.095310"><ele>37.7</ele><time>2026-07-15T09:01:58Z</time></trkpt>
			<trkpt lat="54.813650" lon="20.099620"><ele>42.4</ele><time>2026-07-15T09:02:10Z</time></trkpt>
			<trkpt lat="54.813620" lon="20.100490"><ele>41.4</ele><time>2026-07-15T09:02:22Z</time></trkpt>
			<trkpt lat="54.813450" lon="20.106140"><ele>46.7</ele><time>2026-07-15T09:02:35Z</time></trkpt>
			<trkpt lat="54.813400" lon="20.108000"><ele>43.1</ele><time>2026-07-15T09:02:47Z</time></trkpt>
			<trkpt lat="54.813200" lon="20.114970"><ele>45.7</ele><time>2026-07-15T09:02:59Z</time></trkpt>
			<trkpt lat="54.813150" lon="20.116310"><ele>44.8</ele><time>2026-07-15T09:03:11Z</time></trkpt>
			<trkpt lat="54.813020" lon="20.119150"><ele>46.3</ele><time>2026-07-15T09:03:23Z</time></trkpt>
			<trkpt lat="54.812820" lon="20.125610"><ele>46.8</ele><time>2026-07-15T09:03:35Z</time></trkpt>
			<trkpt lat="54.812890" lon="20.134190"><ele>42.4</ele><time>2026-07-15T09:03:48Z</time></trkpt>
			<trkpt lat="54.812970" lon="20.144350"><ele>38.4</ele><time>2026-07-15T09:04:00Z</time></trkpt>
			<trkpt lat="54.812990" lon="20.146580"><ele>36.7</ele><time>2026-07-15T09:04:12Z</time></trkpt>
			<trkpt lat="54.813100" lon="20.147620"><ele>37.2</ele><time>2026-07-15T09:04:24Z</time></trkpt>
			<trkpt lat="54.813490" lon="20.150460"><ele>32.8</ele><time>2026-07-15T09:04:36Z</time></trkpt>
			<trkpt lat="54.814070" lon="20.156850"><ele>24.8</ele><time>2026-07-15T09:04:48Z</time></trkpt>
			<trkpt lat="54.814770" lon="20.164510"><ele>22.6</ele><time>2026-07-15T09:05:00Z</time></trkpt>
			<trkpt lat="54.814890" lon="20.165810"><ele>20.1</ele><time>2026-07-15T09:05:13Z</time></trkpt>
			<trkpt lat="54.814900" lon="20.166470"><ele>20.0</ele><time>2026-07-15T09:05:25Z</time></trkpt>
			<trkpt lat="54.814900" lon="20.166850"><ele>20.2</ele><time>2026-07-15T09:05:37Z</time></trkpt>
			<trkpt lat="54.814880" lon="20.170000"><ele>21.7</ele><time>2026-07-15T09:05:49Z</time></trkpt>
			<trkpt lat="54.814790" lon="20.174080"><ele>31.6</ele><time>2026-07-15T09:06:01Z</time></trkpt>
			<trkpt lat="54.814710" lon="20.178770"><ele>28.4</ele><time>2026-07-15T09:06:13Z</time></trkpt>
			<trkpt lat="54.814640" lon="20.178780"><ele>28.2</ele><time>2026-07-15T09:06:25Z</time></trkpt>
			<trkpt lat="54.814220" lon="20.179100"><ele>26.4</ele><time>2026-07-15T09:06:38Z</time></trkpt>
			<trkpt lat="54.812960" lon="20.180220"><ele>26.9</ele><time>2026-07-15T09:06:50Z</time></trkpt>
			<trkpt lat="54.811360" lon="20.181670"><ele>31.0</ele><time>2026-07-15T09:07:02Z</time></trkpt>
			<trkpt lat="54.811320" lon="20.181710"><ele>31.0</ele><time>2026-07-15T09:07:14Z</time></trkpt>
			<trkpt lat="54.809390" lon="20.183380"><ele>28.5</ele><time>2026-07-15T09:07:26Z</time></trkpt>
			<trkpt lat="54.809390" lon="20.183380"><ele>28.5</ele><time>2026-07-15T09:07:33Z</time></trkpt>
			<trkpt lat="54.808360" lon="20.184310"><ele>29.7</ele><time>2026-07-15T09:07:40Z</time></trkpt>
			<trkpt lat="54.806620" lon="20.185930"><ele>27.9</ele><time>2026-07-15T09:07:47Z</time></trkpt>
			<trkpt lat="54.806410" lon="20.186140"><ele>27.7</ele><time>2026-07-15T09:07:54Z</time></trkpt>
			<trkpt lat="54.805090" lon="20.187370"><ele>28.6</ele><time>2026-07-15T09:08:01Z</time></trkpt>
			<trkpt lat="54.800440" lon="20.191450"><ele>31.7</ele><time>2026-07-15T09:08:08Z</time></trkpt>
			<trkpt lat="54.799550" lon="20.192250"><ele>35.0</ele><time>2026-07-15T09:08:15Z</time></trkpt>
			<trkpt lat="54.798000" lon="20.193830"><ele>36.4</ele><time>2026-07-15T09:08:22Z</time></trkpt>
			<trkpt lat="54.796320" lon="20.195840"><ele>40.8</ele><time>2026-07-15T09:08:29Z</time></trkpt>
			<trkpt lat="54.795360" lon="20.196930"><ele>43.7</ele><time>2026-07-15T09:08:36Z</time></trkpt>
			<trkpt lat="54.794240" lon="20.198170"><ele>46.6</ele><time>2026-07-15T09:08:43Z</time></trkpt>
			<trkpt lat="54.793340" lon="20.198800"><ele>45.3</ele><time>2026-07-15T09:08:50Z</time></trkpt>
			<trkpt lat="54.791720" lon="20.199730"><ele>53.9</ele><time>2026-07-15T09:08:58Z</time></trkpt>
			<trkpt lat="54.791510" lon="20.200030"><ele>55.1</ele><time>2026-07-15T09:09:05Z</time></trkpt>
			<trkpt lat="54.791360" lon="20.200820"><ele>57.0</ele><time>2026-07-15T09:09:12Z</time></trkpt>
			<trkpt lat="54.791220" lon="20.201920"><ele>59.9</ele><time>2026-07-15T09:09:19Z</time></trkpt>
			<trkpt lat="54.791150" lon="20.202180"><ele>60.6</ele><time>2026-07-15T09:09:26Z</time></trkpt>
			<trkpt lat="54.790990" lon="20.202560"><ele>61.1</ele><time>2026-07-15T09:09:33Z</time></trkpt>
			<trkpt lat="54.790900" lon="20.202670"><ele>60.9</ele><time>2026-07-15T09:09:40Z</time></trkpt>
			<trkpt lat="54.790530" lon="20.203140"><ele>61.3</ele><time>2026-07-15T09:09:47Z</time></trkpt>
			<trkpt lat="54.789840" lon="20.203940"><ele>62.3</ele><time>2026-07-15T09:09:54Z</time></trkpt>
			<trkpt lat="54.788490" lon="20.205470"><ele>58.3</ele><time>2026-07-15T09:10:01Z</time></trkpt>
			<trkpt lat="54.786880" lon="20.207300"><ele>50.7</ele><time>2026-07-15T09:10:08Z</time></trkpt>
			<trkpt lat="54.785640" lon="20.208780"><ele>44.4</ele><time>2026-07-15T09:10:15Z</time></trkpt>
			<trkpt lat="54.783340" lon="20.211420"><ele>40.1</ele><time>2026-07-15T09:10:22Z</time></trkpt>
			<trkpt lat="54.782960" lon="20.211820"><ele>40.6</ele><time>2026-07-15T09:10:29Z</time></trkpt>
			<trkpt lat="54.781810" lon="20.213160"><ele>38.3</ele><time>2026-07-15T09:10:36Z</time></trkpt>
			<trkpt lat="54.781370" lon="20.213590"><ele>37.7</ele><time>2026-07-15T09:10:43Z</time></trkpt>
			<trkpt lat="54.781090" lon="20.213860"><ele>38.5</ele><time>2026-07-15T09:10:50Z</time></trkpt>
			<trkpt lat="54.780760" lon="20.214020"><ele>40.7</ele><time>2026-07-15T09:10:57Z</time></trkpt>
			<trkpt lat="54.780470" lon="20.214010"><ele>43.3</ele><time>2026-07-15T09:11:04Z</time></trkpt>
			<trkpt lat="54.778410" lon="20.213460"><ele>51.7</ele><time>2026-07-15T09:11:11Z</time></trkpt>
			<trkpt lat="54.777650" lon="20.213290"><ele>51.6</ele><time>2026-07-15T09:11:18Z</time></trkpt>
			<trkpt lat="54.776570" lon="20.213010"><ele>52.8</ele><time>2026-07-15T09:11:25Z</time></trkpt>
			<trkpt lat="54.776040" lon="20.212980"><ele>53.0</ele><time>2026-07-15T09:11:32Z</time></trkpt>
			<trkpt lat="54.774630" lon="20.213170"><ele>48.3</ele><time>2026-07-15T09:11:39Z</time></trkpt>
			<trkpt lat="54.773970" lon="20.213350"><ele>43.3</ele><time>2026-07-15T09:11:46Z</time></trkpt>
			<trkpt lat="54.773260" lon="20.213270"><ele>37.9</ele><time>2026-07-15T09:11:53Z</time></trkpt>
			<trkpt lat="54.771960" lon="20.213220"><ele>38.6</ele><time>2026-07-15T09:12:00Z</time></trkpt>
			<trkpt lat="54.768360" lon="20.213280"><ele>40.0</ele><time>2026-07-15T09:12:07Z</time></trkpt>
			<trkpt lat="54.767670" lon="20.213290"><ele>40.7</ele><time>2026-07-15T09:12:14Z</time></trkpt>
			<trkpt lat="54.767350" lon="20.213260"><ele>39.9</ele><time>2026-07-15T09:12:21Z</time></trkpt>
			<trkpt lat="54.767100" lon="20.213160"><ele>38.4</ele><time>2026-07-15T09:12:28Z</time></trkpt>
			<trkpt lat="54.766890" lon="20.212960"><ele>36.6</ele><time>2026-07-15T09:12:35Z</time></trkpt>
			<trkpt lat="54.766750" lon="20.212580"><ele>34.0</ele><time>2026-07-15T09:12:42Z</time></trkpt>
			<trkpt lat="54.766720" lon="20.212460"><ele>33.3</ele><time>2026-07-15T09:12:49Z</time></trkpt>
			<trkpt lat="54.766540" lon="20.211780"><ele>30.2</ele><time>2026-07-15T09:12:56Z</time></trkpt>
			<trkpt lat="54.766410" lon="20.211530"><ele>29.4</ele><time>2026-07-15T09:13:03Z</time></trkpt>
			<trkpt lat="54.766260" lon="20.211340"><ele>28.9</ele><time>2026-07-15T09:13:10Z</time></trkpt>
			<trkpt lat="54.766000" lon="20.211100"><ele>28.7</ele><time>2026-07-15T09:13:18Z</time></trkpt>
			<trkpt lat="54.765800" lon="20.210610"><ele>29.7</ele><time>2026-07-15T09:13:25Z</time></trkpt>
			<trkpt lat="54.765400" lon="20.209280"><ele>33.1</ele><time>2026-07-15T09:13:32Z</time></trkpt>
			<trkpt lat="54.765240" lon="20.208780"><ele>34.1</ele><time>2026-07-15T09:13:39Z</time></trkpt>
			<trkpt lat="54.765170" lon="20.208600"><ele>34.5</ele><time>2026-07-15T09:13:46Z</time></trkpt>
			<trkpt lat="54.764450" lon="20.208100"><ele>37.0</ele><time>2026-07-15T09:13:53Z</time></trkpt>
			<trkpt lat="54.764150" lon="20.207900"><ele>37.8</ele><time>2026-07-15T09:14:00Z</time></trkpt>
			<trkpt lat="54.764070" lon="20.207850"><ele>38.0</ele><time>2026-07-15T09:14:07Z</time></trkpt>
			<trkpt lat="54.763100" lon="20.206740"><ele>37.2</ele><time>2026-07-15T09:14:14Z</time></trkpt>
			<trkpt lat="54.761970" lon="20.205430"><ele>34.0</ele><time>2026-07-15T09:14:21Z</time></trkpt>
			<trkpt lat="54.760990" lon="20.204210"><ele>34.4</ele><time>2026-07-15T09:14:28Z</time></trkpt>
			<trkpt lat="54.760050" lon="20.203090"><ele>34.9</ele><time>2026-07-15T09:14:35Z</time></trkpt>
			<trkpt lat="54.754600" lon="20.196620"><ele>20.0</ele><time>2026-07-15T09:14:42Z</time></trkpt>
			<trkpt lat="54.754270" lon="20.196240"><ele>19.1</ele><time>2026-07-15T09:14:49Z</time></trkpt>
			<trkpt lat="54.753570" lon="20.195420"><ele>17.8</ele><time>2026-07-15T09:14:56Z</time></trkpt>
			<trkpt lat="54.752390" lon="20.194060"><ele>16.5</ele><time>2026-07-15T09:15:03Z</time></trkpt>
			<trkpt lat="54.750730" lon="20.192070"><ele>21.1</ele><time>2026-07-15T09:15:10Z</time></trkpt>
			<trkpt lat="54.750630" lon="20.191970"><ele>21.0</ele><time>2026-07-15T09:15:17Z</time></trkpt>
			<trkpt lat="54.750560" lon="20.191970"><ele>20.9</ele><time>2026-07-15T09:15:24Z</time></trkpt>
			<trkpt lat="54.750510" lon="20.192000"><ele>20.8</ele><time>2026-07-15T09:15:31Z</time></trkpt>
			<trkpt lat="54.750480" lon="20.192050"><ele>20.8</ele><time>2026-07-15T09:15:38Z</time></trkpt>
			<trkpt lat="54.750460" lon="20.192110"><ele>20.7</ele><time>2026-07-15T09:15:45Z</time></trkpt>
			<trkpt lat="54.750450" lon="20.192240"><ele>20.6</ele><time>2026-07-15T09:15:52Z</time></trkpt>
			<trkpt lat="54.750370" lon="20.194340"><ele>20.7</ele><time>2026-07-15T09:15:59Z</time></trkpt>
			<trkpt lat="54.750350" lon="20.194910"><ele>20.2</ele><time>2026-07-15T09:16:06Z</time></trkpt>
			<trkpt lat="54.750350" lon="20.194910"><ele>20.2</ele><time>2026-07-15T09:16:11Z</time></trkpt>
			<trkpt lat="54.750300" lon="20.196060"><ele>18.8</ele><time>2026-07-15T09:16:16Z</time></trkpt>
			<trkpt lat="54.750300" lon="20.196230"><ele>18.9</ele><time>2026-07-15T09:16:21Z</time></trkpt>
			<trkpt lat="54.750250" lon="20.197470"><ele>19.1</ele><time>2026-07-15T09:16:25Z</time></trkpt>
			<trkpt lat="54.749900" lon="20.205800"><ele>17.0</ele><time>2026-07-15T09:16:30Z</time></trkpt>
			<trkpt lat="54.749720" lon="20.209550"><ele>16.5</ele><time>2026-07-15T09:16:35Z</time></trkpt>
			<trkpt lat="54.749480" lon="20.215410"><ele>13.9</ele><time>2026-07-15T09:16:40Z</time></trkpt>
			<trkpt lat="54.749410" lon="20.216990"><ele>12.5</ele><time>2026-07-15T09:16:44Z</time></trkpt>
			<trkpt lat="54.749360" lon="20.218330"><ele>13.5</ele><time>2026-07-15T09:16:49Z</time></trkpt>
			<trkpt lat="54.749290" lon="20.219520"><ele>13.8</ele><time>2026-07-15T09:16:54Z</time></trkpt>
			<trkpt lat="54.749140" lon="20.221230"><ele>13.9</ele><time>2026-07-15T09:16:59Z</time></trkpt>
			<trkpt lat="54.748900" lon="20.223630"><ele>12.3</ele><time>2026-07-15T09:17:04Z</time></trkpt>
			<trkpt lat="54.748750" lon="20.225260"><ele>10.8</ele><time>2026-07-15T09:17:08Z</time></trkpt>
			<trkpt lat="54.748630" lon="20.226540"><ele>9.6</ele><time>2026-07-15T09:17:13Z</time></trkpt>
			<trkpt lat="54.748520" lon="20.227550"><ele>8.9</ele><time>2026-07-15T09:17:18Z</time></trkpt>
			<trkpt lat="54.748210" lon="20.230860"><ele>13.7</ele><time>2026-07-15T09:17:23Z</time></trkpt>
			<trkpt lat="54.747840" lon="20.234830"><ele>18.2</ele><time>2026-07-15T09:17:28Z</time></trkpt>
			<trkpt lat="54.747770" lon="20.235340"><ele>20.6</ele><time>2026-07-15T09:17:32Z</time></trkpt>
			<trkpt lat="54.747670" lon="20.235770"><ele>22.9</ele><time>2026-07-15T09:17:37Z</time></trkpt>
			<trkpt lat="54.747480" lon="20.236320"><ele>25.1</ele><time>2026-07-15T09:17:42Z</time></trkpt>
			<trkpt lat="54.747420" lon="20.236500"><ele>25.5</ele><time>2026-07-15T09:17:47Z</time></trkpt>
			<trkpt lat="54.747270" lon="20.237040"><ele>26.5</ele><time>2026-07-15T09:17:51Z</time></trkpt>
			<trkpt lat="54.746430" lon="20.239760"><ele>24.7</ele><time>2026-07-15T09:17:56Z</time></trkpt>
			<trkpt lat="54.744720" lon="20.245350"><ele>24.9</ele><time>2026-07-15T09:18:01Z</time></trkpt>
			<trkpt lat="54.744310" lon="20.246850"><ele>26.3</ele><time>2026-07-15T09:18:06Z</time></trkpt>
			<trkpt lat="54.744140" lon="20.247400"><ele>25.9</ele><time>2026-07-15T09:18:11Z</time></trkpt>
			<trkpt lat="54.743940" lon="20.248090"><ele>25.7</ele><time>2026-07-15T09:18:15Z</time></trkpt>
			<trkpt lat="54.743370" lon="20.249860"><ele>26.0</ele><time>2026-07-15T09:18:20Z</time></trkpt>
			<trkpt lat="54.742660" lon="20.252160"><ele>24.4</ele><time>2026-07-15T09:18:25Z</time></trkpt>
			<trkpt lat="54.742610" lon="20.252610"><ele>24.0</ele><time>2026-07-15T09:18:30Z</time></trkpt>
			<trkpt lat="54.742620" lon="20.253680"><ele>23.8</ele><time>2026-07-15T09:18:35Z</time></trkpt>
			<trkpt lat="54.742710" lon="20.256040"><ele>21.3</ele><time>2026-07-15T09:18:39Z</time></trkpt>
			<trkpt lat="54.742730" lon="20.256650"><ele>21.0</ele><time>2026-07-15T09:18:44Z</time></trkpt>
			<trkpt lat="54.742770" lon="20.257080"><ele>21.0</ele><time>2026-07-15T09:18:49Z</time></trkpt>
			<trkpt lat="54.742840" lon="20.257360"><ele>21.2</ele><time>2026-07-15T09:18:54Z</time></trkpt>
			<trkpt lat="54.742930" lon="20.257600"><ele>21.5</ele><time>2026-07-15T09:18:58Z</time></trkpt>
			<trkpt lat="54.743420" lon="20.258280"><ele>21.9</ele><time>2026-07-15T09:19:03Z</time></trkpt>
			<trkpt lat="54.743800" lon="20.258860"><ele>21.0</ele><time>2026-07-15T09:19:08Z</time></trkpt>
			<trkpt lat="54.743910" lon="20.259290"><ele>20.3</ele><time>2026-07-15T09:19:13Z</time></trkpt>
			<trkpt lat="54.743920" lon="20.259450"><ele>20.2</ele><time>2026-07-15T09:19:18Z</time></trkpt>
			<trkpt lat="54.743940" lon="20.259860"><ele>20.1</ele><time>2026-07-15T09:19:22Z</time></trkpt>
			<trkpt lat="54.744100" lon="20.261670"><ele>18.8</ele><time>2026-07-15T09:19:27Z</time></trkpt>
			<trkpt lat="54.744610" lon="20.266270"><ele>15.8</ele><time>2026-07-15T09:19:32Z</time></trkpt>
			<trkpt lat="54.744750" lon="20.267360"><ele>15.8</ele><time>2026-07-15T09:19:37Z</time></trkpt>
			<trkpt lat="54.745100" lon="20.270490"><ele>13.5</ele><time>2026-07-15T09:19:42Z</time></trkpt>
			<trkpt lat="54.745310" lon="20.272310"><ele>10.3</ele><time>2026-07-15T09:19:46Z</time></trkpt>
			<trkpt lat="54.745450" lon="20.273640"><ele>8.9</ele><time>2026-07-15T09:19:51Z</time></trkpt>
			<trkpt lat="54.745630" lon="20.275200"><ele>7.5</ele><time>2026-07-15T09:19:56Z</time></trkpt>
			<trkpt lat="54.745670" lon="20.275460"><ele>7.3</ele><time>2026-07-15T09:20:01Z</time></trkpt>
			<trkpt lat="54.745710" lon="20.275640"><ele>7.1</ele><time>2026-07-15T09:20:05Z</time></trkpt>
			<trkpt lat="54.745750" lon="20.275780"><ele>7.0</ele><time>2026-07-15T09:20:10Z</time></trkpt>
			<trkpt lat="54.745930" lon="20.276270"><ele>7.6</ele><time>2026-07-15T09:20:15Z</time></trkpt>
			<trkpt lat="54.746010" lon="20.276460"><ele>7.8</ele><time>2026-07-15T09:20:20Z</time></trkpt>
			<trkpt lat="54.746170" lon="20.276870"><ele>8.1</ele><time>2026-07-15T09:20:25Z</time></trkpt>
			<trkpt lat="54.746400" lon="20.277510"><ele>8.4</ele><time>2026-07-15T09:20:29Z</time></trkpt>
			<trkpt lat="54.746720" lon="20.278370"><ele>9.4</ele><time>2026-07-15T09:20:34Z</time></trkpt>
			<trkpt lat="54.747030" lon="20.279220"><ele>11.8</ele><time>2026-07-15T09:20:39Z</time></trkpt>
			<trkpt lat="54.747140" lon="20.279530"><ele>12.2</ele><time>2026-07-15T09:20:44Z</time></trkpt>
			<trkpt lat="54.747620" lon="20.280800"><ele>11.2</ele><time>2026-07-15T09:20:49Z</time></trkpt>
			<trkpt lat="54.747700" lon="20.280980"><ele>10.8</ele><time>2026-07-15T09:20:53Z</time></trkpt>
			<trkpt lat="54.747780" lon="20.281230"><ele>10.4</ele><time>2026-07-15T09:20:58Z</time></trkpt>
			<trkpt lat="54.747840" lon="20.281520"><ele>10.0</ele><time>2026-07-15T09:21:03Z</time></trkpt>
			<trkpt lat="54.747920" lon="20.282040"><ele>9.6</ele><time>2026-07-15T09:21:08Z</time></trkpt>
			<trkpt lat="54.748170" lon="20.284060"><ele>10.3</ele><time>2026-07-15T09:21:13Z</time></trkpt>
			<trkpt lat="54.748270" lon="20.284820"><ele>11.3</ele><time>2026-07-15T09:21:17Z</time></trkpt>
			<trkpt lat="54.748300" lon="20.285070"><ele>11.5</ele><time>2026-07-15T09:21:22Z</time></trkpt>
			<trkpt lat="54.748360" lon="20.285520"><ele>11.4</ele><time>2026-07-15T09:21:27Z</time></trkpt>
			<trkpt lat="54.748440" lon="20.286130"><ele>11.2</ele><time>2026-07-15T09:21:32Z</time></trkpt>
			<trkpt lat="54.748950" lon="20.290060"><ele>10.8</ele><time>2026-07-15T09:21:36Z</time></trkpt>
			<trkpt lat="54.749100" lon="20.291190"><ele>8.4</ele><time>2026-07-15T09:21:41Z</time></trkpt>
			<trkpt lat="54.749140" lon="20.291610"><ele>8.1</ele><time>2026-07-15T09:21:46Z</time></trkpt>
			<trkpt lat="54.749140" lon="20.292120"><ele>7.9</ele><time>2026-07-15T09:21:51Z</time></trkpt>
			<trkpt lat="54.749020" lon="20.293910"><ele>6.9</ele><time>2026-07-15T09:21:56Z</time></trkpt>
			<trkpt lat="54.749020" lon="20.294240"><ele>7.2</ele><time>2026-07-15T09:22:00Z</time></trkpt>
			<trkpt lat="54.749050" lon="20.294520"><ele>7.5</ele><time>2026-07-15T09:22:05Z</time></trkpt>
			<trkpt lat="54.749110" lon="20.294760"><ele>7.7</ele><time>2026-07-15T09:22:10Z</time></trkpt>
			<trkpt lat="54.749260" lon="20.295250"><ele>8.2</ele><time>2026-07-15T09:22:15Z</time></trkpt>
			<trkpt lat="54.749350" lon="20.295630"><ele>8.5</ele><time>2026-07-15T09:22:20Z</time></trkpt>
			<trkpt lat="54.749400" lon="20.295880"><ele>8.8</ele><time>2026-07-15T09:22:24Z</time></trkpt>
			<trkpt lat="54.749420" lon="20.296350"><ele>9.2</ele><time>2026-07-15T09:22:29Z</time></trkpt>
			<trkpt lat="54.749420" lon="20.296700"><ele>9.4</ele><time>2026-07-15T09:22:34Z</time></trkpt>
			<trkpt lat="54.749490" lon="20.298670"><ele>9.4</ele><time>2026-07-15T09:22:39Z</time></trkpt>
			<trkpt lat="54.749490" lon="20.299110"><ele>9.5</ele><time>2026-07-15T09:22:43Z</time></trkpt>
			<trkpt lat="54.749400" lon="20.299540"><ele>9.3</ele><time>2026-07-15T09:22:48Z</time></trkpt>
			<trkpt lat="54.749320" lon="20.299820"><ele>9.0</ele><time>2026-07-15T09:22:53Z</time></trkpt>
			<trkpt lat="54.749120" lon="20.300330"><ele>9.0</ele><time>2026-07-15T09:22:58Z</time></trkpt>
			<trkpt lat="54.749030" lon="20.300590"><ele>8.9</ele><time>2026-07-15T09:23:03Z</time></trkpt>
			<trkpt lat="54.748980" lon="20.300990"><ele>8.8</ele><time>2026-07-15T09:23:07Z</time></trkpt>
			<trkpt lat="54.748940" lon="20.302280"><ele>8.8</ele><time>2026-07-15T09:23:12Z</time></trkpt>
			<trkpt lat="54.749010" lon="20.302620"><ele>8.9</ele><time>2026-07-15T09:23:17Z</time></trkpt>
			<trkpt lat="54.749580" lon="20.303840"><ele>9.3</ele><time>2026-07-15T09:23:22Z</time></trkpt>
			<trkpt lat="54.754110" lon="20.313660"><ele>19.9</ele><time>2026-07-15T09:23:27Z</time></trkpt>
			<trkpt lat="54.757440" lon="20.320880"><ele>26.4</ele><time>2026-07-15T09:23:31Z</time></trkpt>
			<trkpt lat="54.761150" lon="20.328890"><ele>28.6</ele><time>2026-07-15T09:23:36Z</time></trkpt>
			<trkpt lat="54.760940" lon="20.329320"><ele>28.8</ele><time>2026-07-15T09:23:41Z</time></trkpt>
			<trkpt lat="54.759690" lon="20.331800"><ele>26.8</ele><time>2026-07-15T09:23:46Z</time></trkpt>
			<trkpt lat="54.758450" lon="20.334310"><ele>32.0</ele><time>2026-07-15T09:23:50Z</time></trkpt>
			<trkpt lat="54.757580" lon="20.336060"><ele>36.8</ele><time>2026-07-15T09:23:55Z</time></trkpt>
			<trkpt lat="54.756710" lon="20.337830"><ele>34.8</ele><time>2026-07-15T09:24:00Z</time></trkpt>
			<trkpt lat="54.756580" lon="20.338120"><ele>33.4</ele><time>2026-07-15T09:24:05Z</time></trkpt>
			<trkpt lat="54.756540" lon="20.338290"><ele>32.9</ele><time>2026-07-15T09:24:10Z</time></trkpt>
			<trkpt lat="54.756490" lon="20.338520"><ele>32.1</ele><time>2026-07-15T09:24:14Z</time></trkpt>
			<trkpt lat="54.756470" lon="20.338640"><ele>31.7</ele><time>2026-07-15T09:24:19Z</time></trkpt>
			<trkpt lat="54.756200" lon="20.340330"><ele>26.2</ele><time>2026-07-15T09:24:24Z</time></trkpt>
			<trkpt lat="54.756010" lon="20.341900"><ele>33.9</ele><time>2026-07-15T09:24:29Z</time></trkpt>
			<trkpt lat="54.755910" lon="20.342580"><ele>37.6</ele><time>2026-07-15T09:24:34Z</time></trkpt>
			<trkpt lat="54.755470" lon="20.344990"><ele>34.8</ele><time>2026-07-15T09:24:38Z</time></trkpt>
			<trkpt lat="54.755310" lon="20.345840"><ele>31.9</ele><time>2026-07-15T09:24:43Z</time></trkpt>
			<trkpt lat="54.755240" lon="20.346600"><ele>30.4</ele><time>2026-07-15T09:24:48Z</time></trkpt>
			<trkpt lat="54.755240" lon="20.347300"><ele>29.2</ele><time>2026-07-15T09:24:53Z</time></trkpt>
			<trkpt lat="54.755250" lon="20.347590"><ele>28.8</ele><time>2026-07-15T09:24:57Z</time></trkpt>
			<trkpt lat="54.755450" lon="20.353030"><ele>26.8</ele><time>2026-07-15T09:25:02Z</time></trkpt>
			<trkpt lat="54.755590" lon="20.358430"><ele>25.1</ele><time>2026-07-15T09:25:07Z</time></trkpt>
			<trkpt lat="54.755730" lon="20.362550"><ele>28.1</ele><time>2026-07-15T09:25:12Z</time></trkpt>
			<trkpt lat="54.755740" lon="20.363120"><ele>28.1</ele><time>2026-07-15T09:25:17Z</time></trkpt>
			<trkpt lat="54.755930" lon="20.368140"><ele>27.9</ele><time>2026-07-15T09:25:21Z</time></trkpt>
			<trkpt lat="54.756170" lon="20.375700"><ele>33.3</ele><time>2026-07-15T09:25:26Z</time></trkpt>
			<trkpt lat="54.756230" lon="20.377300"><ele>29.0</ele><time>2026-07-15T09:25:31Z</time></trkpt>
			<trkpt lat="54.756250" lon="20.377710"><ele>28.2</ele><time>2026-07-15T09:25:36Z</time></trkpt>
			<trkpt lat="54.756240" lon="20.377800"><ele>28.0</ele><time>2026-07-15T09:25:41Z</time></trkpt>
			<trkpt lat="54.756210" lon="20.377890"><ele>27.9</ele><time>2026-07-15T09:25:45Z</time></trkpt>
			<trkpt lat="54.756150" lon="20.377970"><ele>27.7</ele><time>2026-07-15T09:25:50Z</time></trkpt>
			<trkpt lat="54.755950" lon="20.378100"><ele>27.4</ele><time>2026-07-15T09:25:55Z</time></trkpt>
			<trkpt lat="54.755190" lon="20.378540"><ele>26.5</ele><time>2026-07-15T09:26:00Z</time></trkpt>
			<trkpt lat="54.755140" lon="20.378560"><ele>26.5</ele><time>2026-07-15T09:26:04Z</time></trkpt>
			<trkpt lat="54.755030" lon="20.378610"><ele>26.3</ele><time>2026-07-15T09:26:09Z</time></trkpt>
			<trkpt lat="54.754630" lon="20.378890"><ele>26.0</ele><time>2026-07-15T09:26:14Z</time></trkpt>
			<trkpt lat="54.754040" lon="20.379390"><ele>25.4</ele><time>2026-07-15T09:26:19Z</time></trkpt>
			<trkpt lat="54.753660" lon="20.379770"><ele>24.4</ele><time>2026-07-15T09:26:24Z</time></trkpt>
			<trkpt lat="54.753380" lon="20.380050"><ele>24.0</ele><time>2026-07-15T09:26:28Z</time></trkpt>
			<trkpt lat="54.753020" lon="20.380480"><ele>23.8</ele><time>2026-07-15T09:26:33Z</time></trkpt>
			<trkpt lat="54.752710" lon="20.380890"><ele>23.8</ele><time>2026-07-15T09:26:38Z</time></trkpt>
			<trkpt lat="54.752470" lon="20.381220"><ele>24.0</ele><time>2026-07-15T09:26:43Z</time></trkpt>
			<trkpt lat="54.752170" lon="20.381670"><ele>23.9</ele><time>2026-07-15T09:26:48Z</time></trkpt>
			<trkpt lat="54.751670" lon="20.382490"><ele>23.8</ele><time>2026-07-15T09:26:52Z</time></trkpt>
			<trkpt lat="54.751550" lon="20.382690"><ele>23.7</ele><time>2026-07-15T09:26:57Z</time></trkpt>
			<trkpt lat="54.751420" lon="20.382920"><ele>23.5</ele><time>2026-07-15T09:27:02Z</time></trkpt>
			<trkpt lat="54.751130" lon="20.383430"><ele>23.4</ele><time>2026-07-15T09:27:07Z</time></trkpt>
			<trkpt lat="54.751020" lon="20.383600"><ele>23.7</ele><time>2026-07-15T09:27:11Z</time></trkpt>
			<trkpt lat="54.750850" lon="20.383900"><ele>24.3</ele><time>2026-07-15T09:27:16Z</time></trkpt>
			<trkpt lat="54.750530" lon="20.384510"><ele>24.7</ele><time>2026-07-15T09:27:21Z</time></trkpt>
			<trkpt lat="54.750380" lon="20.384820"><ele>24.3</ele><time>2026-07-15T09:27:26Z</time></trkpt>
			<trkpt lat="54.750160" lon="20.385270"><ele>23.6</ele><time>2026-07-15T09:27:31Z</time></trkpt>
			<trkpt lat="54.749980" lon="20.385690"><ele>22.9</ele><time>2026-07-15T09:27:35Z</time></trkpt>
			<trkpt lat="54.749650" lon="20.386500"><ele>21.6</ele><time>2026-07-15T09:27:40Z</time></trkpt>
			<trkpt lat="54.749520" lon="20.386870"><ele>21.8</ele><time>2026-07-15T09:27:45Z</time></trkpt>
			<trkpt lat="54.749180" lon="20.387840"><ele>23.4</ele><time>2026-07-15T09:27:50Z</time></trkpt>
			<trkpt lat="54.749040" lon="20.388320"><ele>23.9</ele><time>2026-07-15T09:27:55Z</time></trkpt>
			<trkpt lat="54.748890" lon="20.388800"><ele>24.0</ele><time>2026-07-15T09:27:59Z</time></trkpt>
			<trkpt lat="54.748650" lon="20.389720"><ele>24.9</ele><time>2026-07-15T09:28:04Z</time></trkpt>
			<trkpt lat="54.747660" lon="20.393690"><ele>24.4</ele><time>2026-07-15T09:28:09Z</time></trkpt>
			<trkpt lat="54.747400" lon="20.394780"><ele>25.5</ele><time>2026-07-15T09:28:14Z</time></trkpt>
			<trkpt lat="54.747270" lon="20.395390"><ele>26.2</ele><time>2026-07-15T09:28:18Z</time></trkpt>
			<trkpt lat="54.747200" lon="20.395790"><ele>27.0</ele><time>2026-07-15T09:28:23Z</time></trkpt>
			<trkpt lat="54.747110" lon="20.396420"><ele>28.4</ele><time>2026-07-15T09:28:28Z</time></trkpt>
			<trkpt lat="54.747040" lon="20.397230"><ele>29.9</ele><time>2026-07-15T09:28:33Z</time></trkpt>
			<trkpt lat="54.747020" lon="20.397640"><ele>30.2</ele><time>2026-07-15T09:28:38Z</time></trkpt>
			<trkpt lat="54.747010" lon="20.398470"><ele>30.0</ele><time>2026-07-15T09:28:42Z</time></trkpt>
			<trkpt lat="54.747020" lon="20.398820"><ele>29.7</ele><time>2026-07-15T09:28:47Z</time></trkpt>
			<trkpt lat="54.747260" lon="20.404620"><ele>31.0</ele><time>2026-07-15T09:28:52Z</time></trkpt>
			<trkpt lat="54.747260" lon="20.404800"><ele>30.0</ele><time>2026-07-15T09:28:57Z</time></trkpt>
			<trkpt lat="54.747250" lon="20.404910"><ele>29.5</ele><time>2026-07-15T09:29:02Z</time></trkpt>
			<trkpt lat="54.747210" lon="20.405140"><ele>28.9</ele><time>2026-07-15T09:29:06Z</time></trkpt>
			<trkpt lat="54.747160" lon="20.405190"><ele>28.7</ele><time>2026-07-15T09:29:11Z</time></trkpt>
			<trkpt lat="54.747120" lon="20.405260"><ele>28.4</ele><time>2026-07-15T09:29:16Z</time></trkpt>
			<trkpt lat="54.747090" lon="20.405350"><ele>28.2</ele><time>2026-07-15T09:29:21Z</time></trkpt>
			<trkpt lat="54.747060" lon="20.405440"><ele>28.0</ele><time>2026-07-15T09:29:26Z</time></trkpt>
			<trkpt lat="54.747050" lon="20.405550"><ele>27.8</ele><time>2026-07-15T09:29:30Z</time></trkpt>
			<trkpt lat="54.747050" lon="20.405690"><ele>27.5</ele><time>2026-07-15T09:29:35Z</time></trkpt>
			<trkpt lat="54.747080" lon="20.405850"><ele>27.3</ele><time>2026-07-15T09:29:40Z</time></trkpt>
			<trkpt lat="54.747110" lon="20.405940"><ele>27.1</ele><time>2026-07-15T09:29:45Z</time></trkpt>
			<trkpt lat="54.747150" lon="20.406020"><ele>27.0</ele><time>2026-07-15T09:29:49Z</time></trkpt>
			<trkpt lat="54.747200" lon="20.406080"><ele>27.0</ele><time>2026-07-15T09:29:54Z</time></trkpt>
			<trkpt lat="54.747250" lon="20.406120"><ele>27.0</ele><time>2026-07-15T09:29:59Z</time></trkpt>
			<trkpt lat="54.747290" lon="20.406220"><ele>27.0</ele><time>2026-07-15T09:30:04Z</time></trkpt>
			<trkpt lat="54.747330" lon="20.406340"><ele>27.0</ele><time>2026-07-15T09:30:09Z</time></trkpt>
			<trkpt lat="54.747350" lon="20.406540"><ele>27.0</ele><time>2026-07-15T09:30:13Z</time></trkpt>
			<trkpt lat="54.747500" lon="20.409930"><ele>25.0</ele><time>2026-07-15T09:30:18Z</time></trkpt>
			<trkpt lat="54.747520" lon="20.410550"><ele>25.0</ele><time>2026-07-15T09:30:23Z</time></trkpt>
			<trkpt lat="54.747520" lon="20.411480"><ele>24.2</ele><time>2026-07-15T09:30:28Z</time></trkpt>
			<trkpt lat="54.747500" lon="20.411930"><ele>23.7</ele><time>2026-07-15T09:30:33Z</time></trkpt>
			<trkpt lat="54.747450" lon="20.412690"><ele>23.2</ele><time>2026-07-15T09:30:37Z</time></trkpt>
			<trkpt lat="54.747390" lon="20.413280"><ele>23.9</ele><time>2026-07-15T09:30:42Z</time></trkpt>
			<trkpt lat="54.747320" lon="20.413850"><ele>24.5</ele><time>2026-07-15T09:30:47Z</time></trkpt>
			<trkpt lat="54.747230" lon="20.414370"><ele>24.6</ele><time>2026-07-15T09:30:52Z</time></trkpt>
			<trkpt lat="54.747120" lon="20.414910"><ele>24.5</ele><time>2026-07-15T09:30:56Z</time></trkpt>
			<trkpt lat="54.747050" lon="20.415220"><ele>24.4</ele><time>2026-07-15T09:31:01Z</time></trkpt>
			<trkpt lat="54.746650" lon="20.416890"><ele>22.8</ele><time>2026-07-15T09:31:06Z</time></trkpt>
			<trkpt lat="54.746560" lon="20.417210"><ele>22.7</ele><time>2026-07-15T09:31:11Z</time></trkpt>
			<trkpt lat="54.746430" lon="20.417620"><ele>23.0</ele><time>2026-07-15T09:31:16Z</time></trkpt>
			<trkpt lat="54.746270" lon="20.418090"><ele>23.4</ele><time>2026-07-15T09:31:20Z</time></trkpt>
			<trkpt lat="54.746060" lon="20.418580"><ele>23.5</ele><time>2026-07-15T09:31:25Z</time></trkpt>
			<trkpt lat="54.745800" lon="20.419070"><ele>23.3</ele><time>2026-07-15T09:31:30Z</time></trkpt>
			<trkpt lat="54.745520" lon="20.419530"><ele>23.6</ele><time>2026-07-15T09:31:35Z</time></trkpt>
			<trkpt lat="54.745180" lon="20.419990"><ele>23.9</ele><time>2026-07-15T09:31:40Z</time></trkpt>
			<trkpt lat="54.744940" lon="20.420270"><ele>24.1</ele><time>2026-07-15T09:31:44Z</time></trkpt>
			<trkpt lat="54.744250" lon="20.421020"><ele>23.8</ele><time>2026-07-15T09:31:49Z</time></trkpt>
			<trkpt lat="54.743880" lon="20.421440"><ele>24.0</ele><time>2026-07-15T09:31:54Z</time></trkpt>
			<trkpt lat="54.743710" lon="20.421660"><ele>24.1</ele><time>2026-07-15T09:31:59Z</time></trkpt>
			<trkpt lat="54.743440" lon="20.422030"><ele>24.3</ele><time>2026-07-15T09:32:03Z</time></trkpt>
			<trkpt lat="54.743230" lon="20.422350"><ele>24.3</ele><time>2026-07-15T09:32:08Z</time></trkpt>
			<trkpt lat="54.743040" lon="20.422680"><ele>24.4</ele><time>2026-07-15T09:32:13Z</time></trkpt>
			<trkpt lat="54.742850" lon="20.423040"><ele>24.6</ele><time>2026-07-15T09:32:18Z</time></trkpt>
			<trkpt lat="54.742680" lon="20.423390"><ele>24.6</ele><time>2026-07-15T09:32:23Z</time></trkpt>
			<trkpt lat="54.742480" lon="20.423830"><ele>24.3</ele><time>2026-07-15T09:32:27Z</time></trkpt>
			<trkpt lat="54.742000" lon="20.425030"><ele>23.1</ele><time>2026-07-15T09:32:32Z</time></trkpt>
			<trkpt lat="54.741950" lon="20.425290"><ele>23.3</ele><time>2026-07-15T09:32:37Z</time></trkpt>
			<trkpt lat="54.741940" lon="20.425330"><ele>23.3</ele><time>2026-07-15T09:32:42Z</time></trkpt>
			<trkpt lat="54.741800" lon="20.425690"><ele>23.7</ele><time>2026-07-15T09:32:47Z</time></trkpt>
			<trkpt lat="54.741670" lon="20.425870"><ele>24.0</ele><time>2026-07-15T09:32:51Z</time></trkpt>
			<trkpt lat="54.741590" lon="20.425940"><ele>24.1</ele><time>2026-07-15T09:32:56Z</time></trkpt>
			<trkpt lat="54.741520" lon="20.425960"><ele>24.2</ele><time>2026-07-15T09:33:01Z</time></trkpt>
			<trkpt lat="54.741420" lon="20.425950"><ele>24.2</ele><time>2026-07-15T09:33:06Z</time></trkpt>
			<trkpt lat="54.741290" lon="20.425920"><ele>24.1</ele><time>2026-07-15T09:33:10Z</time></trkpt>
			<trkpt lat="54.740510" lon="20.425120"><ele>23.6</ele><time>2026-07-15T09:33:15Z</time></trkpt>
			<trkpt lat="54.739830" lon="20.424180"><ele>23.9</ele><time>2026-07-15T09:33:20Z</time></trkpt>
			<trkpt lat="54.739750" lon="20.424060"><ele>23.9</ele><time>2026-07-15T09:33:25Z</time></trkpt>
			<trkpt lat="54.739670" lon="20.423920"><ele>23.8</ele><time>2026-07-15T09:33:30Z</time></trkpt>
			<trkpt lat="54.739160" lon="20.423110"><ele>23.7</ele><time>2026-07-15T09:33:34Z</time></trkpt>
			<trkpt lat="54.738660" lon="20.422270"><ele>23.0</ele><time>2026-07-15T09:33:39Z</time></trkpt>
			<trkpt lat="54.738490" lon="20.422000"><ele>23.0</ele><time>2026-07-15T09:33:44Z</time></trkpt>
			<trkpt lat="54.738150" lon="20.421460"><ele>22.9</ele><time>2026-07-15T09:33:49Z</time></trkpt>
			<trkpt lat="54.737420" lon="20.420270"><ele>21.5</ele><time>2026-07-15T09:33:54Z</time></trkpt>
			<trkpt lat="54.737310" lon="20.420090"><ele>21.4</ele><time>2026-07-15T09:33:58Z</time></trkpt>
			<trkpt lat="54.736710" lon="20.419100"><ele>21.7</ele><time>2026-07-15T09:34:03Z</time></trkpt>
			<trkpt lat="54.736100" lon="20.418090"><ele>20.9</ele><time>2026-07-15T09:34:08Z</time></trkpt>
			<trkpt lat="54.735660" lon="20.417370"><ele>21.1</ele><time>2026-07-15T09:34:13Z</time></trkpt>
			<trkpt lat="54.735310" lon="20.416800"><ele>21.6</ele><time>2026-07-15T09:34:17Z</time></trkpt>
			<trkpt lat="54.734950" lon="20.416220"><ele>22.0</ele><time>2026-07-15T09:34:22Z</time></trkpt>
			<trkpt lat="54.734650" lon="20.415730"><ele>21.9</ele><time>2026-07-15T09:34:27Z</time></trkpt>
			<trkpt lat="54.734650" lon="20.415730"><ele>21.9</ele><time>2026-07-15T09:34:31Z</time></trkpt>
			<trkpt lat="54.734340" lon="20.415220"><ele>21.3</ele><time>2026-07-15T09:34:35Z</time></trkpt>
			<trkpt lat="54.733880" lon="20.414450"><ele>21.3</ele><time>2026-07-15T09:34:40Z</time></trkpt>
			<trkpt lat="54.733700" lon="20.414100"><ele>21.7</ele><time>2026-07-15T09:34:44Z</time></trkpt>
			<trkpt lat="54.733430" lon="20.413550"><ele>22.6</ele><time>2026-07-15T09:34:48Z</time></trkpt>
			<trkpt lat="54.733270" lon="20.413110"><ele>22.3</ele><time>2026-07-15T09:34:52Z</time></trkpt>
			<trkpt lat="54.732770" lon="20.411450"><ele>17.8</ele><time>2026-07-15T09:34:56Z</time></trkpt>
			<trkpt lat="54.732490" lon="20.410650"><ele>17.6</ele><time>2026-07-15T09:35:00Z</time></trkpt>
			<trkpt lat="54.732230" lon="20.409940"><ele>16.7</ele><time>2026-07-15T09:35:05Z</time></trkpt>
			<trkpt lat="54.731880" lon="20.409080"><ele>16.0</ele><time>2026-07-15T09:35:09Z</time></trkpt>
			<trkpt lat="54.731690" lon="20.408660"><ele>16.0</ele><time>2026-07-15T09:35:13Z</time></trkpt>
			<trkpt lat="54.731470" lon="20.408220"><ele>15.9</ele><time>2026-07-15T09:35:17Z</time></trkpt>
			<trkpt lat="54.731150" lon="20.407630"><ele>15.5</ele><time>2026-07-15T09:35:21Z</time></trkpt>
			<trkpt lat="54.730790" lon="20.407120"><ele>15.6</ele><time>2026-07-15T09:35:26Z</time></trkpt>
			<trkpt lat="54.730240" lon="20.406560"><ele>17.4</ele><time>2026-07-15T09:35:30Z</time></trkpt>
			<trkpt lat="54.730060" lon="20.406400"><ele>17.7</ele><time>2026-07-15T09:35:34Z</time></trkpt>
			<trkpt lat="54.728580" lon="20.405480"><ele>17.7</ele><time>2026-07-15T09:35:38Z</time></trkpt>
			<trkpt lat="54.727910" lon="20.405050"><ele>16.5</ele><time>2026-07-15T09:35:42Z</time></trkpt>
			<trkpt lat="54.727390" lon="20.404700"><ele>15.7</ele><time>2026-07-15T09:35:46Z</time></trkpt>
			<trkpt lat="54.727170" lon="20.404530"><ele>15.2</ele><time>2026-07-15T09:35:51Z</time></trkpt>
			<trkpt lat="54.727100" lon="20.404470"><ele>15.1</ele><time>2026-07-15T09:35:55Z</time></trkpt>
			<trkpt lat="54.726970" lon="20.404340"><ele>14.8</ele><time>2026-07-15T09:35:59Z</time></trkpt>
			<trkpt lat="54.726860" lon="20.404680"><ele>14.5</ele><time>2026-07-15T09:36:03Z</time></trkpt>
			<trkpt lat="54.726450" lon="20.406070"><ele>13.8</ele><time>2026-07-15T09:36:07Z</time></trkpt>
			<trkpt lat="54.726000" lon="20.407470"><ele>13.5</ele><time>2026-07-15T09:36:12Z</time></trkpt>
			<trkpt lat="54.725750" lon="20.408290"><ele>13.8</ele><time>2026-07-15T09:36:16Z</time></trkpt>
			<trkpt lat="54.724620" lon="20.411970"><ele>15.3</ele><time>2026-07-15T09:36:20Z</time></trkpt>
			<trkpt lat="54.723940" lon="20.414230"><ele>19.1</ele><time>2026-07-15T09:36:24Z</time></trkpt>
			<trkpt lat="54.723720" lon="20.414930"><ele>18.5</ele><time>2026-07-15T09:36:28Z</time></trkpt>
			<trkpt lat="54.723600" lon="20.415320"><ele>18.1</ele><time>2026-07-15T09:36:32Z</time></trkpt>
			<trkpt lat="54.723360" lon="20.416100"><ele>17.3</ele><time>2026-07-15T09:36:37Z</time></trkpt>
			<trkpt lat="54.723300" lon="20.416260"><ele>17.0</ele><time>2026-07-15T09:36:41Z</time></trkpt>
			<trkpt lat="54.723170" lon="20.416630"><ele>16.1</ele><time>2026-07-15T09:36:45Z</time></trkpt>
			<trkpt lat="54.722980" lon="20.416990"><ele>15.6</ele><time>2026-07-15T09:36:49Z</time></trkpt>
			<trkpt lat="54.722740" lon="20.417280"><ele>15.3</ele><time>2026-07-15T09:36:53Z</time></trkpt>
			<trkpt lat="54.722540" lon="20.417520"><ele>15.1</ele><time>2026-07-15T09:36:58Z</time></trkpt>
			<trkpt lat="54.722380" lon="20.417720"><ele>15.1</ele><time>2026-07-15T09:37:02Z</time></trkpt>
			<trkpt lat="54.721840" lon="20.419370"><ele>16.4</ele><time>2026-07-15T09:37:06Z</time></trkpt>
			<trkpt lat="54.721530" lon="20.420690"><ele>18.8</ele><time>2026-07-15T09:37:10Z</time></trkpt>
			<trkpt lat="54.721440" lon="20.420960"><ele>18.6</ele><time>2026-07-15T09:37:14Z</time></trkpt>
			<trkpt lat="54.721310" lon="20.421260"><ele>18.3</ele><time>2026-07-15T09:37:18Z</time></trkpt>
			<trkpt lat="54.721190" lon="20.421420"><ele>18.1</ele><time>2026-07-15T09:37:23Z</time></trkpt>
			<trkpt lat="54.721060" lon="20.421530"><ele>18.0</ele><time>2026-07-15T09:37:27Z</time></trkpt>
			<trkpt lat="54.720620" lon="20.421770"><ele>17.6</ele><time>2026-07-15T09:37:31Z</time></trkpt>
			<trkpt lat="54.720440" lon="20.421870"><ele>17.3</ele><time>2026-07-15T09:37:35Z</time></trkpt>
			<trkpt lat="54.720110" lon="20.422090"><ele>17.0</ele><time>2026-07-15T09:37:39Z</time></trkpt>
			<trkpt lat="54.719950" lon="20.422330"><ele>17.4</ele><time>2026-07-15T09:37:44Z</time></trkpt>
			<trkpt lat="54.719730" lon="20.422700"><ele>18.4</ele><time>2026-07-15T09:37:48Z</time></trkpt>
			<trkpt lat="54.719580" lon="20.423020"><ele>19.3</ele><time>2026-07-15T09:37:52Z</time></trkpt>
			<trkpt lat="54.719420" lon="20.423430"><ele>20.7</ele><time>2026-07-15T09:37:56Z</time></trkpt>
			<trkpt lat="54.719300" lon="20.423710"><ele>21.7</ele><time>2026-07-15T09:38:00Z</time></trkpt>
			<trkpt lat="54.719300" lon="20.423710"><ele>21.7</ele><time>2026-07-15T09:38:03Z</time></trkpt>
			<trkpt lat="54.719230" lon="20.423880"><ele>22.2</ele><time>2026-07-15T09:38:06Z</time></trkpt>
			<trkpt lat="54.718990" lon="20.424490"><ele>22.2</ele><time>2026-07-15T09:38:08Z</time></trkpt>
			<trkpt lat="54.719800" lon="20.424560"><ele>20.3</ele><time>2026-07-15T09:38:11Z</time></trkpt>
			<trkpt lat="54.720130" lon="20.424620"><ele>20.0</ele><time>2026-07-15T09:38:13Z</time></trkpt>
			<trkpt lat="54.720370" lon="20.424670"><ele>19.8</ele><time>2026-07-15T09:38:16Z</time></trkpt>
			<trkpt lat="54.720650" lon="20.424720"><ele>19.5</ele><time>2026-07-15T09:38:19Z</time></trkpt>
			<trkpt lat="54.721630" lon="20.424900"><ele>18.0</ele><time>2026-07-15T09:38:21Z</time></trkpt>
			<trkpt lat="54.722250" lon="20.425000"><ele>17.9</ele><time>2026-07-15T09:38:24Z</time></trkpt>
			<trkpt lat="54.722230" lon="20.425750"><ele>17.4</ele><time>2026-07-15T09:38:27Z</time></trkpt>
			<trkpt lat="54.722130" lon="20.426250"><ele>17.2</ele><time>2026-07-15T09:38:29Z</time></trkpt>
			<trkpt lat="54.722030" lon="20.426790"><ele>17.4</ele><time>2026-07-15T09:38:32Z</time></trkpt>
			<trkpt lat="54.722040" lon="20.427120"><ele>17.6</ele><time>2026-07-15T09:38:35Z</time></trkpt>
			<trkpt lat="54.722050" lon="20.427270"><ele>17.7</ele><time>2026-07-15T09:38:37Z</time></trkpt>
			<trkpt lat="54.722140" lon="20.427660"><ele>18.1</ele><time>2026-07-15T09:38:40Z</time></trkpt>
			<trkpt lat="54.722280" lon="20.428110"><ele>18.4</ele><time>2026-07-15T09:38:42Z</time></trkpt>
			<trkpt lat="54.722400" lon="20.428520"><ele>18.1</ele><time>2026-07-15T09:38:45Z</time></trkpt>
			<trkpt lat="54.722420" lon="20.428630"><ele>18.0</ele><time>2026-07-15T09:38:48Z</time></trkpt>
			<trkpt lat="54.722460" lon="20.428840"><ele>17.7</ele><time>2026-07-15T09:38:50Z</time></trkpt>
			<trkpt lat="54.722480" lon="20.429140"><ele>17.2</ele><time>2026-07-15T09:38:53Z</time></trkpt>
			<trkpt lat="54.722280" lon="20.431460"><ele>18.9</ele><time>2026-07-15T09:38:56Z</time></trkpt>
			<trkpt lat="54.722260" lon="20.431700"><ele>19.7</ele><time>2026-07-15T09:38:58Z</time></trkpt>
			<trkpt lat="54.722120" lon="20.433250"><ele>21.1</ele><time>2026-07-15T09:39:01Z</time></trkpt>
			<trkpt lat="54.721710" lon="20.433100"><ele>20.7</ele><time>2026-07-15T09:39:04Z</time></trkpt>
			<trkpt lat="54.721430" lon="20.433080"><ele>20.1</ele><time>2026-07-15T09:39:06Z</time></trkpt>
			<trkpt lat="54.721220" lon="20.433070"><ele>19.6</ele><time>2026-07-15T09:39:09Z</time></trkpt>
		</trkseg>
	</trk>
</gpx>